<?xml version='1.0' encoding='UTF-8'?><gpx version="1.1" creator="JPX - https://github.com/jenetics/jpx" xmlns="http://www.topografix.com/GPX/1/1"><trk><trkseg><trkpt lat="44.40221748604848" lon="8.979987772465746"><ele>53.75</ele><time>2026-04-18T06:13:02Z</time></trkpt><trkpt lat="44.40213789095043" lon="8.980083326764882"><ele>53.5</ele><time>2026-04-18T06:13:05Z</time></trkpt><trkpt lat="44.40203139955161" lon="8.980133720354132"><ele>53.25</ele><time>2026-04-18T06:13:07Z</time></trkpt><trkpt lat="44.40189550341706" lon="8.980174456590387"><ele>53.0</ele><time>2026-04-18T06:13:09Z</time></trkpt><trkpt lat="44.40169843494359" lon="8.980281570574832"><ele>53.0</ele><time>2026-04-18T06:13:10Z</time></trkpt><trkpt lat="44.40161552594934" lon="8.980327997800913"><ele>53.0</ele><time>2026-04-18T06:13:11Z</time></trkpt><trkpt lat="44.4015593934386" lon="8.98042381558853"><ele>53.0</ele><time>2026-04-18T06:13:13Z</time></trkpt><trkpt lat="44.401553579173616" lon="8.980553659634536"><ele>53.0</ele><time>2026-04-18T06:13:15Z</time></trkpt><trkpt lat="44.40161975802445" lon="8.980665234694003"><ele>53.0</ele><time>2026-04-18T06:13:17Z</time></trkpt><trkpt lat="44.40172059751372" lon="8.980711785000912"><ele>53.0</ele><time>2026-04-18T06:13:19Z</time></trkpt><trkpt lat="44.401829331479384" lon="8.980665899584212"><ele>53.0</ele><time>2026-04-18T06:13:21Z</time></trkpt><trkpt lat="44.40195871993431" lon="8.98063469252056"><ele>53.0</ele><time>2026-04-18T06:13:23Z</time></trkpt><trkpt lat="44.402039198373885" lon="8.980632287815476"><ele>53.0</ele><time>2026-04-18T06:13:24Z</time></trkpt><trkpt lat="44.402118207410695" lon="8.980604161426982"><ele>53.0</ele><time>2026-04-18T06:13:25Z</time></trkpt><trkpt lat="44.40219362966641" lon="8.980563810091887"><ele>54.333333333333336</ele><time>2026-04-18T06:13:26Z</time></trkpt><trkpt lat="44.402271753892855" lon="8.98052400843122"><ele>55.66666666666667</ele><time>2026-04-18T06:13:27Z</time></trkpt><trkpt lat="44.40235054188054" lon="8.98051467521293"><ele>57.0</ele><time>2026-04-18T06:13:28Z</time></trkpt><trkpt lat="44.402430654347214" lon="8.980509357551465"><ele>58.33333333333333</ele><time>2026-04-18T06:13:29Z</time></trkpt><trkpt lat="44.40254696328528" lon="8.98050959942731"><ele>59.666666666666664</ele><time>2026-04-18T06:13:31Z</time></trkpt><trkpt lat="44.402611419708585" lon="8.980477301353273"><ele>61.0</ele><time>2026-04-18T06:13:32Z</time></trkpt><trkpt lat="44.40268297858634" lon="8.980444006780258"><ele>60.99999999999999</ele><time>2026-04-18T06:13:33Z</time></trkpt><trkpt lat="44.40275342550657" lon="8.980411760481271"><ele>61.0</ele><time>2026-04-18T06:13:34Z</time></trkpt><trkpt lat="44.4028390591605" lon="8.980370393088963"><ele>61.0</ele><time>2026-04-18T06:13:35Z</time></trkpt><trkpt lat="44.40292837486342" lon="8.980322326458996"><ele>61.0</ele><time>2026-04-18T06:13:36Z</time></trkpt><trkpt lat="44.403000463771555" lon="8.980295759365639"><ele>60.99999999999999</ele><time>2026-04-18T06:13:37Z</time></trkpt><trkpt lat="44.40306511250074" lon="8.980248645666782"><ele>61.0</ele><time>2026-04-18T06:13:38Z</time></trkpt><trkpt lat="44.40312800244807" lon="8.980204835313081"><ele>61.199999999999996</ele><time>2026-04-18T06:13:39Z</time></trkpt><trkpt lat="44.40324113626199" lon="8.980110835280973"><ele>61.39999999999999</ele><time>2026-04-18T06:13:41Z</time></trkpt><trkpt lat="44.40329649543691" lon="8.980057124992731"><ele>61.6</ele><time>2026-04-18T06:13:42Z</time></trkpt><trkpt lat="44.4033860698376" lon="8.979973863765968"><ele>61.8</ele><time>2026-04-18T06:13:44Z</time></trkpt><trkpt lat="44.40347452758632" lon="8.979880483647523"><ele>62.0</ele><time>2026-04-18T06:13:46Z</time></trkpt><trkpt lat="44.40351723991903" lon="8.979797987818062"><ele>62.00000000000001</ele><time>2026-04-18T06:13:47Z</time></trkpt><trkpt lat="44.40355766701367" lon="8.979723609537253"><ele>62.0</ele><time>2026-04-18T06:13:48Z</time></trkpt><trkpt lat="44.40360742446185" lon="8.979600404579042"><ele>62.0</ele><time>2026-04-18T06:13:50Z</time></trkpt><trkpt lat="44.40365461979028" lon="8.979515977054831"><ele>62.0</ele><time>2026-04-18T06:13:52Z</time></trkpt><trkpt lat="44.403699541082496" lon="8.979408762003002"><ele>62.00000000000001</ele><time>2026-04-18T06:13:55Z</time></trkpt><trkpt lat="44.40370420589827" lon="8.979314048875246"><ele>62.0</ele><time>2026-04-18T06:13:58Z</time></trkpt><trkpt lat="44.40364526330575" lon="8.979251561971772"><ele>62.0</ele><time>2026-04-18T06:14:02Z</time></trkpt><trkpt lat="44.40352244779268" lon="8.979235380888104"><ele>62.0</ele><time>2026-04-18T06:14:04Z</time></trkpt><trkpt lat="44.40343953421307" lon="8.979211707558232"><ele>62.0</ele><time>2026-04-18T06:14:05Z</time></trkpt><trkpt lat="44.40335833808211" lon="8.97918124101293"><ele>62.0</ele><time>2026-04-18T06:14:06Z</time></trkpt><trkpt lat="44.40325597126512" lon="8.979158223375117"><ele>62.0</ele><time>2026-04-18T06:14:07Z</time></trkpt><trkpt lat="44.40315903532498" lon="8.979138774933212"><ele>61.25</ele><time>2026-04-18T06:14:08Z</time></trkpt><trkpt lat="44.40306293893318" lon="8.979090653120474"><ele>60.5</ele><time>2026-04-18T06:14:09Z</time></trkpt><trkpt lat="44.402959907034415" lon="8.979026765608076"><ele>59.75</ele><time>2026-04-18T06:14:10.001Z</time></trkpt><trkpt lat="44.40284199518994" lon="8.978980798649584"><ele>59.0</ele><time>2026-04-18T06:14:11.001Z</time></trkpt><trkpt lat="44.40271802731678" lon="8.97893992552427"><ele>57.400000000000006</ele><time>2026-04-18T06:14:12.001Z</time></trkpt><trkpt lat="44.40262712404771" lon="8.978899308047767"><ele>55.800000000000004</ele><time>2026-04-18T06:14:13.001Z</time></trkpt><trkpt lat="44.40252878395245" lon="8.97886907234633"><ele>54.2</ele><time>2026-04-18T06:14:14.001Z</time></trkpt><trkpt lat="44.40243147574328" lon="8.978835052910885"><ele>52.599999999999994</ele><time>2026-04-18T06:14:15Z</time></trkpt><trkpt lat="44.402343603923946" lon="8.978760381851487"><ele>51.0</ele><time>2026-04-18T06:14:16Z</time></trkpt><trkpt lat="44.402266889036206" lon="8.97864976495403"><ele>51.0</ele><time>2026-04-18T06:14:17Z</time></trkpt><trkpt lat="44.402201359786666" lon="8.97854757418984"><ele>51.0</ele><time>2026-04-18T06:14:18Z</time></trkpt><trkpt lat="44.402156204373" lon="8.978480831167735"><ele>51.0</ele><time>2026-04-18T06:14:19Z</time></trkpt><trkpt lat="44.4021277246751" lon="8.978379775356478"><ele>51.0</ele><time>2026-04-18T06:14:21Z</time></trkpt><trkpt lat="44.4022072323795" lon="8.978325672374226"><ele>51.0</ele><time>2026-04-18T06:14:31Z</time></trkpt><trkpt lat="44.402346539244014" lon="8.978357471384546"><ele>51.0</ele><time>2026-04-18T06:14:33Z</time></trkpt><trkpt lat="44.40244445198009" lon="8.978383064780616"><ele>51.0</ele><time>2026-04-18T06:14:34Z</time></trkpt><trkpt lat="44.4025263776755" lon="8.978404520779312"><ele>51.0</ele><time>2026-04-18T06:14:35Z</time></trkpt><trkpt lat="44.40260899346172" lon="8.978418287427445"><ele>51.0</ele><time>2026-04-18T06:14:36Z</time></trkpt><trkpt lat="44.40270501224994" lon="8.978406896776853"><ele>51.0</ele><time>2026-04-18T06:14:37Z</time></trkpt><trkpt lat="44.40279085093107" lon="8.97835941280342"><ele>53.599999999999994</ele><time>2026-04-18T06:14:38Z</time></trkpt><trkpt lat="44.40286794368156" lon="8.978302682951691"><ele>56.2</ele><time>2026-04-18T06:14:39Z</time></trkpt><trkpt lat="44.402945810947514" lon="8.978212293771897"><ele>58.800000000000004</ele><time>2026-04-18T06:14:40Z</time></trkpt><trkpt lat="44.403012944081105" lon="8.978100252498118"><ele>61.400000000000006</ele><time>2026-04-18T06:14:41Z</time></trkpt><trkpt lat="44.403076389975226" lon="8.9779814603521"><ele>64.0</ele><time>2026-04-18T06:14:42Z</time></trkpt><trkpt lat="44.40313489088602" lon="8.977845936912535"><ele>64.25</ele><time>2026-04-18T06:14:43Z</time></trkpt><trkpt lat="44.40318987452491" lon="8.977702391096061"><ele>64.5</ele><time>2026-04-18T06:14:44Z</time></trkpt><trkpt lat="44.40325635830172" lon="8.977564977513738"><ele>64.75</ele><time>2026-04-18T06:14:45Z</time></trkpt><trkpt lat="44.40332996101372" lon="8.977433222403512"><ele>65.0</ele><time>2026-04-18T06:14:46Z</time></trkpt><trkpt lat="44.403400116851934" lon="8.977315361160011"><ele>66.75</ele><time>2026-04-18T06:14:47Z</time></trkpt><trkpt lat="44.403492045568726" lon="8.977217604291603"><ele>68.5</ele><time>2026-04-18T06:14:48Z</time></trkpt><trkpt lat="44.40359782658752" lon="8.97714554997313"><ele>70.25</ele><time>2026-04-18T06:14:49Z</time></trkpt><trkpt lat="44.40371595426994" lon="8.977095759583891"><ele>72.0</ele><time>2026-04-18T06:14:50Z</time></trkpt><trkpt lat="44.40385899746259" lon="8.977072415090003"><ele>72.0</ele><time>2026-04-18T06:14:51Z</time></trkpt><trkpt lat="44.4039980037593" lon="8.97706880823474"><ele>72.0</ele><time>2026-04-18T06:14:52Z</time></trkpt><trkpt lat="44.404085519089335" lon="8.977019566564987"><ele>72.0</ele><time>2026-04-18T06:14:53Z</time></trkpt><trkpt lat="44.404161617889905" lon="8.976924541619912"><ele>72.0</ele><time>2026-04-18T06:14:54Z</time></trkpt><trkpt lat="44.4042856334314" lon="8.976828984134547"><ele>72.0</ele><time>2026-04-18T06:14:55Z</time></trkpt><trkpt lat="44.40440545076251" lon="8.976695755796337"><ele>72.0</ele><time>2026-04-18T06:14:56Z</time></trkpt><trkpt lat="44.4045403576523" lon="8.976561683814378"><ele>72.0</ele><time>2026-04-18T06:14:57Z</time></trkpt><trkpt lat="44.404703093953195" lon="8.976476270365012"><ele>74.75</ele><time>2026-04-18T06:14:58Z</time></trkpt><trkpt lat="44.4048377492467" lon="8.976374315049943"><ele>77.5</ele><time>2026-04-18T06:14:59Z</time></trkpt><trkpt lat="44.40494174619389" lon="8.976286449864451"><ele>80.25</ele><time>2026-04-18T06:15:00Z</time></trkpt><trkpt lat="44.40502409046183" lon="8.976222846978308"><ele>83.0</ele><time>2026-04-18T06:15:01Z</time></trkpt><trkpt lat="44.40509602099792" lon="8.97613862810088"><ele>83.0</ele><time>2026-04-18T06:15:02Z</time></trkpt><trkpt lat="44.405150299187746" lon="8.976056321802812"><ele>83.0</ele><time>2026-04-18T06:15:03Z</time></trkpt><trkpt lat="44.40520388797614" lon="8.975983977101118"><ele>83.0</ele><time>2026-04-18T06:15:04Z</time></trkpt><trkpt lat="44.405247737854424" lon="8.975916886515197"><ele>83.0</ele><time>2026-04-18T06:15:05Z</time></trkpt><trkpt lat="44.40534987583267" lon="8.975879432825865"><ele>83.0</ele><time>2026-04-18T06:15:07Z</time></trkpt><trkpt lat="44.40542528801727" lon="8.975920280748744"><ele>83.0</ele><time>2026-04-18T06:15:08Z</time></trkpt><trkpt lat="44.40550500899299" lon="8.975998165889324"><ele>82.5</ele><time>2026-04-18T06:15:09Z</time></trkpt><trkpt lat="44.405587040823455" lon="8.97606591143671"><ele>82.0</ele><time>2026-04-18T06:15:10Z</time></trkpt><trkpt lat="44.40565658091866" lon="8.97612760811753"><ele>81.5</ele><time>2026-04-18T06:15:11Z</time></trkpt><trkpt lat="44.40570890722691" lon="8.976182585059355"><ele>81.0</ele><time>2026-04-18T06:15:12Z</time></trkpt><trkpt lat="44.40580057457236" lon="8.976223807759911"><ele>80.5</ele><time>2026-04-18T06:15:14Z</time></trkpt><trkpt lat="44.40586774995814" lon="8.976223318600402"><ele>80.0</ele><time>2026-04-18T06:15:16Z</time></trkpt><trkpt lat="44.4058505850955" lon="8.976133533135018"><ele>80.0</ele><time>2026-04-18T06:16:38Z</time></trkpt><trkpt lat="44.40589992573622" lon="8.976037834057236"><ele>80.0</ele><time>2026-04-18T06:17:12Z</time></trkpt><trkpt lat="44.405875243870355" lon="8.976127349716172"><ele>80.0</ele><time>2026-04-18T06:17:14Z</time></trkpt><trkpt lat="44.405808927252046" lon="8.97633027269755"><ele>80.0</ele><time>2026-04-18T06:17:55.999Z</time></trkpt><trkpt lat="44.4060021272006" lon="8.976292098028154"><ele>80.0</ele><time>2026-04-18T06:18:42Z</time></trkpt><trkpt lat="44.40607358699521" lon="8.976374205320298"><ele>80.0</ele><time>2026-04-18T06:18:43Z</time></trkpt><trkpt lat="44.40615101534114" lon="8.976482422020355"><ele>80.0</ele><time>2026-04-18T06:18:44Z</time></trkpt><trkpt lat="44.406254377813184" lon="8.976578058063135"><ele>80.0</ele><time>2026-04-18T06:18:45Z</time></trkpt><trkpt lat="44.40633379153802" lon="8.976690152892976"><ele>80.0</ele><time>2026-04-18T06:18:46Z</time></trkpt><trkpt lat="44.4064093860785" lon="8.976814258749622"><ele>78.8</ele><time>2026-04-18T06:18:47Z</time></trkpt><trkpt lat="44.40650587466582" lon="8.976870276247666"><ele>77.6</ele><time>2026-04-18T06:18:48Z</time></trkpt><trkpt lat="44.40663430044484" lon="8.976903846545483"><ele>76.4</ele><time>2026-04-18T06:18:49Z</time></trkpt><trkpt lat="44.40675143890136" lon="8.976920996054151"><ele>75.2</ele><time>2026-04-18T06:18:50Z</time></trkpt><trkpt lat="44.40682607819515" lon="8.976949620142806"><ele>74.0</ele><time>2026-04-18T06:18:51Z</time></trkpt><trkpt lat="44.40690988717054" lon="8.97696550986693"><ele>74.0</ele><time>2026-04-18T06:18:52Z</time></trkpt><trkpt lat="44.40698623147304" lon="8.976996444370695"><ele>74.0</ele><time>2026-04-18T06:18:53Z</time></trkpt><trkpt lat="44.407102401006256" lon="8.977020451932827"><ele>74.0</ele><time>2026-04-18T06:18:55Z</time></trkpt><trkpt lat="44.40716893916509" lon="8.977034592500395"><ele>74.0</ele><time>2026-04-18T06:18:56Z</time></trkpt><trkpt lat="44.40724095008117" lon="8.977050500200441"><ele>74.0</ele><time>2026-04-18T06:18:57Z</time></trkpt><trkpt lat="44.40732737759879" lon="8.977066639606484"><ele>74.0</ele><time>2026-04-18T06:18:58Z</time></trkpt><trkpt lat="44.40740799757451" lon="8.97708459846032"><ele>74.0</ele><time>2026-04-18T06:18:59Z</time></trkpt><trkpt lat="44.40751492584727" lon="8.97710973987279"><ele>74.0</ele><time>2026-04-18T06:19:00Z</time></trkpt><trkpt lat="44.407625015917226" lon="8.977096882604704"><ele>74.0</ele><time>2026-04-18T06:19:01Z</time></trkpt><trkpt lat="44.407712956279155" lon="8.977110924396719"><ele>74.0</ele><time>2026-04-18T06:19:02Z</time></trkpt><trkpt lat="44.40778812559853" lon="8.97710060055668"><ele>74.0</ele><time>2026-04-18T06:19:03Z</time></trkpt><trkpt lat="44.40786219113254" lon="8.977103515227926"><ele>74.0</ele><time>2026-04-18T06:19:04Z</time></trkpt><trkpt lat="44.40798220932081" lon="8.977115959092933"><ele>74.0</ele><time>2026-04-18T06:19:06Z</time></trkpt><trkpt lat="44.40806764115078" lon="8.977112986034392"><ele>74.0</ele><time>2026-04-18T06:19:08Z</time></trkpt><trkpt lat="44.408131102276364" lon="8.977118615648871"><ele>74.0</ele><time>2026-04-18T06:19:10Z</time></trkpt><trkpt lat="44.40819425779796" lon="8.97712421815525"><ele>74.0</ele><time>2026-04-18T06:19:12Z</time></trkpt><trkpt lat="44.40827441838315" lon="8.97713132917302"><ele>74.0</ele><time>2026-04-18T06:19:15Z</time></trkpt><trkpt lat="44.40834402698507" lon="8.977043617883282"><ele>74.5</ele><time>2026-04-18T06:19:18Z</time></trkpt><trkpt lat="44.40838897096078" lon="8.976935150035382"><ele>75.0</ele><time>2026-04-18T06:19:20Z</time></trkpt><trkpt lat="44.40843125578349" lon="8.976851078701479"><ele>75.5</ele><time>2026-04-18T06:19:22Z</time></trkpt><trkpt lat="44.40846163366179" lon="8.976765876311358"><ele>76.0</ele><time>2026-04-18T06:19:23Z</time></trkpt><trkpt lat="44.40849040623642" lon="8.976651848873932"><ele>76.5</ele><time>2026-04-18T06:19:24Z</time></trkpt><trkpt lat="44.40851438937301" lon="8.9764889842439"><ele>77.0</ele><time>2026-04-18T06:19:25Z</time></trkpt><trkpt lat="44.40849960522572" lon="8.976305313872382"><ele>77.0</ele><time>2026-04-18T06:19:26Z</time></trkpt><trkpt lat="44.40848487619181" lon="8.976118823896142"><ele>77.0</ele><time>2026-04-18T06:19:27Z</time></trkpt><trkpt lat="44.408459825083696" lon="8.975934439985913"><ele>77.0</ele><time>2026-04-18T06:19:28Z</time></trkpt><trkpt lat="44.40841291622328" lon="8.975728815021226"><ele>77.0</ele><time>2026-04-18T06:19:29Z</time></trkpt><trkpt lat="44.4083496440924" lon="8.975535593564521"><ele>75.75</ele><time>2026-04-18T06:19:30Z</time></trkpt><trkpt lat="44.40828162123608" lon="8.975368242179133"><ele>74.5</ele><time>2026-04-18T06:19:31Z</time></trkpt><trkpt lat="44.40821054703388" lon="8.975219234211753"><ele>73.25</ele><time>2026-04-18T06:19:32Z</time></trkpt><trkpt lat="44.40813366902406" lon="8.975079381248769"><ele>72.0</ele><time>2026-04-18T06:19:33Z</time></trkpt><trkpt lat="44.408050815325616" lon="8.97495577500725"><ele>71.0</ele><time>2026-04-18T06:19:34Z</time></trkpt><trkpt lat="44.40796689696322" lon="8.97485241277122"><ele>70.0</ele><time>2026-04-18T06:19:35Z</time></trkpt><trkpt lat="44.40787706329928" lon="8.974772113825804"><ele>69.0</ele><time>2026-04-18T06:19:35.999Z</time></trkpt><trkpt lat="44.40778611931541" lon="8.974718680872114"><ele>68.0</ele><time>2026-04-18T06:19:36.999Z</time></trkpt><trkpt lat="44.407713566429805" lon="8.974642038679612"><ele>67.0</ele><time>2026-04-18T06:19:37.999Z</time></trkpt><trkpt lat="44.40763923097094" lon="8.974576093494843"><ele>67.0</ele><time>2026-04-18T06:19:38.999Z</time></trkpt><trkpt lat="44.40757490791947" lon="8.97451455266703"><ele>67.0</ele><time>2026-04-18T06:19:39.999Z</time></trkpt><trkpt lat="44.40750930353117" lon="8.974448178663698"><ele>67.0</ele><time>2026-04-18T06:19:40.999Z</time></trkpt><trkpt lat="44.407459535726616" lon="8.974388213947792"><ele>67.0</ele><time>2026-04-18T06:19:41.999Z</time></trkpt><trkpt lat="44.40737709176314" lon="8.97426376190837"><ele>67.0</ele><time>2026-04-18T06:19:43.999Z</time></trkpt><trkpt lat="44.40734020167812" lon="8.974150332287286"><ele>67.0</ele><time>2026-04-18T06:19:44.999Z</time></trkpt><trkpt lat="44.407282415805234" lon="8.974010644070816"><ele>67.5</ele><time>2026-04-18T06:19:45.999Z</time></trkpt><trkpt lat="44.407234195851785" lon="8.973877972987768"><ele>68.0</ele><time>2026-04-18T06:19:46.999Z</time></trkpt><trkpt lat="44.40717886216885" lon="8.97371951923479"><ele>68.5</ele><time>2026-04-18T06:19:47.999Z</time></trkpt><trkpt lat="44.407129367442224" lon="8.973565274397117"><ele>69.0</ele><time>2026-04-18T06:19:48.999Z</time></trkpt><trkpt lat="44.4070852577007" lon="8.973419175850385"><ele>70.25</ele><time>2026-04-18T06:19:49.999Z</time></trkpt><trkpt lat="44.40704033919959" lon="8.973260285683333"><ele>71.5</ele><time>2026-04-18T06:19:50.999Z</time></trkpt><trkpt lat="44.4069947060363" lon="8.973105420816275"><ele>72.75</ele><time>2026-04-18T06:19:51.999Z</time></trkpt><trkpt lat="44.40695278812253" lon="8.972968088992351"><ele>74.0</ele><time>2026-04-18T06:19:52.999Z</time></trkpt><trkpt lat="44.40691064312551" lon="8.972827881407266"><ele>74.0</ele><time>2026-04-18T06:19:53.999Z</time></trkpt><trkpt lat="44.406870460872355" lon="8.972689979605429"><ele>74.0</ele><time>2026-04-18T06:19:54.999Z</time></trkpt><trkpt lat="44.406832695346296" lon="8.972550547817885"><ele>74.0</ele><time>2026-04-18T06:19:55.999Z</time></trkpt><trkpt lat="44.40678661742642" lon="8.972408359279354"><ele>74.0</ele><time>2026-04-18T06:19:56.999Z</time></trkpt><trkpt lat="44.406739706558724" lon="8.972252796762442"><ele>74.0</ele><time>2026-04-18T06:19:57.999Z</time></trkpt><trkpt lat="44.40669534568904" lon="8.972102438869559"><ele>73.60000000000001</ele><time>2026-04-18T06:19:58.999Z</time></trkpt><trkpt lat="44.40664773704041" lon="8.971946574298581"><ele>73.2</ele><time>2026-04-18T06:19:59.999Z</time></trkpt><trkpt lat="44.40661122165786" lon="8.971798983734752"><ele>72.80000000000001</ele><time>2026-04-18T06:20:00.999Z</time></trkpt><trkpt lat="44.40657034270463" lon="8.97166654590758"><ele>72.4</ele><time>2026-04-18T06:20:01.999Z</time></trkpt><trkpt lat="44.40653706350155" lon="8.971548070760056"><ele>72.0</ele><time>2026-04-18T06:20:02.999Z</time></trkpt><trkpt lat="44.406508905439665" lon="8.971456261042187"><ele>72.16666666666667</ele><time>2026-04-18T06:20:03.999Z</time></trkpt><trkpt lat="44.40648760768366" lon="8.971366301559364"><ele>72.33333333333333</ele><time>2026-04-18T06:20:04.999Z</time></trkpt><trkpt lat="44.40645883155957" lon="8.971222950719199"><ele>72.5</ele><time>2026-04-18T06:20:06.999Z</time></trkpt><trkpt lat="44.4064328286572" lon="8.97111617103569"><ele>72.66666666666666</ele><time>2026-04-18T06:20:08.999Z</time></trkpt><trkpt lat="44.40638840071497" lon="8.971049666988554"><ele>72.83333333333333</ele><time>2026-04-18T06:20:11.999Z</time></trkpt><trkpt lat="44.406313339546806" lon="8.971017796346715"><ele>73.0</ele><time>2026-04-18T06:20:36Z</time></trkpt><trkpt lat="44.40623157688261" lon="8.970875131908036"><ele>72.2</ele><time>2026-04-18T06:20:38Z</time></trkpt><trkpt lat="44.40618155892747" lon="8.970788340639242"><ele>71.4</ele><time>2026-04-18T06:20:39Z</time></trkpt><trkpt lat="44.406129094276814" lon="8.970693096251356"><ele>70.60000000000001</ele><time>2026-04-18T06:20:40Z</time></trkpt><trkpt lat="44.40607597583579" lon="8.970594915590196"><ele>69.8</ele><time>2026-04-18T06:20:41Z</time></trkpt><trkpt lat="44.40601521254548" lon="8.970479685725309"><ele>69.0</ele><time>2026-04-18T06:20:42Z</time></trkpt><trkpt lat="44.40595536904742" lon="8.970365911482238"><ele>69.0</ele><time>2026-04-18T06:20:43Z</time></trkpt><trkpt lat="44.40590065888028" lon="8.970260340313445"><ele>69.0</ele><time>2026-04-18T06:20:44Z</time></trkpt><trkpt lat="44.405827013443414" lon="8.97014385723805"><ele>69.0</ele><time>2026-04-18T06:20:45Z</time></trkpt><trkpt lat="44.40576560460825" lon="8.96999790671248"><ele>69.0</ele><time>2026-04-18T06:20:46Z</time></trkpt><trkpt lat="44.40569467644629" lon="8.969860912519138"><ele>69.0</ele><time>2026-04-18T06:20:47Z</time></trkpt><trkpt lat="44.40562050684954" lon="8.96971710600217"><ele>69.0</ele><time>2026-04-18T06:20:48Z</time></trkpt><trkpt lat="44.40554976103258" lon="8.969592131141736"><ele>69.0</ele><time>2026-04-18T06:20:49Z</time></trkpt><trkpt lat="44.40548557506952" lon="8.969443200641553"><ele>69.0</ele><time>2026-04-18T06:20:50Z</time></trkpt><trkpt lat="44.40541932567203" lon="8.969293404639968"><ele>69.0</ele><time>2026-04-18T06:20:51Z</time></trkpt><trkpt lat="44.405355756483665" lon="8.969147546730643"><ele>68.75</ele><time>2026-04-18T06:20:52Z</time></trkpt><trkpt lat="44.40529820489221" lon="8.968991325687051"><ele>68.5</ele><time>2026-04-18T06:20:53Z</time></trkpt><trkpt lat="44.40524414569227" lon="8.968829758129365"><ele>68.25</ele><time>2026-04-18T06:20:54Z</time></trkpt><trkpt lat="44.405191969552554" lon="8.968657829814621"><ele>68.0</ele><time>2026-04-18T06:20:55Z</time></trkpt><trkpt lat="44.40515680343347" lon="8.968495427068577"><ele>65.0</ele><time>2026-04-18T06:20:56Z</time></trkpt><trkpt lat="44.40512828184956" lon="8.968336039457386"><ele>62.0</ele><time>2026-04-18T06:20:57Z</time></trkpt><trkpt lat="44.40510471989332" lon="8.968164705333066"><ele>59.0</ele><time>2026-04-18T06:20:58Z</time></trkpt><trkpt lat="44.40507895583066" lon="8.967984813123065"><ele>56.0</ele><time>2026-04-18T06:20:59Z</time></trkpt><trkpt lat="44.40505757740894" lon="8.967821196030574"><ele>56.0</ele><time>2026-04-18T06:21:00Z</time></trkpt><trkpt lat="44.40503389818439" lon="8.967667289614829"><ele>56.0</ele><time>2026-04-18T06:21:01Z</time></trkpt><trkpt lat="44.405009389222265" lon="8.967516891594368"><ele>56.0</ele><time>2026-04-18T06:21:02Z</time></trkpt><trkpt lat="44.404981243674584" lon="8.967361278660675"><ele>56.0</ele><time>2026-04-18T06:21:03Z</time></trkpt><trkpt lat="44.40495159813789" lon="8.967205593109759"><ele>55.599999999999994</ele><time>2026-04-18T06:21:04Z</time></trkpt><trkpt lat="44.40492296645885" lon="8.96705896568525"><ele>55.199999999999996</ele><time>2026-04-18T06:21:05Z</time></trkpt><trkpt lat="44.40489567455095" lon="8.96693257246823"><ele>54.800000000000004</ele><time>2026-04-18T06:21:06Z</time></trkpt><trkpt lat="44.40486549307507" lon="8.966825850970126"><ele>54.400000000000006</ele><time>2026-04-18T06:21:07Z</time></trkpt><trkpt lat="44.40483949422179" lon="8.966718016652262"><ele>54.0</ele><time>2026-04-18T06:21:08Z</time></trkpt><trkpt lat="44.404813665386015" lon="8.966603352379499"><ele>52.6</ele><time>2026-04-18T06:21:09Z</time></trkpt><trkpt lat="44.404786603396026" lon="8.966484216251098"><ele>51.2</ele><time>2026-04-18T06:21:10Z</time></trkpt><trkpt lat="44.40475475991054" lon="8.966331913553528"><ele>49.800000000000004</ele><time>2026-04-18T06:21:11Z</time></trkpt><trkpt lat="44.40472932213016" lon="8.966177957937719"><ele>48.400000000000006</ele><time>2026-04-18T06:21:12Z</time></trkpt><trkpt lat="44.40470554790706" lon="8.966044397960625"><ele>47.0</ele><time>2026-04-18T06:21:13Z</time></trkpt><trkpt lat="44.40467905017494" lon="8.965914923952425"><ele>48.2</ele><time>2026-04-18T06:21:14Z</time></trkpt><trkpt lat="44.40465818721857" lon="8.965789656353339"><ele>49.400000000000006</ele><time>2026-04-18T06:21:15Z</time></trkpt><trkpt lat="44.404640259488794" lon="8.965676988637023"><ele>50.599999999999994</ele><time>2026-04-18T06:21:16Z</time></trkpt><trkpt lat="44.40461949838503" lon="8.965557287472603"><ele>51.8</ele><time>2026-04-18T06:21:17Z</time></trkpt><trkpt lat="44.40460097986626" lon="8.965428098814305"><ele>53.0</ele><time>2026-04-18T06:21:18Z</time></trkpt><trkpt lat="44.40459703054824" lon="8.96528062852288"><ele>53.0</ele><time>2026-04-18T06:21:19Z</time></trkpt><trkpt lat="44.404601464094796" lon="8.96512270245108"><ele>53.0</ele><time>2026-04-18T06:21:20Z</time></trkpt><trkpt lat="44.40461373588706" lon="8.964970395437188"><ele>53.0</ele><time>2026-04-18T06:21:21Z</time></trkpt><trkpt lat="44.40461898009845" lon="8.964833794733103"><ele>53.0</ele><time>2026-04-18T06:21:22Z</time></trkpt><trkpt lat="44.404624450622954" lon="8.964697955840352"><ele>53.0</ele><time>2026-04-18T06:21:23Z</time></trkpt><trkpt lat="44.40463274377586" lon="8.964559151043378"><ele>53.4</ele><time>2026-04-18T06:21:24Z</time></trkpt><trkpt lat="44.404632691721645" lon="8.964435694489364"><ele>53.8</ele><time>2026-04-18T06:21:25Z</time></trkpt><trkpt lat="44.40463143095578" lon="8.96429257321932"><ele>54.2</ele><time>2026-04-18T06:21:26Z</time></trkpt><trkpt lat="44.404635974195095" lon="8.964126210524856"><ele>54.6</ele><time>2026-04-18T06:21:27Z</time></trkpt><trkpt lat="44.4046420274445" lon="8.963939600024181"><ele>55.0</ele><time>2026-04-18T06:21:28Z</time></trkpt><trkpt lat="44.40464240647544" lon="8.963770498032199"><ele>54.0</ele><time>2026-04-18T06:21:29Z</time></trkpt><trkpt lat="44.40464794373849" lon="8.963618041643233"><ele>53.0</ele><time>2026-04-18T06:21:30Z</time></trkpt><trkpt lat="44.40464972911173" lon="8.96347579460815"><ele>52.0</ele><time>2026-04-18T06:21:31Z</time></trkpt><trkpt lat="44.40464994036238" lon="8.963337465867673"><ele>51.0</ele><time>2026-04-18T06:21:32Z</time></trkpt><trkpt lat="44.40464874428305" lon="8.963192639372394"><ele>50.0</ele><time>2026-04-18T06:21:33Z</time></trkpt><trkpt lat="44.404650379436" lon="8.96304445782875"><ele>50.0</ele><time>2026-04-18T06:21:34Z</time></trkpt><trkpt lat="44.404654889092185" lon="8.962887008001134"><ele>50.0</ele><time>2026-04-18T06:21:35Z</time></trkpt><trkpt lat="44.40465564910692" lon="8.962729545213248"><ele>50.0</ele><time>2026-04-18T06:21:36Z</time></trkpt><trkpt lat="44.40465819634475" lon="8.962562132671"><ele>50.0</ele><time>2026-04-18T06:21:37Z</time></trkpt><trkpt lat="44.40466249984379" lon="8.96238405115432"><ele>42.25</ele><time>2026-04-18T06:21:38Z</time></trkpt><trkpt lat="44.40466315116712" lon="8.96220398408263"><ele>34.5</ele><time>2026-04-18T06:21:39Z</time></trkpt><trkpt lat="44.404667875676466" lon="8.962039682196925"><ele>26.75</ele><time>2026-04-18T06:21:40Z</time></trkpt><trkpt lat="44.404674610919365" lon="8.96188174239787"><ele>19.0</ele><time>2026-04-18T06:21:41Z</time></trkpt><trkpt lat="44.404675183297535" lon="8.961727649633264"><ele>18.75</ele><time>2026-04-18T06:21:42Z</time></trkpt><trkpt lat="44.40467492088422" lon="8.96156613567335"><ele>18.5</ele><time>2026-04-18T06:21:42.999Z</time></trkpt><trkpt lat="44.404675950519916" lon="8.96140861903825"><ele>18.25</ele><time>2026-04-18T06:21:43.999Z</time></trkpt><trkpt lat="44.404677335677796" lon="8.961250489136559"><ele>18.0</ele><time>2026-04-18T06:21:44.999Z</time></trkpt><trkpt lat="44.40467607683441" lon="8.961081117417894"><ele>18.0</ele><time>2026-04-18T06:21:45.999Z</time></trkpt><trkpt lat="44.404678619056924" lon="8.960904038592618"><ele>18.0</ele><time>2026-04-18T06:21:46.999Z</time></trkpt><trkpt lat="44.404685454798006" lon="8.960727525649979"><ele>18.0</ele><time>2026-04-18T06:21:47.999Z</time></trkpt><trkpt lat="44.40468804087278" lon="8.960561963347168"><ele>18.0</ele><time>2026-04-18T06:21:48.999Z</time></trkpt><trkpt lat="44.40468677799513" lon="8.96041292226544"><ele>17.75</ele><time>2026-04-18T06:21:49.999Z</time></trkpt><trkpt lat="44.404693272016026" lon="8.960261046913127"><ele>17.5</ele><time>2026-04-18T06:21:50.999Z</time></trkpt><trkpt lat="44.40469579409319" lon="8.960092415794078"><ele>17.25</ele><time>2026-04-18T06:21:51.999Z</time></trkpt><trkpt lat="44.40470796945862" lon="8.95992681310438"><ele>17.0</ele><time>2026-04-18T06:21:52.999Z</time></trkpt><trkpt lat="44.40472464793564" lon="8.959769911877192"><ele>17.0</ele><time>2026-04-18T06:21:53.999Z</time></trkpt><trkpt lat="44.40473453085854" lon="8.959622259882241"><ele>17.0</ele><time>2026-04-18T06:21:54.999Z</time></trkpt><trkpt lat="44.4047386508548" lon="8.95949353920354"><ele>17.0</ele><time>2026-04-18T06:21:55.999Z</time></trkpt><trkpt lat="44.404746210714016" lon="8.959348039847146"><ele>17.0</ele><time>2026-04-18T06:21:57.999Z</time></trkpt><trkpt lat="44.404771151142356" lon="8.9592499337867"><ele>17.0</ele><time>2026-04-18T06:22:34Z</time></trkpt><trkpt lat="44.404775285705334" lon="8.959117461924638"><ele>17.0</ele><time>2026-04-18T06:22:36Z</time></trkpt><trkpt lat="44.404916591955605" lon="8.959073267311899"><ele>17.0</ele><time>2026-04-18T06:22:39Z</time></trkpt><trkpt lat="44.4050068586288" lon="8.959088938980441"><ele>17.0</ele><time>2026-04-18T06:22:40Z</time></trkpt><trkpt lat="44.40510683803555" lon="8.959098471527756"><ele>17.0</ele><time>2026-04-18T06:22:41Z</time></trkpt><trkpt lat="44.40522126232509" lon="8.95910750894782"><ele>17.0</ele><time>2026-04-18T06:22:42Z</time></trkpt><trkpt lat="44.405342458001805" lon="8.95912165067647"><ele>17.0</ele><time>2026-04-18T06:22:43Z</time></trkpt><trkpt lat="44.40547342423328" lon="8.959133308040425"><ele>17.0</ele><time>2026-04-18T06:22:44Z</time></trkpt><trkpt lat="44.405602292979005" lon="8.959147355127001"><ele>17.0</ele><time>2026-04-18T06:22:45Z</time></trkpt><trkpt lat="44.405716933842896" lon="8.959162499090812"><ele>16.4</ele><time>2026-04-18T06:22:46Z</time></trkpt><trkpt lat="44.405828186193276" lon="8.959173512178936"><ele>15.799999999999999</ele><time>2026-04-18T06:22:47Z</time></trkpt><trkpt lat="44.40592984225713" lon="8.959182840788111"><ele>15.2</ele><time>2026-04-18T06:22:48Z</time></trkpt><trkpt lat="44.40601920504959" lon="8.959200810372609"><ele>14.6</ele><time>2026-04-18T06:22:49Z</time></trkpt><trkpt lat="44.40609801125118" lon="8.959251880261158"><ele>14.0</ele><time>2026-04-18T06:22:50Z</time></trkpt><trkpt lat="44.406175416890385" lon="8.95931984059824"><ele>13.75</ele><time>2026-04-18T06:22:51Z</time></trkpt><trkpt lat="44.40621926467824" lon="8.959471944011435"><ele>13.5</ele><time>2026-04-18T06:22:52Z</time></trkpt><trkpt lat="44.40621625611992" lon="8.959643493625807"><ele>13.25</ele><time>2026-04-18T06:22:53Z</time></trkpt><trkpt lat="44.40622943103124" lon="8.959807128148597"><ele>13.0</ele><time>2026-04-18T06:22:54Z</time></trkpt><trkpt lat="44.406277670221854" lon="8.959967957701677"><ele>13.0</ele><time>2026-04-18T06:22:55Z</time></trkpt><trkpt lat="44.40634306558281" lon="8.960080168628695"><ele>13.0</ele><time>2026-04-18T06:22:56Z</time></trkpt><trkpt lat="44.40638978157111" lon="8.960201846886935"><ele>13.0</ele><time>2026-04-18T06:22:57Z</time></trkpt><trkpt lat="44.406442053305774" lon="8.960308574583353"><ele>13.0</ele><time>2026-04-18T06:22:58Z</time></trkpt><trkpt lat="44.406486014698785" lon="8.960409091434414"><ele>13.0</ele><time>2026-04-18T06:22:59Z</time></trkpt><trkpt lat="44.40652675084584" lon="8.96050597836701"><ele>12.999999999999998</ele><time>2026-04-18T06:23:00Z</time></trkpt><trkpt lat="44.40655654442285" lon="8.9605856533822"><ele>13.0</ele><time>2026-04-18T06:23:01Z</time></trkpt><trkpt lat="44.40659039952182" lon="8.96066413294467"><ele>13.0</ele><time>2026-04-18T06:23:03Z</time></trkpt><trkpt lat="44.406657957289156" lon="8.960700290211225"><ele>13.0</ele><time>2026-04-18T06:23:34Z</time></trkpt><trkpt lat="44.40675530093441" lon="8.960825020156763"><ele>12.999999999999998</ele><time>2026-04-18T06:23:36Z</time></trkpt><trkpt lat="44.40682476130574" lon="8.960857327300083"><ele>13.0</ele><time>2026-04-18T06:23:37Z</time></trkpt><trkpt lat="44.40691597970381" lon="8.960871196728784"><ele>13.4</ele><time>2026-04-18T06:23:38Z</time></trkpt><trkpt lat="44.40700285923968" lon="8.960888224700772"><ele>13.8</ele><time>2026-04-18T06:23:39Z</time></trkpt><trkpt lat="44.40708489663342" lon="8.960898936383241"><ele>14.2</ele><time>2026-04-18T06:23:40Z</time></trkpt><trkpt lat="44.40716700109381" lon="8.960914632820588"><ele>14.6</ele><time>2026-04-18T06:23:42Z</time></trkpt><trkpt lat="44.40725461661119" lon="8.960943434124886"><ele>15.0</ele><time>2026-04-18T06:23:48.999Z</time></trkpt><trkpt lat="44.40733160434599" lon="8.96065001654207"><ele>15.666666666666666</ele><time>2026-04-18T06:23:50.999Z</time></trkpt><trkpt lat="44.407334427316975" lon="8.960517581456495"><ele>16.333333333333332</ele><time>2026-04-18T06:23:51.999Z</time></trkpt><trkpt lat="44.40733735864406" lon="8.960387061495465"><ele>17.0</ele><time>2026-04-18T06:23:52.999Z</time></trkpt><trkpt lat="44.40735550310122" lon="8.960238257628703"><ele>17.666666666666664</ele><time>2026-04-18T06:23:53.999Z</time></trkpt><trkpt lat="44.40736860176002" lon="8.960125572947883"><ele>18.333333333333332</ele><time>2026-04-18T06:23:54.999Z</time></trkpt><trkpt lat="44.40738142883235" lon="8.96003156199737"><ele>19.0</ele><time>2026-04-18T06:23:55.999Z</time></trkpt><trkpt lat="44.40740200610015" lon="8.959920002773094"><ele>19.2</ele><time>2026-04-18T06:23:56.999Z</time></trkpt><trkpt lat="44.40739573003131" lon="8.9597856802188"><ele>19.4</ele><time>2026-04-18T06:23:57.999Z</time></trkpt><trkpt lat="44.40740446447262" lon="8.959648443077459"><ele>19.6</ele><time>2026-04-18T06:23:58.999Z</time></trkpt><trkpt lat="44.40741327684415" lon="8.95950998149717"><ele>19.8</ele><time>2026-04-18T06:23:59.999Z</time></trkpt><trkpt lat="44.407423368540506" lon="8.959351418910385"><ele>20.0</ele><time>2026-04-18T06:24:00.999Z</time></trkpt><trkpt lat="44.40744594010222" lon="8.959209823643057"><ele>20.0</ele><time>2026-04-18T06:24:01.999Z</time></trkpt><trkpt lat="44.40743995206455" lon="8.959078303701217"><ele>20.0</ele><time>2026-04-18T06:24:02.999Z</time></trkpt><trkpt lat="44.407451307115906" lon="8.958979099358663"><ele>20.0</ele><time>2026-04-18T06:24:03.999Z</time></trkpt><trkpt lat="44.40746416401945" lon="8.958804435269638"><ele>20.0</ele><time>2026-04-18T06:24:05.999Z</time></trkpt><trkpt lat="44.407463801505095" lon="8.958686027326046"><ele>20.0</ele><time>2026-04-18T06:24:06.999Z</time></trkpt><trkpt lat="44.407468863232275" lon="8.958592859539747"><ele>20.0</ele><time>2026-04-18T06:24:07.999Z</time></trkpt><trkpt lat="44.407460811265175" lon="8.958448503952418"><ele>20.166666666666668</ele><time>2026-04-18T06:24:09.999Z</time></trkpt><trkpt lat="44.40747905406587" lon="8.958322129450421"><ele>20.333333333333336</ele><time>2026-04-18T06:24:12.999Z</time></trkpt><trkpt lat="44.407480871976055" lon="8.958230264418422"><ele>20.5</ele><time>2026-04-18T06:24:18.999Z</time></trkpt><trkpt lat="44.407484815998124" lon="8.958096733008128"><ele>20.666666666666668</ele><time>2026-04-18T06:24:24.999Z</time></trkpt><trkpt lat="44.40750817252413" lon="8.958004312526523"><ele>20.833333333333332</ele><time>2026-04-18T06:24:26.999Z</time></trkpt><trkpt lat="44.407533157364654" lon="8.95784136587974"><ele>21.0</ele><time>2026-04-18T06:24:28.999Z</time></trkpt><trkpt lat="44.407518878687604" lon="8.957708449504617"><ele>20.0</ele><time>2026-04-18T06:24:30.999Z</time></trkpt><trkpt lat="44.40750613733913" lon="8.957520030275752"><ele>19.0</ele><time>2026-04-18T06:24:32.999Z</time></trkpt><trkpt lat="44.4075002329187" lon="8.957424693843828"><ele>18.0</ele><time>2026-04-18T06:24:33.999Z</time></trkpt><trkpt lat="44.40752456371292" lon="8.9573041625228"><ele>17.0</ele><time>2026-04-18T06:24:34.999Z</time></trkpt><trkpt lat="44.407533924633825" lon="8.957183107070373"><ele>16.0</ele><time>2026-04-18T06:24:35.999Z</time></trkpt><trkpt lat="44.407526633636266" lon="8.957083612238339"><ele>15.999999999999998</ele><time>2026-04-18T06:24:36.999Z</time></trkpt><trkpt lat="44.40753322014785" lon="8.956978460729628"><ele>16.0</ele><time>2026-04-18T06:24:37.999Z</time></trkpt><trkpt lat="44.407543402859865" lon="8.956861917294184"><ele>16.0</ele><time>2026-04-18T06:24:38.999Z</time></trkpt><trkpt lat="44.40755579833694" lon="8.95675143080381"><ele>16.0</ele><time>2026-04-18T06:24:40Z</time></trkpt><trkpt lat="44.40756394567458" lon="8.956654652510666"><ele>15.999999999999998</ele><time>2026-04-18T06:24:41Z</time></trkpt><trkpt lat="44.407613931759535" lon="8.956572150373015"><ele>16.0</ele><time>2026-04-18T06:24:42Z</time></trkpt><trkpt lat="44.40763990246169" lon="8.956462904446187"><ele>15.999999999999998</ele><time>2026-04-18T06:24:43Z</time></trkpt><trkpt lat="44.40766772088996" lon="8.956346532174479"><ele>16.0</ele><time>2026-04-18T06:24:44Z</time></trkpt><trkpt lat="44.40769195495477" lon="8.95624577082307"><ele>16.0</ele><time>2026-04-18T06:24:45Z</time></trkpt><trkpt lat="44.40771233070696" lon="8.956161557070061"><ele>16.0</ele><time>2026-04-18T06:24:46Z</time></trkpt><trkpt lat="44.40775083477156" lon="8.956011063607749"><ele>15.999999999999998</ele><time>2026-04-18T06:24:48Z</time></trkpt><trkpt lat="44.40777651012357" lon="8.955913441276403"><ele>16.0</ele><time>2026-04-18T06:24:50Z</time></trkpt><trkpt lat="44.40785943539667" lon="8.955913678244901"><ele>16.0</ele><time>2026-04-18T06:24:52Z</time></trkpt><trkpt lat="44.40792585908497" lon="8.955961617969157"><ele>16.0</ele><time>2026-04-18T06:24:53Z</time></trkpt><trkpt lat="44.40805555973263" lon="8.95597094678077"><ele>16.0</ele><time>2026-04-18T06:24:55Z</time></trkpt><trkpt lat="44.40817031706286" lon="8.955882919332307"><ele>16.0</ele><time>2026-04-18T06:24:57Z</time></trkpt><trkpt lat="44.408206691276675" lon="8.955733129968454"><ele>16.0</ele><time>2026-04-18T06:24:59Z</time></trkpt><trkpt lat="44.408228631565024" lon="8.955646441192751"><ele>16.166666666666664</ele><time>2026-04-18T06:25:00Z</time></trkpt><trkpt lat="44.40827792365574" lon="8.955514363052725"><ele>16.333333333333332</ele><time>2026-04-18T06:25:02Z</time></trkpt><trkpt lat="44.40838080300771" lon="8.955532788015391"><ele>16.5</ele><time>2026-04-18T06:25:04Z</time></trkpt><trkpt lat="44.408443473942036" lon="8.955571748418139"><ele>16.666666666666668</ele><time>2026-04-18T06:25:05Z</time></trkpt><trkpt lat="44.40852536728283" lon="8.9555978590511"><ele>16.833333333333336</ele><time>2026-04-18T06:25:06Z</time></trkpt><trkpt lat="44.408595988005125" lon="8.955637227449714"><ele>17.0</ele><time>2026-04-18T06:25:07Z</time></trkpt><trkpt lat="44.408675585677635" lon="8.955677980176342"><ele>17.0</ele><time>2026-04-18T06:25:08Z</time></trkpt><trkpt lat="44.40875283043489" lon="8.955718627681332"><ele>17.0</ele><time>2026-04-18T06:25:09Z</time></trkpt><trkpt lat="44.40883347660236" lon="8.955751064252679"><ele>17.0</ele><time>2026-04-18T06:25:10Z</time></trkpt><trkpt lat="44.40893030187201" lon="8.955797015177705"><ele>17.0</ele><time>2026-04-18T06:25:11Z</time></trkpt><trkpt lat="44.40903531534157" lon="8.955836907960462"><ele>17.0</ele><time>2026-04-18T06:25:12Z</time></trkpt><trkpt lat="44.4091410744612" lon="8.9558944563386"><ele>18.666666666666668</ele><time>2026-04-18T06:25:13Z</time></trkpt><trkpt lat="44.40922481716421" lon="8.955938242651435"><ele>20.333333333333336</ele><time>2026-04-18T06:25:14Z</time></trkpt><trkpt lat="44.409302937463174" lon="8.955974745489806"><ele>22.0</ele><time>2026-04-18T06:25:15Z</time></trkpt><trkpt lat="44.40937018106422" lon="8.955994175234231"><ele>23.666666666666668</ele><time>2026-04-18T06:25:16Z</time></trkpt><trkpt lat="44.40948013462681" lon="8.956004791100042"><ele>25.333333333333332</ele><time>2026-04-18T06:25:18Z</time></trkpt><trkpt lat="44.40954557643074" lon="8.955987890956184"><ele>27.0</ele><time>2026-04-18T06:25:19Z</time></trkpt><trkpt lat="44.40957650181725" lon="8.955879639491522"><ele>26.25</ele><time>2026-04-18T06:25:20Z</time></trkpt><trkpt lat="44.409611222897155" lon="8.955730374767105"><ele>25.5</ele><time>2026-04-18T06:25:21Z</time></trkpt><trkpt lat="44.4096530505663" lon="8.955545345881589"><ele>24.75</ele><time>2026-04-18T06:25:22Z</time></trkpt><trkpt lat="44.40972252600856" lon="8.955364100201521"><ele>24.0</ele><time>2026-04-18T06:25:23Z</time></trkpt><trkpt lat="44.409762078867665" lon="8.955206943123297"><ele>24.0</ele><time>2026-04-18T06:25:24Z</time></trkpt><trkpt lat="44.409796738159265" lon="8.955069229859445"><ele>24.0</ele><time>2026-04-18T06:25:25Z</time></trkpt><trkpt lat="44.40982919024184" lon="8.954939944473628"><ele>24.0</ele><time>2026-04-18T06:25:26Z</time></trkpt><trkpt lat="44.40985447995182" lon="8.954848098304536"><ele>24.0</ele><time>2026-04-18T06:25:27Z</time></trkpt><trkpt lat="44.40989750382034" lon="8.954730425618818"><ele>24.0</ele><time>2026-04-18T06:25:29Z</time></trkpt><trkpt lat="44.409936871516244" lon="8.954644861710012"><ele>24.0</ele><time>2026-04-18T06:25:33Z</time></trkpt><trkpt lat="44.40994714397226" lon="8.954548285644531"><ele>22.599999999999998</ele><time>2026-04-18T06:25:35Z</time></trkpt><trkpt lat="44.41010236399893" lon="8.954583996819949"><ele>21.2</ele><time>2026-04-18T06:25:37Z</time></trkpt><trkpt lat="44.41018003696161" lon="8.954606036601186"><ele>19.799999999999997</ele><time>2026-04-18T06:25:38Z</time></trkpt><trkpt lat="44.41025847169729" lon="8.954641190394275"><ele>18.4</ele><time>2026-04-18T06:25:39Z</time></trkpt><trkpt lat="44.41037416989012" lon="8.954694691745425"><ele>17.0</ele><time>2026-04-18T06:25:40Z</time></trkpt><trkpt lat="44.41047343174562" lon="8.954760351517931"><ele>18.0</ele><time>2026-04-18T06:25:41Z</time></trkpt><trkpt lat="44.41056878275512" lon="8.954786882400237"><ele>19.0</ele><time>2026-04-18T06:25:42Z</time></trkpt><trkpt lat="44.41066565856037" lon="8.954854784363372"><ele>20.0</ele><time>2026-04-18T06:25:43Z</time></trkpt><trkpt lat="44.410783383517774" lon="8.954903440817146"><ele>21.0</ele><time>2026-04-18T06:25:44Z</time></trkpt><trkpt lat="44.4108962701553" lon="8.95495244917461"><ele>22.0</ele><time>2026-04-18T06:25:45Z</time></trkpt><trkpt lat="44.4109860551858" lon="8.95498259755593"><ele>23.0</ele><time>2026-04-18T06:25:46Z</time></trkpt><trkpt lat="44.41108058904335" lon="8.955041187119052"><ele>24.0</ele><time>2026-04-18T06:25:47Z</time></trkpt><trkpt lat="44.41118975716213" lon="8.955098845639656"><ele>25.000000000000004</ele><time>2026-04-18T06:25:48Z</time></trkpt><trkpt lat="44.41130418218782" lon="8.955154159923698"><ele>26.0</ele><time>2026-04-18T06:25:49Z</time></trkpt><trkpt lat="44.41139892104094" lon="8.955206274266269"><ele>27.0</ele><time>2026-04-18T06:25:49.999Z</time></trkpt><trkpt lat="44.41146703259725" lon="8.955234329803892"><ele>27.6</ele><time>2026-04-18T06:25:50.999Z</time></trkpt><trkpt lat="44.41154791641328" lon="8.955271697801189"><ele>28.200000000000003</ele><time>2026-04-18T06:25:52.999Z</time></trkpt><trkpt lat="44.41143648969754" lon="8.955244193428756"><ele>28.8</ele><time>2026-04-18T06:28:22.999Z</time></trkpt><trkpt lat="44.411515724619306" lon="8.955281260748682"><ele>29.4</ele><time>2026-04-18T06:33:28Z</time></trkpt><trkpt lat="44.411583535329925" lon="8.955305909544787"><ele>30.0</ele><time>2026-04-18T06:33:29Z</time></trkpt><trkpt lat="44.411685833266326" lon="8.955354450339062"><ele>30.0</ele><time>2026-04-18T06:33:30Z</time></trkpt><trkpt lat="44.41180602768546" lon="8.955400180571809"><ele>30.0</ele><time>2026-04-18T06:33:31Z</time></trkpt><trkpt lat="44.41194645983672" lon="8.9554683021961"><ele>30.0</ele><time>2026-04-18T06:33:32Z</time></trkpt><trkpt lat="44.41205929840334" lon="8.955521397829195"><ele>30.0</ele><time>2026-04-18T06:33:33Z</time></trkpt><trkpt lat="44.41216403567667" lon="8.955573487292135"><ele>29.25</ele><time>2026-04-18T06:33:34Z</time></trkpt><trkpt lat="44.41230148016047" lon="8.955638549292157"><ele>28.5</ele><time>2026-04-18T06:33:35Z</time></trkpt><trkpt lat="44.412432626795024" lon="8.955696650023224"><ele>27.75</ele><time>2026-04-18T06:33:36Z</time></trkpt><trkpt lat="44.41254932274664" lon="8.95574804891074"><ele>27.0</ele><time>2026-04-18T06:33:37Z</time></trkpt><trkpt lat="44.41265466296965" lon="8.955790956242339"><ele>28.200000000000003</ele><time>2026-04-18T06:33:38Z</time></trkpt><trkpt lat="44.412772528129814" lon="8.955870331302945"><ele>29.400000000000002</ele><time>2026-04-18T06:33:39Z</time></trkpt><trkpt lat="44.41288386195363" lon="8.95591963423569"><ele>30.599999999999998</ele><time>2026-04-18T06:33:40Z</time></trkpt><trkpt lat="44.41297871602057" lon="8.955956899139833"><ele>31.799999999999997</ele><time>2026-04-18T06:33:41Z</time></trkpt><trkpt lat="44.41307149630782" lon="8.955997600109404"><ele>33.0</ele><time>2026-04-18T06:33:42Z</time></trkpt><trkpt lat="44.41317519951976" lon="8.956050035841436"><ele>33.0</ele><time>2026-04-18T06:33:43Z</time></trkpt><trkpt lat="44.413287951276345" lon="8.956094962745794"><ele>33.0</ele><time>2026-04-18T06:33:44Z</time></trkpt><trkpt lat="44.41341009357164" lon="8.956139715240258"><ele>33.0</ele><time>2026-04-18T06:33:45Z</time></trkpt><trkpt lat="44.41353153292781" lon="8.95621266410526"><ele>33.0</ele><time>2026-04-18T06:33:46Z</time></trkpt><trkpt lat="44.413670609099675" lon="8.956268498618403"><ele>33.0</ele><time>2026-04-18T06:33:47Z</time></trkpt><trkpt lat="44.41378929884659" lon="8.956320682300454"><ele>33.0</ele><time>2026-04-18T06:33:48Z</time></trkpt><trkpt lat="44.413899984805916" lon="8.956368274892714"><ele>33.0</ele><time>2026-04-18T06:33:49Z</time></trkpt><trkpt lat="44.414002721040006" lon="8.956416290862506"><ele>33.0</ele><time>2026-04-18T06:33:50Z</time></trkpt><trkpt lat="44.41409253747003" lon="8.956467018182217"><ele>33.0</ele><time>2026-04-18T06:33:51Z</time></trkpt><trkpt lat="44.41416883507522" lon="8.956505034032142"><ele>32.199999999999996</ele><time>2026-04-18T06:33:52Z</time></trkpt><trkpt lat="44.4142593556222" lon="8.95654295765234"><ele>31.4</ele><time>2026-04-18T06:33:53Z</time></trkpt><trkpt lat="44.41435005051643" lon="8.956593206543058"><ele>30.599999999999998</ele><time>2026-04-18T06:33:54Z</time></trkpt><trkpt lat="44.41445823611699" lon="8.956642178514093"><ele>29.799999999999997</ele><time>2026-04-18T06:33:55Z</time></trkpt><trkpt lat="44.41454968428158" lon="8.956684362676388"><ele>29.0</ele><time>2026-04-18T06:33:56Z</time></trkpt><trkpt lat="44.414628059056874" lon="8.956715070727537"><ele>28.2</ele><time>2026-04-18T06:33:57Z</time></trkpt><trkpt lat="44.41473473265446" lon="8.956675256353229"><ele>27.4</ele><time>2026-04-18T06:33:58Z</time></trkpt><trkpt lat="44.414817344762994" lon="8.956630306671018"><ele>26.6</ele><time>2026-04-18T06:33:59Z</time></trkpt><trkpt lat="44.414895682298045" lon="8.95654966302678"><ele>25.8</ele><time>2026-04-18T06:34:00Z</time></trkpt><trkpt lat="44.41496458621845" lon="8.956477127240216"><ele>25.0</ele><time>2026-04-18T06:34:01Z</time></trkpt><trkpt lat="44.41504378883446" lon="8.956412540250593"><ele>25.000000000000004</ele><time>2026-04-18T06:34:02Z</time></trkpt><trkpt lat="44.41512262282324" lon="8.956342262919856"><ele>25.0</ele><time>2026-04-18T06:34:03Z</time></trkpt><trkpt lat="44.41518826038938" lon="8.956285559353176"><ele>25.0</ele><time>2026-04-18T06:34:04Z</time></trkpt><trkpt lat="44.4152467695073" lon="8.95622855858281"><ele>25.0</ele><time>2026-04-18T06:34:05Z</time></trkpt><trkpt lat="44.41529699527799" lon="8.956171233429416"><ele>25.000000000000004</ele><time>2026-04-18T06:34:06Z</time></trkpt><trkpt lat="44.415381577958506" lon="8.956050538866753"><ele>25.0</ele><time>2026-04-18T06:34:08Z</time></trkpt><trkpt lat="44.41546918204422" lon="8.955958022660827"><ele>24.4</ele><time>2026-04-18T06:34:10Z</time></trkpt><trkpt lat="44.415521332216905" lon="8.955890459779566"><ele>23.8</ele><time>2026-04-18T06:34:12.999Z</time></trkpt><trkpt lat="44.41559200578329" lon="8.95581773953902"><ele>23.200000000000003</ele><time>2026-04-18T06:34:18.999Z</time></trkpt><trkpt lat="44.415686383225676" lon="8.95572019500956"><ele>22.6</ele><time>2026-04-18T06:34:20.999Z</time></trkpt><trkpt lat="44.415741973519104" lon="8.955642247003672"><ele>22.0</ele><time>2026-04-18T06:34:22.999Z</time></trkpt><trkpt lat="44.415817919307955" lon="8.955542486859429"><ele>21.8</ele><time>2026-04-18T06:34:35.999Z</time></trkpt><trkpt lat="44.41587109659141" lon="8.955478045613186"><ele>21.6</ele><time>2026-04-18T06:34:36.999Z</time></trkpt><trkpt lat="44.41594516729882" lon="8.955392808846392"><ele>21.400000000000002</ele><time>2026-04-18T06:34:37.999Z</time></trkpt><trkpt lat="44.416021286844696" lon="8.95528490247767"><ele>21.200000000000003</ele><time>2026-04-18T06:34:38.999Z</time></trkpt><trkpt lat="44.416109747455465" lon="8.955163213594581"><ele>21.0</ele><time>2026-04-18T06:34:39.999Z</time></trkpt><trkpt lat="44.416189592796144" lon="8.95506461332856"><ele>21.666666666666668</ele><time>2026-04-18T06:34:40.999Z</time></trkpt><trkpt lat="44.416259194154804" lon="8.954984308205088"><ele>22.333333333333336</ele><time>2026-04-18T06:34:41.999Z</time></trkpt><trkpt lat="44.41632132254695" lon="8.954908173500916"><ele>23.0</ele><time>2026-04-18T06:34:42.999Z</time></trkpt><trkpt lat="44.41637966332023" lon="8.954840315951856"><ele>23.666666666666668</ele><time>2026-04-18T06:34:43.999Z</time></trkpt><trkpt lat="44.41644112676925" lon="8.954775959468913"><ele>24.333333333333336</ele><time>2026-04-18T06:34:44.999Z</time></trkpt><trkpt lat="44.41652095630324" lon="8.954691564369952"><ele>25.0</ele><time>2026-04-18T06:34:45.999Z</time></trkpt><trkpt lat="44.416614002322376" lon="8.954581177940442"><ele>25.0</ele><time>2026-04-18T06:34:46.999Z</time></trkpt><trkpt lat="44.41668318319935" lon="8.954486782630903"><ele>25.0</ele><time>2026-04-18T06:34:47.999Z</time></trkpt><trkpt lat="44.41675810156068" lon="8.954386635263372"><ele>25.0</ele><time>2026-04-18T06:34:48.999Z</time></trkpt><trkpt lat="44.41681967613578" lon="8.954277100938741"><ele>25.0</ele><time>2026-04-18T06:34:49.999Z</time></trkpt><trkpt lat="44.41691245604196" lon="8.954195944647457"><ele>25.0</ele><time>2026-04-18T06:34:50.999Z</time></trkpt><trkpt lat="44.416987040463376" lon="8.95409196462194"><ele>24.75</ele><time>2026-04-18T06:34:51.999Z</time></trkpt><trkpt lat="44.41707294962028" lon="8.953984505876761"><ele>24.5</ele><time>2026-04-18T06:34:52.999Z</time></trkpt><trkpt lat="44.417150449289025" lon="8.953903481726664"><ele>24.25</ele><time>2026-04-18T06:34:53.999Z</time></trkpt><trkpt lat="44.417241053269144" lon="8.953796704484278"><ele>24.0</ele><time>2026-04-18T06:34:54.999Z</time></trkpt><trkpt lat="44.41734545321139" lon="8.953657405603666"><ele>23.833333333333332</ele><time>2026-04-18T06:34:55.999Z</time></trkpt><trkpt lat="44.417441720083175" lon="8.953556288270304"><ele>23.666666666666668</ele><time>2026-04-18T06:34:56.999Z</time></trkpt><trkpt lat="44.41750817884796" lon="8.953474628067108"><ele>23.5</ele><time>2026-04-18T06:34:57.999Z</time></trkpt><trkpt lat="44.41756480764049" lon="8.953414293175056"><ele>23.333333333333336</ele><time>2026-04-18T06:34:58.999Z</time></trkpt><trkpt lat="44.417597294773564" lon="8.953327896449624"><ele>23.166666666666668</ele><time>2026-04-18T06:34:59.999Z</time></trkpt><trkpt lat="44.4176529514609" lon="8.95326968637424"><ele>23.0</ele><time>2026-04-18T06:35:00.999Z</time></trkpt><trkpt lat="44.4177392704819" lon="8.953159599239461"><ele>22.666666666666668</ele><time>2026-04-18T06:35:01.999Z</time></trkpt><trkpt lat="44.41784345404264" lon="8.953036080542047"><ele>22.333333333333332</ele><time>2026-04-18T06:35:02.999Z</time></trkpt><trkpt lat="44.417952641338914" lon="8.952874816704716"><ele>22.0</ele><time>2026-04-18T06:35:03.999Z</time></trkpt><trkpt lat="44.41810115934332" lon="8.95272811053086"><ele>22.8</ele><time>2026-04-18T06:35:04.999Z</time></trkpt><trkpt lat="44.418206131618305" lon="8.952596429683426"><ele>23.6</ele><time>2026-04-18T06:35:05.999Z</time></trkpt><trkpt lat="44.41827619901934" lon="8.952481392616537"><ele>24.400000000000002</ele><time>2026-04-18T06:35:06.999Z</time></trkpt><trkpt lat="44.4183490908083" lon="8.952395565985483"><ele>25.200000000000003</ele><time>2026-04-18T06:35:07.999Z</time></trkpt><trkpt lat="44.41841028741688" lon="8.952314040947897"><ele>26.0</ele><time>2026-04-18T06:35:08.999Z</time></trkpt><trkpt lat="44.418463496535914" lon="8.952253201070207"><ele>26.0</ele><time>2026-04-18T06:35:10Z</time></trkpt><trkpt lat="44.418526810780804" lon="8.952155349639211"><ele>26.0</ele><time>2026-04-18T06:35:12Z</time></trkpt><trkpt lat="44.418615003456104" lon="8.952045954617475"><ele>26.0</ele><time>2026-04-18T06:35:14Z</time></trkpt><trkpt lat="44.418662303573356" lon="8.951978312158182"><ele>26.0</ele><time>2026-04-18T06:35:15Z</time></trkpt><trkpt lat="44.418757879296294" lon="8.951867843904381"><ele>26.0</ele><time>2026-04-18T06:35:17Z</time></trkpt><trkpt lat="44.41882709980824" lon="8.951770454363993"><ele>26.4</ele><time>2026-04-18T06:35:18Z</time></trkpt><trkpt lat="44.41888994955596" lon="8.951668275191693"><ele>26.8</ele><time>2026-04-18T06:35:19Z</time></trkpt><trkpt lat="44.41896020607418" lon="8.951568395106007"><ele>27.199999999999996</ele><time>2026-04-18T06:35:20Z</time></trkpt><trkpt lat="44.41903638497574" lon="8.951464760113309"><ele>27.599999999999998</ele><time>2026-04-18T06:35:21Z</time></trkpt><trkpt lat="44.41910964090505" lon="8.951377850291529"><ele>28.0</ele><time>2026-04-18T06:35:22Z</time></trkpt><trkpt lat="44.41918095655179" lon="8.951280577877652"><ele>28.0</ele><time>2026-04-18T06:35:23Z</time></trkpt><trkpt lat="44.41925197503561" lon="8.951193678972352"><ele>27.999999999999996</ele><time>2026-04-18T06:35:24Z</time></trkpt><trkpt lat="44.41933644813498" lon="8.951094530566703"><ele>27.999999999999996</ele><time>2026-04-18T06:35:25Z</time></trkpt><trkpt lat="44.41942042098732" lon="8.9510033082015"><ele>28.0</ele><time>2026-04-18T06:35:26Z</time></trkpt><trkpt lat="44.41951147768092" lon="8.95089656448093"><ele>28.0</ele><time>2026-04-18T06:35:27Z</time></trkpt><trkpt lat="44.41961889247925" lon="8.950772781043373"><ele>28.333333333333336</ele><time>2026-04-18T06:35:28Z</time></trkpt><trkpt lat="44.41974266939175" lon="8.95062678256923"><ele>28.666666666666664</ele><time>2026-04-18T06:35:29Z</time></trkpt><trkpt lat="44.41987817679083" lon="8.950460176670033"><ele>29.0</ele><time>2026-04-18T06:35:30Z</time></trkpt><trkpt lat="44.420007762526645" lon="8.950288372041717"><ele>29.0</ele><time>2026-04-18T06:35:31Z</time></trkpt><trkpt lat="44.42012382659811" lon="8.950147007577494"><ele>29.0</ele><time>2026-04-18T06:35:32Z</time></trkpt><trkpt lat="44.4202331957612" lon="8.950011440067856"><ele>29.0</ele><time>2026-04-18T06:35:33Z</time></trkpt><trkpt lat="44.42033514770569" lon="8.94988852438892"><ele>29.0</ele><time>2026-04-18T06:35:34Z</time></trkpt><trkpt lat="44.420444490365504" lon="8.94977183748868"><ele>33.33333333333333</ele><time>2026-04-18T06:35:35Z</time></trkpt><trkpt lat="44.42056581729472" lon="8.949654473420086"><ele>37.666666666666664</ele><time>2026-04-18T06:35:36Z</time></trkpt><trkpt lat="44.42069573467965" lon="8.949544289608047"><ele>42.0</ele><time>2026-04-18T06:35:37Z</time></trkpt><trkpt lat="44.420839712283225" lon="8.949412424899009"><ele>42.0</ele><time>2026-04-18T06:35:38Z</time></trkpt><trkpt lat="44.420950427960115" lon="8.949293050309699"><ele>42.0</ele><time>2026-04-18T06:35:39Z</time></trkpt><trkpt lat="44.42109972117928" lon="8.949173736489039"><ele>42.0</ele><time>2026-04-18T06:35:40Z</time></trkpt><trkpt lat="44.42125681397682" lon="8.949050107710331"><ele>41.25</ele><time>2026-04-18T06:35:41Z</time></trkpt><trkpt lat="44.42139846291136" lon="8.948934817661788"><ele>40.5</ele><time>2026-04-18T06:35:42Z</time></trkpt><trkpt lat="44.42151849470463" lon="8.94882880717376"><ele>39.75</ele><time>2026-04-18T06:35:43Z</time></trkpt><trkpt lat="44.42162571139444" lon="8.948724227460213"><ele>39.0</ele><time>2026-04-18T06:35:44Z</time></trkpt><trkpt lat="44.421751421209116" lon="8.948620509527867"><ele>39.0</ele><time>2026-04-18T06:35:45Z</time></trkpt><trkpt lat="44.421881830794284" lon="8.948514913132437"><ele>39.0</ele><time>2026-04-18T06:35:46Z</time></trkpt><trkpt lat="44.42199045255514" lon="8.948424273731344"><ele>39.0</ele><time>2026-04-18T06:35:47Z</time></trkpt><trkpt lat="44.4220849285274" lon="8.94834482699406"><ele>39.0</ele><time>2026-04-18T06:35:48Z</time></trkpt><trkpt lat="44.42217699570165" lon="8.948270910928498"><ele>36.833333333333336</ele><time>2026-04-18T06:35:49Z</time></trkpt><trkpt lat="44.422265018403756" lon="8.94819544735226"><ele>34.666666666666664</ele><time>2026-04-18T06:35:50Z</time></trkpt><trkpt lat="44.422333052979994" lon="8.94817169002663"><ele>32.5</ele><time>2026-04-18T06:35:51Z</time></trkpt><trkpt lat="44.42243619709759" lon="8.94816049097137"><ele>30.333333333333332</ele><time>2026-04-18T06:35:53Z</time></trkpt><trkpt lat="44.42252786081838" lon="8.948190765955003"><ele>28.166666666666664</ele><time>2026-04-18T06:36:03Z</time></trkpt><trkpt lat="44.42259144036487" lon="8.948193316180566"><ele>26.0</ele><time>2026-04-18T06:36:04Z</time></trkpt><trkpt lat="44.42271408045958" lon="8.948221949393984"><ele>25.999999999999996</ele><time>2026-04-18T06:36:06Z</time></trkpt><trkpt lat="44.42278348316458" lon="8.948235492372339"><ele>26.0</ele><time>2026-04-18T06:36:07Z</time></trkpt><trkpt lat="44.42286368941065" lon="8.948204761369542"><ele>26.0</ele><time>2026-04-18T06:36:08Z</time></trkpt><trkpt lat="44.4229408913169" lon="8.9482151427416"><ele>26.0</ele><time>2026-04-18T06:36:09Z</time></trkpt><trkpt lat="44.423013737140195" lon="8.948226121491558"><ele>25.999999999999996</ele><time>2026-04-18T06:36:10Z</time></trkpt><trkpt lat="44.423081373174625" lon="8.948235334219223"><ele>26.0</ele><time>2026-04-18T06:36:11Z</time></trkpt><trkpt lat="44.4232089401055" lon="8.948252067535751"><ele>28.8</ele><time>2026-04-18T06:36:13Z</time></trkpt><trkpt lat="44.42331639125851" lon="8.948393730064119"><ele>31.6</ele><time>2026-04-18T06:36:15Z</time></trkpt><trkpt lat="44.423400691329675" lon="8.948445884870829"><ele>34.4</ele><time>2026-04-18T06:36:16.999Z</time></trkpt><trkpt lat="44.423470742162394" lon="8.948497772716523"><ele>37.2</ele><time>2026-04-18T06:36:18.999Z</time></trkpt><trkpt lat="44.42356164484162" lon="8.948540370938776"><ele>40.0</ele><time>2026-04-18T06:36:21.999Z</time></trkpt><trkpt lat="44.423636592311915" lon="8.94859382396258"><ele>40.0</ele><time>2026-04-18T06:36:26.999Z</time></trkpt><trkpt lat="44.42369879522901" lon="8.948636954838388"><ele>40.0</ele><time>2026-04-18T06:36:28.999Z</time></trkpt><trkpt lat="44.42380742748255" lon="8.948712279330639"><ele>40.0</ele><time>2026-04-18T06:36:30.999Z</time></trkpt><trkpt lat="44.42390521752426" lon="8.948779862340404"><ele>40.0</ele><time>2026-04-18T06:36:31.999Z</time></trkpt><trkpt lat="44.42401984950297" lon="8.948863938343353"><ele>40.0</ele><time>2026-04-18T06:36:32.999Z</time></trkpt><trkpt lat="44.424167770237446" lon="8.948948774398778"><ele>39.0</ele><time>2026-04-18T06:36:33.999Z</time></trkpt><trkpt lat="44.42432329791044" lon="8.949052465700346"><ele>38.0</ele><time>2026-04-18T06:36:34.999Z</time></trkpt><trkpt lat="44.42444400445782" lon="8.949141072983057"><ele>37.0</ele><time>2026-04-18T06:36:35.999Z</time></trkpt><trkpt lat="44.42455714968139" lon="8.949195531249222"><ele>36.0</ele><time>2026-04-18T06:36:36.999Z</time></trkpt><trkpt lat="44.424660384582104" lon="8.949245719361983"><ele>36.0</ele><time>2026-04-18T06:36:37.999Z</time></trkpt><trkpt lat="44.42476960132239" lon="8.949297848433252"><ele>36.0</ele><time>2026-04-18T06:36:38.999Z</time></trkpt><trkpt lat="44.42487569237655" lon="8.949325891904513"><ele>36.0</ele><time>2026-04-18T06:36:39.999Z</time></trkpt><trkpt lat="44.42493804011681" lon="8.949339287393979"><ele>36.0</ele><time>2026-04-18T06:36:40.999Z</time></trkpt><trkpt lat="44.42504106732447" lon="8.949341727021686"><ele>36.0</ele><time>2026-04-18T06:36:42.999Z</time></trkpt><trkpt lat="44.425156961243346" lon="8.949359337456471"><ele>36.0</ele><time>2026-04-18T06:37:18Z</time></trkpt><trkpt lat="44.425249113493564" lon="8.949371941354972"><ele>36.0</ele><time>2026-04-18T06:37:19Z</time></trkpt><trkpt lat="44.42535134593542" lon="8.949385924281804"><ele>36.0</ele><time>2026-04-18T06:37:20Z</time></trkpt><trkpt lat="44.42545845829596" lon="8.949398552474047"><ele>36.0</ele><time>2026-04-18T06:37:21Z</time></trkpt><trkpt lat="44.42557033515678" lon="8.94941669737486"><ele>36.0</ele><time>2026-04-18T06:37:22Z</time></trkpt><trkpt lat="44.42570546377713" lon="8.949438370180047"><ele>36.0</ele><time>2026-04-18T06:37:23Z</time></trkpt><trkpt lat="44.42580337088207" lon="8.949446691042354"><ele>36.0</ele><time>2026-04-18T06:37:24Z</time></trkpt><trkpt lat="44.42590777109295" lon="8.949472597974706"><ele>36.0</ele><time>2026-04-18T06:37:25Z</time></trkpt><trkpt lat="44.42602211790328" lon="8.94948918591382"><ele>36.0</ele><time>2026-04-18T06:37:26Z</time></trkpt><trkpt lat="44.426125798610485" lon="8.949505789119623"><ele>36.0</ele><time>2026-04-18T06:37:27Z</time></trkpt><trkpt lat="44.426212896874915" lon="8.949522384584085"><ele>36.0</ele><time>2026-04-18T06:37:28Z</time></trkpt><trkpt lat="44.42628389784956" lon="8.949527289289755"><ele>36.0</ele><time>2026-04-18T06:37:29Z</time></trkpt><trkpt lat="44.42634742492741" lon="8.949528190248898"><ele>36.0</ele><time>2026-04-18T06:37:30Z</time></trkpt><trkpt lat="44.426421687972024" lon="8.949527934547923"><ele>36.0</ele><time>2026-04-18T06:37:31Z</time></trkpt><trkpt lat="44.426489820342965" lon="8.94954416433749"><ele>36.0</ele><time>2026-04-18T06:37:32Z</time></trkpt><trkpt lat="44.42659725155383" lon="8.949556375256792"><ele>36.0</ele><time>2026-04-18T06:37:34Z</time></trkpt><trkpt lat="44.42671010782116" lon="8.949586106413285"><ele>35.0</ele><time>2026-04-18T06:37:36Z</time></trkpt><trkpt lat="44.42679234352285" lon="8.949712622003513"><ele>34.0</ele><time>2026-04-18T06:37:37Z</time></trkpt><trkpt lat="44.42687210942496" lon="8.94985372423593"><ele>33.0</ele><time>2026-04-18T06:37:38Z</time></trkpt><trkpt lat="44.426956682904056" lon="8.95001724366224"><ele>32.0</ele><time>2026-04-18T06:37:39Z</time></trkpt><trkpt lat="44.42703581713029" lon="8.950196843162656"><ele>31.0</ele><time>2026-04-18T06:37:40Z</time></trkpt><trkpt lat="44.42710146695946" lon="8.950352535447555"><ele>30.0</ele><time>2026-04-18T06:37:41Z</time></trkpt><trkpt lat="44.427153178774155" lon="8.950513560023866"><ele>29.0</ele><time>2026-04-18T06:37:42Z</time></trkpt><trkpt lat="44.42721868342081" lon="8.950703993744236"><ele>28.0</ele><time>2026-04-18T06:37:43Z</time></trkpt><trkpt lat="44.42726665482443" lon="8.950911865625242"><ele>28.0</ele><time>2026-04-18T06:37:44Z</time></trkpt><trkpt lat="44.427304683739834" lon="8.951085150514562"><ele>28.0</ele><time>2026-04-18T06:37:45Z</time></trkpt><trkpt lat="44.427332456135375" lon="8.951235226590004"><ele>28.0</ele><time>2026-04-18T06:37:46Z</time></trkpt><trkpt lat="44.42737002040022" lon="8.951389095437928"><ele>28.0</ele><time>2026-04-18T06:37:47Z</time></trkpt><trkpt lat="44.42742422831974" lon="8.951564858044577"><ele>32.333333333333336</ele><time>2026-04-18T06:37:48Z</time></trkpt><trkpt lat="44.427474102933814" lon="8.951765154134211"><ele>36.666666666666664</ele><time>2026-04-18T06:37:49Z</time></trkpt><trkpt lat="44.427525455235234" lon="8.95199922492159"><ele>41.0</ele><time>2026-04-18T06:37:50Z</time></trkpt><trkpt lat="44.427580087898676" lon="8.952248946813725"><ele>41.0</ele><time>2026-04-18T06:37:51Z</time></trkpt><trkpt lat="44.42763542411148" lon="8.952511054154368"><ele>41.0</ele><time>2026-04-18T06:37:52Z</time></trkpt><trkpt lat="44.427694222965826" lon="8.952776530364211"><ele>41.0</ele><time>2026-04-18T06:37:53Z</time></trkpt><trkpt lat="44.42775004021541" lon="8.953044960595856"><ele>45.33333333333333</ele><time>2026-04-18T06:37:54Z</time></trkpt><trkpt lat="44.42780668482913" lon="8.953303254575857"><ele>49.666666666666664</ele><time>2026-04-18T06:37:55Z</time></trkpt><trkpt lat="44.427857506632954" lon="8.953538304599936"><ele>54.0</ele><time>2026-04-18T06:37:56Z</time></trkpt><trkpt lat="44.42790637390871" lon="8.953753045879457"><ele>58.0</ele><time>2026-04-18T06:37:57Z</time></trkpt><trkpt lat="44.42795769954359" lon="8.953961111224295"><ele>62.0</ele><time>2026-04-18T06:37:58Z</time></trkpt><trkpt lat="44.42801995853269" lon="8.954197927611208"><ele>66.0</ele><time>2026-04-18T06:37:59Z</time></trkpt><trkpt lat="44.42809192952014" lon="8.954426659033375"><ele>56.333333333333336</ele><time>2026-04-18T06:38:00Z</time></trkpt><trkpt lat="44.42815541477439" lon="8.954629811778224"><ele>46.66666666666667</ele><time>2026-04-18T06:38:01Z</time></trkpt><trkpt lat="44.42823890361947" lon="8.954843941209747"><ele>37.0</ele><time>2026-04-18T06:38:02Z</time></trkpt><trkpt lat="44.42832218022396" lon="8.955062393103598"><ele>37.0</ele><time>2026-04-18T06:38:03Z</time></trkpt><trkpt lat="44.428403083400966" lon="8.955254394378464"><ele>37.0</ele><time>2026-04-18T06:38:04Z</time></trkpt><trkpt lat="44.428486364726496" lon="8.955460785997865"><ele>37.0</ele><time>2026-04-18T06:38:05Z</time></trkpt><trkpt lat="44.42858372165988" lon="8.95566732511158"><ele>37.0</ele><time>2026-04-18T06:38:06Z</time></trkpt><trkpt lat="44.428673949849504" lon="8.955848105694608"><ele>37.0</ele><time>2026-04-18T06:38:07Z</time></trkpt><trkpt lat="44.42875832624597" lon="8.956012956029058"><ele>37.0</ele><time>2026-04-18T06:38:08Z</time></trkpt><trkpt lat="44.428852695425576" lon="8.95618350136149"><ele>35.75</ele><time>2026-04-18T06:38:09Z</time></trkpt><trkpt lat="44.428955664205695" lon="8.956354873187397"><ele>34.5</ele><time>2026-04-18T06:38:10Z</time></trkpt><trkpt lat="44.42904983450521" lon="8.95650622107186"><ele>33.25</ele><time>2026-04-18T06:38:11Z</time></trkpt><trkpt lat="44.42913952858643" lon="8.956650008621487"><ele>32.0</ele><time>2026-04-18T06:38:12Z</time></trkpt><trkpt lat="44.429232453946206" lon="8.95679123894001"><ele>32.0</ele><time>2026-04-18T06:38:13Z</time></trkpt><trkpt lat="44.42932350970663" lon="8.956922659418069"><ele>32.0</ele><time>2026-04-18T06:38:14Z</time></trkpt><trkpt lat="44.429429607715235" lon="8.957067181391398"><ele>32.0</ele><time>2026-04-18T06:38:15Z</time></trkpt><trkpt lat="44.42955581787519" lon="8.957214124547882"><ele>32.0</ele><time>2026-04-18T06:38:16Z</time></trkpt><trkpt lat="44.42968287133487" lon="8.957370236951473"><ele>31.0</ele><time>2026-04-18T06:38:17Z</time></trkpt><trkpt lat="44.42979353207781" lon="8.957521353389557"><ele>30.0</ele><time>2026-04-18T06:38:18Z</time></trkpt><trkpt lat="44.42988993198085" lon="8.957653765861773"><ele>29.0</ele><time>2026-04-18T06:38:18.999Z</time></trkpt><trkpt lat="44.429988070237265" lon="8.957770443255646"><ele>28.0</ele><time>2026-04-18T06:38:19.999Z</time></trkpt><trkpt lat="44.43008710186768" lon="8.957892589647736"><ele>28.0</ele><time>2026-04-18T06:38:20.999Z</time></trkpt><trkpt lat="44.43017862353599" lon="8.958005863762494"><ele>28.0</ele><time>2026-04-18T06:38:21.999Z</time></trkpt><trkpt lat="44.43026774795861" lon="8.95811049116289"><ele>28.0</ele><time>2026-04-18T06:38:22.999Z</time></trkpt><trkpt lat="44.43036436524824" lon="8.958215722937624"><ele>28.0</ele><time>2026-04-18T06:38:23.999Z</time></trkpt><trkpt lat="44.43044467355833" lon="8.958295067774966"><ele>29.0</ele><time>2026-04-18T06:38:24.999Z</time></trkpt><trkpt lat="44.43058707455381" lon="8.958447381452608"><ele>30.0</ele><time>2026-04-18T06:38:25.999Z</time></trkpt><trkpt lat="44.43067969818701" lon="8.958549136345432"><ele>31.0</ele><time>2026-04-18T06:38:26.999Z</time></trkpt><trkpt lat="44.43077793549672" lon="8.958658555192942"><ele>32.0</ele><time>2026-04-18T06:38:27.999Z</time></trkpt><trkpt lat="44.43086471527816" lon="8.958758609609793"><ele>31.999999999999996</ele><time>2026-04-18T06:38:28.999Z</time></trkpt><trkpt lat="44.43093995880217" lon="8.958846688045545"><ele>32.0</ele><time>2026-04-18T06:38:29.999Z</time></trkpt><trkpt lat="44.430999220677066" lon="8.958912485610762"><ele>32.0</ele><time>2026-04-18T06:38:30.999Z</time></trkpt><trkpt lat="44.431050501660955" lon="8.958973555526743"><ele>32.0</ele><time>2026-04-18T06:38:31.999Z</time></trkpt><trkpt lat="44.4311023566407" lon="8.959042753359304"><ele>31.999999999999996</ele><time>2026-04-18T06:38:32.999Z</time></trkpt><trkpt lat="44.431154546522585" lon="8.959101070984998"><ele>32.0</ele><time>2026-04-18T06:38:33.999Z</time></trkpt><trkpt lat="44.431217829973825" lon="8.959177751122807"><ele>31.8</ele><time>2026-04-18T06:38:34.999Z</time></trkpt><trkpt lat="44.43128613237073" lon="8.959249988583448"><ele>31.6</ele><time>2026-04-18T06:38:35.999Z</time></trkpt><trkpt lat="44.431356809067296" lon="8.959331189656998"><ele>31.400000000000002</ele><time>2026-04-18T06:38:36.999Z</time></trkpt><trkpt lat="44.43142796382922" lon="8.959413588655075"><ele>31.200000000000003</ele><time>2026-04-18T06:38:37.999Z</time></trkpt><trkpt lat="44.4315043481443" lon="8.959499267325947"><ele>31.0</ele><time>2026-04-18T06:38:38.999Z</time></trkpt><trkpt lat="44.431609291530705" lon="8.959615309995257"><ele>31.0</ele><time>2026-04-18T06:38:39.999Z</time></trkpt><trkpt lat="44.43172943634437" lon="8.959751701417673"><ele>31.0</ele><time>2026-04-18T06:38:40.999Z</time></trkpt><trkpt lat="44.431814675047654" lon="8.959860778428615"><ele>31.0</ele><time>2026-04-18T06:38:41.999Z</time></trkpt><trkpt lat="44.43189180049673" lon="8.95994949362007"><ele>31.0</ele><time>2026-04-18T06:38:42.999Z</time></trkpt><trkpt lat="44.43197756015344" lon="8.960039125906924"><ele>31.4</ele><time>2026-04-18T06:38:43.999Z</time></trkpt><trkpt lat="44.43205616862051" lon="8.960123030614543"><ele>31.8</ele><time>2026-04-18T06:38:44.999Z</time></trkpt><trkpt lat="44.432117658604874" lon="8.960200964087356"><ele>32.199999999999996</ele><time>2026-04-18T06:38:45.999Z</time></trkpt><trkpt lat="44.43218501290268" lon="8.96028493365918"><ele>32.6</ele><time>2026-04-18T06:38:46.999Z</time></trkpt><trkpt lat="44.43226220479256" lon="8.96036987714526"><ele>33.0</ele><time>2026-04-18T06:38:47.999Z</time></trkpt><trkpt lat="44.4323423336622" lon="8.960462103629844"><ele>33.0</ele><time>2026-04-18T06:38:48.999Z</time></trkpt><trkpt lat="44.43243078830517" lon="8.960538996540564"><ele>33.0</ele><time>2026-04-18T06:38:49.999Z</time></trkpt><trkpt lat="44.43251259474598" lon="8.960659110721803"><ele>33.0</ele><time>2026-04-18T06:38:50.999Z</time></trkpt><trkpt lat="44.432634232089605" lon="8.960799694633922"><ele>33.0</ele><time>2026-04-18T06:38:51.999Z</time></trkpt><trkpt lat="44.432774532232685" lon="8.96094459875473"><ele>32.5</ele><time>2026-04-18T06:38:52.999Z</time></trkpt><trkpt lat="44.43289889728372" lon="8.961081395085104"><ele>32.0</ele><time>2026-04-18T06:38:53.999Z</time></trkpt><trkpt lat="44.43299548627049" lon="8.961195893965085"><ele>31.5</ele><time>2026-04-18T06:38:54.999Z</time></trkpt><trkpt lat="44.43307916017329" lon="8.961283205345383"><ele>31.0</ele><time>2026-04-18T06:38:55.999Z</time></trkpt><trkpt lat="44.43316009996953" lon="8.961366092716483"><ele>31.0</ele><time>2026-04-18T06:38:56.999Z</time></trkpt><trkpt lat="44.43324501185279" lon="8.961453896920892"><ele>31.0</ele><time>2026-04-18T06:38:57.999Z</time></trkpt><trkpt lat="44.433316094394215" lon="8.961523906163887"><ele>31.0</ele><time>2026-04-18T06:38:58.999Z</time></trkpt><trkpt lat="44.43339613079025" lon="8.961608939331603"><ele>31.0</ele><time>2026-04-18T06:39:00.999Z</time></trkpt><trkpt lat="44.43347585425658" lon="8.961679930246994"><ele>31.0</ele><time>2026-04-18T06:39:11.999Z</time></trkpt><trkpt lat="44.43353986176888" lon="8.961737749820877"><ele>31.0</ele><time>2026-04-18T06:39:12.999Z</time></trkpt><trkpt lat="44.43363249926571" lon="8.961818580887082"><ele>31.0</ele><time>2026-04-18T06:39:13.999Z</time></trkpt><trkpt lat="44.4337285695701" lon="8.96190392329934"><ele>31.0</ele><time>2026-04-18T06:39:14.999Z</time></trkpt><trkpt lat="44.433840883492124" lon="8.961987489091257"><ele>31.0</ele><time>2026-04-18T06:39:15.999Z</time></trkpt><trkpt lat="44.43397998964398" lon="8.962079468626584"><ele>31.0</ele><time>2026-04-18T06:39:16.999Z</time></trkpt><trkpt lat="44.43412473571162" lon="8.962211898369272"><ele>31.0</ele><time>2026-04-18T06:39:17.999Z</time></trkpt><trkpt lat="44.4343116650803" lon="8.962316678203472"><ele>31.0</ele><time>2026-04-18T06:39:18.999Z</time></trkpt><trkpt lat="44.434485060658304" lon="8.962445575881612"><ele>32.75</ele><time>2026-04-18T06:39:19.999Z</time></trkpt><trkpt lat="44.4346233893949" lon="8.962537209292346"><ele>34.5</ele><time>2026-04-18T06:39:20.999Z</time></trkpt><trkpt lat="44.43474930428313" lon="8.96261551584088"><ele>36.25</ele><time>2026-04-18T06:39:22Z</time></trkpt><trkpt lat="44.43486383639125" lon="8.962684952240604"><ele>38.0</ele><time>2026-04-18T06:39:23Z</time></trkpt><trkpt lat="44.43498103352584" lon="8.962745944051573"><ele>38.0</ele><time>2026-04-18T06:39:24Z</time></trkpt><trkpt lat="44.435097543621836" lon="8.962791787974774"><ele>38.0</ele><time>2026-04-18T06:39:25Z</time></trkpt><trkpt lat="44.435209136692635" lon="8.962838783904141"><ele>38.0</ele><time>2026-04-18T06:39:26Z</time></trkpt><trkpt lat="44.43530939764855" lon="8.962883976057112"><ele>38.0</ele><time>2026-04-18T06:39:27Z</time></trkpt><trkpt lat="44.43539794667802" lon="8.962923689878199"><ele>38.0</ele><time>2026-04-18T06:39:28Z</time></trkpt><trkpt lat="44.43547619583422" lon="8.96295492645908"><ele>37.0</ele><time>2026-04-18T06:39:29Z</time></trkpt><trkpt lat="44.43554038772229" lon="8.962993489466486"><ele>36.0</ele><time>2026-04-18T06:39:30Z</time></trkpt><trkpt lat="44.435595452578404" lon="8.963054434732927"><ele>35.0</ele><time>2026-04-18T06:39:31Z</time></trkpt><trkpt lat="44.43564276743232" lon="8.96314391745663"><ele>34.0</ele><time>2026-04-18T06:39:32Z</time></trkpt><trkpt lat="44.435698754649785" lon="8.963275747039406"><ele>33.0</ele><time>2026-04-18T06:39:34Z</time></trkpt><trkpt lat="44.43583971521509" lon="8.963313782058123"><ele>33.0</ele><time>2026-04-18T06:39:36Z</time></trkpt><trkpt lat="44.43594344062487" lon="8.96322618801861"><ele>33.0</ele><time>2026-04-18T06:39:37Z</time></trkpt><trkpt lat="44.43606438016941" lon="8.963185597478232"><ele>33.0</ele><time>2026-04-18T06:39:38Z</time></trkpt><trkpt lat="44.43622503755591" lon="8.963186314775557"><ele>33.0</ele><time>2026-04-18T06:39:39Z</time></trkpt><trkpt lat="44.43641857117236" lon="8.963206796530773"><ele>33.666666666666664</ele><time>2026-04-18T06:39:40Z</time></trkpt><trkpt lat="44.43661196003447" lon="8.963242625923096"><ele>34.33333333333333</ele><time>2026-04-18T06:39:41Z</time></trkpt><trkpt lat="44.43678792911847" lon="8.963279021900243"><ele>35.0</ele><time>2026-04-18T06:39:42Z</time></trkpt><trkpt lat="44.43693893954435" lon="8.963305916642135"><ele>35.0</ele><time>2026-04-18T06:39:43Z</time></trkpt><trkpt lat="44.4370777640892" lon="8.963329833021398"><ele>35.0</ele><time>2026-04-18T06:39:44Z</time></trkpt><trkpt lat="44.43721696642128" lon="8.963358288857012"><ele>35.0</ele><time>2026-04-18T06:39:45Z</time></trkpt><trkpt lat="44.43737199945637" lon="8.963389578083534"><ele>35.0</ele><time>2026-04-18T06:39:46Z</time></trkpt><trkpt lat="44.437545848929304" lon="8.963424649646354"><ele>36.0</ele><time>2026-04-18T06:39:47Z</time></trkpt><trkpt lat="44.4377221843744" lon="8.963463911941425"><ele>37.0</ele><time>2026-04-18T06:39:48Z</time></trkpt><trkpt lat="44.43788039447052" lon="8.963505369555055"><ele>38.0</ele><time>2026-04-18T06:39:49Z</time></trkpt><trkpt lat="44.43803511821518" lon="8.963556186937417"><ele>38.0</ele><time>2026-04-18T06:39:50Z</time></trkpt><trkpt lat="44.43817872701909" lon="8.963585735874217"><ele>38.0</ele><time>2026-04-18T06:39:51Z</time></trkpt><trkpt lat="44.438301188362374" lon="8.963619239918957"><ele>38.0</ele><time>2026-04-18T06:39:52Z</time></trkpt><trkpt lat="44.4384098701734" lon="8.963646676943114"><ele>38.0</ele><time>2026-04-18T06:39:53Z</time></trkpt><trkpt lat="44.43853401815021" lon="8.963672997285343"><ele>38.0</ele><time>2026-04-18T06:39:54Z</time></trkpt><trkpt lat="44.438672124289006" lon="8.963704131543597"><ele>38.0</ele><time>2026-04-18T06:39:55Z</time></trkpt><trkpt lat="44.438800583503316" lon="8.963738635809465"><ele>38.0</ele><time>2026-04-18T06:39:56Z</time></trkpt><trkpt lat="44.438900148963796" lon="8.963755234396377"><ele>38.0</ele><time>2026-04-18T06:39:57Z</time></trkpt><trkpt lat="44.43899925780166" lon="8.963775661526784"><ele>37.75</ele><time>2026-04-18T06:39:58Z</time></trkpt><trkpt lat="44.43910741272184" lon="8.963808600748765"><ele>37.5</ele><time>2026-04-18T06:39:59Z</time></trkpt><trkpt lat="44.43923481675076" lon="8.963847216283432"><ele>37.25</ele><time>2026-04-18T06:40:00Z</time></trkpt><trkpt lat="44.43937233411692" lon="8.963890288732681"><ele>37.0</ele><time>2026-04-18T06:40:01Z</time></trkpt><trkpt lat="44.43949138896436" lon="8.9639376547051"><ele>37.0</ele><time>2026-04-18T06:40:02Z</time></trkpt><trkpt lat="44.43960279576858" lon="8.963982268545053"><ele>37.0</ele><time>2026-04-18T06:40:03Z</time></trkpt><trkpt lat="44.439728389855674" lon="8.96402991428122"><ele>37.0</ele><time>2026-04-18T06:40:04Z</time></trkpt><trkpt lat="44.43986585379326" lon="8.96408258396295"><ele>37.0</ele><time>2026-04-18T06:40:05Z</time></trkpt><trkpt lat="44.44002203760601" lon="8.964132807203711"><ele>37.333333333333336</ele><time>2026-04-18T06:40:06Z</time></trkpt><trkpt lat="44.44018409480952" lon="8.964193224498928"><ele>37.666666666666664</ele><time>2026-04-18T06:40:07Z</time></trkpt><trkpt lat="44.44033192016398" lon="8.964254435351226"><ele>38.0</ele><time>2026-04-18T06:40:08Z</time></trkpt><trkpt lat="44.44045516633289" lon="8.964314921989057"><ele>38.75</ele><time>2026-04-18T06:40:09Z</time></trkpt><trkpt lat="44.44056418740884" lon="8.964369237666327"><ele>39.5</ele><time>2026-04-18T06:40:10Z</time></trkpt><trkpt lat="44.440673289780975" lon="8.964425893095997"><ele>40.25</ele><time>2026-04-18T06:40:11Z</time></trkpt><trkpt lat="44.44079724972668" lon="8.964492958606389"><ele>41.0</ele><time>2026-04-18T06:40:12Z</time></trkpt><trkpt lat="44.44090628888763" lon="8.964555117560847"><ele>41.0</ele><time>2026-04-18T06:40:13Z</time></trkpt><trkpt lat="44.44100249259949" lon="8.964610024230987"><ele>41.0</ele><time>2026-04-18T06:40:14Z</time></trkpt><trkpt lat="44.44108589247835" lon="8.964663101301918"><ele>41.0</ele><time>2026-04-18T06:40:15Z</time></trkpt><trkpt lat="44.44114911698076" lon="8.96470923865128"><ele>41.0</ele><time>2026-04-18T06:40:16Z</time></trkpt><trkpt lat="44.44122264792954" lon="8.964771414627732"><ele>41.0</ele><time>2026-04-18T06:40:18Z</time></trkpt><trkpt lat="44.441300044247534" lon="8.96481709962909"><ele>41.0</ele><time>2026-04-18T06:40:44.999Z</time></trkpt><trkpt lat="44.44141347395057" lon="8.964893447138632"><ele>40.666666666666664</ele><time>2026-04-18T06:40:46.999Z</time></trkpt><trkpt lat="44.44149608164222" lon="8.964944218092416"><ele>40.33333333333333</ele><time>2026-04-18T06:40:47.999Z</time></trkpt><trkpt lat="44.44157564776468" lon="8.964996599394333"><ele>40.0</ele><time>2026-04-18T06:40:48.999Z</time></trkpt><trkpt lat="44.44164206326171" lon="8.965044345543346"><ele>39.666666666666664</ele><time>2026-04-18T06:40:49.999Z</time></trkpt><trkpt lat="44.441701321751104" lon="8.965084150770076"><ele>39.333333333333336</ele><time>2026-04-18T06:40:50.999Z</time></trkpt><trkpt lat="44.44178065456793" lon="8.96521402558189"><ele>39.0</ele><time>2026-04-18T06:40:52.999Z</time></trkpt><trkpt lat="44.44181438823232" lon="8.965292401646758"><ele>39.0</ele><time>2026-04-18T06:40:53.999Z</time></trkpt><trkpt lat="44.44187394872216" lon="8.965352226062496"><ele>39.0</ele><time>2026-04-18T06:40:54.999Z</time></trkpt><trkpt lat="44.4419417994421" lon="8.96534253984856"><ele>39.0</ele><time>2026-04-18T06:40:55.999Z</time></trkpt><trkpt lat="44.44201485693264" lon="8.965314943887574"><ele>39.0</ele><time>2026-04-18T06:40:56.999Z</time></trkpt><trkpt lat="44.44210565565755" lon="8.965328183437578"><ele>39.0</ele><time>2026-04-18T06:40:57.999Z</time></trkpt><trkpt lat="44.442228293871544" lon="8.965412578676162"><ele>39.0</ele><time>2026-04-18T06:40:58.999Z</time></trkpt><trkpt lat="44.44235193652303" lon="8.965509617692337"><ele>39.666666666666664</ele><time>2026-04-18T06:40:59.999Z</time></trkpt><trkpt lat="44.442489366660425" lon="8.965628812504477"><ele>40.33333333333333</ele><time>2026-04-18T06:41:00.999Z</time></trkpt><trkpt lat="44.442629434318604" lon="8.965736891909797"><ele>41.0</ele><time>2026-04-18T06:41:01.999Z</time></trkpt><trkpt lat="44.442759805501176" lon="8.965844146788116"><ele>41.33333333333333</ele><time>2026-04-18T06:41:02.999Z</time></trkpt><trkpt lat="44.44291692396647" lon="8.96597075811954"><ele>41.666666666666664</ele><time>2026-04-18T06:41:03.999Z</time></trkpt><trkpt lat="44.44307941257641" lon="8.96609779234874"><ele>42.0</ele><time>2026-04-18T06:41:04.999Z</time></trkpt><trkpt lat="44.44324448852679" lon="8.966230148744303"><ele>42.0</ele><time>2026-04-18T06:41:05.999Z</time></trkpt><trkpt lat="44.44342295512897" lon="8.966376032022572"><ele>42.0</ele><time>2026-04-18T06:41:06.999Z</time></trkpt><trkpt lat="44.443550805963646" lon="8.96649886181383"><ele>42.0</ele><time>2026-04-18T06:41:07.999Z</time></trkpt><trkpt lat="44.44371908029736" lon="8.96665403687712"><ele>42.0</ele><time>2026-04-18T06:41:08.999Z</time></trkpt><trkpt lat="44.44388982856876" lon="8.966823761877441"><ele>42.0</ele><time>2026-04-18T06:41:09.999Z</time></trkpt><trkpt lat="44.44406327675357" lon="8.96701413207512"><ele>42.0</ele><time>2026-04-18T06:41:10.999Z</time></trkpt><trkpt lat="44.444237272475974" lon="8.967233458747298"><ele>42.0</ele><time>2026-04-18T06:41:11.999Z</time></trkpt><trkpt lat="44.444400585706646" lon="8.967445713190617"><ele>42.0</ele><time>2026-04-18T06:41:12.999Z</time></trkpt><trkpt lat="44.44454572678386" lon="8.967644279643249"><ele>42.0</ele><time>2026-04-18T06:41:13.999Z</time></trkpt><trkpt lat="44.44467478979816" lon="8.967825668860355"><ele>42.333333333333336</ele><time>2026-04-18T06:41:14.999Z</time></trkpt><trkpt lat="44.444799118271646" lon="8.968002282251279"><ele>42.66666666666667</ele><time>2026-04-18T06:41:15.999Z</time></trkpt><trkpt lat="44.4449282161112" lon="8.96818679520138"><ele>43.0</ele><time>2026-04-18T06:41:16.999Z</time></trkpt><trkpt lat="44.44506601641558" lon="8.968378002109432"><ele>43.0</ele><time>2026-04-18T06:41:17.999Z</time></trkpt><trkpt lat="44.44520114037853" lon="8.968564564540136"><ele>43.0</ele><time>2026-04-18T06:41:18.999Z</time></trkpt><trkpt lat="44.445334165974586" lon="8.968743752308388"><ele>43.0</ele><time>2026-04-18T06:41:19.999Z</time></trkpt><trkpt lat="44.445469577176326" lon="8.968922588194365"><ele>43.0</ele><time>2026-04-18T06:41:20.999Z</time></trkpt><trkpt lat="44.44560968359438" lon="8.96910897059926"><ele>43.0</ele><time>2026-04-18T06:41:21.999Z</time></trkpt><trkpt lat="44.44575065366677" lon="8.969296911629508"><ele>43.0</ele><time>2026-04-18T06:41:22.999Z</time></trkpt><trkpt lat="44.44589317265217" lon="8.969483280516235"><ele>43.66666666666667</ele><time>2026-04-18T06:41:23.999Z</time></trkpt><trkpt lat="44.446038016106364" lon="8.969673785619186"><ele>44.333333333333336</ele><time>2026-04-18T06:41:24.999Z</time></trkpt><trkpt lat="44.446178732055664" lon="8.969863011558417"><ele>45.0</ele><time>2026-04-18T06:41:25.999Z</time></trkpt><trkpt lat="44.44630959858561" lon="8.970036193032364"><ele>45.0</ele><time>2026-04-18T06:41:26.999Z</time></trkpt><trkpt lat="44.4464265248501" lon="8.970199248324388"><ele>45.0</ele><time>2026-04-18T06:41:28Z</time></trkpt><trkpt lat="44.446539323491365" lon="8.970339603061591"><ele>45.0</ele><time>2026-04-18T06:41:29Z</time></trkpt><trkpt lat="44.44665296571866" lon="8.970479566928796"><ele>45.0</ele><time>2026-04-18T06:41:30Z</time></trkpt><trkpt lat="44.44678062277843" lon="8.97063599286073"><ele>45.0</ele><time>2026-04-18T06:41:31Z</time></trkpt><trkpt lat="44.44691048202016" lon="8.970792798295756"><ele>45.0</ele><time>2026-04-18T06:41:32Z</time></trkpt><trkpt lat="44.4470279057925" lon="8.970936696507056"><ele>45.5</ele><time>2026-04-18T06:41:33Z</time></trkpt><trkpt lat="44.44713368633035" lon="8.971066578338101"><ele>46.0</ele><time>2026-04-18T06:41:34Z</time></trkpt><trkpt lat="44.44724153627248" lon="8.971203936950328"><ele>46.5</ele><time>2026-04-18T06:41:35Z</time></trkpt><trkpt lat="44.447358400656945" lon="8.971348352944673"><ele>47.0</ele><time>2026-04-18T06:41:36Z</time></trkpt><trkpt lat="44.447471132602935" lon="8.971484081711402"><ele>47.0</ele><time>2026-04-18T06:41:37Z</time></trkpt><trkpt lat="44.4475722377236" lon="8.971604020960388"><ele>47.0</ele><time>2026-04-18T06:41:38Z</time></trkpt><trkpt lat="44.44767702588244" lon="8.971721318369958"><ele>47.0</ele><time>2026-04-18T06:41:39Z</time></trkpt><trkpt lat="44.447796757311266" lon="8.971840033603886"><ele>47.0</ele><time>2026-04-18T06:41:40Z</time></trkpt><trkpt lat="44.447925545527234" lon="8.971968299293394"><ele>46.33333333333333</ele><time>2026-04-18T06:41:41Z</time></trkpt><trkpt lat="44.448060287974236" lon="8.972122890538568"><ele>45.666666666666664</ele><time>2026-04-18T06:41:42Z</time></trkpt><trkpt lat="44.448201799852235" lon="8.9723001863723"><ele>45.0</ele><time>2026-04-18T06:41:43Z</time></trkpt><trkpt lat="44.44834909798068" lon="8.972476097157271"><ele>48.0</ele><time>2026-04-18T06:41:44Z</time></trkpt><trkpt lat="44.44849016336324" lon="8.972650663028135"><ele>51.0</ele><time>2026-04-18T06:41:45Z</time></trkpt><trkpt lat="44.448614455976426" lon="8.97279529513015"><ele>54.0</ele><time>2026-04-18T06:41:46Z</time></trkpt><trkpt lat="44.44873985277123" lon="8.9729433847076"><ele>54.66666666666667</ele><time>2026-04-18T06:41:47Z</time></trkpt><trkpt lat="44.44886795138188" lon="8.973096177977727"><ele>55.333333333333336</ele><time>2026-04-18T06:41:48Z</time></trkpt><trkpt lat="44.449000821037835" lon="8.97325232658249"><ele>56.0</ele><time>2026-04-18T06:41:49Z</time></trkpt><trkpt lat="44.449133996909175" lon="8.973409069428023"><ele>56.0</ele><time>2026-04-18T06:41:50Z</time></trkpt><trkpt lat="44.44926130438768" lon="8.973565102375218"><ele>56.0</ele><time>2026-04-18T06:41:51Z</time></trkpt><trkpt lat="44.44939103915868" lon="8.973729047094675"><ele>56.0</ele><time>2026-04-18T06:41:52Z</time></trkpt><trkpt lat="44.449522921386404" lon="8.973902432349204"><ele>56.66666666666667</ele><time>2026-04-18T06:41:53Z</time></trkpt><trkpt lat="44.44965703410135" lon="8.97408092895721"><ele>57.33333333333333</ele><time>2026-04-18T06:41:54Z</time></trkpt><trkpt lat="44.44979754446012" lon="8.974264065235536"><ele>58.0</ele><time>2026-04-18T06:41:55Z</time></trkpt><trkpt lat="44.449939820747375" lon="8.974449520283994"><ele>58.0</ele><time>2026-04-18T06:41:56Z</time></trkpt><trkpt lat="44.45008356634969" lon="8.974639321967649"><ele>58.0</ele><time>2026-04-18T06:41:57Z</time></trkpt><trkpt lat="44.45022730515578" lon="8.97483037851149"><ele>58.0</ele><time>2026-04-18T06:41:58Z</time></trkpt><trkpt lat="44.45037618171784" lon="8.975026710705192"><ele>55.0</ele><time>2026-04-18T06:41:59Z</time></trkpt><trkpt lat="44.45052115404323" lon="8.975217781293146"><ele>52.0</ele><time>2026-04-18T06:42:00Z</time></trkpt><trkpt lat="44.45067121507075" lon="8.975414840616347"><ele>49.0</ele><time>2026-04-18T06:42:01Z</time></trkpt><trkpt lat="44.45080959279761" lon="8.975596841747326"><ele>49.0</ele><time>2026-04-18T06:42:02Z</time></trkpt><trkpt lat="44.450937026384096" lon="8.975773060386748"><ele>49.0</ele><time>2026-04-18T06:42:03Z</time></trkpt><trkpt lat="44.45106050535522" lon="8.975956350349966"><ele>49.0</ele><time>2026-04-18T06:42:04Z</time></trkpt><trkpt lat="44.45118570533055" lon="8.976155325172876"><ele>51.666666666666664</ele><time>2026-04-18T06:42:05Z</time></trkpt><trkpt lat="44.4513147299826" lon="8.976364937710338"><ele>54.33333333333333</ele><time>2026-04-18T06:42:06Z</time></trkpt><trkpt lat="44.451442392480104" lon="8.976580057953543"><ele>57.0</ele><time>2026-04-18T06:42:07Z</time></trkpt><trkpt lat="44.451565744667114" lon="8.976798440389304"><ele>60.0</ele><time>2026-04-18T06:42:08Z</time></trkpt><trkpt lat="44.45167409543288" lon="8.977004488298858"><ele>63.0</ele><time>2026-04-18T06:42:09Z</time></trkpt><trkpt lat="44.45177450238464" lon="8.977206078553582"><ele>66.0</ele><time>2026-04-18T06:42:10Z</time></trkpt><trkpt lat="44.451874050983314" lon="8.977415171185411"><ele>64.66666666666667</ele><time>2026-04-18T06:42:11Z</time></trkpt><trkpt lat="44.45197260661796" lon="8.97763278289237"><ele>63.333333333333336</ele><time>2026-04-18T06:42:12Z</time></trkpt><trkpt lat="44.452067036566866" lon="8.977857384371681"><ele>62.0</ele><time>2026-04-18T06:42:13Z</time></trkpt><trkpt lat="44.45216063099372" lon="8.978083220695318"><ele>62.0</ele><time>2026-04-18T06:42:14Z</time></trkpt><trkpt lat="44.45225105429425" lon="8.978318013561031"><ele>62.0</ele><time>2026-04-18T06:42:15Z</time></trkpt><trkpt lat="44.452335578297436" lon="8.97855431247715"><ele>62.0</ele><time>2026-04-18T06:42:16Z</time></trkpt><trkpt lat="44.45240834568249" lon="8.978767563722341"><ele>63.333333333333336</ele><time>2026-04-18T06:42:17Z</time></trkpt><trkpt lat="44.452476059243956" lon="8.978976549063763"><ele>64.66666666666667</ele><time>2026-04-18T06:42:18Z</time></trkpt><trkpt lat="44.452544701765085" lon="8.979193146169699"><ele>66.0</ele><time>2026-04-18T06:42:19Z</time></trkpt><trkpt lat="44.45261041280306" lon="8.979419037795811"><ele>66.33333333333333</ele><time>2026-04-18T06:42:20Z</time></trkpt><trkpt lat="44.452670548514405" lon="8.979655678732444"><ele>66.66666666666666</ele><time>2026-04-18T06:42:21Z</time></trkpt><trkpt lat="44.45272620021044" lon="8.979899394972627"><ele>67.0</ele><time>2026-04-18T06:42:22Z</time></trkpt><trkpt lat="44.45278421204309" lon="8.98014746139039"><ele>66.66666666666666</ele><time>2026-04-18T06:42:23Z</time></trkpt><trkpt lat="44.452841898629195" lon="8.980393139694193"><ele>66.33333333333333</ele><time>2026-04-18T06:42:24Z</time></trkpt><trkpt lat="44.452897223465165" lon="8.980630279515552"><ele>66.0</ele><time>2026-04-18T06:42:24.999Z</time></trkpt><trkpt lat="44.452950725007774" lon="8.980868946301092"><ele>61.66666666666667</ele><time>2026-04-18T06:42:25.999Z</time></trkpt><trkpt lat="44.45300925431272" lon="8.981116605275266"><ele>57.333333333333336</ele><time>2026-04-18T06:42:26.999Z</time></trkpt><trkpt lat="44.45306919485987" lon="8.981363069216416"><ele>53.0</ele><time>2026-04-18T06:42:27.999Z</time></trkpt><trkpt lat="44.45313209714698" lon="8.981614557671033"><ele>53.333333333333336</ele><time>2026-04-18T06:42:28.999Z</time></trkpt><trkpt lat="44.45319189391347" lon="8.981871375676244"><ele>53.66666666666667</ele><time>2026-04-18T06:42:29.999Z</time></trkpt><trkpt lat="44.45325539532932" lon="8.982131088716107"><ele>54.0</ele><time>2026-04-18T06:42:30.999Z</time></trkpt><trkpt lat="44.4533204478509" lon="8.982393373520136"><ele>54.33333333333333</ele><time>2026-04-18T06:42:31.999Z</time></trkpt><trkpt lat="44.45338369731929" lon="8.982653939132488"><ele>54.666666666666664</ele><time>2026-04-18T06:42:32.999Z</time></trkpt><trkpt lat="44.45344797778393" lon="8.982918587166841"><ele>55.0</ele><time>2026-04-18T06:42:33.999Z</time></trkpt><trkpt lat="44.453512667132" lon="8.983182941882937"><ele>56.0</ele><time>2026-04-18T06:42:34.999Z</time></trkpt><trkpt lat="44.453573026418134" lon="8.98343429447786"><ele>57.0</ele><time>2026-04-18T06:42:35.999Z</time></trkpt><trkpt lat="44.453628744083474" lon="8.983663999369185"><ele>58.0</ele><time>2026-04-18T06:42:36.999Z</time></trkpt><trkpt lat="44.45367909360121" lon="8.983878716031866"><ele>58.0</ele><time>2026-04-18T06:42:37.999Z</time></trkpt><trkpt lat="44.453726005358114" lon="8.98411242100111"><ele>58.0</ele><time>2026-04-18T06:42:38.999Z</time></trkpt><trkpt lat="44.45376340655145" lon="8.984355691322982"><ele>58.0</ele><time>2026-04-18T06:42:39.999Z</time></trkpt><trkpt lat="44.4537923074888" lon="8.98460440719487"><ele>57.33333333333333</ele><time>2026-04-18T06:42:40.999Z</time></trkpt><trkpt lat="44.453795453766816" lon="8.984867789405016"><ele>56.66666666666667</ele><time>2026-04-18T06:42:41.999Z</time></trkpt><trkpt lat="44.453791462033045" lon="8.985119724542875"><ele>56.0</ele><time>2026-04-18T06:42:42.999Z</time></trkpt><trkpt lat="44.45379141370111" lon="8.985373658250497"><ele>55.66666666666667</ele><time>2026-04-18T06:42:43.999Z</time></trkpt><trkpt lat="44.453793442458824" lon="8.985634842300309"><ele>55.33333333333333</ele><time>2026-04-18T06:42:44.999Z</time></trkpt><trkpt lat="44.4537885339564" lon="8.985899350392632"><ele>55.0</ele><time>2026-04-18T06:42:45.999Z</time></trkpt><trkpt lat="44.45376734235622" lon="8.986166770730403"><ele>61.0</ele><time>2026-04-18T06:42:46.999Z</time></trkpt><trkpt lat="44.45372782720478" lon="8.986424180921647"><ele>67.0</ele><time>2026-04-18T06:42:47.999Z</time></trkpt><trkpt lat="44.453677365628764" lon="8.986662492268241"><ele>73.0</ele><time>2026-04-18T06:42:48.999Z</time></trkpt><trkpt lat="44.45362181975118" lon="8.986900995572855"><ele>73.0</ele><time>2026-04-18T06:42:49.999Z</time></trkpt><trkpt lat="44.45356019860836" lon="8.987139842239642"><ele>73.0</ele><time>2026-04-18T06:42:50.999Z</time></trkpt><trkpt lat="44.45349566909884" lon="8.987379004989947"><ele>73.0</ele><time>2026-04-18T06:42:51.999Z</time></trkpt><trkpt lat="44.45343089982704" lon="8.98762040740098"><ele>68.66666666666666</ele><time>2026-04-18T06:42:52.999Z</time></trkpt><trkpt lat="44.45336408186171" lon="8.98786190975045"><ele>64.33333333333333</ele><time>2026-04-18T06:42:53.999Z</time></trkpt><trkpt lat="44.45329635959332" lon="8.988105544915785"><ele>60.0</ele><time>2026-04-18T06:42:54.999Z</time></trkpt><trkpt lat="44.45322828405044" lon="8.988349697090092"><ele>60.0</ele><time>2026-04-18T06:42:55.999Z</time></trkpt><trkpt lat="44.4531598757875" lon="8.988595034681612"><ele>60.0</ele><time>2026-04-18T06:42:56.999Z</time></trkpt><trkpt lat="44.453088724469005" lon="8.988844270812034"><ele>60.0</ele><time>2026-04-18T06:42:57.999Z</time></trkpt><trkpt lat="44.45301649729498" lon="8.98909378840215"><ele>64.33333333333333</ele><time>2026-04-18T06:42:58.999Z</time></trkpt><trkpt lat="44.452943010198624" lon="8.98934440147106"><ele>68.66666666666666</ele><time>2026-04-18T06:42:59.999Z</time></trkpt><trkpt lat="44.452869349928946" lon="8.989599613253079"><ele>73.0</ele><time>2026-04-18T06:43:00.999Z</time></trkpt><trkpt lat="44.45279023379106" lon="8.989855861204221"><ele>70.0</ele><time>2026-04-18T06:43:01.999Z</time></trkpt><trkpt lat="44.45269694390781" lon="8.990098319400426"><ele>67.0</ele><time>2026-04-18T06:43:02.999Z</time></trkpt><trkpt lat="44.45258853371377" lon="8.99033702522458"><ele>64.0</ele><time>2026-04-18T06:43:03.999Z</time></trkpt><trkpt lat="44.452475878646304" lon="8.990555590598401"><ele>64.0</ele><time>2026-04-18T06:43:04.999Z</time></trkpt><trkpt lat="44.452362756245606" lon="8.990748792283672"><ele>64.0</ele><time>2026-04-18T06:43:05.999Z</time></trkpt><trkpt lat="44.45223283771789" lon="8.99092739975632"><ele>64.0</ele><time>2026-04-18T06:43:06.999Z</time></trkpt><trkpt lat="44.45209370655441" lon="8.991098177456417"><ele>65.0</ele><time>2026-04-18T06:43:07.999Z</time></trkpt><trkpt lat="44.451945857648084" lon="8.991250209554329"><ele>66.0</ele><time>2026-04-18T06:43:08.999Z</time></trkpt><trkpt lat="44.451816653913475" lon="8.991371942014142"><ele>67.0</ele><time>2026-04-18T06:43:09.999Z</time></trkpt><trkpt lat="44.45169352921516" lon="8.991451190550078"><ele>67.0</ele><time>2026-04-18T06:43:10.999Z</time></trkpt><trkpt lat="44.45155308932025" lon="8.991489400119793"><ele>67.0</ele><time>2026-04-18T06:43:11.999Z</time></trkpt><trkpt lat="44.45139827723752" lon="8.991489754366743"><ele>67.0</ele><time>2026-04-18T06:43:12.999Z</time></trkpt><trkpt lat="44.45123062139472" lon="8.991453398896148"><ele>69.0</ele><time>2026-04-18T06:43:13.999Z</time></trkpt><trkpt lat="44.45107046342468" lon="8.991395565192823"><ele>71.0</ele><time>2026-04-18T06:43:14.999Z</time></trkpt><trkpt lat="44.45092488627544" lon="8.991350759826428"><ele>73.0</ele><time>2026-04-18T06:43:15.999Z</time></trkpt><trkpt lat="44.45077055810364" lon="8.991354841383114"><ele>73.0</ele><time>2026-04-18T06:43:16.999Z</time></trkpt><trkpt lat="44.45060146906395" lon="8.991379724586505"><ele>73.0</ele><time>2026-04-18T06:43:17.999Z</time></trkpt><trkpt lat="44.45043156222972" lon="8.991447349158442"><ele>73.0</ele><time>2026-04-18T06:43:18.999Z</time></trkpt><trkpt lat="44.45026145339991" lon="8.991561133526483"><ele>73.0</ele><time>2026-04-18T06:43:19.999Z</time></trkpt><trkpt lat="44.45008648329561" lon="8.991672455246812"><ele>73.0</ele><time>2026-04-18T06:43:20.999Z</time></trkpt><trkpt lat="44.44994014501755" lon="8.991854819970351"><ele>73.0</ele><time>2026-04-18T06:43:21.999Z</time></trkpt><trkpt lat="44.449814286224765" lon="8.992044303482233"><ele>72.66666666666666</ele><time>2026-04-18T06:43:22.999Z</time></trkpt><trkpt lat="44.44970778524568" lon="8.992230453789741"><ele>72.33333333333333</ele><time>2026-04-18T06:43:23.999Z</time></trkpt><trkpt lat="44.449603977564806" lon="8.992411084344656"><ele>72.0</ele><time>2026-04-18T06:43:24.999Z</time></trkpt><trkpt lat="44.44949556336315" lon="8.99257138092341"><ele>71.33333333333333</ele><time>2026-04-18T06:43:25.999Z</time></trkpt><trkpt lat="44.44939612498505" lon="8.99275645902723"><ele>70.66666666666666</ele><time>2026-04-18T06:43:26.999Z</time></trkpt><trkpt lat="44.44929453609604" lon="8.99294749411642"><ele>70.0</ele><time>2026-04-18T06:43:27.999Z</time></trkpt><trkpt lat="44.44919122360436" lon="8.993150762334787"><ele>69.33333333333333</ele><time>2026-04-18T06:43:28.999Z</time></trkpt><trkpt lat="44.44910155372359" lon="8.993370667282814"><ele>68.66666666666667</ele><time>2026-04-18T06:43:29.999Z</time></trkpt><trkpt lat="44.44901323379919" lon="8.993599766158528"><ele>68.0</ele><time>2026-04-18T06:43:30.999Z</time></trkpt><trkpt lat="44.44893655574919" lon="8.993828829391692"><ele>68.0</ele><time>2026-04-18T06:43:31.999Z</time></trkpt><trkpt lat="44.448874384585665" lon="8.994038021652436"><ele>68.0</ele><time>2026-04-18T06:43:32.999Z</time></trkpt><trkpt lat="44.448842430763875" lon="8.99422499936417"><ele>68.0</ele><time>2026-04-18T06:43:34Z</time></trkpt><trkpt lat="44.44878461380953" lon="8.994381967700116"><ele>68.0</ele><time>2026-04-18T06:43:35Z</time></trkpt><trkpt lat="44.44876037295202" lon="8.994541537935648"><ele>68.0</ele><time>2026-04-18T06:43:36Z</time></trkpt><trkpt lat="44.44872253480084" lon="8.994685517825895"><ele>68.0</ele><time>2026-04-18T06:43:37Z</time></trkpt><trkpt lat="44.44869019352317" lon="8.994807179914162"><ele>68.0</ele><time>2026-04-18T06:43:38Z</time></trkpt><trkpt lat="44.44865323460652" lon="8.9949115330466"><ele>68.0</ele><time>2026-04-18T06:43:39Z</time></trkpt><trkpt lat="44.44862247952103" lon="8.995009243514044"><ele>68.0</ele><time>2026-04-18T06:43:40Z</time></trkpt><trkpt lat="44.448596900071344" lon="8.995119276742956"><ele>68.0</ele><time>2026-04-18T06:43:41Z</time></trkpt><trkpt lat="44.44856472642191" lon="8.99523862647578"><ele>68.0</ele><time>2026-04-18T06:43:42Z</time></trkpt><trkpt lat="44.44853421533112" lon="8.995361370503208"><ele>68.0</ele><time>2026-04-18T06:43:43Z</time></trkpt><trkpt lat="44.44849858562136" lon="8.995487330687737"><ele>68.0</ele><time>2026-04-18T06:43:44Z</time></trkpt><trkpt lat="44.448461510464035" lon="8.99561955397456"><ele>68.0</ele><time>2026-04-18T06:43:45Z</time></trkpt><trkpt lat="44.44842912401377" lon="8.995754452374692"><ele>68.0</ele><time>2026-04-18T06:43:46Z</time></trkpt><trkpt lat="44.44839744084791" lon="8.99587165457704"><ele>68.0</ele><time>2026-04-18T06:43:47Z</time></trkpt><trkpt lat="44.44836701834258" lon="8.995972157087893"><ele>68.0</ele><time>2026-04-18T06:43:48Z</time></trkpt><trkpt lat="44.44834777058817" lon="8.996061290263103"><ele>68.0</ele><time>2026-04-18T06:43:49Z</time></trkpt><trkpt lat="44.44831181843329" lon="8.996200494899092"><ele>68.0</ele><time>2026-04-18T06:43:51Z</time></trkpt><trkpt lat="44.44828957652065" lon="8.996287483960572"><ele>68.0</ele><time>2026-04-18T06:43:53Z</time></trkpt><trkpt lat="44.44826661154005" lon="8.996390445375013"><ele>68.0</ele><time>2026-04-18T06:43:59Z</time></trkpt><trkpt lat="44.4482263911376" lon="8.996547757778949"><ele>68.2</ele><time>2026-04-18T06:44:01Z</time></trkpt><trkpt lat="44.44818441654761" lon="8.996700164714943"><ele>68.4</ele><time>2026-04-18T06:44:03Z</time></trkpt><trkpt lat="44.44816211705237" lon="8.996790528834534"><ele>68.60000000000001</ele><time>2026-04-18T06:44:04Z</time></trkpt><trkpt lat="44.44814028538157" lon="8.996902868744451"><ele>68.8</ele><time>2026-04-18T06:44:05Z</time></trkpt><trkpt lat="44.44811231473509" lon="8.997022178952886"><ele>69.0</ele><time>2026-04-18T06:44:06Z</time></trkpt><trkpt lat="44.44808214871183" lon="8.997155254937185"><ele>69.0</ele><time>2026-04-18T06:44:07Z</time></trkpt><trkpt lat="44.44804908222069" lon="8.997283390670503"><ele>69.0</ele><time>2026-04-18T06:44:08Z</time></trkpt><trkpt lat="44.44801268701559" lon="8.997414834098846"><ele>69.0</ele><time>2026-04-18T06:44:09Z</time></trkpt><trkpt lat="44.44797438892576" lon="8.99754720661207"><ele>69.0</ele><time>2026-04-18T06:44:10Z</time></trkpt><trkpt lat="44.44793712635573" lon="8.997683870763094"><ele>69.0</ele><time>2026-04-18T06:44:11Z</time></trkpt><trkpt lat="44.44789843252408" lon="8.997825407266824"><ele>69.8</ele><time>2026-04-18T06:44:12Z</time></trkpt><trkpt lat="44.447859804669186" lon="8.997970968535121"><ele>70.60000000000001</ele><time>2026-04-18T06:44:13Z</time></trkpt><trkpt lat="44.44781554231191" lon="8.998134708019476"><ele>71.4</ele><time>2026-04-18T06:44:14Z</time></trkpt><trkpt lat="44.447775734697494" lon="8.99828540462153"><ele>72.2</ele><time>2026-04-18T06:44:15Z</time></trkpt><trkpt lat="44.44774218872121" lon="8.998415463359816"><ele>73.0</ele><time>2026-04-18T06:44:16Z</time></trkpt><trkpt lat="44.44770944646641" lon="8.998545191658833"><ele>73.75</ele><time>2026-04-18T06:44:17Z</time></trkpt><trkpt lat="44.447671745926804" lon="8.998684999373456"><ele>74.5</ele><time>2026-04-18T06:44:18Z</time></trkpt><trkpt lat="44.44763392458376" lon="8.998831168668241"><ele>75.25</ele><time>2026-04-18T06:44:19Z</time></trkpt><trkpt lat="44.44759800787248" lon="8.998991562479324"><ele>76.0</ele><time>2026-04-18T06:44:20Z</time></trkpt><trkpt lat="44.447553303113736" lon="8.999160505964495"><ele>75.6</ele><time>2026-04-18T06:44:21Z</time></trkpt><trkpt lat="44.44751562383597" lon="8.999315778090443"><ele>75.19999999999999</ele><time>2026-04-18T06:44:22Z</time></trkpt><trkpt lat="44.44747613311452" lon="8.999453557132439"><ele>74.80000000000001</ele><time>2026-04-18T06:44:23Z</time></trkpt><trkpt lat="44.44744774729874" lon="8.999574805575035"><ele>74.4</ele><time>2026-04-18T06:44:24Z</time></trkpt><trkpt lat="44.44741855084633" lon="8.999711504677977"><ele>74.0</ele><time>2026-04-18T06:44:25Z</time></trkpt><trkpt lat="44.44737869243429" lon="8.999855245313745"><ele>74.0</ele><time>2026-04-18T06:44:26Z</time></trkpt><trkpt lat="44.44733561481219" lon="8.999999087155299"><ele>74.0</ele><time>2026-04-18T06:44:27Z</time></trkpt><trkpt lat="44.447292682124065" lon="9.000142913710139"><ele>74.0</ele><time>2026-04-18T06:44:28Z</time></trkpt><trkpt lat="44.44725651306516" lon="9.000290357478171"><ele>74.0</ele><time>2026-04-18T06:44:29Z</time></trkpt><trkpt lat="44.44721804528096" lon="9.000429527026968"><ele>74.0</ele><time>2026-04-18T06:44:30Z</time></trkpt><trkpt lat="44.447180260091834" lon="9.0005870864377"><ele>74.0</ele><time>2026-04-18T06:44:31Z</time></trkpt><trkpt lat="44.447144074700816" lon="9.000737923380806"><ele>74.0</ele><time>2026-04-18T06:44:32Z</time></trkpt><trkpt lat="44.44710578302664" lon="9.00086744264934"><ele>74.0</ele><time>2026-04-18T06:44:33Z</time></trkpt><trkpt lat="44.44707421926269" lon="9.000998342001639"><ele>74.0</ele><time>2026-04-18T06:44:34Z</time></trkpt><trkpt lat="44.447042485133615" lon="9.001133980684857"><ele>74.0</ele><time>2026-04-18T06:44:35Z</time></trkpt><trkpt lat="44.4470175582542" lon="9.00128081061143"><ele>74.5</ele><time>2026-04-18T06:44:35.999Z</time></trkpt><trkpt lat="44.446993899422324" lon="9.001427676569557"><ele>75.0</ele><time>2026-04-18T06:44:36.999Z</time></trkpt><trkpt lat="44.44697526422428" lon="9.00157587877898"><ele>75.5</ele><time>2026-04-18T06:44:37.999Z</time></trkpt><trkpt lat="44.44695536088437" lon="9.001734699961128"><ele>76.0</ele><time>2026-04-18T06:44:38.999Z</time></trkpt><trkpt lat="44.446934006401555" lon="9.001915168956016"><ele>76.0</ele><time>2026-04-18T06:44:39.999Z</time></trkpt><trkpt lat="44.44691451843588" lon="9.002079718063955"><ele>76.0</ele><time>2026-04-18T06:44:40.999Z</time></trkpt><trkpt lat="44.446896319442" lon="9.002239748558344"><ele>76.0</ele><time>2026-04-18T06:44:41.999Z</time></trkpt><trkpt lat="44.44687694346751" lon="9.002403609574666"><ele>76.0</ele><time>2026-04-18T06:44:42.999Z</time></trkpt><trkpt lat="44.44685478851154" lon="9.002569722844333"><ele>77.0</ele><time>2026-04-18T06:44:43.999Z</time></trkpt><trkpt lat="44.44683544038951" lon="9.00273289442049"><ele>78.0</ele><time>2026-04-18T06:44:44.999Z</time></trkpt><trkpt lat="44.44681904822442" lon="9.002901421725705"><ele>79.0</ele><time>2026-04-18T06:44:45.999Z</time></trkpt><trkpt lat="44.44680200568244" lon="9.003059294638572"><ele>80.0</ele><time>2026-04-18T06:44:46.999Z</time></trkpt><trkpt lat="44.446774928532605" lon="9.003208459383327"><ele>81.6</ele><time>2026-04-18T06:44:47.999Z</time></trkpt><trkpt lat="44.44676278380792" lon="9.003353553895252"><ele>83.2</ele><time>2026-04-18T06:44:48.999Z</time></trkpt><trkpt lat="44.446748374204255" lon="9.003500340456487"><ele>84.80000000000001</ele><time>2026-04-18T06:44:49.999Z</time></trkpt><trkpt lat="44.44673967418282" lon="9.003657753441288"><ele>86.4</ele><time>2026-04-18T06:44:50.999Z</time></trkpt><trkpt lat="44.44672981461462" lon="9.003822690588809"><ele>88.0</ele><time>2026-04-18T06:44:51.999Z</time></trkpt><trkpt lat="44.446726782908534" lon="9.004000894902227"><ele>89.0</ele><time>2026-04-18T06:44:52.999Z</time></trkpt><trkpt lat="44.446728565794785" lon="9.004185992300586"><ele>90.0</ele><time>2026-04-18T06:44:53.999Z</time></trkpt><trkpt lat="44.446732795861074" lon="9.004351810402849"><ele>91.0</ele><time>2026-04-18T06:44:54.999Z</time></trkpt><trkpt lat="44.44674345664546" lon="9.004510355477548"><ele>92.0</ele><time>2026-04-18T06:44:55.999Z</time></trkpt><trkpt lat="44.44675520022122" lon="9.004671177534307"><ele>92.0</ele><time>2026-04-18T06:44:56.999Z</time></trkpt><trkpt lat="44.446772717532404" lon="9.00483789193726"><ele>92.0</ele><time>2026-04-18T06:44:57.999Z</time></trkpt><trkpt lat="44.446790192190655" lon="9.004990408371823"><ele>92.0</ele><time>2026-04-18T06:44:58.999Z</time></trkpt><trkpt lat="44.44680968151223" lon="9.005125536268627"><ele>92.0</ele><time>2026-04-18T06:44:59.999Z</time></trkpt><trkpt lat="44.44683067090494" lon="9.005269618393177"><ele>92.0</ele><time>2026-04-18T06:45:00.999Z</time></trkpt><trkpt lat="44.44685461532844" lon="9.005437381457595"><ele>92.16666666666667</ele><time>2026-04-18T06:45:01.999Z</time></trkpt><trkpt lat="44.446877291505224" lon="9.005588442551158"><ele>92.33333333333334</ele><time>2026-04-18T06:45:02.999Z</time></trkpt><trkpt lat="44.446894193767605" lon="9.005719953113408"><ele>92.5</ele><time>2026-04-18T06:45:03.999Z</time></trkpt><trkpt lat="44.446919295577715" lon="9.005839495899197"><ele>92.66666666666667</ele><time>2026-04-18T06:45:04.999Z</time></trkpt><trkpt lat="44.44694316514142" lon="9.005948524197672"><ele>92.83333333333333</ele><time>2026-04-18T06:45:05.999Z</time></trkpt><trkpt lat="44.44696362992098" lon="9.006039772465922"><ele>93.0</ele><time>2026-04-18T06:45:06.999Z</time></trkpt><trkpt lat="44.44698563352747" lon="9.006124794272013"><ele>94.33333333333333</ele><time>2026-04-18T06:45:07.999Z</time></trkpt><trkpt lat="44.44700510774281" lon="9.006211938867526"><ele>95.66666666666666</ele><time>2026-04-18T06:45:08.999Z</time></trkpt><trkpt lat="44.447032150547834" lon="9.006307961462964"><ele>97.0</ele><time>2026-04-18T06:45:09.999Z</time></trkpt><trkpt lat="44.447062562693176" lon="9.006404007282642"><ele>98.33333333333333</ele><time>2026-04-18T06:45:10.999Z</time></trkpt><trkpt lat="44.44709712936695" lon="9.006505848378612"><ele>99.66666666666666</ele><time>2026-04-18T06:45:11.999Z</time></trkpt><trkpt lat="44.447130402248604" lon="9.006616355479748"><ele>101.0</ele><time>2026-04-18T06:45:12.999Z</time></trkpt><trkpt lat="44.44716658801174" lon="9.006726612320772"><ele>96.2</ele><time>2026-04-18T06:45:13.999Z</time></trkpt><trkpt lat="44.447211289197725" lon="9.006845241981283"><ele>91.39999999999999</ele><time>2026-04-18T06:45:14.999Z</time></trkpt><trkpt lat="44.44724661277854" lon="9.00694097648704"><ele>86.6</ele><time>2026-04-18T06:45:15.999Z</time></trkpt><trkpt lat="44.44728283749483" lon="9.007044607204136"><ele>81.8</ele><time>2026-04-18T06:45:16.999Z</time></trkpt><trkpt lat="44.44732599757303" lon="9.007161227753416"><ele>77.0</ele><time>2026-04-18T06:45:17.999Z</time></trkpt><trkpt lat="44.447370928003004" lon="9.00728761933547"><ele>77.0</ele><time>2026-04-18T06:45:18.999Z</time></trkpt><trkpt lat="44.4474129295349" lon="9.007415027369177"><ele>77.0</ele><time>2026-04-18T06:45:19.999Z</time></trkpt><trkpt lat="44.44745171181137" lon="9.007530763542437"><ele>77.0</ele><time>2026-04-18T06:45:20.999Z</time></trkpt><trkpt lat="44.44749312633262" lon="9.00765660183631"><ele>77.0</ele><time>2026-04-18T06:45:21.999Z</time></trkpt><trkpt lat="44.44753969596837" lon="9.007794779692826"><ele>77.0</ele><time>2026-04-18T06:45:22.999Z</time></trkpt><trkpt lat="44.44759357451383" lon="9.007954053657434"><ele>77.2</ele><time>2026-04-18T06:45:23.999Z</time></trkpt><trkpt lat="44.44763885711718" lon="9.0080876638822"><ele>77.4</ele><time>2026-04-18T06:45:24.999Z</time></trkpt><trkpt lat="44.447683607907386" lon="9.00821310248779"><ele>77.6</ele><time>2026-04-18T06:45:25.999Z</time></trkpt><trkpt lat="44.447728673419114" lon="9.008354841058905"><ele>77.8</ele><time>2026-04-18T06:45:26.999Z</time></trkpt><trkpt lat="44.44776844744417" lon="9.008481319461746"><ele>78.0</ele><time>2026-04-18T06:45:27.999Z</time></trkpt><trkpt lat="44.4478056895583" lon="9.00859504486036"><ele>78.2</ele><time>2026-04-18T06:45:28.999Z</time></trkpt><trkpt lat="44.447837581002304" lon="9.008703297445493"><ele>78.4</ele><time>2026-04-18T06:45:29.999Z</time></trkpt><trkpt lat="44.44787024617377" lon="9.00882288542219"><ele>78.60000000000001</ele><time>2026-04-18T06:45:30.999Z</time></trkpt><trkpt lat="44.447905763381726" lon="9.008953796694296"><ele>78.8</ele><time>2026-04-18T06:45:31.999Z</time></trkpt><trkpt lat="44.44793901524754" lon="9.009077943996937"><ele>79.0</ele><time>2026-04-18T06:45:32.999Z</time></trkpt><trkpt lat="44.44796666333334" lon="9.00919093354328"><ele>79.0</ele><time>2026-04-18T06:45:33.999Z</time></trkpt><trkpt lat="44.44800156227549" lon="9.009330425292074"><ele>79.0</ele><time>2026-04-18T06:45:34.999Z</time></trkpt><trkpt lat="44.4480409410913" lon="9.009480367229438"><ele>79.0</ele><time>2026-04-18T06:45:35.999Z</time></trkpt><trkpt lat="44.44807653890426" lon="9.009629877416991"><ele>79.0</ele><time>2026-04-18T06:45:36.999Z</time></trkpt><trkpt lat="44.44810864784183" lon="9.009775819803485"><ele>79.0</ele><time>2026-04-18T06:45:37.999Z</time></trkpt><trkpt lat="44.4481480932199" lon="9.009961852258769"><ele>79.0</ele><time>2026-04-18T06:45:38.999Z</time></trkpt><trkpt lat="44.448195463144394" lon="9.010185331241338"><ele>79.0</ele><time>2026-04-18T06:45:40Z</time></trkpt><trkpt lat="44.448233874169695" lon="9.010370775377563"><ele>79.0</ele><time>2026-04-18T06:45:41Z</time></trkpt><trkpt lat="44.44826423559663" lon="9.010536852254136"><ele>79.0</ele><time>2026-04-18T06:45:42Z</time></trkpt><trkpt lat="44.4482998896134" lon="9.010701589278073"><ele>81.0</ele><time>2026-04-18T06:45:43Z</time></trkpt><trkpt lat="44.44833721283063" lon="9.010875512995549"><ele>83.0</ele><time>2026-04-18T06:45:44Z</time></trkpt><trkpt lat="44.448369552056555" lon="9.011046739580623"><ele>85.0</ele><time>2026-04-18T06:45:45Z</time></trkpt><trkpt lat="44.44840085176677" lon="9.01120506964265"><ele>87.0</ele><time>2026-04-18T06:45:46Z</time></trkpt><trkpt lat="44.44843069186915" lon="9.011365687468114"><ele>87.0</ele><time>2026-04-18T06:45:47Z</time></trkpt><trkpt lat="44.44846310121028" lon="9.011532040365656"><ele>87.0</ele><time>2026-04-18T06:45:48Z</time></trkpt><trkpt lat="44.44849570621476" lon="9.01170499227188"><ele>87.0</ele><time>2026-04-18T06:45:49Z</time></trkpt><trkpt lat="44.44852660030123" lon="9.011885235763245"><ele>87.0</ele><time>2026-04-18T06:45:50Z</time></trkpt><trkpt lat="44.44855619541295" lon="9.012069854511795"><ele>85.75</ele><time>2026-04-18T06:45:51Z</time></trkpt><trkpt lat="44.44858188805804" lon="9.012254866769403"><ele>84.5</ele><time>2026-04-18T06:45:52Z</time></trkpt><trkpt lat="44.448607878274586" lon="9.012445096987454"><ele>83.25</ele><time>2026-04-18T06:45:53Z</time></trkpt><trkpt lat="44.44862790653309" lon="9.012635858239546"><ele>82.0</ele><time>2026-04-18T06:45:54Z</time></trkpt><trkpt lat="44.44864685420791" lon="9.012821101243983"><ele>81.75</ele><time>2026-04-18T06:45:55Z</time></trkpt><trkpt lat="44.44866516529252" lon="9.012993398407726"><ele>81.5</ele><time>2026-04-18T06:45:56Z</time></trkpt><trkpt lat="44.4486813630828" lon="9.013151377155232"><ele>81.25</ele><time>2026-04-18T06:45:57Z</time></trkpt><trkpt lat="44.44869434931091" lon="9.013305171719804"><ele>81.0</ele><time>2026-04-18T06:45:58Z</time></trkpt><trkpt lat="44.44870820391049" lon="9.013471466905157"><ele>81.4</ele><time>2026-04-18T06:45:59Z</time></trkpt><trkpt lat="44.44871884395785" lon="9.013639685749501"><ele>81.8</ele><time>2026-04-18T06:46:00Z</time></trkpt><trkpt lat="44.44872575617004" lon="9.013791494636003"><ele>82.2</ele><time>2026-04-18T06:46:01Z</time></trkpt><trkpt lat="44.44873126215557" lon="9.013931353264477"><ele>82.60000000000001</ele><time>2026-04-18T06:46:02Z</time></trkpt><trkpt lat="44.44873291729574" lon="9.014060087446742"><ele>83.0</ele><time>2026-04-18T06:46:03Z</time></trkpt><trkpt lat="44.448731309963215" lon="9.014169320760308"><ele>83.16666666666667</ele><time>2026-04-18T06:46:04Z</time></trkpt><trkpt lat="44.448723555042" lon="9.014270195171761"><ele>83.33333333333334</ele><time>2026-04-18T06:46:05Z</time></trkpt><trkpt lat="44.44870681807829" lon="9.014437570285926"><ele>83.5</ele><time>2026-04-18T06:46:07Z</time></trkpt><trkpt lat="44.448688189313444" lon="9.014556925702571"><ele>83.66666666666667</ele><time>2026-04-18T06:46:09Z</time></trkpt><trkpt lat="44.44867746335485" lon="9.014647937891944"><ele>83.83333333333333</ele><time>2026-04-18T06:46:11Z</time></trkpt><trkpt lat="44.44866966094826" lon="9.014756836814431"><ele>84.0</ele><time>2026-04-18T06:46:14Z</time></trkpt><trkpt lat="44.44862283294546" lon="9.014895125538425"><ele>84.2</ele><time>2026-04-18T06:46:16Z</time></trkpt><trkpt lat="44.44862180637105" lon="9.01500735956953"><ele>84.4</ele><time>2026-04-18T06:46:17Z</time></trkpt><trkpt lat="44.44863300560342" lon="9.015124147265787"><ele>84.6</ele><time>2026-04-18T06:46:18Z</time></trkpt><trkpt lat="44.44871476921941" lon="9.015213889152815"><ele>84.8</ele><time>2026-04-18T06:46:19Z</time></trkpt><trkpt lat="44.448812619215445" lon="9.015264491986818"><ele>85.0</ele><time>2026-04-18T06:46:20Z</time></trkpt><trkpt lat="44.448806506427665" lon="9.015496145445685"><ele>84.33333333333333</ele><time>2026-04-18T06:46:21Z</time></trkpt><trkpt lat="44.44880538367512" lon="9.015721475951105"><ele>83.66666666666667</ele><time>2026-04-18T06:46:22Z</time></trkpt><trkpt lat="44.4487998272479" lon="9.016011608003305"><ele>83.0</ele><time>2026-04-18T06:46:23Z</time></trkpt><trkpt lat="44.44880314549571" lon="9.016332662904883"><ele>83.5</ele><time>2026-04-18T06:46:24Z</time></trkpt><trkpt lat="44.44881252931704" lon="9.016663220362581"><ele>84.0</ele><time>2026-04-18T06:46:25Z</time></trkpt><trkpt lat="44.44881841880896" lon="9.017010055450472"><ele>84.0</ele><time>2026-04-18T06:46:26Z</time></trkpt><trkpt lat="44.44881610821558" lon="9.017288212041752"><ele>84.0</ele><time>2026-04-18T06:46:27Z</time></trkpt><trkpt lat="44.448812609766875" lon="9.017496695064349"><ele>84.0</ele><time>2026-04-18T06:46:28Z</time></trkpt><trkpt lat="44.44881158665838" lon="9.017673045700072"><ele>84.0</ele><time>2026-04-18T06:46:29Z</time></trkpt><trkpt lat="44.44880675534326" lon="9.017816726493118"><ele>84.0</ele><time>2026-04-18T06:46:30Z</time></trkpt><trkpt lat="44.44880660995622" lon="9.017939014969988"><ele>84.0</ele><time>2026-04-18T06:46:31Z</time></trkpt><trkpt lat="44.44879592029226" lon="9.018066760499865"><ele>84.0</ele><time>2026-04-18T06:46:32Z</time></trkpt><trkpt lat="44.44879194657985" lon="9.018244458422618"><ele>84.0</ele><time>2026-04-18T06:46:33Z</time></trkpt><trkpt lat="44.448778617334234" lon="9.018519224688372"><ele>86.0</ele><time>2026-04-18T06:46:34Z</time></trkpt><trkpt lat="44.448754632116234" lon="9.018792407427116"><ele>88.0</ele><time>2026-04-18T06:46:35Z</time></trkpt><trkpt lat="44.44873144582792" lon="9.019103312491566"><ele>90.0</ele><time>2026-04-18T06:46:36Z</time></trkpt><trkpt lat="44.44869494573732" lon="9.019435755688269"><ele>93.0</ele><time>2026-04-18T06:46:37Z</time></trkpt><trkpt lat="44.44865798982324" lon="9.019718393848956"><ele>96.0</ele><time>2026-04-18T06:46:38Z</time></trkpt><trkpt lat="44.44861688426759" lon="9.019977496766371"><ele>99.0</ele><time>2026-04-18T06:46:39Z</time></trkpt><trkpt lat="44.4485791021964" lon="9.020216010163004"><ele>97.66666666666667</ele><time>2026-04-18T06:46:40Z</time></trkpt><trkpt lat="44.448539468060105" lon="9.02045277043393"><ele>96.33333333333334</ele><time>2026-04-18T06:46:41Z</time></trkpt><trkpt lat="44.448498796494974" lon="9.020719467287947"><ele>95.0</ele><time>2026-04-18T06:46:42Z</time></trkpt><trkpt lat="44.44846439722121" lon="9.020990454127146"><ele>95.0</ele><time>2026-04-18T06:46:43Z</time></trkpt><trkpt lat="44.448435232705364" lon="9.021225316326447"><ele>95.0</ele><time>2026-04-18T06:46:44Z</time></trkpt><trkpt lat="44.448414881479245" lon="9.021476322517767"><ele>95.0</ele><time>2026-04-18T06:46:45Z</time></trkpt><trkpt lat="44.44840174394229" lon="9.021753779200623"><ele>94.0</ele><time>2026-04-18T06:46:45.999Z</time></trkpt><trkpt lat="44.44839200248104" lon="9.022005995812528"><ele>93.0</ele><time>2026-04-18T06:46:46.999Z</time></trkpt><trkpt lat="44.44838626942693" lon="9.022260298243921"><ele>92.0</ele><time>2026-04-18T06:46:47.999Z</time></trkpt><trkpt lat="44.44837924643049" lon="9.022525825688387"><ele>95.33333333333334</ele><time>2026-04-18T06:46:48.999Z</time></trkpt><trkpt lat="44.448372978021084" lon="9.022768640169623"><ele>98.66666666666667</ele><time>2026-04-18T06:46:49.999Z</time></trkpt><trkpt lat="44.44837151479193" lon="9.02299762658684"><ele>102.0</ele><time>2026-04-18T06:46:50.999Z</time></trkpt><trkpt lat="44.44837382197999" lon="9.023241096529754"><ele>110.0</ele><time>2026-04-18T06:46:51.999Z</time></trkpt><trkpt lat="44.44838645436118" lon="9.023528204640083"><ele>118.0</ele><time>2026-04-18T06:46:52.999Z</time></trkpt><trkpt lat="44.44840494822599" lon="9.02384583821665"><ele>126.0</ele><time>2026-04-18T06:46:53.999Z</time></trkpt><trkpt lat="44.44842794644015" lon="9.024144963804563"><ele>135.33333333333334</ele><time>2026-04-18T06:46:55.015Z</time></trkpt><trkpt lat="44.448458981106576" lon="9.024442385647296"><ele>144.66666666666669</ele><time>2026-04-18T06:46:56.018Z</time></trkpt><trkpt lat="44.44850482737336" lon="9.024758275277875"><ele>154.0</ele><time>2026-04-18T06:46:57.018Z</time></trkpt><trkpt lat="44.44856903638864" lon="9.02509389157146"><ele>166.5</ele><time>2026-04-18T06:46:58.017Z</time></trkpt><trkpt lat="44.44866761493122" lon="9.025417819859982"><ele>179.0</ele><time>2026-04-18T06:46:59.019Z</time></trkpt><trkpt lat="44.44876357712465" lon="9.025716538787224"><ele>141.0</ele><time>2026-04-18T06:47:00.017Z</time></trkpt><trkpt lat="44.449458788190455" lon="9.027261016898814"><ele>146.0</ele><time>2026-04-18T06:47:08.999Z</time></trkpt><trkpt lat="44.44955951957611" lon="9.027502300045306"><ele>151.0</ele><time>2026-04-18T06:47:09.999Z</time></trkpt><trkpt lat="44.449890123422996" lon="9.027593732519675"><ele>139.66666666666669</ele><time>2026-04-18T06:47:10.999Z</time></trkpt><trkpt lat="44.450020423802066" lon="9.027719687133118"><ele>128.33333333333334</ele><time>2026-04-18T06:47:11.999Z</time></trkpt><trkpt lat="44.45011635096046" lon="9.027790261891933"><ele>117.0</ele><time>2026-04-18T06:47:12.999Z</time></trkpt><trkpt lat="44.45029408356897" lon="9.027916244630834"><ele>117.0</ele><time>2026-04-18T06:47:13.999Z</time></trkpt><trkpt lat="44.45045708893814" lon="9.028055825241617"><ele>117.0</ele><time>2026-04-18T06:47:14.999Z</time></trkpt><trkpt lat="44.45057812451531" lon="9.028173624167893"><ele>117.0</ele><time>2026-04-18T06:47:15.999Z</time></trkpt><trkpt lat="44.45068614134806" lon="9.028291032057107"><ele>116.75</ele><time>2026-04-18T06:47:16.999Z</time></trkpt><trkpt lat="44.45077421472766" lon="9.028425301601933"><ele>116.5</ele><time>2026-04-18T06:47:17.999Z</time></trkpt><trkpt lat="44.450838320943795" lon="9.028553352410208"><ele>116.25</ele><time>2026-04-18T06:47:18.999Z</time></trkpt><trkpt lat="44.45086878973328" lon="9.028694436502338"><ele>116.0</ele><time>2026-04-18T06:47:19.999Z</time></trkpt><trkpt lat="44.45085428080859" lon="9.028842027405167"><ele>116.0</ele><time>2026-04-18T06:47:20.999Z</time></trkpt><trkpt lat="44.45079770080127" lon="9.028991212514795"><ele>116.0</ele><time>2026-04-18T06:47:21.999Z</time></trkpt><trkpt lat="44.45071011594967" lon="9.029156116155002"><ele>116.0</ele><time>2026-04-18T06:47:22.999Z</time></trkpt><trkpt lat="44.45059948333107" lon="9.029321656528035"><ele>116.0</ele><time>2026-04-18T06:47:23.999Z</time></trkpt><trkpt lat="44.45047431350602" lon="9.029492957464361"><ele>122.5</ele><time>2026-04-18T06:47:24.999Z</time></trkpt><trkpt lat="44.45037292495887" lon="9.029661840654725"><ele>129.0</ele><time>2026-04-18T06:47:25.999Z</time></trkpt><trkpt lat="44.450283112871524" lon="9.02979711443874"><ele>135.5</ele><time>2026-04-18T06:47:26.999Z</time></trkpt><trkpt lat="44.450229444079845" lon="9.02996912773284"><ele>142.0</ele><time>2026-04-18T06:47:27.999Z</time></trkpt><trkpt lat="44.45017015691559" lon="9.030174157965984"><ele>142.0</ele><time>2026-04-18T06:47:28.999Z</time></trkpt><trkpt lat="44.45014693361908" lon="9.030419463780065"><ele>142.0</ele><time>2026-04-18T06:47:29.999Z</time></trkpt><trkpt lat="44.4501562393011" lon="9.030630144461828"><ele>142.0</ele><time>2026-04-18T06:47:30.999Z</time></trkpt><trkpt lat="44.450187321710246" lon="9.030809531466504"><ele>143.33333333333334</ele><time>2026-04-18T06:47:31.999Z</time></trkpt><trkpt lat="44.450275281981725" lon="9.030986411386412"><ele>144.66666666666666</ele><time>2026-04-18T06:47:32.999Z</time></trkpt><trkpt lat="44.4503991101343" lon="9.03115220235967"><ele>146.0</ele><time>2026-04-18T06:47:33.999Z</time></trkpt><trkpt lat="44.4505440380218" lon="9.03130516382811"><ele>139.0</ele><time>2026-04-18T06:47:34.999Z</time></trkpt><trkpt lat="44.450703801102314" lon="9.031434535853634"><ele>132.0</ele><time>2026-04-18T06:47:35.999Z</time></trkpt><trkpt lat="44.45085790337655" lon="9.031527124271308"><ele>125.0</ele><time>2026-04-18T06:47:36.999Z</time></trkpt><trkpt lat="44.45100250228876" lon="9.031615088398981"><ele>124.5</ele><time>2026-04-18T06:47:37.999Z</time></trkpt><trkpt lat="44.451095976357685" lon="9.03175025073612"><ele>124.0</ele><time>2026-04-18T06:47:38.999Z</time></trkpt><trkpt lat="44.4511945813302" lon="9.03190610467153"><ele>123.5</ele><time>2026-04-18T06:47:39.999Z</time></trkpt><trkpt lat="44.45125925534528" lon="9.032071571356289"><ele>123.0</ele><time>2026-04-18T06:47:40.999Z</time></trkpt><trkpt lat="44.451335927851495" lon="9.03219071274409"><ele>123.0</ele><time>2026-04-18T06:47:41.999Z</time></trkpt><trkpt lat="44.45138200630962" lon="9.032343968126142"><ele>123.0</ele><time>2026-04-18T06:47:42.999Z</time></trkpt><trkpt lat="44.45138408618815" lon="9.032520084523338"><ele>123.0</ele><time>2026-04-18T06:47:43.999Z</time></trkpt><trkpt lat="44.45132676165589" lon="9.032687706479006"><ele>123.0</ele><time>2026-04-18T06:47:44.999Z</time></trkpt><trkpt lat="44.451236363397186" lon="9.032797961650518"><ele>124.0</ele><time>2026-04-18T06:47:46Z</time></trkpt><trkpt lat="44.451122837399744" lon="9.032846502901274"><ele>125.0</ele><time>2026-04-18T06:47:47Z</time></trkpt><trkpt lat="44.45097426101241" lon="9.032873098239772"><ele>126.0</ele><time>2026-04-18T06:47:48Z</time></trkpt><trkpt lat="44.45081026093572" lon="9.032911203580134"><ele>127.0</ele><time>2026-04-18T06:47:49Z</time></trkpt><trkpt lat="44.450658640808946" lon="9.03297509434209"><ele>127.0</ele><time>2026-04-18T06:47:50Z</time></trkpt><trkpt lat="44.45049283937292" lon="9.033065158781165"><ele>127.0</ele><time>2026-04-18T06:47:51Z</time></trkpt><trkpt lat="44.450338583353314" lon="9.033197825655769"><ele>127.0</ele><time>2026-04-18T06:47:52Z</time></trkpt><trkpt lat="44.45019717977977" lon="9.033306610112074"><ele>130.0</ele><time>2026-04-18T06:47:53Z</time></trkpt><trkpt lat="44.45004022459971" lon="9.033418306508134"><ele>133.0</ele><time>2026-04-18T06:47:54Z</time></trkpt><trkpt lat="44.44987753024399" lon="9.033556989749087"><ele>136.0</ele><time>2026-04-18T06:47:55Z</time></trkpt><trkpt lat="44.44973974184023" lon="9.033686832739917"><ele>143.0</ele><time>2026-04-18T06:47:56Z</time></trkpt><trkpt lat="44.449622355937336" lon="9.033800985373466"><ele>150.0</ele><time>2026-04-18T06:47:57Z</time></trkpt><trkpt lat="44.44951583298519" lon="9.033911617251968"><ele>157.0</ele><time>2026-04-18T06:47:58Z</time></trkpt><trkpt lat="44.44941864246909" lon="9.034039340339186"><ele>164.0</ele><time>2026-04-18T06:47:59Z</time></trkpt><trkpt lat="44.44934485719575" lon="9.034206285040021"><ele>164.0</ele><time>2026-04-18T06:48:00Z</time></trkpt><trkpt lat="44.449282603589936" lon="9.034406549893882"><ele>164.0</ele><time>2026-04-18T06:48:01Z</time></trkpt><trkpt lat="44.44922507185131" lon="9.034600822235914"><ele>164.0</ele><time>2026-04-18T06:48:02Z</time></trkpt><trkpt lat="44.449175488301094" lon="9.034754364828844"><ele>164.0</ele><time>2026-04-18T06:48:03Z</time></trkpt><trkpt lat="44.44913276667166" lon="9.034898736607085"><ele>158.75</ele><time>2026-04-18T06:48:04Z</time></trkpt><trkpt lat="44.44910725421415" lon="9.03504732098162"><ele>153.5</ele><time>2026-04-18T06:48:05Z</time></trkpt><trkpt lat="44.44908090967743" lon="9.035197713145713"><ele>148.25</ele><time>2026-04-18T06:48:06Z</time></trkpt><trkpt lat="44.449045815801355" lon="9.035359339735775"><ele>143.0</ele><time>2026-04-18T06:48:07Z</time></trkpt><trkpt lat="44.44901218093926" lon="9.035545015948044"><ele>143.0</ele><time>2026-04-18T06:48:08Z</time></trkpt><trkpt lat="44.448980359643656" lon="9.035733738536562"><ele>143.0</ele><time>2026-04-18T06:48:09Z</time></trkpt><trkpt lat="44.448945257225056" lon="9.035897900187292"><ele>143.0</ele><time>2026-04-18T06:48:10Z</time></trkpt><trkpt lat="44.44891790668355" lon="9.036042401926398"><ele>143.0</ele><time>2026-04-18T06:48:11Z</time></trkpt><trkpt lat="44.448887291879764" lon="9.03615832636984"><ele>143.20000000000002</ele><time>2026-04-18T06:48:12Z</time></trkpt><trkpt lat="44.44887721844374" lon="9.036266904752358"><ele>143.4</ele><time>2026-04-18T06:48:13Z</time></trkpt><trkpt lat="44.44890761319595" lon="9.03636929007187"><ele>143.60000000000002</ele><time>2026-04-18T06:48:14Z</time></trkpt><trkpt lat="44.448958580129386" lon="9.036508540981886"><ele>143.8</ele><time>2026-04-18T06:48:15Z</time></trkpt><trkpt lat="44.44902868083782" lon="9.036623561932197"><ele>144.0</ele><time>2026-04-18T06:48:16Z</time></trkpt><trkpt lat="44.44908393504798" lon="9.036718691129856"><ele>144.0</ele><time>2026-04-18T06:48:17Z</time></trkpt><trkpt lat="44.44912537029346" lon="9.036803755346607"><ele>144.0</ele><time>2026-04-18T06:48:18Z</time></trkpt><trkpt lat="44.44916132853317" lon="9.036895532334565"><ele>144.0</ele><time>2026-04-18T06:48:19Z</time></trkpt><trkpt lat="44.44918089763647" lon="9.037013694353888"><ele>144.0</ele><time>2026-04-18T06:48:20Z</time></trkpt><trkpt lat="44.44917241898309" lon="9.03714313037481"><ele>144.0</ele><time>2026-04-18T06:48:21Z</time></trkpt><trkpt lat="44.44912365594114" lon="9.037255555602808"><ele>144.0</ele><time>2026-04-18T06:48:22Z</time></trkpt><trkpt lat="44.44907415679942" lon="9.037342603844285"><ele>144.0</ele><time>2026-04-18T06:48:23Z</time></trkpt><trkpt lat="44.44901241725845" lon="9.037414891913677"><ele>144.0</ele><time>2026-04-18T06:48:24Z</time></trkpt><trkpt lat="44.44891534634701" lon="9.037448709094766"><ele>144.0</ele><time>2026-04-18T06:48:25Z</time></trkpt><trkpt lat="44.44879211976739" lon="9.03744134512841"><ele>144.0</ele><time>2026-04-18T06:48:26Z</time></trkpt><trkpt lat="44.44864901524912" lon="9.037424974275723"><ele>144.0</ele><time>2026-04-18T06:48:27Z</time></trkpt><trkpt lat="44.44849997047017" lon="9.037414414389316"><ele>146.5</ele><time>2026-04-18T06:48:28Z</time></trkpt><trkpt lat="44.448360998765665" lon="9.037423816032842"><ele>149.0</ele><time>2026-04-18T06:48:29Z</time></trkpt><trkpt lat="44.44823534647272" lon="9.037461189513666"><ele>151.5</ele><time>2026-04-18T06:48:30Z</time></trkpt><trkpt lat="44.44811544215993" lon="9.037517298965382"><ele>154.0</ele><time>2026-04-18T06:48:31Z</time></trkpt><trkpt lat="44.447993616754495" lon="9.037580724019273"><ele>160.0</ele><time>2026-04-18T06:48:32Z</time></trkpt><trkpt lat="44.44787406096362" lon="9.03765102726256"><ele>166.0</ele><time>2026-04-18T06:48:33Z</time></trkpt><trkpt lat="44.44776476912275" lon="9.037714816906657"><ele>172.0</ele><time>2026-04-18T06:48:34Z</time></trkpt><trkpt lat="44.44764911696637" lon="9.037773598886648"><ele>178.0</ele><time>2026-04-18T06:48:35Z</time></trkpt><trkpt lat="44.44752407200671" lon="9.03782242096768"><ele>178.0</ele><time>2026-04-18T06:48:36Z</time></trkpt><trkpt lat="44.447388686747736" lon="9.037827070824186"><ele>178.0</ele><time>2026-04-18T06:48:37Z</time></trkpt><trkpt lat="44.44725041108733" lon="9.037797037538237"><ele>178.0</ele><time>2026-04-18T06:48:38Z</time></trkpt><trkpt lat="44.447114904655955" lon="9.037766994422167"><ele>178.0</ele><time>2026-04-18T06:48:39Z</time></trkpt><trkpt lat="44.44698798584361" lon="9.03776935285086"><ele>182.5</ele><time>2026-04-18T06:48:40Z</time></trkpt><trkpt lat="44.446848946918806" lon="9.0378149320916"><ele>187.0</ele><time>2026-04-18T06:48:41Z</time></trkpt><trkpt lat="44.446727195384305" lon="9.037836633513667"><ele>191.5</ele><time>2026-04-18T06:48:42Z</time></trkpt><trkpt lat="44.44660308989802" lon="9.037879537405878"><ele>196.0</ele><time>2026-04-18T06:48:43Z</time></trkpt><trkpt lat="44.446487413091475" lon="9.03791663322724"><ele>196.0</ele><time>2026-04-18T06:48:44Z</time></trkpt><trkpt lat="44.44637398200398" lon="9.037969861967342"><ele>196.0</ele><time>2026-04-18T06:48:45Z</time></trkpt><trkpt lat="44.4462590496354" lon="9.038066623132963"><ele>196.0</ele><time>2026-04-18T06:48:46Z</time></trkpt><trkpt lat="44.44613940942516" lon="9.03820600226252"><ele>196.0</ele><time>2026-04-18T06:48:47Z</time></trkpt><trkpt lat="44.44602815921384" lon="9.038347362400373"><ele>188.33333333333331</ele><time>2026-04-18T06:48:48Z</time></trkpt><trkpt lat="44.44592120261981" lon="9.03847352807477"><ele>180.66666666666666</ele><time>2026-04-18T06:48:49Z</time></trkpt><trkpt lat="44.445803208766876" lon="9.038589084870567"><ele>173.0</ele><time>2026-04-18T06:48:50Z</time></trkpt><trkpt lat="44.445666652835435" lon="9.038748555059055"><ele>173.0</ele><time>2026-04-18T06:48:50.999Z</time></trkpt><trkpt lat="44.44549911025081" lon="9.038943395873796"><ele>173.0</ele><time>2026-04-18T06:48:51.999Z</time></trkpt><trkpt lat="44.44531956690208" lon="9.039150852455121"><ele>174.0</ele><time>2026-04-18T06:48:52.999Z</time></trkpt><trkpt lat="44.44513527416431" lon="9.039367537299395"><ele>175.0</ele><time>2026-04-18T06:48:53.999Z</time></trkpt><trkpt lat="44.44497928421124" lon="9.03956348906466"><ele>175.0</ele><time>2026-04-18T06:48:54.999Z</time></trkpt><trkpt lat="44.444851261403414" lon="9.039749776377448"><ele>175.0</ele><time>2026-04-18T06:48:55.999Z</time></trkpt><trkpt lat="44.44471800160127" lon="9.039928905529798"><ele>175.0</ele><time>2026-04-18T06:48:56.999Z</time></trkpt><trkpt lat="44.44459554912094" lon="9.040096585782857"><ele>176.0</ele><time>2026-04-18T06:48:57.999Z</time></trkpt><trkpt lat="44.44447777579709" lon="9.040251121817278"><ele>177.0</ele><time>2026-04-18T06:48:58.999Z</time></trkpt><trkpt lat="44.444353103203895" lon="9.040410904528414"><ele>178.0</ele><time>2026-04-18T06:48:59.999Z</time></trkpt><trkpt lat="44.44424607539681" lon="9.04057063704644"><ele>178.0</ele><time>2026-04-18T06:49:00.999Z</time></trkpt><trkpt lat="44.44415327248411" lon="9.040728193475395"><ele>178.0</ele><time>2026-04-18T06:49:01.999Z</time></trkpt><trkpt lat="44.44404299630653" lon="9.040904603904883"><ele>178.0</ele><time>2026-04-18T06:49:02.999Z</time></trkpt><trkpt lat="44.4439398763803" lon="9.041067743750679"><ele>183.66666666666669</ele><time>2026-04-18T06:49:03.999Z</time></trkpt><trkpt lat="44.44383912137535" lon="9.041231177899597"><ele>189.33333333333334</ele><time>2026-04-18T06:49:04.999Z</time></trkpt><trkpt lat="44.44373210455448" lon="9.041416540007662"><ele>195.0</ele><time>2026-04-18T06:49:05.999Z</time></trkpt><trkpt lat="44.443599840129096" lon="9.041581173145037"><ele>182.66666666666666</ele><time>2026-04-18T06:49:06.999Z</time></trkpt><trkpt lat="44.44343393909436" lon="9.041727830298639"><ele>170.33333333333331</ele><time>2026-04-18T06:49:07.999Z</time></trkpt><trkpt lat="44.443297895295835" lon="9.041944392479845"><ele>158.0</ele><time>2026-04-18T06:49:08.999Z</time></trkpt><trkpt lat="44.44309740395266" lon="9.04177099256488"><ele>163.0</ele><time>2026-04-18T06:49:09.999Z</time></trkpt><trkpt lat="44.442870856977734" lon="9.041806216084272"><ele>168.0</ele><time>2026-04-18T06:49:10.999Z</time></trkpt><trkpt lat="44.44267553274827" lon="9.041845068289446"><ele>173.0</ele><time>2026-04-18T06:49:11.999Z</time></trkpt><trkpt lat="44.442451760804964" lon="9.041887303031071"><ele>173.0</ele><time>2026-04-18T06:49:12.999Z</time></trkpt><trkpt lat="44.44268689868553" lon="9.04184295209695"><ele>173.0</ele><time>2026-04-18T06:49:13.999Z</time></trkpt><trkpt lat="44.44253911907902" lon="9.041870455615395"><ele>173.0</ele><time>2026-04-18T06:49:14.999Z</time></trkpt><trkpt lat="44.4424069280703" lon="9.041896449247645"><ele>173.0</ele><time>2026-04-18T06:49:15.999Z</time></trkpt><trkpt lat="44.44228160781049" lon="9.041947316595987"><ele>173.0</ele><time>2026-04-18T06:49:16.999Z</time></trkpt><trkpt lat="44.44213556113864" lon="9.041960741243631"><ele>173.0</ele><time>2026-04-18T06:49:17.999Z</time></trkpt><trkpt lat="44.44201785375219" lon="9.041984935589904"><ele>173.0</ele><time>2026-04-18T06:49:18.999Z</time></trkpt><trkpt lat="44.44190367411048" lon="9.042033461965579"><ele>171.75</ele><time>2026-04-18T06:49:19.999Z</time></trkpt><trkpt lat="44.44180978278614" lon="9.042109285542507"><ele>170.5</ele><time>2026-04-18T06:49:20.999Z</time></trkpt><trkpt lat="44.441732853742124" lon="9.04222860495339"><ele>169.25</ele><time>2026-04-18T06:49:21.999Z</time></trkpt><trkpt lat="44.441676974317915" lon="9.042379851338303"><ele>168.0</ele><time>2026-04-18T06:49:22.999Z</time></trkpt><trkpt lat="44.44165992719745" lon="9.042553611663745"><ele>168.0</ele><time>2026-04-18T06:49:23.999Z</time></trkpt><trkpt lat="44.44163261790171" lon="9.04274086822075"><ele>168.0</ele><time>2026-04-18T06:49:24.999Z</time></trkpt><trkpt lat="44.44159845714313" lon="9.04293476667733"><ele>168.0</ele><time>2026-04-18T06:49:25.999Z</time></trkpt><trkpt lat="44.44155520402568" lon="9.043141322684182"><ele>168.0</ele><time>2026-04-18T06:49:26.999Z</time></trkpt><trkpt lat="44.44152389615034" lon="9.043324434320898"><ele>166.75</ele><time>2026-04-18T06:49:27.999Z</time></trkpt><trkpt lat="44.441492439253274" lon="9.043503622839395"><ele>165.5</ele><time>2026-04-18T06:49:28.999Z</time></trkpt><trkpt lat="44.4414558188277" lon="9.043685446066318"><ele>164.25</ele><time>2026-04-18T06:49:29.999Z</time></trkpt><trkpt lat="44.4414044491323" lon="9.043875067797378"><ele>163.0</ele><time>2026-04-18T06:49:30.999Z</time></trkpt><trkpt lat="44.441353118160364" lon="9.044056448969679"><ele>170.0</ele><time>2026-04-18T06:49:31.999Z</time></trkpt><trkpt lat="44.44129631850614" lon="9.044215507301535"><ele>177.0</ele><time>2026-04-18T06:49:32.999Z</time></trkpt><trkpt lat="44.44121542107935" lon="9.044361482036473"><ele>184.0</ele><time>2026-04-18T06:49:33.999Z</time></trkpt><trkpt lat="44.441151045418316" lon="9.044531163240055"><ele>191.0</ele><time>2026-04-18T06:49:34.999Z</time></trkpt><trkpt lat="44.44109244854665" lon="9.044733685293826"><ele>191.0</ele><time>2026-04-18T06:49:35.999Z</time></trkpt><trkpt lat="44.441047616392" lon="9.044930485854074"><ele>191.0</ele><time>2026-04-18T06:49:36.999Z</time></trkpt><trkpt lat="44.4410278889692" lon="9.045136214292164"><ele>191.0</ele><time>2026-04-18T06:49:37.999Z</time></trkpt><trkpt lat="44.44101207632642" lon="9.0453638001293"><ele>189.33333333333331</ele><time>2026-04-18T06:49:38.999Z</time></trkpt><trkpt lat="44.44097902695396" lon="9.045610302329134"><ele>187.66666666666666</ele><time>2026-04-18T06:49:39.999Z</time></trkpt><trkpt lat="44.440937109011024" lon="9.045839367872661"><ele>186.0</ele><time>2026-04-18T06:49:40.999Z</time></trkpt><trkpt lat="44.44090838468581" lon="9.04602307112548"><ele>184.20000000000002</ele><time>2026-04-18T06:49:41.999Z</time></trkpt><trkpt lat="44.44089326829685" lon="9.0461867385156"><ele>182.4</ele><time>2026-04-18T06:49:42.999Z</time></trkpt><trkpt lat="44.440864155461306" lon="9.04633181909373"><ele>180.6</ele><time>2026-04-18T06:49:43.999Z</time></trkpt><trkpt lat="44.44084815573842" lon="9.046481137968009"><ele>178.8</ele><time>2026-04-18T06:49:44.999Z</time></trkpt><trkpt lat="44.44082487124737" lon="9.046636632307152"><ele>177.0</ele><time>2026-04-18T06:49:45.999Z</time></trkpt><trkpt lat="44.44079938141977" lon="9.046806013291759"><ele>174.25</ele><time>2026-04-18T06:49:46.999Z</time></trkpt><trkpt lat="44.44078254704288" lon="9.046972469441924"><ele>171.5</ele><time>2026-04-18T06:49:47.999Z</time></trkpt><trkpt lat="44.44075844715482" lon="9.047139960375013"><ele>168.75</ele><time>2026-04-18T06:49:48.999Z</time></trkpt><trkpt lat="44.44073564569831" lon="9.047284102871528"><ele>166.0</ele><time>2026-04-18T06:49:49.999Z</time></trkpt><trkpt lat="44.440719653424495" lon="9.047436129627519"><ele>164.60000000000002</ele><time>2026-04-18T06:49:50.999Z</time></trkpt><trkpt lat="44.440703810206955" lon="9.047608465227512"><ele>163.20000000000002</ele><time>2026-04-18T06:49:52Z</time></trkpt><trkpt lat="44.4406774046615" lon="9.047763218901332"><ele>161.8</ele><time>2026-04-18T06:49:53Z</time></trkpt><trkpt lat="44.44063239288424" lon="9.04790041894409"><ele>160.4</ele><time>2026-04-18T06:49:54Z</time></trkpt><trkpt lat="44.440593322433095" lon="9.048032103593878"><ele>159.0</ele><time>2026-04-18T06:49:55Z</time></trkpt><trkpt lat="44.440542845009595" lon="9.048173095800138"><ele>159.25</ele><time>2026-04-18T06:49:56Z</time></trkpt><trkpt lat="44.44048970268103" lon="9.048322670842204"><ele>159.5</ele><time>2026-04-18T06:49:57Z</time></trkpt><trkpt lat="44.44043955912865" lon="9.04849002899974"><ele>159.75</ele><time>2026-04-18T06:49:58Z</time></trkpt><trkpt lat="44.44041657224276" lon="9.048678488645562"><ele>160.0</ele><time>2026-04-18T06:49:59Z</time></trkpt><trkpt lat="44.44042447771977" lon="9.04887837690768"><ele>161.5</ele><time>2026-04-18T06:50:00Z</time></trkpt><trkpt lat="44.44045613405901" lon="9.049056618712202"><ele>163.0</ele><time>2026-04-18T06:50:01Z</time></trkpt><trkpt lat="44.44050864255758" lon="9.049213003764262"><ele>164.5</ele><time>2026-04-18T06:50:02Z</time></trkpt><trkpt lat="44.44058161065142" lon="9.049368779237842"><ele>166.0</ele><time>2026-04-18T06:50:03Z</time></trkpt><trkpt lat="44.440643318186055" lon="9.04953487251723"><ele>166.0</ele><time>2026-04-18T06:50:04Z</time></trkpt><trkpt lat="44.44070363119221" lon="9.049705993006084"><ele>166.0</ele><time>2026-04-18T06:50:05Z</time></trkpt><trkpt lat="44.44076022754246" lon="9.049852956574387"><ele>166.0</ele><time>2026-04-18T06:50:06Z</time></trkpt><trkpt lat="44.44080479343108" lon="9.050007758780891"><ele>166.0</ele><time>2026-04-18T06:50:07Z</time></trkpt><trkpt lat="44.4408690846366" lon="9.050166541701325"><ele>166.8</ele><time>2026-04-18T06:50:08Z</time></trkpt><trkpt lat="44.44092624647423" lon="9.050315335878162"><ele>167.60000000000002</ele><time>2026-04-18T06:50:09Z</time></trkpt><trkpt lat="44.440983428290934" lon="9.05043488411381"><ele>168.4</ele><time>2026-04-18T06:50:10Z</time></trkpt><trkpt lat="44.44106016714121" lon="9.050548980697425"><ele>169.2</ele><time>2026-04-18T06:50:11Z</time></trkpt><trkpt lat="44.441142003596276" lon="9.050659322765899"><ele>170.0</ele><time>2026-04-18T06:50:12Z</time></trkpt><trkpt lat="44.441204712635596" lon="9.050768625328553"><ele>171.25</ele><time>2026-04-18T06:50:13Z</time></trkpt><trkpt lat="44.44127268404174" lon="9.050877124093603"><ele>172.5</ele><time>2026-04-18T06:50:14Z</time></trkpt><trkpt lat="44.44134898355403" lon="9.050996159301127"><ele>173.75</ele><time>2026-04-18T06:50:15Z</time></trkpt><trkpt lat="44.44143237245873" lon="9.051120119493136"><ele>175.0</ele><time>2026-04-18T06:50:16Z</time></trkpt><trkpt lat="44.441504786626375" lon="9.05124559266711"><ele>175.0</ele><time>2026-04-18T06:50:17Z</time></trkpt><trkpt lat="44.441567158460714" lon="9.051336932720568"><ele>175.0</ele><time>2026-04-18T06:50:18Z</time></trkpt><trkpt lat="44.44160944123443" lon="9.05141488623831"><ele>175.0</ele><time>2026-04-18T06:50:19Z</time></trkpt><trkpt lat="44.441647622249675" lon="9.051493875758716"><ele>175.0</ele><time>2026-04-18T06:50:20Z</time></trkpt><trkpt lat="44.441688295443804" lon="9.051592612995602"><ele>175.0</ele><time>2026-04-18T06:50:21Z</time></trkpt><trkpt lat="44.441711767896855" lon="9.051721850439824"><ele>175.0</ele><time>2026-04-18T06:50:22Z</time></trkpt><trkpt lat="44.44169950865007" lon="9.051873669864161"><ele>175.6</ele><time>2026-04-18T06:50:23Z</time></trkpt><trkpt lat="44.44168405792874" lon="9.052022719983759"><ele>176.2</ele><time>2026-04-18T06:50:24Z</time></trkpt><trkpt lat="44.441662963347696" lon="9.052165716434333"><ele>176.8</ele><time>2026-04-18T06:50:25Z</time></trkpt><trkpt lat="44.441650161258984" lon="9.052297370191633"><ele>177.4</ele><time>2026-04-18T06:50:26Z</time></trkpt><trkpt lat="44.441654549896455" lon="9.052425119861951"><ele>178.0</ele><time>2026-04-18T06:50:27Z</time></trkpt><trkpt lat="44.44166971122732" lon="9.05253817373901"><ele>182.75</ele><time>2026-04-18T06:50:28Z</time></trkpt><trkpt lat="44.441703558289355" lon="9.052667248461805"><ele>187.5</ele><time>2026-04-18T06:50:29Z</time></trkpt><trkpt lat="44.44176127753426" lon="9.052790791259277"><ele>192.25</ele><time>2026-04-18T06:50:30Z</time></trkpt><trkpt lat="44.44184951887475" lon="9.052898866006197"><ele>197.0</ele><time>2026-04-18T06:50:31Z</time></trkpt><trkpt lat="44.44196866089817" lon="9.053001554454019"><ele>197.0</ele><time>2026-04-18T06:50:32Z</time></trkpt><trkpt lat="44.44210883634676" lon="9.05313325584826"><ele>197.0</ele><time>2026-04-18T06:50:33Z</time></trkpt><trkpt lat="44.442216107920025" lon="9.053251076017505"><ele>197.0</ele><time>2026-04-18T06:50:34Z</time></trkpt><trkpt lat="44.44231078713933" lon="9.053358660437478"><ele>197.0</ele><time>2026-04-18T06:50:35Z</time></trkpt><trkpt lat="44.4424373219273" lon="9.053479394339224"><ele>192.66666666666669</ele><time>2026-04-18T06:50:36Z</time></trkpt><trkpt lat="44.44258790483615" lon="9.05359100512599"><ele>188.33333333333334</ele><time>2026-04-18T06:50:37Z</time></trkpt><trkpt lat="44.44274648416164" lon="9.053691157057953"><ele>184.0</ele><time>2026-04-18T06:50:38Z</time></trkpt><trkpt lat="44.44287476220239" lon="9.053754402189414"><ele>183.79999999999998</ele><time>2026-04-18T06:50:39Z</time></trkpt><trkpt lat="44.44298670846201" lon="9.05380349442519"><ele>183.6</ele><time>2026-04-18T06:50:40Z</time></trkpt><trkpt lat="44.44308660425977" lon="9.053846374127398"><ele>183.4</ele><time>2026-04-18T06:50:41Z</time></trkpt><trkpt lat="44.443175707376824" lon="9.053919633788226"><ele>183.2</ele><time>2026-04-18T06:50:42Z</time></trkpt><trkpt lat="44.44323983873722" lon="9.054040548221659"><ele>183.0</ele><time>2026-04-18T06:50:43Z</time></trkpt><trkpt lat="44.44327302021983" lon="9.05419689398811"><ele>184.75</ele><time>2026-04-18T06:50:44Z</time></trkpt><trkpt lat="44.4432659545436" lon="9.054356345303805"><ele>186.5</ele><time>2026-04-18T06:50:45Z</time></trkpt><trkpt lat="44.443202078428776" lon="9.054520234951058"><ele>188.25</ele><time>2026-04-18T06:50:46Z</time></trkpt><trkpt lat="44.443138871523544" lon="9.054690678273841"><ele>190.0</ele><time>2026-04-18T06:50:47Z</time></trkpt><trkpt lat="44.44307211569799" lon="9.054871217470764"><ele>191.25</ele><time>2026-04-18T06:50:48Z</time></trkpt><trkpt lat="44.44302936137322" lon="9.055057824902288"><ele>192.5</ele><time>2026-04-18T06:50:49Z</time></trkpt><trkpt lat="44.44296314301672" lon="9.055244821027017"><ele>193.75</ele><time>2026-04-18T06:50:50Z</time></trkpt><trkpt lat="44.44290846144165" lon="9.055445776556203"><ele>195.0</ele><time>2026-04-18T06:50:51Z</time></trkpt><trkpt lat="44.44284571383363" lon="9.055625789314195"><ele>212.33333333333331</ele><time>2026-04-18T06:50:52Z</time></trkpt><trkpt lat="44.44278874224153" lon="9.055797815916794"><ele>229.66666666666666</ele><time>2026-04-18T06:50:53Z</time></trkpt><trkpt lat="44.442742814742175" lon="9.05599590077636"><ele>247.0</ele><time>2026-04-18T06:50:54Z</time></trkpt><trkpt lat="44.44272069868337" lon="9.056237569871877"><ele>247.0</ele><time>2026-04-18T06:50:55Z</time></trkpt><trkpt lat="44.44270474898303" lon="9.056476507261364"><ele>247.0</ele><time>2026-04-18T06:50:56Z</time></trkpt><trkpt lat="44.442702620045736" lon="9.05667083352106"><ele>247.0</ele><time>2026-04-18T06:50:57Z</time></trkpt><trkpt lat="44.44268282260582" lon="9.056864587532665"><ele>247.0</ele><time>2026-04-18T06:50:58Z</time></trkpt><trkpt lat="44.442687483465505" lon="9.057069493714707"><ele>247.0</ele><time>2026-04-18T06:50:59Z</time></trkpt><trkpt lat="44.44270176295193" lon="9.057271466543963"><ele>247.0</ele><time>2026-04-18T06:51:00Z</time></trkpt><trkpt lat="44.44270785203235" lon="9.057442263376213"><ele>247.0</ele><time>2026-04-18T06:51:01Z</time></trkpt><trkpt lat="44.44270466994364" lon="9.057603623943955"><ele>243.5</ele><time>2026-04-18T06:51:01.999Z</time></trkpt><trkpt lat="44.44267621179593" lon="9.05776442882357"><ele>240.0</ele><time>2026-04-18T06:51:02.999Z</time></trkpt><trkpt lat="44.44261044770012" lon="9.057943906691033"><ele>236.5</ele><time>2026-04-18T06:51:03.999Z</time></trkpt><trkpt lat="44.44253629513175" lon="9.058115574585052"><ele>233.0</ele><time>2026-04-18T06:51:04.999Z</time></trkpt><trkpt lat="44.442472465320385" lon="9.05826410707288"><ele>229.5</ele><time>2026-04-18T06:51:05.999Z</time></trkpt><trkpt lat="44.44240822712382" lon="9.058419300335858"><ele>226.0</ele><time>2026-04-18T06:51:06.999Z</time></trkpt><trkpt lat="44.44234551911455" lon="9.058592729036972"><ele>222.5</ele><time>2026-04-18T06:51:07.999Z</time></trkpt><trkpt lat="44.44229024730308" lon="9.05877940143343"><ele>219.0</ele><time>2026-04-18T06:51:08.999Z</time></trkpt><trkpt lat="44.44224112053681" lon="9.058976367740371"><ele>218.33333333333331</ele><time>2026-04-18T06:51:09.999Z</time></trkpt><trkpt lat="44.442210464949525" lon="9.059196000464324"><ele>217.66666666666666</ele><time>2026-04-18T06:51:10.999Z</time></trkpt><trkpt lat="44.44218419715681" lon="9.059412864758462"><ele>217.0</ele><time>2026-04-18T06:51:11.999Z</time></trkpt><trkpt lat="44.44216201831127" lon="9.05960998225592"><ele>217.0</ele><time>2026-04-18T06:51:12.999Z</time></trkpt><trkpt lat="44.44214540355957" lon="9.059786177331805"><ele>217.0</ele><time>2026-04-18T06:51:13.999Z</time></trkpt><trkpt lat="44.44215426368586" lon="9.059977404128912"><ele>217.0</ele><time>2026-04-18T06:51:14.999Z</time></trkpt><trkpt lat="44.44218795570239" lon="9.060184173926755"><ele>217.0</ele><time>2026-04-18T06:51:15.999Z</time></trkpt><trkpt lat="44.44221869267789" lon="9.060374624222268"><ele>218.0</ele><time>2026-04-18T06:51:16.999Z</time></trkpt><trkpt lat="44.44224585069935" lon="9.060540525818103"><ele>219.0</ele><time>2026-04-18T06:51:17.999Z</time></trkpt><trkpt lat="44.44227810610777" lon="9.060735098866875"><ele>220.0</ele><time>2026-04-18T06:51:18.999Z</time></trkpt><trkpt lat="44.442309529724916" lon="9.06095392709801"><ele>221.0</ele><time>2026-04-18T06:51:19.999Z</time></trkpt><trkpt lat="44.4423257386257" lon="9.061145153241412"><ele>222.0</ele><time>2026-04-18T06:51:20.999Z</time></trkpt><trkpt lat="44.442314452802115" lon="9.061304426682298"><ele>223.0</ele><time>2026-04-18T06:51:21.999Z</time></trkpt><trkpt lat="44.442288451264155" lon="9.061493200476834"><ele>224.0</ele><time>2026-04-18T06:51:22.999Z</time></trkpt><trkpt lat="44.44225037587956" lon="9.061681045879173"><ele>225.0</ele><time>2026-04-18T06:51:23.999Z</time></trkpt><trkpt lat="44.44222505409358" lon="9.061866676565879"><ele>225.5</ele><time>2026-04-18T06:51:24.999Z</time></trkpt><trkpt lat="44.44218262979405" lon="9.062057145674752"><ele>226.0</ele><time>2026-04-18T06:51:25.999Z</time></trkpt><trkpt lat="44.442175974512885" lon="9.062252452317606"><ele>226.5</ele><time>2026-04-18T06:51:26.999Z</time></trkpt><trkpt lat="44.442187857246914" lon="9.062432802275444"><ele>227.0</ele><time>2026-04-18T06:51:27.999Z</time></trkpt><trkpt lat="44.442212944455804" lon="9.062612148437312"><ele>227.66666666666669</ele><time>2026-04-18T06:51:28.999Z</time></trkpt><trkpt lat="44.44223114200076" lon="9.062805827372678"><ele>228.33333333333331</ele><time>2026-04-18T06:51:29.999Z</time></trkpt><trkpt lat="44.44227566057404" lon="9.06301605216688"><ele>229.0</ele><time>2026-04-18T06:51:30.999Z</time></trkpt><trkpt lat="44.442321261267104" lon="9.063238484986773"><ele>231.25</ele><time>2026-04-18T06:51:31.999Z</time></trkpt><trkpt lat="44.44233932220944" lon="9.063444787973397"><ele>233.5</ele><time>2026-04-18T06:51:32.999Z</time></trkpt><trkpt lat="44.44236964344236" lon="9.063617171158969"><ele>235.75</ele><time>2026-04-18T06:51:33.999Z</time></trkpt><trkpt lat="44.442400340461276" lon="9.063787260829594"><ele>238.0</ele><time>2026-04-18T06:51:34.999Z</time></trkpt><trkpt lat="44.44243161891027" lon="9.063967196920514"><ele>239.25</ele><time>2026-04-18T06:51:35.999Z</time></trkpt><trkpt lat="44.44245500315633" lon="9.06413074856873"><ele>240.5</ele><time>2026-04-18T06:51:36.999Z</time></trkpt><trkpt lat="44.442440509081166" lon="9.064294339177302"><ele>241.75</ele><time>2026-04-18T06:51:37.999Z</time></trkpt><trkpt lat="44.442370149414295" lon="9.064447874915773"><ele>243.0</ele><time>2026-04-18T06:51:38.999Z</time></trkpt><trkpt lat="44.44224727736868" lon="9.064540151797443"><ele>251.5</ele><time>2026-04-18T06:51:39.999Z</time></trkpt><trkpt lat="44.44212493874193" lon="9.064660141817381"><ele>260.0</ele><time>2026-04-18T06:51:40.999Z</time></trkpt><trkpt lat="44.442016479261525" lon="9.064772081307808"><ele>268.5</ele><time>2026-04-18T06:51:41.999Z</time></trkpt><trkpt lat="44.44192458223562" lon="9.06490547023301"><ele>277.0</ele><time>2026-04-18T06:51:42.999Z</time></trkpt><trkpt lat="44.44188769746507" lon="9.06508056123606"><ele>277.0</ele><time>2026-04-18T06:51:43.999Z</time></trkpt><trkpt lat="44.44188044513135" lon="9.065280140500745"><ele>277.0</ele><time>2026-04-18T06:51:44.999Z</time></trkpt><trkpt lat="44.441924633278155" lon="9.06548917736204"><ele>277.0</ele><time>2026-04-18T06:51:45.999Z</time></trkpt><trkpt lat="44.44198900049648" lon="9.065713316720672"><ele>276.75</ele><time>2026-04-18T06:51:46.999Z</time></trkpt><trkpt lat="44.44205632959147" lon="9.065916249812172"><ele>276.5</ele><time>2026-04-18T06:51:47.999Z</time></trkpt><trkpt lat="44.442099497816244" lon="9.06608649146165"><ele>276.25</ele><time>2026-04-18T06:51:48.999Z</time></trkpt><trkpt lat="44.44212649932155" lon="9.066254218981202"><ele>276.0</ele><time>2026-04-18T06:51:49.999Z</time></trkpt><trkpt lat="44.442117488740806" lon="9.06642362568554"><ele>276.0</ele><time>2026-04-18T06:51:50.999Z</time></trkpt><trkpt lat="44.44208308160491" lon="9.066603978441476"><ele>276.0</ele><time>2026-04-18T06:51:51.999Z</time></trkpt><trkpt lat="44.44201169822792" lon="9.06677949696133"><ele>276.0</ele><time>2026-04-18T06:51:52.999Z</time></trkpt><trkpt lat="44.441912946141755" lon="9.066934941855308"><ele>276.0</ele><time>2026-04-18T06:51:53.999Z</time></trkpt><trkpt lat="44.4417996580966" lon="9.06707516478374"><ele>276.0</ele><time>2026-04-18T06:51:54.999Z</time></trkpt><trkpt lat="44.441680097763886" lon="9.06722507906837"><ele>276.0</ele><time>2026-04-18T06:51:55.999Z</time></trkpt><trkpt lat="44.44156845775035" lon="9.067374616766436"><ele>276.0</ele><time>2026-04-18T06:51:56.999Z</time></trkpt><trkpt lat="44.44146726796221" lon="9.067505529058836"><ele>271.6666666666667</ele><time>2026-04-18T06:51:58Z</time></trkpt><trkpt lat="44.441357434726356" lon="9.067657007437226"><ele>267.33333333333337</ele><time>2026-04-18T06:51:59Z</time></trkpt><trkpt lat="44.44126109641454" lon="9.067846995739538"><ele>263.0</ele><time>2026-04-18T06:52:00Z</time></trkpt><trkpt lat="44.44118679151587" lon="9.068018087277247"><ele>271.0</ele><time>2026-04-18T06:52:01Z</time></trkpt><trkpt lat="44.44112200505452" lon="9.068171865815737"><ele>279.0</ele><time>2026-04-18T06:52:02Z</time></trkpt><trkpt lat="44.441054992760996" lon="9.068326697938437"><ele>287.0</ele><time>2026-04-18T06:52:03Z</time></trkpt><trkpt lat="44.44102940569772" lon="9.068521206394468"><ele>295.0</ele><time>2026-04-18T06:52:04Z</time></trkpt><trkpt lat="44.441062379339606" lon="9.068727289305658"><ele>295.0</ele><time>2026-04-18T06:52:05Z</time></trkpt><trkpt lat="44.44109654038624" lon="9.068927531834426"><ele>295.0</ele><time>2026-04-18T06:52:06Z</time></trkpt><trkpt lat="44.44112923799304" lon="9.06911346503447"><ele>295.0</ele><time>2026-04-18T06:52:07Z</time></trkpt><trkpt lat="44.4411586676907" lon="9.06927061678704"><ele>295.0</ele><time>2026-04-18T06:52:08Z</time></trkpt><trkpt lat="44.441166452799074" lon="9.069422419480858"><ele>295.3333333333333</ele><time>2026-04-18T06:52:09Z</time></trkpt><trkpt lat="44.441129848303206" lon="9.06960527096082"><ele>295.6666666666667</ele><time>2026-04-18T06:52:10Z</time></trkpt><trkpt lat="44.44105828162152" lon="9.069788648758422"><ele>296.0</ele><time>2026-04-18T06:52:11Z</time></trkpt><trkpt lat="44.440952628609594" lon="9.069973509393469"><ele>294.0</ele><time>2026-04-18T06:52:12Z</time></trkpt><trkpt lat="44.44083006402261" lon="9.070127296899862"><ele>292.0</ele><time>2026-04-18T06:52:13Z</time></trkpt><trkpt lat="44.44072581708557" lon="9.070235760940564"><ele>290.0</ele><time>2026-04-18T06:52:14Z</time></trkpt><trkpt lat="44.4406550995934" lon="9.070361349346015"><ele>288.0</ele><time>2026-04-18T06:52:15Z</time></trkpt><trkpt lat="44.440601343988014" lon="9.070517749690797"><ele>288.0</ele><time>2026-04-18T06:52:16Z</time></trkpt><trkpt lat="44.440593891694995" lon="9.07069610936886"><ele>288.0</ele><time>2026-04-18T06:52:17Z</time></trkpt><trkpt lat="44.44062524259244" lon="9.070903301763785"><ele>288.0</ele><time>2026-04-18T06:52:18Z</time></trkpt><trkpt lat="44.44065487317247" lon="9.0711414589507"><ele>287.0</ele><time>2026-04-18T06:52:19Z</time></trkpt><trkpt lat="44.440698882262176" lon="9.071399494599744"><ele>286.0</ele><time>2026-04-18T06:52:20Z</time></trkpt><trkpt lat="44.44073852670874" lon="9.071636264466694"><ele>285.0</ele><time>2026-04-18T06:52:21Z</time></trkpt><trkpt lat="44.440773144857694" lon="9.071837778449366"><ele>285.0</ele><time>2026-04-18T06:52:22Z</time></trkpt><trkpt lat="44.4407948879897" lon="9.072006360782995"><ele>285.0</ele><time>2026-04-18T06:52:23Z</time></trkpt><trkpt lat="44.44079555220504" lon="9.072168072161519"><ele>285.0</ele><time>2026-04-18T06:52:24Z</time></trkpt><trkpt lat="44.440753933245276" lon="9.072311248531044"><ele>285.0</ele><time>2026-04-18T06:52:25Z</time></trkpt><trkpt lat="44.440695696032385" lon="9.072468023623093"><ele>283.25</ele><time>2026-04-18T06:52:26Z</time></trkpt><trkpt lat="44.440589598839104" lon="9.07259800130396"><ele>281.5</ele><time>2026-04-18T06:52:27Z</time></trkpt><trkpt lat="44.44047968388798" lon="9.072728611328564"><ele>279.75</ele><time>2026-04-18T06:52:28Z</time></trkpt><trkpt lat="44.44037023800901" lon="9.072866054828275"><ele>278.0</ele><time>2026-04-18T06:52:29Z</time></trkpt><trkpt lat="44.44027003654814" lon="9.07301891569266"><ele>287.0</ele><time>2026-04-18T06:52:30Z</time></trkpt><trkpt lat="44.440193669941756" lon="9.07316161162205"><ele>296.0</ele><time>2026-04-18T06:52:31Z</time></trkpt><trkpt lat="44.440142010344935" lon="9.073346969690695"><ele>305.0</ele><time>2026-04-18T06:52:32Z</time></trkpt><trkpt lat="44.44010089933785" lon="9.073513249807071"><ele>314.0</ele><time>2026-04-18T06:52:33Z</time></trkpt><trkpt lat="44.44006439227175" lon="9.073665638495708"><ele>314.0</ele><time>2026-04-18T06:52:34Z</time></trkpt><trkpt lat="44.44003048238017" lon="9.073810948136192"><ele>314.0</ele><time>2026-04-18T06:52:35Z</time></trkpt><trkpt lat="44.43998840594255" lon="9.073983053783984"><ele>314.0</ele><time>2026-04-18T06:52:36Z</time></trkpt><trkpt lat="44.43994020149536" lon="9.074171118418032"><ele>314.0</ele><time>2026-04-18T06:52:37Z</time></trkpt><trkpt lat="44.439899079292665" lon="9.074350888723309"><ele>309.6666666666667</ele><time>2026-04-18T06:52:38Z</time></trkpt><trkpt lat="44.43988311901128" lon="9.074565112810374"><ele>305.3333333333333</ele><time>2026-04-18T06:52:39Z</time></trkpt><trkpt lat="44.43991849648797" lon="9.074824521031443"><ele>301.0</ele><time>2026-04-18T06:52:40Z</time></trkpt><trkpt lat="44.43997597456762" lon="9.075028572326422"><ele>300.75</ele><time>2026-04-18T06:52:41Z</time></trkpt><trkpt lat="44.4400220259794" lon="9.075191320421043"><ele>300.5</ele><time>2026-04-18T06:52:42Z</time></trkpt><trkpt lat="44.440054402112565" lon="9.075335825123444"><ele>300.25</ele><time>2026-04-18T06:52:43Z</time></trkpt><trkpt lat="44.440064295638166" lon="9.07551024115885"><ele>300.0</ele><time>2026-04-18T06:52:44Z</time></trkpt><trkpt lat="44.4400516262961" lon="9.075711055878957"><ele>299.0</ele><time>2026-04-18T06:52:45Z</time></trkpt><trkpt lat="44.440015333906416" lon="9.07588720864901"><ele>298.0</ele><time>2026-04-18T06:52:46Z</time></trkpt><trkpt lat="44.43995350872439" lon="9.076046406973397"><ele>297.0</ele><time>2026-04-18T06:52:47Z</time></trkpt><trkpt lat="44.43987100802404" lon="9.076210026272925"><ele>296.0</ele><time>2026-04-18T06:52:48Z</time></trkpt><trkpt lat="44.43974519025702" lon="9.076343818801526"><ele>303.25</ele><time>2026-04-18T06:52:49Z</time></trkpt><trkpt lat="44.43962727024805" lon="9.076428558161203"><ele>310.5</ele><time>2026-04-18T06:52:50Z</time></trkpt><trkpt lat="44.43950193981422" lon="9.076493429956855"><ele>317.75</ele><time>2026-04-18T06:52:51Z</time></trkpt><trkpt lat="44.439370243837274" lon="9.07655454647229"><ele>325.0</ele><time>2026-04-18T06:52:52Z</time></trkpt><trkpt lat="44.439240676055675" lon="9.076647037626833"><ele>325.0</ele><time>2026-04-18T06:52:53Z</time></trkpt><trkpt lat="44.439119650956684" lon="9.076775334810236"><ele>325.0</ele><time>2026-04-18T06:52:54Z</time></trkpt><trkpt lat="44.439007793449186" lon="9.076937089343323"><ele>325.0</ele><time>2026-04-18T06:52:55Z</time></trkpt><trkpt lat="44.43893069119367" lon="9.077107385568194"><ele>325.0</ele><time>2026-04-18T06:52:56Z</time></trkpt><trkpt lat="44.43885737871247" lon="9.077282923002846"><ele>325.0</ele><time>2026-04-18T06:52:57Z</time></trkpt><trkpt lat="44.438772802157764" lon="9.077448644155108"><ele>325.0</ele><time>2026-04-18T06:52:58Z</time></trkpt><trkpt lat="44.4386937663566" lon="9.077607585262028"><ele>325.0</ele><time>2026-04-18T06:52:59Z</time></trkpt><trkpt lat="44.43862725924671" lon="9.077746910648289"><ele>322.75</ele><time>2026-04-18T06:53:00Z</time></trkpt><trkpt lat="44.438558959585514" lon="9.077890490649667"><ele>320.5</ele><time>2026-04-18T06:53:01Z</time></trkpt><trkpt lat="44.438486066021575" lon="9.078032961267436"><ele>318.25</ele><time>2026-04-18T06:53:02Z</time></trkpt><trkpt lat="44.4384153313282" lon="9.078172452916675"><ele>316.0</ele><time>2026-04-18T06:53:03Z</time></trkpt><trkpt lat="44.43834398344524" lon="9.078317853678437"><ele>316.0</ele><time>2026-04-18T06:53:04Z</time></trkpt><trkpt lat="44.43828073762996" lon="9.078474933150607"><ele>316.0</ele><time>2026-04-18T06:53:05Z</time></trkpt><trkpt lat="44.438238157019015" lon="9.078647647526145"><ele>316.0</ele><time>2026-04-18T06:53:06Z</time></trkpt><trkpt lat="44.43821798449452" lon="9.078832275155671"><ele>316.0</ele><time>2026-04-18T06:53:07Z</time></trkpt><trkpt lat="44.438215577319056" lon="9.079023563442524"><ele>313.75</ele><time>2026-04-18T06:53:08Z</time></trkpt><trkpt lat="44.43822971030879" lon="9.07920996683748"><ele>311.5</ele><time>2026-04-18T06:53:08.999Z</time></trkpt><trkpt lat="44.43822925457112" lon="9.079402770003318"><ele>309.25</ele><time>2026-04-18T06:53:09.999Z</time></trkpt><trkpt lat="44.438232840959536" lon="9.079568235288008"><ele>307.0</ele><time>2026-04-18T06:53:10.999Z</time></trkpt><trkpt lat="44.438241860795905" lon="9.079743054323092"><ele>307.0</ele><time>2026-04-18T06:53:11.999Z</time></trkpt><trkpt lat="44.43826824761303" lon="9.079932343333924"><ele>307.0</ele><time>2026-04-18T06:53:12.999Z</time></trkpt><trkpt lat="44.438316594319254" lon="9.08014180795262"><ele>307.0</ele><time>2026-04-18T06:53:13.999Z</time></trkpt><trkpt lat="44.43838329494626" lon="9.080345167923838"><ele>306.66666666666663</ele><time>2026-04-18T06:53:14.999Z</time></trkpt><trkpt lat="44.43845274502373" lon="9.080526943343234"><ele>306.3333333333333</ele><time>2026-04-18T06:53:15.999Z</time></trkpt><trkpt lat="44.438522970391894" lon="9.080716660074168"><ele>306.0</ele><time>2026-04-18T06:53:16.999Z</time></trkpt><trkpt lat="44.43860332606561" lon="9.080917360937532"><ele>304.3333333333333</ele><time>2026-04-18T06:53:17.999Z</time></trkpt><trkpt lat="44.43868744435297" lon="9.08112337811665"><ele>302.66666666666663</ele><time>2026-04-18T06:53:18.999Z</time></trkpt><trkpt lat="44.43876088831378" lon="9.081312977932196"><ele>301.0</ele><time>2026-04-18T06:53:19.999Z</time></trkpt><trkpt lat="44.4388302677356" lon="9.08149471815266"><ele>302.75</ele><time>2026-04-18T06:53:20.999Z</time></trkpt><trkpt lat="44.43889399339236" lon="9.081661021692407"><ele>304.5</ele><time>2026-04-18T06:53:21.999Z</time></trkpt><trkpt lat="44.438959239196365" lon="9.081834549622268"><ele>306.25</ele><time>2026-04-18T06:53:22.999Z</time></trkpt><trkpt lat="44.439032132242254" lon="9.082008008994228"><ele>308.0</ele><time>2026-04-18T06:53:23.999Z</time></trkpt><trkpt lat="44.439123690532305" lon="9.082168361667676"><ele>308.0</ele><time>2026-04-18T06:53:24.999Z</time></trkpt><trkpt lat="44.439233098443914" lon="9.082337970475114"><ele>308.0</ele><time>2026-04-18T06:53:25.999Z</time></trkpt><trkpt lat="44.439370098681096" lon="9.08251232581253"><ele>308.0</ele><time>2026-04-18T06:53:26.999Z</time></trkpt><trkpt lat="44.43952586939501" lon="9.082687219374941"><ele>310.33333333333337</ele><time>2026-04-18T06:53:27.999Z</time></trkpt><trkpt lat="44.439678387016954" lon="9.0828346526658"><ele>312.6666666666667</ele><time>2026-04-18T06:53:28.999Z</time></trkpt><trkpt lat="44.439800352276364" lon="9.08297988800705"><ele>315.0</ele><time>2026-04-18T06:53:29.999Z</time></trkpt><trkpt lat="44.43992097361218" lon="9.083126235681393"><ele>321.0</ele><time>2026-04-18T06:53:30.999Z</time></trkpt><trkpt lat="44.44005076246278" lon="9.083275963844782"><ele>327.0</ele><time>2026-04-18T06:53:31.999Z</time></trkpt><trkpt lat="44.44018295028149" lon="9.083422198256818"><ele>333.0</ele><time>2026-04-18T06:53:32.999Z</time></trkpt><trkpt lat="44.44030490113608" lon="9.08358539514745"><ele>333.0</ele><time>2026-04-18T06:53:33.999Z</time></trkpt><trkpt lat="44.44039310507576" lon="9.08375225634508"><ele>333.0</ele><time>2026-04-18T06:53:34.999Z</time></trkpt><trkpt lat="44.440472046236145" lon="9.08391570614867"><ele>333.0</ele><time>2026-04-18T06:53:35.999Z</time></trkpt><trkpt lat="44.4405447732948" lon="9.084096870285899"><ele>333.0</ele><time>2026-04-18T06:53:36.999Z</time></trkpt><trkpt lat="44.440612474659545" lon="9.084297538397317"><ele>332.5</ele><time>2026-04-18T06:53:37.999Z</time></trkpt><trkpt lat="44.44066703244123" lon="9.084490024732231"><ele>332.0</ele><time>2026-04-18T06:53:38.999Z</time></trkpt><trkpt lat="44.44071600787973" lon="9.084689126135782"><ele>331.5</ele><time>2026-04-18T06:53:39.999Z</time></trkpt><trkpt lat="44.44076809911934" lon="9.08488645744593"><ele>331.0</ele><time>2026-04-18T06:53:40.999Z</time></trkpt><trkpt lat="44.44082586214768" lon="9.08508768284255"><ele>331.0</ele><time>2026-04-18T06:53:41.999Z</time></trkpt><trkpt lat="44.44087449455744" lon="9.08526597913499"><ele>331.0</ele><time>2026-04-18T06:53:42.999Z</time></trkpt><trkpt lat="44.440921805145976" lon="9.08544139569466"><ele>331.0</ele><time>2026-04-18T06:53:43.999Z</time></trkpt><trkpt lat="44.44097351072193" lon="9.085618362098339"><ele>331.0</ele><time>2026-04-18T06:53:44.999Z</time></trkpt><trkpt lat="44.4410417752611" lon="9.085795029510239"><ele>330.3333333333333</ele><time>2026-04-18T06:53:45.999Z</time></trkpt><trkpt lat="44.44113056164737" lon="9.08597546819358"><ele>329.6666666666667</ele><time>2026-04-18T06:53:46.999Z</time></trkpt><trkpt lat="44.441240898888886" lon="9.086151268336042"><ele>329.0</ele><time>2026-04-18T06:53:47.999Z</time></trkpt><trkpt lat="44.44134760691464" lon="9.086299058266434"><ele>329.0</ele><time>2026-04-18T06:53:48.999Z</time></trkpt><trkpt lat="44.441451952290144" lon="9.08643711321642"><ele>329.0</ele><time>2026-04-18T06:53:49.999Z</time></trkpt><trkpt lat="44.44156583553243" lon="9.086579924586232"><ele>329.0</ele><time>2026-04-18T06:53:50.999Z</time></trkpt><trkpt lat="44.4416719831346" lon="9.086747347676981"><ele>335.33333333333337</ele><time>2026-04-18T06:53:51.999Z</time></trkpt><trkpt lat="44.4417520623365" lon="9.086944746708893"><ele>341.6666666666667</ele><time>2026-04-18T06:53:52.999Z</time></trkpt><trkpt lat="44.44179994735221" lon="9.08714689182617"><ele>348.0</ele><time>2026-04-18T06:53:53.999Z</time></trkpt><trkpt lat="44.441837072308964" lon="9.087376731943849"><ele>352.6666666666667</ele><time>2026-04-18T06:53:54.999Z</time></trkpt><trkpt lat="44.44187006395606" lon="9.087609186504691"><ele>357.33333333333337</ele><time>2026-04-18T06:53:55.999Z</time></trkpt><trkpt lat="44.441906295242894" lon="9.08781579992295"><ele>362.0</ele><time>2026-04-18T06:53:56.999Z</time></trkpt><trkpt lat="44.441945843100484" lon="9.088008566051275"><ele>362.0</ele><time>2026-04-18T06:53:57.999Z</time></trkpt><trkpt lat="44.4419816946797" lon="9.08820481246233"><ele>362.0</ele><time>2026-04-18T06:53:58.999Z</time></trkpt><trkpt lat="44.44201166214708" lon="9.088374689892863"><ele>362.0</ele><time>2026-04-18T06:53:59.999Z</time></trkpt><trkpt lat="44.44206441724545" lon="9.088555536054194"><ele>362.0</ele><time>2026-04-18T06:54:00.999Z</time></trkpt><trkpt lat="44.442134523720085" lon="9.088737475586411"><ele>356.5</ele><time>2026-04-18T06:54:01.999Z</time></trkpt><trkpt lat="44.44222240824699" lon="9.088920449647983"><ele>351.0</ele><time>2026-04-18T06:54:02.999Z</time></trkpt><trkpt lat="44.44229621102859" lon="9.089085584798179"><ele>345.5</ele><time>2026-04-18T06:54:04Z</time></trkpt><trkpt lat="44.44237982283368" lon="9.089255449987382"><ele>340.0</ele><time>2026-04-18T06:54:05Z</time></trkpt><trkpt lat="44.442435952547115" lon="9.089417117669862"><ele>340.0</ele><time>2026-04-18T06:54:06Z</time></trkpt><trkpt lat="44.442472056198994" lon="9.089592346911031"><ele>340.0</ele><time>2026-04-18T06:54:07Z</time></trkpt><trkpt lat="44.44247408681301" lon="9.089753007332048"><ele>340.0</ele><time>2026-04-18T06:54:08Z</time></trkpt><trkpt lat="44.44245542664708" lon="9.08987940904673"><ele>340.0</ele><time>2026-04-18T06:54:09Z</time></trkpt><trkpt lat="44.44242889366024" lon="9.089983961693529"><ele>340.0</ele><time>2026-04-18T06:54:10Z</time></trkpt><trkpt lat="44.442403432821074" lon="9.090074113523048"><ele>341.0</ele><time>2026-04-18T06:54:11Z</time></trkpt><trkpt lat="44.442364384747606" lon="9.090234334272324"><ele>342.0</ele><time>2026-04-18T06:54:13Z</time></trkpt><trkpt lat="44.442334510170674" lon="9.09035541793307"><ele>343.0</ele><time>2026-04-18T06:54:15Z</time></trkpt><trkpt lat="44.44231546655845" lon="9.090446984273926"><ele>344.0</ele><time>2026-04-18T06:54:17Z</time></trkpt><trkpt lat="44.44236344862142" lon="9.090510553719168"><ele>345.0</ele><time>2026-04-18T06:59:00Z</time></trkpt><trkpt lat="44.44231492049455" lon="9.09057016239151"><ele>346.0</ele><time>2026-04-18T06:59:12Z</time></trkpt><trkpt lat="44.4422928368357" lon="9.090480126966128"><ele>346.0</ele><time>2026-04-18T06:59:21Z</time></trkpt><trkpt lat="44.44233474742951" lon="9.090413451256227"><ele>346.0</ele><time>2026-04-18T06:59:33.015Z</time></trkpt><trkpt lat="44.442401280218256" lon="9.090568812391469"><ele>346.0</ele><time>2026-04-18T07:00:13.873Z</time></trkpt><trkpt lat="44.4423196607648" lon="9.090475891477974"><ele>346.0</ele><time>2026-04-18T07:00:26.026Z</time></trkpt><trkpt lat="44.44225838950744" lon="9.09064957099382"><ele>346.0</ele><time>2026-04-18T07:00:27.016Z</time></trkpt><trkpt lat="44.442304979050945" lon="9.090511656664168"><ele>346.0</ele><time>2026-04-18T07:00:29.02Z</time></trkpt><trkpt lat="44.4424597728801" lon="9.090549308988974"><ele>346.0</ele><time>2026-04-18T07:02:04.999Z</time></trkpt><trkpt lat="44.44237501703744" lon="9.090652009519566"><ele>346.0</ele><time>2026-04-18T07:05:00.999Z</time></trkpt><trkpt lat="44.44235069229402" lon="9.090486970732531"><ele>346.0</ele><time>2026-04-18T07:05:01.999Z</time></trkpt><trkpt lat="44.44227989819479" lon="9.090489682684122"><ele>346.0</ele><time>2026-04-18T07:05:11Z</time></trkpt><trkpt lat="44.44226127823766" lon="9.090580491204332"><ele>346.0</ele><time>2026-04-18T07:05:29Z</time></trkpt><trkpt lat="44.44232642867701" lon="9.090609346599923"><ele>346.0</ele><time>2026-04-18T07:05:36Z</time></trkpt><trkpt lat="44.44237036465888" lon="9.090535884341588"><ele>346.0</ele><time>2026-04-18T07:05:46Z</time></trkpt><trkpt lat="44.442337494251795" lon="9.090446606019595"><ele>346.0</ele><time>2026-04-18T07:06:58.999Z</time></trkpt><trkpt lat="44.44229813187541" lon="9.09057706256614"><ele>346.0</ele><time>2026-04-18T07:08:34.999Z</time></trkpt><trkpt lat="44.44231680335436" lon="9.090734765722097"><ele>346.4</ele><time>2026-04-18T07:08:36.999Z</time></trkpt><trkpt lat="44.442347690631436" lon="9.090884311442553"><ele>346.8</ele><time>2026-04-18T07:08:38.999Z</time></trkpt><trkpt lat="44.442388823465976" lon="9.09101725033722"><ele>347.2</ele><time>2026-04-18T07:08:40.999Z</time></trkpt><trkpt lat="44.44243469622839" lon="9.091159756878334"><ele>347.59999999999997</ele><time>2026-04-18T07:08:42.999Z</time></trkpt><trkpt lat="44.442450026821504" lon="9.091319285509888"><ele>348.0</ele><time>2026-04-18T07:08:44.999Z</time></trkpt><trkpt lat="44.44242844183863" lon="9.091428342025416"><ele>348.0</ele><time>2026-04-18T07:08:46.999Z</time></trkpt><trkpt lat="44.442392994999416" lon="9.091529083740117"><ele>348.0</ele><time>2026-04-18T07:08:48.999Z</time></trkpt><trkpt lat="44.44237769809136" lon="9.091653469267486"><ele>348.0</ele><time>2026-04-18T07:08:50.999Z</time></trkpt><trkpt lat="44.44237200942468" lon="9.09178181509139"><ele>348.0</ele><time>2026-04-18T07:08:52.999Z</time></trkpt><trkpt lat="44.44232706553725" lon="9.091908018041872"><ele>348.0</ele><time>2026-04-18T07:08:54.999Z</time></trkpt><trkpt lat="44.442301957927256" lon="9.092039996009026"><ele>349.5</ele><time>2026-04-18T07:08:56.999Z</time></trkpt><trkpt lat="44.44226947706573" lon="9.092137049421886"><ele>351.0</ele><time>2026-04-18T07:08:58.999Z</time></trkpt><trkpt lat="44.44221592143117" lon="9.092196029066839"><ele>352.5</ele><time>2026-04-18T07:09:02.999Z</time></trkpt><trkpt lat="44.44214442604213" lon="9.092214376777218"><ele>354.0</ele><time>2026-04-18T07:11:30Z</time></trkpt><trkpt lat="44.442211137492116" lon="9.092178402563722"><ele>355.5</ele><time>2026-04-18T07:11:34Z</time></trkpt><trkpt lat="44.442326186975826" lon="9.09220051193082"><ele>357.0</ele><time>2026-04-18T07:14:32Z</time></trkpt><trkpt lat="44.44221397429567" lon="9.092140229868889"><ele>357.0</ele><time>2026-04-18T07:14:56.999Z</time></trkpt><trkpt lat="44.442196832870906" lon="9.092243057720562"><ele>357.0</ele><time>2026-04-18T07:21:23.999Z</time></trkpt><trkpt lat="44.44217988915457" lon="9.092382884427057"><ele>357.0</ele><time>2026-04-18T07:21:27.999Z</time></trkpt><trkpt lat="44.44214995120389" lon="9.092601335618829"><ele>357.0</ele><time>2026-04-18T07:21:29.999Z</time></trkpt><trkpt lat="44.442104361329825" lon="9.092791353480537"><ele>370.75</ele><time>2026-04-18T07:21:30.999Z</time></trkpt><trkpt lat="44.442101259416624" lon="9.092973415204023"><ele>384.5</ele><time>2026-04-18T07:21:31.999Z</time></trkpt><trkpt lat="44.4419866415607" lon="9.09307622183453"><ele>398.25</ele><time>2026-04-18T07:21:32.999Z</time></trkpt><trkpt lat="44.44193928675419" lon="9.093218743127316"><ele>412.0</ele><time>2026-04-18T07:21:33.999Z</time></trkpt><trkpt lat="44.44189814508224" lon="9.093342884049529"><ele>416.75</ele><time>2026-04-18T07:21:35.015Z</time></trkpt><trkpt lat="44.44185001038137" lon="9.093488125391005"><ele>421.5</ele><time>2026-04-18T07:21:36.019Z</time></trkpt><trkpt lat="44.44179949014366" lon="9.093641188727817"><ele>426.25</ele><time>2026-04-18T07:21:37.016Z</time></trkpt><trkpt lat="44.44174860531297" lon="9.093796451065321"><ele>431.0</ele><time>2026-04-18T07:21:38.02Z</time></trkpt><trkpt lat="44.44169828925044" lon="9.093949977008885"><ele>431.0</ele><time>2026-04-18T07:21:39.018Z</time></trkpt><trkpt lat="44.44165447119382" lon="9.094083676936652"><ele>431.0</ele><time>2026-04-18T07:21:40.019Z</time></trkpt><trkpt lat="44.4408271983919" lon="9.09666286885324"><ele>494.0</ele><time>2026-04-18T07:21:43.818Z</time></trkpt><trkpt lat="44.440564147547946" lon="9.097465868726355"><ele>553.0</ele><time>2026-04-18T07:21:44.822Z</time></trkpt><trkpt lat="44.44030216449863" lon="9.098263482981947"><ele>553.0</ele><time>2026-04-18T07:21:45.82Z</time></trkpt><trkpt lat="44.44003868758919" lon="9.09906314255122"><ele>566.0</ele><time>2026-04-18T07:21:46.821Z</time></trkpt><trkpt lat="44.43977521014633" lon="9.099862803739411"><ele>585.0</ele><time>2026-04-18T07:21:47.822Z</time></trkpt><trkpt lat="44.439511990654964" lon="9.100661682037835"><ele>584.0</ele><time>2026-04-18T07:21:48.822Z</time></trkpt><trkpt lat="44.439248772481434" lon="9.101460556336578"><ele>581.0</ele><time>2026-04-18T07:21:49.822Z</time></trkpt><trkpt lat="44.4392052" lon="9.1015928"><ele>578.0</ele><time>2026-04-18T07:21:50.821Z</time></trkpt><trkpt lat="44.434369602282004" lon="9.116348158576633"><ele>523.0</ele><time>2026-04-18T07:23:23.998Z</time></trkpt><trkpt lat="44.43432288071122" lon="9.116520341004996"><ele>468.0</ele><time>2026-04-18T07:23:24.998Z</time></trkpt><trkpt lat="44.43428823207692" lon="9.116734113136285"><ele>413.0</ele><time>2026-04-18T07:23:25.998Z</time></trkpt><trkpt lat="44.43428809910141" lon="9.116935154336664"><ele>358.0</ele><time>2026-04-18T07:23:26.998Z</time></trkpt><trkpt lat="44.43429437983123" lon="9.11713166049552"><ele>351.66666666666663</ele><time>2026-04-18T07:23:27.998Z</time></trkpt><trkpt lat="44.434307247040344" lon="9.117342306188752"><ele>345.3333333333333</ele><time>2026-04-18T07:23:28.998Z</time></trkpt><trkpt lat="44.43432832823392" lon="9.11755507427886"><ele>339.0</ele><time>2026-04-18T07:23:30Z</time></trkpt><trkpt lat="44.43437055718724" lon="9.117777428702306"><ele>338.0</ele><time>2026-04-18T07:23:31Z</time></trkpt><trkpt lat="44.43442981778237" lon="9.118001280899751"><ele>337.0</ele><time>2026-04-18T07:23:32Z</time></trkpt><trkpt lat="44.434496283871354" lon="9.118223220134348"><ele>336.0</ele><time>2026-04-18T07:23:33Z</time></trkpt><trkpt lat="44.43456459399117" lon="9.118425232261405"><ele>340.3333333333333</ele><time>2026-04-18T07:23:34Z</time></trkpt><trkpt lat="44.43465560781268" lon="9.11865081199512"><ele>344.66666666666663</ele><time>2026-04-18T07:23:35Z</time></trkpt><trkpt lat="44.43476325004875" lon="9.1188433294631"><ele>349.0</ele><time>2026-04-18T07:23:36Z</time></trkpt><trkpt lat="44.43489070206617" lon="9.119033566434625"><ele>342.66666666666663</ele><time>2026-04-18T07:23:37Z</time></trkpt><trkpt lat="44.4350422835692" lon="9.119218929558652"><ele>336.3333333333333</ele><time>2026-04-18T07:23:38Z</time></trkpt><trkpt lat="44.435210592640715" lon="9.119403206293628"><ele>330.0</ele><time>2026-04-18T07:23:39Z</time></trkpt><trkpt lat="44.435385603485116" lon="9.119593036920413"><ele>329.6666666666667</ele><time>2026-04-18T07:23:40Z</time></trkpt><trkpt lat="44.4355580292692" lon="9.11979827017867"><ele>329.33333333333337</ele><time>2026-04-18T07:23:41Z</time></trkpt><trkpt lat="44.43571840117994" lon="9.119996841566506"><ele>329.0</ele><time>2026-04-18T07:23:42Z</time></trkpt><trkpt lat="44.43589100949025" lon="9.120212209131271"><ele>329.0</ele><time>2026-04-18T07:23:43Z</time></trkpt><trkpt lat="44.43606041525795" lon="9.120426053401962"><ele>329.0</ele><time>2026-04-18T07:23:44Z</time></trkpt><trkpt lat="44.43622307043334" lon="9.12062641313613"><ele>329.0</ele><time>2026-04-18T07:23:45Z</time></trkpt><trkpt lat="44.43638201510685" lon="9.12082592662899"><ele>329.6666666666667</ele><time>2026-04-18T07:23:46Z</time></trkpt><trkpt lat="44.43653214588449" lon="9.12101141340781"><ele>330.3333333333333</ele><time>2026-04-18T07:23:47Z</time></trkpt><trkpt lat="44.436667213146265" lon="9.121182791845936"><ele>331.0</ele><time>2026-04-18T07:23:48Z</time></trkpt><trkpt lat="44.43679689872655" lon="9.121353645750812"><ele>331.0</ele><time>2026-04-18T07:23:49Z</time></trkpt><trkpt lat="44.4369139586273" lon="9.121527400886436"><ele>331.0</ele><time>2026-04-18T07:23:50Z</time></trkpt><trkpt lat="44.437023876881916" lon="9.121751839990468"><ele>331.0</ele><time>2026-04-18T07:23:51Z</time></trkpt><trkpt lat="44.43711302774801" lon="9.121992379497133"><ele>331.0</ele><time>2026-04-18T07:23:52Z</time></trkpt><trkpt lat="44.43715009529866" lon="9.122237028172554"><ele>331.0</ele><time>2026-04-18T07:23:53Z</time></trkpt><trkpt lat="44.437192328949855" lon="9.122507748077842"><ele>331.0</ele><time>2026-04-18T07:23:54Z</time></trkpt><trkpt lat="44.43721839046746" lon="9.122802552574553"><ele>326.5</ele><time>2026-04-18T07:23:55Z</time></trkpt><trkpt lat="44.43724438670167" lon="9.123133013081391"><ele>322.0</ele><time>2026-04-18T07:23:56Z</time></trkpt><trkpt lat="44.437255891844146" lon="9.123468978503983"><ele>322.0</ele><time>2026-04-18T07:23:57Z</time></trkpt><trkpt lat="44.43724368542398" lon="9.123821217594848"><ele>322.0</ele><time>2026-04-18T07:23:58Z</time></trkpt><trkpt lat="44.437261912082285" lon="9.124174219442912"><ele>322.0</ele><time>2026-04-18T07:23:59Z</time></trkpt><trkpt lat="44.4372813472067" lon="9.124531637121907"><ele>322.0</ele><time>2026-04-18T07:24:00Z</time></trkpt><trkpt lat="44.43730189270707" lon="9.12487292118758"><ele>320.66666666666663</ele><time>2026-04-18T07:24:01Z</time></trkpt><trkpt lat="44.43732015139724" lon="9.125193316652986"><ele>319.3333333333333</ele><time>2026-04-18T07:24:02Z</time></trkpt><trkpt lat="44.43733725825182" lon="9.125498970667962"><ele>318.0</ele><time>2026-04-18T07:24:03Z</time></trkpt><trkpt lat="44.437352337616694" lon="9.125784870235526"><ele>312.0</ele><time>2026-04-18T07:24:04Z</time></trkpt><trkpt lat="44.43736893401685" lon="9.126060681956673"><ele>306.0</ele><time>2026-04-18T07:24:05Z</time></trkpt><trkpt lat="44.43738961820456" lon="9.12633492953578"><ele>300.0</ele><time>2026-04-18T07:24:06Z</time></trkpt><trkpt lat="44.437416095596404" lon="9.126629208118064"><ele>298.0</ele><time>2026-04-18T07:24:07Z</time></trkpt><trkpt lat="44.43745086400282" lon="9.126943476829075"><ele>296.0</ele><time>2026-04-18T07:24:08Z</time></trkpt><trkpt lat="44.43749732066976" lon="9.127280977128633"><ele>293.0</ele><time>2026-04-18T07:24:09Z</time></trkpt><trkpt lat="44.43756535335832" lon="9.127618213007883"><ele>290.0</ele><time>2026-04-18T07:24:10Z</time></trkpt><trkpt lat="44.437632187532344" lon="9.127955931877375"><ele>286.0</ele><time>2026-04-18T07:24:11Z</time></trkpt><trkpt lat="44.437701578838194" lon="9.128290864165779"><ele>282.0</ele><time>2026-04-18T07:24:12Z</time></trkpt><trkpt lat="44.43776797978866" lon="9.128616240602083"><ele>282.0</ele><time>2026-04-18T07:24:13Z</time></trkpt><trkpt lat="44.43782912520525" lon="9.128949311159456"><ele>282.0</ele><time>2026-04-18T07:24:14Z</time></trkpt><trkpt lat="44.437892147294704" lon="9.129266752184153"><ele>278.5</ele><time>2026-04-18T07:24:15Z</time></trkpt><trkpt lat="44.43795656020693" lon="9.129569268573398"><ele>275.0</ele><time>2026-04-18T07:24:16Z</time></trkpt><trkpt lat="44.43803308492811" lon="9.129872064532542"><ele>281.5</ele><time>2026-04-18T07:24:17Z</time></trkpt><trkpt lat="44.43812310069135" lon="9.130191260958066"><ele>288.0</ele><time>2026-04-18T07:24:18Z</time></trkpt><trkpt lat="44.43820176023263" lon="9.13050236140055"><ele>283.3333333333333</ele><time>2026-04-18T07:24:19Z</time></trkpt><trkpt lat="44.43830523165843" lon="9.130770598492179"><ele>278.66666666666663</ele><time>2026-04-18T07:24:20Z</time></trkpt><trkpt lat="44.438394328056745" lon="9.131052128470643"><ele>274.0</ele><time>2026-04-18T07:24:21Z</time></trkpt><trkpt lat="44.43849519622074" lon="9.131349531807208"><ele>268.0</ele><time>2026-04-18T07:24:22Z</time></trkpt><trkpt lat="44.43859595192023" lon="9.131627381997758"><ele>262.0</ele><time>2026-04-18T07:24:23Z</time></trkpt><trkpt lat="44.43871545474995" lon="9.13190541739781"><ele>265.5</ele><time>2026-04-18T07:24:24Z</time></trkpt><trkpt lat="44.4388591102635" lon="9.132191333083503"><ele>269.0</ele><time>2026-04-18T07:24:25Z</time></trkpt><trkpt lat="44.43901162251421" lon="9.13247688921288"><ele>269.0</ele><time>2026-04-18T07:24:26Z</time></trkpt><trkpt lat="44.43916996564318" lon="9.132767382552574"><ele>269.0</ele><time>2026-04-18T07:24:27Z</time></trkpt><trkpt lat="44.439342546754396" lon="9.13306920143697"><ele>267.0</ele><time>2026-04-18T07:24:28Z</time></trkpt><trkpt lat="44.439495689566996" lon="9.133368149187882"><ele>265.0</ele><time>2026-04-18T07:24:29Z</time></trkpt><trkpt lat="44.439641535933156" lon="9.133636873848051"><ele>264.3333333333333</ele><time>2026-04-18T07:24:30Z</time></trkpt><trkpt lat="44.43977000640815" lon="9.133890055639048"><ele>263.6666666666667</ele><time>2026-04-18T07:24:30.999Z</time></trkpt><trkpt lat="44.4398888181536" lon="9.134152218766848"><ele>263.0</ele><time>2026-04-18T07:24:31.999Z</time></trkpt><trkpt lat="44.44000542270566" lon="9.134409187744957"><ele>263.0</ele><time>2026-04-18T07:24:32.999Z</time></trkpt><trkpt lat="44.440124750272446" lon="9.134672862084859"><ele>263.0</ele><time>2026-04-18T07:24:33.999Z</time></trkpt><trkpt lat="44.440233026037156" lon="9.134954806526638"><ele>259.0</ele><time>2026-04-18T07:24:34.999Z</time></trkpt><trkpt lat="44.44033739220275" lon="9.13522271010462"><ele>255.0</ele><time>2026-04-18T07:24:35.999Z</time></trkpt><trkpt lat="44.44043197678228" lon="9.135489685568647"><ele>251.0</ele><time>2026-04-18T07:24:36.999Z</time></trkpt><trkpt lat="44.44053660693877" lon="9.135763657137772"><ele>250.0</ele><time>2026-04-18T07:24:37.999Z</time></trkpt><trkpt lat="44.44064494074643" lon="9.13604694410971"><ele>249.0</ele><time>2026-04-18T07:24:38.999Z</time></trkpt><trkpt lat="44.440746990466614" lon="9.136302546682368"><ele>248.0</ele><time>2026-04-18T07:24:39.999Z</time></trkpt><trkpt lat="44.44083018829091" lon="9.136536286194042"><ele>247.0</ele><time>2026-04-18T07:24:40.999Z</time></trkpt><trkpt lat="44.44090857587657" lon="9.136749753474733"><ele>246.0</ele><time>2026-04-18T07:24:41.999Z</time></trkpt><trkpt lat="44.44098827116133" lon="9.13694602869839"><ele>245.0</ele><time>2026-04-18T07:24:42.999Z</time></trkpt><trkpt lat="44.44106242987604" lon="9.137131903351605"><ele>245.0</ele><time>2026-04-18T07:24:43.999Z</time></trkpt><trkpt lat="44.44113170439014" lon="9.137311273650292"><ele>245.0</ele><time>2026-04-18T07:24:44.999Z</time></trkpt><trkpt lat="44.44120439254493" lon="9.137494872204066"><ele>245.0</ele><time>2026-04-18T07:24:45.999Z</time></trkpt><trkpt lat="44.441275269694245" lon="9.137688663570113"><ele>242.0</ele><time>2026-04-18T07:24:46.999Z</time></trkpt><trkpt lat="44.44134662956207" lon="9.137859933569114"><ele>239.0</ele><time>2026-04-18T07:24:47.999Z</time></trkpt><trkpt lat="44.44140705455088" lon="9.138007710787202"><ele>236.0</ele><time>2026-04-18T07:24:48.999Z</time></trkpt><trkpt lat="44.44146464936225" lon="9.13815821252158"><ele>233.0</ele><time>2026-04-18T07:24:49.999Z</time></trkpt><trkpt lat="44.441503177314125" lon="9.138314157655085"><ele>232.75</ele><time>2026-04-18T07:24:50.999Z</time></trkpt><trkpt lat="44.44152885147987" lon="9.138462259502768"><ele>232.5</ele><time>2026-04-18T07:24:51.999Z</time></trkpt><trkpt lat="44.44153149360836" lon="9.138653832301902"><ele>232.25</ele><time>2026-04-18T07:24:52.999Z</time></trkpt><trkpt lat="44.44154871929554" lon="9.138840405352553"><ele>232.0</ele><time>2026-04-18T07:24:53.999Z</time></trkpt><trkpt lat="44.44155544201839" lon="9.138997314633542"><ele>232.39999999999998</ele><time>2026-04-18T07:24:54.999Z</time></trkpt><trkpt lat="44.44155418995565" lon="9.139139387306226"><ele>232.79999999999998</ele><time>2026-04-18T07:24:55.999Z</time></trkpt><trkpt lat="44.441543269663" lon="9.139283057922215"><ele>233.2</ele><time>2026-04-18T07:24:56.999Z</time></trkpt><trkpt lat="44.44153535345451" lon="9.139440510034719"><ele>233.6</ele><time>2026-04-18T07:24:57.999Z</time></trkpt><trkpt lat="44.44151086980503" lon="9.13959146433864"><ele>234.0</ele><time>2026-04-18T07:24:58.999Z</time></trkpt><trkpt lat="44.441464717795824" lon="9.139765894364846"><ele>233.25</ele><time>2026-04-18T07:24:59.999Z</time></trkpt><trkpt lat="44.44142500107837" lon="9.13994348832425"><ele>232.5</ele><time>2026-04-18T07:25:00.999Z</time></trkpt><trkpt lat="44.44141406292289" lon="9.140128117074052"><ele>231.75</ele><time>2026-04-18T07:25:01.999Z</time></trkpt><trkpt lat="44.4414324974803" lon="9.140340221754235"><ele>231.0</ele><time>2026-04-18T07:25:02.999Z</time></trkpt><trkpt lat="44.44148142731731" lon="9.140559900675385"><ele>230.5</ele><time>2026-04-18T07:25:03.999Z</time></trkpt><trkpt lat="44.44153334700945" lon="9.140755581677023"><ele>230.0</ele><time>2026-04-18T07:25:04.999Z</time></trkpt><trkpt lat="44.44156799050359" lon="9.140938643419858"><ele>229.5</ele><time>2026-04-18T07:25:05.999Z</time></trkpt><trkpt lat="44.441610957964244" lon="9.141101972535793"><ele>229.0</ele><time>2026-04-18T07:25:06.999Z</time></trkpt><trkpt lat="44.44163834696782" lon="9.141269654206345"><ele>229.0</ele><time>2026-04-18T07:25:07.999Z</time></trkpt><trkpt lat="44.44163191065432" lon="9.141423520563583"><ele>229.0</ele><time>2026-04-18T07:25:08.999Z</time></trkpt><trkpt lat="44.4415878193479" lon="9.14158455674584"><ele>229.0</ele><time>2026-04-18T07:25:09.999Z</time></trkpt><trkpt lat="44.44152145909122" lon="9.141729708952887"><ele>229.0</ele><time>2026-04-18T07:25:10.999Z</time></trkpt><trkpt lat="44.441372471617214" lon="9.141833889464909"><ele>232.33333333333331</ele><time>2026-04-18T07:25:11.999Z</time></trkpt><trkpt lat="44.44120960437643" lon="9.14191091275752"><ele>235.66666666666669</ele><time>2026-04-18T07:25:12.999Z</time></trkpt><trkpt lat="44.44107316281484" lon="9.141986221565908"><ele>239.0</ele><time>2026-04-18T07:25:13.999Z</time></trkpt><trkpt lat="44.440935529402026" lon="9.142086835151558"><ele>239.0</ele><time>2026-04-18T07:25:14.999Z</time></trkpt><trkpt lat="44.440792117761916" lon="9.142190794050787"><ele>239.0</ele><time>2026-04-18T07:25:15.999Z</time></trkpt><trkpt lat="44.44066838284096" lon="9.142292387100747"><ele>239.0</ele><time>2026-04-18T07:25:16.999Z</time></trkpt><trkpt lat="44.44051773550925" lon="9.142395776623912"><ele>240.0</ele><time>2026-04-18T07:25:17.999Z</time></trkpt><trkpt lat="44.440381322653934" lon="9.142482629297328"><ele>241.0</ele><time>2026-04-18T07:25:18.999Z</time></trkpt><trkpt lat="44.44025618045111" lon="9.142561933102856"><ele>242.0</ele><time>2026-04-18T07:25:19.999Z</time></trkpt><trkpt lat="44.44014829740746" lon="9.142629206116444"><ele>243.0</ele><time>2026-04-18T07:25:20.999Z</time></trkpt><trkpt lat="44.440040066074424" lon="9.142714969213593"><ele>243.0</ele><time>2026-04-18T07:25:21.999Z</time></trkpt><trkpt lat="44.439942271298165" lon="9.14279082302382"><ele>243.0</ele><time>2026-04-18T07:25:22.999Z</time></trkpt><trkpt lat="44.439844920772416" lon="9.14289395456103"><ele>243.0</ele><time>2026-04-18T07:25:23.999Z</time></trkpt><trkpt lat="44.43976353844027" lon="9.143026562286286"><ele>243.0</ele><time>2026-04-18T07:25:24.999Z</time></trkpt><trkpt lat="44.439678119992074" lon="9.143160928649904"><ele>246.0</ele><time>2026-04-18T07:25:25.999Z</time></trkpt><trkpt lat="44.439604190588746" lon="9.143279041414312"><ele>249.0</ele><time>2026-04-18T07:25:26.999Z</time></trkpt><trkpt lat="44.43952287455456" lon="9.143381086664105"><ele>252.0</ele><time>2026-04-18T07:25:27.999Z</time></trkpt><trkpt lat="44.4394464845571" lon="9.143500230176207"><ele>255.0</ele><time>2026-04-18T07:25:28.999Z</time></trkpt><trkpt lat="44.43937503886359" lon="9.143635509828545"><ele>255.0</ele><time>2026-04-18T07:25:29.999Z</time></trkpt><trkpt lat="44.439319255555674" lon="9.143767837399507"><ele>255.0</ele><time>2026-04-18T07:25:30.999Z</time></trkpt><trkpt lat="44.43928315946165" lon="9.143892676014568"><ele>255.0</ele><time>2026-04-18T07:25:31.999Z</time></trkpt><trkpt lat="44.43925361175798" lon="9.144044975380055"><ele>255.0</ele><time>2026-04-18T07:25:32.999Z</time></trkpt><trkpt lat="44.43925587659244" lon="9.144200042327915"><ele>255.0</ele><time>2026-04-18T07:25:33.999Z</time></trkpt><trkpt lat="44.43928995630728" lon="9.144342815178636"><ele>255.75</ele><time>2026-04-18T07:25:34.999Z</time></trkpt><trkpt lat="44.439312106009396" lon="9.144500523047988"><ele>256.5</ele><time>2026-04-18T07:25:36Z</time></trkpt><trkpt lat="44.439355273395414" lon="9.144663159829863"><ele>257.25</ele><time>2026-04-18T07:25:37Z</time></trkpt><trkpt lat="44.439401056497026" lon="9.144816100413793"><ele>258.0</ele><time>2026-04-18T07:25:38Z</time></trkpt><trkpt lat="44.43947338782327" lon="9.144924219152013"><ele>258.0</ele><time>2026-04-18T07:25:39Z</time></trkpt><trkpt lat="44.43955424386078" lon="9.145013977980959"><ele>258.0</ele><time>2026-04-18T07:25:40Z</time></trkpt><trkpt lat="44.43963916026665" lon="9.145107104142351"><ele>258.0</ele><time>2026-04-18T07:25:41Z</time></trkpt><trkpt lat="44.4397171633138" lon="9.145197261275882"><ele>258.0</ele><time>2026-04-18T07:25:42Z</time></trkpt><trkpt lat="44.43979570740072" lon="9.145298175204013"><ele>258.0</ele><time>2026-04-18T07:25:43Z</time></trkpt><trkpt lat="44.43986780903642" lon="9.14539438055155"><ele>252.8</ele><time>2026-04-18T07:25:44Z</time></trkpt><trkpt lat="44.43993538662504" lon="9.145479931563884"><ele>247.60000000000002</ele><time>2026-04-18T07:25:45Z</time></trkpt><trkpt lat="44.44001232038667" lon="9.145581288095197"><ele>242.39999999999998</ele><time>2026-04-18T07:25:46Z</time></trkpt><trkpt lat="44.44008663856823" lon="9.145692419259253"><ele>237.2</ele><time>2026-04-18T07:25:47Z</time></trkpt><trkpt lat="44.44015671619929" lon="9.145819762406722"><ele>232.0</ele><time>2026-04-18T07:25:48Z</time></trkpt><trkpt lat="44.44019960265509" lon="9.145970597703142"><ele>232.0</ele><time>2026-04-18T07:25:49Z</time></trkpt><trkpt lat="44.440242676635535" lon="9.146115258603977"><ele>232.0</ele><time>2026-04-18T07:25:50Z</time></trkpt><trkpt lat="44.44029364916365" lon="9.146274904982484"><ele>232.0</ele><time>2026-04-18T07:25:51Z</time></trkpt><trkpt lat="44.44035297290223" lon="9.146447838860553"><ele>232.0</ele><time>2026-04-18T07:25:52Z</time></trkpt><trkpt lat="44.44039906971891" lon="9.146606334734681"><ele>235.0</ele><time>2026-04-18T07:25:53Z</time></trkpt><trkpt lat="44.440444123238066" lon="9.146742360603584"><ele>238.0</ele><time>2026-04-18T07:25:54Z</time></trkpt><trkpt lat="44.44048334224907" lon="9.146872011407371"><ele>241.0</ele><time>2026-04-18T07:25:55Z</time></trkpt><trkpt lat="44.440525425459114" lon="9.14700253573398"><ele>244.0</ele><time>2026-04-18T07:25:56Z</time></trkpt><trkpt lat="44.44055432460962" lon="9.147157220037762"><ele>247.0</ele><time>2026-04-18T07:25:57Z</time></trkpt><trkpt lat="44.44055790797759" lon="9.147299968518942"><ele>245.5</ele><time>2026-04-18T07:25:58Z</time></trkpt><trkpt lat="44.44053714186437" lon="9.147430938256518"><ele>244.0</ele><time>2026-04-18T07:25:59Z</time></trkpt><trkpt lat="44.44045838653706" lon="9.147568168531745"><ele>242.5</ele><time>2026-04-18T07:26:00Z</time></trkpt><trkpt lat="44.440413754903254" lon="9.147735366122307"><ele>241.0</ele><time>2026-04-18T07:26:01Z</time></trkpt><trkpt lat="44.44034841336767" lon="9.14787037571385"><ele>241.0</ele><time>2026-04-18T07:26:02Z</time></trkpt><trkpt lat="44.44028517146997" lon="9.147991048454186"><ele>241.0</ele><time>2026-04-18T07:26:03Z</time></trkpt><trkpt lat="44.44021522335854" lon="9.14812606545246"><ele>241.0</ele><time>2026-04-18T07:26:04Z</time></trkpt><trkpt lat="44.440149994628136" lon="9.148264044957557"><ele>241.0</ele><time>2026-04-18T07:26:05Z</time></trkpt><trkpt lat="44.4400944153742" lon="9.148425456013978"><ele>235.5</ele><time>2026-04-18T07:26:06Z</time></trkpt><trkpt lat="44.44004678342776" lon="9.148590924253254"><ele>230.0</ele><time>2026-04-18T07:26:07Z</time></trkpt><trkpt lat="44.43999118053344" lon="9.148739485604153"><ele>224.5</ele><time>2026-04-18T07:26:08Z</time></trkpt><trkpt lat="44.43992417521215" lon="9.148876479076938"><ele>219.0</ele><time>2026-04-18T07:26:09Z</time></trkpt><trkpt lat="44.439836477051365" lon="9.149004908871028"><ele>217.0</ele><time>2026-04-18T07:26:10Z</time></trkpt><trkpt lat="44.43974224687095" lon="9.149126419067878"><ele>215.0</ele><time>2026-04-18T07:26:11Z</time></trkpt><trkpt lat="44.43966735003028" lon="9.149213910249387"><ele>213.0</ele><time>2026-04-18T07:26:12Z</time></trkpt><trkpt lat="44.43959704576785" lon="9.149326942880169"><ele>211.0</ele><time>2026-04-18T07:26:13Z</time></trkpt><trkpt lat="44.43954127367723" lon="9.149490541808504"><ele>214.75</ele><time>2026-04-18T07:26:14Z</time></trkpt><trkpt lat="44.43950957720835" lon="9.14964736633297"><ele>218.5</ele><time>2026-04-18T07:26:15Z</time></trkpt><trkpt lat="44.43949872492747" lon="9.149806586902166"><ele>222.25</ele><time>2026-04-18T07:26:16Z</time></trkpt><trkpt lat="44.43951041227074" lon="9.149977988584393"><ele>226.0</ele><time>2026-04-18T07:26:17Z</time></trkpt><trkpt lat="44.43954126384535" lon="9.15013225881063"><ele>226.0</ele><time>2026-04-18T07:26:18Z</time></trkpt><trkpt lat="44.43956454456953" lon="9.150283201161514"><ele>226.00000000000003</ele><time>2026-04-18T07:26:19Z</time></trkpt><trkpt lat="44.43958979603956" lon="9.150424468482946"><ele>226.00000000000003</ele><time>2026-04-18T07:26:20Z</time></trkpt><trkpt lat="44.43961796047691" lon="9.150572796577212"><ele>226.0</ele><time>2026-04-18T07:26:21Z</time></trkpt><trkpt lat="44.43964900644854" lon="9.150741467083135"><ele>226.0</ele><time>2026-04-18T07:26:22Z</time></trkpt><trkpt lat="44.439620948446816" lon="9.150917749387107"><ele>225.75</ele><time>2026-04-18T07:26:23Z</time></trkpt><trkpt lat="44.43962010980031" lon="9.15108943301199"><ele>225.5</ele><time>2026-04-18T07:26:24Z</time></trkpt><trkpt lat="44.439603870418836" lon="9.151241959141084"><ele>225.25</ele><time>2026-04-18T07:26:25Z</time></trkpt><trkpt lat="44.43957509333895" lon="9.151402286953092"><ele>225.0</ele><time>2026-04-18T07:26:26Z</time></trkpt><trkpt lat="44.439554286511125" lon="9.151589494117225"><ele>223.6</ele><time>2026-04-18T07:26:27Z</time></trkpt><trkpt lat="44.43953261698164" lon="9.151757479902072"><ele>222.2</ele><time>2026-04-18T07:26:28Z</time></trkpt><trkpt lat="44.43950495989797" lon="9.151910219808073"><ele>220.8</ele><time>2026-04-18T07:26:29Z</time></trkpt><trkpt lat="44.439482882312305" lon="9.152051422553445"><ele>219.4</ele><time>2026-04-18T07:26:30Z</time></trkpt><trkpt lat="44.43946896474492" lon="9.152187610462395"><ele>218.0</ele><time>2026-04-18T07:26:31Z</time></trkpt><trkpt lat="44.439434093248785" lon="9.152299026011748"><ele>215.60000000000002</ele><time>2026-04-18T07:26:32Z</time></trkpt><trkpt lat="44.439417549929566" lon="9.152411276420388"><ele>213.20000000000002</ele><time>2026-04-18T07:26:33Z</time></trkpt><trkpt lat="44.439409777303815" lon="9.152514855276575"><ele>210.8</ele><time>2026-04-18T07:26:34Z</time></trkpt><trkpt lat="44.43941078605181" lon="9.152629810808524"><ele>208.4</ele><time>2026-04-18T07:26:35Z</time></trkpt><trkpt lat="44.43943141463501" lon="9.152775926974424"><ele>206.0</ele><time>2026-04-18T07:26:36Z</time></trkpt><trkpt lat="44.439475592776354" lon="9.152915284605273"><ele>206.0</ele><time>2026-04-18T07:26:36.999Z</time></trkpt><trkpt lat="44.43954585322874" lon="9.153035377628708"><ele>206.0</ele><time>2026-04-18T07:26:37.999Z</time></trkpt><trkpt lat="44.43962871706205" lon="9.153163279687558"><ele>206.0</ele><time>2026-04-18T07:26:38.999Z</time></trkpt><trkpt lat="44.43970736867205" lon="9.153269453603121"><ele>206.0</ele><time>2026-04-18T07:26:39.999Z</time></trkpt><trkpt lat="44.43977816941548" lon="9.153363309964908"><ele>206.0</ele><time>2026-04-18T07:26:40.999Z</time></trkpt><trkpt lat="44.43984183481057" lon="9.153464771682184"><ele>206.16666666666669</ele><time>2026-04-18T07:26:41.999Z</time></trkpt><trkpt lat="44.43990419230696" lon="9.153566945813251"><ele>206.33333333333334</ele><time>2026-04-18T07:26:42.999Z</time></trkpt><trkpt lat="44.43994573130872" lon="9.15368202553305"><ele>206.5</ele><time>2026-04-18T07:26:43.999Z</time></trkpt><trkpt lat="44.43995819047881" lon="9.153803230423385"><ele>206.66666666666669</ele><time>2026-04-18T07:26:44.999Z</time></trkpt><trkpt lat="44.43995084681058" lon="9.153931101537966"><ele>206.83333333333334</ele><time>2026-04-18T07:26:45.999Z</time></trkpt><trkpt lat="44.43993541293758" lon="9.154036651218217"><ele>207.0</ele><time>2026-04-18T07:26:46.999Z</time></trkpt><trkpt lat="44.439911544008304" lon="9.154133293106115"><ele>205.8</ele><time>2026-04-18T07:26:47.999Z</time></trkpt><trkpt lat="44.43986316731246" lon="9.154214583228447"><ele>204.6</ele><time>2026-04-18T07:26:48.999Z</time></trkpt><trkpt lat="44.43979695829681" lon="9.154297331890968"><ele>203.4</ele><time>2026-04-18T07:26:49.999Z</time></trkpt><trkpt lat="44.43972401709346" lon="9.154393553138883"><ele>202.20000000000002</ele><time>2026-04-18T07:26:50.999Z</time></trkpt><trkpt lat="44.439658594601006" lon="9.154490321667748"><ele>201.0</ele><time>2026-04-18T07:26:51.999Z</time></trkpt><trkpt lat="44.439601456531136" lon="9.154592134151597"><ele>201.4</ele><time>2026-04-18T07:26:52.999Z</time></trkpt><trkpt lat="44.43955195689209" lon="9.154713927561534"><ele>201.8</ele><time>2026-04-18T07:26:53.999Z</time></trkpt><trkpt lat="44.43949809179977" lon="9.154843377053556"><ele>202.20000000000002</ele><time>2026-04-18T07:26:54.999Z</time></trkpt><trkpt lat="44.43942588881036" lon="9.154960007140783"><ele>202.60000000000002</ele><time>2026-04-18T07:26:55.999Z</time></trkpt><trkpt lat="44.4393422941068" lon="9.15504890329176"><ele>203.0</ele><time>2026-04-18T07:26:56.999Z</time></trkpt><trkpt lat="44.439244793776744" lon="9.155133957089118"><ele>203.0</ele><time>2026-04-18T07:26:57.999Z</time></trkpt><trkpt lat="44.43913514374656" lon="9.155222233348397"><ele>203.0</ele><time>2026-04-18T07:26:58.999Z</time></trkpt><trkpt lat="44.4390335092462" lon="9.155300551886697"><ele>203.0</ele><time>2026-04-18T07:26:59.999Z</time></trkpt><trkpt lat="44.43893749975372" lon="9.155360621466553"><ele>203.0</ele><time>2026-04-18T07:27:00.999Z</time></trkpt><trkpt lat="44.43883117666107" lon="9.155414000989904"><ele>202.8</ele><time>2026-04-18T07:27:01.999Z</time></trkpt><trkpt lat="44.438725816939716" lon="9.155460477005827"><ele>202.60000000000002</ele><time>2026-04-18T07:27:02.999Z</time></trkpt><trkpt lat="44.438616932430435" lon="9.155489889814755"><ele>202.39999999999998</ele><time>2026-04-18T07:27:03.999Z</time></trkpt><trkpt lat="44.43851478644515" lon="9.15552148265201"><ele>202.2</ele><time>2026-04-18T07:27:04.999Z</time></trkpt><trkpt lat="44.43841037902505" lon="9.15554648853044"><ele>202.0</ele><time>2026-04-18T07:27:05.999Z</time></trkpt><trkpt lat="44.43831603285826" lon="9.155568708947456"><ele>202.0</ele><time>2026-04-18T07:27:06.999Z</time></trkpt><trkpt lat="44.43822812613132" lon="9.155582744655629"><ele>202.0</ele><time>2026-04-18T07:27:07.999Z</time></trkpt><trkpt lat="44.43806805773356" lon="9.155622347381412"><ele>202.0</ele><time>2026-04-18T07:27:08.999Z</time></trkpt><trkpt lat="44.437962658265185" lon="9.155633438918063"><ele>202.0</ele><time>2026-04-18T07:27:09.999Z</time></trkpt><trkpt lat="44.43786362772508" lon="9.155647867992501"><ele>200.0</ele><time>2026-04-18T07:27:10.999Z</time></trkpt><trkpt lat="44.437757833463436" lon="9.155653771943594"><ele>198.0</ele><time>2026-04-18T07:27:11.999Z</time></trkpt><trkpt lat="44.437661743410146" lon="9.155662075364523"><ele>196.0</ele><time>2026-04-18T07:27:12.999Z</time></trkpt><trkpt lat="44.43756378671384" lon="9.155672686209336"><ele>194.0</ele><time>2026-04-18T07:27:13.999Z</time></trkpt><trkpt lat="44.4374543912933" lon="9.155662058104815"><ele>192.0</ele><time>2026-04-18T07:27:14.999Z</time></trkpt><trkpt lat="44.43733952342819" lon="9.155676082142758"><ele>192.0</ele><time>2026-04-18T07:27:15.999Z</time></trkpt><trkpt lat="44.43722063211557" lon="9.155690597387725"><ele>192.0</ele><time>2026-04-18T07:27:16.999Z</time></trkpt><trkpt lat="44.43709240655233" lon="9.155712973114957"><ele>192.0</ele><time>2026-04-18T07:27:17.999Z</time></trkpt><trkpt lat="44.43697502884922" lon="9.155722865582115"><ele>192.0</ele><time>2026-04-18T07:27:18.999Z</time></trkpt><trkpt lat="44.43685993292957" lon="9.155730505614663"><ele>192.2</ele><time>2026-04-18T07:27:19.999Z</time></trkpt><trkpt lat="44.436735181178" lon="9.155754248435034"><ele>192.39999999999998</ele><time>2026-04-18T07:27:20.999Z</time></trkpt><trkpt lat="44.43661906330371" lon="9.15581139444218"><ele>192.60000000000002</ele><time>2026-04-18T07:27:21.999Z</time></trkpt><trkpt lat="44.43652737878538" lon="9.155871535677772"><ele>192.8</ele><time>2026-04-18T07:27:22.999Z</time></trkpt><trkpt lat="44.43648542607575" lon="9.155962590355113"><ele>193.0</ele><time>2026-04-18T07:27:23.999Z</time></trkpt><trkpt lat="44.43644637897057" lon="9.15609320481623"><ele>193.0</ele><time>2026-04-18T07:27:24.999Z</time></trkpt><trkpt lat="44.43642852921497" lon="9.156246666074612"><ele>193.0</ele><time>2026-04-18T07:27:25.999Z</time></trkpt><trkpt lat="44.43643066851024" lon="9.156385300508937"><ele>193.0</ele><time>2026-04-18T07:27:26.999Z</time></trkpt><trkpt lat="44.43644144200401" lon="9.156510862085351"><ele>193.0</ele><time>2026-04-18T07:27:27.999Z</time></trkpt><trkpt lat="44.436444892228884" lon="9.156624263699706"><ele>193.0</ele><time>2026-04-18T07:27:28.999Z</time></trkpt><trkpt lat="44.436454714363464" lon="9.156744327618588"><ele>193.66666666666666</ele><time>2026-04-18T07:27:29.999Z</time></trkpt><trkpt lat="44.43647271435053" lon="9.156853373856947"><ele>194.33333333333331</ele><time>2026-04-18T07:27:30.999Z</time></trkpt><trkpt lat="44.43649008153691" lon="9.156948200075401"><ele>195.0</ele><time>2026-04-18T07:27:31.999Z</time></trkpt><trkpt lat="44.43652256427568" lon="9.15704780798682"><ele>195.66666666666669</ele><time>2026-04-18T07:27:32.999Z</time></trkpt><trkpt lat="44.43657578713825" lon="9.15715382304464"><ele>196.33333333333334</ele><time>2026-04-18T07:27:33.999Z</time></trkpt><trkpt lat="44.436632710336376" lon="9.157262033676918"><ele>197.0</ele><time>2026-04-18T07:27:34.999Z</time></trkpt><trkpt lat="44.436685953870914" lon="9.157354729737548"><ele>195.83333333333334</ele><time>2026-04-18T07:27:35.999Z</time></trkpt><trkpt lat="44.43674433303668" lon="9.157441462843929"><ele>194.66666666666669</ele><time>2026-04-18T07:27:36.999Z</time></trkpt><trkpt lat="44.43679262335008" lon="9.157508471485697"><ele>193.5</ele><time>2026-04-18T07:27:37.999Z</time></trkpt><trkpt lat="44.43684169386467" lon="9.157580223309056"><ele>192.33333333333334</ele><time>2026-04-18T07:27:39.999Z</time></trkpt><trkpt lat="44.43689372500671" lon="9.157641604765438"><ele>191.16666666666669</ele><time>2026-04-18T07:29:33.999Z</time></trkpt><trkpt lat="44.43700518470557" lon="9.157772083229151"><ele>190.0</ele><time>2026-04-18T07:29:35.999Z</time></trkpt><trkpt lat="44.43709689563075" lon="9.15786821993919"><ele>193.5</ele><time>2026-04-18T07:29:36.999Z</time></trkpt><trkpt lat="44.43718202619785" lon="9.157963732898471"><ele>197.0</ele><time>2026-04-18T07:29:37.999Z</time></trkpt><trkpt lat="44.43727304639466" lon="9.158088562269974"><ele>200.5</ele><time>2026-04-18T07:29:38.999Z</time></trkpt><trkpt lat="44.43734384583254" lon="9.158224376350066"><ele>204.0</ele><time>2026-04-18T07:29:39.999Z</time></trkpt><trkpt lat="44.43740054117365" lon="9.158363273145559"><ele>204.0</ele><time>2026-04-18T07:29:40.999Z</time></trkpt><trkpt lat="44.43744382210816" lon="9.158511551750882"><ele>204.0</ele><time>2026-04-18T07:29:41.999Z</time></trkpt><trkpt lat="44.437471224959744" lon="9.158699426492218"><ele>204.0</ele><time>2026-04-18T07:29:42.999Z</time></trkpt><trkpt lat="44.43750298183704" lon="9.158901307632394"><ele>204.0</ele><time>2026-04-18T07:29:43.999Z</time></trkpt><trkpt lat="44.43749293417788" lon="9.15908304870297"><ele>201.25</ele><time>2026-04-18T07:29:44.999Z</time></trkpt><trkpt lat="44.437470455639534" lon="9.159262247563047"><ele>198.5</ele><time>2026-04-18T07:29:45.999Z</time></trkpt><trkpt lat="44.437404697278545" lon="9.159440672377704"><ele>195.75</ele><time>2026-04-18T07:29:46.999Z</time></trkpt><trkpt lat="44.43730714756899" lon="9.15964559963871"><ele>193.0</ele><time>2026-04-18T07:29:48Z</time></trkpt><trkpt lat="44.4372271074224" lon="9.159862956314086"><ele>192.0</ele><time>2026-04-18T07:29:49Z</time></trkpt><trkpt lat="44.43717750470505" lon="9.160104981180439"><ele>191.0</ele><time>2026-04-18T07:29:50Z</time></trkpt><trkpt lat="44.43713799219966" lon="9.160322885992516"><ele>190.0</ele><time>2026-04-18T07:29:51Z</time></trkpt><trkpt lat="44.43707065833213" lon="9.160544383992033"><ele>189.25</ele><time>2026-04-18T07:29:52Z</time></trkpt><trkpt lat="44.436972533737986" lon="9.16073584687505"><ele>188.5</ele><time>2026-04-18T07:29:53Z</time></trkpt><trkpt lat="44.43690177968281" lon="9.160898591665354"><ele>187.75</ele><time>2026-04-18T07:29:54Z</time></trkpt><trkpt lat="44.43685295530445" lon="9.16107372414872"><ele>187.0</ele><time>2026-04-18T07:29:55Z</time></trkpt><trkpt lat="44.43680962821237" lon="9.161244756352335"><ele>187.0</ele><time>2026-04-18T07:29:56Z</time></trkpt><trkpt lat="44.436782237877566" lon="9.16139674277484"><ele>187.0</ele><time>2026-04-18T07:29:57Z</time></trkpt><trkpt lat="44.43677145938125" lon="9.161558267812742"><ele>187.0</ele><time>2026-04-18T07:29:58Z</time></trkpt><trkpt lat="44.43682675392762" lon="9.16176435750849"><ele>187.0</ele><time>2026-04-18T07:29:59Z</time></trkpt><trkpt lat="44.43694062497866" lon="9.161945863343401"><ele>187.0</ele><time>2026-04-18T07:30:00Z</time></trkpt><trkpt lat="44.43704129309078" lon="9.162101537835435"><ele>187.0</ele><time>2026-04-18T07:30:01Z</time></trkpt><trkpt lat="44.43705962552816" lon="9.162211536849286"><ele>187.0</ele><time>2026-04-18T07:30:02Z</time></trkpt><trkpt lat="44.43708981209745" lon="9.162387694431157"><ele>187.0</ele><time>2026-04-18T07:30:03Z</time></trkpt><trkpt lat="44.43704424927464" lon="9.162572548069722"><ele>185.0</ele><time>2026-04-18T07:30:04Z</time></trkpt><trkpt lat="44.43696581635584" lon="9.16273492811144"><ele>183.0</ele><time>2026-04-18T07:30:05Z</time></trkpt><trkpt lat="44.43684860008224" lon="9.16291750990981"><ele>181.0</ele><time>2026-04-18T07:30:06Z</time></trkpt><trkpt lat="44.43669758553027" lon="9.1631006537524"><ele>182.33333333333334</ele><time>2026-04-18T07:30:07Z</time></trkpt><trkpt lat="44.43654041002518" lon="9.16324708473565"><ele>183.66666666666666</ele><time>2026-04-18T07:30:08Z</time></trkpt><trkpt lat="44.43636398436973" lon="9.16336252768862"><ele>185.0</ele><time>2026-04-18T07:30:09Z</time></trkpt><trkpt lat="44.43617983122725" lon="9.163438298982143"><ele>185.0</ele><time>2026-04-18T07:30:10Z</time></trkpt><trkpt lat="44.4360176928534" lon="9.163508144411644"><ele>185.0</ele><time>2026-04-18T07:30:11Z</time></trkpt><trkpt lat="44.43588919663086" lon="9.163620344625032"><ele>185.0</ele><time>2026-04-18T07:30:12Z</time></trkpt><trkpt lat="44.43579011344885" lon="9.163749116507054"><ele>185.0</ele><time>2026-04-18T07:30:13Z</time></trkpt><trkpt lat="44.435723391552955" lon="9.163943798739995"><ele>185.0</ele><time>2026-04-18T07:30:14Z</time></trkpt><trkpt lat="44.43567186170933" lon="9.164174801803895"><ele>185.0</ele><time>2026-04-18T07:30:15Z</time></trkpt><trkpt lat="44.435596386155034" lon="9.164417106651873"><ele>185.33333333333331</ele><time>2026-04-18T07:30:16Z</time></trkpt><trkpt lat="44.43551169427825" lon="9.164672356267818"><ele>185.66666666666666</ele><time>2026-04-18T07:30:17Z</time></trkpt><trkpt lat="44.43542400430666" lon="9.164955701223356"><ele>186.0</ele><time>2026-04-18T07:30:18Z</time></trkpt><trkpt lat="44.435328313103376" lon="9.165252637948091"><ele>186.0</ele><time>2026-04-18T07:30:19Z</time></trkpt><trkpt lat="44.435226212422066" lon="9.165565758879847"><ele>186.0</ele><time>2026-04-18T07:30:20Z</time></trkpt><trkpt lat="44.435114130520915" lon="9.165906144251847"><ele>181.0</ele><time>2026-04-18T07:30:21Z</time></trkpt><trkpt lat="44.435006344743336" lon="9.166246705441957"><ele>176.0</ele><time>2026-04-18T07:30:22Z</time></trkpt><trkpt lat="44.43490882792985" lon="9.16653941005619"><ele>176.0</ele><time>2026-04-18T07:30:23Z</time></trkpt><trkpt lat="44.43482569045077" lon="9.1668127241219"><ele>176.0</ele><time>2026-04-18T07:30:24Z</time></trkpt><trkpt lat="44.43474623087038" lon="9.167065675635202"><ele>176.0</ele><time>2026-04-18T07:30:25Z</time></trkpt><trkpt lat="44.43466519753264" lon="9.167339070622397"><ele>177.33333333333331</ele><time>2026-04-18T07:30:26Z</time></trkpt><trkpt lat="44.434589432745135" lon="9.167637557036665"><ele>178.66666666666666</ele><time>2026-04-18T07:30:27Z</time></trkpt><trkpt lat="44.4345277729044" lon="9.16792745428202"><ele>180.0</ele><time>2026-04-18T07:30:28Z</time></trkpt><trkpt lat="44.43447618703008" lon="9.168207238814281"><ele>180.0</ele><time>2026-04-18T07:30:29Z</time></trkpt><trkpt lat="44.4344349440183" lon="9.168502875979494"><ele>180.0</ele><time>2026-04-18T07:30:30Z</time></trkpt><trkpt lat="44.43439167265723" lon="9.168770977968144"><ele>180.0</ele><time>2026-04-18T07:30:31Z</time></trkpt><trkpt lat="44.43436586079697" lon="9.169032134363206"><ele>179.66666666666666</ele><time>2026-04-18T07:30:32Z</time></trkpt><trkpt lat="44.434276193771275" lon="9.16931197579307"><ele>179.33333333333331</ele><time>2026-04-18T07:30:33Z</time></trkpt><trkpt lat="44.43423610747072" lon="9.169585013490407"><ele>179.0</ele><time>2026-04-18T07:30:34Z</time></trkpt><trkpt lat="44.43419715658034" lon="9.169831633100053"><ele>179.33333333333331</ele><time>2026-04-18T07:30:35Z</time></trkpt><trkpt lat="44.43415772683265" lon="9.170076279235799"><ele>179.66666666666666</ele><time>2026-04-18T07:30:36Z</time></trkpt><trkpt lat="44.43411675667583" lon="9.170323998333915"><ele>180.0</ele><time>2026-04-18T07:30:37Z</time></trkpt><trkpt lat="44.434107235609055" lon="9.170573086838443"><ele>182.0</ele><time>2026-04-18T07:30:38Z</time></trkpt><trkpt lat="44.43412825567883" lon="9.170823855705727"><ele>184.0</ele><time>2026-04-18T07:30:39Z</time></trkpt><trkpt lat="44.43416071398285" lon="9.171079024251744"><ele>186.0</ele><time>2026-04-18T07:30:40Z</time></trkpt><trkpt lat="44.434200697684034" lon="9.171362358139287"><ele>186.33333333333334</ele><time>2026-04-18T07:30:41Z</time></trkpt><trkpt lat="44.43424162621334" lon="9.171645354660583"><ele>186.66666666666669</ele><time>2026-04-18T07:30:42Z</time></trkpt><trkpt lat="44.43428305464718" lon="9.171885499398048"><ele>187.0</ele><time>2026-04-18T07:30:43Z</time></trkpt><trkpt lat="44.43431129869926" lon="9.172108216127654"><ele>187.0</ele><time>2026-04-18T07:30:44Z</time></trkpt><trkpt lat="44.434307264785865" lon="9.172311622234245"><ele>187.0</ele><time>2026-04-18T07:30:45Z</time></trkpt><trkpt lat="44.43431954845434" lon="9.172536312618185"><ele>187.0</ele><time>2026-04-18T07:30:46Z</time></trkpt><trkpt lat="44.43433344603099" lon="9.172770000888613"><ele>186.75</ele><time>2026-04-18T07:30:47Z</time></trkpt><trkpt lat="44.434341263360146" lon="9.172969708565134"><ele>186.5</ele><time>2026-04-18T07:30:48Z</time></trkpt><trkpt lat="44.43434323014071" lon="9.173167714594886"><ele>186.25</ele><time>2026-04-18T07:30:49Z</time></trkpt><trkpt lat="44.434315887958874" lon="9.173378734163922"><ele>186.0</ele><time>2026-04-18T07:30:50Z</time></trkpt><trkpt lat="44.43426298061115" lon="9.173593194827513"><ele>184.0</ele><time>2026-04-18T07:30:50.999Z</time></trkpt><trkpt lat="44.434160401545704" lon="9.173768504268537"><ele>182.0</ele><time>2026-04-18T07:30:51.999Z</time></trkpt><trkpt lat="44.434060766199615" lon="9.17391280548289"><ele>180.0</ele><time>2026-04-18T07:30:52.999Z</time></trkpt><trkpt lat="44.43395425887415" lon="9.17403648237103"><ele>178.0</ele><time>2026-04-18T07:30:53.999Z</time></trkpt><trkpt lat="44.43384365886158" lon="9.174112050055532"><ele>175.25</ele><time>2026-04-18T07:30:54.999Z</time></trkpt><trkpt lat="44.43372043169097" lon="9.174122987438533"><ele>172.5</ele><time>2026-04-18T07:30:55.999Z</time></trkpt><trkpt lat="44.4335955840729" lon="9.174069361451439"><ele>169.75</ele><time>2026-04-18T07:30:56.999Z</time></trkpt><trkpt lat="44.433463407440165" lon="9.173992788905213"><ele>167.0</ele><time>2026-04-18T07:30:57.999Z</time></trkpt><trkpt lat="44.43333430955378" lon="9.173961636810379"><ele>167.0</ele><time>2026-04-18T07:30:58.999Z</time></trkpt><trkpt lat="44.43322073577643" lon="9.173978964770077"><ele>167.0</ele><time>2026-04-18T07:30:59.999Z</time></trkpt><trkpt lat="44.43311962412061" lon="9.174030631623179"><ele>167.0</ele><time>2026-04-18T07:31:00.999Z</time></trkpt><trkpt lat="44.43303545842645" lon="9.174114045676859"><ele>167.0</ele><time>2026-04-18T07:31:01.999Z</time></trkpt><trkpt lat="44.432983629289126" lon="9.174255693148307"><ele>167.0</ele><time>2026-04-18T07:31:02.999Z</time></trkpt><trkpt lat="44.432963332689084" lon="9.174436399596"><ele>168.66666666666666</ele><time>2026-04-18T07:31:03.999Z</time></trkpt><trkpt lat="44.43295070332035" lon="9.174680737189655"><ele>170.33333333333334</ele><time>2026-04-18T07:31:04.999Z</time></trkpt><trkpt lat="44.43293040575539" lon="9.174904983760053"><ele>172.0</ele><time>2026-04-18T07:31:05.999Z</time></trkpt><trkpt lat="44.43290536057663" lon="9.175094124498365"><ele>172.0</ele><time>2026-04-18T07:31:06.999Z</time></trkpt><trkpt lat="44.43286835031314" lon="9.175284345291935"><ele>172.0</ele><time>2026-04-18T07:31:07.999Z</time></trkpt><trkpt lat="44.43284822775683" lon="9.175491586359085"><ele>172.0</ele><time>2026-04-18T07:31:08.999Z</time></trkpt><trkpt lat="44.43284660823404" lon="9.175720482933452"><ele>169.75</ele><time>2026-04-18T07:31:09.999Z</time></trkpt><trkpt lat="44.432864170944136" lon="9.175923830875531"><ele>167.5</ele><time>2026-04-18T07:31:10.999Z</time></trkpt><trkpt lat="44.432886789262994" lon="9.176110402940912"><ele>165.25</ele><time>2026-04-18T07:31:11.999Z</time></trkpt><trkpt lat="44.43290460198254" lon="9.176283568216034"><ele>163.0</ele><time>2026-04-18T07:31:12.999Z</time></trkpt><trkpt lat="44.4329233992561" lon="9.176451244744122"><ele>162.5</ele><time>2026-04-18T07:31:13.999Z</time></trkpt><trkpt lat="44.43294690224318" lon="9.176641441905982"><ele>162.0</ele><time>2026-04-18T07:31:14.999Z</time></trkpt><trkpt lat="44.43300169012118" lon="9.176822494993747"><ele>161.5</ele><time>2026-04-18T07:31:15.999Z</time></trkpt><trkpt lat="44.43304559738953" lon="9.176988525842665"><ele>161.0</ele><time>2026-04-18T07:31:16.999Z</time></trkpt><trkpt lat="44.43306999463342" lon="9.177139678556529"><ele>161.5</ele><time>2026-04-18T07:31:17.999Z</time></trkpt><trkpt lat="44.4330736465539" lon="9.177287072444331"><ele>162.0</ele><time>2026-04-18T07:31:18.999Z</time></trkpt><trkpt lat="44.43307826971299" lon="9.177422474149639"><ele>162.5</ele><time>2026-04-18T07:31:19.999Z</time></trkpt><trkpt lat="44.43309151432558" lon="9.177539768187946"><ele>163.0</ele><time>2026-04-18T07:31:20.999Z</time></trkpt><trkpt lat="44.43309913938358" lon="9.177653250749792"><ele>163.5</ele><time>2026-04-18T07:31:21.999Z</time></trkpt><trkpt lat="44.43310368643229" lon="9.17775509436093"><ele>164.0</ele><time>2026-04-18T07:31:22.999Z</time></trkpt><trkpt lat="44.43310546425762" lon="9.177855092795276"><ele>164.0</ele><time>2026-04-18T07:31:23.999Z</time></trkpt><trkpt lat="44.433115784014724" lon="9.177965988991064"><ele>164.0</ele><time>2026-04-18T07:31:24.999Z</time></trkpt><trkpt lat="44.43311857251767" lon="9.178087487795166"><ele>164.0</ele><time>2026-04-18T07:31:25.999Z</time></trkpt><trkpt lat="44.43309113241532" lon="9.17821567422306"><ele>164.0</ele><time>2026-04-18T07:31:26.999Z</time></trkpt><trkpt lat="44.43301904105095" lon="9.178330770877047"><ele>164.0</ele><time>2026-04-18T07:31:27.999Z</time></trkpt><trkpt lat="44.43290318302652" lon="9.178435049092881"><ele>162.25</ele><time>2026-04-18T07:31:28.999Z</time></trkpt><trkpt lat="44.432809860400006" lon="9.178519052259949"><ele>160.5</ele><time>2026-04-18T07:31:29.999Z</time></trkpt><trkpt lat="44.43271635296965" lon="9.17861631130713"><ele>158.75</ele><time>2026-04-18T07:31:30.999Z</time></trkpt><trkpt lat="44.43260892818361" lon="9.178700204450212"><ele>157.0</ele><time>2026-04-18T07:31:31.999Z</time></trkpt><trkpt lat="44.43249350374915" lon="9.178754588798473"><ele>157.0</ele><time>2026-04-18T07:31:32.999Z</time></trkpt><trkpt lat="44.43238762643226" lon="9.178794290168504"><ele>157.0</ele><time>2026-04-18T07:31:33.999Z</time></trkpt><trkpt lat="44.43228622718895" lon="9.178841059649624"><ele>157.0</ele><time>2026-04-18T07:31:34.999Z</time></trkpt><trkpt lat="44.43216863188484" lon="9.178916934955362"><ele>157.0</ele><time>2026-04-18T07:31:35.999Z</time></trkpt><trkpt lat="44.432050942796394" lon="9.17903260484877"><ele>158.0</ele><time>2026-04-18T07:31:36.999Z</time></trkpt><trkpt lat="44.4319341656638" lon="9.179147256340185"><ele>159.0</ele><time>2026-04-18T07:31:37.999Z</time></trkpt><trkpt lat="44.43182704217354" lon="9.179236215754068"><ele>160.0</ele><time>2026-04-18T07:31:38.999Z</time></trkpt><trkpt lat="44.4317233956679" lon="9.179330429674089"><ele>161.0</ele><time>2026-04-18T07:31:39.999Z</time></trkpt><trkpt lat="44.43161918225944" lon="9.179425484719255"><ele>161.0</ele><time>2026-04-18T07:31:40.999Z</time></trkpt><trkpt lat="44.431524719699354" lon="9.179516583405746"><ele>161.0</ele><time>2026-04-18T07:31:41.999Z</time></trkpt><trkpt lat="44.43141877982416" lon="9.179615803709275"><ele>161.0</ele><time>2026-04-18T07:31:42.999Z</time></trkpt><trkpt lat="44.43132104779268" lon="9.179742673557088"><ele>161.0</ele><time>2026-04-18T07:31:43.999Z</time></trkpt><trkpt lat="44.43122953219232" lon="9.179881685793315"><ele>159.5</ele><time>2026-04-18T07:31:44.999Z</time></trkpt><trkpt lat="44.43113830434259" lon="9.180011886286357"><ele>158.0</ele><time>2026-04-18T07:31:45.999Z</time></trkpt><trkpt lat="44.43103484651457" lon="9.180129300403966"><ele>156.5</ele><time>2026-04-18T07:31:46.999Z</time></trkpt><trkpt lat="44.43095286521672" lon="9.18024957524922"><ele>155.0</ele><time>2026-04-18T07:31:47.999Z</time></trkpt><trkpt lat="44.43086967826968" lon="9.180357262315411"><ele>155.0</ele><time>2026-04-18T07:31:48.999Z</time></trkpt><trkpt lat="44.430780270668166" lon="9.180482742049236"><ele>155.0</ele><time>2026-04-18T07:31:49.999Z</time></trkpt><trkpt lat="44.43070738737114" lon="9.180625066446787"><ele>155.0</ele><time>2026-04-18T07:31:50.999Z</time></trkpt><trkpt lat="44.43064459941652" lon="9.18075488823572"><ele>155.0</ele><time>2026-04-18T07:31:51.999Z</time></trkpt><trkpt lat="44.430590183161485" lon="9.180889916019625"><ele>155.75</ele><time>2026-04-18T07:31:52.999Z</time></trkpt><trkpt lat="44.43054556945981" lon="9.181049616316226"><ele>156.5</ele><time>2026-04-18T07:31:54Z</time></trkpt><trkpt lat="44.430517173528486" lon="9.18122786399425"><ele>157.25</ele><time>2026-04-18T07:31:55Z</time></trkpt><trkpt lat="44.430499577045836" lon="9.181399600211282"><ele>158.0</ele><time>2026-04-18T07:31:56Z</time></trkpt><trkpt lat="44.430497837647586" lon="9.181555814878887"><ele>158.4</ele><time>2026-04-18T07:31:57Z</time></trkpt><trkpt lat="44.43050507011116" lon="9.181695084960921"><ele>158.8</ele><time>2026-04-18T07:31:58Z</time></trkpt><trkpt lat="44.43052301921314" lon="9.181829817378068"><ele>159.2</ele><time>2026-04-18T07:31:59Z</time></trkpt><trkpt lat="44.43051536130117" lon="9.18197323901213"><ele>159.6</ele><time>2026-04-18T07:32:00Z</time></trkpt><trkpt lat="44.430459689810355" lon="9.18210475476172"><ele>160.0</ele><time>2026-04-18T07:32:01Z</time></trkpt><trkpt lat="44.43035814366099" lon="9.182166477531506"><ele>158.8</ele><time>2026-04-18T07:32:02Z</time></trkpt><trkpt lat="44.43027240186765" lon="9.182237514704402"><ele>157.6</ele><time>2026-04-18T07:32:03Z</time></trkpt><trkpt lat="44.430187534398996" lon="9.182266183427508"><ele>156.4</ele><time>2026-04-18T07:32:04Z</time></trkpt><trkpt lat="44.430119288079894" lon="9.182302935332705"><ele>155.2</ele><time>2026-04-18T07:32:05Z</time></trkpt><trkpt lat="44.43000234934103" lon="9.182374631706347"><ele>154.0</ele><time>2026-04-18T07:32:07Z</time></trkpt><trkpt lat="44.42993211467178" lon="9.182417317708126"><ele>154.0</ele><time>2026-04-18T07:32:08Z</time></trkpt><trkpt lat="44.429855050846896" lon="9.182464144594293"><ele>154.0</ele><time>2026-04-18T07:32:09Z</time></trkpt><trkpt lat="44.42977805406353" lon="9.182518655221656"><ele>154.0</ele><time>2026-04-18T07:32:10Z</time></trkpt><trkpt lat="44.4297004333791" lon="9.182574563049663"><ele>154.0</ele><time>2026-04-18T07:32:11Z</time></trkpt><trkpt lat="44.42963713783439" lon="9.182645891157936"><ele>154.0</ele><time>2026-04-18T07:32:12Z</time></trkpt><trkpt lat="44.42954838854615" lon="9.182727248662822"><ele>154.0</ele><time>2026-04-18T07:32:13Z</time></trkpt><trkpt lat="44.42945621372436" lon="9.18281111124299"><ele>153.4</ele><time>2026-04-18T07:32:14Z</time></trkpt><trkpt lat="44.42936804132047" lon="9.182931498236352"><ele>152.8</ele><time>2026-04-18T07:32:15Z</time></trkpt><trkpt lat="44.429304737527545" lon="9.183065178909825"><ele>152.2</ele><time>2026-04-18T07:32:16Z</time></trkpt><trkpt lat="44.42925008869659" lon="9.183180572541085"><ele>151.6</ele><time>2026-04-18T07:32:17Z</time></trkpt><trkpt lat="44.4292184421806" lon="9.183300333053694"><ele>151.0</ele><time>2026-04-18T07:32:18Z</time></trkpt><trkpt lat="44.429185577156254" lon="9.183404300456452"><ele>152.2</ele><time>2026-04-18T07:32:19Z</time></trkpt><trkpt lat="44.42914854536229" lon="9.183491158160791"><ele>153.39999999999998</ele><time>2026-04-18T07:32:20Z</time></trkpt><trkpt lat="44.42913158327865" lon="9.183648386850534"><ele>154.6</ele><time>2026-04-18T07:32:22Z</time></trkpt><trkpt lat="44.429114827179" lon="9.183786103014752"><ele>155.79999999999998</ele><time>2026-04-18T07:32:24Z</time></trkpt><trkpt lat="44.429108566999076" lon="9.183891661718011"><ele>157.0</ele><time>2026-04-18T07:32:26Z</time></trkpt><trkpt lat="44.429100724243916" lon="9.184024641437643"><ele>157.0</ele><time>2026-04-18T07:32:28Z</time></trkpt><trkpt lat="44.42911237490481" lon="9.18414269078807"><ele>157.0</ele><time>2026-04-18T07:32:30Z</time></trkpt><trkpt lat="44.429103892954686" lon="9.184266530331431"><ele>157.0</ele><time>2026-04-18T07:32:32Z</time></trkpt><trkpt lat="44.4291041888493" lon="9.184395492022873"><ele>157.0</ele><time>2026-04-18T07:32:34Z</time></trkpt><trkpt lat="44.42910217960559" lon="9.184542557595401"><ele>157.0</ele><time>2026-04-18T07:32:36Z</time></trkpt><trkpt lat="44.42909835484754" lon="9.184695098937434"><ele>157.0</ele><time>2026-04-18T07:32:38Z</time></trkpt><trkpt lat="44.42909593450228" lon="9.184831995478195"><ele>157.0</ele><time>2026-04-18T07:32:40Z</time></trkpt><trkpt lat="44.42909947281195" lon="9.18495339062596"><ele>157.0</ele><time>2026-04-18T07:32:41Z</time></trkpt><trkpt lat="44.42910305375146" lon="9.18507625188701"><ele>157.0</ele><time>2026-04-18T07:32:42Z</time></trkpt><trkpt lat="44.42910963560223" lon="9.185175678099538"><ele>157.0</ele><time>2026-04-18T07:32:43Z</time></trkpt><trkpt lat="44.4291187140534" lon="9.185293485485857"><ele>157.0</ele><time>2026-04-18T07:32:44Z</time></trkpt><trkpt lat="44.42912668157197" lon="9.185389737839504"><ele>155.79999999999998</ele><time>2026-04-18T07:32:45Z</time></trkpt><trkpt lat="44.42913956201284" lon="9.18553630729503"><ele>154.6</ele><time>2026-04-18T07:32:46Z</time></trkpt><trkpt lat="44.42915248330657" lon="9.185675937465687"><ele>153.39999999999998</ele><time>2026-04-18T07:32:47Z</time></trkpt><trkpt lat="44.42916931349742" lon="9.185811418597915"><ele>152.2</ele><time>2026-04-18T07:32:48Z</time></trkpt><trkpt lat="44.429200814227045" lon="9.185955308546395"><ele>151.0</ele><time>2026-04-18T07:32:49Z</time></trkpt><trkpt lat="44.429200986609445" lon="9.186090881220487"><ele>150.25</ele><time>2026-04-18T07:32:50Z</time></trkpt><trkpt lat="44.429235759901296" lon="9.186250036854682"><ele>149.5</ele><time>2026-04-18T07:32:51Z</time></trkpt><trkpt lat="44.4292543834575" lon="9.186431702573582"><ele>148.75</ele><time>2026-04-18T07:32:52Z</time></trkpt><trkpt lat="44.42927765401998" lon="9.186628504196463"><ele>148.0</ele><time>2026-04-18T07:32:53Z</time></trkpt><trkpt lat="44.429283929900414" lon="9.186811885061525"><ele>147.5</ele><time>2026-04-18T07:32:54Z</time></trkpt><trkpt lat="44.42930398043539" lon="9.186984270198138"><ele>147.0</ele><time>2026-04-18T07:32:55Z</time></trkpt><trkpt lat="44.42932516107013" lon="9.187169516727725"><ele>146.5</ele><time>2026-04-18T07:32:56Z</time></trkpt><trkpt lat="44.42934475438583" lon="9.187345053280584"><ele>146.0</ele><time>2026-04-18T07:32:57Z</time></trkpt><trkpt lat="44.429362820083526" lon="9.187506903374967"><ele>144.75</ele><time>2026-04-18T07:32:58Z</time></trkpt><trkpt lat="44.42938053193526" lon="9.18766558406421"><ele>143.5</ele><time>2026-04-18T07:32:59Z</time></trkpt><trkpt lat="44.429395360924644" lon="9.187801929556393"><ele>142.25</ele><time>2026-04-18T07:33:00Z</time></trkpt><trkpt lat="44.42940789833876" lon="9.187934683328729"><ele>141.0</ele><time>2026-04-18T07:33:00.999Z</time></trkpt><trkpt lat="44.42943467051872" lon="9.188145190625784"><ele>141.25</ele><time>2026-04-18T07:33:01.999Z</time></trkpt><trkpt lat="44.4294344434481" lon="9.188320276073734"><ele>141.5</ele><time>2026-04-18T07:33:02.999Z</time></trkpt><trkpt lat="44.42942930642762" lon="9.188479137515195"><ele>141.75</ele><time>2026-04-18T07:33:03.999Z</time></trkpt><trkpt lat="44.429426861669896" lon="9.188631334845665"><ele>142.0</ele><time>2026-04-18T07:33:04.999Z</time></trkpt><trkpt lat="44.429411043037554" lon="9.188813281808775"><ele>142.0</ele><time>2026-04-18T07:33:05.999Z</time></trkpt><trkpt lat="44.42941107008948" lon="9.18897804078267"><ele>142.0</ele><time>2026-04-18T07:33:06.999Z</time></trkpt><trkpt lat="44.42938255580111" lon="9.189152969584418"><ele>142.0</ele><time>2026-04-18T07:33:07.999Z</time></trkpt><trkpt lat="44.42936131691315" lon="9.18934127285337"><ele>142.0</ele><time>2026-04-18T07:33:08.999Z</time></trkpt><trkpt lat="44.42932572068831" lon="9.189509841019607"><ele>142.5</ele><time>2026-04-18T07:33:09.999Z</time></trkpt><trkpt lat="44.429271281402634" lon="9.189648103099584"><ele>143.0</ele><time>2026-04-18T07:33:10.999Z</time></trkpt><trkpt lat="44.429204742896516" lon="9.189794915947244"><ele>143.5</ele><time>2026-04-18T07:33:11.999Z</time></trkpt><trkpt lat="44.42913066939118" lon="9.18995004047389"><ele>144.0</ele><time>2026-04-18T07:33:12.999Z</time></trkpt><trkpt lat="44.42906573263871" lon="9.190073682419536"><ele>145.6</ele><time>2026-04-18T07:33:13.999Z</time></trkpt><trkpt lat="44.42900538151451" lon="9.190189391854826"><ele>147.2</ele><time>2026-04-18T07:33:14.999Z</time></trkpt><trkpt lat="44.428953699281685" lon="9.190328855701857"><ele>148.79999999999998</ele><time>2026-04-18T07:33:15.999Z</time></trkpt><trkpt lat="44.42893261542004" lon="9.190466063771138"><ele>150.4</ele><time>2026-04-18T07:33:16.999Z</time></trkpt><trkpt lat="44.4288759070595" lon="9.190556306777466"><ele>152.0</ele><time>2026-04-18T07:33:17.999Z</time></trkpt><trkpt lat="44.42881573905366" lon="9.190648006623245"><ele>149.75</ele><time>2026-04-18T07:33:18.999Z</time></trkpt><trkpt lat="44.42872337448367" lon="9.190728855188304"><ele>147.5</ele><time>2026-04-18T07:33:19.999Z</time></trkpt><trkpt lat="44.428607709228416" lon="9.190822005165721"><ele>145.25</ele><time>2026-04-18T07:33:20.999Z</time></trkpt><trkpt lat="44.42849879007364" lon="9.19091684811601"><ele>143.0</ele><time>2026-04-18T07:33:21.999Z</time></trkpt><trkpt lat="44.428406978572475" lon="9.191007807281625"><ele>143.0</ele><time>2026-04-18T07:33:22.999Z</time></trkpt><trkpt lat="44.42831455561543" lon="9.191084448850946"><ele>143.0</ele><time>2026-04-18T07:33:23.999Z</time></trkpt><trkpt lat="44.42821560982948" lon="9.191129292128434"><ele>143.0</ele><time>2026-04-18T07:33:24.999Z</time></trkpt><trkpt lat="44.42811783189698" lon="9.191153900483036"><ele>143.0</ele><time>2026-04-18T07:33:25.999Z</time></trkpt><trkpt lat="44.428004455497415" lon="9.19117284012422"><ele>143.0</ele><time>2026-04-18T07:33:26.999Z</time></trkpt><trkpt lat="44.42789700911817" lon="9.191172544971685"><ele>144.5</ele><time>2026-04-18T07:33:27.999Z</time></trkpt><trkpt lat="44.42778549718882" lon="9.191152306944565"><ele>146.0</ele><time>2026-04-18T07:33:28.999Z</time></trkpt><trkpt lat="44.427659496626106" lon="9.191109451397924"><ele>147.5</ele><time>2026-04-18T07:33:29.999Z</time></trkpt><trkpt lat="44.42755357304862" lon="9.191045591617206"><ele>149.0</ele><time>2026-04-18T07:33:30.999Z</time></trkpt><trkpt lat="44.42746936255231" lon="9.19096370199257"><ele>149.0</ele><time>2026-04-18T07:33:31.999Z</time></trkpt><trkpt lat="44.42739444820531" lon="9.190864480652541"><ele>149.0</ele><time>2026-04-18T07:33:32.999Z</time></trkpt><trkpt lat="44.42731911666546" lon="9.190758546714413"><ele>149.0</ele><time>2026-04-18T07:33:33.999Z</time></trkpt><trkpt lat="44.42720803941468" lon="9.190695154235524"><ele>149.0</ele><time>2026-04-18T07:33:34.999Z</time></trkpt><trkpt lat="44.42709805081843" lon="9.19065448251169"><ele>149.0</ele><time>2026-04-18T07:33:35.999Z</time></trkpt><trkpt lat="44.42697746901348" lon="9.190614798853451"><ele>147.0</ele><time>2026-04-18T07:33:36.999Z</time></trkpt><trkpt lat="44.42682117757368" lon="9.190583635906101"><ele>145.0</ele><time>2026-04-18T07:33:37.999Z</time></trkpt><trkpt lat="44.42667734769625" lon="9.190559381335753"><ele>143.0</ele><time>2026-04-18T07:33:38.999Z</time></trkpt><trkpt lat="44.426546331362815" lon="9.190556509685793"><ele>141.0</ele><time>2026-04-18T07:33:39.999Z</time></trkpt><trkpt lat="44.42642418230063" lon="9.190551028416623"><ele>140.66666666666666</ele><time>2026-04-18T07:33:40.999Z</time></trkpt><trkpt lat="44.426249339370834" lon="9.19053415625718"><ele>140.33333333333331</ele><time>2026-04-18T07:33:41.999Z</time></trkpt><trkpt lat="44.426061907730976" lon="9.190550953238672"><ele>140.0</ele><time>2026-04-18T07:33:42.999Z</time></trkpt><trkpt lat="44.425898551172814" lon="9.19054731787444"><ele>140.0</ele><time>2026-04-18T07:33:43.999Z</time></trkpt><trkpt lat="44.42574593369594" lon="9.190542496166408"><ele>140.0</ele><time>2026-04-18T07:33:44.999Z</time></trkpt><trkpt lat="44.425591248778346" lon="9.190578772202539"><ele>140.0</ele><time>2026-04-18T07:33:45.999Z</time></trkpt><trkpt lat="44.42545019660303" lon="9.190593058606652"><ele>140.5</ele><time>2026-04-18T07:33:46.999Z</time></trkpt><trkpt lat="44.42532511145422" lon="9.190610395863564"><ele>141.0</ele><time>2026-04-18T07:33:47.999Z</time></trkpt><trkpt lat="44.4252102900155" lon="9.190641219782885"><ele>141.5</ele><time>2026-04-18T07:33:48.999Z</time></trkpt><trkpt lat="44.42508218181013" lon="9.190695842209827"><ele>142.0</ele><time>2026-04-18T07:33:49.999Z</time></trkpt><trkpt lat="44.424962624828424" lon="9.19079454364147"><ele>142.0</ele><time>2026-04-18T07:33:50.999Z</time></trkpt><trkpt lat="44.42486754492672" lon="9.190934697138468"><ele>142.0</ele><time>2026-04-18T07:33:51.999Z</time></trkpt><trkpt lat="44.4248000935077" lon="9.191114141041583"><ele>142.0</ele><time>2026-04-18T07:33:52.999Z</time></trkpt><trkpt lat="44.424749509930294" lon="9.191307372180741"><ele>142.0</ele><time>2026-04-18T07:33:53.999Z</time></trkpt><trkpt lat="44.42471902041943" lon="9.191476870869884"><ele>143.5</ele><time>2026-04-18T07:33:54.999Z</time></trkpt><trkpt lat="44.42471512389085" lon="9.191618193250614"><ele>145.0</ele><time>2026-04-18T07:33:55.999Z</time></trkpt><trkpt lat="44.424720824527604" lon="9.191775106888391"><ele>146.5</ele><time>2026-04-18T07:33:56.999Z</time></trkpt><trkpt lat="44.42474193851512" lon="9.19194225977462"><ele>148.0</ele><time>2026-04-18T07:33:57.999Z</time></trkpt><trkpt lat="44.42475814638735" lon="9.192137869591502"><ele>148.33333333333334</ele><time>2026-04-18T07:33:58.999Z</time></trkpt><trkpt lat="44.424753748003525" lon="9.192367786022363"><ele>148.66666666666666</ele><time>2026-04-18T07:34:00Z</time></trkpt><trkpt lat="44.42476886151812" lon="9.192610288530748"><ele>149.0</ele><time>2026-04-18T07:34:01Z</time></trkpt><trkpt lat="44.424784955772445" lon="9.19280206554705"><ele>149.0</ele><time>2026-04-18T07:34:02Z</time></trkpt><trkpt lat="44.42479405857491" lon="9.192989906579832"><ele>149.0</ele><time>2026-04-18T07:34:03Z</time></trkpt><trkpt lat="44.424804917190954" lon="9.193171518745851"><ele>149.0</ele><time>2026-04-18T07:34:04Z</time></trkpt><trkpt lat="44.42482491623474" lon="9.193363696638487"><ele>149.0</ele><time>2026-04-18T07:34:05Z</time></trkpt><trkpt lat="44.42485716490358" lon="9.193563162793119"><ele>148.25</ele><time>2026-04-18T07:34:06Z</time></trkpt><trkpt lat="44.42489361221502" lon="9.19374935306512"><ele>147.5</ele><time>2026-04-18T07:34:07Z</time></trkpt><trkpt lat="44.42495053009568" lon="9.193910822696747"><ele>146.75</ele><time>2026-04-18T07:34:08Z</time></trkpt><trkpt lat="44.425005870095085" lon="9.19407485032481"><ele>146.0</ele><time>2026-04-18T07:34:09Z</time></trkpt><trkpt lat="44.42506764609173" lon="9.194255303368355"><ele>144.5</ele><time>2026-04-18T07:34:10Z</time></trkpt><trkpt lat="44.42513223450228" lon="9.194452108467168"><ele>143.0</ele><time>2026-04-18T07:34:11Z</time></trkpt><trkpt lat="44.42519079429542" lon="9.194639100321547"><ele>141.5</ele><time>2026-04-18T07:34:12Z</time></trkpt><trkpt lat="44.425245416632606" lon="9.19481601259896"><ele>140.0</ele><time>2026-04-18T07:34:13Z</time></trkpt><trkpt lat="44.42530391749406" lon="9.195007101351502"><ele>138.75</ele><time>2026-04-18T07:34:14Z</time></trkpt><trkpt lat="44.42536094271249" lon="9.195220270951449"><ele>137.5</ele><time>2026-04-18T07:34:15Z</time></trkpt><trkpt lat="44.4254017898507" lon="9.195405127302575"><ele>136.25</ele><time>2026-04-18T07:34:16Z</time></trkpt><trkpt lat="44.425415738513934" lon="9.195597795418228"><ele>135.0</ele><time>2026-04-18T07:34:17Z</time></trkpt><trkpt lat="44.42540077814443" lon="9.195803131757042"><ele>134.5</ele><time>2026-04-18T07:34:18Z</time></trkpt><trkpt lat="44.425386074351934" lon="9.196014238173994"><ele>134.0</ele><time>2026-04-18T07:34:19Z</time></trkpt><trkpt lat="44.425367779487274" lon="9.196200198124055"><ele>133.5</ele><time>2026-04-18T07:34:20Z</time></trkpt><trkpt lat="44.42534870372177" lon="9.196386648189131"><ele>133.0</ele><time>2026-04-18T07:34:21Z</time></trkpt><trkpt lat="44.42532852512861" lon="9.196580711760433"><ele>133.0</ele><time>2026-04-18T07:34:22Z</time></trkpt><trkpt lat="44.425304017705315" lon="9.196773434640898"><ele>133.0</ele><time>2026-04-18T07:34:23Z</time></trkpt><trkpt lat="44.42525196338598" lon="9.19694756668699"><ele>133.0</ele><time>2026-04-18T07:34:24Z</time></trkpt><trkpt lat="44.425192839210496" lon="9.197124802799298"><ele>133.0</ele><time>2026-04-18T07:34:25Z</time></trkpt><trkpt lat="44.425120883349344" lon="9.197296646694946"><ele>136.75</ele><time>2026-04-18T07:34:26Z</time></trkpt><trkpt lat="44.42505115414735" lon="9.197460369862883"><ele>140.5</ele><time>2026-04-18T07:34:27Z</time></trkpt><trkpt lat="44.424964937933375" lon="9.197608585850498"><ele>144.25</ele><time>2026-04-18T07:34:28Z</time></trkpt><trkpt lat="44.42488193691643" lon="9.19772868074924"><ele>148.0</ele><time>2026-04-18T07:34:29Z</time></trkpt><trkpt lat="44.42476721129811" lon="9.197849040248528"><ele>142.75</ele><time>2026-04-18T07:34:30Z</time></trkpt><trkpt lat="44.424629636475984" lon="9.197861410745306"><ele>137.5</ele><time>2026-04-18T07:34:31Z</time></trkpt><trkpt lat="44.42449846715374" lon="9.197933653097001"><ele>132.25</ele><time>2026-04-18T07:34:32Z</time></trkpt><trkpt lat="44.424355876896655" lon="9.197996031805724"><ele>127.0</ele><time>2026-04-18T07:34:33Z</time></trkpt><trkpt lat="44.42422995767717" lon="9.19807857298556"><ele>127.0</ele><time>2026-04-18T07:34:34Z</time></trkpt><trkpt lat="44.424118646836085" lon="9.198156909894251"><ele>127.0</ele><time>2026-04-18T07:34:35Z</time></trkpt><trkpt lat="44.423992638711695" lon="9.198205053103509"><ele>127.0</ele><time>2026-04-18T07:34:36Z</time></trkpt><trkpt lat="44.423865260602874" lon="9.198215113010818"><ele>127.0</ele><time>2026-04-18T07:34:37Z</time></trkpt><trkpt lat="44.42375397883469" lon="9.198247747689571"><ele>127.19999999999999</ele><time>2026-04-18T07:34:38Z</time></trkpt><trkpt lat="44.42367697404544" lon="9.198323142443128"><ele>127.39999999999999</ele><time>2026-04-18T07:34:39Z</time></trkpt><trkpt lat="44.42361765626834" lon="9.198431942517548"><ele>127.60000000000001</ele><time>2026-04-18T07:34:40Z</time></trkpt><trkpt lat="44.42357026332768" lon="9.19857077442162"><ele>127.80000000000001</ele><time>2026-04-18T07:34:41Z</time></trkpt><trkpt lat="44.42352965234072" lon="9.198740539906632"><ele>128.0</ele><time>2026-04-18T07:34:42Z</time></trkpt><trkpt lat="44.42349041942959" lon="9.198918664193394"><ele>129.0</ele><time>2026-04-18T07:34:43Z</time></trkpt><trkpt lat="44.423452672729844" lon="9.199075054218687"><ele>130.0</ele><time>2026-04-18T07:34:44Z</time></trkpt><trkpt lat="44.42341197543953" lon="9.199212538871587"><ele>131.0</ele><time>2026-04-18T07:34:45Z</time></trkpt><trkpt lat="44.42336870598336" lon="9.19935369397848"><ele>132.0</ele><time>2026-04-18T07:34:46Z</time></trkpt><trkpt lat="44.42332496641467" lon="9.19950789727054"><ele>132.0</ele><time>2026-04-18T07:34:47Z</time></trkpt><trkpt lat="44.423287939633745" lon="9.19967469911461"><ele>132.0</ele><time>2026-04-18T07:34:48Z</time></trkpt><trkpt lat="44.42328366885695" lon="9.19986633378374"><ele>132.0</ele><time>2026-04-18T07:34:49Z</time></trkpt><trkpt lat="44.42331932592226" lon="9.200067587867084"><ele>132.0</ele><time>2026-04-18T07:34:50Z</time></trkpt><trkpt lat="44.42337564691685" lon="9.200271950540214"><ele>131.75</ele><time>2026-04-18T07:34:51Z</time></trkpt><trkpt lat="44.42344334125617" lon="9.200445078555546"><ele>131.5</ele><time>2026-04-18T07:34:52Z</time></trkpt><trkpt lat="44.42350086780019" lon="9.20061193274972"><ele>131.25</ele><time>2026-04-18T07:34:53Z</time></trkpt><trkpt lat="44.42355755588097" lon="9.200791306154496"><ele>131.0</ele><time>2026-04-18T07:34:54Z</time></trkpt><trkpt lat="44.423608293330545" lon="9.20095595511131"><ele>130.5</ele><time>2026-04-18T07:34:55Z</time></trkpt><trkpt lat="44.423659887674525" lon="9.201118031526137"><ele>130.0</ele><time>2026-04-18T07:34:56Z</time></trkpt><trkpt lat="44.42371807019562" lon="9.201299106893162"><ele>129.5</ele><time>2026-04-18T07:34:57Z</time></trkpt><trkpt lat="44.42378416036358" lon="9.201496831118815"><ele>129.0</ele><time>2026-04-18T07:34:58Z</time></trkpt><trkpt lat="44.42384199341064" lon="9.201674800349249"><ele>130.75</ele><time>2026-04-18T07:34:59Z</time></trkpt><trkpt lat="44.42388974482613" lon="9.20183977535269"><ele>132.5</ele><time>2026-04-18T07:35:00Z</time></trkpt><trkpt lat="44.42394831325964" lon="9.20200778880812"><ele>134.25</ele><time>2026-04-18T07:35:01Z</time></trkpt><trkpt lat="44.42399647601268" lon="9.202161759830537"><ele>136.0</ele><time>2026-04-18T07:35:02Z</time></trkpt><trkpt lat="44.42403524206649" lon="9.202289823322857"><ele>134.4</ele><time>2026-04-18T07:35:03Z</time></trkpt><trkpt lat="44.42407532437855" lon="9.202412382012554"><ele>132.8</ele><time>2026-04-18T07:35:04Z</time></trkpt><trkpt lat="44.42412015614195" lon="9.202550765625752"><ele>131.20000000000002</ele><time>2026-04-18T07:35:05Z</time></trkpt><trkpt lat="44.42417744569396" lon="9.202690863112128"><ele>129.6</ele><time>2026-04-18T07:35:06Z</time></trkpt><trkpt lat="44.42422118825379" lon="9.202845969985445"><ele>128.0</ele><time>2026-04-18T07:35:07Z</time></trkpt><trkpt lat="44.424259321866685" lon="9.202988241224825"><ele>128.0</ele><time>2026-04-18T07:35:08Z</time></trkpt><trkpt lat="44.424287719198425" lon="9.203141574594321"><ele>128.0</ele><time>2026-04-18T07:35:09Z</time></trkpt><trkpt lat="44.42429086167796" lon="9.203327041664153"><ele>128.0</ele><time>2026-04-18T07:35:09.999Z</time></trkpt><trkpt lat="44.42427880144434" lon="9.203526461099537"><ele>128.0</ele><time>2026-04-18T07:35:10.999Z</time></trkpt><trkpt lat="44.4242413337798" lon="9.20370616519127"><ele>127.25</ele><time>2026-04-18T07:35:11.999Z</time></trkpt><trkpt lat="44.42423796994316" lon="9.20385642295736"><ele>126.5</ele><time>2026-04-18T07:35:12.999Z</time></trkpt><trkpt lat="44.42422137808513" lon="9.204018334592421"><ele>125.75</ele><time>2026-04-18T07:35:13.999Z</time></trkpt><trkpt lat="44.42421055530137" lon="9.204206149125884"><ele>125.0</ele><time>2026-04-18T07:35:14.999Z</time></trkpt><trkpt lat="44.424245478885965" lon="9.204404625407859"><ele>125.0</ele><time>2026-04-18T07:35:15.999Z</time></trkpt><trkpt lat="44.42428603909863" lon="9.204581292617988"><ele>125.0</ele><time>2026-04-18T07:35:16.999Z</time></trkpt><trkpt lat="44.42426800582465" lon="9.204732355158988"><ele>125.0</ele><time>2026-04-18T07:35:17.999Z</time></trkpt><trkpt lat="44.42421505857524" lon="9.204881394048678"><ele>125.0</ele><time>2026-04-18T07:35:18.999Z</time></trkpt><trkpt lat="44.42412462781605" lon="9.205039068278568"><ele>125.75</ele><time>2026-04-18T07:35:19.999Z</time></trkpt><trkpt lat="44.42402196455329" lon="9.20516446960456"><ele>126.5</ele><time>2026-04-18T07:35:20.999Z</time></trkpt><trkpt lat="44.42390761344932" lon="9.205242231080225"><ele>127.25</ele><time>2026-04-18T07:35:21.999Z</time></trkpt><trkpt lat="44.42378017411475" lon="9.205338395802977"><ele>128.0</ele><time>2026-04-18T07:35:22.999Z</time></trkpt><trkpt lat="44.42361950902481" lon="9.205417488285558"><ele>128.0</ele><time>2026-04-18T07:35:23.999Z</time></trkpt><trkpt lat="44.423461933524315" lon="9.205503540542582"><ele>128.0</ele><time>2026-04-18T07:35:24.999Z</time></trkpt><trkpt lat="44.42333595619705" lon="9.20557144750955"><ele>128.0</ele><time>2026-04-18T07:35:25.999Z</time></trkpt><trkpt lat="44.4232035687326" lon="9.205638273037474"><ele>128.0</ele><time>2026-04-18T07:35:26.999Z</time></trkpt><trkpt lat="44.423054077316785" lon="9.205715320384085"><ele>127.75</ele><time>2026-04-18T07:35:27.999Z</time></trkpt><trkpt lat="44.42290184100493" lon="9.205792139851955"><ele>127.5</ele><time>2026-04-18T07:35:28.999Z</time></trkpt><trkpt lat="44.42277064055593" lon="9.20585343164737"><ele>127.25</ele><time>2026-04-18T07:35:29.999Z</time></trkpt><trkpt lat="44.42263732613754" lon="9.205905972616625"><ele>127.0</ele><time>2026-04-18T07:35:30.999Z</time></trkpt><trkpt lat="44.42248528433031" lon="9.205960113175149"><ele>127.0</ele><time>2026-04-18T07:35:31.999Z</time></trkpt><trkpt lat="44.42234203607295" lon="9.206010676634277"><ele>127.0</ele><time>2026-04-18T07:35:32.999Z</time></trkpt><trkpt lat="44.42221581758589" lon="9.20606944928991"><ele>127.0</ele><time>2026-04-18T07:35:33.999Z</time></trkpt><trkpt lat="44.42210549906783" lon="9.206145261221877"><ele>127.0</ele><time>2026-04-18T07:35:34.999Z</time></trkpt><trkpt lat="44.42200109815599" lon="9.206253298365281"><ele>126.75</ele><time>2026-04-18T07:35:35.999Z</time></trkpt><trkpt lat="44.4218994433969" lon="9.206374229066084"><ele>126.5</ele><time>2026-04-18T07:35:36.999Z</time></trkpt><trkpt lat="44.42178759862912" lon="9.206507102368233"><ele>126.25</ele><time>2026-04-18T07:35:37.999Z</time></trkpt><trkpt lat="44.421668956862675" lon="9.20664249961519"><ele>126.0</ele><time>2026-04-18T07:35:38.999Z</time></trkpt><trkpt lat="44.421549610377824" lon="9.20676573597215"><ele>126.0</ele><time>2026-04-18T07:35:39.999Z</time></trkpt><trkpt lat="44.421450575779275" lon="9.206878422938141"><ele>126.0</ele><time>2026-04-18T07:35:40.999Z</time></trkpt><trkpt lat="44.421342285865656" lon="9.20701118623942"><ele>126.0</ele><time>2026-04-18T07:35:41.999Z</time></trkpt><trkpt lat="44.42122798106443" lon="9.20713912389581"><ele>126.0</ele><time>2026-04-18T07:35:42.999Z</time></trkpt><trkpt lat="44.4211139018605" lon="9.20726284375688"><ele>125.5</ele><time>2026-04-18T07:35:43.999Z</time></trkpt><trkpt lat="44.42101544845433" lon="9.207380092687027"><ele>125.0</ele><time>2026-04-18T07:35:44.999Z</time></trkpt><trkpt lat="44.42092443101433" lon="9.207489570216618"><ele>124.5</ele><time>2026-04-18T07:35:45.999Z</time></trkpt><trkpt lat="44.42084044171318" lon="9.20759076750882"><ele>124.0</ele><time>2026-04-18T07:35:46.999Z</time></trkpt><trkpt lat="44.42075973905485" lon="9.207694412387267"><ele>124.0</ele><time>2026-04-18T07:35:47.999Z</time></trkpt><trkpt lat="44.42067736575582" lon="9.207809807862596"><ele>124.0</ele><time>2026-04-18T07:35:48.999Z</time></trkpt><trkpt lat="44.42060231643624" lon="9.207942754062774"><ele>124.0</ele><time>2026-04-18T07:35:49.999Z</time></trkpt><trkpt lat="44.42052928528027" lon="9.208097393583584"><ele>124.0</ele><time>2026-04-18T07:35:50.999Z</time></trkpt><trkpt lat="44.42045297332164" lon="9.208265909000762"><ele>123.75</ele><time>2026-04-18T07:35:51.999Z</time></trkpt><trkpt lat="44.42037304067719" lon="9.20843641800405"><ele>123.5</ele><time>2026-04-18T07:35:52.999Z</time></trkpt><trkpt lat="44.42029003859626" lon="9.208589111285079"><ele>123.25</ele><time>2026-04-18T07:35:53.999Z</time></trkpt><trkpt lat="44.42022056813015" lon="9.208749140862357"><ele>123.0</ele><time>2026-04-18T07:35:54.999Z</time></trkpt><trkpt lat="44.420148739185414" lon="9.208930372668481"><ele>124.0</ele><time>2026-04-18T07:35:55.999Z</time></trkpt><trkpt lat="44.42005875852589" lon="9.209119867371571"><ele>125.0</ele><time>2026-04-18T07:35:56.999Z</time></trkpt><trkpt lat="44.41996126257778" lon="9.209315883233373"><ele>126.0</ele><time>2026-04-18T07:35:57.999Z</time></trkpt><trkpt lat="44.41988364739838" lon="9.209481896477342"><ele>126.0</ele><time>2026-04-18T07:35:58.999Z</time></trkpt><trkpt lat="44.41980548675182" lon="9.209648762639613"><ele>126.0</ele><time>2026-04-18T07:35:59.999Z</time></trkpt><trkpt lat="44.41971916912181" lon="9.209841305063321"><ele>126.0</ele><time>2026-04-18T07:36:00.999Z</time></trkpt><trkpt lat="44.41963941863481" lon="9.210011069186232"><ele>126.0</ele><time>2026-04-18T07:36:01.999Z</time></trkpt><trkpt lat="44.4195475483149" lon="9.210201340598152"><ele>126.0</ele><time>2026-04-18T07:36:02.999Z</time></trkpt><trkpt lat="44.41946188957009" lon="9.210363701232748"><ele>126.0</ele><time>2026-04-18T07:36:03.999Z</time></trkpt><trkpt lat="44.41939276312699" lon="9.210509699251213"><ele>126.0</ele><time>2026-04-18T07:36:04.999Z</time></trkpt><trkpt lat="44.41930433188707" lon="9.210723043715056"><ele>126.0</ele><time>2026-04-18T07:36:06Z</time></trkpt><trkpt lat="44.419223582388746" lon="9.210900994475145"><ele>126.0</ele><time>2026-04-18T07:36:07Z</time></trkpt><trkpt lat="44.419151863229246" lon="9.211066266717774"><ele>126.0</ele><time>2026-04-18T07:36:08Z</time></trkpt><trkpt lat="44.41908131943906" lon="9.211214321856424"><ele>126.0</ele><time>2026-04-18T07:36:09Z</time></trkpt><trkpt lat="44.41900653253627" lon="9.211373977953432"><ele>126.5</ele><time>2026-04-18T07:36:10Z</time></trkpt><trkpt lat="44.41892335667148" lon="9.211546852039458"><ele>127.0</ele><time>2026-04-18T07:36:11Z</time></trkpt><trkpt lat="44.41884350508682" lon="9.211669957132754"><ele>127.5</ele><time>2026-04-18T07:36:12Z</time></trkpt><trkpt lat="44.41878047235175" lon="9.211841505248442"><ele>128.0</ele><time>2026-04-18T07:36:13Z</time></trkpt><trkpt lat="44.41869477814491" lon="9.212000745745783"><ele>126.0</ele><time>2026-04-18T07:36:14Z</time></trkpt><trkpt lat="44.41861294758065" lon="9.21218367106203"><ele>124.0</ele><time>2026-04-18T07:36:15Z</time></trkpt><trkpt lat="44.41852742322743" lon="9.212367674951254"><ele>122.0</ele><time>2026-04-18T07:36:16Z</time></trkpt><trkpt lat="44.4184388508878" lon="9.21256816180897"><ele>122.0</ele><time>2026-04-18T07:36:17Z</time></trkpt><trkpt lat="44.41834431261786" lon="9.212769428969377"><ele>122.0</ele><time>2026-04-18T07:36:18Z</time></trkpt><trkpt lat="44.418253075059525" lon="9.212964237999161"><ele>122.0</ele><time>2026-04-18T07:36:19Z</time></trkpt><trkpt lat="44.418170715651584" lon="9.213142674201135"><ele>122.33333333333333</ele><time>2026-04-18T07:36:20Z</time></trkpt><trkpt lat="44.41808077359979" lon="9.21334520062604"><ele>122.66666666666666</ele><time>2026-04-18T07:36:21Z</time></trkpt><trkpt lat="44.4180045052144" lon="9.21356320092864"><ele>123.0</ele><time>2026-04-18T07:36:22Z</time></trkpt><trkpt lat="44.41794130205801" lon="9.213786883831835"><ele>121.33333333333334</ele><time>2026-04-18T07:36:23Z</time></trkpt><trkpt lat="44.4178899062812" lon="9.214001628223722"><ele>119.66666666666667</ele><time>2026-04-18T07:36:24Z</time></trkpt><trkpt lat="44.41784725385965" lon="9.214203565544157"><ele>118.0</ele><time>2026-04-18T07:36:25Z</time></trkpt><trkpt lat="44.41780376169264" lon="9.21442293900191"><ele>118.0</ele><time>2026-04-18T07:36:26Z</time></trkpt><trkpt lat="44.417759771552625" lon="9.214659782414932"><ele>118.0</ele><time>2026-04-18T07:36:27Z</time></trkpt><trkpt lat="44.41772270998991" lon="9.21487084837476"><ele>118.0</ele><time>2026-04-18T07:36:28Z</time></trkpt><trkpt lat="44.417696671440076" lon="9.215064834280215"><ele>118.0</ele><time>2026-04-18T07:36:29Z</time></trkpt><trkpt lat="44.41765619843975" lon="9.2152858193785"><ele>118.0</ele><time>2026-04-18T07:36:30Z</time></trkpt><trkpt lat="44.41761866138828" lon="9.215489701944804"><ele>118.0</ele><time>2026-04-18T07:36:31Z</time></trkpt><trkpt lat="44.41758573128503" lon="9.215662906842855"><ele>118.0</ele><time>2026-04-18T07:36:32Z</time></trkpt><trkpt lat="44.417549379742475" lon="9.21582032872481"><ele>118.0</ele><time>2026-04-18T07:36:33Z</time></trkpt><trkpt lat="44.41751731435687" lon="9.215969057803424"><ele>118.0</ele><time>2026-04-18T07:36:34Z</time></trkpt><trkpt lat="44.41750549189009" lon="9.216118601781867"><ele>118.0</ele><time>2026-04-18T07:36:35Z</time></trkpt><trkpt lat="44.41752654173227" lon="9.21627828859547"><ele>118.0</ele><time>2026-04-18T07:36:36Z</time></trkpt><trkpt lat="44.417586595906116" lon="9.216445487367755"><ele>120.2</ele><time>2026-04-18T07:36:37Z</time></trkpt><trkpt lat="44.41765508685998" lon="9.216574312353979"><ele>122.4</ele><time>2026-04-18T07:36:38Z</time></trkpt><trkpt lat="44.41771278523084" lon="9.216685765842188"><ele>124.60000000000001</ele><time>2026-04-18T07:36:39Z</time></trkpt><trkpt lat="44.41776333340345" lon="9.216807621623865"><ele>126.80000000000001</ele><time>2026-04-18T07:36:40Z</time></trkpt><trkpt lat="44.4178051126247" lon="9.216951958019134"><ele>129.0</ele><time>2026-04-18T07:36:41Z</time></trkpt><trkpt lat="44.4178296658922" lon="9.217126510400567"><ele>127.0</ele><time>2026-04-18T07:36:42Z</time></trkpt><trkpt lat="44.417816451697206" lon="9.21733751801312"><ele>125.0</ele><time>2026-04-18T07:36:43Z</time></trkpt><trkpt lat="44.41779752748341" lon="9.217531360800688"><ele>123.0</ele><time>2026-04-18T07:36:44Z</time></trkpt><trkpt lat="44.41774979937941" lon="9.217676578574727"><ele>121.0</ele><time>2026-04-18T07:36:45Z</time></trkpt><trkpt lat="44.41767929075421" lon="9.217819382205791"><ele>121.0</ele><time>2026-04-18T07:36:46Z</time></trkpt><trkpt lat="44.41757836702198" lon="9.217966529081783"><ele>121.0</ele><time>2026-04-18T07:36:47Z</time></trkpt><trkpt lat="44.417453374416176" lon="9.218073501083223"><ele>121.0</ele><time>2026-04-18T07:36:48Z</time></trkpt><trkpt lat="44.41730627807461" lon="9.218100885241359"><ele>121.0</ele><time>2026-04-18T07:36:49Z</time></trkpt><trkpt lat="44.41714074859736" lon="9.218164124866927"><ele>116.33333333333334</ele><time>2026-04-18T07:36:50Z</time></trkpt><trkpt lat="44.41698729885291" lon="9.218203765245043"><ele>111.66666666666666</ele><time>2026-04-18T07:36:51Z</time></trkpt><trkpt lat="44.41681384607487" lon="9.218258613674696"><ele>107.0</ele><time>2026-04-18T07:36:52Z</time></trkpt><trkpt lat="44.41665064447425" lon="9.218317209540979"><ele>107.0</ele><time>2026-04-18T07:36:53Z</time></trkpt><trkpt lat="44.41649164175203" lon="9.218366806870087"><ele>107.0</ele><time>2026-04-18T07:36:54Z</time></trkpt><trkpt lat="44.41631963113656" lon="9.218404736749324"><ele>107.0</ele><time>2026-04-18T07:36:55Z</time></trkpt><trkpt lat="44.416160460186234" lon="9.218472574039366"><ele>105.0</ele><time>2026-04-18T07:36:56Z</time></trkpt><trkpt lat="44.416013484207056" lon="9.218526476886634"><ele>103.0</ele><time>2026-04-18T07:36:57Z</time></trkpt><trkpt lat="44.415874916038405" lon="9.218577198909042"><ele>101.0</ele><time>2026-04-18T07:36:58Z</time></trkpt><trkpt lat="44.41574292328678" lon="9.218630359898503"><ele>99.0</ele><time>2026-04-18T07:36:59Z</time></trkpt><trkpt lat="44.415624066544744" lon="9.218666956616573"><ele>99.0</ele><time>2026-04-18T07:37:00Z</time></trkpt><trkpt lat="44.41551039764368" lon="9.21868267146154"><ele>99.0</ele><time>2026-04-18T07:37:01Z</time></trkpt><trkpt lat="44.41538581460644" lon="9.21864561158663"><ele>99.0</ele><time>2026-04-18T07:37:02Z</time></trkpt><trkpt lat="44.415257355533875" lon="9.218560822603143"><ele>99.0</ele><time>2026-04-18T07:37:03Z</time></trkpt><trkpt lat="44.415126852506205" lon="9.218441039034012"><ele>99.75</ele><time>2026-04-18T07:37:04Z</time></trkpt><trkpt lat="44.415011893382356" lon="9.218350810601391"><ele>100.5</ele><time>2026-04-18T07:37:05Z</time></trkpt><trkpt lat="44.41490131442721" lon="9.218257500185635"><ele>101.25</ele><time>2026-04-18T07:37:06Z</time></trkpt><trkpt lat="44.414765062396" lon="9.218183277721696"><ele>102.0</ele><time>2026-04-18T07:37:07Z</time></trkpt><trkpt lat="44.41460722387818" lon="9.218144154583298"><ele>102.0</ele><time>2026-04-18T07:37:08Z</time></trkpt><trkpt lat="44.41443409132426" lon="9.218142456915237"><ele>102.0</ele><time>2026-04-18T07:37:09Z</time></trkpt><trkpt lat="44.41425451359339" lon="9.218166875615493"><ele>102.0</ele><time>2026-04-18T07:37:10Z</time></trkpt><trkpt lat="44.414091148986316" lon="9.21819561333309"><ele>103.66666666666666</ele><time>2026-04-18T07:37:11Z</time></trkpt><trkpt lat="44.41394245067435" lon="9.218235595892928"><ele>105.33333333333333</ele><time>2026-04-18T07:37:12Z</time></trkpt><trkpt lat="44.41378591593579" lon="9.218274809630488"><ele>107.0</ele><time>2026-04-18T07:37:13Z</time></trkpt><trkpt lat="44.413621663062074" lon="9.218340595018779"><ele>107.0</ele><time>2026-04-18T07:37:14Z</time></trkpt><trkpt lat="44.41347918150236" lon="9.21844825795389"><ele>107.0</ele><time>2026-04-18T07:37:15Z</time></trkpt><trkpt lat="44.413355303568174" lon="9.218566666340656"><ele>107.0</ele><time>2026-04-18T07:37:16Z</time></trkpt><trkpt lat="44.41325110514549" lon="9.218681101842368"><ele>107.0</ele><time>2026-04-18T07:37:16.999Z</time></trkpt><trkpt lat="44.41314005102736" lon="9.218788326813753"><ele>107.0</ele><time>2026-04-18T07:37:17.999Z</time></trkpt><trkpt lat="44.41302906292737" lon="9.218895849773382"><ele>107.0</ele><time>2026-04-18T07:37:18.999Z</time></trkpt><trkpt lat="44.41290657898899" lon="9.219010816094158"><ele>107.0</ele><time>2026-04-18T07:37:19.999Z</time></trkpt><trkpt lat="44.41277914552672" lon="9.219129458806192"><ele>107.0</ele><time>2026-04-18T07:37:20.999Z</time></trkpt><trkpt lat="44.412666567236066" lon="9.219236301097776"><ele>107.25</ele><time>2026-04-18T07:37:21.999Z</time></trkpt><trkpt lat="44.4125269376851" lon="9.219254861134283"><ele>107.5</ele><time>2026-04-18T07:37:22.999Z</time></trkpt><trkpt lat="44.41242962914919" lon="9.219348300722466"><ele>107.75</ele><time>2026-04-18T07:37:23.999Z</time></trkpt><trkpt lat="44.412377047823526" lon="9.219528137625908"><ele>108.0</ele><time>2026-04-18T07:37:24.999Z</time></trkpt><trkpt lat="44.41229952995902" lon="9.219641880441326"><ele>108.0</ele><time>2026-04-18T07:37:25.999Z</time></trkpt><trkpt lat="44.412246730065874" lon="9.219750974285983"><ele>108.0</ele><time>2026-04-18T07:37:26.999Z</time></trkpt><trkpt lat="44.41221701895418" lon="9.21985068556453"><ele>108.0</ele><time>2026-04-18T07:37:27.999Z</time></trkpt><trkpt lat="44.41218982555199" lon="9.219940442583317"><ele>108.0</ele><time>2026-04-18T07:37:28.999Z</time></trkpt><trkpt lat="44.41216124526864" lon="9.22004673789832"><ele>108.0</ele><time>2026-04-18T07:37:29.999Z</time></trkpt><trkpt lat="44.41212969491682" lon="9.220177298851288"><ele>108.0</ele><time>2026-04-18T07:37:30.999Z</time></trkpt><trkpt lat="44.41209076363951" lon="9.22032903561743"><ele>106.75</ele><time>2026-04-18T07:37:31.999Z</time></trkpt><trkpt lat="44.41205442900778" lon="9.22046821968189"><ele>105.5</ele><time>2026-04-18T07:37:32.999Z</time></trkpt><trkpt lat="44.41202008485792" lon="9.22062156119493"><ele>104.25</ele><time>2026-04-18T07:37:33.999Z</time></trkpt><trkpt lat="44.411983300849585" lon="9.220803893762307"><ele>103.0</ele><time>2026-04-18T07:37:34.999Z</time></trkpt><trkpt lat="44.411935421276354" lon="9.220994212990094"><ele>103.0</ele><time>2026-04-18T07:37:35.999Z</time></trkpt><trkpt lat="44.41189889629888" lon="9.221158256018828"><ele>103.0</ele><time>2026-04-18T07:37:36.999Z</time></trkpt><trkpt lat="44.41185589127906" lon="9.22131479054707"><ele>103.0</ele><time>2026-04-18T07:37:37.999Z</time></trkpt><trkpt lat="44.41181591921607" lon="9.221498444146592"><ele>103.0</ele><time>2026-04-18T07:37:38.999Z</time></trkpt><trkpt lat="44.41177359315537" lon="9.221712650891982"><ele>102.66666666666667</ele><time>2026-04-18T07:37:39.999Z</time></trkpt><trkpt lat="44.41175603975245" lon="9.221935562276506"><ele>102.33333333333334</ele><time>2026-04-18T07:37:40.999Z</time></trkpt><trkpt lat="44.41176162845615" lon="9.222145324862806"><ele>102.0</ele><time>2026-04-18T07:37:41.999Z</time></trkpt><trkpt lat="44.41177560033344" lon="9.222340993302494"><ele>103.66666666666666</ele><time>2026-04-18T07:37:42.999Z</time></trkpt><trkpt lat="44.41178611761372" lon="9.222546840953843"><ele>105.33333333333333</ele><time>2026-04-18T07:37:43.999Z</time></trkpt><trkpt lat="44.41180132311728" lon="9.222764154289134"><ele>107.0</ele><time>2026-04-18T07:37:44.999Z</time></trkpt><trkpt lat="44.41184446355011" lon="9.222984746492056"><ele>105.0</ele><time>2026-04-18T07:37:45.999Z</time></trkpt><trkpt lat="44.41188419654618" lon="9.2231842328146"><ele>103.0</ele><time>2026-04-18T07:37:46.999Z</time></trkpt><trkpt lat="44.411916861700654" lon="9.223405637565607"><ele>101.0</ele><time>2026-04-18T07:37:47.999Z</time></trkpt><trkpt lat="44.41193809182505" lon="9.223626838581989"><ele>101.0</ele><time>2026-04-18T07:37:48.999Z</time></trkpt><trkpt lat="44.41193949287005" lon="9.22383951700876"><ele>101.0</ele><time>2026-04-18T07:37:49.999Z</time></trkpt><trkpt lat="44.41193271325232" lon="9.22401326605145"><ele>101.0</ele><time>2026-04-18T07:37:50.999Z</time></trkpt><trkpt lat="44.41195716246003" lon="9.224215949510642"><ele>101.0</ele><time>2026-04-18T07:37:51.999Z</time></trkpt><trkpt lat="44.412002703507596" lon="9.224446214959556"><ele>101.25</ele><time>2026-04-18T07:37:52.999Z</time></trkpt><trkpt lat="44.412052658077926" lon="9.22463404485134"><ele>101.5</ele><time>2026-04-18T07:37:53.999Z</time></trkpt><trkpt lat="44.412093151568385" lon="9.224813549825019"><ele>101.75</ele><time>2026-04-18T07:37:54.999Z</time></trkpt><trkpt lat="44.41213077391948" lon="9.2249753724574"><ele>102.0</ele><time>2026-04-18T07:37:55.999Z</time></trkpt><trkpt lat="44.412165486319005" lon="9.225129038301548"><ele>101.19999999999999</ele><time>2026-04-18T07:37:56.999Z</time></trkpt><trkpt lat="44.41219642020487" lon="9.225277621312605"><ele>100.4</ele><time>2026-04-18T07:37:57.999Z</time></trkpt><trkpt lat="44.41221071003482" lon="9.22542911370407"><ele>99.6</ele><time>2026-04-18T07:37:58.999Z</time></trkpt><trkpt lat="44.412209995830345" lon="9.225570978371808"><ele>98.80000000000001</ele><time>2026-04-18T07:37:59.999Z</time></trkpt><trkpt lat="44.41218093508017" lon="9.225716062907228"><ele>98.0</ele><time>2026-04-18T07:38:00.999Z</time></trkpt><trkpt lat="44.41211933248272" lon="9.22584656118246"><ele>98.0</ele><time>2026-04-18T07:38:01.999Z</time></trkpt><trkpt lat="44.41204583521167" lon="9.225962955662279"><ele>98.0</ele><time>2026-04-18T07:38:02.999Z</time></trkpt><trkpt lat="44.41194374477022" lon="9.226064340388096"><ele>98.0</ele><time>2026-04-18T07:38:03.999Z</time></trkpt><trkpt lat="44.41182778225525" lon="9.226149277093484"><ele>98.0</ele><time>2026-04-18T07:38:04.999Z</time></trkpt><trkpt lat="44.41171208433963" lon="9.226232101783529"><ele>98.0</ele><time>2026-04-18T07:38:05.999Z</time></trkpt><trkpt lat="44.41161043680465" lon="9.226323726150094"><ele>98.0</ele><time>2026-04-18T07:38:06.999Z</time></trkpt><trkpt lat="44.411530921900905" lon="9.226414062589066"><ele>98.0</ele><time>2026-04-18T07:38:07.999Z</time></trkpt><trkpt lat="44.41145434308306" lon="9.226517657345976"><ele>98.0</ele><time>2026-04-18T07:38:08.999Z</time></trkpt><trkpt lat="44.41139077787669" lon="9.226653675484123"><ele>98.0</ele><time>2026-04-18T07:38:09.999Z</time></trkpt><trkpt lat="44.41134482818338" lon="9.226815330184836"><ele>99.25</ele><time>2026-04-18T07:38:10.999Z</time></trkpt><trkpt lat="44.41132523241945" lon="9.226999535981204"><ele>100.5</ele><time>2026-04-18T07:38:12Z</time></trkpt><trkpt lat="44.41132790560355" lon="9.227181554987423"><ele>101.75</ele><time>2026-04-18T07:38:13Z</time></trkpt><trkpt lat="44.41133430650879" lon="9.227368353262262"><ele>103.0</ele><time>2026-04-18T07:38:14Z</time></trkpt><trkpt lat="44.411343725272125" lon="9.227541308766986"><ele>103.5</ele><time>2026-04-18T07:38:15Z</time></trkpt><trkpt lat="44.41135042217744" lon="9.227718185295776"><ele>104.0</ele><time>2026-04-18T07:38:16Z</time></trkpt><trkpt lat="44.41135270633123" lon="9.22790565362515"><ele>104.5</ele><time>2026-04-18T07:38:17Z</time></trkpt><trkpt lat="44.41135853980592" lon="9.228105374164697"><ele>105.0</ele><time>2026-04-18T07:38:18Z</time></trkpt><trkpt lat="44.411363799429985" lon="9.228302463708767"><ele>105.25</ele><time>2026-04-18T07:38:19Z</time></trkpt><trkpt lat="44.411365225354025" lon="9.228476512884654"><ele>105.5</ele><time>2026-04-18T07:38:20Z</time></trkpt><trkpt lat="44.41136642497409" lon="9.228636672663278"><ele>105.75</ele><time>2026-04-18T07:38:21Z</time></trkpt><trkpt lat="44.411382240907685" lon="9.228791452174232"><ele>106.0</ele><time>2026-04-18T07:38:22Z</time></trkpt><trkpt lat="44.411388593264036" lon="9.228962961025863"><ele>105.8</ele><time>2026-04-18T07:38:23Z</time></trkpt><trkpt lat="44.41139154968665" lon="9.229150487622675"><ele>105.6</ele><time>2026-04-18T07:38:24Z</time></trkpt><trkpt lat="44.411401476156186" lon="9.229334978933814"><ele>105.4</ele><time>2026-04-18T07:38:25Z</time></trkpt><trkpt lat="44.411413046558984" lon="9.229467644785915"><ele>105.2</ele><time>2026-04-18T07:38:26Z</time></trkpt><trkpt lat="44.411414802785025" lon="9.229590378728506"><ele>105.0</ele><time>2026-04-18T07:38:27Z</time></trkpt><trkpt lat="44.41141559134535" lon="9.22971562331262"><ele>105.0</ele><time>2026-04-18T07:38:28Z</time></trkpt><trkpt lat="44.41141934367969" lon="9.22985554249062"><ele>105.0</ele><time>2026-04-18T07:38:29Z</time></trkpt><trkpt lat="44.4114217297819" lon="9.229984623721794"><ele>105.0</ele><time>2026-04-18T07:38:30Z</time></trkpt><trkpt lat="44.411423218088956" lon="9.23013140453714"><ele>105.0</ele><time>2026-04-18T07:38:31Z</time></trkpt><trkpt lat="44.4114284011439" lon="9.230293918470766"><ele>105.0</ele><time>2026-04-18T07:38:32Z</time></trkpt><trkpt lat="44.411422541080086" lon="9.230455872888546"><ele>105.0</ele><time>2026-04-18T07:38:33Z</time></trkpt><trkpt lat="44.411395067677375" lon="9.230613692769655"><ele>105.0</ele><time>2026-04-18T07:38:34Z</time></trkpt><trkpt lat="44.41136426916556" lon="9.230809279053098"><ele>105.0</ele><time>2026-04-18T07:38:35Z</time></trkpt><trkpt lat="44.41132506562891" lon="9.23099376851757"><ele>105.0</ele><time>2026-04-18T07:38:36Z</time></trkpt><trkpt lat="44.41130264210785" lon="9.231162295346495"><ele>100.5</ele><time>2026-04-18T07:38:37Z</time></trkpt><trkpt lat="44.41128099295747" lon="9.231330311199013"><ele>96.0</ele><time>2026-04-18T07:38:38Z</time></trkpt><trkpt lat="44.41124589382009" lon="9.231492890583612"><ele>91.5</ele><time>2026-04-18T07:38:39Z</time></trkpt><trkpt lat="44.41121549664801" lon="9.231641453536028"><ele>87.0</ele><time>2026-04-18T07:38:40Z</time></trkpt><trkpt lat="44.411190512283945" lon="9.231771888047893"><ele>87.0</ele><time>2026-04-18T07:38:41Z</time></trkpt><trkpt lat="44.411163466327004" lon="9.231930181563046"><ele>87.0</ele><time>2026-04-18T07:38:42Z</time></trkpt><trkpt lat="44.411141118274585" lon="9.232095995096891"><ele>87.0</ele><time>2026-04-18T07:38:43Z</time></trkpt><trkpt lat="44.41111708947273" lon="9.232231898879382"><ele>87.0</ele><time>2026-04-18T07:38:44Z</time></trkpt><trkpt lat="44.411093651830456" lon="9.232371558825843"><ele>87.0</ele><time>2026-04-18T07:38:45Z</time></trkpt><trkpt lat="44.41106951397854" lon="9.23252995640898"><ele>87.0</ele><time>2026-04-18T07:38:46Z</time></trkpt><trkpt lat="44.41104441056264" lon="9.232653877938509"><ele>87.0</ele><time>2026-04-18T07:38:47Z</time></trkpt><trkpt lat="44.41101917129616" lon="9.232795897543227"><ele>87.0</ele><time>2026-04-18T07:38:48Z</time></trkpt><trkpt lat="44.41099476502802" lon="9.232960186299547"><ele>87.0</ele><time>2026-04-18T07:38:49Z</time></trkpt><trkpt lat="44.41095575812059" lon="9.233128027163831"><ele>87.0</ele><time>2026-04-18T07:38:50Z</time></trkpt><trkpt lat="44.41093339696257" lon="9.233276115889986"><ele>87.0</ele><time>2026-04-18T07:38:51Z</time></trkpt><trkpt lat="44.410910663639946" lon="9.233409525311243"><ele>87.0</ele><time>2026-04-18T07:38:52Z</time></trkpt><trkpt lat="44.41089181893135" lon="9.233531573480397"><ele>87.0</ele><time>2026-04-18T07:38:53Z</time></trkpt><trkpt lat="44.410865793307245" lon="9.23366194139426"><ele>87.0</ele><time>2026-04-18T07:38:54Z</time></trkpt><trkpt lat="44.410844208131536" lon="9.233796634261504"><ele>87.0</ele><time>2026-04-18T07:38:55Z</time></trkpt><trkpt lat="44.4108167761477" lon="9.233934643400142"><ele>88.19999999999999</ele><time>2026-04-18T07:38:56Z</time></trkpt><trkpt lat="44.410761510685106" lon="9.23405988812541"><ele>89.4</ele><time>2026-04-18T07:38:57Z</time></trkpt><trkpt lat="44.41072321601892" lon="9.234188903100254"><ele>90.6</ele><time>2026-04-18T07:38:58Z</time></trkpt><trkpt lat="44.41065947682746" lon="9.234328571125626"><ele>91.80000000000001</ele><time>2026-04-18T07:38:59Z</time></trkpt><trkpt lat="44.41060085425034" lon="9.23444387770855"><ele>93.0</ele><time>2026-04-18T07:39:00Z</time></trkpt><trkpt lat="44.41054609056552" lon="9.234563267590142"><ele>93.0</ele><time>2026-04-18T07:39:01Z</time></trkpt><trkpt lat="44.410522217417586" lon="9.234657307126508"><ele>93.0</ele><time>2026-04-18T07:39:02Z</time></trkpt><trkpt lat="44.41049809867115" lon="9.234752938639408"><ele>93.0</ele><time>2026-04-18T07:39:03Z</time></trkpt><trkpt lat="44.410476093949" lon="9.234853447039663"><ele>93.0</ele><time>2026-04-18T07:39:04Z</time></trkpt><trkpt lat="44.41045851467177" lon="9.234944062165711"><ele>93.0</ele><time>2026-04-18T07:39:05Z</time></trkpt><trkpt lat="44.41044016687732" lon="9.235048511675963"><ele>93.0</ele><time>2026-04-18T07:39:06Z</time></trkpt><trkpt lat="44.41041268900287" lon="9.23516616276388"><ele>91.5</ele><time>2026-04-18T07:39:07Z</time></trkpt><trkpt lat="44.41035914945008" lon="9.235249682927089"><ele>90.0</ele><time>2026-04-18T07:39:08Z</time></trkpt><trkpt lat="44.41031848958069" lon="9.23534462877393"><ele>88.5</ele><time>2026-04-18T07:39:09Z</time></trkpt><trkpt lat="44.41027411061608" lon="9.235446834356292"><ele>87.0</ele><time>2026-04-18T07:39:10Z</time></trkpt><trkpt lat="44.410223669787484" lon="9.235565775368498"><ele>85.5</ele><time>2026-04-18T07:39:11Z</time></trkpt><trkpt lat="44.41018043492196" lon="9.235666638464595"><ele>84.0</ele><time>2026-04-18T07:39:12Z</time></trkpt><trkpt lat="44.41014823650828" lon="9.235777722182176"><ele>84.0</ele><time>2026-04-18T07:39:13Z</time></trkpt><trkpt lat="44.41008078453767" lon="9.23586982950565"><ele>84.0</ele><time>2026-04-18T07:39:14Z</time></trkpt><trkpt lat="44.4100489651699" lon="9.235976032264725"><ele>84.0</ele><time>2026-04-18T07:39:15Z</time></trkpt><trkpt lat="44.40999982897621" lon="9.236067853498106"><ele>84.0</ele><time>2026-04-18T07:39:16Z</time></trkpt><trkpt lat="44.409954353933145" lon="9.236161547386743"><ele>84.0</ele><time>2026-04-18T07:39:17Z</time></trkpt><trkpt lat="44.40988863968212" lon="9.236247718974242"><ele>84.0</ele><time>2026-04-18T07:39:18Z</time></trkpt><trkpt lat="44.40983761742202" lon="9.236367652913477"><ele>84.0</ele><time>2026-04-18T07:39:19Z</time></trkpt><trkpt lat="44.40980088283523" lon="9.23646814731509"><ele>84.0</ele><time>2026-04-18T07:39:19.999Z</time></trkpt><trkpt lat="44.409768410904256" lon="9.236561956928359"><ele>84.0</ele><time>2026-04-18T07:39:20.999Z</time></trkpt><trkpt lat="44.40973953503354" lon="9.236654121822042"><ele>84.0</ele><time>2026-04-18T07:39:21.999Z</time></trkpt><trkpt lat="44.40971364604747" lon="9.236738228799547"><ele>84.0</ele><time>2026-04-18T07:39:22.999Z</time></trkpt><trkpt lat="44.40968735159351" lon="9.236825320580087"><ele>84.0</ele><time>2026-04-18T07:39:23.999Z</time></trkpt><trkpt lat="44.40966106831771" lon="9.23691237535737"><ele>84.0</ele><time>2026-04-18T07:39:24.999Z</time></trkpt><trkpt lat="44.40963539720357" lon="9.236997402510537"><ele>84.0</ele><time>2026-04-18T07:39:25.999Z</time></trkpt><trkpt lat="44.409610236143486" lon="9.237080740515685"><ele>84.0</ele><time>2026-04-18T07:39:26.999Z</time></trkpt><trkpt lat="44.40957448061454" lon="9.237255855414585"><ele>84.0</ele><time>2026-04-18T07:39:28.999Z</time></trkpt><trkpt lat="44.409546962574126" lon="9.23734697310256"><ele>84.0</ele><time>2026-04-18T07:39:29.999Z</time></trkpt><trkpt lat="44.409513310781314" lon="9.237470251555777"><ele>84.0</ele><time>2026-04-18T07:39:30.999Z</time></trkpt><trkpt lat="44.40947087873363" lon="9.237600912573987"><ele>84.25</ele><time>2026-04-18T07:39:31.999Z</time></trkpt><trkpt lat="44.4094284399476" lon="9.237712074293729"><ele>84.5</ele><time>2026-04-18T07:39:32.999Z</time></trkpt><trkpt lat="44.40934224107096" lon="9.237796102045433"><ele>84.75</ele><time>2026-04-18T07:39:33.999Z</time></trkpt><trkpt lat="44.40923739157018" lon="9.237933361254946"><ele>85.0</ele><time>2026-04-18T07:39:34.999Z</time></trkpt><trkpt lat="44.40913231435368" lon="9.238046357791983"><ele>83.75</ele><time>2026-04-18T07:39:35.999Z</time></trkpt><trkpt lat="44.409029316197646" lon="9.23813700057793"><ele>82.5</ele><time>2026-04-18T07:39:36.999Z</time></trkpt><trkpt lat="44.40894576382364" lon="9.238238682522729"><ele>81.25</ele><time>2026-04-18T07:39:37.999Z</time></trkpt><trkpt lat="44.40886702483704" lon="9.23833574501157"><ele>80.0</ele><time>2026-04-18T07:39:38.999Z</time></trkpt><trkpt lat="44.40877591724646" lon="9.23843115628364"><ele>80.0</ele><time>2026-04-18T07:39:39.999Z</time></trkpt><trkpt lat="44.408680412399704" lon="9.238518655804882"><ele>80.0</ele><time>2026-04-18T07:39:40.999Z</time></trkpt><trkpt lat="44.40858209590081" lon="9.238615811166152"><ele>80.0</ele><time>2026-04-18T07:39:41.999Z</time></trkpt><trkpt lat="44.40848051442064" lon="9.238724478796009"><ele>80.0</ele><time>2026-04-18T07:39:42.999Z</time></trkpt><trkpt lat="44.40839416354991" lon="9.238839426999341"><ele>80.0</ele><time>2026-04-18T07:39:43.999Z</time></trkpt><trkpt lat="44.408289085110425" lon="9.238940762719665"><ele>80.0</ele><time>2026-04-18T07:39:44.999Z</time></trkpt><trkpt lat="44.40819797228362" lon="9.239035990733454"><ele>80.0</ele><time>2026-04-18T07:39:45.999Z</time></trkpt><trkpt lat="44.40810156014155" lon="9.239123877654611"><ele>80.0</ele><time>2026-04-18T07:39:46.999Z</time></trkpt><trkpt lat="44.40798627832295" lon="9.239243352179379"><ele>81.25</ele><time>2026-04-18T07:39:47.999Z</time></trkpt><trkpt lat="44.407864163853425" lon="9.239369885391277"><ele>82.5</ele><time>2026-04-18T07:39:48.999Z</time></trkpt><trkpt lat="44.40775838663975" lon="9.239489141405649"><ele>83.75</ele><time>2026-04-18T07:39:49.999Z</time></trkpt><trkpt lat="44.407666880259676" lon="9.239583954746372"><ele>85.0</ele><time>2026-04-18T07:39:50.999Z</time></trkpt><trkpt lat="44.407585340752874" lon="9.239665758795143"><ele>85.0</ele><time>2026-04-18T07:39:51.999Z</time></trkpt><trkpt lat="44.40750430672146" lon="9.23974619665748"><ele>85.0</ele><time>2026-04-18T07:39:52.999Z</time></trkpt><trkpt lat="44.40742067041519" lon="9.239851121317168"><ele>85.0</ele><time>2026-04-18T07:39:53.999Z</time></trkpt><trkpt lat="44.40732591462045" lon="9.239939681673802"><ele>85.0</ele><time>2026-04-18T07:39:54.999Z</time></trkpt><trkpt lat="44.40722374153266" lon="9.240041724148238"><ele>85.0</ele><time>2026-04-18T07:39:55.999Z</time></trkpt><trkpt lat="44.40712281282026" lon="9.240145667658709"><ele>85.0</ele><time>2026-04-18T07:39:56.999Z</time></trkpt><trkpt lat="44.407031124836095" lon="9.240243445521672"><ele>85.0</ele><time>2026-04-18T07:39:57.999Z</time></trkpt><trkpt lat="44.40693403219203" lon="9.240343665163314"><ele>85.0</ele><time>2026-04-18T07:39:58.999Z</time></trkpt><trkpt lat="44.40683784468691" lon="9.240450597333018"><ele>85.0</ele><time>2026-04-18T07:39:59.999Z</time></trkpt><trkpt lat="44.40673445324048" lon="9.24056083348929"><ele>85.0</ele><time>2026-04-18T07:40:00.999Z</time></trkpt><trkpt lat="44.406642973760036" lon="9.240639877781879"><ele>85.0</ele><time>2026-04-18T07:40:01.999Z</time></trkpt><trkpt lat="44.40655813253141" lon="9.240739435530696"><ele>85.0</ele><time>2026-04-18T07:40:02.999Z</time></trkpt><trkpt lat="44.40646349969243" lon="9.240840634229938"><ele>85.25</ele><time>2026-04-18T07:40:03.999Z</time></trkpt><trkpt lat="44.406364378030375" lon="9.240944600717071"><ele>85.5</ele><time>2026-04-18T07:40:04.999Z</time></trkpt><trkpt lat="44.406266088592005" lon="9.241049038106924"><ele>85.75</ele><time>2026-04-18T07:40:05.999Z</time></trkpt><trkpt lat="44.40617938434137" lon="9.241136828855355"><ele>86.0</ele><time>2026-04-18T07:40:06.999Z</time></trkpt><trkpt lat="44.406099225526866" lon="9.2412186650356"><ele>86.0</ele><time>2026-04-18T07:40:07.999Z</time></trkpt><trkpt lat="44.40602159650523" lon="9.241306404640424"><ele>86.0</ele><time>2026-04-18T07:40:08.999Z</time></trkpt><trkpt lat="44.40593733756043" lon="9.241406181215629"><ele>86.0</ele><time>2026-04-18T07:40:09.999Z</time></trkpt><trkpt lat="44.40586090741508" lon="9.241532137213643"><ele>86.0</ele><time>2026-04-18T07:40:10.999Z</time></trkpt><trkpt lat="44.405807299777685" lon="9.241655915453535"><ele>86.0</ele><time>2026-04-18T07:40:11.999Z</time></trkpt><trkpt lat="44.405774213009884" lon="9.241768836478856"><ele>86.66666666666667</ele><time>2026-04-18T07:40:12.999Z</time></trkpt><trkpt lat="44.40573302281667" lon="9.241871857397262"><ele>87.33333333333334</ele><time>2026-04-18T07:40:13.999Z</time></trkpt><trkpt lat="44.40569422395" lon="9.241971351977067"><ele>88.0</ele><time>2026-04-18T07:40:14.999Z</time></trkpt><trkpt lat="44.40565112234954" lon="9.242073274294466"><ele>88.66666666666667</ele><time>2026-04-18T07:40:15.999Z</time></trkpt><trkpt lat="44.405618611899364" lon="9.242164765138016"><ele>89.33333333333333</ele><time>2026-04-18T07:40:16.999Z</time></trkpt><trkpt lat="44.40558658818273" lon="9.242244720898219"><ele>90.0</ele><time>2026-04-18T07:40:18Z</time></trkpt><trkpt lat="44.40555604207424" lon="9.242323622633641"><ele>90.0</ele><time>2026-04-18T07:40:19Z</time></trkpt><trkpt lat="44.405520779550024" lon="9.242411478549379"><ele>90.0</ele><time>2026-04-18T07:40:20Z</time></trkpt><trkpt lat="44.40548656413605" lon="9.242492643039348"><ele>90.0</ele><time>2026-04-18T07:40:21Z</time></trkpt><trkpt lat="44.405454958826255" lon="9.242570443156383"><ele>90.0</ele><time>2026-04-18T07:40:22Z</time></trkpt><trkpt lat="44.405427310435925" lon="9.242664853098885"><ele>90.0</ele><time>2026-04-18T07:40:23Z</time></trkpt><trkpt lat="44.40539062318769" lon="9.242770385257886"><ele>90.0</ele><time>2026-04-18T07:40:24Z</time></trkpt><trkpt lat="44.4053434926903" lon="9.242891221881166"><ele>89.5</ele><time>2026-04-18T07:40:25Z</time></trkpt><trkpt lat="44.40529126456436" lon="9.24301370488078"><ele>89.0</ele><time>2026-04-18T07:40:26Z</time></trkpt><trkpt lat="44.405249437555945" lon="9.243120799042169"><ele>88.5</ele><time>2026-04-18T07:40:27Z</time></trkpt><trkpt lat="44.40521377860716" lon="9.243208723216425"><ele>88.0</ele><time>2026-04-18T07:40:28Z</time></trkpt><trkpt lat="44.4051741120619" lon="9.243311402186054"><ele>87.5</ele><time>2026-04-18T07:40:29Z</time></trkpt><trkpt lat="44.40512959460251" lon="9.243425987427106"><ele>87.0</ele><time>2026-04-18T07:40:30Z</time></trkpt><trkpt lat="44.40509128652962" lon="9.243525000829608"><ele>87.0</ele><time>2026-04-18T07:40:31Z</time></trkpt><trkpt lat="44.405030936725076" lon="9.243666721214723"><ele>87.0</ele><time>2026-04-18T07:40:33Z</time></trkpt><trkpt lat="44.404984079296256" lon="9.243786560358902"><ele>87.0</ele><time>2026-04-18T07:40:35Z</time></trkpt><trkpt lat="44.404954094507936" lon="9.243867436798437"><ele>87.0</ele><time>2026-04-18T07:40:37Z</time></trkpt><trkpt lat="44.40491859662201" lon="9.243964207975095"><ele>87.0</ele><time>2026-04-18T07:40:39Z</time></trkpt><trkpt lat="44.4048839663548" lon="9.244059692718594"><ele>87.0</ele><time>2026-04-18T07:40:41Z</time></trkpt><trkpt lat="44.40485859928388" lon="9.244143116768495"><ele>87.0</ele><time>2026-04-18T07:40:43Z</time></trkpt><trkpt lat="44.40481657182722" lon="9.244252670311978"><ele>87.0</ele><time>2026-04-18T07:40:45Z</time></trkpt><trkpt lat="44.40475378525721" lon="9.244393666236462"><ele>87.0</ele><time>2026-04-18T07:40:47Z</time></trkpt><trkpt lat="44.404709058613186" lon="9.24449543563905"><ele>87.0</ele><time>2026-04-18T07:40:48Z</time></trkpt><trkpt lat="44.40465554634201" lon="9.244637912049459"><ele>87.0</ele><time>2026-04-18T07:40:49Z</time></trkpt><trkpt lat="44.404600455146" lon="9.244779956130277"><ele>86.25</ele><time>2026-04-18T07:40:50Z</time></trkpt><trkpt lat="44.404547548139405" lon="9.244906150787692"><ele>85.5</ele><time>2026-04-18T07:40:51Z</time></trkpt><trkpt lat="44.404498567909556" lon="9.245022976397511"><ele>84.75</ele><time>2026-04-18T07:40:52Z</time></trkpt><trkpt lat="44.40444644380639" lon="9.24516775926302"><ele>84.0</ele><time>2026-04-18T07:40:53Z</time></trkpt><trkpt lat="44.40437535023174" lon="9.245352349604119"><ele>84.0</ele><time>2026-04-18T07:40:54Z</time></trkpt><trkpt lat="44.40430553185769" lon="9.245539306241321"><ele>84.0</ele><time>2026-04-18T07:40:55Z</time></trkpt><trkpt lat="44.404243935532946" lon="9.245688717956671"><ele>84.0</ele><time>2026-04-18T07:40:56Z</time></trkpt><trkpt lat="44.40419689104659" lon="9.245825854254031"><ele>84.0</ele><time>2026-04-18T07:40:57Z</time></trkpt><trkpt lat="44.40415102070847" lon="9.245951317165902"><ele>83.80000000000001</ele><time>2026-04-18T07:40:58Z</time></trkpt><trkpt lat="44.40409617533756" lon="9.246066967352705"><ele>83.60000000000001</ele><time>2026-04-18T07:40:59Z</time></trkpt><trkpt lat="44.40405328496308" lon="9.246187114739008"><ele>83.4</ele><time>2026-04-18T07:41:00Z</time></trkpt><trkpt lat="44.404019583556675" lon="9.246317177287409"><ele>83.2</ele><time>2026-04-18T07:41:01Z</time></trkpt><trkpt lat="44.40396076708323" lon="9.246463096484096"><ele>83.0</ele><time>2026-04-18T07:41:02Z</time></trkpt><trkpt lat="44.40390481749931" lon="9.24661581562629"><ele>82.25</ele><time>2026-04-18T07:41:03Z</time></trkpt><trkpt lat="44.403846801698045" lon="9.246759186134026"><ele>81.5</ele><time>2026-04-18T07:41:04Z</time></trkpt><trkpt lat="44.40377661222796" lon="9.246919367989099"><ele>80.75</ele><time>2026-04-18T07:41:05Z</time></trkpt><trkpt lat="44.40371825372573" lon="9.247057441621411"><ele>80.0</ele><time>2026-04-18T07:41:06Z</time></trkpt><trkpt lat="44.40367120126515" lon="9.247191359444969"><ele>80.5</ele><time>2026-04-18T07:41:07Z</time></trkpt><trkpt lat="44.403604769306384" lon="9.247327134809398"><ele>81.0</ele><time>2026-04-18T07:41:08Z</time></trkpt><trkpt lat="44.40354919323569" lon="9.247499295352668"><ele>81.5</ele><time>2026-04-18T07:41:09Z</time></trkpt><trkpt lat="44.40348177172386" lon="9.247671385994822"><ele>82.0</ele><time>2026-04-18T07:41:10Z</time></trkpt><trkpt lat="44.403417726535864" lon="9.24784546202337"><ele>82.0</ele><time>2026-04-18T07:41:11Z</time></trkpt><trkpt lat="44.40334844338727" lon="9.247986149821811"><ele>82.0</ele><time>2026-04-18T07:41:12Z</time></trkpt><trkpt lat="44.403307040832374" lon="9.248140046671166"><ele>82.0</ele><time>2026-04-18T07:41:13Z</time></trkpt><trkpt lat="44.40323010823789" lon="9.2483163166104"><ele>82.0</ele><time>2026-04-18T07:41:14Z</time></trkpt><trkpt lat="44.40318369259113" lon="9.248470927465673"><ele>81.8</ele><time>2026-04-18T07:41:15Z</time></trkpt><trkpt lat="44.40312514569143" lon="9.248583063181927"><ele>81.6</ele><time>2026-04-18T07:41:16Z</time></trkpt><trkpt lat="44.40308269876112" lon="9.248732662822142"><ele>81.39999999999999</ele><time>2026-04-18T07:41:17Z</time></trkpt><trkpt lat="44.40303266467208" lon="9.248871486214501"><ele>81.19999999999999</ele><time>2026-04-18T07:41:18Z</time></trkpt><trkpt lat="44.40299028366788" lon="9.248988862541836"><ele>81.0</ele><time>2026-04-18T07:41:19Z</time></trkpt><trkpt lat="44.40295264866391" lon="9.249102214020926"><ele>80.66666666666667</ele><time>2026-04-18T07:41:20Z</time></trkpt><trkpt lat="44.40289540210746" lon="9.24921353293024"><ele>80.33333333333333</ele><time>2026-04-18T07:41:21Z</time></trkpt><trkpt lat="44.402871822135204" lon="9.249329894646293"><ele>80.0</ele><time>2026-04-18T07:41:22Z</time></trkpt><trkpt lat="44.4028233182932" lon="9.249416004483228"><ele>79.66666666666666</ele><time>2026-04-18T07:41:23Z</time></trkpt><trkpt lat="44.402786402390646" lon="9.249519840680886"><ele>79.33333333333333</ele><time>2026-04-18T07:41:24Z</time></trkpt><trkpt lat="44.40275440250634" lon="9.249609859290711"><ele>79.0</ele><time>2026-04-18T07:41:25Z</time></trkpt><trkpt lat="44.40272634541785" lon="9.249688786556513"><ele>79.0</ele><time>2026-04-18T07:41:25.999Z</time></trkpt><trkpt lat="44.40270781918665" lon="9.249777630251764"><ele>79.0</ele><time>2026-04-18T07:41:27.999Z</time></trkpt><trkpt lat="44.40286175163446" lon="9.2498731124817"><ele>79.0</ele><time>2026-04-18T07:41:28.999Z</time></trkpt><trkpt lat="44.40293967903553" lon="9.24987840627154"><ele>79.0</ele><time>2026-04-18T07:41:29.999Z</time></trkpt><trkpt lat="44.40304806171878" lon="9.249871895431333"><ele>79.0</ele><time>2026-04-18T07:41:30.999Z</time></trkpt><trkpt lat="44.4031812578566" lon="9.24989099592684"><ele>79.25</ele><time>2026-04-18T07:41:31.999Z</time></trkpt><trkpt lat="44.40331524854774" lon="9.249915982537342"><ele>79.5</ele><time>2026-04-18T07:41:32.999Z</time></trkpt><trkpt lat="44.40346435931821" lon="9.249941213963098"><ele>79.75</ele><time>2026-04-18T07:41:33.999Z</time></trkpt><trkpt lat="44.40360313115517" lon="9.24996531141773"><ele>80.0</ele><time>2026-04-18T07:41:34.999Z</time></trkpt><trkpt lat="44.40371233603262" lon="9.249982881949352"><ele>81.25</ele><time>2026-04-18T07:41:35.999Z</time></trkpt><trkpt lat="44.40383167339661" lon="9.250010866094517"><ele>82.5</ele><time>2026-04-18T07:41:36.999Z</time></trkpt><trkpt lat="44.4039558376433" lon="9.25003441578116"><ele>83.75</ele><time>2026-04-18T07:41:37.999Z</time></trkpt><trkpt lat="44.40408822925929" lon="9.2500614944104"><ele>85.0</ele><time>2026-04-18T07:41:38.999Z</time></trkpt><trkpt lat="44.4042335499627" lon="9.25008717472631"><ele>85.0</ele><time>2026-04-18T07:41:39.999Z</time></trkpt><trkpt lat="44.404399077214656" lon="9.250111961186558"><ele>85.0</ele><time>2026-04-18T07:41:40.999Z</time></trkpt><trkpt lat="44.40456804477704" lon="9.250144077715085"><ele>85.0</ele><time>2026-04-18T07:41:41.999Z</time></trkpt><trkpt lat="44.40471054478676" lon="9.250179079669117"><ele>85.0</ele><time>2026-04-18T07:41:42.999Z</time></trkpt><trkpt lat="44.40482948094314" lon="9.25020162842803"><ele>85.0</ele><time>2026-04-18T07:41:43.999Z</time></trkpt><trkpt lat="44.40492079999263" lon="9.250203377265551"><ele>85.0</ele><time>2026-04-18T07:41:44.999Z</time></trkpt><trkpt lat="44.40505812065235" lon="9.250219085098546"><ele>85.0</ele><time>2026-04-18T07:41:45.999Z</time></trkpt><trkpt lat="44.405216440529394" lon="9.250107369771571"><ele>85.0</ele><time>2026-04-18T07:41:46.999Z</time></trkpt><trkpt lat="44.40534227602743" lon="9.249909882177453"><ele>85.0</ele><time>2026-04-18T07:41:47.999Z</time></trkpt><trkpt lat="44.40545823554044" lon="9.249686163862934"><ele>85.0</ele><time>2026-04-18T07:41:48.999Z</time></trkpt><trkpt lat="44.405560510623886" lon="9.249433339443208"><ele>85.66666666666666</ele><time>2026-04-18T07:41:49.999Z</time></trkpt><trkpt lat="44.40562598929163" lon="9.249251147360608"><ele>86.33333333333333</ele><time>2026-04-18T07:41:50.999Z</time></trkpt><trkpt lat="44.40569454788852" lon="9.249059151822328"><ele>87.0</ele><time>2026-04-18T07:41:51.999Z</time></trkpt><trkpt lat="44.40576447708937" lon="9.248858734671837"><ele>90.0</ele><time>2026-04-18T07:41:52.999Z</time></trkpt><trkpt lat="44.405839654947286" lon="9.248642213356272"><ele>93.0</ele><time>2026-04-18T07:41:53.999Z</time></trkpt><trkpt lat="44.40590891072433" lon="9.24844274827861"><ele>96.0</ele><time>2026-04-18T07:41:54.999Z</time></trkpt><trkpt lat="44.40597278962523" lon="9.24826709875519"><ele>100.0</ele><time>2026-04-18T07:41:55.999Z</time></trkpt><trkpt lat="44.40605773308789" lon="9.248064386868105"><ele>104.0</ele><time>2026-04-18T07:41:56.999Z</time></trkpt><trkpt lat="44.40616000469694" lon="9.24787103173704"><ele>108.0</ele><time>2026-04-18T07:41:57.999Z</time></trkpt><trkpt lat="44.40626548909973" lon="9.247719892691345"><ele>101.66666666666667</ele><time>2026-04-18T07:41:58.999Z</time></trkpt><trkpt lat="44.40636514069478" lon="9.247538073313386"><ele>95.33333333333334</ele><time>2026-04-18T07:41:59.999Z</time></trkpt><trkpt lat="44.40650783644037" lon="9.247419618834229"><ele>89.0</ele><time>2026-04-18T07:42:00.999Z</time></trkpt><trkpt lat="44.40664583236305" lon="9.247340728567018"><ele>94.33333333333334</ele><time>2026-04-18T07:42:01.999Z</time></trkpt><trkpt lat="44.40681742916791" lon="9.247283010692122"><ele>99.66666666666667</ele><time>2026-04-18T07:42:02.999Z</time></trkpt><trkpt lat="44.406997923654494" lon="9.247270216366887"><ele>105.0</ele><time>2026-04-18T07:42:03.999Z</time></trkpt><trkpt lat="44.40715735416969" lon="9.247201179653306"><ele>105.0</ele><time>2026-04-18T07:42:04.999Z</time></trkpt><trkpt lat="44.40729899576132" lon="9.247145202999832"><ele>105.0</ele><time>2026-04-18T07:42:05.999Z</time></trkpt><trkpt lat="44.407414189577345" lon="9.247115041895409"><ele>105.0</ele><time>2026-04-18T07:42:06.999Z</time></trkpt><trkpt lat="44.40756862379135" lon="9.24711388521841"><ele>105.0</ele><time>2026-04-18T07:42:07.999Z</time></trkpt><trkpt lat="44.40773225949786" lon="9.247159799184162"><ele>105.0</ele><time>2026-04-18T07:42:08.999Z</time></trkpt><trkpt lat="44.40789577631458" lon="9.247250486524763"><ele>105.0</ele><time>2026-04-18T07:42:09.999Z</time></trkpt><trkpt lat="44.40805826495305" lon="9.247355983263708"><ele>105.0</ele><time>2026-04-18T07:42:10.999Z</time></trkpt><trkpt lat="44.40820562731328" lon="9.24745921441363"><ele>101.0</ele><time>2026-04-18T07:42:11.999Z</time></trkpt><trkpt lat="44.40836120202133" lon="9.247576329790475"><ele>97.0</ele><time>2026-04-18T07:42:12.999Z</time></trkpt><trkpt lat="44.40853121425366" lon="9.247683516756807"><ele>93.0</ele><time>2026-04-18T07:42:13.999Z</time></trkpt><trkpt lat="44.40865923510518" lon="9.247806915692374"><ele>93.0</ele><time>2026-04-18T07:42:14.999Z</time></trkpt><trkpt lat="44.40878505819473" lon="9.24790297963688"><ele>93.0</ele><time>2026-04-18T07:42:15.999Z</time></trkpt><trkpt lat="44.4089144038555" lon="9.247998036768353"><ele>93.0</ele><time>2026-04-18T07:42:16.999Z</time></trkpt><trkpt lat="44.40904050790352" lon="9.248096831090487"><ele>93.0</ele><time>2026-04-18T07:42:17.999Z</time></trkpt><trkpt lat="44.4091225204491" lon="9.248174385159869"><ele>96.25</ele><time>2026-04-18T07:42:18.999Z</time></trkpt><trkpt lat="44.40917904597503" lon="9.248243990448165"><ele>99.5</ele><time>2026-04-18T07:42:19.999Z</time></trkpt><trkpt lat="44.409230746950406" lon="9.248405453020997"><ele>102.75</ele><time>2026-04-18T07:42:20.999Z</time></trkpt><trkpt lat="44.40926752789203" lon="9.24860627467012"><ele>106.0</ele><time>2026-04-18T07:42:21.999Z</time></trkpt><trkpt lat="44.409302436562335" lon="9.248812032254353"><ele>104.0</ele><time>2026-04-18T07:42:22.999Z</time></trkpt><trkpt lat="44.40933687985383" lon="9.248995673728846"><ele>102.0</ele><time>2026-04-18T07:42:24Z</time></trkpt><trkpt lat="44.40937442720898" lon="9.249150149581741"><ele>100.0</ele><time>2026-04-18T07:42:25Z</time></trkpt><trkpt lat="44.40943119542249" lon="9.24930432001215"><ele>98.0</ele><time>2026-04-18T07:42:26Z</time></trkpt><trkpt lat="44.409526250207584" lon="9.249458155103888"><ele>98.0</ele><time>2026-04-18T07:42:27Z</time></trkpt><trkpt lat="44.40965003109699" lon="9.249619977500124"><ele>98.0</ele><time>2026-04-18T07:42:28Z</time></trkpt><trkpt lat="44.40977511274894" lon="9.24977475960603"><ele>98.0</ele><time>2026-04-18T07:42:29Z</time></trkpt><trkpt lat="44.409862535535524" lon="9.249907979139193"><ele>100.5</ele><time>2026-04-18T07:42:30Z</time></trkpt><trkpt lat="44.409943755653444" lon="9.25004072257203"><ele>103.0</ele><time>2026-04-18T07:42:31Z</time></trkpt><trkpt lat="44.41000773354967" lon="9.250176727761236"><ele>105.5</ele><time>2026-04-18T07:42:32Z</time></trkpt><trkpt lat="44.4100669260633" lon="9.250347082939552"><ele>108.0</ele><time>2026-04-18T07:42:33Z</time></trkpt><trkpt lat="44.410133059273186" lon="9.250524682771568"><ele>105.75</ele><time>2026-04-18T07:42:34Z</time></trkpt><trkpt lat="44.41018231917195" lon="9.250679697570614"><ele>103.5</ele><time>2026-04-18T07:42:35Z</time></trkpt><trkpt lat="44.41024199976738" lon="9.25085073499456"><ele>101.25</ele><time>2026-04-18T07:42:36Z</time></trkpt><trkpt lat="44.41029582378089" lon="9.251046139523433"><ele>99.0</ele><time>2026-04-18T07:42:37Z</time></trkpt><trkpt lat="44.41034277375221" lon="9.251242291162976"><ele>99.0</ele><time>2026-04-18T07:42:38Z</time></trkpt><trkpt lat="44.410381976360185" lon="9.251390741181298"><ele>99.0</ele><time>2026-04-18T07:42:39Z</time></trkpt><trkpt lat="44.41042068891785" lon="9.251490583560425"><ele>99.0</ele><time>2026-04-18T07:42:40Z</time></trkpt><trkpt lat="44.410493173310456" lon="9.251611164950965"><ele>99.0</ele><time>2026-04-18T07:42:42Z</time></trkpt><trkpt lat="44.410568178096604" lon="9.251735654135118"><ele>99.0</ele><time>2026-04-18T07:42:43Z</time></trkpt><trkpt lat="44.41083924804835" lon="9.251911421295796"><ele>100.5</ele><time>2026-04-18T07:42:44Z</time></trkpt><trkpt lat="44.41100427051241" lon="9.251946481462378"><ele>102.0</ele><time>2026-04-18T07:42:45Z</time></trkpt><trkpt lat="44.411154647200156" lon="9.25197586764908"><ele>103.5</ele><time>2026-04-18T07:42:46Z</time></trkpt><trkpt lat="44.41127595601025" lon="9.252015938030253"><ele>105.0</ele><time>2026-04-18T07:42:47Z</time></trkpt><trkpt lat="44.41139533796592" lon="9.252056995393612"><ele>106.5</ele><time>2026-04-18T07:42:48Z</time></trkpt><trkpt lat="44.41151817218527" lon="9.252099115523755"><ele>108.0</ele><time>2026-04-18T07:42:49Z</time></trkpt><trkpt lat="44.411640706868425" lon="9.252136215523892"><ele>109.5</ele><time>2026-04-18T07:42:50Z</time></trkpt><trkpt lat="44.41176846239764" lon="9.25217560468896"><ele>111.0</ele><time>2026-04-18T07:42:51Z</time></trkpt><trkpt lat="44.411905084267545" lon="9.25222352624298"><ele>111.0</ele><time>2026-04-18T07:42:52Z</time></trkpt><trkpt lat="44.412017895576824" lon="9.252265994545224"><ele>111.0</ele><time>2026-04-18T07:42:53Z</time></trkpt><trkpt lat="44.41212648152958" lon="9.252293102066693"><ele>111.0</ele><time>2026-04-18T07:42:54Z</time></trkpt><trkpt lat="44.41224264947357" lon="9.252335580679352"><ele>111.0</ele><time>2026-04-18T07:42:55Z</time></trkpt><trkpt lat="44.41235559827162" lon="9.25237853940198"><ele>109.0</ele><time>2026-04-18T07:42:56Z</time></trkpt><trkpt lat="44.412459522923626" lon="9.252422868139382"><ele>107.0</ele><time>2026-04-18T07:42:57Z</time></trkpt><trkpt lat="44.412568626135055" lon="9.25246059022081"><ele>105.0</ele><time>2026-04-18T07:42:58Z</time></trkpt><trkpt lat="44.412671621265076" lon="9.25254470906586"><ele>103.0</ele><time>2026-04-18T07:42:59Z</time></trkpt><trkpt lat="44.41279742679614" lon="9.252646571307771"><ele>103.0</ele><time>2026-04-18T07:43:00Z</time></trkpt><trkpt lat="44.41288286563372" lon="9.252752396624969"><ele>103.0</ele><time>2026-04-18T07:43:01Z</time></trkpt><trkpt lat="44.412975165203896" lon="9.252832414747001"><ele>103.0</ele><time>2026-04-18T07:43:02Z</time></trkpt><trkpt lat="44.41308374712869" lon="9.252886926150001"><ele>103.0</ele><time>2026-04-18T07:43:03Z</time></trkpt><trkpt lat="44.41320333574882" lon="9.252924713360363"><ele>105.0</ele><time>2026-04-18T07:43:04Z</time></trkpt><trkpt lat="44.41332953164583" lon="9.252931814596547"><ele>107.0</ele><time>2026-04-18T07:43:05Z</time></trkpt><trkpt lat="44.41346367506993" lon="9.252941716333943"><ele>109.0</ele><time>2026-04-18T07:43:06Z</time></trkpt><trkpt lat="44.413616122018226" lon="9.252956195139298"><ele>111.0</ele><time>2026-04-18T07:43:07Z</time></trkpt><trkpt lat="44.41377893175768" lon="9.252980863552551"><ele>114.33333333333334</ele><time>2026-04-18T07:43:08Z</time></trkpt><trkpt lat="44.413934714787295" lon="9.253000097130492"><ele>117.66666666666667</ele><time>2026-04-18T07:43:09Z</time></trkpt><trkpt lat="44.41408632682761" lon="9.253026944604105"><ele>121.0</ele><time>2026-04-18T07:43:10Z</time></trkpt><trkpt lat="44.41424702443736" lon="9.253044470008396"><ele>121.0</ele><time>2026-04-18T07:43:11Z</time></trkpt><trkpt lat="44.4144175309526" lon="9.2530715103522"><ele>121.0</ele><time>2026-04-18T07:43:12Z</time></trkpt><trkpt lat="44.41457216752906" lon="9.253095281206553"><ele>121.0</ele><time>2026-04-18T07:43:13Z</time></trkpt><trkpt lat="44.41470493713496" lon="9.25311602352378"><ele>119.25</ele><time>2026-04-18T07:43:14Z</time></trkpt><trkpt lat="44.4148265713297" lon="9.253137943382887"><ele>117.5</ele><time>2026-04-18T07:43:15Z</time></trkpt><trkpt lat="44.414962202746054" lon="9.253155416805308"><ele>115.75</ele><time>2026-04-18T07:43:16Z</time></trkpt><trkpt lat="44.41508776982637" lon="9.253127824401707"><ele>114.0</ele><time>2026-04-18T07:43:17Z</time></trkpt><trkpt lat="44.41518739068096" lon="9.253048660749226"><ele>119.0</ele><time>2026-04-18T07:43:18Z</time></trkpt><trkpt lat="44.41527217988662" lon="9.252923624482248"><ele>124.0</ele><time>2026-04-18T07:43:19Z</time></trkpt><trkpt lat="44.41537763660017" lon="9.252770630469943"><ele>129.0</ele><time>2026-04-18T07:43:20Z</time></trkpt><trkpt lat="44.415517462965404" lon="9.252718690435533"><ele>134.0</ele><time>2026-04-18T07:43:21Z</time></trkpt><trkpt lat="44.41568855539873" lon="9.252661867334764"><ele>135.25</ele><time>2026-04-18T07:43:22Z</time></trkpt><trkpt lat="44.415843171765644" lon="9.252591764186807"><ele>136.5</ele><time>2026-04-18T07:43:23Z</time></trkpt><trkpt lat="44.41597272705124" lon="9.252544298718606"><ele>137.75</ele><time>2026-04-18T07:43:24Z</time></trkpt><trkpt lat="44.41608563781214" lon="9.25255162730508"><ele>139.0</ele><time>2026-04-18T07:43:25Z</time></trkpt><trkpt lat="44.41619101403881" lon="9.252553341796204"><ele>139.0</ele><time>2026-04-18T07:43:26Z</time></trkpt><trkpt lat="44.41631629104623" lon="9.252647720021885"><ele>139.0</ele><time>2026-04-18T07:43:27Z</time></trkpt><trkpt lat="44.41643974748645" lon="9.252743053845526"><ele>139.0</ele><time>2026-04-18T07:43:28Z</time></trkpt><trkpt lat="44.41652082355914" lon="9.252885823008052"><ele>139.0</ele><time>2026-04-18T07:43:29Z</time></trkpt><trkpt lat="44.41658604850329" lon="9.253071655578301"><ele>136.0</ele><time>2026-04-18T07:43:30Z</time></trkpt><trkpt lat="44.41665032356161" lon="9.253244533096478"><ele>133.0</ele><time>2026-04-18T07:43:31Z</time></trkpt><trkpt lat="44.41671989237884" lon="9.25338491939719"><ele>130.0</ele><time>2026-04-18T07:43:32Z</time></trkpt><trkpt lat="44.41680998283208" lon="9.253508338896511"><ele>127.0</ele><time>2026-04-18T07:43:33Z</time></trkpt><trkpt lat="44.41692631981788" lon="9.25358608106282"><ele>127.0</ele><time>2026-04-18T07:43:33.999Z</time></trkpt><trkpt lat="44.41706892817479" lon="9.253642584446936"><ele>127.0</ele><time>2026-04-18T07:43:34.999Z</time></trkpt><trkpt lat="44.417227906150615" lon="9.253658076713487"><ele>127.0</ele><time>2026-04-18T07:43:35.999Z</time></trkpt><trkpt lat="44.41737291857859" lon="9.253657183693228"><ele>128.75</ele><time>2026-04-18T07:43:36.999Z</time></trkpt><trkpt lat="44.41749236839329" lon="9.253654879098445"><ele>130.5</ele><time>2026-04-18T07:43:37.999Z</time></trkpt><trkpt lat="44.4175891887544" lon="9.253619712602294"><ele>132.25</ele><time>2026-04-18T07:43:38.999Z</time></trkpt><trkpt lat="44.41767010744707" lon="9.253513168467151"><ele>134.0</ele><time>2026-04-18T07:43:39.999Z</time></trkpt><trkpt lat="44.41774437881343" lon="9.253353386867214"><ele>134.0</ele><time>2026-04-18T07:43:40.999Z</time></trkpt><trkpt lat="44.41781964292922" lon="9.253169536377534"><ele>134.0</ele><time>2026-04-18T07:43:41.999Z</time></trkpt><trkpt lat="44.417916020435946" lon="9.25301550032276"><ele>134.0</ele><time>2026-04-18T07:43:42.999Z</time></trkpt><trkpt lat="44.417982172232904" lon="9.252907271383599"><ele>134.0</ele><time>2026-04-18T07:43:43.999Z</time></trkpt><trkpt lat="44.41805360620285" lon="9.252840108381497"><ele>141.5</ele><time>2026-04-18T07:43:44.999Z</time></trkpt><trkpt lat="44.41819194158852" lon="9.252768329598373"><ele>149.0</ele><time>2026-04-18T07:43:45.999Z</time></trkpt><trkpt lat="44.41834171454015" lon="9.252696452987708"><ele>156.5</ele><time>2026-04-18T07:43:46.999Z</time></trkpt><trkpt lat="44.418435649850764" lon="9.252669392651752"><ele>164.0</ele><time>2026-04-18T07:43:47.999Z</time></trkpt><trkpt lat="44.41854197245589" lon="9.252707664142484"><ele>164.0</ele><time>2026-04-18T07:43:48.999Z</time></trkpt><trkpt lat="44.41865856189288" lon="9.252759577154697"><ele>164.0</ele><time>2026-04-18T07:43:49.999Z</time></trkpt><trkpt lat="44.41879528089651" lon="9.25280253788927"><ele>164.0</ele><time>2026-04-18T07:43:50.999Z</time></trkpt><trkpt lat="44.41891745163569" lon="9.252850120433756"><ele>164.0</ele><time>2026-04-18T07:43:51.999Z</time></trkpt><trkpt lat="44.41904763150652" lon="9.252851327915673"><ele>165.75</ele><time>2026-04-18T07:43:52.999Z</time></trkpt><trkpt lat="44.41916068696993" lon="9.252844124962758"><ele>167.5</ele><time>2026-04-18T07:43:53.999Z</time></trkpt><trkpt lat="44.4192493196028" lon="9.252882153824801"><ele>169.25</ele><time>2026-04-18T07:43:54.999Z</time></trkpt><trkpt lat="44.41933543863336" lon="9.253033309952281"><ele>171.0</ele><time>2026-04-18T07:43:55.999Z</time></trkpt><trkpt lat="44.41945700060576" lon="9.253188070633382"><ele>170.0</ele><time>2026-04-18T07:43:56.999Z</time></trkpt><trkpt lat="44.41954434524812" lon="9.253379014562025"><ele>169.0</ele><time>2026-04-18T07:43:57.999Z</time></trkpt><trkpt lat="44.41960813299784" lon="9.253537160600754"><ele>168.0</ele><time>2026-04-18T07:43:58.999Z</time></trkpt><trkpt lat="44.41966336606205" lon="9.253698903981176"><ele>167.0</ele><time>2026-04-18T07:43:59.999Z</time></trkpt><trkpt lat="44.41971436436745" lon="9.25383252820635"><ele>167.0</ele><time>2026-04-18T07:44:00.999Z</time></trkpt><trkpt lat="44.41975449189882" lon="9.253946793049183"><ele>167.0</ele><time>2026-04-18T07:44:01.999Z</time></trkpt><trkpt lat="44.419786255653854" lon="9.254048469102136"><ele>167.0</ele><time>2026-04-18T07:44:02.999Z</time></trkpt><trkpt lat="44.41979700467713" lon="9.254140044108789"><ele>167.0</ele><time>2026-04-18T07:44:03.999Z</time></trkpt><trkpt lat="44.41984599590333" lon="9.254308919744192"><ele>167.0</ele><time>2026-04-18T07:44:05.999Z</time></trkpt><trkpt lat="44.41990721831056" lon="9.254404878266945"><ele>161.75</ele><time>2026-04-18T07:44:06.999Z</time></trkpt><trkpt lat="44.42000751604417" lon="9.254460385294026"><ele>156.5</ele><time>2026-04-18T07:44:07.999Z</time></trkpt><trkpt lat="44.42012841852981" lon="9.254520366183778"><ele>151.25</ele><time>2026-04-18T07:44:08.999Z</time></trkpt><trkpt lat="44.42028204980915" lon="9.254595775510118"><ele>146.0</ele><time>2026-04-18T07:44:09.999Z</time></trkpt><trkpt lat="44.42043971122683" lon="9.254680083474923"><ele>145.5</ele><time>2026-04-18T07:44:10.999Z</time></trkpt><trkpt lat="44.420604449103024" lon="9.254756640684404"><ele>145.0</ele><time>2026-04-18T07:44:11.999Z</time></trkpt><trkpt lat="44.42074033420247" lon="9.254831424175546"><ele>144.5</ele><time>2026-04-18T07:44:12.999Z</time></trkpt><trkpt lat="44.42085049595856" lon="9.254910085322335"><ele>144.0</ele><time>2026-04-18T07:44:13.999Z</time></trkpt><trkpt lat="44.42094984194794" lon="9.255007516601069"><ele>144.0</ele><time>2026-04-18T07:44:14.999Z</time></trkpt><trkpt lat="44.42101043451493" lon="9.25519592435126"><ele>144.0</ele><time>2026-04-18T07:44:15.999Z</time></trkpt><trkpt lat="44.421097980404234" lon="9.25536951939242"><ele>144.0</ele><time>2026-04-18T07:44:16.999Z</time></trkpt><trkpt lat="44.4212004893727" lon="9.255537499391638"><ele>151.0</ele><time>2026-04-18T07:44:17.999Z</time></trkpt><trkpt lat="44.42132367234207" lon="9.255676865707649"><ele>158.0</ele><time>2026-04-18T07:44:18.999Z</time></trkpt><trkpt lat="44.4214164789788" lon="9.25582150127165"><ele>165.0</ele><time>2026-04-18T07:44:19.999Z</time></trkpt><trkpt lat="44.42149440125121" lon="9.256029160628762"><ele>165.0</ele><time>2026-04-18T07:44:20.999Z</time></trkpt><trkpt lat="44.4215650664311" lon="9.256243949447349"><ele>165.0</ele><time>2026-04-18T07:44:21.999Z</time></trkpt><trkpt lat="44.42162489835636" lon="9.256420341534985"><ele>165.0</ele><time>2026-04-18T07:44:22.999Z</time></trkpt><trkpt lat="44.42169100956136" lon="9.256559328562776"><ele>165.0</ele><time>2026-04-18T07:44:23.999Z</time></trkpt><trkpt lat="44.421788928554335" lon="9.256706147189105"><ele>160.0</ele><time>2026-04-18T07:44:24.999Z</time></trkpt><trkpt lat="44.421903405155696" lon="9.256860747575974"><ele>155.0</ele><time>2026-04-18T07:44:25.999Z</time></trkpt><trkpt lat="44.42202039275229" lon="9.257029841059413"><ele>150.0</ele><time>2026-04-18T07:44:26.999Z</time></trkpt><trkpt lat="44.422137227054165" lon="9.257198280384697"><ele>155.33333333333334</ele><time>2026-04-18T07:44:27.999Z</time></trkpt><trkpt lat="44.42227376971146" lon="9.257354775485465"><ele>160.66666666666669</ele><time>2026-04-18T07:44:28.999Z</time></trkpt><trkpt lat="44.42239519244894" lon="9.257494818380856"><ele>166.0</ele><time>2026-04-18T07:44:30Z</time></trkpt><trkpt lat="44.42249666650358" lon="9.25762238409277"><ele>166.0</ele><time>2026-04-18T07:44:31Z</time></trkpt><trkpt lat="44.42258220786575" lon="9.257773574554276"><ele>166.0</ele><time>2026-04-18T07:44:32Z</time></trkpt><trkpt lat="44.42263422060137" lon="9.257925111199226"><ele>166.0</ele><time>2026-04-18T07:44:33Z</time></trkpt><trkpt lat="44.422671023429686" lon="9.258086529396124"><ele>166.0</ele><time>2026-04-18T07:44:34Z</time></trkpt><trkpt lat="44.422735396252165" lon="9.258250884130995"><ele>161.0</ele><time>2026-04-18T07:44:35Z</time></trkpt><trkpt lat="44.42285128196713" lon="9.258410194667988"><ele>156.0</ele><time>2026-04-18T07:44:36Z</time></trkpt><trkpt lat="44.422994638805186" lon="9.258568674563016"><ele>151.0</ele><time>2026-04-18T07:44:37Z</time></trkpt><trkpt lat="44.42311227501276" lon="9.258694630145959"><ele>153.25</ele><time>2026-04-18T07:44:38Z</time></trkpt><trkpt lat="44.42321017948044" lon="9.258804272609146"><ele>155.5</ele><time>2026-04-18T07:44:39Z</time></trkpt><trkpt lat="44.423275549098065" lon="9.258923077253435"><ele>157.75</ele><time>2026-04-18T07:44:40Z</time></trkpt><trkpt lat="44.42333101383966" lon="9.259059405078379"><ele>160.0</ele><time>2026-04-18T07:44:41Z</time></trkpt><trkpt lat="44.42337798389281" lon="9.25924079164824"><ele>160.0</ele><time>2026-04-18T07:44:42Z</time></trkpt><trkpt lat="44.42343051559057" lon="9.259413618516676"><ele>160.0</ele><time>2026-04-18T07:44:43Z</time></trkpt><trkpt lat="44.42349452687058" lon="9.259600941533776"><ele>160.0</ele><time>2026-04-18T07:44:44Z</time></trkpt><trkpt lat="44.423590005188686" lon="9.259789560845412"><ele>160.0</ele><time>2026-04-18T07:44:45Z</time></trkpt><trkpt lat="44.42367495956929" lon="9.259927349807224"><ele>158.5</ele><time>2026-04-18T07:44:46Z</time></trkpt><trkpt lat="44.42376753464923" lon="9.260017366283178"><ele>157.0</ele><time>2026-04-18T07:44:47Z</time></trkpt><trkpt lat="44.42388539855332" lon="9.260085170088"><ele>155.5</ele><time>2026-04-18T07:44:48Z</time></trkpt><trkpt lat="44.424036471316064" lon="9.260148759601751"><ele>154.0</ele><time>2026-04-18T07:44:49Z</time></trkpt><trkpt lat="44.42419213604261" lon="9.260200357618087"><ele>157.5</ele><time>2026-04-18T07:44:50Z</time></trkpt><trkpt lat="44.42433289333708" lon="9.260256587992453"><ele>161.0</ele><time>2026-04-18T07:44:51Z</time></trkpt><trkpt lat="44.424466817715874" lon="9.260298006156033"><ele>164.5</ele><time>2026-04-18T07:44:52Z</time></trkpt><trkpt lat="44.42460866418475" lon="9.260326092194648"><ele>168.0</ele><time>2026-04-18T07:44:53Z</time></trkpt><trkpt lat="44.42475795913183" lon="9.260347403776398"><ele>171.75</ele><time>2026-04-18T07:44:54Z</time></trkpt><trkpt lat="44.42489297944395" lon="9.260365781759164"><ele>175.5</ele><time>2026-04-18T07:44:55Z</time></trkpt><trkpt lat="44.42502248419445" lon="9.26038806858638"><ele>179.25</ele><time>2026-04-18T07:44:56Z</time></trkpt><trkpt lat="44.425127841317554" lon="9.260396353766781"><ele>183.0</ele><time>2026-04-18T07:44:57Z</time></trkpt><trkpt lat="44.425243659369116" lon="9.260424996640566"><ele>183.0</ele><time>2026-04-18T07:44:58Z</time></trkpt><trkpt lat="44.425383730695685" lon="9.2604172248563"><ele>183.0</ele><time>2026-04-18T07:44:59Z</time></trkpt><trkpt lat="44.42554970684831" lon="9.26038977014246"><ele>183.0</ele><time>2026-04-18T07:45:00Z</time></trkpt><trkpt lat="44.42571626474582" lon="9.260359227760691"><ele>184.25</ele><time>2026-04-18T07:45:01Z</time></trkpt><trkpt lat="44.425865121274136" lon="9.260351391673536"><ele>185.5</ele><time>2026-04-18T07:45:02Z</time></trkpt><trkpt lat="44.42600171714728" lon="9.26033611309943"><ele>186.75</ele><time>2026-04-18T07:45:03Z</time></trkpt><trkpt lat="44.426150551433835" lon="9.260330589229257"><ele>188.0</ele><time>2026-04-18T07:45:04Z</time></trkpt><trkpt lat="44.42629107235023" lon="9.260333559280637"><ele>186.25</ele><time>2026-04-18T07:45:05Z</time></trkpt><trkpt lat="44.42641257492377" lon="9.260355854628525"><ele>184.5</ele><time>2026-04-18T07:45:06Z</time></trkpt><trkpt lat="44.42653496077375" lon="9.260360603615208"><ele>182.75</ele><time>2026-04-18T07:45:07Z</time></trkpt><trkpt lat="44.42666489501685" lon="9.26030558087856"><ele>181.0</ele><time>2026-04-18T07:45:08Z</time></trkpt><trkpt lat="44.426797033316745" lon="9.260206233154898"><ele>181.0</ele><time>2026-04-18T07:45:09Z</time></trkpt><trkpt lat="44.42691531218667" lon="9.260071226722976"><ele>181.0</ele><time>2026-04-18T07:45:10Z</time></trkpt><trkpt lat="44.42697818773927" lon="9.259893839026317"><ele>181.0</ele><time>2026-04-18T07:45:11Z</time></trkpt><trkpt lat="44.42703464396668" lon="9.259692095449328"><ele>181.0</ele><time>2026-04-18T07:45:12Z</time></trkpt><trkpt lat="44.42708324461405" lon="9.259475706478765"><ele>178.0</ele><time>2026-04-18T07:45:13Z</time></trkpt><trkpt lat="44.4271573296206" lon="9.259251822197271"><ele>175.0</ele><time>2026-04-18T07:45:14Z</time></trkpt><trkpt lat="44.427219725721464" lon="9.259060227542545"><ele>172.0</ele><time>2026-04-18T07:45:15Z</time></trkpt><trkpt lat="44.427293411031194" lon="9.258901380786728"><ele>179.25</ele><time>2026-04-18T07:45:16Z</time></trkpt><trkpt lat="44.42739796809553" lon="9.258758432840231"><ele>186.5</ele><time>2026-04-18T07:45:17Z</time></trkpt><trkpt lat="44.42749137760796" lon="9.258656677919427"><ele>193.75</ele><time>2026-04-18T07:45:18Z</time></trkpt><trkpt lat="44.427594694862115" lon="9.258573060401801"><ele>201.0</ele><time>2026-04-18T07:45:19Z</time></trkpt><trkpt lat="44.42773477450967" lon="9.258502129142398"><ele>201.0</ele><time>2026-04-18T07:45:20Z</time></trkpt><trkpt lat="44.4278928702614" lon="9.2584466171709"><ele>201.0</ele><time>2026-04-18T07:45:21Z</time></trkpt><trkpt lat="44.42803216596082" lon="9.25837899594276"><ele>201.0</ele><time>2026-04-18T07:45:22Z</time></trkpt><trkpt lat="44.428153884796416" lon="9.25836429475274"><ele>201.0</ele><time>2026-04-18T07:45:23Z</time></trkpt><trkpt lat="44.42827352975612" lon="9.258410965240673"><ele>198.0</ele><time>2026-04-18T07:45:24Z</time></trkpt><trkpt lat="44.42838419280458" lon="9.258513877947234"><ele>195.0</ele><time>2026-04-18T07:45:25Z</time></trkpt><trkpt lat="44.4285043856508" lon="9.258653022810288"><ele>192.0</ele><time>2026-04-18T07:45:26Z</time></trkpt><trkpt lat="44.428611069893826" lon="9.25879023119891"><ele>189.0</ele><time>2026-04-18T07:45:27Z</time></trkpt><trkpt lat="44.42870240053709" lon="9.258889512079227"><ele>189.0</ele><time>2026-04-18T07:45:28Z</time></trkpt><trkpt lat="44.4287926894752" lon="9.258942138922684"><ele>189.0</ele><time>2026-04-18T07:45:29Z</time></trkpt><trkpt lat="44.428901180371184" lon="9.258906765569348"><ele>189.0</ele><time>2026-04-18T07:45:30Z</time></trkpt><trkpt lat="44.42898483073685" lon="9.25883203152753"><ele>189.0</ele><time>2026-04-18T07:45:31Z</time></trkpt><trkpt lat="44.42903109421269" lon="9.258663242623173"><ele>189.0</ele><time>2026-04-18T07:45:32Z</time></trkpt><trkpt lat="44.42907116532153" lon="9.258462991623134"><ele>186.66666666666666</ele><time>2026-04-18T07:45:33Z</time></trkpt><trkpt lat="44.429115605054356" lon="9.258234082582733"><ele>184.33333333333331</ele><time>2026-04-18T07:45:34Z</time></trkpt><trkpt lat="44.42916720988126" lon="9.258027018234005"><ele>182.0</ele><time>2026-04-18T07:45:35Z</time></trkpt><trkpt lat="44.42926029302737" lon="9.257827802301874"><ele>183.66666666666666</ele><time>2026-04-18T07:45:36Z</time></trkpt><trkpt lat="44.42939704332045" lon="9.257663224637565"><ele>185.33333333333334</ele><time>2026-04-18T07:45:37Z</time></trkpt><trkpt lat="44.42955376052464" lon="9.257566260437386"><ele>187.0</ele><time>2026-04-18T07:45:38Z</time></trkpt><trkpt lat="44.42969407194721" lon="9.257535866986238"><ele>187.0</ele><time>2026-04-18T07:45:38.999Z</time></trkpt><trkpt lat="44.42985202609467" lon="9.257535469552945"><ele>187.0</ele><time>2026-04-18T07:45:39.999Z</time></trkpt><trkpt lat="44.430102556663144" lon="9.257516359710626"><ele>187.0</ele><time>2026-04-18T07:45:41.999Z</time></trkpt><trkpt lat="44.43027228346297" lon="9.257507455102841"><ele>187.0</ele><time>2026-04-18T07:45:42.999Z</time></trkpt><trkpt lat="44.43043007953407" lon="9.257513981884644"><ele>187.0</ele><time>2026-04-18T07:45:43.999Z</time></trkpt><trkpt lat="44.43058893043162" lon="9.257549824538678"><ele>187.0</ele><time>2026-04-18T07:45:44.999Z</time></trkpt><trkpt lat="44.43073283378051" lon="9.257617106994346"><ele>187.5</ele><time>2026-04-18T07:45:45.999Z</time></trkpt><trkpt lat="44.43088397443307" lon="9.257696255450364"><ele>188.0</ele><time>2026-04-18T07:45:46.999Z</time></trkpt><trkpt lat="44.431014124941065" lon="9.257766750174786"><ele>188.5</ele><time>2026-04-18T07:45:47.999Z</time></trkpt><trkpt lat="44.431125402913466" lon="9.25782702317217"><ele>189.0</ele><time>2026-04-18T07:45:48.999Z</time></trkpt><trkpt lat="44.431233943816295" lon="9.25787125905944"><ele>187.79999999999998</ele><time>2026-04-18T07:45:49.999Z</time></trkpt><trkpt lat="44.431344153608485" lon="9.257887917579678"><ele>186.6</ele><time>2026-04-18T07:45:50.999Z</time></trkpt><trkpt lat="44.431449660397774" lon="9.257843512950778"><ele>185.4</ele><time>2026-04-18T07:45:51.999Z</time></trkpt><trkpt lat="44.431517013706326" lon="9.257709167459835"><ele>184.2</ele><time>2026-04-18T07:45:52.999Z</time></trkpt><trkpt lat="44.431540313324525" lon="9.25755780565801"><ele>183.0</ele><time>2026-04-18T07:45:53.999Z</time></trkpt><trkpt lat="44.43151266884819" lon="9.25740473123857"><ele>183.8</ele><time>2026-04-18T07:45:54.999Z</time></trkpt><trkpt lat="44.43144641480758" lon="9.257284673355368"><ele>184.60000000000002</ele><time>2026-04-18T07:45:55.999Z</time></trkpt><trkpt lat="44.43136113299569" lon="9.257169635174325"><ele>185.39999999999998</ele><time>2026-04-18T07:45:56.999Z</time></trkpt><trkpt lat="44.43129481427503" lon="9.25708098406895"><ele>186.2</ele><time>2026-04-18T07:45:57.999Z</time></trkpt><trkpt lat="44.43125863688309" lon="9.256989912205446"><ele>187.0</ele><time>2026-04-18T07:45:58.999Z</time></trkpt><trkpt lat="44.4312559218825" lon="9.256891172972358"><ele>187.0</ele><time>2026-04-18T07:45:59.999Z</time></trkpt><trkpt lat="44.43129754733096" lon="9.256767778187523"><ele>187.0</ele><time>2026-04-18T07:46:00.999Z</time></trkpt><trkpt lat="44.43136364934841" lon="9.256639299906656"><ele>187.0</ele><time>2026-04-18T07:46:01.999Z</time></trkpt><trkpt lat="44.43144473493039" lon="9.256496121919165"><ele>187.0</ele><time>2026-04-18T07:46:02.999Z</time></trkpt><trkpt lat="44.43153766363747" lon="9.256361366251046"><ele>193.66666666666669</ele><time>2026-04-18T07:46:03.999Z</time></trkpt><trkpt lat="44.43165975961361" lon="9.25626604110223"><ele>200.33333333333334</ele><time>2026-04-18T07:46:04.999Z</time></trkpt><trkpt lat="44.431807199255296" lon="9.256184865920865"><ele>207.0</ele><time>2026-04-18T07:46:05.999Z</time></trkpt><trkpt lat="44.431958783740136" lon="9.256073673637353"><ele>207.0</ele><time>2026-04-18T07:46:06.999Z</time></trkpt><trkpt lat="44.43209852282122" lon="9.255921951695994"><ele>207.0</ele><time>2026-04-18T07:46:07.999Z</time></trkpt><trkpt lat="44.43220811391997" lon="9.255802127438606"><ele>207.0</ele><time>2026-04-18T07:46:08.999Z</time></trkpt><trkpt lat="44.4323325700098" lon="9.255716694576204"><ele>211.33333333333331</ele><time>2026-04-18T07:46:09.999Z</time></trkpt><trkpt lat="44.43247106352597" lon="9.255632454619382"><ele>215.66666666666666</ele><time>2026-04-18T07:46:10.999Z</time></trkpt><trkpt lat="44.432612239166986" lon="9.255556117153034"><ele>220.0</ele><time>2026-04-18T07:46:11.999Z</time></trkpt><trkpt lat="44.432766008730454" lon="9.255544542496127"><ele>220.0</ele><time>2026-04-18T07:46:12.999Z</time></trkpt><trkpt lat="44.43292255194464" lon="9.255552471050711"><ele>220.0</ele><time>2026-04-18T07:46:13.999Z</time></trkpt><trkpt lat="44.433066104918396" lon="9.255531310013223"><ele>220.0</ele><time>2026-04-18T07:46:14.999Z</time></trkpt><trkpt lat="44.43318099011151" lon="9.255470462294193"><ele>220.0</ele><time>2026-04-18T07:46:15.999Z</time></trkpt><trkpt lat="44.43327779087168" lon="9.25543439750185"><ele>218.75</ele><time>2026-04-18T07:46:16.999Z</time></trkpt><trkpt lat="44.433373220380794" lon="9.255418880100601"><ele>217.5</ele><time>2026-04-18T07:46:17.999Z</time></trkpt><trkpt lat="44.43346623831403" lon="9.255519554125321"><ele>216.25</ele><time>2026-04-18T07:46:18.999Z</time></trkpt><trkpt lat="44.43355975400274" lon="9.25563687400504"><ele>215.0</ele><time>2026-04-18T07:46:19.999Z</time></trkpt><trkpt lat="44.43365691847555" lon="9.255771500367267"><ele>213.25</ele><time>2026-04-18T07:46:20.999Z</time></trkpt><trkpt lat="44.4337387622118" lon="9.255899601926908"><ele>211.5</ele><time>2026-04-18T07:46:21.999Z</time></trkpt><trkpt lat="44.433805622650524" lon="9.256025668199387"><ele>209.75</ele><time>2026-04-18T07:46:22.999Z</time></trkpt><trkpt lat="44.433873839835215" lon="9.25617597665865"><ele>208.0</ele><time>2026-04-18T07:46:23.999Z</time></trkpt><trkpt lat="44.433925121403355" lon="9.256297037710993"><ele>208.0</ele><time>2026-04-18T07:46:24.999Z</time></trkpt><trkpt lat="44.43398250891694" lon="9.25639101607341"><ele>208.0</ele><time>2026-04-18T07:46:25.999Z</time></trkpt><trkpt lat="44.434048494001814" lon="9.25648552625303"><ele>208.0</ele><time>2026-04-18T07:46:26.999Z</time></trkpt><trkpt lat="44.43414767064937" lon="9.256535784763544"><ele>208.0</ele><time>2026-04-18T07:46:27.999Z</time></trkpt><trkpt lat="44.434256393743354" lon="9.256535253225149"><ele>208.0</ele><time>2026-04-18T07:46:28.999Z</time></trkpt><trkpt lat="44.434336313684405" lon="9.25648808544109"><ele>208.0</ele><time>2026-04-18T07:46:29.999Z</time></trkpt><trkpt lat="44.43440447530255" lon="9.256386064440896"><ele>208.0</ele><time>2026-04-18T07:46:30.999Z</time></trkpt><trkpt lat="44.43447530143341" lon="9.256252192253545"><ele>208.0</ele><time>2026-04-18T07:46:31.999Z</time></trkpt><trkpt lat="44.43456518021872" lon="9.256151502027"><ele>208.0</ele><time>2026-04-18T07:46:32.999Z</time></trkpt><trkpt lat="44.43467350646291" lon="9.256054445593259"><ele>209.25</ele><time>2026-04-18T07:46:33.999Z</time></trkpt><trkpt lat="44.434797700149375" lon="9.255976346673274"><ele>210.5</ele><time>2026-04-18T07:46:34.999Z</time></trkpt><trkpt lat="44.434922842211854" lon="9.25592808435237"><ele>211.75</ele><time>2026-04-18T07:46:36Z</time></trkpt><trkpt lat="44.4350346641151" lon="9.255886567170327"><ele>213.0</ele><time>2026-04-18T07:46:37Z</time></trkpt><trkpt lat="44.435153004806864" lon="9.255816927241966"><ele>213.0</ele><time>2026-04-18T07:46:38Z</time></trkpt><trkpt lat="44.43528325024174" lon="9.255806191322666"><ele>213.0</ele><time>2026-04-18T07:46:39Z</time></trkpt><trkpt lat="44.43539290436882" lon="9.255806834722343"><ele>213.0</ele><time>2026-04-18T07:46:40Z</time></trkpt><trkpt lat="44.43547344701399" lon="9.255880463834192"><ele>213.0</ele><time>2026-04-18T07:46:41Z</time></trkpt><trkpt lat="44.43557272312578" lon="9.255967991269959"><ele>213.4</ele><time>2026-04-18T07:46:42Z</time></trkpt><trkpt lat="44.4356864149189" lon="9.256060684029643"><ele>213.8</ele><time>2026-04-18T07:46:43Z</time></trkpt><trkpt lat="44.43578007961269" lon="9.256110391761052"><ele>214.2</ele><time>2026-04-18T07:46:44Z</time></trkpt><trkpt lat="44.43587010838791" lon="9.256180712124877"><ele>214.6</ele><time>2026-04-18T07:46:45Z</time></trkpt><trkpt lat="44.43595592300724" lon="9.256255108120648"><ele>215.0</ele><time>2026-04-18T07:46:46Z</time></trkpt><trkpt lat="44.436049237627984" lon="9.256327696737623"><ele>215.00000000000003</ele><time>2026-04-18T07:46:47Z</time></trkpt><trkpt lat="44.43613494576445" lon="9.256400228653336"><ele>215.0</ele><time>2026-04-18T07:46:48Z</time></trkpt><trkpt lat="44.43620519076816" lon="9.256465040412426"><ele>215.0</ele><time>2026-04-18T07:46:49Z</time></trkpt><trkpt lat="44.43626791070503" lon="9.256518544871595"><ele>215.0</ele><time>2026-04-18T07:46:50Z</time></trkpt><trkpt lat="44.43633693087011" lon="9.256585787296322"><ele>215.00000000000003</ele><time>2026-04-18T07:46:51Z</time></trkpt><trkpt lat="44.43641689808157" lon="9.25666026862744"><ele>215.0</ele><time>2026-04-18T07:46:52Z</time></trkpt><trkpt lat="44.43651492537701" lon="9.256741122798173"><ele>213.2</ele><time>2026-04-18T07:46:53Z</time></trkpt><trkpt lat="44.43662427473755" lon="9.256834469985893"><ele>211.4</ele><time>2026-04-18T07:46:54Z</time></trkpt><trkpt lat="44.43671641430682" lon="9.25693135735469"><ele>209.60000000000002</ele><time>2026-04-18T07:46:55Z</time></trkpt><trkpt lat="44.43681616356145" lon="9.256997198949005"><ele>207.8</ele><time>2026-04-18T07:46:56Z</time></trkpt><trkpt lat="44.436902326296" lon="9.257043229241555"><ele>206.0</ele><time>2026-04-18T07:46:57Z</time></trkpt><trkpt lat="44.43699911471464" lon="9.257050241820878"><ele>206.0</ele><time>2026-04-18T07:46:58Z</time></trkpt><trkpt lat="44.43708719360183" lon="9.257000927008455"><ele>206.0</ele><time>2026-04-18T07:46:59Z</time></trkpt><trkpt lat="44.43714917021145" lon="9.25690457663565"><ele>206.0</ele><time>2026-04-18T07:47:00Z</time></trkpt><trkpt lat="44.43719765066417" lon="9.25677524937078"><ele>206.0</ele><time>2026-04-18T07:47:01Z</time></trkpt><trkpt lat="44.43723575431832" lon="9.256609366922719"><ele>206.0</ele><time>2026-04-18T07:47:02Z</time></trkpt><trkpt lat="44.437291914923165" lon="9.256435721252952"><ele>211.0</ele><time>2026-04-18T07:47:03Z</time></trkpt><trkpt lat="44.437376086204345" lon="9.256296705356668"><ele>216.0</ele><time>2026-04-18T07:47:04Z</time></trkpt><trkpt lat="44.43749281691611" lon="9.256229896241262"><ele>221.0</ele><time>2026-04-18T07:47:05Z</time></trkpt><trkpt lat="44.43761896875689" lon="9.256130582922822"><ele>226.0</ele><time>2026-04-18T07:47:06Z</time></trkpt><trkpt lat="44.43776301721513" lon="9.25600725031126"><ele>226.0</ele><time>2026-04-18T07:47:07Z</time></trkpt><trkpt lat="44.43789547793587" lon="9.255899422176853"><ele>226.0</ele><time>2026-04-18T07:47:08Z</time></trkpt><trkpt lat="44.438016502406086" lon="9.255809879122838"><ele>226.0</ele><time>2026-04-18T07:47:09Z</time></trkpt><trkpt lat="44.43813085177275" lon="9.255737123099209"><ele>226.0</ele><time>2026-04-18T07:47:10Z</time></trkpt><trkpt lat="44.43826049988047" lon="9.255747295564493"><ele>220.33333333333331</ele><time>2026-04-18T07:47:11Z</time></trkpt><trkpt lat="44.43841717842359" lon="9.255757901792057"><ele>214.66666666666669</ele><time>2026-04-18T07:47:12Z</time></trkpt><trkpt lat="44.43857913924112" lon="9.255729998288563"><ele>209.0</ele><time>2026-04-18T07:47:13Z</time></trkpt><trkpt lat="44.438730038153" lon="9.25567011144463"><ele>211.5</ele><time>2026-04-18T07:47:14Z</time></trkpt><trkpt lat="44.43885193503166" lon="9.255598077563967"><ele>214.0</ele><time>2026-04-18T07:47:15Z</time></trkpt><trkpt lat="44.43896824467151" lon="9.25558507371932"><ele>216.5</ele><time>2026-04-18T07:47:16Z</time></trkpt><trkpt lat="44.43909724264534" lon="9.255613843595407"><ele>219.0</ele><time>2026-04-18T07:47:17Z</time></trkpt><trkpt lat="44.439230674560534" lon="9.255661952748214"><ele>219.0</ele><time>2026-04-18T07:47:18Z</time></trkpt><trkpt lat="44.43934693249837" lon="9.255747308994765"><ele>219.0</ele><time>2026-04-18T07:47:19Z</time></trkpt><trkpt lat="44.43945613291218" lon="9.255865331598129"><ele>219.0</ele><time>2026-04-18T07:47:20Z</time></trkpt><trkpt lat="44.43958115096064" lon="9.255972240004857"><ele>219.0</ele><time>2026-04-18T07:47:21Z</time></trkpt><trkpt lat="44.439699353605555" lon="9.256119290249046"><ele>220.5</ele><time>2026-04-18T07:47:22Z</time></trkpt><trkpt lat="44.439804441865576" lon="9.256228245523122"><ele>222.0</ele><time>2026-04-18T07:47:23Z</time></trkpt><trkpt lat="44.43988962870527" lon="9.256319363855331"><ele>223.5</ele><time>2026-04-18T07:47:24Z</time></trkpt><trkpt lat="44.43997190080215" lon="9.25640352564704"><ele>225.0</ele><time>2026-04-18T07:47:25Z</time></trkpt><trkpt lat="44.440014539392905" lon="9.256568389835163"><ele>225.0</ele><time>2026-04-18T07:47:26Z</time></trkpt><trkpt lat="44.43999685662299" lon="9.256770147162223"><ele>225.0</ele><time>2026-04-18T07:47:27Z</time></trkpt><trkpt lat="44.439997761475794" lon="9.256973093315159"><ele>225.0</ele><time>2026-04-18T07:47:28Z</time></trkpt><trkpt lat="44.43999244770253" lon="9.257123899628096"><ele>225.0</ele><time>2026-04-18T07:47:29Z</time></trkpt><trkpt lat="44.440050365880886" lon="9.257229546110635"><ele>224.0</ele><time>2026-04-18T07:47:30Z</time></trkpt><trkpt lat="44.440140289698064" lon="9.257318896729107"><ele>223.0</ele><time>2026-04-18T07:47:31Z</time></trkpt><trkpt lat="44.44024285364" lon="9.25736665640786"><ele>222.0</ele><time>2026-04-18T07:47:32Z</time></trkpt><trkpt lat="44.440346082022835" lon="9.257366126957876"><ele>221.0</ele><time>2026-04-18T07:47:33Z</time></trkpt><trkpt lat="44.44042567007832" lon="9.257313122564673"><ele>220.0</ele><time>2026-04-18T07:47:34Z</time></trkpt><trkpt lat="44.44049911052492" lon="9.257209686979463"><ele>223.5</ele><time>2026-04-18T07:47:35Z</time></trkpt><trkpt lat="44.44054257483965" lon="9.25702990987665"><ele>227.0</ele><time>2026-04-18T07:47:36Z</time></trkpt><trkpt lat="44.44060071031601" lon="9.256838261702699"><ele>230.5</ele><time>2026-04-18T07:47:37Z</time></trkpt><trkpt lat="44.44068323657618" lon="9.25669414382828"><ele>234.0</ele><time>2026-04-18T07:47:38Z</time></trkpt><trkpt lat="44.440762119246685" lon="9.256586994977694"><ele>234.0</ele><time>2026-04-18T07:47:39Z</time></trkpt><trkpt lat="44.44086705512673" lon="9.256512158887729"><ele>234.0</ele><time>2026-04-18T07:47:40Z</time></trkpt><trkpt lat="44.441002108838404" lon="9.256441760993246"><ele>234.0</ele><time>2026-04-18T07:47:41Z</time></trkpt><trkpt lat="44.44111994764713" lon="9.256396704324864"><ele>234.0</ele><time>2026-04-18T07:47:42Z</time></trkpt><trkpt lat="44.4412142973314" lon="9.256413314749146"><ele>235.0</ele><time>2026-04-18T07:47:42.999Z</time></trkpt><trkpt lat="44.441322349694836" lon="9.256456647973671"><ele>236.0</ele><time>2026-04-18T07:47:43.999Z</time></trkpt><trkpt lat="44.44144831991494" lon="9.256532087280677"><ele>237.0</ele><time>2026-04-18T07:47:44.999Z</time></trkpt><trkpt lat="44.44157801804962" lon="9.256628239284074"><ele>238.0</ele><time>2026-04-18T07:47:45.999Z</time></trkpt><trkpt lat="44.44170624074801" lon="9.25669984875028"><ele>238.0</ele><time>2026-04-18T07:47:46.999Z</time></trkpt><trkpt lat="44.44181229504928" lon="9.256776607425213"><ele>238.0</ele><time>2026-04-18T07:47:47.999Z</time></trkpt><trkpt lat="44.44189112175092" lon="9.256827496143176"><ele>238.0</ele><time>2026-04-18T07:47:48.999Z</time></trkpt><trkpt lat="44.44197489157302" lon="9.256819536483658"><ele>238.0</ele><time>2026-04-18T07:47:49.999Z</time></trkpt><trkpt lat="44.442048409977055" lon="9.256720550820809"><ele>238.0</ele><time>2026-04-18T07:47:50.999Z</time></trkpt><trkpt lat="44.442042745764155" lon="9.256571530591653"><ele>242.2</ele><time>2026-04-18T07:47:51.999Z</time></trkpt><trkpt lat="44.4420120160557" lon="9.256442667392072"><ele>246.4</ele><time>2026-04-18T07:47:52.999Z</time></trkpt><trkpt lat="44.441966345442815" lon="9.256313183214639"><ele>250.59999999999997</ele><time>2026-04-18T07:47:53.999Z</time></trkpt><trkpt lat="44.44199194644613" lon="9.256169561317096"><ele>254.79999999999998</ele><time>2026-04-18T07:47:54.999Z</time></trkpt><trkpt lat="44.44204943516873" lon="9.256021216299025"><ele>259.0</ele><time>2026-04-18T07:47:55.999Z</time></trkpt><trkpt lat="44.44211425829278" lon="9.255877037715026"><ele>258.25</ele><time>2026-04-18T07:47:56.999Z</time></trkpt><trkpt lat="44.44217955347076" lon="9.255793002291767"><ele>257.5</ele><time>2026-04-18T07:47:57.999Z</time></trkpt><trkpt lat="44.44227885857026" lon="9.25581597660245"><ele>256.75</ele><time>2026-04-18T07:47:58.999Z</time></trkpt><trkpt lat="44.44239055110639" lon="9.25584557641026"><ele>256.0</ele><time>2026-04-18T07:47:59.999Z</time></trkpt><trkpt lat="44.44253095300729" lon="9.255916003416642"><ele>256.0</ele><time>2026-04-18T07:48:00.999Z</time></trkpt><trkpt lat="44.44267846154679" lon="9.255984631384155"><ele>256.0</ele><time>2026-04-18T07:48:01.999Z</time></trkpt><trkpt lat="44.44279540165434" lon="9.25602522128093"><ele>256.0</ele><time>2026-04-18T07:48:02.999Z</time></trkpt><trkpt lat="44.44289483962465" lon="9.256052365541278"><ele>256.0</ele><time>2026-04-18T07:48:03.999Z</time></trkpt><trkpt lat="44.44298598443005" lon="9.256053037332572"><ele>254.5</ele><time>2026-04-18T07:48:04.999Z</time></trkpt><trkpt lat="44.44307098874205" lon="9.256013138952817"><ele>253.0</ele><time>2026-04-18T07:48:05.999Z</time></trkpt><trkpt lat="44.443169058908246" lon="9.25592211322428"><ele>251.5</ele><time>2026-04-18T07:48:06.999Z</time></trkpt><trkpt lat="44.44328296843975" lon="9.255760541783818"><ele>250.0</ele><time>2026-04-18T07:48:07.999Z</time></trkpt><trkpt lat="44.44339208387844" lon="9.25566937662345"><ele>255.2</ele><time>2026-04-18T07:48:08.999Z</time></trkpt><trkpt lat="44.44347983900013" lon="9.255577040074188"><ele>260.4</ele><time>2026-04-18T07:48:09.999Z</time></trkpt><trkpt lat="44.44356567807509" lon="9.255496448281688"><ele>265.6</ele><time>2026-04-18T07:48:10.999Z</time></trkpt><trkpt lat="44.44365575625468" lon="9.255435104911033"><ele>270.8</ele><time>2026-04-18T07:48:11.999Z</time></trkpt><trkpt lat="44.44375308272008" lon="9.255422330585214"><ele>276.0</ele><time>2026-04-18T07:48:12.999Z</time></trkpt><trkpt lat="44.44385997457475" lon="9.255469788488169"><ele>276.0</ele><time>2026-04-18T07:48:13.999Z</time></trkpt><trkpt lat="44.4439937618728" lon="9.255515803676731"><ele>276.0</ele><time>2026-04-18T07:48:14.999Z</time></trkpt><trkpt lat="44.44413365193302" lon="9.255580139247755"><ele>276.0</ele><time>2026-04-18T07:48:15.999Z</time></trkpt><trkpt lat="44.444275796281566" lon="9.255665532060817"><ele>276.0</ele><time>2026-04-18T07:48:16.999Z</time></trkpt><trkpt lat="44.44440818818009" lon="9.255743416320842"><ele>272.2</ele><time>2026-04-18T07:48:17.999Z</time></trkpt><trkpt lat="44.44451458330633" lon="9.255815597574315"><ele>268.40000000000003</ele><time>2026-04-18T07:48:18.999Z</time></trkpt><trkpt lat="44.44460088375394" lon="9.255905274587438"><ele>264.6</ele><time>2026-04-18T07:48:19.999Z</time></trkpt><trkpt lat="44.44468284264767" lon="9.255993589863978"><ele>260.8</ele><time>2026-04-18T07:48:20.999Z</time></trkpt><trkpt lat="44.44477380024555" lon="9.256080792596133"><ele>257.0</ele><time>2026-04-18T07:48:21.999Z</time></trkpt><trkpt lat="44.444882293138775" lon="9.256176225941113"><ele>257.0</ele><time>2026-04-18T07:48:22.999Z</time></trkpt><trkpt lat="44.44499208356189" lon="9.256242330564895"><ele>257.0</ele><time>2026-04-18T07:48:23.999Z</time></trkpt><trkpt lat="44.44508240951327" lon="9.25628180429084"><ele>257.0</ele><time>2026-04-18T07:48:24.999Z</time></trkpt><trkpt lat="44.445182854138444" lon="9.256314438417704"><ele>257.0</ele><time>2026-04-18T07:48:25.999Z</time></trkpt><trkpt lat="44.44530221516133" lon="9.256255739044084"><ele>257.0</ele><time>2026-04-18T07:48:26.999Z</time></trkpt><trkpt lat="44.44540147639164" lon="9.256118291765235"><ele>258.0</ele><time>2026-04-18T07:48:27.999Z</time></trkpt><trkpt lat="44.44551919412239" lon="9.256021411721573"><ele>259.0</ele><time>2026-04-18T07:48:28.999Z</time></trkpt><trkpt lat="44.44564338986641" lon="9.25595041413473"><ele>260.0</ele><time>2026-04-18T07:48:29.999Z</time></trkpt><trkpt lat="44.44575896594875" lon="9.255887929653566"><ele>261.0</ele><time>2026-04-18T07:48:30.999Z</time></trkpt><trkpt lat="44.44587665359429" lon="9.255830490231748"><ele>261.0</ele><time>2026-04-18T07:48:31.999Z</time></trkpt><trkpt lat="44.44600382182113" lon="9.255766862809255"><ele>261.0</ele><time>2026-04-18T07:48:32.999Z</time></trkpt><trkpt lat="44.44611011964632" lon="9.25571345321097"><ele>261.0</ele><time>2026-04-18T07:48:33.999Z</time></trkpt><trkpt lat="44.446223730461305" lon="9.25566345628666"><ele>261.0</ele><time>2026-04-18T07:48:34.999Z</time></trkpt><trkpt lat="44.44636287754206" lon="9.255619627599227"><ele>268.3333333333333</ele><time>2026-04-18T07:48:35.999Z</time></trkpt><trkpt lat="44.446507451938466" lon="9.25560889515574"><ele>275.66666666666663</ele><time>2026-04-18T07:48:36.999Z</time></trkpt><trkpt lat="44.44667375000462" lon="9.25560415733472"><ele>283.0</ele><time>2026-04-18T07:48:37.999Z</time></trkpt><trkpt lat="44.44682154720315" lon="9.255607127578227"><ele>283.0</ele><time>2026-04-18T07:48:38.999Z</time></trkpt><trkpt lat="44.446958289317706" lon="9.255610174533913"><ele>283.0</ele><time>2026-04-18T07:48:39.999Z</time></trkpt><trkpt lat="44.44708876689437" lon="9.255627752994714"><ele>283.0</ele><time>2026-04-18T07:48:40.999Z</time></trkpt><trkpt lat="44.44721907507371" lon="9.255667244029018"><ele>283.0</ele><time>2026-04-18T07:48:42Z</time></trkpt><trkpt lat="44.44735778307886" lon="9.255731315488713"><ele>279.5</ele><time>2026-04-18T07:48:43Z</time></trkpt><trkpt lat="44.447458381420105" lon="9.255847934871666"><ele>276.0</ele><time>2026-04-18T07:48:44Z</time></trkpt><trkpt lat="44.447557566515414" lon="9.25599113083894"><ele>272.5</ele><time>2026-04-18T07:48:45Z</time></trkpt><trkpt lat="44.447665433214226" lon="9.256152943041243"><ele>269.0</ele><time>2026-04-18T07:48:46Z</time></trkpt><trkpt lat="44.4477717041759" lon="9.25630797423031"><ele>269.0</ele><time>2026-04-18T07:48:47Z</time></trkpt><trkpt lat="44.44785993741806" lon="9.256439237533307"><ele>269.0</ele><time>2026-04-18T07:48:48Z</time></trkpt><trkpt lat="44.4479627175539" lon="9.256568536498609"><ele>269.0</ele><time>2026-04-18T07:48:49Z</time></trkpt><trkpt lat="44.448062092025076" lon="9.256729223062349"><ele>269.0</ele><time>2026-04-18T07:48:50Z</time></trkpt><trkpt lat="44.44812795215246" lon="9.256896101986175"><ele>272.25</ele><time>2026-04-18T07:48:51Z</time></trkpt><trkpt lat="44.44816846869096" lon="9.257046359131703"><ele>275.5</ele><time>2026-04-18T07:48:52Z</time></trkpt><trkpt lat="44.44823396981505" lon="9.257175620181114"><ele>278.75</ele><time>2026-04-18T07:48:53Z</time></trkpt><trkpt lat="44.44834572460118" lon="9.257290818426949"><ele>282.0</ele><time>2026-04-18T07:48:54Z</time></trkpt><trkpt lat="44.44847576068862" lon="9.257392366672526"><ele>282.0</ele><time>2026-04-18T07:48:55Z</time></trkpt><trkpt lat="44.44858048294968" lon="9.25746740777666"><ele>282.0</ele><time>2026-04-18T07:48:56Z</time></trkpt><trkpt lat="44.44869434968545" lon="9.257533260987568"><ele>282.0</ele><time>2026-04-18T07:48:57Z</time></trkpt><trkpt lat="44.448847267082236" lon="9.257572829158004"><ele>282.0</ele><time>2026-04-18T07:48:58Z</time></trkpt><trkpt lat="44.448980038604404" lon="9.257617109102728"><ele>284.6666666666667</ele><time>2026-04-18T07:48:59Z</time></trkpt><trkpt lat="44.44912197114142" lon="9.257662872112716"><ele>287.33333333333337</ele><time>2026-04-18T07:49:00Z</time></trkpt><trkpt lat="44.44928461632964" lon="9.257664997669803"><ele>290.0</ele><time>2026-04-18T07:49:01Z</time></trkpt><trkpt lat="44.44945890511499" lon="9.257660603932239"><ele>291.6666666666667</ele><time>2026-04-18T07:49:02Z</time></trkpt><trkpt lat="44.449637874851426" lon="9.257652369421523"><ele>293.3333333333333</ele><time>2026-04-18T07:49:03Z</time></trkpt><trkpt lat="44.449795469704064" lon="9.25764570991151"><ele>295.0</ele><time>2026-04-18T07:49:04Z</time></trkpt><trkpt lat="44.44993442876772" lon="9.257619994961301"><ele>295.0</ele><time>2026-04-18T07:49:05Z</time></trkpt><trkpt lat="44.450047731783016" lon="9.257624284087717"><ele>295.0</ele><time>2026-04-18T07:49:06Z</time></trkpt><trkpt lat="44.450145290377634" lon="9.257638509174859"><ele>295.0</ele><time>2026-04-18T07:49:07Z</time></trkpt><trkpt lat="44.45022156864852" lon="9.257655889008051"><ele>295.0</ele><time>2026-04-18T07:49:08Z</time></trkpt><trkpt lat="44.450687936508885" lon="9.25764337155877"><ele>294.66666666666663</ele><time>2026-04-18T07:49:10Z</time></trkpt><trkpt lat="44.45082059937586" lon="9.257660440198984"><ele>294.3333333333333</ele><time>2026-04-18T07:49:11Z</time></trkpt><trkpt lat="44.4509753325379" lon="9.257645241194027"><ele>294.0</ele><time>2026-04-18T07:49:12Z</time></trkpt><trkpt lat="44.45113394103924" lon="9.257577812368954"><ele>294.0</ele><time>2026-04-18T07:49:13Z</time></trkpt><trkpt lat="44.45126236559957" lon="9.257552234141128"><ele>294.0</ele><time>2026-04-18T07:49:14Z</time></trkpt><trkpt lat="44.45135028533139" lon="9.257529474990035"><ele>294.0</ele><time>2026-04-18T07:49:15Z</time></trkpt><trkpt lat="44.45141925668293" lon="9.257533417142598"><ele>294.0</ele><time>2026-04-18T07:49:19Z</time></trkpt><trkpt lat="44.45151553153241" lon="9.257528643450053"><ele>294.0</ele><time>2026-04-18T07:49:23Z</time></trkpt><trkpt lat="44.45159734733368" lon="9.25754298168159"><ele>296.4</ele><time>2026-04-18T07:49:24Z</time></trkpt><trkpt lat="44.451669320690286" lon="9.257608812650492"><ele>298.79999999999995</ele><time>2026-04-18T07:49:25Z</time></trkpt><trkpt lat="44.45175134300447" lon="9.257668780364803"><ele>301.20000000000005</ele><time>2026-04-18T07:49:26Z</time></trkpt><trkpt lat="44.45183699213969" lon="9.257770421830608"><ele>303.6</ele><time>2026-04-18T07:49:27Z</time></trkpt><trkpt lat="44.451930222977005" lon="9.257853499322023"><ele>306.0</ele><time>2026-04-18T07:49:28Z</time></trkpt><trkpt lat="44.45202305171715" lon="9.257916731978339"><ele>306.0</ele><time>2026-04-18T07:49:29Z</time></trkpt><trkpt lat="44.45210025966948" lon="9.25805076235281"><ele>306.0</ele><time>2026-04-18T07:49:30Z</time></trkpt><trkpt lat="44.452187475787206" lon="9.25818130259754"><ele>306.0</ele><time>2026-04-18T07:49:31Z</time></trkpt><trkpt lat="44.45228042916625" lon="9.258327138456325"><ele>306.0</ele><time>2026-04-18T07:49:32Z</time></trkpt><trkpt lat="44.45240324282134" lon="9.258480112277995"><ele>303.6</ele><time>2026-04-18T07:49:33Z</time></trkpt><trkpt lat="44.45248558374714" lon="9.258618737151847"><ele>301.20000000000005</ele><time>2026-04-18T07:49:34Z</time></trkpt><trkpt lat="44.45255723920897" lon="9.258740021921065"><ele>298.79999999999995</ele><time>2026-04-18T07:49:35Z</time></trkpt><trkpt lat="44.45262318395821" lon="9.25883507162145"><ele>296.4</ele><time>2026-04-18T07:49:36Z</time></trkpt><trkpt lat="44.45267923076178" lon="9.258911885179828"><ele>294.0</ele><time>2026-04-18T07:49:37Z</time></trkpt><trkpt lat="44.45272195870802" lon="9.258979411556187"><ele>293.2</ele><time>2026-04-18T07:49:38Z</time></trkpt><trkpt lat="44.452748556369244" lon="9.259119074873247"><ele>292.4</ele><time>2026-04-18T07:49:40Z</time></trkpt><trkpt lat="44.45268771557328" lon="9.259209576980602"><ele>291.6</ele><time>2026-04-18T07:49:41Z</time></trkpt><trkpt lat="44.45265918672326" lon="9.259335188533273"><ele>290.8</ele><time>2026-04-18T07:49:42Z</time></trkpt><trkpt lat="44.4526239748378" lon="9.259464429763334"><ele>290.0</ele><time>2026-04-18T07:49:43Z</time></trkpt><trkpt lat="44.452574327032" lon="9.259558761657898"><ele>290.0</ele><time>2026-04-18T07:49:44Z</time></trkpt><trkpt lat="44.45253225449385" lon="9.259630303485114"><ele>290.0</ele><time>2026-04-18T07:49:45Z</time></trkpt><trkpt lat="44.4524947292272" lon="9.259745323780908"><ele>290.0</ele><time>2026-04-18T07:49:46Z</time></trkpt><trkpt lat="44.452497065972125" lon="9.25989717163344"><ele>290.0</ele><time>2026-04-18T07:49:47Z</time></trkpt><trkpt lat="44.45257853188889" lon="9.260034988366055"><ele>290.0</ele><time>2026-04-18T07:49:47.999Z</time></trkpt><trkpt lat="44.45263607963721" lon="9.260191864879815"><ele>293.75</ele><time>2026-04-18T07:49:48.999Z</time></trkpt><trkpt lat="44.45270193443816" lon="9.260351566287339"><ele>297.5</ele><time>2026-04-18T07:49:49.999Z</time></trkpt><trkpt lat="44.45275093639662" lon="9.260499990526228"><ele>301.25</ele><time>2026-04-18T07:49:50.999Z</time></trkpt><trkpt lat="44.452789638250636" lon="9.2606592469303"><ele>305.0</ele><time>2026-04-18T07:49:51.999Z</time></trkpt><trkpt lat="44.45282572477143" lon="9.260829153977726"><ele>305.4</ele><time>2026-04-18T07:49:52.999Z</time></trkpt><trkpt lat="44.4528604294633" lon="9.260988865712406"><ele>305.8</ele><time>2026-04-18T07:49:53.999Z</time></trkpt><trkpt lat="44.452915362445076" lon="9.26114754866983"><ele>306.2</ele><time>2026-04-18T07:49:54.999Z</time></trkpt><trkpt lat="44.45294919773771" lon="9.26128371349972"><ele>306.6</ele><time>2026-04-18T07:49:55.999Z</time></trkpt><trkpt lat="44.45299908566277" lon="9.261403341608634"><ele>307.0</ele><time>2026-04-18T07:49:56.999Z</time></trkpt><trkpt lat="44.453081557474384" lon="9.261501158908334"><ele>307.0</ele><time>2026-04-18T07:49:57.999Z</time></trkpt><trkpt lat="44.45318965423763" lon="9.26156309074219"><ele>307.0</ele><time>2026-04-18T07:49:58.999Z</time></trkpt><trkpt lat="44.45329041358565" lon="9.261571652891103"><ele>307.0</ele><time>2026-04-18T07:49:59.999Z</time></trkpt><trkpt lat="44.45338873302183" lon="9.26154257992562"><ele>307.0</ele><time>2026-04-18T07:50:00.999Z</time></trkpt><trkpt lat="44.45347930822479" lon="9.2614770156767"><ele>307.0</ele><time>2026-04-18T07:50:01.999Z</time></trkpt><trkpt lat="44.45356128553705" lon="9.26137620533318"><ele>305.6</ele><time>2026-04-18T07:50:02.999Z</time></trkpt><trkpt lat="44.45361753699065" lon="9.261256452980259"><ele>304.2</ele><time>2026-04-18T07:50:03.999Z</time></trkpt><trkpt lat="44.45363931544987" lon="9.261131387177155"><ele>302.8</ele><time>2026-04-18T07:50:04.999Z</time></trkpt><trkpt lat="44.453654221130364" lon="9.260989539130938"><ele>301.4</ele><time>2026-04-18T07:50:05.999Z</time></trkpt><trkpt lat="44.4536420758804" lon="9.260838629973211"><ele>300.0</ele><time>2026-04-18T07:50:06.999Z</time></trkpt><trkpt lat="44.45364291415652" lon="9.260724943502568"><ele>300.0</ele><time>2026-04-18T07:50:07.999Z</time></trkpt><trkpt lat="44.45363669435834" lon="9.26061608375823"><ele>300.0</ele><time>2026-04-18T07:50:08.999Z</time></trkpt><trkpt lat="44.45363082353813" lon="9.260495733764529"><ele>300.0</ele><time>2026-04-18T07:50:09.999Z</time></trkpt><trkpt lat="44.453624545325646" lon="9.26036942504126"><ele>300.0</ele><time>2026-04-18T07:50:10.999Z</time></trkpt><trkpt lat="44.45363954770361" lon="9.260251106040036"><ele>300.0</ele><time>2026-04-18T07:50:11.999Z</time></trkpt><trkpt lat="44.45365556004296" lon="9.260164704984097"><ele>300.0</ele><time>2026-04-18T07:50:12.999Z</time></trkpt><trkpt lat="44.453692025302956" lon="9.260090909192957"><ele>303.8</ele><time>2026-04-18T07:50:13.999Z</time></trkpt><trkpt lat="44.45379014163086" lon="9.260026801706019"><ele>307.6</ele><time>2026-04-18T07:50:15.999Z</time></trkpt><trkpt lat="44.45392348345687" lon="9.259959830475553"><ele>311.4</ele><time>2026-04-18T07:50:17.999Z</time></trkpt><trkpt lat="44.45401219185914" lon="9.259914345924232"><ele>315.2</ele><time>2026-04-18T07:50:18.999Z</time></trkpt><trkpt lat="44.45410269421156" lon="9.259875001175109"><ele>319.0</ele><time>2026-04-18T07:50:19.999Z</time></trkpt><trkpt lat="44.45417036479694" lon="9.259856003565247"><ele>319.0</ele><time>2026-04-18T07:50:20.999Z</time></trkpt><trkpt lat="44.45426796487684" lon="9.259853844153842"><ele>319.0</ele><time>2026-04-18T07:50:22.999Z</time></trkpt><trkpt lat="44.45437314590529" lon="9.259912305813003"><ele>319.0</ele><time>2026-04-18T07:50:24.999Z</time></trkpt><trkpt lat="44.45441940170577" lon="9.259996218519078"><ele>319.0</ele><time>2026-04-18T07:50:25.999Z</time></trkpt><trkpt lat="44.45449116823089" lon="9.260092386695824"><ele>319.0</ele><time>2026-04-18T07:50:26.999Z</time></trkpt><trkpt lat="44.454557032893966" lon="9.260180862291602"><ele>320.0</ele><time>2026-04-18T07:50:27.999Z</time></trkpt><trkpt lat="44.45462260914808" lon="9.26027012426661"><ele>321.0</ele><time>2026-04-18T07:50:28.999Z</time></trkpt><trkpt lat="44.454697795428935" lon="9.260372467406551"><ele>322.0</ele><time>2026-04-18T07:50:29.999Z</time></trkpt><trkpt lat="44.45476579550677" lon="9.260463527637327"><ele>323.0</ele><time>2026-04-18T07:50:30.999Z</time></trkpt><trkpt lat="44.454831489287706" lon="9.260551475097742"><ele>324.0</ele><time>2026-04-18T07:50:31.999Z</time></trkpt><trkpt lat="44.454908075908605" lon="9.260643590331004"><ele>326.0</ele><time>2026-04-18T07:50:32.999Z</time></trkpt><trkpt lat="44.45498455138635" lon="9.260738699060639"><ele>328.0</ele><time>2026-04-18T07:50:33.999Z</time></trkpt><trkpt lat="44.45504157885147" lon="9.26081437903471"><ele>330.0</ele><time>2026-04-18T07:50:34.999Z</time></trkpt><trkpt lat="44.455088905090015" lon="9.260892407442725"><ele>332.0</ele><time>2026-04-18T07:50:35.999Z</time></trkpt><trkpt lat="44.45512720602826" lon="9.260979772570611"><ele>334.0</ele><time>2026-04-18T07:50:36.999Z</time></trkpt><trkpt lat="44.45516234094775" lon="9.261074195853896"><ele>336.0</ele><time>2026-04-18T07:50:37.999Z</time></trkpt><trkpt lat="44.45521507995136" lon="9.261141974499948"><ele>336.0</ele><time>2026-04-18T07:50:38.999Z</time></trkpt><trkpt lat="44.45527312845065" lon="9.261183667435953"><ele>336.0</ele><time>2026-04-18T07:50:39.999Z</time></trkpt><trkpt lat="44.455341890895966" lon="9.261180643839834"><ele>336.0</ele><time>2026-04-18T07:50:40.999Z</time></trkpt><trkpt lat="44.45540590215603" lon="9.261154056380063"><ele>336.0</ele><time>2026-04-18T07:50:41.999Z</time></trkpt><trkpt lat="44.455469246775955" lon="9.261113023893342"><ele>336.0</ele><time>2026-04-18T07:50:42.999Z</time></trkpt><trkpt lat="44.45545615146244" lon="9.260923200680661"><ele>336.0</ele><time>2026-04-18T07:50:43.999Z</time></trkpt><trkpt lat="44.45542654120131" lon="9.260777565205156"><ele>336.0</ele><time>2026-04-18T07:50:44.999Z</time></trkpt><trkpt lat="44.45537808714226" lon="9.260683345540556"><ele>336.0</ele><time>2026-04-18T07:50:45.999Z</time></trkpt><trkpt lat="44.45535546138488" lon="9.260573712630695"><ele>336.0</ele><time>2026-04-18T07:50:46.999Z</time></trkpt><trkpt lat="44.455319257791025" lon="9.260470382954987"><ele>336.0</ele><time>2026-04-18T07:50:48Z</time></trkpt><trkpt lat="44.45530453905114" lon="9.260377390360588"><ele>336.0</ele><time>2026-04-18T07:50:49Z</time></trkpt><trkpt lat="44.455265518966534" lon="9.260225758919018"><ele>336.0</ele><time>2026-04-18T07:50:51Z</time></trkpt><trkpt lat="44.455287579249095" lon="9.260084455435223"><ele>333.0</ele><time>2026-04-18T07:50:53Z</time></trkpt><trkpt lat="44.45541203315312" lon="9.260013154722843"><ele>330.0</ele><time>2026-04-18T07:50:55Z</time></trkpt><trkpt lat="44.455515965945665" lon="9.2599591908323"><ele>327.0</ele><time>2026-04-18T07:50:56Z</time></trkpt><trkpt lat="44.45564320718525" lon="9.259893187254475"><ele>324.0</ele><time>2026-04-18T07:50:57Z</time></trkpt><trkpt lat="44.455754130576366" lon="9.259840159713406"><ele>323.75</ele><time>2026-04-18T07:50:58Z</time></trkpt><trkpt lat="44.45584312248706" lon="9.25981152788306"><ele>323.5</ele><time>2026-04-18T07:50:59Z</time></trkpt><trkpt lat="44.45595094508818" lon="9.25977966977962"><ele>323.25</ele><time>2026-04-18T07:51:00Z</time></trkpt><trkpt lat="44.456079151767455" lon="9.259737916090694"><ele>323.0</ele><time>2026-04-18T07:51:01Z</time></trkpt><trkpt lat="44.456220788097156" lon="9.259596446267595"><ele>329.33333333333337</ele><time>2026-04-18T07:51:02Z</time></trkpt><trkpt lat="44.456393134583585" lon="9.259437896456395"><ele>335.6666666666667</ele><time>2026-04-18T07:51:03Z</time></trkpt><trkpt lat="44.45656099122694" lon="9.259263385581502"><ele>342.0</ele><time>2026-04-18T07:51:04Z</time></trkpt><trkpt lat="44.45672030389027" lon="9.259108545079561"><ele>342.0</ele><time>2026-04-18T07:51:05Z</time></trkpt><trkpt lat="44.45685011545484" lon="9.258954872445326"><ele>342.0</ele><time>2026-04-18T07:51:06Z</time></trkpt><trkpt lat="44.45700751379632" lon="9.258889375637011"><ele>342.0</ele><time>2026-04-18T07:51:07Z</time></trkpt><trkpt lat="44.45717756505731" lon="9.258791684384185"><ele>342.6666666666667</ele><time>2026-04-18T07:51:08Z</time></trkpt><trkpt lat="44.45736537221666" lon="9.258685408866596"><ele>343.33333333333337</ele><time>2026-04-18T07:51:09Z</time></trkpt><trkpt lat="44.45756354807078" lon="9.258580456897189"><ele>344.0</ele><time>2026-04-18T07:51:10Z</time></trkpt><trkpt lat="44.457721932625724" lon="9.258535686173927"><ele>344.0</ele><time>2026-04-18T07:51:11Z</time></trkpt><trkpt lat="44.45785444019308" lon="9.25847513861469"><ele>344.0</ele><time>2026-04-18T07:51:12Z</time></trkpt><trkpt lat="44.457974297186325" lon="9.258415925068029"><ele>344.0</ele><time>2026-04-18T07:51:13Z</time></trkpt><trkpt lat="44.45810441629167" lon="9.258314687310646"><ele>344.0</ele><time>2026-04-18T07:51:14Z</time></trkpt><trkpt lat="44.45826930302868" lon="9.258216313858032"><ele>344.0</ele><time>2026-04-18T07:51:15Z</time></trkpt><trkpt lat="44.458405607087855" lon="9.25801428219072"><ele>344.0</ele><time>2026-04-18T07:51:16Z</time></trkpt><trkpt lat="44.45851549691499" lon="9.257853761510468"><ele>344.0</ele><time>2026-04-18T07:51:17Z</time></trkpt><trkpt lat="44.458644000882565" lon="9.257753269608376"><ele>344.0</ele><time>2026-04-18T07:51:18Z</time></trkpt><trkpt lat="44.45875431786053" lon="9.257652818684873"><ele>344.0</ele><time>2026-04-18T07:51:19Z</time></trkpt><trkpt lat="44.45886500673974" lon="9.257601861500671"><ele>344.0</ele><time>2026-04-18T07:51:20Z</time></trkpt><trkpt lat="44.458997145865496" lon="9.257580609830855"><ele>344.0</ele><time>2026-04-18T07:51:21Z</time></trkpt><trkpt lat="44.45915982442321" lon="9.257583713791687"><ele>348.0</ele><time>2026-04-18T07:51:22Z</time></trkpt><trkpt lat="44.45928684022009" lon="9.257594962013641"><ele>352.0</ele><time>2026-04-18T07:51:23Z</time></trkpt><trkpt lat="44.459403437613894" lon="9.257653655977878"><ele>356.0</ele><time>2026-04-18T07:51:24Z</time></trkpt><trkpt lat="44.459507785599804" lon="9.257771513543087"><ele>360.0</ele><time>2026-04-18T07:51:25Z</time></trkpt><trkpt lat="44.45959086061293" lon="9.257929939983782"><ele>362.6</ele><time>2026-04-18T07:51:26Z</time></trkpt><trkpt lat="44.45966739951351" lon="9.258007606443545"><ele>365.2</ele><time>2026-04-18T07:51:27Z</time></trkpt><trkpt lat="44.45975062724753" lon="9.258037578508967"><ele>367.79999999999995</ele><time>2026-04-18T07:51:28Z</time></trkpt><trkpt lat="44.45983842554524" lon="9.258029865531206"><ele>370.4</ele><time>2026-04-18T07:51:29Z</time></trkpt><trkpt lat="44.459932858733836" lon="9.257947452865379"><ele>373.0</ele><time>2026-04-18T07:51:30Z</time></trkpt><trkpt lat="44.459997991403675" lon="9.25783882962607"><ele>373.0</ele><time>2026-04-18T07:51:31Z</time></trkpt><trkpt lat="44.46000820835366" lon="9.257689776144382"><ele>373.0</ele><time>2026-04-18T07:51:32Z</time></trkpt><trkpt lat="44.45997804005372" lon="9.257511141669571"><ele>373.0</ele><time>2026-04-18T07:51:33Z</time></trkpt><trkpt lat="44.45992386666078" lon="9.25733737873176"><ele>373.0</ele><time>2026-04-18T07:51:34Z</time></trkpt><trkpt lat="44.45984886421145" lon="9.257164574024618"><ele>374.75</ele><time>2026-04-18T07:51:35Z</time></trkpt><trkpt lat="44.45977326384867" lon="9.256959355464694"><ele>376.5</ele><time>2026-04-18T07:51:36Z</time></trkpt><trkpt lat="44.459728440518084" lon="9.256769092989844"><ele>378.25</ele><time>2026-04-18T07:51:37Z</time></trkpt><trkpt lat="44.45970377050606" lon="9.25661806962139"><ele>380.0</ele><time>2026-04-18T07:51:38Z</time></trkpt><trkpt lat="44.459680553637455" lon="9.256494779562429"><ele>382.8</ele><time>2026-04-18T07:51:39Z</time></trkpt><trkpt lat="44.45963743673636" lon="9.256384102368191"><ele>385.6</ele><time>2026-04-18T07:51:40Z</time></trkpt><trkpt lat="44.459560997032966" lon="9.256324005837353"><ele>388.4</ele><time>2026-04-18T07:51:41Z</time></trkpt><trkpt lat="44.459454895629165" lon="9.256328567327943"><ele>391.2</ele><time>2026-04-18T07:51:42Z</time></trkpt><trkpt lat="44.4593451819095" lon="9.256367015883296"><ele>394.0</ele><time>2026-04-18T07:51:43Z</time></trkpt><trkpt lat="44.459218116974355" lon="9.256399291826106"><ele>394.0</ele><time>2026-04-18T07:51:44Z</time></trkpt><trkpt lat="44.45909547200762" lon="9.256394756251508"><ele>394.0</ele><time>2026-04-18T07:51:45Z</time></trkpt><trkpt lat="44.45901280771004" lon="9.256370689275924"><ele>394.0</ele><time>2026-04-18T07:51:46Z</time></trkpt><trkpt lat="44.45890001812457" lon="9.256284782128455"><ele>394.0</ele><time>2026-04-18T07:51:47Z</time></trkpt><trkpt lat="44.45877313159285" lon="9.256183506081339"><ele>392.33333333333337</ele><time>2026-04-18T07:51:48Z</time></trkpt><trkpt lat="44.45863386708834" lon="9.256110199291802"><ele>390.66666666666663</ele><time>2026-04-18T07:51:49Z</time></trkpt><trkpt lat="44.458470906975336" lon="9.25609035626648"><ele>389.0</ele><time>2026-04-18T07:51:50Z</time></trkpt><trkpt lat="44.458311719986604" lon="9.256116684132001"><ele>389.0</ele><time>2026-04-18T07:51:51Z</time></trkpt><trkpt lat="44.45818140770611" lon="9.25610105627129"><ele>389.0</ele><time>2026-04-18T07:51:52Z</time></trkpt><trkpt lat="44.4580669637048" lon="9.256095154511494"><ele>389.0</ele><time>2026-04-18T07:51:53Z</time></trkpt><trkpt lat="44.457969790032244" lon="9.256086162633382"><ele>389.0</ele><time>2026-04-18T07:51:53.999Z</time></trkpt><trkpt lat="44.45792373646463" lon="9.25598090938429"><ele>389.0</ele><time>2026-04-18T07:51:54.999Z</time></trkpt><trkpt lat="44.457859874759805" lon="9.255858986080568"><ele>389.0</ele><time>2026-04-18T07:51:55.999Z</time></trkpt><trkpt lat="44.4577627055334" lon="9.255739034446869"><ele>389.0</ele><time>2026-04-18T07:51:56.999Z</time></trkpt><trkpt lat="44.457674930762906" lon="9.255664044569093"><ele>389.0</ele><time>2026-04-18T07:51:57.999Z</time></trkpt><trkpt lat="44.45760008376048" lon="9.255645001593725"><ele>389.0</ele><time>2026-04-18T07:51:58.999Z</time></trkpt><trkpt lat="44.45752284673001" lon="9.255701451103256"><ele>389.0</ele><time>2026-04-18T07:51:59.999Z</time></trkpt><trkpt lat="44.45743823173057" lon="9.255804313256368"><ele>389.0</ele><time>2026-04-18T07:52:00.999Z</time></trkpt><trkpt lat="44.45735986505089" lon="9.255933751633247"><ele>389.0</ele><time>2026-04-18T07:52:01.999Z</time></trkpt><trkpt lat="44.457302044230474" lon="9.256099166943539"><ele>389.0</ele><time>2026-04-18T07:52:02.999Z</time></trkpt><trkpt lat="44.45723848920547" lon="9.256243665877367"><ele>389.0</ele><time>2026-04-18T07:52:03.999Z</time></trkpt><trkpt lat="44.45718342895988" lon="9.256317197394416"><ele>385.25</ele><time>2026-04-18T07:52:04.999Z</time></trkpt><trkpt lat="44.45709940710534" lon="9.256341968397424"><ele>381.5</ele><time>2026-04-18T07:52:05.999Z</time></trkpt><trkpt lat="44.45697609991596" lon="9.256399453356368"><ele>377.75</ele><time>2026-04-18T07:52:06.999Z</time></trkpt><trkpt lat="44.45682404514144" lon="9.256440366245922"><ele>374.0</ele><time>2026-04-18T07:52:07.999Z</time></trkpt><trkpt lat="44.45667753727818" lon="9.256470519736572"><ele>374.0</ele><time>2026-04-18T07:52:08.999Z</time></trkpt><trkpt lat="44.45654106282858" lon="9.25650463701948"><ele>374.0</ele><time>2026-04-18T07:52:09.999Z</time></trkpt><trkpt lat="44.45643835478427" lon="9.256572890059745"><ele>374.0</ele><time>2026-04-18T07:52:10.999Z</time></trkpt><trkpt lat="44.45633505368625" lon="9.256661130805362"><ele>374.0</ele><time>2026-04-18T07:52:11.999Z</time></trkpt><trkpt lat="44.456208067580114" lon="9.256682434987487"><ele>375.2</ele><time>2026-04-18T07:52:12.999Z</time></trkpt><trkpt lat="44.45614063269302" lon="9.256699887596747"><ele>376.4</ele><time>2026-04-18T07:52:13.999Z</time></trkpt><trkpt lat="44.45608609524605" lon="9.256588960761386"><ele>377.6</ele><time>2026-04-18T07:52:14.999Z</time></trkpt><trkpt lat="44.45604207733198" lon="9.256471788204664"><ele>378.8</ele><time>2026-04-18T07:52:15.999Z</time></trkpt><trkpt lat="44.455957591938464" lon="9.256343202782116"><ele>380.0</ele><time>2026-04-18T07:52:16.999Z</time></trkpt><trkpt lat="44.455838320922616" lon="9.256261001942107"><ele>385.6</ele><time>2026-04-18T07:52:17.999Z</time></trkpt><trkpt lat="44.455715820348615" lon="9.25630059663044"><ele>391.2</ele><time>2026-04-18T07:52:18.999Z</time></trkpt><trkpt lat="44.45560461874588" lon="9.256358993579822"><ele>396.79999999999995</ele><time>2026-04-18T07:52:19.999Z</time></trkpt><trkpt lat="44.45551588624039" lon="9.25642312091598"><ele>402.4</ele><time>2026-04-18T07:52:20.999Z</time></trkpt><trkpt lat="44.45543608505183" lon="9.256416933741654"><ele>408.0</ele><time>2026-04-18T07:52:21.999Z</time></trkpt><trkpt lat="44.455397443038585" lon="9.256304192468031"><ele>408.0</ele><time>2026-04-18T07:52:22.999Z</time></trkpt><trkpt lat="44.455400357369335" lon="9.25619789054599"><ele>408.0</ele><time>2026-04-18T07:52:23.999Z</time></trkpt><trkpt lat="44.45546130197015" lon="9.256134810495158"><ele>408.0</ele><time>2026-04-18T07:52:24.999Z</time></trkpt><trkpt lat="44.45552052896215" lon="9.256103861225657"><ele>408.0</ele><time>2026-04-18T07:52:25.999Z</time></trkpt><trkpt lat="44.45561543918329" lon="9.256124423687972"><ele>408.0</ele><time>2026-04-18T07:52:26.999Z</time></trkpt><trkpt lat="44.45576242349402" lon="9.256129266488836"><ele>408.0</ele><time>2026-04-18T07:52:27.999Z</time></trkpt><trkpt lat="44.455909177276965" lon="9.256133863360427"><ele>408.0</ele><time>2026-04-18T07:52:28.999Z</time></trkpt><trkpt lat="44.45605990256316" lon="9.256160202853811"><ele>408.0</ele><time>2026-04-18T07:52:29.999Z</time></trkpt><trkpt lat="44.45619483993243" lon="9.256246679695495"><ele>408.0</ele><time>2026-04-18T07:52:30.999Z</time></trkpt><trkpt lat="44.45630567251554" lon="9.256307981848048"><ele>407.25</ele><time>2026-04-18T07:52:31.999Z</time></trkpt><trkpt lat="44.4564141183716" lon="9.256325084192598"><ele>406.5</ele><time>2026-04-18T07:52:32.999Z</time></trkpt><trkpt lat="44.456542264833125" lon="9.256251443876927"><ele>405.75</ele><time>2026-04-18T07:52:33.999Z</time></trkpt><trkpt lat="44.45664582853644" lon="9.256127589747845"><ele>405.0</ele><time>2026-04-18T07:52:34.999Z</time></trkpt><trkpt lat="44.45678480414016" lon="9.256022214198808"><ele>405.0</ele><time>2026-04-18T07:52:35.999Z</time></trkpt><trkpt lat="44.456926132195406" lon="9.255891726184064"><ele>405.0</ele><time>2026-04-18T07:52:36.999Z</time></trkpt><trkpt lat="44.45705805490643" lon="9.25573448883424"><ele>405.0</ele><time>2026-04-18T07:52:37.999Z</time></trkpt><trkpt lat="44.45717807442939" lon="9.2556107415829"><ele>407.33333333333337</ele><time>2026-04-18T07:52:38.999Z</time></trkpt><trkpt lat="44.457270910218256" lon="9.255440398578394"><ele>409.6666666666667</ele><time>2026-04-18T07:52:39.999Z</time></trkpt><trkpt lat="44.457354865106325" lon="9.25523107444127"><ele>412.0</ele><time>2026-04-18T07:52:40.999Z</time></trkpt><trkpt lat="44.45743896206224" lon="9.254972964959538"><ele>412.0</ele><time>2026-04-18T07:52:41.999Z</time></trkpt><trkpt lat="44.45750992398767" lon="9.254807677947813"><ele>412.0</ele><time>2026-04-18T07:52:42.999Z</time></trkpt><trkpt lat="44.457571138635075" lon="9.254713642492773"><ele>412.0</ele><time>2026-04-18T07:52:43.999Z</time></trkpt><trkpt lat="44.45764397502718" lon="9.254655171737676"><ele>412.0</ele><time>2026-04-18T07:52:44.999Z</time></trkpt><trkpt lat="44.45773215525805" lon="9.254678171760387"><ele>412.0</ele><time>2026-04-18T07:52:45.999Z</time></trkpt><trkpt lat="44.45779230258975" lon="9.254784791071694"><ele>412.0</ele><time>2026-04-18T07:52:46.999Z</time></trkpt><trkpt lat="44.4578591022425" lon="9.254911502195592"><ele>412.0</ele><time>2026-04-18T07:52:47.999Z</time></trkpt><trkpt lat="44.45796200842922" lon="9.255028182750936"><ele>412.0</ele><time>2026-04-18T07:52:48.999Z</time></trkpt><trkpt lat="44.458071046463566" lon="9.255119595953515"><ele>412.0</ele><time>2026-04-18T07:52:49.999Z</time></trkpt><trkpt lat="44.45819868583711" lon="9.255144293980678"><ele>412.75</ele><time>2026-04-18T07:52:50.999Z</time></trkpt><trkpt lat="44.458365608269766" lon="9.25517317181005"><ele>413.5</ele><time>2026-04-18T07:52:51.999Z</time></trkpt><trkpt lat="44.45852181565934" lon="9.255214670021724"><ele>414.25</ele><time>2026-04-18T07:52:52.999Z</time></trkpt><trkpt lat="44.45863009396132" lon="9.255242563631652"><ele>415.0</ele><time>2026-04-18T07:52:54Z</time></trkpt><trkpt lat="44.45871621685693" lon="9.255248915067458"><ele>415.75</ele><time>2026-04-18T07:52:55Z</time></trkpt><trkpt lat="44.45880297567285" lon="9.255202184935195"><ele>416.5</ele><time>2026-04-18T07:52:56Z</time></trkpt><trkpt lat="44.458899391860975" lon="9.255100824725817"><ele>417.25</ele><time>2026-04-18T07:52:57Z</time></trkpt><trkpt lat="44.45900568700741" lon="9.254988860491412"><ele>418.0</ele><time>2026-04-18T07:52:58Z</time></trkpt><trkpt lat="44.45912600326517" lon="9.254901640101425"><ele>418.00000000000006</ele><time>2026-04-18T07:52:59Z</time></trkpt><trkpt lat="44.45924995305117" lon="9.254918948252085"><ele>418.0</ele><time>2026-04-18T07:53:00Z</time></trkpt><trkpt lat="44.45933400989885" lon="9.254881429890212"><ele>418.0</ele><time>2026-04-18T07:53:01Z</time></trkpt><trkpt lat="44.45939473482771" lon="9.254850591981835"><ele>418.0</ele><time>2026-04-18T07:53:02Z</time></trkpt><trkpt lat="44.4594298665211" lon="9.254759742952352"><ele>418.00000000000006</ele><time>2026-04-18T07:53:03Z</time></trkpt><trkpt lat="44.45942974040666" lon="9.254646111736498"><ele>418.0</ele><time>2026-04-18T07:53:04Z</time></trkpt><trkpt lat="44.45940867853475" lon="9.254539704555164"><ele>424.5</ele><time>2026-04-18T07:53:05Z</time></trkpt><trkpt lat="44.45931211044814" lon="9.254485254371017"><ele>431.0</ele><time>2026-04-18T07:53:06Z</time></trkpt><trkpt lat="44.459214438853145" lon="9.25444787835312"><ele>437.5</ele><time>2026-04-18T07:53:07Z</time></trkpt><trkpt lat="44.459084210615316" lon="9.254404727578056"><ele>444.0</ele><time>2026-04-18T07:53:08Z</time></trkpt><trkpt lat="44.45894121985381" lon="9.254367015740405"><ele>444.0</ele><time>2026-04-18T07:53:09Z</time></trkpt><trkpt lat="44.45878050722357" lon="9.254347908722428"><ele>444.0</ele><time>2026-04-18T07:53:10Z</time></trkpt><trkpt lat="44.45859970277714" lon="9.254341754291959"><ele>444.0</ele><time>2026-04-18T07:53:11Z</time></trkpt><trkpt lat="44.45845785741189" lon="9.254326991288956"><ele>444.0</ele><time>2026-04-18T07:53:12Z</time></trkpt><trkpt lat="44.45833013888194" lon="9.254254270698942"><ele>444.0</ele><time>2026-04-18T07:53:13Z</time></trkpt><trkpt lat="44.45818966795609" lon="9.254154545906292"><ele>444.0</ele><time>2026-04-18T07:53:14Z</time></trkpt><trkpt lat="44.45804400584656" lon="9.254093748873597"><ele>444.0</ele><time>2026-04-18T07:53:15Z</time></trkpt><trkpt lat="44.45792243841028" lon="9.254085114561"><ele>442.6</ele><time>2026-04-18T07:53:16Z</time></trkpt><trkpt lat="44.45781835961135" lon="9.25405521930444"><ele>441.2</ele><time>2026-04-18T07:53:17Z</time></trkpt><trkpt lat="44.457743424860524" lon="9.253985175868928"><ele>439.80000000000007</ele><time>2026-04-18T07:53:18Z</time></trkpt><trkpt lat="44.45771137448109" lon="9.253860337024335"><ele>438.40000000000003</ele><time>2026-04-18T07:53:19Z</time></trkpt><trkpt lat="44.45773902168055" lon="9.253712412865873"><ele>437.0</ele><time>2026-04-18T07:53:20Z</time></trkpt><trkpt lat="44.457713670069275" lon="9.253567189829845"><ele>442.6</ele><time>2026-04-18T07:53:21Z</time></trkpt><trkpt lat="44.457654492908425" lon="9.253456736619437"><ele>448.20000000000005</ele><time>2026-04-18T07:53:22Z</time></trkpt><trkpt lat="44.45754839650109" lon="9.25342128806442"><ele>453.8</ele><time>2026-04-18T07:53:23Z</time></trkpt><trkpt lat="44.45744688214448" lon="9.253452221651697"><ele>459.4</ele><time>2026-04-18T07:53:24Z</time></trkpt><trkpt lat="44.457335791058114" lon="9.253520211719781"><ele>465.0</ele><time>2026-04-18T07:53:25Z</time></trkpt><trkpt lat="44.45721609264448" lon="9.25360574379776"><ele>463.0</ele><time>2026-04-18T07:53:26Z</time></trkpt><trkpt lat="44.45710935657525" lon="9.253732990972438"><ele>461.0</ele><time>2026-04-18T07:53:27Z</time></trkpt><trkpt lat="44.45701507145922" lon="9.253899690784316"><ele>459.0</ele><time>2026-04-18T07:53:28Z</time></trkpt><trkpt lat="44.45692097913477" lon="9.254076178718007"><ele>457.0</ele><time>2026-04-18T07:53:29Z</time></trkpt><trkpt lat="44.456785461886085" lon="9.254200353899412"><ele>457.0</ele><time>2026-04-18T07:53:30Z</time></trkpt><trkpt lat="44.45664358982654" lon="9.254309739221807"><ele>457.0</ele><time>2026-04-18T07:53:31Z</time></trkpt><trkpt lat="44.45650253215765" lon="9.254354525473063"><ele>457.0</ele><time>2026-04-18T07:53:32Z</time></trkpt><trkpt lat="44.456345213314734" lon="9.25439035677146"><ele>463.33333333333337</ele><time>2026-04-18T07:53:33Z</time></trkpt><trkpt lat="44.45618398059849" lon="9.254401100848163"><ele>469.66666666666663</ele><time>2026-04-18T07:53:34Z</time></trkpt><trkpt lat="44.456018509658136" lon="9.254464751343088"><ele>476.0</ele><time>2026-04-18T07:53:35Z</time></trkpt><trkpt lat="44.45588355021487" lon="9.254554350655644"><ele>476.0</ele><time>2026-04-18T07:53:36Z</time></trkpt><trkpt lat="44.45578237724911" lon="9.254583814937286"><ele>476.0</ele><time>2026-04-18T07:53:37Z</time></trkpt><trkpt lat="44.455686194243" lon="9.254529831148531"><ele>476.0</ele><time>2026-04-18T07:53:39Z</time></trkpt><trkpt lat="44.45567429860065" lon="9.254421479081266"><ele>476.0</ele><time>2026-04-18T07:53:40Z</time></trkpt><trkpt lat="44.45570715843327" lon="9.254311893820162"><ele>476.0</ele><time>2026-04-18T07:53:41Z</time></trkpt><trkpt lat="44.45578434861904" lon="9.254251870096006"><ele>476.0</ele><time>2026-04-18T07:53:42Z</time></trkpt><trkpt lat="44.45588788404114" lon="9.254290032591902"><ele>476.0</ele><time>2026-04-18T07:53:43Z</time></trkpt><trkpt lat="44.456002340053054" lon="9.254269368782298"><ele>476.0</ele><time>2026-04-18T07:53:44Z</time></trkpt><trkpt lat="44.456123908135275" lon="9.254235639047295"><ele>476.0</ele><time>2026-04-18T07:53:45Z</time></trkpt><trkpt lat="44.45624721840187" lon="9.2541520476574"><ele>478.66666666666663</ele><time>2026-04-18T07:53:46Z</time></trkpt><trkpt lat="44.456379280211486" lon="9.25404079724319"><ele>481.33333333333337</ele><time>2026-04-18T07:53:47Z</time></trkpt><trkpt lat="44.456520478160904" lon="9.253876177104726"><ele>484.0</ele><time>2026-04-18T07:53:48Z</time></trkpt><trkpt lat="44.45665545282701" lon="9.253721227927604"><ele>484.0</ele><time>2026-04-18T07:53:49Z</time></trkpt><trkpt lat="44.456762596692904" lon="9.253599846541235"><ele>484.0</ele><time>2026-04-18T07:53:50Z</time></trkpt><trkpt lat="44.456843605049" lon="9.253489790164242"><ele>484.0</ele><time>2026-04-18T07:53:51Z</time></trkpt><trkpt lat="44.45690745477357" lon="9.253339802090139"><ele>484.0</ele><time>2026-04-18T07:53:52Z</time></trkpt><trkpt lat="44.45693802491978" lon="9.253154876033364"><ele>485.4</ele><time>2026-04-18T07:53:53Z</time></trkpt><trkpt lat="44.45695626021634" lon="9.253010438128381"><ele>486.79999999999995</ele><time>2026-04-18T07:53:54Z</time></trkpt><trkpt lat="44.45701608999336" lon="9.252907726958574"><ele>488.20000000000005</ele><time>2026-04-18T07:53:55Z</time></trkpt><trkpt lat="44.457134020766276" lon="9.252886301404113"><ele>489.6</ele><time>2026-04-18T07:53:56Z</time></trkpt><trkpt lat="44.45725625526117" lon="9.252859420326121"><ele>491.0</ele><time>2026-04-18T07:53:57Z</time></trkpt><trkpt lat="44.45734966565816" lon="9.252776657331275"><ele>491.0</ele><time>2026-04-18T07:53:58Z</time></trkpt><trkpt lat="44.457433805089494" lon="9.252651065258227"><ele>491.0</ele><time>2026-04-18T07:53:59Z</time></trkpt><trkpt lat="44.45750621799506" lon="9.252509246708227"><ele>491.0</ele><time>2026-04-18T07:54:00Z</time></trkpt><trkpt lat="44.45758106346141" lon="9.252429393355117"><ele>491.0</ele><time>2026-04-18T07:54:01Z</time></trkpt><trkpt lat="44.45766960616017" lon="9.2523971572651"><ele>491.0</ele><time>2026-04-18T07:54:01.999Z</time></trkpt><trkpt lat="44.45775864057981" lon="9.252463609704824"><ele>491.0</ele><time>2026-04-18T07:54:02.999Z</time></trkpt><trkpt lat="44.457816277601964" lon="9.252592131742396"><ele>491.0</ele><time>2026-04-18T07:54:03.999Z</time></trkpt><trkpt lat="44.457898262745076" lon="9.252695616548312"><ele>491.0</ele><time>2026-04-18T07:54:04.999Z</time></trkpt><trkpt lat="44.458003908666626" lon="9.252776384729549"><ele>491.0</ele><time>2026-04-18T07:54:05.999Z</time></trkpt><trkpt lat="44.45815863225757" lon="9.252819693954939"><ele>494.3333333333333</ele><time>2026-04-18T07:54:06.999Z</time></trkpt><trkpt lat="44.458346657675705" lon="9.25286683264554"><ele>497.66666666666663</ele><time>2026-04-18T07:54:07.999Z</time></trkpt><trkpt lat="44.458570535992465" lon="9.252923899274284"><ele>501.0</ele><time>2026-04-18T07:54:08.999Z</time></trkpt><trkpt lat="44.458771964120984" lon="9.25297611620748"><ele>503.5</ele><time>2026-04-18T07:54:09.999Z</time></trkpt><trkpt lat="44.458932254519155" lon="9.253010702997859"><ele>506.0</ele><time>2026-04-18T07:54:10.999Z</time></trkpt><trkpt lat="44.459081034287145" lon="9.253043809866844"><ele>508.5</ele><time>2026-04-18T07:54:11.999Z</time></trkpt><trkpt lat="44.45919705161567" lon="9.253052966988433"><ele>511.0</ele><time>2026-04-18T07:54:12.999Z</time></trkpt><trkpt lat="44.459305492913785" lon="9.253037256714173"><ele>511.0</ele><time>2026-04-18T07:54:13.999Z</time></trkpt><trkpt lat="44.45941440047496" lon="9.252963058549826"><ele>511.0</ele><time>2026-04-18T07:54:14.999Z</time></trkpt><trkpt lat="44.45951852242737" lon="9.252836068431222"><ele>511.0</ele><time>2026-04-18T07:54:15.999Z</time></trkpt><trkpt lat="44.45962951547307" lon="9.252655270618831"><ele>511.0</ele><time>2026-04-18T07:54:16.999Z</time></trkpt><trkpt lat="44.45972395017018" lon="9.252460883337982"><ele>512.6666666666667</ele><time>2026-04-18T07:54:17.999Z</time></trkpt><trkpt lat="44.45980547874425" lon="9.252241911763328"><ele>514.3333333333334</ele><time>2026-04-18T07:54:18.999Z</time></trkpt><trkpt lat="44.45988554075969" lon="9.251994761717826"><ele>516.0</ele><time>2026-04-18T07:54:19.999Z</time></trkpt><trkpt lat="44.459987499893366" lon="9.251759844595604"><ele>516.0</ele><time>2026-04-18T07:54:20.999Z</time></trkpt><trkpt lat="44.46007218941275" lon="9.251573227289075"><ele>516.0</ele><time>2026-04-18T07:54:21.999Z</time></trkpt><trkpt lat="44.46018839320426" lon="9.251420297016185"><ele>516.0</ele><time>2026-04-18T07:54:22.999Z</time></trkpt><trkpt lat="44.46033840641787" lon="9.251242599761445"><ele>516.3333333333334</ele><time>2026-04-18T07:54:23.999Z</time></trkpt><trkpt lat="44.46047867089212" lon="9.251077844818285"><ele>516.6666666666667</ele><time>2026-04-18T07:54:24.999Z</time></trkpt><trkpt lat="44.46058439518263" lon="9.250927478631455"><ele>517.0</ele><time>2026-04-18T07:54:25.999Z</time></trkpt><trkpt lat="44.46067326815103" lon="9.250810286089992"><ele>517.0</ele><time>2026-04-18T07:54:26.999Z</time></trkpt><trkpt lat="44.46074012210073" lon="9.250695679694026"><ele>517.0</ele><time>2026-04-18T07:54:27.999Z</time></trkpt><trkpt lat="44.46077607435797" lon="9.25059024235318"><ele>517.0</ele><time>2026-04-18T07:54:28.999Z</time></trkpt><trkpt lat="44.46080106835924" lon="9.250504684824955"><ele>517.0</ele><time>2026-04-18T07:54:29.999Z</time></trkpt><trkpt lat="44.46075590947823" lon="9.2503901306924"><ele>517.0</ele><time>2026-04-18T07:54:30.999Z</time></trkpt><trkpt lat="44.4606787110687" lon="9.250325359950489"><ele>517.0</ele><time>2026-04-18T07:54:31.999Z</time></trkpt><trkpt lat="44.46057548146486" lon="9.250360347497415"><ele>522.25</ele><time>2026-04-18T07:54:32.999Z</time></trkpt><trkpt lat="44.46049214606894" lon="9.250445723616975"><ele>527.5</ele><time>2026-04-18T07:54:33.999Z</time></trkpt><trkpt lat="44.4604322938024" lon="9.250594505665227"><ele>532.75</ele><time>2026-04-18T07:54:34.999Z</time></trkpt><trkpt lat="44.460370363717395" lon="9.250781643183238"><ele>538.0</ele><time>2026-04-18T07:54:35.999Z</time></trkpt><trkpt lat="44.46027986245411" lon="9.250887056329391"><ele>539.3333333333334</ele><time>2026-04-18T07:54:36.999Z</time></trkpt><trkpt lat="44.460168456915426" lon="9.250949974612853"><ele>540.6666666666666</ele><time>2026-04-18T07:54:37.999Z</time></trkpt><trkpt lat="44.460019349743334" lon="9.250993830093973"><ele>542.0</ele><time>2026-04-18T07:54:38.999Z</time></trkpt><trkpt lat="44.4598454336363" lon="9.251055848501252"><ele>542.0</ele><time>2026-04-18T07:54:39.999Z</time></trkpt><trkpt lat="44.45966312647343" lon="9.251129922635906"><ele>542.0</ele><time>2026-04-18T07:54:40.999Z</time></trkpt><trkpt lat="44.45949341234927" lon="9.251235054931213"><ele>542.0</ele><time>2026-04-18T07:54:41.999Z</time></trkpt><trkpt lat="44.45935796526447" lon="9.251340014380663"><ele>544.0</ele><time>2026-04-18T07:54:42.999Z</time></trkpt><trkpt lat="44.45926166943983" lon="9.251448549833036"><ele>546.0</ele><time>2026-04-18T07:54:43.999Z</time></trkpt><trkpt lat="44.45914437530779" lon="9.251503955613824"><ele>548.0</ele><time>2026-04-18T07:54:44.999Z</time></trkpt><trkpt lat="44.45903000710114" lon="9.251525756048425"><ele>550.0</ele><time>2026-04-18T07:54:45.999Z</time></trkpt><trkpt lat="44.458873968347724" lon="9.25148104003867"><ele>550.0</ele><time>2026-04-18T07:54:46.999Z</time></trkpt><trkpt lat="44.45870480799572" lon="9.251424487005949"><ele>550.0</ele><time>2026-04-18T07:54:47.999Z</time></trkpt><trkpt lat="44.45852226628139" lon="9.25134973924623"><ele>550.0</ele><time>2026-04-18T07:54:48.999Z</time></trkpt><trkpt lat="44.45834672242395" lon="9.251273497271688"><ele>550.0</ele><time>2026-04-18T07:54:49.999Z</time></trkpt><trkpt lat="44.458183926591936" lon="9.251177057195626"><ele>550.0</ele><time>2026-04-18T07:54:50.999Z</time></trkpt><trkpt lat="44.458057112980306" lon="9.251087610298528"><ele>550.0</ele><time>2026-04-18T07:54:51.999Z</time></trkpt><trkpt lat="44.45794793093168" lon="9.251029907450333"><ele>550.0</ele><time>2026-04-18T07:54:52.999Z</time></trkpt><trkpt lat="44.457848777468456" lon="9.250981083200719"><ele>548.0</ele><time>2026-04-18T07:54:53.999Z</time></trkpt><trkpt lat="44.457776941303834" lon="9.250912214934445"><ele>546.0</ele><time>2026-04-18T07:54:54.999Z</time></trkpt><trkpt lat="44.45772378984354" lon="9.250808787908586"><ele>544.0</ele><time>2026-04-18T07:54:55.999Z</time></trkpt><trkpt lat="44.45772429383233" lon="9.250677539392358"><ele>542.0</ele><time>2026-04-18T07:54:56.999Z</time></trkpt><trkpt lat="44.457775563544146" lon="9.250581091849202"><ele>540.0</ele><time>2026-04-18T07:54:57.999Z</time></trkpt><trkpt lat="44.457867086222066" lon="9.250546782037079"><ele>542.5</ele><time>2026-04-18T07:54:58.999Z</time></trkpt><trkpt lat="44.45796422952769" lon="9.250635108965811"><ele>545.0</ele><time>2026-04-18T07:55:00Z</time></trkpt><trkpt lat="44.458078284132704" lon="9.25072194867358"><ele>547.5</ele><time>2026-04-18T07:55:01Z</time></trkpt><trkpt lat="44.458208931684624" lon="9.250789677907754"><ele>550.0</ele><time>2026-04-18T07:55:02Z</time></trkpt><trkpt lat="44.45831340772938" lon="9.25087424520149"><ele>550.0</ele><time>2026-04-18T07:55:03Z</time></trkpt><trkpt lat="44.458453705321354" lon="9.250874451076275"><ele>550.0</ele><time>2026-04-18T07:55:04Z</time></trkpt><trkpt lat="44.45859706999917" lon="9.250876523744816"><ele>550.0</ele><time>2026-04-18T07:55:05Z</time></trkpt><trkpt lat="44.45870743510358" lon="9.250891219647286"><ele>550.0</ele><time>2026-04-18T07:55:06Z</time></trkpt><trkpt lat="44.458792999758" lon="9.250855019864167"><ele>550.0</ele><time>2026-04-18T07:55:07Z</time></trkpt><trkpt lat="44.458854866291844" lon="9.25074862518841"><ele>550.0</ele><time>2026-04-18T07:55:08Z</time></trkpt><trkpt lat="44.45885203702086" lon="9.25062018568449"><ele>550.0</ele><time>2026-04-18T07:55:09Z</time></trkpt><trkpt lat="44.45882491986543" lon="9.250505867663689"><ele>550.0</ele><time>2026-04-18T07:55:10Z</time></trkpt><trkpt lat="44.45875866196824" lon="9.250429653348919"><ele>550.0</ele><time>2026-04-18T07:55:11Z</time></trkpt><trkpt lat="44.45865425082488" lon="9.250409780104034"><ele>556.6666666666667</ele><time>2026-04-18T07:55:12Z</time></trkpt><trkpt lat="44.458531034787086" lon="9.250361361072647"><ele>563.3333333333334</ele><time>2026-04-18T07:55:13Z</time></trkpt><trkpt lat="44.45837315599895" lon="9.250314997583784"><ele>570.0</ele><time>2026-04-18T07:55:14Z</time></trkpt><trkpt lat="44.45820204230808" lon="9.250230765071185"><ele>570.0</ele><time>2026-04-18T07:55:15Z</time></trkpt><trkpt lat="44.45804042582713" lon="9.250154915250459"><ele>570.0</ele><time>2026-04-18T07:55:16Z</time></trkpt><trkpt lat="44.45785060252268" lon="9.250094781820495"><ele>570.0</ele><time>2026-04-18T07:55:17Z</time></trkpt><trkpt lat="44.457634688835896" lon="9.250026556207134"><ele>568.0</ele><time>2026-04-18T07:55:18Z</time></trkpt><trkpt lat="44.457405917414945" lon="9.249962483355658"><ele>566.0</ele><time>2026-04-18T07:55:19Z</time></trkpt><trkpt lat="44.45721807581743" lon="9.249873259930583"><ele>564.0</ele><time>2026-04-18T07:55:20Z</time></trkpt><trkpt lat="44.4570574573305" lon="9.249767960908237"><ele>575.0</ele><time>2026-04-18T07:55:21Z</time></trkpt><trkpt lat="44.45687871711146" lon="9.249728993274363"><ele>586.0</ele><time>2026-04-18T07:55:22Z</time></trkpt><trkpt lat="44.456691649293596" lon="9.249704116451387"><ele>597.0</ele><time>2026-04-18T07:55:23Z</time></trkpt><trkpt lat="44.45650654367253" lon="9.249695765555842"><ele>597.0</ele><time>2026-04-18T07:55:24Z</time></trkpt><trkpt lat="44.45636534605676" lon="9.249669592913662"><ele>597.0</ele><time>2026-04-18T07:55:25Z</time></trkpt><trkpt lat="44.4562163096939" lon="9.249700396375163"><ele>597.0</ele><time>2026-04-18T07:55:26Z</time></trkpt><trkpt lat="44.45604535064591" lon="9.249795051234527"><ele>590.3333333333334</ele><time>2026-04-18T07:55:27Z</time></trkpt><trkpt lat="44.455889243291345" lon="9.249936157001168"><ele>583.6666666666667</ele><time>2026-04-18T07:55:28Z</time></trkpt><trkpt lat="44.45571817941327" lon="9.249994430347405"><ele>577.0</ele><time>2026-04-18T07:55:29Z</time></trkpt><trkpt lat="44.455524953416464" lon="9.250046679345248"><ele>583.0</ele><time>2026-04-18T07:55:30Z</time></trkpt><trkpt lat="44.45534024122042" lon="9.250115137832273"><ele>589.0</ele><time>2026-04-18T07:55:31Z</time></trkpt><trkpt lat="44.455212151219506" lon="9.250131398780972"><ele>595.0</ele><time>2026-04-18T07:55:32Z</time></trkpt><trkpt lat="44.455093822535126" lon="9.250181362095615"><ele>601.0</ele><time>2026-04-18T07:55:33Z</time></trkpt><trkpt lat="44.45494647731314" lon="9.250296521342603"><ele>601.0</ele><time>2026-04-18T07:55:34Z</time></trkpt><trkpt lat="44.454794166142946" lon="9.25048524016838"><ele>601.0</ele><time>2026-04-18T07:55:35Z</time></trkpt><trkpt lat="44.45464839089329" lon="9.25065139521358"><ele>601.0</ele><time>2026-04-18T07:55:36Z</time></trkpt><trkpt lat="44.454489578250694" lon="9.250782201951631"><ele>600.0</ele><time>2026-04-18T07:55:37Z</time></trkpt><trkpt lat="44.45434867795564" lon="9.25090547106222"><ele>599.0</ele><time>2026-04-18T07:55:38Z</time></trkpt><trkpt lat="44.454247624814286" lon="9.251015468515126"><ele>598.0</ele><time>2026-04-18T07:55:39Z</time></trkpt><trkpt lat="44.45415484107983" lon="9.251061346991603"><ele>597.0</ele><time>2026-04-18T07:55:40Z</time></trkpt><trkpt lat="44.454027378112826" lon="9.251067241594278"><ele>597.0</ele><time>2026-04-18T07:55:42Z</time></trkpt><trkpt lat="44.453976122363244" lon="9.250951003204419"><ele>597.0</ele><time>2026-04-18T07:55:43Z</time></trkpt><trkpt lat="44.45398423435207" lon="9.250804476597786"><ele>597.0</ele><time>2026-04-18T07:55:44Z</time></trkpt><trkpt lat="44.45406060622583" lon="9.250698450213111"><ele>597.0</ele><time>2026-04-18T07:55:45Z</time></trkpt><trkpt lat="44.45416629481518" lon="9.250608795251937"><ele>597.0</ele><time>2026-04-18T07:55:46Z</time></trkpt><trkpt lat="44.45430586490256" lon="9.250476090821037"><ele>598.3333333333334</ele><time>2026-04-18T07:55:47Z</time></trkpt><trkpt lat="44.45447053105424" lon="9.250314426884879"><ele>599.6666666666667</ele><time>2026-04-18T07:55:48Z</time></trkpt><trkpt lat="44.45465108790267" lon="9.250146490187571"><ele>601.0</ele><time>2026-04-18T07:55:49Z</time></trkpt><trkpt lat="44.45482791169891" lon="9.249976038270571"><ele>601.0</ele><time>2026-04-18T07:55:50Z</time></trkpt><trkpt lat="44.45498891715905" lon="9.249833552633369"><ele>601.0</ele><time>2026-04-18T07:55:51Z</time></trkpt><trkpt lat="44.4551594999812" lon="9.249708905058974"><ele>601.0</ele><time>2026-04-18T07:55:52Z</time></trkpt><trkpt lat="44.45532846151932" lon="9.249602772516342"><ele>604.0</ele><time>2026-04-18T07:55:53Z</time></trkpt><trkpt lat="44.45548059128334" lon="9.249489596346539"><ele>607.0</ele><time>2026-04-18T07:55:54Z</time></trkpt><trkpt lat="44.45564816713837" lon="9.249323820134453"><ele>610.0</ele><time>2026-04-18T07:55:55Z</time></trkpt><trkpt lat="44.455823817174206" lon="9.249134157644905"><ele>616.3333333333334</ele><time>2026-04-18T07:55:56Z</time></trkpt><trkpt lat="44.45599875261753" lon="9.24894938719866"><ele>622.6666666666666</ele><time>2026-04-18T07:55:57Z</time></trkpt><trkpt lat="44.456143991372976" lon="9.248785670260181"><ele>629.0</ele><time>2026-04-18T07:55:58Z</time></trkpt><trkpt lat="44.45629132765929" lon="9.24861440853284"><ele>629.0</ele><time>2026-04-18T07:55:59Z</time></trkpt><trkpt lat="44.45645652549858" lon="9.248458429763925"><ele>629.0</ele><time>2026-04-18T07:56:00Z</time></trkpt><trkpt lat="44.45664710236329" lon="9.248328839566888"><ele>629.0</ele><time>2026-04-18T07:56:01Z</time></trkpt><trkpt lat="44.45685022899008" lon="9.248201046507443"><ele>637.6666666666666</ele><time>2026-04-18T07:56:02Z</time></trkpt><trkpt lat="44.45706823283107" lon="9.248059986740206"><ele>646.3333333333334</ele><time>2026-04-18T07:56:03Z</time></trkpt><trkpt lat="44.45725230550722" lon="9.24793361636821"><ele>655.0</ele><time>2026-04-18T07:56:04Z</time></trkpt><trkpt lat="44.45741393973841" lon="9.247825844048787"><ele>656.3333333333334</ele><time>2026-04-18T07:56:05Z</time></trkpt><trkpt lat="44.45758156320095" lon="9.247749882547817"><ele>657.6666666666666</ele><time>2026-04-18T07:56:06Z</time></trkpt><trkpt lat="44.45776014164109" lon="9.247728041704944"><ele>659.0</ele><time>2026-04-18T07:56:07Z</time></trkpt><trkpt lat="44.45793486248679" lon="9.247754361105244"><ele>659.0</ele><time>2026-04-18T07:56:08Z</time></trkpt><trkpt lat="44.458079673024" lon="9.247767185205406"><ele>659.0</ele><time>2026-04-18T07:56:09Z</time></trkpt><trkpt lat="44.45819814150516" lon="9.247777918656785"><ele>659.0</ele><time>2026-04-18T07:56:09.999Z</time></trkpt><trkpt lat="44.45829096788747" lon="9.24778204275411"><ele>659.0</ele><time>2026-04-18T07:56:10.999Z</time></trkpt><trkpt lat="44.45837891777655" lon="9.247759516725527"><ele>659.0</ele><time>2026-04-18T07:56:11.999Z</time></trkpt><trkpt lat="44.45842273379085" lon="9.2476495003328"><ele>659.0</ele><time>2026-04-18T07:56:12.999Z</time></trkpt><trkpt lat="44.458387461645586" lon="9.247516933823855"><ele>659.0</ele><time>2026-04-18T07:56:13.999Z</time></trkpt><trkpt lat="44.45832429472163" lon="9.247432941424853"><ele>659.0</ele><time>2026-04-18T07:56:14.999Z</time></trkpt><trkpt lat="44.45820726018458" lon="9.24737887893923"><ele>659.0</ele><time>2026-04-18T07:56:15.999Z</time></trkpt><trkpt lat="44.458059500694354" lon="9.247330817211019"><ele>663.3333333333333</ele><time>2026-04-18T07:56:16.999Z</time></trkpt><trkpt lat="44.45788495748984" lon="9.24728446097562"><ele>667.6666666666666</ele><time>2026-04-18T07:56:17.999Z</time></trkpt><trkpt lat="44.457703127557814" lon="9.247252229646463"><ele>672.0</ele><time>2026-04-18T07:56:18.999Z</time></trkpt><trkpt lat="44.45750099796483" lon="9.247235806999935"><ele>672.0</ele><time>2026-04-18T07:56:19.999Z</time></trkpt><trkpt lat="44.45729914244627" lon="9.247234299096228"><ele>672.0</ele><time>2026-04-18T07:56:20.999Z</time></trkpt><trkpt lat="44.45711762065491" lon="9.247196136805789"><ele>672.0</ele><time>2026-04-18T07:56:21.999Z</time></trkpt><trkpt lat="44.45694322434476" lon="9.247137259281457"><ele>672.0</ele><time>2026-04-18T07:56:22.999Z</time></trkpt><trkpt lat="44.456790367455476" lon="9.247103330815161"><ele>672.0</ele><time>2026-04-18T07:56:23.999Z</time></trkpt><trkpt lat="44.45665036287946" lon="9.247104020826077"><ele>672.0</ele><time>2026-04-18T07:56:24.999Z</time></trkpt><trkpt lat="44.456506594283766" lon="9.24713378282969"><ele>672.0</ele><time>2026-04-18T07:56:25.999Z</time></trkpt><trkpt lat="44.45640118148125" lon="9.247177570292974"><ele>672.0</ele><time>2026-04-18T07:56:26.999Z</time></trkpt><trkpt lat="44.456321467161544" lon="9.247211896534363"><ele>672.0</ele><time>2026-04-18T07:56:27.999Z</time></trkpt><trkpt lat="44.456259279858635" lon="9.24718013392177"><ele>672.0</ele><time>2026-04-18T07:56:28.999Z</time></trkpt><trkpt lat="44.45621529800427" lon="9.247069180656965"><ele>672.0</ele><time>2026-04-18T07:56:29.999Z</time></trkpt><trkpt lat="44.4562368893952" lon="9.246919830437134"><ele>672.0</ele><time>2026-04-18T07:56:30.999Z</time></trkpt><trkpt lat="44.456344584684814" lon="9.2468395901057"><ele>672.0</ele><time>2026-04-18T07:56:31.999Z</time></trkpt><trkpt lat="44.45647378115385" lon="9.246719789405834"><ele>672.0</ele><time>2026-04-18T07:56:32.999Z</time></trkpt><trkpt lat="44.45663073756787" lon="9.246590375214605"><ele>672.0</ele><time>2026-04-18T07:56:33.999Z</time></trkpt><trkpt lat="44.45679261362628" lon="9.246464767422706"><ele>672.0</ele><time>2026-04-18T07:56:34.999Z</time></trkpt><trkpt lat="44.45670217144145" lon="9.246534429745857"><ele>672.0</ele><time>2026-04-18T07:56:35.999Z</time></trkpt><trkpt lat="44.45688203861994" lon="9.24639856939623"><ele>672.0</ele><time>2026-04-18T07:56:36.999Z</time></trkpt><trkpt lat="44.45705575951556" lon="9.246254268103518"><ele>680.3333333333334</ele><time>2026-04-18T07:56:37.999Z</time></trkpt><trkpt lat="44.457265961030345" lon="9.246195285716976"><ele>688.6666666666667</ele><time>2026-04-18T07:56:38.999Z</time></trkpt><trkpt lat="44.457470626747565" lon="9.246141228509453"><ele>697.0</ele><time>2026-04-18T07:56:39.999Z</time></trkpt><trkpt lat="44.45767272572441" lon="9.246092433755445"><ele>697.0</ele><time>2026-04-18T07:56:40.999Z</time></trkpt><trkpt lat="44.45782014978447" lon="9.246054975141865"><ele>697.0</ele><time>2026-04-18T07:56:41.999Z</time></trkpt><trkpt lat="44.45796747189021" lon="9.246046442596809"><ele>697.0</ele><time>2026-04-18T07:56:42.999Z</time></trkpt><trkpt lat="44.45809043219625" lon="9.246095852520613"><ele>697.0</ele><time>2026-04-18T07:56:43.999Z</time></trkpt><trkpt lat="44.45818940075782" lon="9.246190079977913"><ele>692.0</ele><time>2026-04-18T07:56:44.999Z</time></trkpt><trkpt lat="44.458323901301654" lon="9.246324691648182"><ele>687.0</ele><time>2026-04-18T07:56:45.999Z</time></trkpt><trkpt lat="44.45846592854566" lon="9.246466407003282"><ele>682.0</ele><time>2026-04-18T07:56:46.999Z</time></trkpt><trkpt lat="44.45858213941219" lon="9.246575609068325"><ele>682.0</ele><time>2026-04-18T07:56:47.999Z</time></trkpt><trkpt lat="44.458727433583704" lon="9.246671765474948"><ele>682.0</ele><time>2026-04-18T07:56:48.999Z</time></trkpt><trkpt lat="44.458901547568004" lon="9.246756909202512"><ele>682.0</ele><time>2026-04-18T07:56:49.999Z</time></trkpt><trkpt lat="44.459035382697365" lon="9.246819773985237"><ele>686.2</ele><time>2026-04-18T07:56:50.999Z</time></trkpt><trkpt lat="44.45914584754067" lon="9.246871545202128"><ele>690.4000000000001</ele><time>2026-04-18T07:56:51.999Z</time></trkpt><trkpt lat="44.45924395662949" lon="9.2469018572785"><ele>694.5999999999999</ele><time>2026-04-18T07:56:52.999Z</time></trkpt><trkpt lat="44.459333941929884" lon="9.246945707449193"><ele>698.8</ele><time>2026-04-18T07:56:53.999Z</time></trkpt><trkpt lat="44.45942681824166" lon="9.246926196905388"><ele>703.0</ele><time>2026-04-18T07:56:54.999Z</time></trkpt><trkpt lat="44.459524833129265" lon="9.246890141903007"><ele>702.4</ele><time>2026-04-18T07:56:55.999Z</time></trkpt><trkpt lat="44.45962748066759" lon="9.24681090521536"><ele>701.8</ele><time>2026-04-18T07:56:56.999Z</time></trkpt><trkpt lat="44.459704778972274" lon="9.24672728714687"><ele>701.2</ele><time>2026-04-18T07:56:57.999Z</time></trkpt><trkpt lat="44.4597543985443" lon="9.246617295753309"><ele>700.6</ele><time>2026-04-18T07:56:58.999Z</time></trkpt><trkpt lat="44.45978870077833" lon="9.246479597940338"><ele>700.0</ele><time>2026-04-18T07:56:59.999Z</time></trkpt><trkpt lat="44.459801356106325" lon="9.246348379866005"><ele>704.75</ele><time>2026-04-18T07:57:00.999Z</time></trkpt><trkpt lat="44.45982617695135" lon="9.246206872678778"><ele>709.5</ele><time>2026-04-18T07:57:01.999Z</time></trkpt><trkpt lat="44.45990149188042" lon="9.246095064798673"><ele>714.25</ele><time>2026-04-18T07:57:02.999Z</time></trkpt><trkpt lat="44.45999075137868" lon="9.246006764337128"><ele>719.0</ele><time>2026-04-18T07:57:03.999Z</time></trkpt><trkpt lat="44.46010393373678" lon="9.24589635061707"><ele>719.0</ele><time>2026-04-18T07:57:04.999Z</time></trkpt><trkpt lat="44.46024020160583" lon="9.24576600953142"><ele>719.0</ele><time>2026-04-18T07:57:06Z</time></trkpt><trkpt lat="44.460401821246656" lon="9.245611419331386"><ele>719.0</ele><time>2026-04-18T07:57:07Z</time></trkpt><trkpt lat="44.46055289878399" lon="9.245445630264195"><ele>722.3333333333333</ele><time>2026-04-18T07:57:08Z</time></trkpt><trkpt lat="44.46070436666391" lon="9.245300336333093"><ele>725.6666666666666</ele><time>2026-04-18T07:57:09Z</time></trkpt><trkpt lat="44.46085687590571" lon="9.245122783445284"><ele>729.0</ele><time>2026-04-18T07:57:10Z</time></trkpt><trkpt lat="44.460985242553676" lon="9.244914023046888"><ele>734.0</ele><time>2026-04-18T07:57:11Z</time></trkpt><trkpt lat="44.46108207839323" lon="9.244750927540847"><ele>739.0</ele><time>2026-04-18T07:57:12Z</time></trkpt><trkpt lat="44.46116794307613" lon="9.244626956432327"><ele>744.0</ele><time>2026-04-18T07:57:13Z</time></trkpt><trkpt lat="44.46121636856795" lon="9.244546211358646"><ele>749.0</ele><time>2026-04-18T07:57:14Z</time></trkpt><trkpt lat="44.46118380044949" lon="9.24446457380597"><ele>754.0</ele><time>2026-04-18T07:57:15Z</time></trkpt><trkpt lat="44.461135117397895" lon="9.24440675572902"><ele>754.0</ele><time>2026-04-18T07:57:16Z</time></trkpt><trkpt lat="44.4610534519716" lon="9.244379605540884"><ele>754.0</ele><time>2026-04-18T07:57:17Z</time></trkpt><trkpt lat="44.46096123897802" lon="9.2444626669805"><ele>754.0</ele><time>2026-04-18T07:57:18Z</time></trkpt><trkpt lat="44.460878892557474" lon="9.244603818930406"><ele>754.0</ele><time>2026-04-18T07:57:19Z</time></trkpt><trkpt lat="44.46077825297125" lon="9.244750468841033"><ele>751.6666666666667</ele><time>2026-04-18T07:57:20Z</time></trkpt><trkpt lat="44.46067222856603" lon="9.24487313871653"><ele>749.3333333333334</ele><time>2026-04-18T07:57:21Z</time></trkpt><trkpt lat="44.46050848277452" lon="9.245010167921277"><ele>747.0</ele><time>2026-04-18T07:57:22Z</time></trkpt><trkpt lat="44.4603245461095" lon="9.245128887005812"><ele>747.0</ele><time>2026-04-18T07:57:23Z</time></trkpt><trkpt lat="44.46014846826348" lon="9.245233039242612"><ele>747.0</ele><time>2026-04-18T07:57:24Z</time></trkpt><trkpt lat="44.4599650314112" lon="9.245315676144754"><ele>747.0</ele><time>2026-04-18T07:57:25Z</time></trkpt><trkpt lat="44.459755833122195" lon="9.245355704092171"><ele>751.3333333333334</ele><time>2026-04-18T07:57:26Z</time></trkpt><trkpt lat="44.45955150924371" lon="9.245411227362457"><ele>755.6666666666667</ele><time>2026-04-18T07:57:27Z</time></trkpt><trkpt lat="44.459385811631414" lon="9.245392289474351"><ele>760.0</ele><time>2026-04-18T07:57:28Z</time></trkpt><trkpt lat="44.45925239537182" lon="9.245490518308662"><ele>760.0</ele><time>2026-04-18T07:57:29Z</time></trkpt><trkpt lat="44.459145342267306" lon="9.245547966389786"><ele>760.0</ele><time>2026-04-18T07:57:30Z</time></trkpt><trkpt lat="44.45906018715234" lon="9.245557070174744"><ele>760.0</ele><time>2026-04-18T07:57:31Z</time></trkpt><trkpt lat="44.45899395904848" lon="9.245403480937586"><ele>760.0</ele><time>2026-04-18T07:57:33Z</time></trkpt><trkpt lat="44.45902120704566" lon="9.245298075795295"><ele>760.0</ele><time>2026-04-18T07:57:34Z</time></trkpt><trkpt lat="44.459118922378416" lon="9.245247158351003"><ele>760.0</ele><time>2026-04-18T07:57:35Z</time></trkpt><trkpt lat="44.45923321052344" lon="9.245148926913288"><ele>760.0</ele><time>2026-04-18T07:57:36Z</time></trkpt><trkpt lat="44.45936152592377" lon="9.244978643342456"><ele>760.0</ele><time>2026-04-18T07:57:37Z</time></trkpt><trkpt lat="44.45949439455482" lon="9.244781841665391"><ele>762.0</ele><time>2026-04-18T07:57:38Z</time></trkpt><trkpt lat="44.459625107032124" lon="9.244542579435548"><ele>764.0</ele><time>2026-04-18T07:57:39Z</time></trkpt><trkpt lat="44.459775961410514" lon="9.244291944701367"><ele>766.0</ele><time>2026-04-18T07:57:40Z</time></trkpt><trkpt lat="44.459944822040825" lon="9.244100169461278"><ele>777.6666666666667</ele><time>2026-04-18T07:57:41Z</time></trkpt><trkpt lat="44.460100985041" lon="9.2439393579664"><ele>789.3333333333334</ele><time>2026-04-18T07:57:42Z</time></trkpt><trkpt lat="44.460252472356004" lon="9.243755602139634"><ele>801.0</ele><time>2026-04-18T07:57:43Z</time></trkpt><trkpt lat="44.46039990875525" lon="9.243621369624544"><ele>796.0</ele><time>2026-04-18T07:57:44Z</time></trkpt><trkpt lat="44.460550031561155" lon="9.243566051551332"><ele>791.0</ele><time>2026-04-18T07:57:45Z</time></trkpt><trkpt lat="44.460722648157436" lon="9.243530780452456"><ele>786.0</ele><time>2026-04-18T07:57:46Z</time></trkpt><trkpt lat="44.4608857966172" lon="9.243512538911652"><ele>786.0</ele><time>2026-04-18T07:57:47Z</time></trkpt><trkpt lat="44.46101301014072" lon="9.243455552396457"><ele>786.0</ele><time>2026-04-18T07:57:48Z</time></trkpt><trkpt lat="44.46112511664791" lon="9.243381897288186"><ele>786.0</ele><time>2026-04-18T07:57:49Z</time></trkpt><trkpt lat="44.461232517181266" lon="9.243238671308273"><ele>786.0</ele><time>2026-04-18T07:57:50Z</time></trkpt><trkpt lat="44.461326544768525" lon="9.243067930506001"><ele>793.5</ele><time>2026-04-18T07:57:51Z</time></trkpt><trkpt lat="44.46140830388182" lon="9.242940606498154"><ele>801.0</ele><time>2026-04-18T07:57:52Z</time></trkpt><trkpt lat="44.461509220281215" lon="9.242855903400995"><ele>808.5</ele><time>2026-04-18T07:57:53Z</time></trkpt><trkpt lat="44.4616364149355" lon="9.242850110078315"><ele>816.0</ele><time>2026-04-18T07:57:54Z</time></trkpt><trkpt lat="44.46178333660784" lon="9.242886378102511"><ele>816.0</ele><time>2026-04-18T07:57:55Z</time></trkpt><trkpt lat="44.461946374904116" lon="9.242930444468005"><ele>816.0</ele><time>2026-04-18T07:57:56Z</time></trkpt><trkpt lat="44.46208808144766" lon="9.242927510863534"><ele>816.0</ele><time>2026-04-18T07:57:57Z</time></trkpt><trkpt lat="44.46221738509937" lon="9.242872459143095"><ele>816.0</ele><time>2026-04-18T07:57:58Z</time></trkpt><trkpt lat="44.462368249928254" lon="9.242761470275862"><ele>812.3333333333333</ele><time>2026-04-18T07:57:59Z</time></trkpt><trkpt lat="44.46252823387541" lon="9.24259234895978"><ele>808.6666666666666</ele><time>2026-04-18T07:58:00Z</time></trkpt><trkpt lat="44.46272955545407" lon="9.242442341081"><ele>805.0</ele><time>2026-04-18T07:58:01Z</time></trkpt><trkpt lat="44.46290308706142" lon="9.242264943766633"><ele>812.75</ele><time>2026-04-18T07:58:02Z</time></trkpt><trkpt lat="44.46304751113646" lon="9.242161947967608"><ele>820.5</ele><time>2026-04-18T07:58:03Z</time></trkpt><trkpt lat="44.46316873393318" lon="9.242065528897214"><ele>828.25</ele><time>2026-04-18T07:58:04Z</time></trkpt><trkpt lat="44.46328958677505" lon="9.242004736067482"><ele>836.0</ele><time>2026-04-18T07:58:05Z</time></trkpt><trkpt lat="44.46340770833124" lon="9.242029699609697"><ele>836.0</ele><time>2026-04-18T07:58:06Z</time></trkpt><trkpt lat="44.46356046480884" lon="9.24210395996283"><ele>836.0</ele><time>2026-04-18T07:58:07Z</time></trkpt><trkpt lat="44.46373358651614" lon="9.242186522753691"><ele>836.0</ele><time>2026-04-18T07:58:08Z</time></trkpt><trkpt lat="44.463891287601875" lon="9.24224440745107"><ele>838.5</ele><time>2026-04-18T07:58:09Z</time></trkpt><trkpt lat="44.46401647794187" lon="9.242278819717296"><ele>841.0</ele><time>2026-04-18T07:58:10Z</time></trkpt><trkpt lat="44.46415956057818" lon="9.242257548459207"><ele>843.5</ele><time>2026-04-18T07:58:11Z</time></trkpt><trkpt lat="44.464323721943394" lon="9.242176994875997"><ele>846.0</ele><time>2026-04-18T07:58:12Z</time></trkpt><trkpt lat="44.464498513119366" lon="9.242083802321865"><ele>847.0</ele><time>2026-04-18T07:58:13Z</time></trkpt><trkpt lat="44.46464384225373" lon="9.242059489101967"><ele>848.0</ele><time>2026-04-18T07:58:14Z</time></trkpt><trkpt lat="44.464772806948005" lon="9.242060244129954"><ele>849.0</ele><time>2026-04-18T07:58:15Z</time></trkpt><trkpt lat="44.46488476170814" lon="9.242163992789452"><ele>850.0</ele><time>2026-04-18T07:58:16Z</time></trkpt><trkpt lat="44.46501087059523" lon="9.242285792057304"><ele>850.0</ele><time>2026-04-18T07:58:16.999Z</time></trkpt><trkpt lat="44.46514632609467" lon="9.242312466509388"><ele>850.0</ele><time>2026-04-18T07:58:17.999Z</time></trkpt><trkpt lat="44.46527111746449" lon="9.242293983723659"><ele>850.0</ele><time>2026-04-18T07:58:18.999Z</time></trkpt><trkpt lat="44.465417927146994" lon="9.242223823487146"><ele>850.0</ele><time>2026-04-18T07:58:19.999Z</time></trkpt><trkpt lat="44.46557261372149" lon="9.242190974311567"><ele>855.0</ele><time>2026-04-18T07:58:20.999Z</time></trkpt><trkpt lat="44.46570950221912" lon="9.242271323634196"><ele>860.0</ele><time>2026-04-18T07:58:21.999Z</time></trkpt><trkpt lat="44.46588671420519" lon="9.242352612876116"><ele>865.0</ele><time>2026-04-18T07:58:22.999Z</time></trkpt><trkpt lat="44.466055227078485" lon="9.242371538108381"><ele>864.6</ele><time>2026-04-18T07:58:23.999Z</time></trkpt><trkpt lat="44.46618450220606" lon="9.242371048045127"><ele>864.2</ele><time>2026-04-18T07:58:24.999Z</time></trkpt><trkpt lat="44.466288978635575" lon="9.242420240310386"><ele>863.8</ele><time>2026-04-18T07:58:25.999Z</time></trkpt><trkpt lat="44.46636178730891" lon="9.242482825542591"><ele>863.4</ele><time>2026-04-18T07:58:26.999Z</time></trkpt><trkpt lat="44.46640909730423" lon="9.242625744903538"><ele>863.0</ele><time>2026-04-18T07:58:27.999Z</time></trkpt><trkpt lat="44.46646007331743" lon="9.2428014708499"><ele>863.0</ele><time>2026-04-18T07:58:28.999Z</time></trkpt><trkpt lat="44.4665169589167" lon="9.242923237404993"><ele>863.0</ele><time>2026-04-18T07:58:29.999Z</time></trkpt><trkpt lat="44.46661435859976" lon="9.243019369417846"><ele>863.0</ele><time>2026-04-18T07:58:30.999Z</time></trkpt><trkpt lat="44.46674443684798" lon="9.243074659875028"><ele>863.0</ele><time>2026-04-18T07:58:31.999Z</time></trkpt><trkpt lat="44.46683871145157" lon="9.243150068385228"><ele>856.25</ele><time>2026-04-18T07:58:32.999Z</time></trkpt><trkpt lat="44.46689483784438" lon="9.243261794839599"><ele>849.5</ele><time>2026-04-18T07:58:33.999Z</time></trkpt><trkpt lat="44.466903884325156" lon="9.243413987984816"><ele>842.75</ele><time>2026-04-18T07:58:34.999Z</time></trkpt><trkpt lat="44.46692592426845" lon="9.243608788958808"><ele>836.0</ele><time>2026-04-18T07:58:35.999Z</time></trkpt><trkpt lat="44.46694887916406" lon="9.243784831549627"><ele>836.0</ele><time>2026-04-18T07:58:36.999Z</time></trkpt><trkpt lat="44.467034171003924" lon="9.243962347850662"><ele>836.0</ele><time>2026-04-18T07:58:37.999Z</time></trkpt><trkpt lat="44.46714309351864" lon="9.24414211034444"><ele>836.0</ele><time>2026-04-18T07:58:38.999Z</time></trkpt><trkpt lat="44.46725443074487" lon="9.244315973213666"><ele>844.5</ele><time>2026-04-18T07:58:39.999Z</time></trkpt><trkpt lat="44.467342896877476" lon="9.24450845659193"><ele>853.0</ele><time>2026-04-18T07:58:40.999Z</time></trkpt><trkpt lat="44.46737137454092" lon="9.244700553107826"><ele>861.5</ele><time>2026-04-18T07:58:41.999Z</time></trkpt><trkpt lat="44.46740559312966" lon="9.244886096282482"><ele>870.0</ele><time>2026-04-18T07:58:42.999Z</time></trkpt><trkpt lat="44.467416170274255" lon="9.245082168137314"><ele>870.0</ele><time>2026-04-18T07:58:43.999Z</time></trkpt><trkpt lat="44.46738839018504" lon="9.245258605937714"><ele>870.0</ele><time>2026-04-18T07:58:44.999Z</time></trkpt><trkpt lat="44.46736753357334" lon="9.245400342725413"><ele>870.0</ele><time>2026-04-18T07:58:45.999Z</time></trkpt><trkpt lat="44.46739303286288" lon="9.245539450787021"><ele>870.0</ele><time>2026-04-18T07:58:46.999Z</time></trkpt><trkpt lat="44.46746385927219" lon="9.245650841546652"><ele>870.0</ele><time>2026-04-18T07:58:47.999Z</time></trkpt><trkpt lat="44.46756737506624" lon="9.245734299218586"><ele>873.5</ele><time>2026-04-18T07:58:48.999Z</time></trkpt><trkpt lat="44.46768234376851" lon="9.245797933463427"><ele>877.0</ele><time>2026-04-18T07:58:49.999Z</time></trkpt><trkpt lat="44.46780335021012" lon="9.245821466802987"><ele>880.5</ele><time>2026-04-18T07:58:50.999Z</time></trkpt><trkpt lat="44.46793113914387" lon="9.245833689538605"><ele>884.0</ele><time>2026-04-18T07:58:51.999Z</time></trkpt><trkpt lat="44.46808022890593" lon="9.245849864588356"><ele>884.0</ele><time>2026-04-18T07:58:52.999Z</time></trkpt><trkpt lat="44.46823125598748" lon="9.245909636339293"><ele>884.0</ele><time>2026-04-18T07:58:53.999Z</time></trkpt><trkpt lat="44.46839163010918" lon="9.24599499421046"><ele>884.0</ele><time>2026-04-18T07:58:54.999Z</time></trkpt><trkpt lat="44.46857544944286" lon="9.246092484381846"><ele>884.0</ele><time>2026-04-18T07:58:55.999Z</time></trkpt><trkpt lat="44.46876691996532" lon="9.246186209739065"><ele>884.0</ele><time>2026-04-18T07:58:56.999Z</time></trkpt><trkpt lat="44.46897274060553" lon="9.2463030358019"><ele>884.0</ele><time>2026-04-18T07:58:57.999Z</time></trkpt><trkpt lat="44.469171111014774" lon="9.246430319609223"><ele>878.6666666666667</ele><time>2026-04-18T07:58:58.999Z</time></trkpt><trkpt lat="44.469356491885655" lon="9.246544375944655"><ele>873.3333333333333</ele><time>2026-04-18T07:58:59.999Z</time></trkpt><trkpt lat="44.46950536605868" lon="9.246654976542914"><ele>868.0</ele><time>2026-04-18T07:59:00.999Z</time></trkpt><trkpt lat="44.46963784965317" lon="9.246738647999882"><ele>891.3333333333333</ele><time>2026-04-18T07:59:01.999Z</time></trkpt><trkpt lat="44.46974912966231" lon="9.246881091339626"><ele>914.6666666666667</ele><time>2026-04-18T07:59:02.999Z</time></trkpt><trkpt lat="44.46984713462284" lon="9.247073659971063"><ele>938.0</ele><time>2026-04-18T07:59:03.999Z</time></trkpt><trkpt lat="44.46998191695657" lon="9.247253653977152"><ele>919.6666666666667</ele><time>2026-04-18T07:59:04.999Z</time></trkpt><trkpt lat="44.47014612501641" lon="9.24743043262157"><ele>901.3333333333333</ele><time>2026-04-18T07:59:05.999Z</time></trkpt><trkpt lat="44.47028823954385" lon="9.24759292139245"><ele>883.0</ele><time>2026-04-18T07:59:06.999Z</time></trkpt><trkpt lat="44.47041232879784" lon="9.247717818582716"><ele>889.5</ele><time>2026-04-18T07:59:07.999Z</time></trkpt><trkpt lat="44.47050346056029" lon="9.247843071378602"><ele>896.0</ele><time>2026-04-18T07:59:08.999Z</time></trkpt><trkpt lat="44.47056890297894" lon="9.248024506171692"><ele>902.5</ele><time>2026-04-18T07:59:09.999Z</time></trkpt><trkpt lat="44.47065788350922" lon="9.248202869443489"><ele>909.0</ele><time>2026-04-18T07:59:10.999Z</time></trkpt><trkpt lat="44.47077724538192" lon="9.248350884098038"><ele>909.0</ele><time>2026-04-18T07:59:12Z</time></trkpt><trkpt lat="44.47092163333243" lon="9.248475019471849"><ele>909.0</ele><time>2026-04-18T07:59:13Z</time></trkpt><trkpt lat="44.47105473607062" lon="9.248626321257946"><ele>909.0</ele><time>2026-04-18T07:59:14Z</time></trkpt><trkpt lat="44.47117453973534" lon="9.248817912714747"><ele>913.0</ele><time>2026-04-18T07:59:15Z</time></trkpt><trkpt lat="44.47132502571728" lon="9.248961132479147"><ele>917.0</ele><time>2026-04-18T07:59:16Z</time></trkpt><trkpt lat="44.47148360223568" lon="9.24906859126715"><ele>921.0</ele><time>2026-04-18T07:59:17Z</time></trkpt><trkpt lat="44.471594942102264" lon="9.249179269924719"><ele>921.0</ele><time>2026-04-18T07:59:18Z</time></trkpt><trkpt lat="44.47170230265268" lon="9.249314229077273"><ele>921.0</ele><time>2026-04-18T07:59:19Z</time></trkpt><trkpt lat="44.47180795752664" lon="9.249481269382569"><ele>921.0</ele><time>2026-04-18T07:59:20Z</time></trkpt><trkpt lat="44.471884744959006" lon="9.249680604502679"><ele>922.4</ele><time>2026-04-18T07:59:21Z</time></trkpt><trkpt lat="44.47194788204911" lon="9.249855657886485"><ele>923.8</ele><time>2026-04-18T07:59:22Z</time></trkpt><trkpt lat="44.47199742883947" lon="9.2499953354746"><ele>925.1999999999999</ele><time>2026-04-18T07:59:23Z</time></trkpt><trkpt lat="44.4720578355951" lon="9.250103983985547"><ele>926.5999999999999</ele><time>2026-04-18T07:59:24Z</time></trkpt><trkpt lat="44.47212218557846" lon="9.250191313709887"><ele>928.0</ele><time>2026-04-18T07:59:25Z</time></trkpt><trkpt lat="44.47221841063083" lon="9.250247099075686"><ele>928.0</ele><time>2026-04-18T07:59:26Z</time></trkpt><trkpt lat="44.47232970328905" lon="9.250251494016773"><ele>928.0</ele><time>2026-04-18T07:59:27Z</time></trkpt><trkpt lat="44.472429641440435" lon="9.250184216669552"><ele>928.0</ele><time>2026-04-18T07:59:28Z</time></trkpt><trkpt lat="44.47250048643564" lon="9.25012742334368"><ele>928.0</ele><time>2026-04-18T07:59:29Z</time></trkpt><trkpt lat="44.472557144790485" lon="9.250084021471832"><ele>928.0</ele><time>2026-04-18T07:59:30Z</time></trkpt><trkpt lat="44.472647640671646" lon="9.250020145843784"><ele>927.9999999999999</ele><time>2026-04-18T07:59:32Z</time></trkpt><trkpt lat="44.472711598803755" lon="9.249956039947397"><ele>928.0</ele><time>2026-04-18T07:59:34Z</time></trkpt><trkpt lat="44.47277623774463" lon="9.24993540289725"><ele>928.0</ele><time>2026-04-18T07:59:44Z</time></trkpt><trkpt lat="44.4728245917057" lon="9.249826470015918"><ele>928.0</ele><time>2026-04-18T08:05:43Z</time></trkpt><trkpt lat="44.47286465972594" lon="9.249907420852203"><ele>927.9999999999999</ele><time>2026-04-18T08:15:05.999Z</time></trkpt><trkpt lat="44.4729139521624" lon="9.249824780876134"><ele>928.0</ele><time>2026-04-18T08:16:59Z</time></trkpt><trkpt lat="44.473040357533286" lon="9.24980496927238"><ele>929.75</ele><time>2026-04-18T08:17:01Z</time></trkpt><trkpt lat="44.47315760084745" lon="9.249816651367345"><ele>931.5</ele><time>2026-04-18T08:17:02Z</time></trkpt><trkpt lat="44.47329924006119" lon="9.249854686394489"><ele>933.25</ele><time>2026-04-18T08:17:02.999Z</time></trkpt><trkpt lat="44.47344477752264" lon="9.249961974210068"><ele>935.0</ele><time>2026-04-18T08:17:03.999Z</time></trkpt><trkpt lat="44.47361628142146" lon="9.250024102150698"><ele>935.0</ele><time>2026-04-18T08:17:04.999Z</time></trkpt><trkpt lat="44.473753441717996" lon="9.250105137688667"><ele>935.0</ele><time>2026-04-18T08:17:05.999Z</time></trkpt><trkpt lat="44.47388538340397" lon="9.25016606758142"><ele>935.0</ele><time>2026-04-18T08:17:06.999Z</time></trkpt><trkpt lat="44.47400773816329" lon="9.250223475563619"><ele>935.0</ele><time>2026-04-18T08:17:07.999Z</time></trkpt><trkpt lat="44.474130418093324" lon="9.250281074402238"><ele>935.2</ele><time>2026-04-18T08:17:08.999Z</time></trkpt><trkpt lat="44.47424404576572" lon="9.250334620211444"><ele>935.4</ele><time>2026-04-18T08:17:09.999Z</time></trkpt><trkpt lat="44.47434948566661" lon="9.25038504433221"><ele>935.5999999999999</ele><time>2026-04-18T08:17:10.999Z</time></trkpt><trkpt lat="44.474446792967655" lon="9.250408978381138"><ele>935.8</ele><time>2026-04-18T08:17:11.999Z</time></trkpt><trkpt lat="44.47454166829492" lon="9.250481303047357"><ele>936.0</ele><time>2026-04-18T08:17:12.999Z</time></trkpt><trkpt lat="44.474650297674785" lon="9.250542335191406"><ele>935.25</ele><time>2026-04-18T08:17:13.999Z</time></trkpt><trkpt lat="44.47471176765395" lon="9.250665622518495"><ele>934.5</ele><time>2026-04-18T08:17:14.999Z</time></trkpt><trkpt lat="44.47475435057559" lon="9.250808220084574"><ele>933.75</ele><time>2026-04-18T08:17:15.999Z</time></trkpt><trkpt lat="44.47481081069074" lon="9.250985546399157"><ele>933.0</ele><time>2026-04-18T08:17:16.999Z</time></trkpt><trkpt lat="44.47485676801309" lon="9.251116738714448"><ele>933.0</ele><time>2026-04-18T08:17:17.999Z</time></trkpt><trkpt lat="44.47490334525713" lon="9.251236739373228"><ele>933.0</ele><time>2026-04-18T08:17:18.999Z</time></trkpt><trkpt lat="44.474950568481006" lon="9.251417268275313"><ele>933.0</ele><time>2026-04-18T08:17:19.999Z</time></trkpt><trkpt lat="44.47500094976898" lon="9.251600924370447"><ele>933.0</ele><time>2026-04-18T08:17:20.999Z</time></trkpt><trkpt lat="44.47504864296431" lon="9.251758879071929"><ele>931.5</ele><time>2026-04-18T08:17:21.999Z</time></trkpt><trkpt lat="44.47508567932588" lon="9.251900177038"><ele>930.0</ele><time>2026-04-18T08:17:22.999Z</time></trkpt><trkpt lat="44.47512584778716" lon="9.252062821550203"><ele>928.5</ele><time>2026-04-18T08:17:23.999Z</time></trkpt><trkpt lat="44.47515693542981" lon="9.252258451569444"><ele>927.0</ele><time>2026-04-18T08:17:24.999Z</time></trkpt><trkpt lat="44.47516827392377" lon="9.252415243870201"><ele>926.2</ele><time>2026-04-18T08:17:25.999Z</time></trkpt><trkpt lat="44.47519619693309" lon="9.252535527866865"><ele>925.4000000000001</ele><time>2026-04-18T08:17:26.999Z</time></trkpt><trkpt lat="44.47520023345759" lon="9.252700910398204"><ele>924.5999999999999</ele><time>2026-04-18T08:17:27.999Z</time></trkpt><trkpt lat="44.475235324209194" lon="9.252857348507172"><ele>923.8</ele><time>2026-04-18T08:17:28.999Z</time></trkpt><trkpt lat="44.47525398425997" lon="9.253001415120254"><ele>923.0</ele><time>2026-04-18T08:17:29.999Z</time></trkpt><trkpt lat="44.47531252013727" lon="9.253151713730865"><ele>923.0</ele><time>2026-04-18T08:17:30.999Z</time></trkpt><trkpt lat="44.47540436259825" lon="9.253305404055016"><ele>923.0</ele><time>2026-04-18T08:17:31.999Z</time></trkpt><trkpt lat="44.47550210056957" lon="9.253464945297466"><ele>923.0</ele><time>2026-04-18T08:17:32.999Z</time></trkpt><trkpt lat="44.47557228523514" lon="9.253577604465907"><ele>923.0</ele><time>2026-04-18T08:17:33.999Z</time></trkpt><trkpt lat="44.4756306582563" lon="9.253671477807421"><ele>921.6666666666667</ele><time>2026-04-18T08:17:34.999Z</time></trkpt><trkpt lat="44.47571423921651" lon="9.253799558432185"><ele>920.3333333333333</ele><time>2026-04-18T08:17:35.999Z</time></trkpt><trkpt lat="44.47584774872715" lon="9.253960772145446"><ele>919.0</ele><time>2026-04-18T08:17:36.999Z</time></trkpt><trkpt lat="44.476025315002644" lon="9.254127122461558"><ele>919.0</ele><time>2026-04-18T08:17:37.999Z</time></trkpt><trkpt lat="44.47618431297062" lon="9.254263157096581"><ele>919.0</ele><time>2026-04-18T08:17:38.999Z</time></trkpt><trkpt lat="44.476345364365535" lon="9.254400948569549"><ele>919.0</ele><time>2026-04-18T08:17:39.999Z</time></trkpt><trkpt lat="44.47647921828588" lon="9.254515470560634"><ele>918.75</ele><time>2026-04-18T08:17:40.999Z</time></trkpt><trkpt lat="44.47661279528907" lon="9.254631967917293"><ele>918.5</ele><time>2026-04-18T08:17:41.999Z</time></trkpt><trkpt lat="44.47671064919467" lon="9.254735586639267"><ele>918.25</ele><time>2026-04-18T08:17:42.999Z</time></trkpt><trkpt lat="44.47682512572494" lon="9.254909116276286"><ele>918.0</ele><time>2026-04-18T08:17:43.999Z</time></trkpt><trkpt lat="44.47692184827946" lon="9.255068708507396"><ele>918.0</ele><time>2026-04-18T08:17:44.999Z</time></trkpt><trkpt lat="44.477006324973885" lon="9.255208095088555"><ele>918.0</ele><time>2026-04-18T08:17:45.999Z</time></trkpt><trkpt lat="44.47710101200228" lon="9.25536432858539"><ele>918.0</ele><time>2026-04-18T08:17:46.999Z</time></trkpt><trkpt lat="44.4771998010366" lon="9.255532638823293"><ele>918.0</ele><time>2026-04-18T08:17:47.999Z</time></trkpt><trkpt lat="44.47727155809434" lon="9.255681720607958"><ele>920.25</ele><time>2026-04-18T08:17:48.999Z</time></trkpt><trkpt lat="44.47733668189886" lon="9.255838317975709"><ele>922.5</ele><time>2026-04-18T08:17:49.999Z</time></trkpt><trkpt lat="44.4773982987944" lon="9.256029806509503"><ele>924.75</ele><time>2026-04-18T08:17:50.999Z</time></trkpt><trkpt lat="44.477447952404624" lon="9.256228439217756"><ele>927.0</ele><time>2026-04-18T08:17:51.999Z</time></trkpt><trkpt lat="44.47748534691781" lon="9.256397187522543"><ele>925.0</ele><time>2026-04-18T08:17:52.999Z</time></trkpt><trkpt lat="44.47751028881216" lon="9.256555530080075"><ele>923.0</ele><time>2026-04-18T08:17:53.999Z</time></trkpt><trkpt lat="44.47751312100787" lon="9.256743326648197"><ele>921.0</ele><time>2026-04-18T08:17:54.999Z</time></trkpt><trkpt lat="44.47749270702542" lon="9.256954009897552"><ele>919.0</ele><time>2026-04-18T08:17:55.999Z</time></trkpt><trkpt lat="44.477471848172" lon="9.257137715510074"><ele>917.5</ele><time>2026-04-18T08:17:56.999Z</time></trkpt><trkpt lat="44.477452379142285" lon="9.257309180775556"><ele>916.0</ele><time>2026-04-18T08:17:57.999Z</time></trkpt><trkpt lat="44.47742942392554" lon="9.257469224700728"><ele>914.5</ele><time>2026-04-18T08:17:58.999Z</time></trkpt><trkpt lat="44.47739409354077" lon="9.257627712514102"><ele>913.0</ele><time>2026-04-18T08:17:59.999Z</time></trkpt><trkpt lat="44.477310967806304" lon="9.257744141024663"><ele>913.0</ele><time>2026-04-18T08:18:00.999Z</time></trkpt><trkpt lat="44.47720314161228" lon="9.257844239168854"><ele>913.0</ele><time>2026-04-18T08:18:01.999Z</time></trkpt><trkpt lat="44.4770973062609" lon="9.257909196091829"><ele>913.0</ele><time>2026-04-18T08:18:02.999Z</time></trkpt><trkpt lat="44.47700266383754" lon="9.257940321579202"><ele>913.0</ele><time>2026-04-18T08:18:03.999Z</time></trkpt><trkpt lat="44.476942273102964" lon="9.257994188500575"><ele>913.0</ele><time>2026-04-18T08:18:04.999Z</time></trkpt><trkpt lat="44.47687540738448" lon="9.258026793026014"><ele>911.6666666666666</ele><time>2026-04-18T08:18:06Z</time></trkpt><trkpt lat="44.47668905617654" lon="9.257845433588717"><ele>910.3333333333333</ele><time>2026-04-18T08:18:07Z</time></trkpt><trkpt lat="44.47656153453517" lon="9.257856659953736"><ele>909.0</ele><time>2026-04-18T08:18:08Z</time></trkpt><trkpt lat="44.47644938280321" lon="9.25787856853377"><ele>909.0</ele><time>2026-04-18T08:18:09Z</time></trkpt><trkpt lat="44.476321671318345" lon="9.257915783263584"><ele>909.0</ele><time>2026-04-18T08:18:10Z</time></trkpt><trkpt lat="44.47620958871217" lon="9.257987103017719"><ele>909.0</ele><time>2026-04-18T08:18:11Z</time></trkpt><trkpt lat="44.47611353993781" lon="9.258072205201415"><ele>909.0</ele><time>2026-04-18T08:18:12Z</time></trkpt><trkpt lat="44.47601436067289" lon="9.258168506092463"><ele>909.25</ele><time>2026-04-18T08:18:13Z</time></trkpt><trkpt lat="44.47593047006583" lon="9.258335442513308"><ele>909.5</ele><time>2026-04-18T08:18:14Z</time></trkpt><trkpt lat="44.47585528978111" lon="9.258513244419039"><ele>909.75</ele><time>2026-04-18T08:18:15Z</time></trkpt><trkpt lat="44.47580754817934" lon="9.258666862725134"><ele>910.0</ele><time>2026-04-18T08:18:16Z</time></trkpt><trkpt lat="44.475787444426295" lon="9.258819173373471"><ele>910.25</ele><time>2026-04-18T08:18:17Z</time></trkpt><trkpt lat="44.475788899614365" lon="9.259000949847096"><ele>910.5</ele><time>2026-04-18T08:18:18Z</time></trkpt><trkpt lat="44.47582147444056" lon="9.25918546645456"><ele>910.75</ele><time>2026-04-18T08:18:19Z</time></trkpt><trkpt lat="44.47588500165032" lon="9.259365111463122"><ele>911.0</ele><time>2026-04-18T08:18:20Z</time></trkpt><trkpt lat="44.47599297914829" lon="9.259569897437053"><ele>910.0</ele><time>2026-04-18T08:18:21Z</time></trkpt><trkpt lat="44.476111746975185" lon="9.259804646740198"><ele>909.0</ele><time>2026-04-18T08:18:22Z</time></trkpt><trkpt lat="44.4762399989495" lon="9.26006050045673"><ele>908.0</ele><time>2026-04-18T08:18:23Z</time></trkpt><trkpt lat="44.47633325151883" lon="9.260293937297904"><ele>913.6666666666667</ele><time>2026-04-18T08:18:24Z</time></trkpt><trkpt lat="44.47640233882885" lon="9.260513190347051"><ele>919.3333333333333</ele><time>2026-04-18T08:18:25Z</time></trkpt><trkpt lat="44.476463352613926" lon="9.260713095704922"><ele>925.0</ele><time>2026-04-18T08:18:26Z</time></trkpt><trkpt lat="44.47652031627444" lon="9.260918409500011"><ele>925.0</ele><time>2026-04-18T08:18:27Z</time></trkpt><trkpt lat="44.476545339598204" lon="9.261106330131646"><ele>925.0</ele><time>2026-04-18T08:18:28Z</time></trkpt><trkpt lat="44.476539977875404" lon="9.26130446268429"><ele>925.0</ele><time>2026-04-18T08:18:29Z</time></trkpt><trkpt lat="44.47647675648908" lon="9.26152640786745"><ele>925.0</ele><time>2026-04-18T08:18:30Z</time></trkpt><trkpt lat="44.47641063184337" lon="9.261724243549498"><ele>926.0</ele><time>2026-04-18T08:18:31Z</time></trkpt><trkpt lat="44.47635990303364" lon="9.261878635942864"><ele>927.0</ele><time>2026-04-18T08:18:32Z</time></trkpt><trkpt lat="44.47629674974917" lon="9.262046204575116"><ele>928.0</ele><time>2026-04-18T08:18:33Z</time></trkpt><trkpt lat="44.476218317922" lon="9.262236868140953"><ele>929.0</ele><time>2026-04-18T08:18:34Z</time></trkpt><trkpt lat="44.47614696722907" lon="9.262399894162861"><ele>921.5</ele><time>2026-04-18T08:18:35Z</time></trkpt><trkpt lat="44.47608727662148" lon="9.262557167348639"><ele>914.0</ele><time>2026-04-18T08:18:36Z</time></trkpt><trkpt lat="44.47604185065496" lon="9.262715610737642"><ele>906.5</ele><time>2026-04-18T08:18:37Z</time></trkpt><trkpt lat="44.476042552665575" lon="9.26289683834612"><ele>899.0</ele><time>2026-04-18T08:18:38Z</time></trkpt><trkpt lat="44.476113454681105" lon="9.263102787994054"><ele>899.3333333333334</ele><time>2026-04-18T08:18:39Z</time></trkpt><trkpt lat="44.476222044128214" lon="9.263306720697337"><ele>899.6666666666667</ele><time>2026-04-18T08:18:40Z</time></trkpt><trkpt lat="44.47631225340286" lon="9.263471666560163"><ele>900.0</ele><time>2026-04-18T08:18:41Z</time></trkpt><trkpt lat="44.476401298468616" lon="9.263635647548853"><ele>901.6666666666667</ele><time>2026-04-18T08:18:42Z</time></trkpt><trkpt lat="44.47648777535624" lon="9.263796711051125"><ele>903.3333333333334</ele><time>2026-04-18T08:18:43Z</time></trkpt><trkpt lat="44.476579256862024" lon="9.263967095944379"><ele>905.0</ele><time>2026-04-18T08:18:44Z</time></trkpt><trkpt lat="44.47665953810582" lon="9.264163962413019"><ele>905.0</ele><time>2026-04-18T08:18:45Z</time></trkpt><trkpt lat="44.476715595582434" lon="9.264370991556763"><ele>905.0</ele><time>2026-04-18T08:18:46Z</time></trkpt><trkpt lat="44.476769188217546" lon="9.264577336844008"><ele>905.0</ele><time>2026-04-18T08:18:47Z</time></trkpt><trkpt lat="44.47682798782519" lon="9.264802354620752"><ele>901.6666666666667</ele><time>2026-04-18T08:18:48Z</time></trkpt><trkpt lat="44.47689142563861" lon="9.26504019463282"><ele>898.3333333333333</ele><time>2026-04-18T08:18:49Z</time></trkpt><trkpt lat="44.47695605976157" lon="9.265282519845135"><ele>895.0</ele><time>2026-04-18T08:18:50Z</time></trkpt><trkpt lat="44.477031819890406" lon="9.265528716061493"><ele>899.6666666666666</ele><time>2026-04-18T08:18:51Z</time></trkpt><trkpt lat="44.47711472748272" lon="9.265748312485512"><ele>904.3333333333333</ele><time>2026-04-18T08:18:52Z</time></trkpt><trkpt lat="44.47720477608368" lon="9.265945759270132"><ele>909.0</ele><time>2026-04-18T08:18:53Z</time></trkpt><trkpt lat="44.477303422568966" lon="9.266138387053617"><ele>909.0</ele><time>2026-04-18T08:18:54Z</time></trkpt><trkpt lat="44.47741242031909" lon="9.26634208846948"><ele>909.0</ele><time>2026-04-18T08:18:55Z</time></trkpt><trkpt lat="44.47752418917683" lon="9.266555935651548"><ele>909.0</ele><time>2026-04-18T08:18:56Z</time></trkpt><trkpt lat="44.477626131461626" lon="9.266759396484842"><ele>904.6666666666667</ele><time>2026-04-18T08:18:57Z</time></trkpt><trkpt lat="44.477725267132385" lon="9.266982117499014"><ele>900.3333333333334</ele><time>2026-04-18T08:18:58Z</time></trkpt><trkpt lat="44.47781503189132" lon="9.26720205483181"><ele>896.0</ele><time>2026-04-18T08:18:59Z</time></trkpt><trkpt lat="44.47790197986606" lon="9.267414453624687"><ele>901.0</ele><time>2026-04-18T08:19:00Z</time></trkpt><trkpt lat="44.47800063402749" lon="9.267636720714298"><ele>906.0</ele><time>2026-04-18T08:19:01Z</time></trkpt><trkpt lat="44.47812735777344" lon="9.267865986937004"><ele>911.0</ele><time>2026-04-18T08:19:02Z</time></trkpt><trkpt lat="44.478261680475676" lon="9.268067890681833"><ele>904.3333333333334</ele><time>2026-04-18T08:19:03Z</time></trkpt><trkpt lat="44.4784002255787" lon="9.268258241395989"><ele>897.6666666666667</ele><time>2026-04-18T08:19:04Z</time></trkpt><trkpt lat="44.478512256454934" lon="9.268433091558785"><ele>891.0</ele><time>2026-04-18T08:19:05Z</time></trkpt><trkpt lat="44.478614052786135" lon="9.26866299347594"><ele>891.0</ele><time>2026-04-18T08:19:06Z</time></trkpt><trkpt lat="44.478711100091964" lon="9.268904345028215"><ele>891.0</ele><time>2026-04-18T08:19:07Z</time></trkpt><trkpt lat="44.47878436260094" lon="9.269087838620969"><ele>891.0</ele><time>2026-04-18T08:19:08Z</time></trkpt><trkpt lat="44.478868048236805" lon="9.269297437996247"><ele>892.6666666666667</ele><time>2026-04-18T08:19:09Z</time></trkpt><trkpt lat="44.47895966764933" lon="9.269527659324455"><ele>894.3333333333334</ele><time>2026-04-18T08:19:10Z</time></trkpt><trkpt lat="44.4790422845728" lon="9.269763917308547"><ele>896.0</ele><time>2026-04-18T08:19:11Z</time></trkpt><trkpt lat="44.479099674059604" lon="9.27000187001859"><ele>896.0</ele><time>2026-04-18T08:19:12Z</time></trkpt><trkpt lat="44.479151348838144" lon="9.270242836340662"><ele>896.0</ele><time>2026-04-18T08:19:13Z</time></trkpt><trkpt lat="44.479198798984775" lon="9.270459578117745"><ele>896.0</ele><time>2026-04-18T08:19:13.999Z</time></trkpt><trkpt lat="44.479248328279745" lon="9.270685816919134"><ele>893.0</ele><time>2026-04-18T08:19:14.999Z</time></trkpt><trkpt lat="44.479297314059664" lon="9.27090957315758"><ele>890.0</ele><time>2026-04-18T08:19:15.999Z</time></trkpt><trkpt lat="44.47934544928325" lon="9.2711178240478"><ele>887.0</ele><time>2026-04-18T08:19:16.999Z</time></trkpt><trkpt lat="44.479421789393726" lon="9.271306891800725"><ele>887.0</ele><time>2026-04-18T08:19:17.999Z</time></trkpt><trkpt lat="44.479541486995146" lon="9.271488917016125"><ele>887.0</ele><time>2026-04-18T08:19:18.999Z</time></trkpt><trkpt lat="44.47967286414499" lon="9.271660375102453"><ele>887.0</ele><time>2026-04-18T08:19:19.999Z</time></trkpt><trkpt lat="44.47981959429341" lon="9.271825657951362"><ele>887.0</ele><time>2026-04-18T08:19:20.999Z</time></trkpt><trkpt lat="44.48000492923265" lon="9.271973777506298"><ele>887.0</ele><time>2026-04-18T08:19:21.999Z</time></trkpt><trkpt lat="44.480198951931825" lon="9.27211202895346"><ele>887.0</ele><time>2026-04-18T08:19:22.999Z</time></trkpt><trkpt lat="44.48039540076576" lon="9.272251133339013"><ele>888.5</ele><time>2026-04-18T08:19:23.999Z</time></trkpt><trkpt lat="44.48059934755537" lon="9.272395716910042"><ele>890.0</ele><time>2026-04-18T08:19:24.999Z</time></trkpt><trkpt lat="44.48080508607387" lon="9.272538229610754"><ele>890.0</ele><time>2026-04-18T08:19:25.999Z</time></trkpt><trkpt lat="44.48101850371238" lon="9.272687078517745"><ele>890.0</ele><time>2026-04-18T08:19:26.999Z</time></trkpt><trkpt lat="44.48113931236099" lon="9.272769972161441"><ele>890.0</ele><time>2026-04-18T08:19:27.999Z</time></trkpt><trkpt lat="44.48128943221638" lon="9.27287755376805"><ele>889.6666666666667</ele><time>2026-04-18T08:19:28.999Z</time></trkpt><trkpt lat="44.481430010075314" lon="9.272993222253932"><ele>889.3333333333333</ele><time>2026-04-18T08:19:29.999Z</time></trkpt><trkpt lat="44.481552679647635" lon="9.273137463865343"><ele>889.0</ele><time>2026-04-18T08:19:30.999Z</time></trkpt><trkpt lat="44.481651394262514" lon="9.273328113736198"><ele>889.0</ele><time>2026-04-18T08:19:31.999Z</time></trkpt><trkpt lat="44.48173459108817" lon="9.273523792612984"><ele>889.0</ele><time>2026-04-18T08:19:32.999Z</time></trkpt><trkpt lat="44.48180930631389" lon="9.273707553831224"><ele>889.0</ele><time>2026-04-18T08:19:33.999Z</time></trkpt><trkpt lat="44.48185891562502" lon="9.273883235312539"><ele>889.0</ele><time>2026-04-18T08:19:34.999Z</time></trkpt><trkpt lat="44.481880023908715" lon="9.274058590730556"><ele>885.6666666666666</ele><time>2026-04-18T08:19:35.999Z</time></trkpt><trkpt lat="44.48186655108859" lon="9.274251587460315"><ele>882.3333333333333</ele><time>2026-04-18T08:19:36.999Z</time></trkpt><trkpt lat="44.48177509409379" lon="9.274433599737645"><ele>879.0</ele><time>2026-04-18T08:19:37.999Z</time></trkpt><trkpt lat="44.4816746632693" lon="9.274614758981496"><ele>881.0</ele><time>2026-04-18T08:19:38.999Z</time></trkpt><trkpt lat="44.481593930428936" lon="9.27477545631704"><ele>883.0</ele><time>2026-04-18T08:19:39.999Z</time></trkpt><trkpt lat="44.481610219319805" lon="9.275128814182594"><ele>885.0</ele><time>2026-04-18T08:19:40.999Z</time></trkpt><trkpt lat="44.481593496878155" lon="9.275358682153344"><ele>885.0</ele><time>2026-04-18T08:19:41.999Z</time></trkpt><trkpt lat="44.48161242887274" lon="9.275590320195557"><ele>885.0</ele><time>2026-04-18T08:19:42.999Z</time></trkpt><trkpt lat="44.48167823480606" lon="9.275833484291404"><ele>885.0</ele><time>2026-04-18T08:19:43.999Z</time></trkpt><trkpt lat="44.48173559840001" lon="9.276118672634237"><ele>885.3333333333333</ele><time>2026-04-18T08:19:44.999Z</time></trkpt><trkpt lat="44.48180653414977" lon="9.276402932704126"><ele>885.6666666666666</ele><time>2026-04-18T08:19:45.999Z</time></trkpt><trkpt lat="44.48186877541456" lon="9.276647772460809"><ele>886.0</ele><time>2026-04-18T08:19:46.999Z</time></trkpt><trkpt lat="44.48192717021962" lon="9.27687996702689"><ele>888.0</ele><time>2026-04-18T08:19:47.999Z</time></trkpt><trkpt lat="44.481988334759244" lon="9.277125269569643"><ele>890.0</ele><time>2026-04-18T08:19:48.999Z</time></trkpt><trkpt lat="44.482054605583464" lon="9.27739715923377"><ele>892.0</ele><time>2026-04-18T08:19:49.999Z</time></trkpt><trkpt lat="44.482105821958626" lon="9.277653333161416"><ele>892.0</ele><time>2026-04-18T08:19:50.999Z</time></trkpt><trkpt lat="44.48212990653762" lon="9.277906560736897"><ele>892.0</ele><time>2026-04-18T08:19:51.999Z</time></trkpt><trkpt lat="44.48214457750414" lon="9.278152050283143"><ele>892.0</ele><time>2026-04-18T08:19:52.999Z</time></trkpt><trkpt lat="44.48215696633272" lon="9.278390953146186"><ele>892.0</ele><time>2026-04-18T08:19:53.999Z</time></trkpt><trkpt lat="44.482169769977034" lon="9.278636157789009"><ele>892.0</ele><time>2026-04-18T08:19:54.999Z</time></trkpt><trkpt lat="44.482183143500656" lon="9.278892276381267"><ele>892.0</ele><time>2026-04-18T08:19:55.999Z</time></trkpt><trkpt lat="44.48219432970999" lon="9.279118659747192"><ele>892.25</ele><time>2026-04-18T08:19:56.999Z</time></trkpt><trkpt lat="44.48219072959028" lon="9.279324635649719"><ele>892.5</ele><time>2026-04-18T08:19:57.999Z</time></trkpt><trkpt lat="44.48215569549594" lon="9.27950706567282"><ele>892.75</ele><time>2026-04-18T08:19:58.999Z</time></trkpt><trkpt lat="44.48207418391159" lon="9.279647572518497"><ele>893.0</ele><time>2026-04-18T08:19:59.999Z</time></trkpt><trkpt lat="44.481966106780696" lon="9.279804889923742"><ele>885.6666666666667</ele><time>2026-04-18T08:20:00.999Z</time></trkpt><trkpt lat="44.48184090464111" lon="9.27997911523853"><ele>878.3333333333333</ele><time>2026-04-18T08:20:01.999Z</time></trkpt><trkpt lat="44.481714324347145" lon="9.280155258271185"><ele>871.0</ele><time>2026-04-18T08:20:02.999Z</time></trkpt><trkpt lat="44.481595688680564" lon="9.280335739867224"><ele>871.0</ele><time>2026-04-18T08:20:03.999Z</time></trkpt><trkpt lat="44.481491009199814" lon="9.28047632353287"><ele>871.0</ele><time>2026-04-18T08:20:04.999Z</time></trkpt><trkpt lat="44.481400657918904" lon="9.28062000135002"><ele>871.0</ele><time>2026-04-18T08:20:05.999Z</time></trkpt><trkpt lat="44.48133928117883" lon="9.280801067493663"><ele>871.0</ele><time>2026-04-18T08:20:06.999Z</time></trkpt><trkpt lat="44.48129028410294" lon="9.281012375262861"><ele>868.5</ele><time>2026-04-18T08:20:07.999Z</time></trkpt><trkpt lat="44.48124120211541" lon="9.281205786565588"><ele>866.0</ele><time>2026-04-18T08:20:08.999Z</time></trkpt><trkpt lat="44.48121654295601" lon="9.281398624011516"><ele>863.5</ele><time>2026-04-18T08:20:09.999Z</time></trkpt><trkpt lat="44.48124951139094" lon="9.281600413282037"><ele>861.0</ele><time>2026-04-18T08:20:10.999Z</time></trkpt><trkpt lat="44.481262640612734" lon="9.281808627787049"><ele>861.75</ele><time>2026-04-18T08:20:12Z</time></trkpt><trkpt lat="44.48129638187595" lon="9.281991382656564"><ele>862.5</ele><time>2026-04-18T08:20:13Z</time></trkpt><trkpt lat="44.4813482127086" lon="9.282174879201357"><ele>863.25</ele><time>2026-04-18T08:20:14Z</time></trkpt><trkpt lat="44.48143273957888" lon="9.282357272102825"><ele>864.0</ele><time>2026-04-18T08:20:15Z</time></trkpt><trkpt lat="44.48153447560141" lon="9.28253797572748"><ele>864.0</ele><time>2026-04-18T08:20:16Z</time></trkpt><trkpt lat="44.481635490163804" lon="9.282713991767368"><ele>864.0</ele><time>2026-04-18T08:20:17Z</time></trkpt><trkpt lat="44.48172358460084" lon="9.282866325540224"><ele>864.0</ele><time>2026-04-18T08:20:18Z</time></trkpt><trkpt lat="44.48180877386889" lon="9.283009352069863"><ele>864.0</ele><time>2026-04-18T08:20:19Z</time></trkpt><trkpt lat="44.481906004480344" lon="9.283156400089597"><ele>863.0</ele><time>2026-04-18T08:20:20Z</time></trkpt><trkpt lat="44.48202527821645" lon="9.283301316168867"><ele>862.0</ele><time>2026-04-18T08:20:21Z</time></trkpt><trkpt lat="44.482153803952976" lon="9.283452963788227"><ele>861.0</ele><time>2026-04-18T08:20:22Z</time></trkpt><trkpt lat="44.48226244939676" lon="9.28358224547737"><ele>861.75</ele><time>2026-04-18T08:20:23Z</time></trkpt><trkpt lat="44.48236653633438" lon="9.283706211346106"><ele>862.5</ele><time>2026-04-18T08:20:24Z</time></trkpt><trkpt lat="44.48246618143601" lon="9.283824969186874"><ele>863.25</ele><time>2026-04-18T08:20:25Z</time></trkpt><trkpt lat="44.482566243762044" lon="9.283947117515403"><ele>864.0</ele><time>2026-04-18T08:20:26Z</time></trkpt><trkpt lat="44.48267402468497" lon="9.284075616683449"><ele>864.0</ele><time>2026-04-18T08:20:27Z</time></trkpt><trkpt lat="44.482785332225035" lon="9.284207771569404"><ele>864.0</ele><time>2026-04-18T08:20:28Z</time></trkpt><trkpt lat="44.48288130138263" lon="9.284328972323042"><ele>864.0</ele><time>2026-04-18T08:20:29Z</time></trkpt><trkpt lat="44.48295945945351" lon="9.284458908605519"><ele>864.0</ele><time>2026-04-18T08:20:30Z</time></trkpt><trkpt lat="44.48301658938994" lon="9.284617464644041"><ele>866.0</ele><time>2026-04-18T08:20:31Z</time></trkpt><trkpt lat="44.483065248775425" lon="9.28480207315151"><ele>868.0</ele><time>2026-04-18T08:20:32Z</time></trkpt><trkpt lat="44.48311722374642" lon="9.285002456415096"><ele>870.0</ele><time>2026-04-18T08:20:33Z</time></trkpt><trkpt lat="44.48314833465856" lon="9.28518553147845"><ele>872.0</ele><time>2026-04-18T08:20:34Z</time></trkpt><trkpt lat="44.48313433256786" lon="9.285363067957881"><ele>872.0</ele><time>2026-04-18T08:20:35Z</time></trkpt><trkpt lat="44.483119284358395" lon="9.285559125974169"><ele>872.0</ele><time>2026-04-18T08:20:36Z</time></trkpt><trkpt lat="44.48310491894481" lon="9.28577855341913"><ele>872.0</ele><time>2026-04-18T08:20:37Z</time></trkpt><trkpt lat="44.48309175983634" lon="9.286006225567052"><ele>871.0</ele><time>2026-04-18T08:20:38Z</time></trkpt><trkpt lat="44.483080808211966" lon="9.286230882436293"><ele>870.0</ele><time>2026-04-18T08:20:39Z</time></trkpt><trkpt lat="44.48309074435311" lon="9.286465189480602"><ele>869.0</ele><time>2026-04-18T08:20:40Z</time></trkpt><trkpt lat="44.48310911615129" lon="9.286671478953979"><ele>868.25</ele><time>2026-04-18T08:20:41Z</time></trkpt><trkpt lat="44.48312863028466" lon="9.286860994703556"><ele>867.5</ele><time>2026-04-18T08:20:42Z</time></trkpt><trkpt lat="44.483151730247926" lon="9.287064159881638"><ele>866.75</ele><time>2026-04-18T08:20:43Z</time></trkpt><trkpt lat="44.48317952891872" lon="9.287270596342353"><ele>866.0</ele><time>2026-04-18T08:20:44Z</time></trkpt><trkpt lat="44.483211030434155" lon="9.287471533807114"><ele>864.0</ele><time>2026-04-18T08:20:45Z</time></trkpt><trkpt lat="44.483245767747874" lon="9.28765370011289"><ele>862.0</ele><time>2026-04-18T08:20:46Z</time></trkpt><trkpt lat="44.48327942026798" lon="9.287828262765986"><ele>860.0</ele><time>2026-04-18T08:20:47Z</time></trkpt><trkpt lat="44.48331492104347" lon="9.288010804950678"><ele>858.0</ele><time>2026-04-18T08:20:48Z</time></trkpt><trkpt lat="44.48334927597371" lon="9.28819958951225"><ele>857.25</ele><time>2026-04-18T08:20:49Z</time></trkpt><trkpt lat="44.48338020903358" lon="9.288371334630463"><ele>856.5</ele><time>2026-04-18T08:20:50Z</time></trkpt><trkpt lat="44.48340992104742" lon="9.288544533318287"><ele>855.75</ele><time>2026-04-18T08:20:51Z</time></trkpt><trkpt lat="44.48343870707519" lon="9.288722730398563"><ele>855.0</ele><time>2026-04-18T08:20:52Z</time></trkpt><trkpt lat="44.48344235381726" lon="9.288908841293248"><ele>854.25</ele><time>2026-04-18T08:20:53Z</time></trkpt><trkpt lat="44.48342777966259" lon="9.289099494421112"><ele>853.5</ele><time>2026-04-18T08:20:54Z</time></trkpt><trkpt lat="44.48342471657011" lon="9.289295410310807"><ele>852.75</ele><time>2026-04-18T08:20:55Z</time></trkpt><trkpt lat="44.48340440519307" lon="9.289501319964769"><ele>852.0</ele><time>2026-04-18T08:20:56Z</time></trkpt><trkpt lat="44.483381016088615" lon="9.289729580089832"><ele>852.3333333333333</ele><time>2026-04-18T08:20:57Z</time></trkpt><trkpt lat="44.483360908460476" lon="9.289953589709596"><ele>852.6666666666666</ele><time>2026-04-18T08:20:58Z</time></trkpt><trkpt lat="44.483341668041994" lon="9.290153365406312"><ele>853.0</ele><time>2026-04-18T08:20:59Z</time></trkpt><trkpt lat="44.4833234487931" lon="9.290361446765386"><ele>853.0</ele><time>2026-04-18T08:21:00Z</time></trkpt><trkpt lat="44.483296885723334" lon="9.29058643043864"><ele>853.0</ele><time>2026-04-18T08:21:01Z</time></trkpt><trkpt lat="44.483280723176" lon="9.29079799469895"><ele>853.0</ele><time>2026-04-18T08:21:02Z</time></trkpt><trkpt lat="44.48326690527795" lon="9.290988160375454"><ele>855.0</ele><time>2026-04-18T08:21:03Z</time></trkpt><trkpt lat="44.48323476720112" lon="9.291187484796106"><ele>857.0</ele><time>2026-04-18T08:21:04Z</time></trkpt><trkpt lat="44.483226153817064" lon="9.291413783104241"><ele>859.0</ele><time>2026-04-18T08:21:05Z</time></trkpt><trkpt lat="44.48323141141769" lon="9.29163772108079"><ele>861.0</ele><time>2026-04-18T08:21:06Z</time></trkpt><trkpt lat="44.483238565763244" lon="9.29185204510261"><ele>863.0</ele><time>2026-04-18T08:21:07Z</time></trkpt><trkpt lat="44.483248297717914" lon="9.292083455877771"><ele>865.0</ele><time>2026-04-18T08:21:08Z</time></trkpt><trkpt lat="44.483259801010384" lon="9.292334981456685"><ele>866.3333333333333</ele><time>2026-04-18T08:21:09Z</time></trkpt><trkpt lat="44.483267255268345" lon="9.292580577223957"><ele>867.6666666666667</ele><time>2026-04-18T08:21:10Z</time></trkpt><trkpt lat="44.483272641802046" lon="9.292801981497654"><ele>869.0</ele><time>2026-04-18T08:21:11Z</time></trkpt><trkpt lat="44.48327016077326" lon="9.293032760279809"><ele>866.6666666666667</ele><time>2026-04-18T08:21:12Z</time></trkpt><trkpt lat="44.483263002094354" lon="9.293276259695949"><ele>864.3333333333333</ele><time>2026-04-18T08:21:13Z</time></trkpt><trkpt lat="44.483256834765484" lon="9.293493436603626"><ele>862.0</ele><time>2026-04-18T08:21:14Z</time></trkpt><trkpt lat="44.48327576992728" lon="9.29370016175749"><ele>862.0</ele><time>2026-04-18T08:21:15Z</time></trkpt><trkpt lat="44.48330236125728" lon="9.293893513375322"><ele>862.0</ele><time>2026-04-18T08:21:16Z</time></trkpt><trkpt lat="44.48333636432862" lon="9.294073056165084"><ele>862.0</ele><time>2026-04-18T08:21:17Z</time></trkpt><trkpt lat="44.483395519720155" lon="9.29425811731302"><ele>862.0</ele><time>2026-04-18T08:21:17.999Z</time></trkpt><trkpt lat="44.483466579565786" lon="9.294438262255085"><ele>860.0</ele><time>2026-04-18T08:21:18.999Z</time></trkpt><trkpt lat="44.48354260350154" lon="9.294621854585012"><ele>858.0</ele><time>2026-04-18T08:21:19.999Z</time></trkpt><trkpt lat="44.48362168752155" lon="9.294812082894024"><ele>856.0</ele><time>2026-04-18T08:21:20.999Z</time></trkpt><trkpt lat="44.48369847899067" lon="9.29499672875492"><ele>854.0</ele><time>2026-04-18T08:21:21.999Z</time></trkpt><trkpt lat="44.48377689723381" lon="9.295185286199565"><ele>852.0</ele><time>2026-04-18T08:21:22.999Z</time></trkpt><trkpt lat="44.4838592988387" lon="9.295383421800302"><ele>850.0</ele><time>2026-04-18T08:21:23.999Z</time></trkpt><trkpt lat="44.48394387759196" lon="9.295588380686631"><ele>850.0</ele><time>2026-04-18T08:21:24.999Z</time></trkpt><trkpt lat="44.4840221017976" lon="9.295779251632954"><ele>850.0</ele><time>2026-04-18T08:21:25.999Z</time></trkpt><trkpt lat="44.48409415983377" lon="9.295955077010436"><ele>850.0</ele><time>2026-04-18T08:21:26.999Z</time></trkpt><trkpt lat="44.484166466180554" lon="9.296129449962425"><ele>850.0</ele><time>2026-04-18T08:21:27.999Z</time></trkpt><trkpt lat="44.48424201299623" lon="9.296308041799222"><ele>849.3333333333333</ele><time>2026-04-18T08:21:28.999Z</time></trkpt><trkpt lat="44.4843258681579" lon="9.296506307560225"><ele>848.6666666666667</ele><time>2026-04-18T08:21:29.999Z</time></trkpt><trkpt lat="44.48441118296285" lon="9.296708764070141"><ele>848.0</ele><time>2026-04-18T08:21:30.999Z</time></trkpt><trkpt lat="44.484487907048" lon="9.296893164487258"><ele>848.0</ele><time>2026-04-18T08:21:31.999Z</time></trkpt><trkpt lat="44.484584790911704" lon="9.297054380660347"><ele>848.0</ele><time>2026-04-18T08:21:32.999Z</time></trkpt><trkpt lat="44.48471122119186" lon="9.29717269462294"><ele>848.0</ele><time>2026-04-18T08:21:33.999Z</time></trkpt><trkpt lat="44.48483635157451" lon="9.297281827062227"><ele>849.0</ele><time>2026-04-18T08:21:34.999Z</time></trkpt><trkpt lat="44.48494027461953" lon="9.297389855093726"><ele>850.0</ele><time>2026-04-18T08:21:35.999Z</time></trkpt><trkpt lat="44.4850090404478" lon="9.297517441565095"><ele>851.0</ele><time>2026-04-18T08:21:36.999Z</time></trkpt><trkpt lat="44.48506700805734" lon="9.297673797926585"><ele>852.0</ele><time>2026-04-18T08:21:37.999Z</time></trkpt><trkpt lat="44.485124589511024" lon="9.297869058853676"><ele>852.0</ele><time>2026-04-18T08:21:38.999Z</time></trkpt><trkpt lat="44.48516398301408" lon="9.298062713263661"><ele>852.0</ele><time>2026-04-18T08:21:39.999Z</time></trkpt><trkpt lat="44.485177973188364" lon="9.298238598095434"><ele>852.0</ele><time>2026-04-18T08:21:40.999Z</time></trkpt><trkpt lat="44.485155539590366" lon="9.298411865493119"><ele>852.0</ele><time>2026-04-18T08:21:41.999Z</time></trkpt><trkpt lat="44.4851233396198" lon="9.298618652792204"><ele>851.75</ele><time>2026-04-18T08:21:42.999Z</time></trkpt><trkpt lat="44.48508956618097" lon="9.298837956863862"><ele>851.5</ele><time>2026-04-18T08:21:43.999Z</time></trkpt><trkpt lat="44.4850611789295" lon="9.299029619220967"><ele>851.25</ele><time>2026-04-18T08:21:44.999Z</time></trkpt><trkpt lat="44.485032354304906" lon="9.299234233091273"><ele>851.0</ele><time>2026-04-18T08:21:45.999Z</time></trkpt><trkpt lat="44.48500251052721" lon="9.299442466493785"><ele>852.3333333333334</ele><time>2026-04-18T08:21:46.999Z</time></trkpt><trkpt lat="44.48497274161896" lon="9.299648674779956"><ele>853.6666666666667</ele><time>2026-04-18T08:21:47.999Z</time></trkpt><trkpt lat="44.484943658151565" lon="9.29986470254492"><ele>855.0</ele><time>2026-04-18T08:21:48.999Z</time></trkpt><trkpt lat="44.48491690301699" lon="9.300066909520188"><ele>856.0</ele><time>2026-04-18T08:21:49.999Z</time></trkpt><trkpt lat="44.48488504412155" lon="9.30029578673854"><ele>857.0</ele><time>2026-04-18T08:21:50.999Z</time></trkpt><trkpt lat="44.48484794930935" lon="9.300562278689073"><ele>858.0</ele><time>2026-04-18T08:21:51.999Z</time></trkpt><trkpt lat="44.48480979699337" lon="9.300835461423109"><ele>859.3333333333333</ele><time>2026-04-18T08:21:52.999Z</time></trkpt><trkpt lat="44.48477539423886" lon="9.301081327993558"><ele>860.6666666666666</ele><time>2026-04-18T08:21:53.999Z</time></trkpt><trkpt lat="44.48474225342518" lon="9.301316772901956"><ele>862.0</ele><time>2026-04-18T08:21:54.999Z</time></trkpt><trkpt lat="44.48470592365956" lon="9.301565135128646"><ele>863.6666666666666</ele><time>2026-04-18T08:21:55.999Z</time></trkpt><trkpt lat="44.48466426282256" lon="9.301822333990676"><ele>865.3333333333333</ele><time>2026-04-18T08:21:56.999Z</time></trkpt><trkpt lat="44.484615414207624" lon="9.302090505992782"><ele>867.0</ele><time>2026-04-18T08:21:57.999Z</time></trkpt><trkpt lat="44.48456996957622" lon="9.302329431519514"><ele>866.5</ele><time>2026-04-18T08:21:58.999Z</time></trkpt><trkpt lat="44.48453994944242" lon="9.302528900654888"><ele>866.0</ele><time>2026-04-18T08:21:59.999Z</time></trkpt><trkpt lat="44.48453389509613" lon="9.302695869676453"><ele>865.5</ele><time>2026-04-18T08:22:00.999Z</time></trkpt><trkpt lat="44.48457038411507" lon="9.302869192198914"><ele>865.0</ele><time>2026-04-18T08:22:01.999Z</time></trkpt><trkpt lat="44.48465745676031" lon="9.303042910818045"><ele>860.3333333333333</ele><time>2026-04-18T08:22:02.999Z</time></trkpt><trkpt lat="44.48478357041902" lon="9.303198245981374"><ele>855.6666666666667</ele><time>2026-04-18T08:22:03.999Z</time></trkpt><trkpt lat="44.48492268366539" lon="9.303360054916135"><ele>851.0</ele><time>2026-04-18T08:22:04.999Z</time></trkpt><trkpt lat="44.48502280904608" lon="9.303524356725484"><ele>851.0</ele><time>2026-04-18T08:22:05.999Z</time></trkpt><trkpt lat="44.48508519996014" lon="9.303709584988232"><ele>851.0</ele><time>2026-04-18T08:22:06.999Z</time></trkpt><trkpt lat="44.485149958464966" lon="9.303928874672703"><ele>851.0</ele><time>2026-04-18T08:22:07.999Z</time></trkpt><trkpt lat="44.48520903927173" lon="9.304120299556576"><ele>849.75</ele><time>2026-04-18T08:22:08.999Z</time></trkpt><trkpt lat="44.48524424351311" lon="9.304293376279361"><ele>848.5</ele><time>2026-04-18T08:22:09.999Z</time></trkpt><trkpt lat="44.48524058876685" lon="9.304490496550915"><ele>847.25</ele><time>2026-04-18T08:22:10.999Z</time></trkpt><trkpt lat="44.48523060825187" lon="9.304697202776522"><ele>846.0</ele><time>2026-04-18T08:22:11.999Z</time></trkpt><trkpt lat="44.48521101765708" lon="9.304882201069198"><ele>845.8</ele><time>2026-04-18T08:22:12.999Z</time></trkpt><trkpt lat="44.485183607253425" lon="9.305010974279257"><ele>845.5999999999999</ele><time>2026-04-18T08:22:13.999Z</time></trkpt><trkpt lat="44.48517148634616" lon="9.305111211755994"><ele>845.4</ele><time>2026-04-18T08:22:14.999Z</time></trkpt><trkpt lat="44.485190417085875" lon="9.305217336411317"><ele>845.2</ele><time>2026-04-18T08:22:15.999Z</time></trkpt><trkpt lat="44.48528633582762" lon="9.305290610576707"><ele>845.0</ele><time>2026-04-18T08:22:16.999Z</time></trkpt><trkpt lat="44.48539530285631" lon="9.30526708775986"><ele>846.8</ele><time>2026-04-18T08:22:18Z</time></trkpt><trkpt lat="44.485484935825255" lon="9.30528416054013"><ele>848.6</ele><time>2026-04-18T08:22:19Z</time></trkpt><trkpt lat="44.48555074112079" lon="9.30537594373313"><ele>850.4000000000001</ele><time>2026-04-18T08:22:21Z</time></trkpt><trkpt lat="44.48551281054933" lon="9.305447533208993"><ele>852.2</ele><time>2026-04-18T08:22:22Z</time></trkpt><trkpt lat="44.485457303949694" lon="9.305621298101327"><ele>854.0</ele><time>2026-04-18T08:22:24Z</time></trkpt><trkpt lat="44.485438143379426" lon="9.305737478117294"><ele>854.0</ele><time>2026-04-18T08:22:25Z</time></trkpt><trkpt lat="44.485445770636325" lon="9.305874928793298"><ele>854.0000000000001</ele><time>2026-04-18T08:22:26Z</time></trkpt><trkpt lat="44.48545855378907" lon="9.305990309182143"><ele>854.0000000000001</ele><time>2026-04-18T08:22:27Z</time></trkpt><trkpt lat="44.48540099375021" lon="9.306110348298535"><ele>854.0</ele><time>2026-04-18T08:22:29Z</time></trkpt><trkpt lat="44.48531840048159" lon="9.306114793247819"><ele>854.0</ele><time>2026-04-18T08:22:30Z</time></trkpt><trkpt lat="44.485226738405416" lon="9.306089815642958"><ele>851.2</ele><time>2026-04-18T08:22:31Z</time></trkpt><trkpt lat="44.48512956403796" lon="9.306101724335619"><ele>848.4000000000001</ele><time>2026-04-18T08:22:32Z</time></trkpt><trkpt lat="44.48504893760169" lon="9.306170696641397"><ele>845.6</ele><time>2026-04-18T08:22:33Z</time></trkpt><trkpt lat="44.48498211687963" lon="9.30625850796569"><ele>842.8</ele><time>2026-04-18T08:22:34Z</time></trkpt><trkpt lat="44.48494537762312" lon="9.306425594978212"><ele>840.0</ele><time>2026-04-18T08:22:35Z</time></trkpt><trkpt lat="44.48493130737054" lon="9.306590053362108"><ele>839.25</ele><time>2026-04-18T08:22:36Z</time></trkpt><trkpt lat="44.484924422928735" lon="9.306778038505453"><ele>838.5</ele><time>2026-04-18T08:22:37Z</time></trkpt><trkpt lat="44.48491739919386" lon="9.306960617078538"><ele>837.75</ele><time>2026-04-18T08:22:38Z</time></trkpt><trkpt lat="44.48490941847211" lon="9.307123376240675"><ele>837.0</ele><time>2026-04-18T08:22:39Z</time></trkpt><trkpt lat="44.48489431403428" lon="9.307282639619872"><ele>836.75</ele><time>2026-04-18T08:22:40Z</time></trkpt><trkpt lat="44.48487357534881" lon="9.307443597849733"><ele>836.5</ele><time>2026-04-18T08:22:41Z</time></trkpt><trkpt lat="44.484832895165304" lon="9.307625256224181"><ele>836.25</ele><time>2026-04-18T08:22:42Z</time></trkpt><trkpt lat="44.48476900710894" lon="9.307822605536463"><ele>836.0</ele><time>2026-04-18T08:22:43Z</time></trkpt><trkpt lat="44.48469487689152" lon="9.308020495071125"><ele>835.5</ele><time>2026-04-18T08:22:44Z</time></trkpt><trkpt lat="44.48463938085094" lon="9.308193500474317"><ele>835.0</ele><time>2026-04-18T08:22:45Z</time></trkpt><trkpt lat="44.48457207262516" lon="9.308342284160299"><ele>834.5</ele><time>2026-04-18T08:22:46Z</time></trkpt><trkpt lat="44.48450511380624" lon="9.308499333761592"><ele>834.0</ele><time>2026-04-18T08:22:47Z</time></trkpt><trkpt lat="44.484425826830964" lon="9.308677733252738"><ele>834.0</ele><time>2026-04-18T08:22:48Z</time></trkpt><trkpt lat="44.484348815005035" lon="9.308842141331368"><ele>834.0</ele><time>2026-04-18T08:22:49Z</time></trkpt><trkpt lat="44.48428872478088" lon="9.308976340824854"><ele>834.0</ele><time>2026-04-18T08:22:50Z</time></trkpt><trkpt lat="44.48424047170898" lon="9.309109704393089"><ele>834.0</ele><time>2026-04-18T08:22:51Z</time></trkpt><trkpt lat="44.48420260741074" lon="9.309235333630838"><ele>835.6666666666667</ele><time>2026-04-18T08:22:52Z</time></trkpt><trkpt lat="44.484155053725566" lon="9.3093484986508"><ele>837.3333333333334</ele><time>2026-04-18T08:22:53Z</time></trkpt><trkpt lat="44.48407632061808" lon="9.309654083248068"><ele>839.0</ele><time>2026-04-18T08:22:54Z</time></trkpt><trkpt lat="44.48402781131566" lon="9.309833544105276"><ele>842.0</ele><time>2026-04-18T08:22:55Z</time></trkpt><trkpt lat="44.48397179440749" lon="9.310026097309382"><ele>845.0</ele><time>2026-04-18T08:22:56Z</time></trkpt><trkpt lat="44.483898997918864" lon="9.310222527574414"><ele>848.0</ele><time>2026-04-18T08:22:57Z</time></trkpt><trkpt lat="44.483821454493196" lon="9.310418891973153"><ele>843.3333333333334</ele><time>2026-04-18T08:22:58Z</time></trkpt><trkpt lat="44.483723783858316" lon="9.310571546535805"><ele>838.6666666666667</ele><time>2026-04-18T08:22:59Z</time></trkpt><trkpt lat="44.4836240706128" lon="9.310739620283808"><ele>834.0</ele><time>2026-04-18T08:23:00Z</time></trkpt><trkpt lat="44.48351987973085" lon="9.310917532317388"><ele>833.6666666666667</ele><time>2026-04-18T08:23:01Z</time></trkpt><trkpt lat="44.48341390277981" lon="9.311102260046171"><ele>833.3333333333334</ele><time>2026-04-18T08:23:02Z</time></trkpt><trkpt lat="44.4833074472992" lon="9.311295547118807"><ele>833.0</ele><time>2026-04-18T08:23:03Z</time></trkpt><trkpt lat="44.483210920515155" lon="9.31151010265131"><ele>832.6666666666667</ele><time>2026-04-18T08:23:04Z</time></trkpt><trkpt lat="44.483101205777416" lon="9.311732661182681"><ele>832.3333333333333</ele><time>2026-04-18T08:23:05Z</time></trkpt><trkpt lat="44.48300294043884" lon="9.311954023661842"><ele>832.0</ele><time>2026-04-18T08:23:06Z</time></trkpt><trkpt lat="44.482906333713515" lon="9.312189162099909"><ele>832.6666666666666</ele><time>2026-04-18T08:23:07Z</time></trkpt><trkpt lat="44.4828195232297" lon="9.312427099371106"><ele>833.3333333333333</ele><time>2026-04-18T08:23:08Z</time></trkpt><trkpt lat="44.48273818210834" lon="9.312663873664047"><ele>834.0</ele><time>2026-04-18T08:23:09Z</time></trkpt><trkpt lat="44.482670751106575" lon="9.312880043938067"><ele>834.6666666666667</ele><time>2026-04-18T08:23:10Z</time></trkpt><trkpt lat="44.48261893611698" lon="9.313091117113803"><ele>835.3333333333334</ele><time>2026-04-18T08:23:11Z</time></trkpt><trkpt lat="44.48259062924011" lon="9.313329170065211"><ele>836.0</ele><time>2026-04-18T08:23:12Z</time></trkpt><trkpt lat="44.48257820692155" lon="9.313603902325694"><ele>835.0</ele><time>2026-04-18T08:23:13Z</time></trkpt><trkpt lat="44.482554196636876" lon="9.31390690918264"><ele>834.0</ele><time>2026-04-18T08:23:14Z</time></trkpt><trkpt lat="44.48252824611088" lon="9.31423155440828"><ele>834.0</ele><time>2026-04-18T08:23:15Z</time></trkpt><trkpt lat="44.48249965245504" lon="9.314560525920427"><ele>834.0</ele><time>2026-04-18T08:23:16Z</time></trkpt><trkpt lat="44.4824542628437" lon="9.3148642697678"><ele>834.3333333333333</ele><time>2026-04-18T08:23:17Z</time></trkpt><trkpt lat="44.48240999165632" lon="9.315157864494797"><ele>834.6666666666666</ele><time>2026-04-18T08:23:18Z</time></trkpt><trkpt lat="44.4823673894033" lon="9.31544241978372"><ele>835.0</ele><time>2026-04-18T08:23:19Z</time></trkpt><trkpt lat="44.48232890626546" lon="9.315706066344474"><ele>836.0</ele><time>2026-04-18T08:23:20Z</time></trkpt><trkpt lat="44.482288582095734" lon="9.315982325459766"><ele>837.0</ele><time>2026-04-18T08:23:21Z</time></trkpt><trkpt lat="44.48224672474055" lon="9.31626908860736"><ele>838.0</ele><time>2026-04-18T08:23:22Z</time></trkpt><trkpt lat="44.48220638353096" lon="9.316544492738982"><ele>839.3333333333333</ele><time>2026-04-18T08:23:23Z</time></trkpt><trkpt lat="44.48216842039566" lon="9.316802820379175"><ele>840.6666666666667</ele><time>2026-04-18T08:23:24Z</time></trkpt><trkpt lat="44.48212933476828" lon="9.317068786331383"><ele>842.0</ele><time>2026-04-18T08:23:24.999Z</time></trkpt><trkpt lat="44.482092295525774" lon="9.317320806202146"><ele>836.6666666666667</ele><time>2026-04-18T08:23:25.999Z</time></trkpt><trkpt lat="44.48205485869843" lon="9.3175533509971"><ele>831.3333333333333</ele><time>2026-04-18T08:23:26.999Z</time></trkpt><trkpt lat="44.481995320179955" lon="9.31776232380812"><ele>826.0</ele><time>2026-04-18T08:23:27.999Z</time></trkpt><trkpt lat="44.48190207011255" lon="9.317958852258906"><ele>828.3333333333333</ele><time>2026-04-18T08:23:28.999Z</time></trkpt><trkpt lat="44.48178025466115" lon="9.318116577799113"><ele>830.6666666666667</ele><time>2026-04-18T08:23:29.999Z</time></trkpt><trkpt lat="44.481644396687685" lon="9.318232858307281"><ele>833.0</ele><time>2026-04-18T08:23:30.999Z</time></trkpt><trkpt lat="44.481499658223036" lon="9.318354872422063"><ele>833.0</ele><time>2026-04-18T08:23:31.999Z</time></trkpt><trkpt lat="44.48134610650068" lon="9.31845848608457"><ele>833.0</ele><time>2026-04-18T08:23:32.999Z</time></trkpt><trkpt lat="44.4812176276818" lon="9.318578494778256"><ele>833.0</ele><time>2026-04-18T08:23:33.999Z</time></trkpt><trkpt lat="44.481104516854884" lon="9.318735179572274"><ele>831.6666666666667</ele><time>2026-04-18T08:23:34.999Z</time></trkpt><trkpt lat="44.48100650665696" lon="9.318935154543693"><ele>830.3333333333333</ele><time>2026-04-18T08:23:35.999Z</time></trkpt><trkpt lat="44.48091478776869" lon="9.319162179288805"><ele>829.0</ele><time>2026-04-18T08:23:36.999Z</time></trkpt><trkpt lat="44.48082564132661" lon="9.319402219935482"><ele>829.0</ele><time>2026-04-18T08:23:37.999Z</time></trkpt><trkpt lat="44.48076426123073" lon="9.319619506869392"><ele>829.0</ele><time>2026-04-18T08:23:38.999Z</time></trkpt><trkpt lat="44.48071555563616" lon="9.31983236089905"><ele>829.0</ele><time>2026-04-18T08:23:39.999Z</time></trkpt><trkpt lat="44.48064865576916" lon="9.32006011781367"><ele>831.0</ele><time>2026-04-18T08:23:40.999Z</time></trkpt><trkpt lat="44.480595990737086" lon="9.320319752522654"><ele>833.0</ele><time>2026-04-18T08:23:41.999Z</time></trkpt><trkpt lat="44.48051989691796" lon="9.320569120965683"><ele>835.0</ele><time>2026-04-18T08:23:42.999Z</time></trkpt><trkpt lat="44.4804002532674" lon="9.320824131690003"><ele>831.3333333333333</ele><time>2026-04-18T08:23:43.999Z</time></trkpt><trkpt lat="44.48028391147013" lon="9.32107799678139"><ele>827.6666666666667</ele><time>2026-04-18T08:23:44.999Z</time></trkpt><trkpt lat="44.48018284537631" lon="9.32131120334835"><ele>824.0</ele><time>2026-04-18T08:23:45.999Z</time></trkpt><trkpt lat="44.480112508837195" lon="9.321548354700768"><ele>824.0</ele><time>2026-04-18T08:23:46.999Z</time></trkpt><trkpt lat="44.48003925229922" lon="9.321766577611767"><ele>824.0</ele><time>2026-04-18T08:23:47.999Z</time></trkpt><trkpt lat="44.47996024036913" lon="9.321984345642472"><ele>824.0</ele><time>2026-04-18T08:23:48.999Z</time></trkpt><trkpt lat="44.479837926439714" lon="9.322201079518129"><ele>824.3333333333334</ele><time>2026-04-18T08:23:49.999Z</time></trkpt><trkpt lat="44.47973180407083" lon="9.322415901099536"><ele>824.6666666666667</ele><time>2026-04-18T08:23:50.999Z</time></trkpt><trkpt lat="44.479654154221784" lon="9.322611304418094"><ele>825.0</ele><time>2026-04-18T08:23:51.999Z</time></trkpt><trkpt lat="44.47959227564013" lon="9.32276633091097"><ele>825.25</ele><time>2026-04-18T08:23:52.999Z</time></trkpt><trkpt lat="44.47957054934006" lon="9.322936985308099"><ele>825.5</ele><time>2026-04-18T08:23:53.999Z</time></trkpt><trkpt lat="44.47959250984714" lon="9.323133513289127"><ele>825.75</ele><time>2026-04-18T08:23:54.999Z</time></trkpt><trkpt lat="44.47961177498841" lon="9.323358987434082"><ele>826.0</ele><time>2026-04-18T08:23:55.999Z</time></trkpt><trkpt lat="44.47964829590109" lon="9.323628604571907"><ele>825.0</ele><time>2026-04-18T08:23:56.999Z</time></trkpt><trkpt lat="44.47967915295142" lon="9.323864464552292"><ele>824.0</ele><time>2026-04-18T08:23:57.999Z</time></trkpt><trkpt lat="44.47970704794651" lon="9.324071884780595"><ele>823.0</ele><time>2026-04-18T08:23:58.999Z</time></trkpt><trkpt lat="44.479732921502965" lon="9.324261132664471"><ele>823.0</ele><time>2026-04-18T08:23:59.999Z</time></trkpt><trkpt lat="44.47975715344521" lon="9.324438373524595"><ele>823.0</ele><time>2026-04-18T08:24:00.999Z</time></trkpt><trkpt lat="44.47978215802691" lon="9.324621265542866"><ele>823.0</ele><time>2026-04-18T08:24:01.999Z</time></trkpt><trkpt lat="44.4797996438355" lon="9.324816516775075"><ele>823.0</ele><time>2026-04-18T08:24:02.999Z</time></trkpt><trkpt lat="44.4798052845888" lon="9.324991960691122"><ele>823.25</ele><time>2026-04-18T08:24:03.999Z</time></trkpt><trkpt lat="44.479798468373836" lon="9.325150513166024"><ele>823.5</ele><time>2026-04-18T08:24:04.999Z</time></trkpt><trkpt lat="44.47978273415931" lon="9.32530739544348"><ele>823.75</ele><time>2026-04-18T08:24:05.999Z</time></trkpt><trkpt lat="44.47975614969929" lon="9.325474024075914"><ele>824.0</ele><time>2026-04-18T08:24:06.999Z</time></trkpt><trkpt lat="44.47972514991057" lon="9.325628156357116"><ele>824.0000000000001</ele><time>2026-04-18T08:24:07.999Z</time></trkpt><trkpt lat="44.47969834357155" lon="9.325754209053292"><ele>824.0</ele><time>2026-04-18T08:24:08.999Z</time></trkpt><trkpt lat="44.479673707276085" lon="9.325870057126622"><ele>824.0</ele><time>2026-04-18T08:24:09.999Z</time></trkpt><trkpt lat="44.479652885266404" lon="9.32596796914566"><ele>824.0</ele><time>2026-04-18T08:24:10.999Z</time></trkpt><trkpt lat="44.47962929503492" lon="9.326118201772463"><ele>824.0000000000001</ele><time>2026-04-18T08:24:12.999Z</time></trkpt><trkpt lat="44.47960532489802" lon="9.326220255688646"><ele>824.0</ele><time>2026-04-18T08:24:14.999Z</time></trkpt><trkpt lat="44.47958140525134" lon="9.326332779869464"><ele>824.0</ele><time>2026-04-18T08:24:16.999Z</time></trkpt><trkpt lat="44.479754264745196" lon="9.326439276045159"><ele>824.0</ele><time>2026-04-18T08:24:18.999Z</time></trkpt><trkpt lat="44.479855010798616" lon="9.326468352196464"><ele>824.0</ele><time>2026-04-18T08:24:19.999Z</time></trkpt><trkpt lat="44.4799412638827" lon="9.326502709965748"><ele>824.0</ele><time>2026-04-18T08:24:20.999Z</time></trkpt><trkpt lat="44.480045543180864" lon="9.326557222686391"><ele>824.0</ele><time>2026-04-18T08:24:21.999Z</time></trkpt><trkpt lat="44.48016446542316" lon="9.326625448396959"><ele>824.0</ele><time>2026-04-18T08:24:22.999Z</time></trkpt><trkpt lat="44.48027318271815" lon="9.326730806115235"><ele>824.0</ele><time>2026-04-18T08:24:24Z</time></trkpt><trkpt lat="44.48038524221691" lon="9.326846619051674"><ele>824.0</ele><time>2026-04-18T08:24:25Z</time></trkpt><trkpt lat="44.480504482184536" lon="9.326974222290351"><ele>826.0</ele><time>2026-04-18T08:24:26Z</time></trkpt><trkpt lat="44.48062033809443" lon="9.327115023878735"><ele>828.0</ele><time>2026-04-18T08:24:27Z</time></trkpt><trkpt lat="44.48073155173827" lon="9.32725040096786"><ele>830.0</ele><time>2026-04-18T08:24:28Z</time></trkpt><trkpt lat="44.480860972456206" lon="9.327403929196956"><ele>830.0</ele><time>2026-04-18T08:24:29Z</time></trkpt><trkpt lat="44.48098931115945" lon="9.327553708922643"><ele>830.0</ele><time>2026-04-18T08:24:30Z</time></trkpt><trkpt lat="44.481115054185295" lon="9.327670748668885"><ele>830.0</ele><time>2026-04-18T08:24:31Z</time></trkpt><trkpt lat="44.481224427855466" lon="9.327807950348888"><ele>830.0</ele><time>2026-04-18T08:24:32Z</time></trkpt><trkpt lat="44.48133879458873" lon="9.32794045703307"><ele>830.0</ele><time>2026-04-18T08:24:33Z</time></trkpt><trkpt lat="44.48144514669832" lon="9.328068363619868"><ele>830.0</ele><time>2026-04-18T08:24:34Z</time></trkpt><trkpt lat="44.48155217343607" lon="9.32819972657214"><ele>830.0</ele><time>2026-04-18T08:24:35Z</time></trkpt><trkpt lat="44.48168963786214" lon="9.328312079667427"><ele>830.0</ele><time>2026-04-18T08:24:36Z</time></trkpt><trkpt lat="44.481846262399024" lon="9.32843610802302"><ele>830.0</ele><time>2026-04-18T08:24:37Z</time></trkpt><trkpt lat="44.482011147433184" lon="9.32857095645719"><ele>830.0</ele><time>2026-04-18T08:24:38Z</time></trkpt><trkpt lat="44.48217270807789" lon="9.328682152429787"><ele>829.3333333333334</ele><time>2026-04-18T08:24:39Z</time></trkpt><trkpt lat="44.48231169371522" lon="9.328778168782554"><ele>828.6666666666667</ele><time>2026-04-18T08:24:40Z</time></trkpt><trkpt lat="44.48246011676163" lon="9.328854847722106"><ele>828.0</ele><time>2026-04-18T08:24:41Z</time></trkpt><trkpt lat="44.4826276240384" lon="9.328931856386816"><ele>828.0</ele><time>2026-04-18T08:24:42Z</time></trkpt><trkpt lat="44.48277588400739" lon="9.329053291785435"><ele>828.0</ele><time>2026-04-18T08:24:43Z</time></trkpt><trkpt lat="44.48289309231191" lon="9.329172503078372"><ele>828.0</ele><time>2026-04-18T08:24:44Z</time></trkpt><trkpt lat="44.48300953341306" lon="9.329308635906933"><ele>828.0</ele><time>2026-04-18T08:24:45Z</time></trkpt><trkpt lat="44.48312717340615" lon="9.3294498165018"><ele>828.0</ele><time>2026-04-18T08:24:46Z</time></trkpt><trkpt lat="44.48326409720303" lon="9.329615884493315"><ele>828.0</ele><time>2026-04-18T08:24:47Z</time></trkpt><trkpt lat="44.48341441343754" lon="9.329798194939837"><ele>828.0</ele><time>2026-04-18T08:24:48Z</time></trkpt><trkpt lat="44.483545481493245" lon="9.329957105415499"><ele>828.0</ele><time>2026-04-18T08:24:49Z</time></trkpt><trkpt lat="44.483669116439195" lon="9.330106540250025"><ele>828.0</ele><time>2026-04-18T08:24:50Z</time></trkpt><trkpt lat="44.483804158408866" lon="9.330269762351122"><ele>829.6666666666667</ele><time>2026-04-18T08:24:51Z</time></trkpt><trkpt lat="44.48393958188393" lon="9.330435659344731"><ele>831.3333333333334</ele><time>2026-04-18T08:24:52Z</time></trkpt><trkpt lat="44.48407972258767" lon="9.330608920064677"><ele>833.0</ele><time>2026-04-18T08:24:53Z</time></trkpt><trkpt lat="44.484217275646806" lon="9.330778981722947"><ele>833.0</ele><time>2026-04-18T08:24:54Z</time></trkpt><trkpt lat="44.48436219559026" lon="9.33095499319369"><ele>833.0</ele><time>2026-04-18T08:24:55Z</time></trkpt><trkpt lat="44.48450685374023" lon="9.33112663703882"><ele>833.0</ele><time>2026-04-18T08:24:56Z</time></trkpt><trkpt lat="44.484657329532084" lon="9.331301628985749"><ele>834.3333333333334</ele><time>2026-04-18T08:24:57Z</time></trkpt><trkpt lat="44.48479990402633" lon="9.331462303257995"><ele>835.6666666666667</ele><time>2026-04-18T08:24:58Z</time></trkpt><trkpt lat="44.48492658034871" lon="9.331608913364905"><ele>837.0</ele><time>2026-04-18T08:24:59Z</time></trkpt><trkpt lat="44.4850467898041" lon="9.331755788356642"><ele>837.0</ele><time>2026-04-18T08:25:00Z</time></trkpt><trkpt lat="44.48517131962691" lon="9.331926006941789"><ele>837.0</ele><time>2026-04-18T08:25:01Z</time></trkpt><trkpt lat="44.48528538997566" lon="9.332105406202803"><ele>837.0</ele><time>2026-04-18T08:25:02Z</time></trkpt><trkpt lat="44.4853936812277" lon="9.332288077558657"><ele>837.6666666666667</ele><time>2026-04-18T08:25:03Z</time></trkpt><trkpt lat="44.48548945050584" lon="9.332466875952242"><ele>838.3333333333334</ele><time>2026-04-18T08:25:04Z</time></trkpt><trkpt lat="44.485582375239886" lon="9.332665290164584"><ele>839.0</ele><time>2026-04-18T08:25:05Z</time></trkpt><trkpt lat="44.48566316698894" lon="9.332862804571757"><ele>835.3333333333334</ele><time>2026-04-18T08:25:06Z</time></trkpt><trkpt lat="44.4857340962176" lon="9.333056948916349"><ele>831.6666666666667</ele><time>2026-04-18T08:25:07Z</time></trkpt><trkpt lat="44.485811063026" lon="9.33326564700076"><ele>828.0</ele><time>2026-04-18T08:25:08Z</time></trkpt><trkpt lat="44.485886349255" lon="9.333467281422191"><ele>828.0</ele><time>2026-04-18T08:25:09Z</time></trkpt><trkpt lat="44.485956488170146" lon="9.333658590183873"><ele>828.0</ele><time>2026-04-18T08:25:10Z</time></trkpt><trkpt lat="44.4860230509018" lon="9.333838116912354"><ele>828.0</ele><time>2026-04-18T08:25:11Z</time></trkpt><trkpt lat="44.486093430257874" lon="9.334024718200563"><ele>828.0</ele><time>2026-04-18T08:25:12Z</time></trkpt><trkpt lat="44.48615785455886" lon="9.334181980895528"><ele>828.6666666666667</ele><time>2026-04-18T08:25:13Z</time></trkpt><trkpt lat="44.48624514173001" lon="9.334344863170712"><ele>829.3333333333334</ele><time>2026-04-18T08:25:14Z</time></trkpt><trkpt lat="44.48637084239135" lon="9.334495029546117"><ele>830.0</ele><time>2026-04-18T08:25:15Z</time></trkpt><trkpt lat="44.48651299936588" lon="9.334653693692434"><ele>828.3333333333334</ele><time>2026-04-18T08:25:16Z</time></trkpt><trkpt lat="44.48666929814015" lon="9.334828141471396"><ele>826.6666666666667</ele><time>2026-04-18T08:25:17Z</time></trkpt><trkpt lat="44.48680444603097" lon="9.334974480774274"><ele>825.0</ele><time>2026-04-18T08:25:18Z</time></trkpt><trkpt lat="44.48693290076089" lon="9.335113334893931"><ele>825.0</ele><time>2026-04-18T08:25:19Z</time></trkpt><trkpt lat="44.48707648803877" lon="9.335256182164056"><ele>825.0</ele><time>2026-04-18T08:25:20Z</time></trkpt><trkpt lat="44.487239099357964" lon="9.33537996543202"><ele>825.0</ele><time>2026-04-18T08:25:21Z</time></trkpt><trkpt lat="44.487409994432944" lon="9.33549277402969"><ele>825.0</ele><time>2026-04-18T08:25:22Z</time></trkpt><trkpt lat="44.48756824612574" lon="9.335594723616206"><ele>825.0</ele><time>2026-04-18T08:25:23Z</time></trkpt><trkpt lat="44.48774948421258" lon="9.335711019525794"><ele>825.0</ele><time>2026-04-18T08:25:24Z</time></trkpt><trkpt lat="44.487951896816355" lon="9.335848264293674"><ele>830.6666666666667</ele><time>2026-04-18T08:25:25Z</time></trkpt><trkpt lat="44.48812912415189" lon="9.335970976666193"><ele>836.3333333333334</ele><time>2026-04-18T08:25:26Z</time></trkpt><trkpt lat="44.48829062458967" lon="9.33609069469591"><ele>842.0</ele><time>2026-04-18T08:25:27Z</time></trkpt><trkpt lat="44.4884499541222" lon="9.33622403047592"><ele>836.6666666666667</ele><time>2026-04-18T08:25:28Z</time></trkpt><trkpt lat="44.48859408373013" lon="9.336396905945781"><ele>831.3333333333333</ele><time>2026-04-18T08:25:28.999Z</time></trkpt><trkpt lat="44.48873827947902" lon="9.33659646786144"><ele>826.0</ele><time>2026-04-18T08:25:29.999Z</time></trkpt><trkpt lat="44.488874856972906" lon="9.33679040953591"><ele>826.0</ele><time>2026-04-18T08:25:30.999Z</time></trkpt><trkpt lat="44.48900287541588" lon="9.336973260196396"><ele>826.0</ele><time>2026-04-18T08:25:31.999Z</time></trkpt><trkpt lat="44.48913240726242" lon="9.337152008623677"><ele>826.0</ele><time>2026-04-18T08:25:32.999Z</time></trkpt><trkpt lat="44.48926968613872" lon="9.337341630486014"><ele>826.6666666666666</ele><time>2026-04-18T08:25:33.999Z</time></trkpt><trkpt lat="44.48940114069985" lon="9.337523418562036"><ele>827.3333333333333</ele><time>2026-04-18T08:25:34.999Z</time></trkpt><trkpt lat="44.48952393932783" lon="9.337693730987949"><ele>828.0</ele><time>2026-04-18T08:25:35.999Z</time></trkpt><trkpt lat="44.489640639476306" lon="9.337860053735211"><ele>828.0</ele><time>2026-04-18T08:25:36.999Z</time></trkpt><trkpt lat="44.489762370476065" lon="9.33803943066427"><ele>828.0</ele><time>2026-04-18T08:25:37.999Z</time></trkpt><trkpt lat="44.48988455299038" lon="9.338224938571033"><ele>828.0</ele><time>2026-04-18T08:25:38.999Z</time></trkpt><trkpt lat="44.49000497786401" lon="9.338413105378855"><ele>826.25</ele><time>2026-04-18T08:25:39.999Z</time></trkpt><trkpt lat="44.49010979932388" lon="9.338584286174784"><ele>824.5</ele><time>2026-04-18T08:25:40.999Z</time></trkpt><trkpt lat="44.49020483545301" lon="9.338737344950813"><ele>822.75</ele><time>2026-04-18T08:25:41.999Z</time></trkpt><trkpt lat="44.4902976102784" lon="9.338875132699044"><ele>821.0</ele><time>2026-04-18T08:25:42.999Z</time></trkpt><trkpt lat="44.49039300942881" lon="9.338992627191134"><ele>820.3333333333334</ele><time>2026-04-18T08:25:43.999Z</time></trkpt><trkpt lat="44.490537381868265" lon="9.33912819551689"><ele>819.6666666666667</ele><time>2026-04-18T08:25:44.999Z</time></trkpt><trkpt lat="44.49070541732512" lon="9.339248408220456"><ele>819.0</ele><time>2026-04-18T08:25:45.999Z</time></trkpt><trkpt lat="44.49089471841197" lon="9.339370397800263"><ele>819.0</ele><time>2026-04-18T08:25:46.999Z</time></trkpt><trkpt lat="44.49106434908994" lon="9.33945589731545"><ele>819.0</ele><time>2026-04-18T08:25:47.999Z</time></trkpt><trkpt lat="44.491218768502144" lon="9.339501976593791"><ele>819.0</ele><time>2026-04-18T08:25:48.999Z</time></trkpt><trkpt lat="44.49135344285586" lon="9.339524602928375"><ele>819.4000000000001</ele><time>2026-04-18T08:25:49.999Z</time></trkpt><trkpt lat="44.491476934636324" lon="9.339569467359933"><ele>819.8</ele><time>2026-04-18T08:25:50.999Z</time></trkpt><trkpt lat="44.491582341089405" lon="9.339635983919473"><ele>820.2</ele><time>2026-04-18T08:25:51.999Z</time></trkpt><trkpt lat="44.49166598795569" lon="9.339698926157839"><ele>820.5999999999999</ele><time>2026-04-18T08:25:52.999Z</time></trkpt><trkpt lat="44.491714671706454" lon="9.339787733912505"><ele>821.0</ele><time>2026-04-18T08:25:53.999Z</time></trkpt><trkpt lat="44.49206351171547" lon="9.340095769676964"><ele>821.25</ele><time>2026-04-18T08:25:55.999Z</time></trkpt><trkpt lat="44.49215660777819" lon="9.34018574194434"><ele>821.5</ele><time>2026-04-18T08:25:56.999Z</time></trkpt><trkpt lat="44.49225514154096" lon="9.340288020597486"><ele>821.75</ele><time>2026-04-18T08:25:57.999Z</time></trkpt><trkpt lat="44.49234477694868" lon="9.340405450677533"><ele>822.0</ele><time>2026-04-18T08:25:58.999Z</time></trkpt><trkpt lat="44.49241458025245" lon="9.340520318293997"><ele>820.5</ele><time>2026-04-18T08:25:59.999Z</time></trkpt><trkpt lat="44.492489440080426" lon="9.340648902624972"><ele>819.0</ele><time>2026-04-18T08:26:00.999Z</time></trkpt><trkpt lat="44.492567602204396" lon="9.340793906486178"><ele>817.5</ele><time>2026-04-18T08:26:01.999Z</time></trkpt><trkpt lat="44.49265665899749" lon="9.340961867150897"><ele>816.0</ele><time>2026-04-18T08:26:02.999Z</time></trkpt><trkpt lat="44.49274475113117" lon="9.341128499906493"><ele>816.0</ele><time>2026-04-18T08:26:03.999Z</time></trkpt><trkpt lat="44.49281822975702" lon="9.341275627564482"><ele>816.0</ele><time>2026-04-18T08:26:04.999Z</time></trkpt><trkpt lat="44.49287646101778" lon="9.34141801767093"><ele>816.0</ele><time>2026-04-18T08:26:05.999Z</time></trkpt><trkpt lat="44.49292172902385" lon="9.341576591392773"><ele>816.0</ele><time>2026-04-18T08:26:06.999Z</time></trkpt><trkpt lat="44.492952389560706" lon="9.341770519291902"><ele>816.25</ele><time>2026-04-18T08:26:07.999Z</time></trkpt><trkpt lat="44.492977489582486" lon="9.341983838431274"><ele>816.5</ele><time>2026-04-18T08:26:08.999Z</time></trkpt><trkpt lat="44.4930022129914" lon="9.342172426872427"><ele>816.75</ele><time>2026-04-18T08:26:09.999Z</time></trkpt><trkpt lat="44.49302973383204" lon="9.342358306483387"><ele>817.0</ele><time>2026-04-18T08:26:10.999Z</time></trkpt><trkpt lat="44.49305756929251" lon="9.342554085118298"><ele>818.0</ele><time>2026-04-18T08:26:11.999Z</time></trkpt><trkpt lat="44.493084450994544" lon="9.342747721830841"><ele>819.0</ele><time>2026-04-18T08:26:12.999Z</time></trkpt><trkpt lat="44.493108961793524" lon="9.34292428030554"><ele>820.0</ele><time>2026-04-18T08:26:13.999Z</time></trkpt><trkpt lat="44.49313614657405" lon="9.343077990186373"><ele>821.0</ele><time>2026-04-18T08:26:14.999Z</time></trkpt><trkpt lat="44.493159627170584" lon="9.343239672240232"><ele>821.5999999999999</ele><time>2026-04-18T08:26:15.999Z</time></trkpt><trkpt lat="44.49317262596117" lon="9.343390662784827"><ele>822.2</ele><time>2026-04-18T08:26:16.999Z</time></trkpt><trkpt lat="44.493201389928615" lon="9.34352659334722"><ele>822.8</ele><time>2026-04-18T08:26:17.999Z</time></trkpt><trkpt lat="44.49322269666017" lon="9.343665203274687"><ele>823.4000000000001</ele><time>2026-04-18T08:26:18.999Z</time></trkpt><trkpt lat="44.49327034097417" lon="9.343802475374615"><ele>824.0</ele><time>2026-04-18T08:26:19.999Z</time></trkpt><trkpt lat="44.493356080998005" lon="9.343930738646693"><ele>822.5</ele><time>2026-04-18T08:26:20.999Z</time></trkpt><trkpt lat="44.493464656950465" lon="9.344031257344637"><ele>821.0</ele><time>2026-04-18T08:26:21.999Z</time></trkpt><trkpt lat="44.49358137159982" lon="9.344141374501989"><ele>819.5</ele><time>2026-04-18T08:26:22.999Z</time></trkpt><trkpt lat="44.493701314325904" lon="9.344227221200503"><ele>818.0</ele><time>2026-04-18T08:26:23.999Z</time></trkpt><trkpt lat="44.49381465895854" lon="9.34429944641597"><ele>821.25</ele><time>2026-04-18T08:26:24.999Z</time></trkpt><trkpt lat="44.49392608719352" lon="9.34437959047228"><ele>824.5</ele><time>2026-04-18T08:26:25.999Z</time></trkpt><trkpt lat="44.494035121952926" lon="9.34448886290127"><ele>827.75</ele><time>2026-04-18T08:26:26.999Z</time></trkpt><trkpt lat="44.49416188778938" lon="9.344588498676709"><ele>831.0</ele><time>2026-04-18T08:26:27.999Z</time></trkpt><trkpt lat="44.494282309667106" lon="9.344695564303956"><ele>828.5</ele><time>2026-04-18T08:26:28.999Z</time></trkpt><trkpt lat="44.494377092965884" lon="9.344819744140409"><ele>826.0</ele><time>2026-04-18T08:26:30Z</time></trkpt><trkpt lat="44.494479514971495" lon="9.344981452917676"><ele>823.5</ele><time>2026-04-18T08:26:31Z</time></trkpt><trkpt lat="44.49458018925278" lon="9.345142002961188"><ele>821.0</ele><time>2026-04-18T08:26:32Z</time></trkpt><trkpt lat="44.494673219210576" lon="9.345290362367118"><ele>821.0</ele><time>2026-04-18T08:26:33Z</time></trkpt><trkpt lat="44.49475969655664" lon="9.345428272112695"><ele>821.0</ele><time>2026-04-18T08:26:34Z</time></trkpt><trkpt lat="44.494840636667035" lon="9.345557351155682"><ele>821.0</ele><time>2026-04-18T08:26:35Z</time></trkpt><trkpt lat="44.49491663718514" lon="9.345681310543252"><ele>821.0</ele><time>2026-04-18T08:26:36Z</time></trkpt><trkpt lat="44.494994388702175" lon="9.345820187968382"><ele>819.4</ele><time>2026-04-18T08:26:37Z</time></trkpt><trkpt lat="44.4950600927496" lon="9.34596605930019"><ele>817.8</ele><time>2026-04-18T08:26:38Z</time></trkpt><trkpt lat="44.49510910790544" lon="9.34610143268149"><ele>816.1999999999999</ele><time>2026-04-18T08:26:39Z</time></trkpt><trkpt lat="44.49514896377319" lon="9.346233040661756"><ele>814.5999999999999</ele><time>2026-04-18T08:26:40Z</time></trkpt><trkpt lat="44.49518442327624" lon="9.346364580700342"><ele>813.0</ele><time>2026-04-18T08:26:41Z</time></trkpt><trkpt lat="44.495214513126214" lon="9.346472215156343"><ele>813.0</ele><time>2026-04-18T08:26:42Z</time></trkpt><trkpt lat="44.49524091720152" lon="9.346564959732643"><ele>813.0</ele><time>2026-04-18T08:26:43Z</time></trkpt><trkpt lat="44.49526843504792" lon="9.346661062555274"><ele>813.0</ele><time>2026-04-18T08:26:44Z</time></trkpt><trkpt lat="44.495304335739156" lon="9.346758645258165"><ele>813.0</ele><time>2026-04-18T08:26:45Z</time></trkpt><trkpt lat="44.495358451144845" lon="9.346848845836059"><ele>813.0</ele><time>2026-04-18T08:26:46Z</time></trkpt><trkpt lat="44.49543890073626" lon="9.346923633340253"><ele>813.0</ele><time>2026-04-18T08:26:47Z</time></trkpt><trkpt lat="44.495547436260885" lon="9.346945523227895"><ele>812.8</ele><time>2026-04-18T08:26:48Z</time></trkpt><trkpt lat="44.4956617101385" lon="9.3469541463643"><ele>812.5999999999999</ele><time>2026-04-18T08:26:49Z</time></trkpt><trkpt lat="44.49576618269319" lon="9.346963671036288"><ele>812.4000000000001</ele><time>2026-04-18T08:26:50Z</time></trkpt><trkpt lat="44.49586942722506" lon="9.346982626135262"><ele>812.2</ele><time>2026-04-18T08:26:51Z</time></trkpt><trkpt lat="44.495973727971766" lon="9.347019091532651"><ele>812.0</ele><time>2026-04-18T08:26:52Z</time></trkpt><trkpt lat="44.49608082776159" lon="9.347083920204092"><ele>812.0</ele><time>2026-04-18T08:26:53Z</time></trkpt><trkpt lat="44.496180937058945" lon="9.347177507729553"><ele>812.0</ele><time>2026-04-18T08:26:54Z</time></trkpt><trkpt lat="44.49628563729253" lon="9.347309510939326"><ele>812.0</ele><time>2026-04-18T08:26:55Z</time></trkpt><trkpt lat="44.49637186309539" lon="9.347460251027897"><ele>812.0</ele><time>2026-04-18T08:26:56Z</time></trkpt><trkpt lat="44.49642709694372" lon="9.347609772820704"><ele>811.3333333333334</ele><time>2026-04-18T08:26:57Z</time></trkpt><trkpt lat="44.49646869744912" lon="9.34777766247807"><ele>810.6666666666667</ele><time>2026-04-18T08:26:58Z</time></trkpt><trkpt lat="44.49650115482471" lon="9.347987512219419"><ele>810.0</ele><time>2026-04-18T08:26:59Z</time></trkpt><trkpt lat="44.496538299413864" lon="9.348244560859182"><ele>812.0</ele><time>2026-04-18T08:27:00Z</time></trkpt><trkpt lat="44.49659148744943" lon="9.348536514831935"><ele>814.0</ele><time>2026-04-18T08:27:01Z</time></trkpt><trkpt lat="44.49665897175544" lon="9.348843055566565"><ele>816.0</ele><time>2026-04-18T08:27:02Z</time></trkpt><trkpt lat="44.496716484558206" lon="9.349091985674082"><ele>817.6666666666667</ele><time>2026-04-18T08:27:03Z</time></trkpt><trkpt lat="44.49676757337796" lon="9.349313111040622"><ele>819.3333333333334</ele><time>2026-04-18T08:27:04Z</time></trkpt><trkpt lat="44.496816749539505" lon="9.349513053833817"><ele>821.0</ele><time>2026-04-18T08:27:05Z</time></trkpt><trkpt lat="44.4968637543311" lon="9.349691460245172"><ele>821.5</ele><time>2026-04-18T08:27:06Z</time></trkpt><trkpt lat="44.496930036628534" lon="9.349857680855747"><ele>822.0</ele><time>2026-04-18T08:27:07Z</time></trkpt><trkpt lat="44.49704865567428" lon="9.350008842876898"><ele>822.5</ele><time>2026-04-18T08:27:08Z</time></trkpt><trkpt lat="44.49716475662174" lon="9.350109229293249"><ele>823.0</ele><time>2026-04-18T08:27:09Z</time></trkpt><trkpt lat="44.49730276093405" lon="9.350199530590245"><ele>823.25</ele><time>2026-04-18T08:27:10Z</time></trkpt><trkpt lat="44.49740667388728" lon="9.350362443410004"><ele>823.5</ele><time>2026-04-18T08:27:11Z</time></trkpt><trkpt lat="44.49750923374451" lon="9.350500661917799"><ele>823.75</ele><time>2026-04-18T08:27:12Z</time></trkpt><trkpt lat="44.49761442641374" lon="9.350621306348469"><ele>824.0</ele><time>2026-04-18T08:27:13Z</time></trkpt><trkpt lat="44.497731568255176" lon="9.350742590975402"><ele>824.0</ele><time>2026-04-18T08:27:14Z</time></trkpt><trkpt lat="44.49786097882245" lon="9.35087862117417"><ele>824.0</ele><time>2026-04-18T08:27:15Z</time></trkpt><trkpt lat="44.498007855324" lon="9.351034375420921"><ele>824.0</ele><time>2026-04-18T08:27:16Z</time></trkpt><trkpt lat="44.49813746499786" lon="9.351195796859994"><ele>822.5</ele><time>2026-04-18T08:27:17Z</time></trkpt><trkpt lat="44.4982280410269" lon="9.351360424816923"><ele>821.0</ele><time>2026-04-18T08:27:18Z</time></trkpt><trkpt lat="44.498312669629755" lon="9.351499081826997"><ele>819.5</ele><time>2026-04-18T08:27:19Z</time></trkpt><trkpt lat="44.49838822381229" lon="9.351596427947152"><ele>818.0</ele><time>2026-04-18T08:27:20Z</time></trkpt><trkpt lat="44.498491235253894" lon="9.351672866312759"><ele>818.0</ele><time>2026-04-18T08:27:21Z</time></trkpt><trkpt lat="44.49861664932423" lon="9.351679926233967"><ele>818.0</ele><time>2026-04-18T08:27:22Z</time></trkpt><trkpt lat="44.49874734128223" lon="9.351638656422123"><ele>818.0</ele><time>2026-04-18T08:27:23Z</time></trkpt><trkpt lat="44.498896131502946" lon="9.351541264470258"><ele>818.0</ele><time>2026-04-18T08:27:24Z</time></trkpt><trkpt lat="44.499061407943266" lon="9.351412900165993"><ele>813.6666666666667</ele><time>2026-04-18T08:27:25Z</time></trkpt><trkpt lat="44.499220175111866" lon="9.351289711157728"><ele>809.3333333333333</ele><time>2026-04-18T08:27:26Z</time></trkpt><trkpt lat="44.499357439741814" lon="9.351166685998942"><ele>805.0</ele><time>2026-04-18T08:27:27Z</time></trkpt><trkpt lat="44.49949191056074" lon="9.351036563782504"><ele>807.3333333333333</ele><time>2026-04-18T08:27:28Z</time></trkpt><trkpt lat="44.499646541506365" lon="9.350947938202252"><ele>809.6666666666667</ele><time>2026-04-18T08:27:29Z</time></trkpt><trkpt lat="44.49979908167945" lon="9.350823333784229"><ele>812.0</ele><time>2026-04-18T08:27:30Z</time></trkpt><trkpt lat="44.49994415321902" lon="9.350734731705385"><ele>812.0</ele><time>2026-04-18T08:27:31Z</time></trkpt><trkpt lat="44.50007039531094" lon="9.350638568119878"><ele>812.0</ele><time>2026-04-18T08:27:32Z</time></trkpt><trkpt lat="44.50019685706153" lon="9.350603489221298"><ele>812.0</ele><time>2026-04-18T08:27:33Z</time></trkpt><trkpt lat="44.50032800656929" lon="9.350587706572442"><ele>812.0</ele><time>2026-04-18T08:27:34Z</time></trkpt><trkpt lat="44.50049397954417" lon="9.350619361844833"><ele>812.0</ele><time>2026-04-18T08:27:34.999Z</time></trkpt><trkpt lat="44.50066985808367" lon="9.350629159003725"><ele>812.0</ele><time>2026-04-18T08:27:35.999Z</time></trkpt><trkpt lat="44.50080922668348" lon="9.350623490685233"><ele>812.0</ele><time>2026-04-18T08:27:36.999Z</time></trkpt><trkpt lat="44.500927146551675" lon="9.350641553039628"><ele>812.0</ele><time>2026-04-18T08:27:37.999Z</time></trkpt><trkpt lat="44.501020690422884" lon="9.350691417777803"><ele>812.0</ele><time>2026-04-18T08:27:38.999Z</time></trkpt><trkpt lat="44.50109063031254" lon="9.350802518622267"><ele>812.0</ele><time>2026-04-18T08:27:39.999Z</time></trkpt><trkpt lat="44.50115020855089" lon="9.35095494868582"><ele>812.0</ele><time>2026-04-18T08:27:40.999Z</time></trkpt><trkpt lat="44.50123041151016" lon="9.35117738500872"><ele>812.0</ele><time>2026-04-18T08:27:41.999Z</time></trkpt><trkpt lat="44.50133877612248" lon="9.351408122034917"><ele>812.3333333333334</ele><time>2026-04-18T08:27:42.999Z</time></trkpt><trkpt lat="44.50148535684627" lon="9.351624123043774"><ele>812.6666666666667</ele><time>2026-04-18T08:27:43.999Z</time></trkpt><trkpt lat="44.50160596351128" lon="9.351803423174896"><ele>813.0</ele><time>2026-04-18T08:27:44.999Z</time></trkpt><trkpt lat="44.50171153746774" lon="9.351960251657884"><ele>813.0</ele><time>2026-04-18T08:27:45.999Z</time></trkpt><trkpt lat="44.50182132278788" lon="9.352111157687531"><ele>813.0</ele><time>2026-04-18T08:27:46.999Z</time></trkpt><trkpt lat="44.50195116302558" lon="9.352249095677093"><ele>813.0</ele><time>2026-04-18T08:27:47.999Z</time></trkpt><trkpt lat="44.5021066093614" lon="9.352365897159567"><ele>813.6666666666667</ele><time>2026-04-18T08:27:48.999Z</time></trkpt><trkpt lat="44.50227298733797" lon="9.352458322467825"><ele>814.3333333333334</ele><time>2026-04-18T08:27:49.999Z</time></trkpt><trkpt lat="44.50244301091105" lon="9.352533510023743"><ele>815.0</ele><time>2026-04-18T08:27:50.999Z</time></trkpt><trkpt lat="44.5026084802917" lon="9.352606986538074"><ele>815.0</ele><time>2026-04-18T08:27:51.999Z</time></trkpt><trkpt lat="44.502775958669226" lon="9.352681355142431"><ele>815.0</ele><time>2026-04-18T08:27:52.999Z</time></trkpt><trkpt lat="44.502952613292386" lon="9.352759798451224"><ele>815.0</ele><time>2026-04-18T08:27:53.999Z</time></trkpt><trkpt lat="44.50313304859486" lon="9.352839920567645"><ele>812.6666666666667</ele><time>2026-04-18T08:27:54.999Z</time></trkpt><trkpt lat="44.50331736478166" lon="9.35292176598611"><ele>810.3333333333333</ele><time>2026-04-18T08:27:55.999Z</time></trkpt><trkpt lat="44.503507771299034" lon="9.353006764768061"><ele>808.0</ele><time>2026-04-18T08:27:56.999Z</time></trkpt><trkpt lat="44.50370377231895" lon="9.353096675615298"><ele>808.6666666666666</ele><time>2026-04-18T08:27:57.999Z</time></trkpt><trkpt lat="44.503900179577904" lon="9.353190431458131"><ele>809.3333333333333</ele><time>2026-04-18T08:27:58.999Z</time></trkpt><trkpt lat="44.504092618904764" lon="9.353283420707353"><ele>810.0</ele><time>2026-04-18T08:27:59.999Z</time></trkpt><trkpt lat="44.5042809161937" lon="9.353374968869499"><ele>810.0</ele><time>2026-04-18T08:28:00.999Z</time></trkpt><trkpt lat="44.50445428731507" lon="9.353460387337902"><ele>810.0</ele><time>2026-04-18T08:28:01.999Z</time></trkpt><trkpt lat="44.50461904210249" lon="9.353543972064205"><ele>810.0</ele><time>2026-04-18T08:28:02.999Z</time></trkpt><trkpt lat="44.50478336713457" lon="9.353600166519433"><ele>810.0</ele><time>2026-04-18T08:28:03.999Z</time></trkpt><trkpt lat="44.504932752153074" lon="9.35370105281293"><ele>810.0</ele><time>2026-04-18T08:28:04.999Z</time></trkpt><trkpt lat="44.505060404765985" lon="9.353811125757199"><ele>810.0</ele><time>2026-04-18T08:28:05.999Z</time></trkpt><trkpt lat="44.50519607202102" lon="9.353917959748584"><ele>810.6666666666667</ele><time>2026-04-18T08:28:06.999Z</time></trkpt><trkpt lat="44.5053578892423" lon="9.353992093660702"><ele>811.3333333333334</ele><time>2026-04-18T08:28:07.999Z</time></trkpt><trkpt lat="44.50551210063822" lon="9.354024430292812"><ele>812.0</ele><time>2026-04-18T08:28:08.999Z</time></trkpt><trkpt lat="44.50563772924557" lon="9.354069343326803"><ele>812.0</ele><time>2026-04-18T08:28:09.999Z</time></trkpt><trkpt lat="44.50575213592053" lon="9.3541154698188"><ele>812.0</ele><time>2026-04-18T08:28:10.999Z</time></trkpt><trkpt lat="44.50585408530346" lon="9.354192753851112"><ele>812.0</ele><time>2026-04-18T08:28:11.999Z</time></trkpt><trkpt lat="44.50593420972633" lon="9.354298705954784"><ele>812.0</ele><time>2026-04-18T08:28:12.999Z</time></trkpt><trkpt lat="44.50598939659024" lon="9.354459485926268"><ele>812.0</ele><time>2026-04-18T08:28:13.999Z</time></trkpt><trkpt lat="44.50606658161772" lon="9.35465294469127"><ele>812.0</ele><time>2026-04-18T08:28:14.999Z</time></trkpt><trkpt lat="44.50617875053372" lon="9.354820399553482"><ele>812.0</ele><time>2026-04-18T08:28:15.999Z</time></trkpt><trkpt lat="44.5062680749236" lon="9.354981295666901"><ele>812.5</ele><time>2026-04-18T08:28:16.999Z</time></trkpt><trkpt lat="44.506367640531415" lon="9.355079166304389"><ele>813.0</ele><time>2026-04-18T08:28:17.999Z</time></trkpt><trkpt lat="44.50646976444757" lon="9.355151941665207"><ele>813.5</ele><time>2026-04-18T08:28:18.999Z</time></trkpt><trkpt lat="44.506617235952596" lon="9.355193129803409"><ele>814.0</ele><time>2026-04-18T08:28:19.999Z</time></trkpt><trkpt lat="44.506779016469544" lon="9.355232729111979"><ele>814.0</ele><time>2026-04-18T08:28:20.999Z</time></trkpt><trkpt lat="44.50691845501561" lon="9.355234223217241"><ele>814.0</ele><time>2026-04-18T08:28:21.999Z</time></trkpt><trkpt lat="44.50706468407158" lon="9.355232045825973"><ele>814.0</ele><time>2026-04-18T08:28:22.999Z</time></trkpt><trkpt lat="44.50723298834123" lon="9.355223849131038"><ele>813.3333333333333</ele><time>2026-04-18T08:28:23.999Z</time></trkpt><trkpt lat="44.50738149296405" lon="9.355201312455357"><ele>812.6666666666667</ele><time>2026-04-18T08:28:24.999Z</time></trkpt><trkpt lat="44.50752729596753" lon="9.355146525396624"><ele>812.0</ele><time>2026-04-18T08:28:25.999Z</time></trkpt><trkpt lat="44.50768608042746" lon="9.355070541558835"><ele>812.0</ele><time>2026-04-18T08:28:26.999Z</time></trkpt><trkpt lat="44.50784409736194" lon="9.354975512206911"><ele>812.0</ele><time>2026-04-18T08:28:27.999Z</time></trkpt><trkpt lat="44.50800710980875" lon="9.354856040164444"><ele>812.0</ele><time>2026-04-18T08:28:28.999Z</time></trkpt><trkpt lat="44.50814889619603" lon="9.354716550410847"><ele>811.0</ele><time>2026-04-18T08:28:29.999Z</time></trkpt><trkpt lat="44.50827875457033" lon="9.354582089369785"><ele>810.0</ele><time>2026-04-18T08:28:30.999Z</time></trkpt><trkpt lat="44.50840433401645" lon="9.354445554391644"><ele>809.0</ele><time>2026-04-18T08:28:31.999Z</time></trkpt><trkpt lat="44.50851630525862" lon="9.354328856771643"><ele>809.0</ele><time>2026-04-18T08:28:32.999Z</time></trkpt><trkpt lat="44.50862313823715" lon="9.354247572591863"><ele>809.0</ele><time>2026-04-18T08:28:33.999Z</time></trkpt><trkpt lat="44.50874323278832" lon="9.354233058835588"><ele>809.0</ele><time>2026-04-18T08:28:34.999Z</time></trkpt><trkpt lat="44.50887640589726" lon="9.354243166981313"><ele>809.0</ele><time>2026-04-18T08:28:36Z</time></trkpt><trkpt lat="44.50905664857794" lon="9.354269968335059"><ele>807.6666666666667</ele><time>2026-04-18T08:28:37Z</time></trkpt><trkpt lat="44.509219635114874" lon="9.35429115168662"><ele>806.3333333333333</ele><time>2026-04-18T08:28:38Z</time></trkpt><trkpt lat="44.509392124608425" lon="9.35431392833143"><ele>805.0</ele><time>2026-04-18T08:28:39Z</time></trkpt><trkpt lat="44.509533220095" lon="9.35433287402545"><ele>805.0</ele><time>2026-04-18T08:28:40Z</time></trkpt><trkpt lat="44.50964516862513" lon="9.354347905988497"><ele>805.0</ele><time>2026-04-18T08:28:41Z</time></trkpt><trkpt lat="44.50974022306832" lon="9.354360809802493"><ele>805.0</ele><time>2026-04-18T08:28:42Z</time></trkpt><trkpt lat="44.50982142591506" lon="9.354386803773338"><ele>805.0</ele><time>2026-04-18T08:28:43Z</time></trkpt><trkpt lat="44.509918925721166" lon="9.354490043591857"><ele>805.0</ele><time>2026-04-18T08:28:44Z</time></trkpt><trkpt lat="44.5100196182743" lon="9.354710497905453"><ele>805.0</ele><time>2026-04-18T08:28:45Z</time></trkpt><trkpt lat="44.510074996654744" lon="9.354921262075468"><ele>805.0</ele><time>2026-04-18T08:28:46Z</time></trkpt><trkpt lat="44.510122637293584" lon="9.355074938399543"><ele>805.0</ele><time>2026-04-18T08:28:47Z</time></trkpt><trkpt lat="44.51015305944209" lon="9.355220181278597"><ele>805.0</ele><time>2026-04-18T08:28:48Z</time></trkpt><trkpt lat="44.510207068308524" lon="9.355317273632636"><ele>805.0</ele><time>2026-04-18T08:28:49Z</time></trkpt><trkpt lat="44.51030331595879" lon="9.355373592974834"><ele>805.0</ele><time>2026-04-18T08:28:50Z</time></trkpt><trkpt lat="44.510397841538094" lon="9.355479196260218"><ele>805.0</ele><time>2026-04-18T08:28:51Z</time></trkpt><trkpt lat="44.51054230986496" lon="9.35554389504306"><ele>805.0</ele><time>2026-04-18T08:28:52Z</time></trkpt><trkpt lat="44.510724634102075" lon="9.35559344755559"><ele>804.25</ele><time>2026-04-18T08:28:53Z</time></trkpt><trkpt lat="44.510902065095706" lon="9.355639486632327"><ele>803.5</ele><time>2026-04-18T08:28:54Z</time></trkpt><trkpt lat="44.511034297327704" lon="9.355674115647401"><ele>802.75</ele><time>2026-04-18T08:28:55Z</time></trkpt><trkpt lat="44.51115884655284" lon="9.355718020801005"><ele>802.0</ele><time>2026-04-18T08:28:56Z</time></trkpt><trkpt lat="44.51128978731475" lon="9.355781033659287"><ele>798.0</ele><time>2026-04-18T08:28:57Z</time></trkpt><trkpt lat="44.51140051520081" lon="9.355906872225722"><ele>794.0</ele><time>2026-04-18T08:28:58Z</time></trkpt><trkpt lat="44.51149632122927" lon="9.356083786940005"><ele>790.0</ele><time>2026-04-18T08:28:59Z</time></trkpt><trkpt lat="44.51156624392517" lon="9.356208662423972"><ele>786.0</ele><time>2026-04-18T08:29:00Z</time></trkpt><trkpt lat="44.51167581109992" lon="9.356387059474567"><ele>786.0</ele><time>2026-04-18T08:29:01Z</time></trkpt><trkpt lat="44.51177741508232" lon="9.356555244887552"><ele>786.0</ele><time>2026-04-18T08:29:02Z</time></trkpt><trkpt lat="44.511868598208245" lon="9.356703577954008"><ele>786.0</ele><time>2026-04-18T08:29:03Z</time></trkpt><trkpt lat="44.511940528342066" lon="9.356852198316234"><ele>786.0</ele><time>2026-04-18T08:29:04Z</time></trkpt><trkpt lat="44.51195796466054" lon="9.357004463219441"><ele>786.0</ele><time>2026-04-18T08:29:05Z</time></trkpt><trkpt lat="44.51196516964254" lon="9.357166051263315"><ele>786.0</ele><time>2026-04-18T08:29:06Z</time></trkpt><trkpt lat="44.51195310135142" lon="9.357389250692277"><ele>786.0</ele><time>2026-04-18T08:29:07Z</time></trkpt><trkpt lat="44.511936603897716" lon="9.357618737656274"><ele>786.0</ele><time>2026-04-18T08:29:08Z</time></trkpt><trkpt lat="44.511918776152775" lon="9.357847767591853"><ele>785.75</ele><time>2026-04-18T08:29:09Z</time></trkpt><trkpt lat="44.51189848630342" lon="9.358071391781026"><ele>785.5</ele><time>2026-04-18T08:29:10Z</time></trkpt><trkpt lat="44.51185461837489" lon="9.35826038711697"><ele>785.25</ele><time>2026-04-18T08:29:11Z</time></trkpt><trkpt lat="44.51179033113392" lon="9.358435343437785"><ele>785.0</ele><time>2026-04-18T08:29:12Z</time></trkpt><trkpt lat="44.51172325816105" lon="9.35863354376292"><ele>781.3333333333334</ele><time>2026-04-18T08:29:13Z</time></trkpt><trkpt lat="44.51170256282393" lon="9.358879564184832"><ele>777.6666666666667</ele><time>2026-04-18T08:29:14Z</time></trkpt><trkpt lat="44.51172915368463" lon="9.359138053575007"><ele>774.0</ele><time>2026-04-18T08:29:15Z</time></trkpt><trkpt lat="44.511716451077234" lon="9.359348111215583"><ele>774.0</ele><time>2026-04-18T08:29:16Z</time></trkpt><trkpt lat="44.511669942164" lon="9.359534895280067"><ele>774.0</ele><time>2026-04-18T08:29:17Z</time></trkpt><trkpt lat="44.511616361724165" lon="9.359713622624998"><ele>774.0</ele><time>2026-04-18T08:29:18Z</time></trkpt><trkpt lat="44.51155650276803" lon="9.35987691367312"><ele>774.0</ele><time>2026-04-18T08:29:19Z</time></trkpt><trkpt lat="44.51148789801428" lon="9.360014928250923"><ele>774.2</ele><time>2026-04-18T08:29:20Z</time></trkpt><trkpt lat="44.51144529283862" lon="9.360152738368349"><ele>774.4000000000001</ele><time>2026-04-18T08:29:21Z</time></trkpt><trkpt lat="44.511428394214526" lon="9.360304421747378"><ele>774.6</ele><time>2026-04-18T08:29:22Z</time></trkpt><trkpt lat="44.511497550229365" lon="9.360445479871688"><ele>774.8</ele><time>2026-04-18T08:29:23Z</time></trkpt><trkpt lat="44.51156497667869" lon="9.360554742612168"><ele>775.0</ele><time>2026-04-18T08:29:24Z</time></trkpt><trkpt lat="44.51166882846985" lon="9.360620719008486"><ele>775.0</ele><time>2026-04-18T08:29:25Z</time></trkpt><trkpt lat="44.511783755451134" lon="9.360640102493548"><ele>775.0</ele><time>2026-04-18T08:29:26Z</time></trkpt><trkpt lat="44.51187169023492" lon="9.360702378290284"><ele>775.0</ele><time>2026-04-18T08:29:27Z</time></trkpt><trkpt lat="44.51194076800956" lon="9.360821202211806"><ele>775.0</ele><time>2026-04-18T08:29:28Z</time></trkpt><trkpt lat="44.51195411085956" lon="9.360972715847812"><ele>775.0</ele><time>2026-04-18T08:29:29Z</time></trkpt><trkpt lat="44.51195977335434" lon="9.361155638753502"><ele>775.0</ele><time>2026-04-18T08:29:30Z</time></trkpt><trkpt lat="44.51194677731954" lon="9.361362373916208"><ele>775.0</ele><time>2026-04-18T08:29:31Z</time></trkpt><trkpt lat="44.51194793128154" lon="9.361569739764867"><ele>775.0</ele><time>2026-04-18T08:29:32Z</time></trkpt><trkpt lat="44.511978477301795" lon="9.361763649759867"><ele>775.0</ele><time>2026-04-18T08:29:33Z</time></trkpt><trkpt lat="44.51202676466979" lon="9.361950534422657"><ele>775.25</ele><time>2026-04-18T08:29:34Z</time></trkpt><trkpt lat="44.51207593253427" lon="9.362147325781239"><ele>775.5</ele><time>2026-04-18T08:29:35Z</time></trkpt><trkpt lat="44.51208878036915" lon="9.362307413037927"><ele>775.75</ele><time>2026-04-18T08:29:36Z</time></trkpt><trkpt lat="44.5120696743419" lon="9.362462765872326"><ele>776.0</ele><time>2026-04-18T08:29:37Z</time></trkpt><trkpt lat="44.512020899077484" lon="9.362651635586097"><ele>776.0</ele><time>2026-04-18T08:29:38Z</time></trkpt><trkpt lat="44.51197017520933" lon="9.362833207345485"><ele>776.0</ele><time>2026-04-18T08:29:39Z</time></trkpt><trkpt lat="44.51192518987612" lon="9.362992976182912"><ele>776.0</ele><time>2026-04-18T08:29:40Z</time></trkpt><trkpt lat="44.51188718970936" lon="9.363160668255263"><ele>776.0</ele><time>2026-04-18T08:29:41Z</time></trkpt><trkpt lat="44.51186894200685" lon="9.363322223045774"><ele>775.0</ele><time>2026-04-18T08:29:42Z</time></trkpt><trkpt lat="44.51189220764475" lon="9.363497899305647"><ele>774.0</ele><time>2026-04-18T08:29:43Z</time></trkpt><trkpt lat="44.51199894401062" lon="9.363641256704575"><ele>773.0</ele><time>2026-04-18T08:29:43.999Z</time></trkpt><trkpt lat="44.51208299266373" lon="9.363792112315725"><ele>772.0</ele><time>2026-04-18T08:29:44.999Z</time></trkpt><trkpt lat="44.512145690328495" lon="9.363922903830769"><ele>763.5</ele><time>2026-04-18T08:29:45.999Z</time></trkpt><trkpt lat="44.512171107668465" lon="9.364081234696686"><ele>755.0</ele><time>2026-04-18T08:29:46.999Z</time></trkpt><trkpt lat="44.51219840621066" lon="9.36426645521625"><ele>746.5</ele><time>2026-04-18T08:29:47.999Z</time></trkpt><trkpt lat="44.51220999458957" lon="9.364461678326284"><ele>738.0</ele><time>2026-04-18T08:29:48.999Z</time></trkpt><trkpt lat="44.512203769826336" lon="9.36463878538358"><ele>737.5</ele><time>2026-04-18T08:29:49.999Z</time></trkpt><trkpt lat="44.5121845332" lon="9.364824657892674"><ele>737.0</ele><time>2026-04-18T08:29:50.999Z</time></trkpt><trkpt lat="44.512157361875985" lon="9.364997079428788"><ele>736.5</ele><time>2026-04-18T08:29:51.999Z</time></trkpt><trkpt lat="44.51214476217347" lon="9.365163520063485"><ele>736.0</ele><time>2026-04-18T08:29:52.999Z</time></trkpt><trkpt lat="44.512188579141096" lon="9.365338950138526"><ele>736.0</ele><time>2026-04-18T08:29:53.999Z</time></trkpt><trkpt lat="44.51224731830453" lon="9.365489917261009"><ele>736.0</ele><time>2026-04-18T08:29:54.999Z</time></trkpt><trkpt lat="44.512309480543166" lon="9.365691021898199"><ele>736.0</ele><time>2026-04-18T08:29:55.999Z</time></trkpt><trkpt lat="44.51238843120174" lon="9.36587329652744"><ele>736.0</ele><time>2026-04-18T08:29:56.999Z</time></trkpt><trkpt lat="44.5124804959604" lon="9.3660327449669"><ele>739.0</ele><time>2026-04-18T08:29:57.999Z</time></trkpt><trkpt lat="44.51259973464257" lon="9.36621359470758"><ele>742.0</ele><time>2026-04-18T08:29:58.999Z</time></trkpt><trkpt lat="44.51271136828206" lon="9.366379851230315"><ele>745.0</ele><time>2026-04-18T08:29:59.999Z</time></trkpt><trkpt lat="44.51282729137337" lon="9.366560371428715"><ele>740.0</ele><time>2026-04-18T08:30:00.999Z</time></trkpt><trkpt lat="44.512925126164795" lon="9.36674234201341"><ele>735.0</ele><time>2026-04-18T08:30:01.999Z</time></trkpt><trkpt lat="44.51299741090863" lon="9.36691822743302"><ele>730.0</ele><time>2026-04-18T08:30:02.999Z</time></trkpt><trkpt lat="44.51308662205639" lon="9.367089475723043"><ele>733.5</ele><time>2026-04-18T08:30:03.999Z</time></trkpt><trkpt lat="44.5131246803207" lon="9.367252691963596"><ele>737.0</ele><time>2026-04-18T08:30:04.999Z</time></trkpt><trkpt lat="44.51317047871002" lon="9.367395707878853"><ele>740.5</ele><time>2026-04-18T08:30:05.999Z</time></trkpt><trkpt lat="44.51327136966387" lon="9.367518469219462"><ele>744.0</ele><time>2026-04-18T08:30:06.999Z</time></trkpt><trkpt lat="44.513382477858265" lon="9.36766232257584"><ele>744.0</ele><time>2026-04-18T08:30:07.999Z</time></trkpt><trkpt lat="44.51354208826413" lon="9.367803240360274"><ele>744.0</ele><time>2026-04-18T08:30:08.999Z</time></trkpt><trkpt lat="44.5137095984262" lon="9.367944593572274"><ele>744.0</ele><time>2026-04-18T08:30:09.999Z</time></trkpt><trkpt lat="44.51385871783482" lon="9.368071446612298"><ele>742.6666666666666</ele><time>2026-04-18T08:30:10.999Z</time></trkpt><trkpt lat="44.51399969758892" lon="9.368192877842471"><ele>741.3333333333333</ele><time>2026-04-18T08:30:11.999Z</time></trkpt><trkpt lat="44.51413597950655" lon="9.368315990291357"><ele>740.0</ele><time>2026-04-18T08:30:12.999Z</time></trkpt><trkpt lat="44.514293732617745" lon="9.368466859789912"><ele>740.0</ele><time>2026-04-18T08:30:13.999Z</time></trkpt><trkpt lat="44.51445276633749" lon="9.368627023111165"><ele>740.0</ele><time>2026-04-18T08:30:14.999Z</time></trkpt><trkpt lat="44.51458937384191" lon="9.368766278461376"><ele>740.0</ele><time>2026-04-18T08:30:15.999Z</time></trkpt><trkpt lat="44.51473004534761" lon="9.368899146331692"><ele>737.6666666666666</ele><time>2026-04-18T08:30:16.999Z</time></trkpt><trkpt lat="44.514845684120864" lon="9.369021936798623"><ele>735.3333333333334</ele><time>2026-04-18T08:30:17.999Z</time></trkpt><trkpt lat="44.51494955785679" lon="9.369171981415079"><ele>733.0</ele><time>2026-04-18T08:30:18.999Z</time></trkpt><trkpt lat="44.51504347159967" lon="9.36935624542905"><ele>733.0</ele><time>2026-04-18T08:30:19.999Z</time></trkpt><trkpt lat="44.51514383176134" lon="9.369556626407007"><ele>733.0</ele><time>2026-04-18T08:30:20.999Z</time></trkpt><trkpt lat="44.515236427750416" lon="9.36973787515435"><ele>733.0</ele><time>2026-04-18T08:30:21.999Z</time></trkpt><trkpt lat="44.515327151209796" lon="9.369913710802447"><ele>728.6666666666667</ele><time>2026-04-18T08:30:22.999Z</time></trkpt><trkpt lat="44.5154208937789" lon="9.37009842869369"><ele>724.3333333333334</ele><time>2026-04-18T08:30:23.999Z</time></trkpt><trkpt lat="44.515519988751855" lon="9.370295344234659"><ele>720.0</ele><time>2026-04-18T08:30:24.999Z</time></trkpt><trkpt lat="44.515615024712076" lon="9.370484453762671"><ele>723.6666666666666</ele><time>2026-04-18T08:30:25.999Z</time></trkpt><trkpt lat="44.51570338293112" lon="9.37066027518281"><ele>727.3333333333333</ele><time>2026-04-18T08:30:26.999Z</time></trkpt><trkpt lat="44.515792551041535" lon="9.370837707681295"><ele>731.0</ele><time>2026-04-18T08:30:27.999Z</time></trkpt><trkpt lat="44.515909320394734" lon="9.371024331336452"><ele>731.0</ele><time>2026-04-18T08:30:28.999Z</time></trkpt><trkpt lat="44.51600690418264" lon="9.371200045739677"><ele>731.0</ele><time>2026-04-18T08:30:29.999Z</time></trkpt><trkpt lat="44.51611373954202" lon="9.371357319464458"><ele>731.0</ele><time>2026-04-18T08:30:30.999Z</time></trkpt><trkpt lat="44.5162220477597" lon="9.371494821445442"><ele>728.5</ele><time>2026-04-18T08:30:31.999Z</time></trkpt><trkpt lat="44.51632370339681" lon="9.371626719497195"><ele>726.0</ele><time>2026-04-18T08:30:32.999Z</time></trkpt><trkpt lat="44.51644051990312" lon="9.371709802544789"><ele>723.5</ele><time>2026-04-18T08:30:33.999Z</time></trkpt><trkpt lat="44.516569638712944" lon="9.371787362140735"><ele>721.0</ele><time>2026-04-18T08:30:34.999Z</time></trkpt><trkpt lat="44.516727203949216" lon="9.371828832572362"><ele>721.0</ele><time>2026-04-18T08:30:35.999Z</time></trkpt><trkpt lat="44.51691204984721" lon="9.371852543343666"><ele>721.0</ele><time>2026-04-18T08:30:36.999Z</time></trkpt><trkpt lat="44.51712887884285" lon="9.371890752426044"><ele>721.0</ele><time>2026-04-18T08:30:37.999Z</time></trkpt><trkpt lat="44.517329699900465" lon="9.371937030395666"><ele>720.0</ele><time>2026-04-18T08:30:38.999Z</time></trkpt><trkpt lat="44.517500888210016" lon="9.371969775514776"><ele>719.0</ele><time>2026-04-18T08:30:39.999Z</time></trkpt><trkpt lat="44.51766437386985" lon="9.372004833075282"><ele>718.0</ele><time>2026-04-18T08:30:40.999Z</time></trkpt><trkpt lat="44.517815560977674" lon="9.372032126935137"><ele>719.25</ele><time>2026-04-18T08:30:42Z</time></trkpt><trkpt lat="44.517963388031184" lon="9.372061201945845"><ele>720.5</ele><time>2026-04-18T08:30:43Z</time></trkpt><trkpt lat="44.51810106130815" lon="9.37210010916911"><ele>721.75</ele><time>2026-04-18T08:30:44Z</time></trkpt><trkpt lat="44.518248012811654" lon="9.372128836499742"><ele>723.0</ele><time>2026-04-18T08:30:45Z</time></trkpt><trkpt lat="44.51840220784249" lon="9.37216667298309"><ele>723.0</ele><time>2026-04-18T08:30:46Z</time></trkpt><trkpt lat="44.51854840475053" lon="9.37218895785749"><ele>723.0</ele><time>2026-04-18T08:30:47Z</time></trkpt><trkpt lat="44.51867657697495" lon="9.372218733066422"><ele>723.0</ele><time>2026-04-18T08:30:48Z</time></trkpt><trkpt lat="44.5188033504495" lon="9.372306318397277"><ele>723.0</ele><time>2026-04-18T08:30:49Z</time></trkpt><trkpt lat="44.51891099057029" lon="9.372406412341538"><ele>721.75</ele><time>2026-04-18T08:30:50Z</time></trkpt><trkpt lat="44.51897726163931" lon="9.372561231864866"><ele>720.5</ele><time>2026-04-18T08:30:51Z</time></trkpt><trkpt lat="44.51906102900753" lon="9.372737855438576"><ele>719.25</ele><time>2026-04-18T08:30:52Z</time></trkpt><trkpt lat="44.51915485713629" lon="9.372912209549922"><ele>718.0</ele><time>2026-04-18T08:30:53Z</time></trkpt><trkpt lat="44.5192374014029" lon="9.37307259389195"><ele>718.0</ele><time>2026-04-18T08:30:54Z</time></trkpt><trkpt lat="44.51932116889933" lon="9.373220027003779"><ele>718.0</ele><time>2026-04-18T08:30:55Z</time></trkpt><trkpt lat="44.519428740913646" lon="9.373341804939095"><ele>718.0</ele><time>2026-04-18T08:30:56Z</time></trkpt><trkpt lat="44.5195593031585" lon="9.37345550596483"><ele>718.0</ele><time>2026-04-18T08:30:57Z</time></trkpt><trkpt lat="44.51971685007952" lon="9.373579008551813"><ele>719.6666666666667</ele><time>2026-04-18T08:30:58Z</time></trkpt><trkpt lat="44.51987995974519" lon="9.373711173498767"><ele>721.3333333333334</ele><time>2026-04-18T08:30:59Z</time></trkpt><trkpt lat="44.52000851334044" lon="9.373860428525319"><ele>723.0</ele><time>2026-04-18T08:31:00Z</time></trkpt><trkpt lat="44.520118484927416" lon="9.374002911329246"><ele>723.0</ele><time>2026-04-18T08:31:01Z</time></trkpt><trkpt lat="44.52021007763236" lon="9.374150512040499"><ele>723.0</ele><time>2026-04-18T08:31:02Z</time></trkpt><trkpt lat="44.52028994020924" lon="9.374301265770697"><ele>723.0</ele><time>2026-04-18T08:31:03Z</time></trkpt><trkpt lat="44.520355913020566" lon="9.374449790231445"><ele>723.0</ele><time>2026-04-18T08:31:04Z</time></trkpt><trkpt lat="44.520391901231015" lon="9.374609543384459"><ele>721.2</ele><time>2026-04-18T08:31:05Z</time></trkpt><trkpt lat="44.52040830038827" lon="9.374769452050911"><ele>719.4</ele><time>2026-04-18T08:31:06Z</time></trkpt><trkpt lat="44.52040142845418" lon="9.374930728894997"><ele>717.6</ele><time>2026-04-18T08:31:07Z</time></trkpt><trkpt lat="44.52037205416266" lon="9.37507491302691"><ele>715.8000000000001</ele><time>2026-04-18T08:31:08Z</time></trkpt><trkpt lat="44.52032296876656" lon="9.375186944834844"><ele>714.0</ele><time>2026-04-18T08:31:09Z</time></trkpt><trkpt lat="44.5202630744731" lon="9.375297962229103"><ele>714.0</ele><time>2026-04-18T08:31:10Z</time></trkpt><trkpt lat="44.52022444951558" lon="9.375448292093953"><ele>714.0</ele><time>2026-04-18T08:31:11Z</time></trkpt><trkpt lat="44.52018558722815" lon="9.375583179980634"><ele>714.0</ele><time>2026-04-18T08:31:12Z</time></trkpt><trkpt lat="44.5202095413264" lon="9.37572320173696"><ele>714.0</ele><time>2026-04-18T08:31:13Z</time></trkpt><trkpt lat="44.52027938655744" lon="9.375839277289664"><ele>714.0</ele><time>2026-04-18T08:31:14Z</time></trkpt><trkpt lat="44.520373094144695" lon="9.375932280878667"><ele>716.4000000000001</ele><time>2026-04-18T08:31:15Z</time></trkpt><trkpt lat="44.52048718695348" lon="9.375980527654804"><ele>718.8</ele><time>2026-04-18T08:31:16Z</time></trkpt><trkpt lat="44.520603596654425" lon="9.376009533140909"><ele>721.2</ele><time>2026-04-18T08:31:17Z</time></trkpt><trkpt lat="44.52069326235191" lon="9.376031867192427"><ele>723.5999999999999</ele><time>2026-04-18T08:31:18Z</time></trkpt><trkpt lat="44.520763272615824" lon="9.37604410594478"><ele>726.0</ele><time>2026-04-18T08:31:19Z</time></trkpt><trkpt lat="44.52082967130791" lon="9.376073423485215"><ele>726.0</ele><time>2026-04-18T08:31:20Z</time></trkpt><trkpt lat="44.520914173635404" lon="9.376101912170435"><ele>726.0</ele><time>2026-04-18T08:31:22Z</time></trkpt><trkpt lat="44.520973910976345" lon="9.376139901715385"><ele>726.0</ele><time>2026-04-18T08:32:43.999Z</time></trkpt><trkpt lat="44.52105769434495" lon="9.376170407076707"><ele>726.0</ele><time>2026-04-18T08:32:44.999Z</time></trkpt><trkpt lat="44.52117119695716" lon="9.376198169384844"><ele>726.0</ele><time>2026-04-18T08:32:45.999Z</time></trkpt><trkpt lat="44.5212923408611" lon="9.376239154694357"><ele>728.6666666666666</ele><time>2026-04-18T08:32:46.999Z</time></trkpt><trkpt lat="44.52144836897153" lon="9.376292852437901"><ele>731.3333333333333</ele><time>2026-04-18T08:32:48Z</time></trkpt><trkpt lat="44.521600608595236" lon="9.376339387597964"><ele>734.0</ele><time>2026-04-18T08:32:49Z</time></trkpt><trkpt lat="44.521771815463566" lon="9.376389274074846"><ele>727.6666666666666</ele><time>2026-04-18T08:32:50Z</time></trkpt><trkpt lat="44.521923693703194" lon="9.376421928698731"><ele>721.3333333333334</ele><time>2026-04-18T08:32:51Z</time></trkpt><trkpt lat="44.52210599717029" lon="9.376461596433742"><ele>715.0</ele><time>2026-04-18T08:32:52Z</time></trkpt><trkpt lat="44.522276471135655" lon="9.376499166491627"><ele>715.0</ele><time>2026-04-18T08:32:53Z</time></trkpt><trkpt lat="44.522437822965195" lon="9.376536901929983"><ele>715.0</ele><time>2026-04-18T08:32:54Z</time></trkpt><trkpt lat="44.522591816815236" lon="9.376582491377663"><ele>715.0</ele><time>2026-04-18T08:32:55Z</time></trkpt><trkpt lat="44.52274855963712" lon="9.376630649191533"><ele>718.0</ele><time>2026-04-18T08:32:56Z</time></trkpt><trkpt lat="44.52290998499213" lon="9.376690637917967"><ele>721.0</ele><time>2026-04-18T08:32:57Z</time></trkpt><trkpt lat="44.52305153654169" lon="9.376756077813052"><ele>724.0</ele><time>2026-04-18T08:32:58Z</time></trkpt><trkpt lat="44.52318714575557" lon="9.37682752121823"><ele>724.0</ele><time>2026-04-18T08:32:59Z</time></trkpt><trkpt lat="44.52333786710998" lon="9.376912486649172"><ele>724.0</ele><time>2026-04-18T08:33:00Z</time></trkpt><trkpt lat="44.523485999689406" lon="9.377013345234383"><ele>724.0</ele><time>2026-04-18T08:33:01Z</time></trkpt><trkpt lat="44.52361464997508" lon="9.377090153946604"><ele>719.6666666666667</ele><time>2026-04-18T08:33:02Z</time></trkpt><trkpt lat="44.523748674624045" lon="9.37715042043331"><ele>715.3333333333334</ele><time>2026-04-18T08:33:03Z</time></trkpt><trkpt lat="44.52391567141203" lon="9.377260906898604"><ele>711.0</ele><time>2026-04-18T08:33:04Z</time></trkpt><trkpt lat="44.52407765892635" lon="9.377375890413596"><ele>711.0</ele><time>2026-04-18T08:33:05Z</time></trkpt><trkpt lat="44.52423820789297" lon="9.377554585373282"><ele>711.0</ele><time>2026-04-18T08:33:06Z</time></trkpt><trkpt lat="44.524416638916485" lon="9.377723438649072"><ele>711.0</ele><time>2026-04-18T08:33:07Z</time></trkpt><trkpt lat="44.52461181638048" lon="9.377878573673678"><ele>709.0</ele><time>2026-04-18T08:33:08Z</time></trkpt><trkpt lat="44.52482692748679" lon="9.378035015290179"><ele>707.0</ele><time>2026-04-18T08:33:09Z</time></trkpt><trkpt lat="44.52503393235973" lon="9.37818374043507"><ele>707.0</ele><time>2026-04-18T08:33:10Z</time></trkpt><trkpt lat="44.52494965289398" lon="9.378113402186134"><ele>707.0</ele><time>2026-04-18T08:33:11Z</time></trkpt><trkpt lat="44.52508928914705" lon="9.378211316403764"><ele>707.0</ele><time>2026-04-18T08:33:12Z</time></trkpt><trkpt lat="44.52522547781516" lon="9.3783106521427"><ele>707.0</ele><time>2026-04-18T08:33:13Z</time></trkpt><trkpt lat="44.52535091424275" lon="9.378404592732153"><ele>706.4000000000001</ele><time>2026-04-18T08:33:14Z</time></trkpt><trkpt lat="44.525459747301575" lon="9.378484015325522"><ele>705.8000000000001</ele><time>2026-04-18T08:33:15Z</time></trkpt><trkpt lat="44.52553239633433" lon="9.378584719298097"><ele>705.2</ele><time>2026-04-18T08:33:16Z</time></trkpt><trkpt lat="44.525581934256536" lon="9.378694301949745"><ele>704.6</ele><time>2026-04-18T08:33:17Z</time></trkpt><trkpt lat="44.52557987639889" lon="9.37881789481051"><ele>704.0</ele><time>2026-04-18T08:33:18Z</time></trkpt><trkpt lat="44.52555596894557" lon="9.378959951742926"><ele>704.0</ele><time>2026-04-18T08:33:19Z</time></trkpt><trkpt lat="44.525502431188585" lon="9.37911189888191"><ele>704.0</ele><time>2026-04-18T08:33:20Z</time></trkpt><trkpt lat="44.52543792848542" lon="9.379318548423797"><ele>704.0</ele><time>2026-04-18T08:33:21Z</time></trkpt><trkpt lat="44.52536240596853" lon="9.379553951430372"><ele>705.6666666666666</ele><time>2026-04-18T08:33:22Z</time></trkpt><trkpt lat="44.52527548764182" lon="9.379790120372736"><ele>707.3333333333334</ele><time>2026-04-18T08:33:23Z</time></trkpt><trkpt lat="44.525188624426" lon="9.379976398499677"><ele>709.0</ele><time>2026-04-18T08:33:24Z</time></trkpt><trkpt lat="44.52506948928943" lon="9.380175402910861"><ele>709.0</ele><time>2026-04-18T08:33:25Z</time></trkpt><trkpt lat="44.52492505019283" lon="9.380394808507733"><ele>709.0</ele><time>2026-04-18T08:33:26Z</time></trkpt><trkpt lat="44.52477030359984" lon="9.380630595964226"><ele>709.0</ele><time>2026-04-18T08:33:27Z</time></trkpt><trkpt lat="44.524596890047206" lon="9.380890323015384"><ele>708.5</ele><time>2026-04-18T08:33:28Z</time></trkpt><trkpt lat="44.524432772913215" lon="9.38112836645442"><ele>708.0</ele><time>2026-04-18T08:33:29Z</time></trkpt><trkpt lat="44.52428283080561" lon="9.381344831726745"><ele>705.0</ele><time>2026-04-18T08:33:30Z</time></trkpt><trkpt lat="44.524142647029095" lon="9.381552991500554"><ele>702.0</ele><time>2026-04-18T08:33:31Z</time></trkpt><trkpt lat="44.524012007380314" lon="9.381750998915985"><ele>699.0</ele><time>2026-04-18T08:33:32Z</time></trkpt><trkpt lat="44.52388728311921" lon="9.381943646881115"><ele>699.0</ele><time>2026-04-18T08:33:33Z</time></trkpt><trkpt lat="44.523746642619386" lon="9.382158558410126"><ele>699.0</ele><time>2026-04-18T08:33:34Z</time></trkpt><trkpt lat="44.52362566803414" lon="9.382370943497786"><ele>699.0</ele><time>2026-04-18T08:33:35Z</time></trkpt><trkpt lat="44.52350494803117" lon="9.382542814047495"><ele>700.5</ele><time>2026-04-18T08:33:36Z</time></trkpt><trkpt lat="44.523401836473994" lon="9.382697943500746"><ele>702.0</ele><time>2026-04-18T08:33:37Z</time></trkpt><trkpt lat="44.523306623868415" lon="9.3828007408039"><ele>703.5</ele><time>2026-04-18T08:33:38Z</time></trkpt><trkpt lat="44.52325371058443" lon="9.382925088242269"><ele>705.0</ele><time>2026-04-18T08:33:39Z</time></trkpt><trkpt lat="44.52321469618243" lon="9.383038932541359"><ele>705.75</ele><time>2026-04-18T08:33:40Z</time></trkpt><trkpt lat="44.52321369142059" lon="9.383168270075707"><ele>706.5</ele><time>2026-04-18T08:33:41Z</time></trkpt><trkpt lat="44.52325957515506" lon="9.38332638045855"><ele>707.25</ele><time>2026-04-18T08:33:42Z</time></trkpt><trkpt lat="44.523346666292966" lon="9.383498246239727"><ele>708.0</ele><time>2026-04-18T08:33:43Z</time></trkpt><trkpt lat="44.523445996275925" lon="9.383687431290827"><ele>713.6666666666666</ele><time>2026-04-18T08:33:44Z</time></trkpt><trkpt lat="44.52353637037057" lon="9.383878352738847"><ele>719.3333333333333</ele><time>2026-04-18T08:33:45Z</time></trkpt><trkpt lat="44.52362231589783" lon="9.384064775158755"><ele>725.0</ele><time>2026-04-18T08:33:46Z</time></trkpt><trkpt lat="44.52372612200717" lon="9.384251266038733"><ele>724.0</ele><time>2026-04-18T08:33:47Z</time></trkpt><trkpt lat="44.52383775783597" lon="9.384422824010358"><ele>723.0</ele><time>2026-04-18T08:33:48Z</time></trkpt><trkpt lat="44.523934388576215" lon="9.384585315461065"><ele>722.0</ele><time>2026-04-18T08:33:49Z</time></trkpt><trkpt lat="44.52404105982629" lon="9.384737288301846"><ele>722.0</ele><time>2026-04-18T08:33:50Z</time></trkpt><trkpt lat="44.524177072156675" lon="9.384867472580614"><ele>722.0</ele><time>2026-04-18T08:33:51Z</time></trkpt><trkpt lat="44.524325258957546" lon="9.384985315489171"><ele>722.0</ele><time>2026-04-18T08:33:52Z</time></trkpt><trkpt lat="44.524464991074254" lon="9.385074328450898"><ele>717.6666666666666</ele><time>2026-04-18T08:33:53Z</time></trkpt><trkpt lat="44.52459366859439" lon="9.385135990518906"><ele>713.3333333333334</ele><time>2026-04-18T08:33:54Z</time></trkpt><trkpt lat="44.52474050375216" lon="9.385209402580104"><ele>709.0</ele><time>2026-04-18T08:33:55Z</time></trkpt><trkpt lat="44.52491076237551" lon="9.385256251957323"><ele>709.0</ele><time>2026-04-18T08:33:56Z</time></trkpt><trkpt lat="44.525049774107586" lon="9.38527876431233"><ele>709.0</ele><time>2026-04-18T08:33:57Z</time></trkpt><trkpt lat="44.52516286210443" lon="9.385280899216506"><ele>709.0</ele><time>2026-04-18T08:33:57.999Z</time></trkpt><trkpt lat="44.525264784351435" lon="9.38526026581444"><ele>709.0</ele><time>2026-04-18T08:33:58.999Z</time></trkpt><trkpt lat="44.5253590217336" lon="9.385221975916734"><ele>708.8000000000001</ele><time>2026-04-18T08:33:59.999Z</time></trkpt><trkpt lat="44.5254558250799" lon="9.385167852763193"><ele>708.6</ele><time>2026-04-18T08:34:00.999Z</time></trkpt><trkpt lat="44.525558663642194" lon="9.385112770464671"><ele>708.4</ele><time>2026-04-18T08:34:01.999Z</time></trkpt><trkpt lat="44.52565533397236" lon="9.385076907421997"><ele>708.2</ele><time>2026-04-18T08:34:02.999Z</time></trkpt><trkpt lat="44.525745223602534" lon="9.385065549897861"><ele>708.0</ele><time>2026-04-18T08:34:03.999Z</time></trkpt><trkpt lat="44.525820363821495" lon="9.385093088107139"><ele>708.0</ele><time>2026-04-18T08:34:04.999Z</time></trkpt><trkpt lat="44.52588583156959" lon="9.385141011156522"><ele>708.0</ele><time>2026-04-18T08:34:05.999Z</time></trkpt><trkpt lat="44.52594637765975" lon="9.385220285370364"><ele>708.0</ele><time>2026-04-18T08:34:06.999Z</time></trkpt><trkpt lat="44.525999039959764" lon="9.385331229328166"><ele>708.0</ele><time>2026-04-18T08:34:07.999Z</time></trkpt><trkpt lat="44.526038857067306" lon="9.385470021911237"><ele>708.0</ele><time>2026-04-18T08:34:08.999Z</time></trkpt><trkpt lat="44.52605453570251" lon="9.385613435447867"><ele>710.0</ele><time>2026-04-18T08:34:09.999Z</time></trkpt><trkpt lat="44.52604580113322" lon="9.385742452423703"><ele>712.0</ele><time>2026-04-18T08:34:10.999Z</time></trkpt><trkpt lat="44.52602899342088" lon="9.385853188046275"><ele>714.0</ele><time>2026-04-18T08:34:11.999Z</time></trkpt><trkpt lat="44.526005290495426" lon="9.38593940857989"><ele>716.0</ele><time>2026-04-18T08:34:12.999Z</time></trkpt><trkpt lat="44.52595005836554" lon="9.386042767897369"><ele>718.0</ele><time>2026-04-18T08:34:14.999Z</time></trkpt><trkpt lat="44.52590873181143" lon="9.386142894035398"><ele>720.0</ele><time>2026-04-18T08:34:18.999Z</time></trkpt><trkpt lat="44.525844230703704" lon="9.386252434988075"><ele>718.8</ele><time>2026-04-18T08:34:30.999Z</time></trkpt><trkpt lat="44.525770602569494" lon="9.386379882408853"><ele>717.6</ele><time>2026-04-18T08:34:32.999Z</time></trkpt><trkpt lat="44.52580904096315" lon="9.386526093377963"><ele>716.4000000000001</ele><time>2026-04-18T08:34:33.999Z</time></trkpt><trkpt lat="44.52581133322968" lon="9.386644068346678"><ele>715.2</ele><time>2026-04-18T08:34:34.999Z</time></trkpt><trkpt lat="44.52578026811303" lon="9.386765565386394"><ele>714.0</ele><time>2026-04-18T08:34:35.999Z</time></trkpt><trkpt lat="44.525744016075585" lon="9.386890128560145"><ele>714.0</ele><time>2026-04-18T08:34:36.999Z</time></trkpt><trkpt lat="44.52571735293059" lon="9.38701066861055"><ele>714.0</ele><time>2026-04-18T08:34:37.999Z</time></trkpt><trkpt lat="44.52571374100039" lon="9.387166353699364"><ele>714.0</ele><time>2026-04-18T08:34:38.999Z</time></trkpt><trkpt lat="44.52571514489672" lon="9.387324727757044"><ele>714.0</ele><time>2026-04-18T08:34:39.999Z</time></trkpt><trkpt lat="44.52571519125729" lon="9.387502362766606"><ele>714.0</ele><time>2026-04-18T08:34:40.999Z</time></trkpt><trkpt lat="44.5257557040766" lon="9.38765345767634"><ele>713.5</ele><time>2026-04-18T08:34:41.999Z</time></trkpt><trkpt lat="44.525828191875604" lon="9.387742235707472"><ele>713.0</ele><time>2026-04-18T08:34:42.999Z</time></trkpt><trkpt lat="44.52593526905178" lon="9.387828178660552"><ele>712.5</ele><time>2026-04-18T08:34:43.999Z</time></trkpt><trkpt lat="44.5260715310707" lon="9.387909384207493"><ele>712.0</ele><time>2026-04-18T08:34:44.999Z</time></trkpt><trkpt lat="44.52618107153654" lon="9.387988186752764"><ele>708.8</ele><time>2026-04-18T08:34:45.999Z</time></trkpt><trkpt lat="44.52627180749675" lon="9.388064580129555"><ele>705.6</ele><time>2026-04-18T08:34:46.999Z</time></trkpt><trkpt lat="44.52635949780115" lon="9.388137519937779"><ele>702.4</ele><time>2026-04-18T08:34:47.999Z</time></trkpt><trkpt lat="44.526451706489574" lon="9.388216592255821"><ele>699.1999999999999</ele><time>2026-04-18T08:34:48.999Z</time></trkpt><trkpt lat="44.52653855420106" lon="9.38832186675162"><ele>696.0</ele><time>2026-04-18T08:34:49.999Z</time></trkpt><trkpt lat="44.5265914235276" lon="9.388469415503574"><ele>696.0</ele><time>2026-04-18T08:34:50.999Z</time></trkpt><trkpt lat="44.5266532808332" lon="9.388632041684557"><ele>696.0</ele><time>2026-04-18T08:34:51.999Z</time></trkpt><trkpt lat="44.52672124457515" lon="9.388793276680587"><ele>696.0</ele><time>2026-04-18T08:34:52.999Z</time></trkpt><trkpt lat="44.526781241691324" lon="9.388990192611942"><ele>696.0</ele><time>2026-04-18T08:34:54Z</time></trkpt><trkpt lat="44.52684855300843" lon="9.389183606634202"><ele>693.25</ele><time>2026-04-18T08:34:55Z</time></trkpt><trkpt lat="44.52692024309435" lon="9.389371250468846"><ele>690.5</ele><time>2026-04-18T08:34:56Z</time></trkpt><trkpt lat="44.52699160796298" lon="9.389546640303333"><ele>687.75</ele><time>2026-04-18T08:34:57Z</time></trkpt><trkpt lat="44.52704961302876" lon="9.389708728788952"><ele>685.0</ele><time>2026-04-18T08:34:58Z</time></trkpt><trkpt lat="44.52710533673903" lon="9.389888708658663"><ele>685.0</ele><time>2026-04-18T08:34:59Z</time></trkpt><trkpt lat="44.527158724322156" lon="9.390112846525033"><ele>685.0</ele><time>2026-04-18T08:35:00Z</time></trkpt><trkpt lat="44.527195559266524" lon="9.390360465880272"><ele>685.0</ele><time>2026-04-18T08:35:01Z</time></trkpt><trkpt lat="44.52721685186518" lon="9.390583684791856"><ele>686.0</ele><time>2026-04-18T08:35:02Z</time></trkpt><trkpt lat="44.527246202939494" lon="9.39079706827548"><ele>687.0</ele><time>2026-04-18T08:35:03Z</time></trkpt><trkpt lat="44.527272913575004" lon="9.39098791932694"><ele>688.0</ele><time>2026-04-18T08:35:04Z</time></trkpt><trkpt lat="44.527299270210946" lon="9.391180549896713"><ele>689.0</ele><time>2026-04-18T08:35:05Z</time></trkpt><trkpt lat="44.52729991120017" lon="9.391362641302843"><ele>689.5</ele><time>2026-04-18T08:35:06Z</time></trkpt><trkpt lat="44.527300338800295" lon="9.391532834864321"><ele>690.0</ele><time>2026-04-18T08:35:07Z</time></trkpt><trkpt lat="44.527302662511474" lon="9.391695044186815"><ele>690.5</ele><time>2026-04-18T08:35:08Z</time></trkpt><trkpt lat="44.52731436075768" lon="9.391862283678872"><ele>691.0</ele><time>2026-04-18T08:35:09Z</time></trkpt><trkpt lat="44.527333223657216" lon="9.392042942136642"><ele>690.8</ele><time>2026-04-18T08:35:10Z</time></trkpt><trkpt lat="44.52737142584474" lon="9.392220508028634"><ele>690.5999999999999</ele><time>2026-04-18T08:35:11Z</time></trkpt><trkpt lat="44.52742643728271" lon="9.392368860525888"><ele>690.4</ele><time>2026-04-18T08:35:12Z</time></trkpt><trkpt lat="44.52747545778759" lon="9.392490429013634"><ele>690.2</ele><time>2026-04-18T08:35:13Z</time></trkpt><trkpt lat="44.5275106722422" lon="9.392571524562102"><ele>690.0</ele><time>2026-04-18T08:35:14Z</time></trkpt><trkpt lat="44.52756740984371" lon="9.392703790615188"><ele>690.0</ele><time>2026-04-18T08:35:16Z</time></trkpt><trkpt lat="44.52763697109099" lon="9.392750044746823"><ele>690.0</ele><time>2026-04-18T08:35:18Z</time></trkpt><trkpt lat="44.527631374498135" lon="9.392865363576242"><ele>690.0</ele><time>2026-04-18T08:35:21Z</time></trkpt><trkpt lat="44.527714305002526" lon="9.392839304613265"><ele>690.0</ele><time>2026-04-18T08:35:22Z</time></trkpt><trkpt lat="44.52774000717377" lon="9.392927419954997"><ele>690.0</ele><time>2026-04-18T08:35:25Z</time></trkpt><trkpt lat="44.527793950117996" lon="9.3928612650596"><ele>690.0</ele><time>2026-04-18T08:43:57Z</time></trkpt><trkpt lat="44.527778087193965" lon="9.392750181865134"><ele>690.0</ele><time>2026-04-18T08:43:59Z</time></trkpt><trkpt lat="44.52769202578707" lon="9.392670882586465"><ele>690.0</ele><time>2026-04-18T08:44:01Z</time></trkpt><trkpt lat="44.52763778775568" lon="9.392724449752583"><ele>690.0</ele><time>2026-04-18T08:44:03Z</time></trkpt><trkpt lat="44.52764917687169" lon="9.392864405138713"><ele>690.0</ele><time>2026-04-18T08:44:05Z</time></trkpt><trkpt lat="44.52770138097681" lon="9.392959483937183"><ele>690.0</ele><time>2026-04-18T08:44:06Z</time></trkpt><trkpt lat="44.527787233603306" lon="9.393085502687729"><ele>688.5</ele><time>2026-04-18T08:44:07Z</time></trkpt><trkpt lat="44.52789607229027" lon="9.393215476612898"><ele>687.0</ele><time>2026-04-18T08:44:08Z</time></trkpt><trkpt lat="44.52801498159629" lon="9.393353130636651"><ele>685.5</ele><time>2026-04-18T08:44:09Z</time></trkpt><trkpt lat="44.52813049083567" lon="9.39346361573537"><ele>684.0</ele><time>2026-04-18T08:44:10Z</time></trkpt><trkpt lat="44.52822971604993" lon="9.393584816482868"><ele>684.0</ele><time>2026-04-18T08:44:11Z</time></trkpt><trkpt lat="44.52834676337082" lon="9.393633935363166"><ele>684.0</ele><time>2026-04-18T08:44:12Z</time></trkpt><trkpt lat="44.528481865178136" lon="9.393716899315736"><ele>684.0</ele><time>2026-04-18T08:44:13Z</time></trkpt><trkpt lat="44.5286175914314" lon="9.39377664940065"><ele>684.0</ele><time>2026-04-18T08:44:14Z</time></trkpt><trkpt lat="44.528741199515736" lon="9.393826885044408"><ele>683.5</ele><time>2026-04-18T08:44:15Z</time></trkpt><trkpt lat="44.52886889372149" lon="9.393877706935706"><ele>683.0</ele><time>2026-04-18T08:44:16Z</time></trkpt><trkpt lat="44.52898796139017" lon="9.393925095532975"><ele>682.5</ele><time>2026-04-18T08:44:17Z</time></trkpt><trkpt lat="44.529098908061556" lon="9.393969251972182"><ele>682.0</ele><time>2026-04-18T08:44:18Z</time></trkpt><trkpt lat="44.52921709980309" lon="9.394016972609034"><ele>682.0</ele><time>2026-04-18T08:44:19Z</time></trkpt><trkpt lat="44.52933985869943" lon="9.394053707092963"><ele>682.0</ele><time>2026-04-18T08:44:20Z</time></trkpt><trkpt lat="44.529439080437776" lon="9.394119245646035"><ele>682.0</ele><time>2026-04-18T08:44:21Z</time></trkpt><trkpt lat="44.52952090549159" lon="9.394211011489139"><ele>682.0</ele><time>2026-04-18T08:44:22Z</time></trkpt><trkpt lat="44.52957725796457" lon="9.394343750279354"><ele>682.0</ele><time>2026-04-18T08:44:23Z</time></trkpt><trkpt lat="44.52965048317903" lon="9.39446950409545"><ele>682.0</ele><time>2026-04-18T08:44:24Z</time></trkpt><trkpt lat="44.529722433989136" lon="9.394592083483293"><ele>682.0</ele><time>2026-04-18T08:44:24.999Z</time></trkpt><trkpt lat="44.5297874298871" lon="9.394702585681035"><ele>682.0</ele><time>2026-04-18T08:44:25.999Z</time></trkpt><trkpt lat="44.5298640074808" lon="9.394799807615847"><ele>682.0</ele><time>2026-04-18T08:44:26.999Z</time></trkpt><trkpt lat="44.52993636293995" lon="9.394928444190903"><ele>682.0</ele><time>2026-04-18T08:44:27.999Z</time></trkpt><trkpt lat="44.53000446110041" lon="9.395070990412428"><ele>682.0</ele><time>2026-04-18T08:44:28.999Z</time></trkpt><trkpt lat="44.53008663730155" lon="9.395209063946952"><ele>682.0</ele><time>2026-04-18T08:44:29.999Z</time></trkpt><trkpt lat="44.53018119821336" lon="9.395366492199503"><ele>682.0</ele><time>2026-04-18T08:44:30.999Z</time></trkpt><trkpt lat="44.53028179591886" lon="9.395533477263417"><ele>681.6666666666667</ele><time>2026-04-18T08:44:31.999Z</time></trkpt><trkpt lat="44.5303859687741" lon="9.395706396200517"><ele>681.3333333333334</ele><time>2026-04-18T08:44:32.999Z</time></trkpt><trkpt lat="44.53048903271148" lon="9.395847314297104"><ele>681.0</ele><time>2026-04-18T08:44:33.999Z</time></trkpt><trkpt lat="44.53058672526963" lon="9.396001190936971"><ele>681.0</ele><time>2026-04-18T08:44:34.999Z</time></trkpt><trkpt lat="44.53068070869071" lon="9.39615921238306"><ele>681.0</ele><time>2026-04-18T08:44:35.999Z</time></trkpt><trkpt lat="44.53076565528562" lon="9.39633570479535"><ele>681.0</ele><time>2026-04-18T08:44:36.999Z</time></trkpt><trkpt lat="44.530830446820836" lon="9.396527842925153"><ele>682.0</ele><time>2026-04-18T08:44:37.999Z</time></trkpt><trkpt lat="44.530868275033455" lon="9.396729594264926"><ele>683.0</ele><time>2026-04-18T08:44:38.999Z</time></trkpt><trkpt lat="44.53090179620186" lon="9.39694879178454"><ele>684.0</ele><time>2026-04-18T08:44:39.999Z</time></trkpt><trkpt lat="44.530938008464545" lon="9.397177127047454"><ele>686.0</ele><time>2026-04-18T08:44:40.999Z</time></trkpt><trkpt lat="44.530971399091506" lon="9.397390628709836"><ele>688.0</ele><time>2026-04-18T08:44:41.999Z</time></trkpt><trkpt lat="44.531000445569795" lon="9.397576777879442"><ele>690.0</ele><time>2026-04-18T08:44:42.999Z</time></trkpt><trkpt lat="44.531016644134546" lon="9.397735048339518"><ele>692.0</ele><time>2026-04-18T08:44:43.999Z</time></trkpt><trkpt lat="44.531044338098376" lon="9.397907732380942"><ele>692.25</ele><time>2026-04-18T08:44:44.999Z</time></trkpt><trkpt lat="44.531063951177174" lon="9.398072966393885"><ele>692.5</ele><time>2026-04-18T08:44:45.999Z</time></trkpt><trkpt lat="44.531071359567925" lon="9.398241641109665"><ele>692.75</ele><time>2026-04-18T08:44:46.999Z</time></trkpt><trkpt lat="44.5310454149654" lon="9.398402419830983"><ele>693.0</ele><time>2026-04-18T08:44:47.999Z</time></trkpt><trkpt lat="44.53095921231179" lon="9.39854823116364"><ele>693.0</ele><time>2026-04-18T08:44:48.999Z</time></trkpt><trkpt lat="44.53088570324149" lon="9.398750377883486"><ele>693.0</ele><time>2026-04-18T08:44:49.999Z</time></trkpt><trkpt lat="44.530789582637205" lon="9.39896526897018"><ele>693.0</ele><time>2026-04-18T08:44:50.999Z</time></trkpt><trkpt lat="44.53070566494943" lon="9.399142289469717"><ele>691.25</ele><time>2026-04-18T08:44:51.999Z</time></trkpt><trkpt lat="44.53061323679108" lon="9.399332939418057"><ele>689.5</ele><time>2026-04-18T08:44:52.999Z</time></trkpt><trkpt lat="44.53059160341593" lon="9.399440858266647"><ele>687.75</ele><time>2026-04-18T08:44:53.999Z</time></trkpt><trkpt lat="44.53055054664346" lon="9.39959228019024"><ele>686.0</ele><time>2026-04-18T08:44:54.999Z</time></trkpt><trkpt lat="44.530532122938915" lon="9.399772584871391"><ele>684.3333333333333</ele><time>2026-04-18T08:44:55.999Z</time></trkpt><trkpt lat="44.53055503661267" lon="9.399977363892386"><ele>682.6666666666666</ele><time>2026-04-18T08:44:56.999Z</time></trkpt><trkpt lat="44.5305775138813" lon="9.400198766860777"><ele>681.0</ele><time>2026-04-18T08:44:57.999Z</time></trkpt><trkpt lat="44.53061617178311" lon="9.400442417145822"><ele>681.6666666666666</ele><time>2026-04-18T08:44:58.999Z</time></trkpt><trkpt lat="44.53063594995388" lon="9.40072322759932"><ele>682.3333333333333</ele><time>2026-04-18T08:44:59.999Z</time></trkpt><trkpt lat="44.53067670271593" lon="9.40103191129363"><ele>683.0</ele><time>2026-04-18T08:45:00.999Z</time></trkpt><trkpt lat="44.53071994998466" lon="9.401352210162516"><ele>683.0</ele><time>2026-04-18T08:45:01.999Z</time></trkpt><trkpt lat="44.53076336522567" lon="9.40167350267508"><ele>683.0</ele><time>2026-04-18T08:45:02.999Z</time></trkpt><trkpt lat="44.53080045948328" lon="9.401951689956062"><ele>683.0</ele><time>2026-04-18T08:45:03.999Z</time></trkpt><trkpt lat="44.53083539035992" lon="9.40221388299636"><ele>684.0</ele><time>2026-04-18T08:45:04.999Z</time></trkpt><trkpt lat="44.53086779593522" lon="9.402457113982306"><ele>685.0</ele><time>2026-04-18T08:45:05.999Z</time></trkpt><trkpt lat="44.53091194950349" lon="9.402684622032334"><ele>686.0</ele><time>2026-04-18T08:45:06.999Z</time></trkpt><trkpt lat="44.5309452458115" lon="9.402927493327649"><ele>689.0</ele><time>2026-04-18T08:45:07.999Z</time></trkpt><trkpt lat="44.53098095950832" lon="9.403191361440468"><ele>692.0</ele><time>2026-04-18T08:45:08.999Z</time></trkpt><trkpt lat="44.53102215110429" lon="9.40344624951893"><ele>695.0</ele><time>2026-04-18T08:45:09.999Z</time></trkpt><trkpt lat="44.531060580939915" lon="9.403664682750843"><ele>699.0</ele><time>2026-04-18T08:45:10.999Z</time></trkpt><trkpt lat="44.53110650848153" lon="9.403868694545139"><ele>703.0</ele><time>2026-04-18T08:45:11.999Z</time></trkpt><trkpt lat="44.53116212407476" lon="9.40406638383995"><ele>707.0</ele><time>2026-04-18T08:45:12.999Z</time></trkpt><trkpt lat="44.53123166201675" lon="9.404257092348864"><ele>702.3333333333333</ele><time>2026-04-18T08:45:13.999Z</time></trkpt><trkpt lat="44.531325603889194" lon="9.404414696807804"><ele>697.6666666666666</ele><time>2026-04-18T08:45:14.999Z</time></trkpt><trkpt lat="44.53143736043278" lon="9.404578294243557"><ele>693.0</ele><time>2026-04-18T08:45:15.999Z</time></trkpt><trkpt lat="44.53156776322094" lon="9.404744654135209"><ele>693.0</ele><time>2026-04-18T08:45:16.999Z</time></trkpt><trkpt lat="44.53167915345213" lon="9.404885939130313"><ele>693.0</ele><time>2026-04-18T08:45:17.999Z</time></trkpt><trkpt lat="44.531752281455695" lon="9.405069044463641"><ele>693.0</ele><time>2026-04-18T08:45:18.999Z</time></trkpt><trkpt lat="44.53181432229206" lon="9.40522623107277"><ele>693.0</ele><time>2026-04-18T08:45:19.999Z</time></trkpt><trkpt lat="44.53190238278772" lon="9.405335162137805"><ele>693.0</ele><time>2026-04-18T08:45:20.999Z</time></trkpt><trkpt lat="44.53202253754514" lon="9.405443077687183"><ele>693.0</ele><time>2026-04-18T08:45:21.999Z</time></trkpt><trkpt lat="44.53218291161918" lon="9.405523618695684"><ele>693.0</ele><time>2026-04-18T08:45:22.999Z</time></trkpt><trkpt lat="44.53235766815492" lon="9.405624706108886"><ele>695.0</ele><time>2026-04-18T08:45:24Z</time></trkpt><trkpt lat="44.532498150419485" lon="9.405709266445971"><ele>697.0</ele><time>2026-04-18T08:45:25Z</time></trkpt><trkpt lat="44.53263220695734" lon="9.405779695420936"><ele>699.0</ele><time>2026-04-18T08:45:26Z</time></trkpt><trkpt lat="44.53278523817686" lon="9.405823430853232"><ele>693.3333333333334</ele><time>2026-04-18T08:45:27Z</time></trkpt><trkpt lat="44.532959404841534" lon="9.405855588784242"><ele>687.6666666666667</ele><time>2026-04-18T08:45:28Z</time></trkpt><trkpt lat="44.533145133970535" lon="9.405889024800029"><ele>682.0</ele><time>2026-04-18T08:45:29Z</time></trkpt><trkpt lat="44.533299165376164" lon="9.40593241833297"><ele>682.0</ele><time>2026-04-18T08:45:30Z</time></trkpt><trkpt lat="44.53343789020433" lon="9.405975510487806"><ele>682.0</ele><time>2026-04-18T08:45:31Z</time></trkpt><trkpt lat="44.53356434645232" lon="9.405998363232152"><ele>682.0</ele><time>2026-04-18T08:45:32Z</time></trkpt><trkpt lat="44.5336850188947" lon="9.406016688874853"><ele>682.0</ele><time>2026-04-18T08:45:33Z</time></trkpt><trkpt lat="44.53377557756016" lon="9.406068949180305"><ele>680.6</ele><time>2026-04-18T08:45:34Z</time></trkpt><trkpt lat="44.53384783174065" lon="9.406119882417608"><ele>679.2</ele><time>2026-04-18T08:45:35Z</time></trkpt><trkpt lat="44.53388919145146" lon="9.40620676027671"><ele>677.8</ele><time>2026-04-18T08:45:36Z</time></trkpt><trkpt lat="44.53389845466608" lon="9.406335234492628"><ele>676.4</ele><time>2026-04-18T08:45:37Z</time></trkpt><trkpt lat="44.53392058639071" lon="9.40649234530249"><ele>675.0</ele><time>2026-04-18T08:45:38Z</time></trkpt><trkpt lat="44.53395329518235" lon="9.406702933401762"><ele>675.0</ele><time>2026-04-18T08:45:39Z</time></trkpt><trkpt lat="44.533991853593655" lon="9.406950129756769"><ele>675.0</ele><time>2026-04-18T08:45:40Z</time></trkpt><trkpt lat="44.53402528065677" lon="9.40716179668989"><ele>675.0</ele><time>2026-04-18T08:45:41Z</time></trkpt><trkpt lat="44.53405440795484" lon="9.407343149198335"><ele>674.8</ele><time>2026-04-18T08:45:42Z</time></trkpt><trkpt lat="44.5340860801769" lon="9.407498652326556"><ele>674.6</ele><time>2026-04-18T08:45:43Z</time></trkpt><trkpt lat="44.534115993656414" lon="9.407640417525803"><ele>674.4000000000001</ele><time>2026-04-18T08:45:44Z</time></trkpt><trkpt lat="44.53413946289808" lon="9.407772504994263"><ele>674.2</ele><time>2026-04-18T08:45:45Z</time></trkpt><trkpt lat="44.534162753496744" lon="9.407871291171382"><ele>674.0</ele><time>2026-04-18T08:45:46Z</time></trkpt><trkpt lat="44.53415770709461" lon="9.408019904128574"><ele>677.2</ele><time>2026-04-18T08:45:48Z</time></trkpt><trkpt lat="44.53406240795191" lon="9.408105269639345"><ele>680.4000000000001</ele><time>2026-04-18T08:45:50Z</time></trkpt><trkpt lat="44.5339695041775" lon="9.408233528623633"><ele>683.6</ele><time>2026-04-18T08:45:52Z</time></trkpt><trkpt lat="44.53392756993031" lon="9.40831588514789"><ele>686.8</ele><time>2026-04-18T08:45:53Z</time></trkpt><trkpt lat="44.53390304507094" lon="9.408409067105982"><ele>690.0</ele><time>2026-04-18T08:45:54Z</time></trkpt><trkpt lat="44.533890628985915" lon="9.408521711180533"><ele>690.0</ele><time>2026-04-18T08:45:55Z</time></trkpt><trkpt lat="44.533865551586366" lon="9.408685208030086"><ele>690.0</ele><time>2026-04-18T08:45:56Z</time></trkpt><trkpt lat="44.533829662489296" lon="9.408865689823608"><ele>690.0</ele><time>2026-04-18T08:45:57Z</time></trkpt><trkpt lat="44.53376334831664" lon="9.409031659932836"><ele>690.0</ele><time>2026-04-18T08:45:58Z</time></trkpt><trkpt lat="44.533726887561265" lon="9.409166344309313"><ele>690.25</ele><time>2026-04-18T08:45:59Z</time></trkpt><trkpt lat="44.533694602062425" lon="9.409286064106634"><ele>690.5</ele><time>2026-04-18T08:46:00Z</time></trkpt><trkpt lat="44.5336714034854" lon="9.40943140500446"><ele>690.75</ele><time>2026-04-18T08:46:01Z</time></trkpt><trkpt lat="44.53366271886165" lon="9.40959947180634"><ele>691.0</ele><time>2026-04-18T08:46:02Z</time></trkpt><trkpt lat="44.533662006750454" lon="9.40978873421796"><ele>691.0</ele><time>2026-04-18T08:46:03Z</time></trkpt><trkpt lat="44.533671341001565" lon="9.409946235965647"><ele>691.0</ele><time>2026-04-18T08:46:04Z</time></trkpt><trkpt lat="44.533680563623975" lon="9.41007653246551"><ele>691.0</ele><time>2026-04-18T08:46:05Z</time></trkpt><trkpt lat="44.533679331154474" lon="9.410216306333979"><ele>691.0</ele><time>2026-04-18T08:46:06Z</time></trkpt><trkpt lat="44.53361740144036" lon="9.41031438402199"><ele>691.0</ele><time>2026-04-18T08:46:07Z</time></trkpt><trkpt lat="44.533535063926735" lon="9.410378363573463"><ele>694.75</ele><time>2026-04-18T08:46:08Z</time></trkpt><trkpt lat="44.533467139924554" lon="9.41050323179208"><ele>698.5</ele><time>2026-04-18T08:46:09Z</time></trkpt><trkpt lat="44.53341307963563" lon="9.410647194729144"><ele>702.25</ele><time>2026-04-18T08:46:10Z</time></trkpt><trkpt lat="44.533387606339396" lon="9.410851748855917"><ele>706.0</ele><time>2026-04-18T08:46:11Z</time></trkpt><trkpt lat="44.53337033398678" lon="9.411059666226183"><ele>706.0</ele><time>2026-04-18T08:46:12Z</time></trkpt><trkpt lat="44.53332344984286" lon="9.411250577416364"><ele>706.0</ele><time>2026-04-18T08:46:13Z</time></trkpt><trkpt lat="44.53323850200214" lon="9.41142502275826"><ele>706.0</ele><time>2026-04-18T08:46:14Z</time></trkpt><trkpt lat="44.53313601853513" lon="9.411601810452979"><ele>702.75</ele><time>2026-04-18T08:46:15Z</time></trkpt><trkpt lat="44.53307295218289" lon="9.411791425674831"><ele>699.5</ele><time>2026-04-18T08:46:16Z</time></trkpt><trkpt lat="44.53302697036725" lon="9.411942469365822"><ele>696.25</ele><time>2026-04-18T08:46:17Z</time></trkpt><trkpt lat="44.532968281154524" lon="9.41206599005843"><ele>693.0</ele><time>2026-04-18T08:46:18Z</time></trkpt><trkpt lat="44.532879671342776" lon="9.412110935371693"><ele>700.75</ele><time>2026-04-18T08:46:19Z</time></trkpt><trkpt lat="44.532755506162076" lon="9.41218494485985"><ele>708.5</ele><time>2026-04-18T08:46:20Z</time></trkpt><trkpt lat="44.53260121083731" lon="9.412298151399666"><ele>716.25</ele><time>2026-04-18T08:46:21Z</time></trkpt><trkpt lat="44.532473715183" lon="9.4123683086684"><ele>724.0</ele><time>2026-04-18T08:46:22Z</time></trkpt><trkpt lat="44.532367391128034" lon="9.41245797269512"><ele>724.0</ele><time>2026-04-18T08:46:23Z</time></trkpt><trkpt lat="44.532295788120855" lon="9.412568594479668"><ele>724.0</ele><time>2026-04-18T08:46:24Z</time></trkpt><trkpt lat="44.53222950278579" lon="9.412727230554943"><ele>724.0</ele><time>2026-04-18T08:46:25Z</time></trkpt><trkpt lat="44.53216592349173" lon="9.412910620425428"><ele>724.0</ele><time>2026-04-18T08:46:26Z</time></trkpt><trkpt lat="44.53218491393467" lon="9.413098032476372"><ele>725.6</ele><time>2026-04-18T08:46:27Z</time></trkpt><trkpt lat="44.53216813037747" lon="9.413216757899079"><ele>727.2</ele><time>2026-04-18T08:46:28Z</time></trkpt><trkpt lat="44.5321041864479" lon="9.413319295863937"><ele>728.8000000000001</ele><time>2026-04-18T08:46:30Z</time></trkpt><trkpt lat="44.53203597339455" lon="9.413310495766584"><ele>730.4000000000001</ele><time>2026-04-18T08:46:30.999Z</time></trkpt><trkpt lat="44.53194511169711" lon="9.413225467452436"><ele>732.0</ele><time>2026-04-18T08:46:31.999Z</time></trkpt><trkpt lat="44.531853874205105" lon="9.413160207152302"><ele>732.0</ele><time>2026-04-18T08:46:32.999Z</time></trkpt><trkpt lat="44.531768719377176" lon="9.413166337433257"><ele>732.0</ele><time>2026-04-18T08:46:33.999Z</time></trkpt><trkpt lat="44.53166549853517" lon="9.413199654077909"><ele>732.0</ele><time>2026-04-18T08:46:34.999Z</time></trkpt><trkpt lat="44.53154796139669" lon="9.413247340040831"><ele>732.0</ele><time>2026-04-18T08:46:35.999Z</time></trkpt><trkpt lat="44.53142319046421" lon="9.413297055799896"><ele>732.0</ele><time>2026-04-18T08:46:36.999Z</time></trkpt><trkpt lat="44.53134370873328" lon="9.413368384930662"><ele>732.0</ele><time>2026-04-18T08:46:37.999Z</time></trkpt><trkpt lat="44.531281916964254" lon="9.413426506650461"><ele>732.0</ele><time>2026-04-18T08:46:38.999Z</time></trkpt><trkpt lat="44.53125695653454" lon="9.413584716917967"><ele>732.0</ele><time>2026-04-18T08:46:39.999Z</time></trkpt><trkpt lat="44.53129467125334" lon="9.413762225242714"><ele>732.0</ele><time>2026-04-18T08:46:40.999Z</time></trkpt><trkpt lat="44.53132430796323" lon="9.413964735920889"><ele>738.3333333333334</ele><time>2026-04-18T08:46:41.999Z</time></trkpt><trkpt lat="44.53132079073475" lon="9.414167155562325"><ele>744.6666666666667</ele><time>2026-04-18T08:46:42.999Z</time></trkpt><trkpt lat="44.531328631396754" lon="9.414380901318646"><ele>751.0</ele><time>2026-04-18T08:46:43.999Z</time></trkpt><trkpt lat="44.531335551655566" lon="9.414609480979632"><ele>752.25</ele><time>2026-04-18T08:46:44.999Z</time></trkpt><trkpt lat="44.53133031221094" lon="9.414808331054573"><ele>753.5</ele><time>2026-04-18T08:46:45.999Z</time></trkpt><trkpt lat="44.531328110206616" lon="9.414985657752993"><ele>754.75</ele><time>2026-04-18T08:46:46.999Z</time></trkpt><trkpt lat="44.53134020675698" lon="9.41514705999589"><ele>756.0</ele><time>2026-04-18T08:46:47.999Z</time></trkpt><trkpt lat="44.53135636265939" lon="9.41527513505751"><ele>756.0</ele><time>2026-04-18T08:46:48.999Z</time></trkpt><trkpt lat="44.531396805842455" lon="9.415361752304445"><ele>756.0</ele><time>2026-04-18T08:46:49.999Z</time></trkpt><trkpt lat="44.53148700497313" lon="9.415468216222404"><ele>756.0</ele><time>2026-04-18T08:46:50.999Z</time></trkpt><trkpt lat="44.5316207417373" lon="9.415565825200947"><ele>756.0</ele><time>2026-04-18T08:46:51.999Z</time></trkpt><trkpt lat="44.53173146741281" lon="9.415670649180882"><ele>755.5999999999999</ele><time>2026-04-18T08:46:52.999Z</time></trkpt><trkpt lat="44.53181946380693" lon="9.415777609670215"><ele>755.2</ele><time>2026-04-18T08:46:53.999Z</time></trkpt><trkpt lat="44.531879462507625" lon="9.415882368032548"><ele>754.8</ele><time>2026-04-18T08:46:54.999Z</time></trkpt><trkpt lat="44.53189513081771" lon="9.416003489560016"><ele>754.4000000000001</ele><time>2026-04-18T08:46:55.999Z</time></trkpt><trkpt lat="44.53183701374463" lon="9.416127408430812"><ele>754.0</ele><time>2026-04-18T08:46:56.999Z</time></trkpt><trkpt lat="44.531773700010795" lon="9.416240510070413"><ele>754.4000000000001</ele><time>2026-04-18T08:46:57.999Z</time></trkpt><trkpt lat="44.53175882093428" lon="9.416378295920326"><ele>754.8</ele><time>2026-04-18T08:46:58.999Z</time></trkpt><trkpt lat="44.531753567955214" lon="9.416490228235794"><ele>755.2</ele><time>2026-04-18T08:46:59.999Z</time></trkpt><trkpt lat="44.53177759199734" lon="9.416619023103115"><ele>755.5999999999999</ele><time>2026-04-18T08:47:00.999Z</time></trkpt><trkpt lat="44.53184025793754" lon="9.416734858439034"><ele>756.0</ele><time>2026-04-18T08:47:01.999Z</time></trkpt><trkpt lat="44.531953746642685" lon="9.416806877735509"><ele>759.75</ele><time>2026-04-18T08:47:02.999Z</time></trkpt><trkpt lat="44.53209284371654" lon="9.41685081740805"><ele>763.5</ele><time>2026-04-18T08:47:03.999Z</time></trkpt><trkpt lat="44.53223079879123" lon="9.416869090367236"><ele>767.25</ele><time>2026-04-18T08:47:04.999Z</time></trkpt><trkpt lat="44.53233800256648" lon="9.416890297585352"><ele>771.0</ele><time>2026-04-18T08:47:05.999Z</time></trkpt><trkpt lat="44.532454022525634" lon="9.416914193097025"><ele>771.0</ele><time>2026-04-18T08:47:06.999Z</time></trkpt><trkpt lat="44.53255802838562" lon="9.416972804247964"><ele>771.0</ele><time>2026-04-18T08:47:07.999Z</time></trkpt><trkpt lat="44.53264155654933" lon="9.417038291419027"><ele>771.0</ele><time>2026-04-18T08:47:08.999Z</time></trkpt><trkpt lat="44.53270330761169" lon="9.417095211555342"><ele>771.0</ele><time>2026-04-18T08:47:09.999Z</time></trkpt><trkpt lat="44.53271775117982" lon="9.417198300597523"><ele>771.0</ele><time>2026-04-18T08:47:10.999Z</time></trkpt><trkpt lat="44.53269306987443" lon="9.417313076082172"><ele>771.0</ele><time>2026-04-18T08:47:11.999Z</time></trkpt><trkpt lat="44.532620962350975" lon="9.417409990349968"><ele>770.8</ele><time>2026-04-18T08:47:12.999Z</time></trkpt><trkpt lat="44.53259945007553" lon="9.417538879032413"><ele>770.5999999999999</ele><time>2026-04-18T08:47:13.999Z</time></trkpt><trkpt lat="44.53261029827036" lon="9.417690793525406"><ele>770.4</ele><time>2026-04-18T08:47:14.999Z</time></trkpt><trkpt lat="44.53263597291997" lon="9.417822685839562"><ele>770.2</ele><time>2026-04-18T08:47:15.999Z</time></trkpt><trkpt lat="44.53264802851291" lon="9.417937414247803"><ele>770.0</ele><time>2026-04-18T08:47:16.999Z</time></trkpt><trkpt lat="44.532642417200016" lon="9.418061562032076"><ele>770.0000000000001</ele><time>2026-04-18T08:47:17.999Z</time></trkpt><trkpt lat="44.53262994165851" lon="9.418165781857573"><ele>770.0</ele><time>2026-04-18T08:47:18.999Z</time></trkpt><trkpt lat="44.53264286410825" lon="9.418256495511901"><ele>770.0</ele><time>2026-04-18T08:47:19.999Z</time></trkpt><trkpt lat="44.53269022388698" lon="9.418328995250052"><ele>770.0</ele><time>2026-04-18T08:47:20.999Z</time></trkpt><trkpt lat="44.532755792768036" lon="9.41835161686545"><ele>770.0000000000001</ele><time>2026-04-18T08:47:21.999Z</time></trkpt><trkpt lat="44.532838155799574" lon="9.418366024012215"><ele>770.0</ele><time>2026-04-18T08:47:22.999Z</time></trkpt><trkpt lat="44.5329359813796" lon="9.418404111009512"><ele>773.4</ele><time>2026-04-18T08:47:23.999Z</time></trkpt><trkpt lat="44.53302365352821" lon="9.41848219130743"><ele>776.8</ele><time>2026-04-18T08:47:24.999Z</time></trkpt><trkpt lat="44.5330825464399" lon="9.418570937264796"><ele>780.2</ele><time>2026-04-18T08:47:25.999Z</time></trkpt><trkpt lat="44.53314756139814" lon="9.418673411803624"><ele>783.6</ele><time>2026-04-18T08:47:26.999Z</time></trkpt><trkpt lat="44.53322757184713" lon="9.418784169099618"><ele>787.0</ele><time>2026-04-18T08:47:27.999Z</time></trkpt><trkpt lat="44.53327603711218" lon="9.418884825188321"><ele>787.6</ele><time>2026-04-18T08:47:28.999Z</time></trkpt><trkpt lat="44.53329531211973" lon="9.41904790358964"><ele>788.2</ele><time>2026-04-18T08:47:31Z</time></trkpt><trkpt lat="44.533246199474426" lon="9.419140349116525"><ele>788.8</ele><time>2026-04-18T08:47:32Z</time></trkpt><trkpt lat="44.53313620492863" lon="9.419151549783516"><ele>789.4</ele><time>2026-04-18T08:47:33Z</time></trkpt><trkpt lat="44.53304307486269" lon="9.419223911671182"><ele>790.0</ele><time>2026-04-18T08:47:34Z</time></trkpt><trkpt lat="44.532950477455046" lon="9.41930302565668"><ele>790.1666666666666</ele><time>2026-04-18T08:47:35Z</time></trkpt><trkpt lat="44.53288198145126" lon="9.419413626750869"><ele>790.3333333333333</ele><time>2026-04-18T08:47:36Z</time></trkpt><trkpt lat="44.53284263958402" lon="9.419510100377588"><ele>790.5</ele><time>2026-04-18T08:47:37Z</time></trkpt><trkpt lat="44.532822257878486" lon="9.419596046189657"><ele>790.6666666666667</ele><time>2026-04-18T08:47:38Z</time></trkpt><trkpt lat="44.53285244590913" lon="9.419720760464513"><ele>790.8333333333334</ele><time>2026-04-18T08:47:39Z</time></trkpt><trkpt lat="44.53292950465642" lon="9.419781475483827"><ele>791.0</ele><time>2026-04-18T08:47:40Z</time></trkpt><trkpt lat="44.533016569590465" lon="9.419784837897874"><ele>790.8</ele><time>2026-04-18T08:47:41Z</time></trkpt><trkpt lat="44.53312118754" lon="9.419688919120192"><ele>790.5999999999999</ele><time>2026-04-18T08:47:42Z</time></trkpt><trkpt lat="44.533227805113626" lon="9.419604360160832"><ele>790.4</ele><time>2026-04-18T08:47:43Z</time></trkpt><trkpt lat="44.533302306550716" lon="9.41956408965525"><ele>790.2</ele><time>2026-04-18T08:47:44Z</time></trkpt><trkpt lat="44.53338997868834" lon="9.419570515432998"><ele>790.0</ele><time>2026-04-18T08:47:45Z</time></trkpt><trkpt lat="44.53349567231715" lon="9.419605823608887"><ele>793.25</ele><time>2026-04-18T08:47:46Z</time></trkpt><trkpt lat="44.533601705209655" lon="9.419679995950938"><ele>796.5</ele><time>2026-04-18T08:47:47Z</time></trkpt><trkpt lat="44.5337073370267" lon="9.41982528509739"><ele>799.75</ele><time>2026-04-18T08:47:48Z</time></trkpt><trkpt lat="44.533791103283804" lon="9.419964729311664"><ele>803.0</ele><time>2026-04-18T08:47:49Z</time></trkpt><trkpt lat="44.53387220749293" lon="9.42010498958173"><ele>804.8</ele><time>2026-04-18T08:47:50Z</time></trkpt><trkpt lat="44.5339503749061" lon="9.420208050533665"><ele>806.5999999999999</ele><time>2026-04-18T08:47:51Z</time></trkpt><trkpt lat="44.53399177498339" lon="9.420289651728384"><ele>808.4000000000001</ele><time>2026-04-18T08:47:52Z</time></trkpt><trkpt lat="44.53403398707041" lon="9.420423907874929"><ele>810.2</ele><time>2026-04-18T08:47:54Z</time></trkpt><trkpt lat="44.53396272213727" lon="9.420554665430853"><ele>812.0</ele><time>2026-04-18T08:47:56Z</time></trkpt><trkpt lat="44.53388731050072" lon="9.420522274516161"><ele>812.0</ele><time>2026-04-18T08:47:57Z</time></trkpt><trkpt lat="44.53379324401807" lon="9.420474022347536"><ele>812.0</ele><time>2026-04-18T08:47:58Z</time></trkpt><trkpt lat="44.53366558399349" lon="9.420450610627602"><ele>812.0</ele><time>2026-04-18T08:47:59Z</time></trkpt><trkpt lat="44.533544562266464" lon="9.420426548011724"><ele>812.0</ele><time>2026-04-18T08:48:00Z</time></trkpt><trkpt lat="44.53341554397356" lon="9.420409405282397"><ele>810.2</ele><time>2026-04-18T08:48:01Z</time></trkpt><trkpt lat="44.533298605660185" lon="9.420398579424946"><ele>808.4000000000001</ele><time>2026-04-18T08:48:02Z</time></trkpt><trkpt lat="44.533184240647536" lon="9.42039208865484"><ele>806.5999999999999</ele><time>2026-04-18T08:48:03Z</time></trkpt><trkpt lat="44.53307006853386" lon="9.420381284388482"><ele>804.8</ele><time>2026-04-18T08:48:04Z</time></trkpt><trkpt lat="44.53297323654851" lon="9.420389212111388"><ele>803.0</ele><time>2026-04-18T08:48:05Z</time></trkpt><trkpt lat="44.53288764599465" lon="9.420417547337168"><ele>805.5</ele><time>2026-04-18T08:48:06Z</time></trkpt><trkpt lat="44.532810707176615" lon="9.420540090961559"><ele>808.0</ele><time>2026-04-18T08:48:07Z</time></trkpt><trkpt lat="44.53275593743185" lon="9.420713898063463"><ele>810.5</ele><time>2026-04-18T08:48:08Z</time></trkpt><trkpt lat="44.53269739127253" lon="9.420865114103945"><ele>813.0</ele><time>2026-04-18T08:48:09Z</time></trkpt><trkpt lat="44.53263935775795" lon="9.421010159161641"><ele>813.0</ele><time>2026-04-18T08:48:10Z</time></trkpt><trkpt lat="44.532581741477" lon="9.421146047979278"><ele>813.0</ele><time>2026-04-18T08:48:11Z</time></trkpt><trkpt lat="44.53252852872933" lon="9.421285949694825"><ele>813.0</ele><time>2026-04-18T08:48:12Z</time></trkpt><trkpt lat="44.53251948487222" lon="9.421455272511917"><ele>813.0</ele><time>2026-04-18T08:48:13Z</time></trkpt><trkpt lat="44.53252350176405" lon="9.421632643725474"><ele>815.4</ele><time>2026-04-18T08:48:14Z</time></trkpt><trkpt lat="44.532511151605796" lon="9.421789822537484"><ele>817.8</ele><time>2026-04-18T08:48:15Z</time></trkpt><trkpt lat="44.53245897776808" lon="9.421889149602713"><ele>820.2</ele><time>2026-04-18T08:48:16Z</time></trkpt><trkpt lat="44.5323710685403" lon="9.42197400037948"><ele>822.6</ele><time>2026-04-18T08:48:17Z</time></trkpt><trkpt lat="44.53228772498117" lon="9.422074330375885"><ele>825.0</ele><time>2026-04-18T08:48:18Z</time></trkpt><trkpt lat="44.53220481893745" lon="9.422180103732947"><ele>828.5</ele><time>2026-04-18T08:48:19Z</time></trkpt><trkpt lat="44.532194917805164" lon="9.422365787164305"><ele>832.0</ele><time>2026-04-18T08:48:20Z</time></trkpt><trkpt lat="44.532175753904625" lon="9.422557833613439"><ele>835.5</ele><time>2026-04-18T08:48:21Z</time></trkpt><trkpt lat="44.532162862747015" lon="9.422756823025471"><ele>839.0</ele><time>2026-04-18T08:48:22Z</time></trkpt><trkpt lat="44.532089193780635" lon="9.422919524089588"><ele>832.75</ele><time>2026-04-18T08:48:23Z</time></trkpt><trkpt lat="44.53203557593499" lon="9.423047056089063"><ele>826.5</ele><time>2026-04-18T08:48:24Z</time></trkpt><trkpt lat="44.53200091708785" lon="9.42321791772342"><ele>820.25</ele><time>2026-04-18T08:48:25Z</time></trkpt><trkpt lat="44.531997677863416" lon="9.423444009084106"><ele>814.0</ele><time>2026-04-18T08:48:26Z</time></trkpt><trkpt lat="44.53200101862073" lon="9.423700684759458"><ele>816.0</ele><time>2026-04-18T08:48:27Z</time></trkpt><trkpt lat="44.532003292639295" lon="9.4239389074293"><ele>818.0</ele><time>2026-04-18T08:48:28Z</time></trkpt><trkpt lat="44.53200530086313" lon="9.42414928585055"><ele>820.0</ele><time>2026-04-18T08:48:29Z</time></trkpt><trkpt lat="44.53202272178465" lon="9.424343367346285"><ele>820.0</ele><time>2026-04-18T08:48:30Z</time></trkpt><trkpt lat="44.53202315428758" lon="9.424546606670388"><ele>820.0</ele><time>2026-04-18T08:48:31Z</time></trkpt><trkpt lat="44.532022782317085" lon="9.424765721800933"><ele>820.0</ele><time>2026-04-18T08:48:32Z</time></trkpt><trkpt lat="44.53198988582218" lon="9.424983959599105"><ele>822.5</ele><time>2026-04-18T08:48:33Z</time></trkpt><trkpt lat="44.53198919096193" lon="9.425174253592406"><ele>825.0</ele><time>2026-04-18T08:48:34Z</time></trkpt><trkpt lat="44.53197143118151" lon="9.425321803344856"><ele>827.5</ele><time>2026-04-18T08:48:35Z</time></trkpt><trkpt lat="44.53194336455182" lon="9.425470462691605"><ele>830.0</ele><time>2026-04-18T08:48:35.999Z</time></trkpt><trkpt lat="44.531899082208106" lon="9.425619566835328"><ele>831.8</ele><time>2026-04-18T08:48:36.999Z</time></trkpt><trkpt lat="44.53187341004673" lon="9.42576931273814"><ele>833.6</ele><time>2026-04-18T08:48:37.999Z</time></trkpt><trkpt lat="44.531884377458596" lon="9.425900914626506"><ele>835.4000000000001</ele><time>2026-04-18T08:48:38.999Z</time></trkpt><trkpt lat="44.53193143514892" lon="9.426020799844311"><ele>837.2</ele><time>2026-04-18T08:48:39.999Z</time></trkpt><trkpt lat="44.53201755741349" lon="9.426121362579913"><ele>839.0</ele><time>2026-04-18T08:48:40.999Z</time></trkpt><trkpt lat="44.53214402080023" lon="9.426182991542218"><ele>841.75</ele><time>2026-04-18T08:48:41.999Z</time></trkpt><trkpt lat="44.53230008118336" lon="9.426233524601882"><ele>844.5</ele><time>2026-04-18T08:48:42.999Z</time></trkpt><trkpt lat="44.532436741579026" lon="9.426286713827048"><ele>847.25</ele><time>2026-04-18T08:48:43.999Z</time></trkpt><trkpt lat="44.532552444013305" lon="9.426326513246778"><ele>850.0</ele><time>2026-04-18T08:48:44.999Z</time></trkpt><trkpt lat="44.5326489279171" lon="9.426390874117056"><ele>850.0</ele><time>2026-04-18T08:48:45.999Z</time></trkpt><trkpt lat="44.53272553271876" lon="9.42644744371955"><ele>850.0</ele><time>2026-04-18T08:48:46.999Z</time></trkpt><trkpt lat="44.53276387535375" lon="9.426550951321346"><ele>850.0</ele><time>2026-04-18T08:48:47.999Z</time></trkpt><trkpt lat="44.53274378575324" lon="9.426673272691913"><ele>850.0</ele><time>2026-04-18T08:48:48.999Z</time></trkpt><trkpt lat="44.53273609245406" lon="9.42679967728764"><ele>850.0</ele><time>2026-04-18T08:48:49.999Z</time></trkpt><trkpt lat="44.53276736325715" lon="9.426939965174054"><ele>850.0</ele><time>2026-04-18T08:48:50.999Z</time></trkpt><trkpt lat="44.532865627426645" lon="9.427048371315502"><ele>850.0</ele><time>2026-04-18T08:48:51.999Z</time></trkpt><trkpt lat="44.53299886354752" lon="9.427084126607584"><ele>850.0</ele><time>2026-04-18T08:48:52.999Z</time></trkpt><trkpt lat="44.53310278308755" lon="9.42712420353783"><ele>850.0</ele><time>2026-04-18T08:48:53.999Z</time></trkpt><trkpt lat="44.5331646928623" lon="9.427159456031815"><ele>850.0</ele><time>2026-04-18T08:48:54.999Z</time></trkpt><trkpt lat="44.53318022865775" lon="9.427292682896674"><ele>854.6</ele><time>2026-04-18T08:48:56.999Z</time></trkpt><trkpt lat="44.533106843167296" lon="9.427388903578422"><ele>859.2</ele><time>2026-04-18T08:48:57.999Z</time></trkpt><trkpt lat="44.53304819037595" lon="9.427492683664786"><ele>863.8</ele><time>2026-04-18T08:48:58.999Z</time></trkpt><trkpt lat="44.533016150608724" lon="9.427623560845596"><ele>868.4</ele><time>2026-04-18T08:48:59.999Z</time></trkpt><trkpt lat="44.53301615400695" lon="9.427756239007971"><ele>873.0</ele><time>2026-04-18T08:49:00.999Z</time></trkpt><trkpt lat="44.5330675568247" lon="9.427861840948951"><ele>873.0</ele><time>2026-04-18T08:49:01.999Z</time></trkpt><trkpt lat="44.53318475252596" lon="9.427920348325465"><ele>873.0</ele><time>2026-04-18T08:49:02.999Z</time></trkpt><trkpt lat="44.53332425867734" lon="9.427897946321064"><ele>873.0</ele><time>2026-04-18T08:49:03.999Z</time></trkpt><trkpt lat="44.53344595242569" lon="9.427880210842464"><ele>873.0</ele><time>2026-04-18T08:49:04.999Z</time></trkpt><trkpt lat="44.53355198035877" lon="9.427883167999788"><ele>873.0</ele><time>2026-04-18T08:49:05.999Z</time></trkpt><trkpt lat="44.5336648326336" lon="9.42791342494666"><ele>873.0</ele><time>2026-04-18T08:49:06.999Z</time></trkpt><trkpt lat="44.53373907506315" lon="9.428049832102374"><ele>873.0</ele><time>2026-04-18T08:49:07.999Z</time></trkpt><trkpt lat="44.533812071479296" lon="9.428175756244235"><ele>873.0</ele><time>2026-04-18T08:49:08.999Z</time></trkpt><trkpt lat="44.53386046324023" lon="9.428298745498497"><ele>873.0</ele><time>2026-04-18T08:49:09.999Z</time></trkpt><trkpt lat="44.53388207752788" lon="9.42841160933158"><ele>873.0</ele><time>2026-04-18T08:49:10.999Z</time></trkpt><trkpt lat="44.533845500696025" lon="9.428537554809926"><ele>873.0</ele><time>2026-04-18T08:49:11.999Z</time></trkpt><trkpt lat="44.53376478235812" lon="9.428655101139743"><ele>873.0</ele><time>2026-04-18T08:49:12.999Z</time></trkpt><trkpt lat="44.53365294596743" lon="9.428732582003695"><ele>873.0</ele><time>2026-04-18T08:49:13.999Z</time></trkpt><trkpt lat="44.533575621576944" lon="9.428814387623943"><ele>874.0</ele><time>2026-04-18T08:49:14.999Z</time></trkpt><trkpt lat="44.533540772177936" lon="9.428909062120463"><ele>875.0</ele><time>2026-04-18T08:49:15.999Z</time></trkpt><trkpt lat="44.53351645896702" lon="9.429003434654593"><ele>876.0</ele><time>2026-04-18T08:49:16.999Z</time></trkpt><trkpt lat="44.53357146126838" lon="9.429127273073094"><ele>877.0</ele><time>2026-04-18T08:49:17.999Z</time></trkpt><trkpt lat="44.533685446596685" lon="9.429195797528761"><ele>878.0</ele><time>2026-04-18T08:49:18.999Z</time></trkpt><trkpt lat="44.533811716886284" lon="9.429286441134767"><ele>881.75</ele><time>2026-04-18T08:49:19.999Z</time></trkpt><trkpt lat="44.533938924561006" lon="9.429381126100719"><ele>885.5</ele><time>2026-04-18T08:49:20.999Z</time></trkpt><trkpt lat="44.53405665106055" lon="9.42947849876398"><ele>889.25</ele><time>2026-04-18T08:49:21.999Z</time></trkpt><trkpt lat="44.53416269210049" lon="9.429604165131144"><ele>893.0</ele><time>2026-04-18T08:49:22.999Z</time></trkpt><trkpt lat="44.53425249007952" lon="9.42968857947009"><ele>894.2</ele><time>2026-04-18T08:49:23.999Z</time></trkpt><trkpt lat="44.534338491143394" lon="9.429769348430282"><ele>895.4</ele><time>2026-04-18T08:49:24.999Z</time></trkpt><trkpt lat="44.534375209983075" lon="9.429889859511743"><ele>896.6000000000001</ele><time>2026-04-18T08:49:25.999Z</time></trkpt><trkpt lat="44.534389404038386" lon="9.430028073358335"><ele>897.8000000000001</ele><time>2026-04-18T08:49:26.999Z</time></trkpt><trkpt lat="44.534371447051974" lon="9.43018907914405"><ele>899.0</ele><time>2026-04-18T08:49:27.999Z</time></trkpt><trkpt lat="44.53432581724273" lon="9.430300744471909"><ele>899.0</ele><time>2026-04-18T08:49:28.999Z</time></trkpt><trkpt lat="44.534252928980166" lon="9.430372241187682"><ele>899.0000000000001</ele><time>2026-04-18T08:49:29.999Z</time></trkpt><trkpt lat="44.53415606592049" lon="9.430405233016467"><ele>899.0000000000001</ele><time>2026-04-18T08:49:30.999Z</time></trkpt><trkpt lat="44.53404766832124" lon="9.43043438746939"><ele>899.0</ele><time>2026-04-18T08:49:31.999Z</time></trkpt><trkpt lat="44.53395466047194" lon="9.430467245340365"><ele>899.0</ele><time>2026-04-18T08:49:32.999Z</time></trkpt><trkpt lat="44.53387941767511" lon="9.430497002149123"><ele>900.8000000000001</ele><time>2026-04-18T08:49:33.999Z</time></trkpt><trkpt lat="44.53379841813562" lon="9.430539867985674"><ele>902.6000000000001</ele><time>2026-04-18T08:49:34.999Z</time></trkpt><trkpt lat="44.53374936443712" lon="9.430659561930344"><ele>904.4</ele><time>2026-04-18T08:49:36Z</time></trkpt><trkpt lat="44.53374492579831" lon="9.43079365642068"><ele>906.2</ele><time>2026-04-18T08:49:37Z</time></trkpt><trkpt lat="44.53384171952689" lon="9.430934945001578"><ele>908.0</ele><time>2026-04-18T08:49:38Z</time></trkpt><trkpt lat="44.533900945994866" lon="9.431065742390786"><ele>908.0000000000001</ele><time>2026-04-18T08:49:39Z</time></trkpt><trkpt lat="44.53393961957353" lon="9.431170150126952"><ele>908.0</ele><time>2026-04-18T08:49:40Z</time></trkpt><trkpt lat="44.53395478209163" lon="9.431267424432397"><ele>908.0</ele><time>2026-04-18T08:49:41Z</time></trkpt><trkpt lat="44.5339016529076" lon="9.431355240430017"><ele>908.0</ele><time>2026-04-18T08:49:42Z</time></trkpt><trkpt lat="44.533847455474515" lon="9.431436561381455"><ele>908.0000000000001</ele><time>2026-04-18T08:49:43Z</time></trkpt><trkpt lat="44.53379107875406" lon="9.43152446281295"><ele>908.0</ele><time>2026-04-18T08:49:44Z</time></trkpt><trkpt lat="44.53373184999809" lon="9.431623204227915"><ele>909.75</ele><time>2026-04-18T08:49:45Z</time></trkpt><trkpt lat="44.53367252248579" lon="9.431722110441466"><ele>911.5</ele><time>2026-04-18T08:49:46Z</time></trkpt><trkpt lat="44.53360574960386" lon="9.431832256838078"><ele>913.25</ele><time>2026-04-18T08:49:47Z</time></trkpt><trkpt lat="44.53352949284545" lon="9.431968120490758"><ele>915.0</ele><time>2026-04-18T08:49:48Z</time></trkpt><trkpt lat="44.53344275990249" lon="9.432131391924568"><ele>919.0</ele><time>2026-04-18T08:49:49Z</time></trkpt><trkpt lat="44.53335779856925" lon="9.432301476110265"><ele>923.0</ele><time>2026-04-18T08:49:50Z</time></trkpt><trkpt lat="44.53329004072659" lon="9.432422797605522"><ele>927.0</ele><time>2026-04-18T08:49:51Z</time></trkpt><trkpt lat="44.5332226076092" lon="9.432518805389375"><ele>931.0</ele><time>2026-04-18T08:49:52Z</time></trkpt><trkpt lat="44.533127101758474" lon="9.432613274906592"><ele>931.0</ele><time>2026-04-18T08:49:54Z</time></trkpt><trkpt lat="44.53305125393545" lon="9.43267137197799"><ele>930.9999999999999</ele><time>2026-04-18T08:49:56Z</time></trkpt><trkpt lat="44.53300481743753" lon="9.432736771058732"><ele>930.9999999999999</ele><time>2026-04-18T08:50:02Z</time></trkpt><trkpt lat="44.53314038354915" lon="9.432839185535135"><ele>931.0</ele><time>2026-04-18T08:50:04Z</time></trkpt><trkpt lat="44.53323341219626" lon="9.432810374896532"><ele>931.0</ele><time>2026-04-18T08:50:05Z</time></trkpt><trkpt lat="44.533331405322244" lon="9.432786619369598"><ele>931.0</ele><time>2026-04-18T08:50:06Z</time></trkpt><trkpt lat="44.533427261397506" lon="9.43273118817929"><ele>931.0</ele><time>2026-04-18T08:50:07Z</time></trkpt><trkpt lat="44.53352794778003" lon="9.432639563783734"><ele>931.0</ele><time>2026-04-18T08:50:08Z</time></trkpt><trkpt lat="44.533631780859224" lon="9.432524932082437"><ele>931.0</ele><time>2026-04-18T08:50:09Z</time></trkpt><trkpt lat="44.5337371249634" lon="9.432443027230773"><ele>932.5</ele><time>2026-04-18T08:50:10Z</time></trkpt><trkpt lat="44.53386551104744" lon="9.432424718632033"><ele>934.0</ele><time>2026-04-18T08:50:11Z</time></trkpt><trkpt lat="44.533994957489554" lon="9.432469569159997"><ele>935.5</ele><time>2026-04-18T08:50:12Z</time></trkpt><trkpt lat="44.534069496673226" lon="9.43257584534017"><ele>937.0</ele><time>2026-04-18T08:50:13Z</time></trkpt><trkpt lat="44.53413084463435" lon="9.432699809358468"><ele>937.0</ele><time>2026-04-18T08:50:14Z</time></trkpt><trkpt lat="44.534187601850924" lon="9.432881999388913"><ele>937.0</ele><time>2026-04-18T08:50:15Z</time></trkpt><trkpt lat="44.53425683165151" lon="9.433060989244673"><ele>937.0</ele><time>2026-04-18T08:50:16Z</time></trkpt><trkpt lat="44.534322253004945" lon="9.433199633765106"><ele>937.0</ele><time>2026-04-18T08:50:17Z</time></trkpt><trkpt lat="44.53440673971542" lon="9.43329738373113"><ele>940.5</ele><time>2026-04-18T08:50:18Z</time></trkpt><trkpt lat="44.534519403554796" lon="9.43337999393905"><ele>944.0</ele><time>2026-04-18T08:50:19Z</time></trkpt><trkpt lat="44.534656608207406" lon="9.43340675217358"><ele>947.5</ele><time>2026-04-18T08:50:20Z</time></trkpt><trkpt lat="44.534819893742366" lon="9.433389773453412"><ele>951.0</ele><time>2026-04-18T08:50:21Z</time></trkpt><trkpt lat="44.53498846389737" lon="9.433352297553594"><ele>951.0</ele><time>2026-04-18T08:50:22Z</time></trkpt><trkpt lat="44.5351217268878" lon="9.433334918118716"><ele>951.0</ele><time>2026-04-18T08:50:23Z</time></trkpt><trkpt lat="44.5352427978349" lon="9.433343171929167"><ele>951.0</ele><time>2026-04-18T08:50:24Z</time></trkpt><trkpt lat="44.53537040365064" lon="9.433406508407042"><ele>951.0</ele><time>2026-04-18T08:50:25Z</time></trkpt><trkpt lat="44.53545592612599" lon="9.433528592415893"><ele>949.5</ele><time>2026-04-18T08:50:26Z</time></trkpt><trkpt lat="44.53549888230798" lon="9.433688713892668"><ele>948.0</ele><time>2026-04-18T08:50:27Z</time></trkpt><trkpt lat="44.53550246888913" lon="9.4338556344034"><ele>946.5</ele><time>2026-04-18T08:50:28Z</time></trkpt><trkpt lat="44.535518111400265" lon="9.434062218659141"><ele>945.0</ele><time>2026-04-18T08:50:29Z</time></trkpt><trkpt lat="44.535545877253874" lon="9.434270441687145"><ele>945.0</ele><time>2026-04-18T08:50:30Z</time></trkpt><trkpt lat="44.53557647757547" lon="9.434476141183314"><ele>945.0</ele><time>2026-04-18T08:50:31Z</time></trkpt><trkpt lat="44.53563745579827" lon="9.434688558864243"><ele>945.0</ele><time>2026-04-18T08:50:32Z</time></trkpt><trkpt lat="44.535717244853174" lon="9.434911505805186"><ele>948.5</ele><time>2026-04-18T08:50:33Z</time></trkpt><trkpt lat="44.53578091680131" lon="9.435075120590355"><ele>952.0</ele><time>2026-04-18T08:50:34Z</time></trkpt><trkpt lat="44.53584148797356" lon="9.435227725820537"><ele>955.5</ele><time>2026-04-18T08:50:35Z</time></trkpt><trkpt lat="44.53589835336429" lon="9.435374266044247"><ele>959.0</ele><time>2026-04-18T08:50:36Z</time></trkpt><trkpt lat="44.53593911495253" lon="9.43549332794327"><ele>962.3333333333334</ele><time>2026-04-18T08:50:37Z</time></trkpt><trkpt lat="44.535889128675024" lon="9.435680469644938"><ele>965.6666666666667</ele><time>2026-04-18T08:50:38Z</time></trkpt><trkpt lat="44.53583036898391" lon="9.435891626901327"><ele>969.0</ele><time>2026-04-18T08:50:39Z</time></trkpt><trkpt lat="44.53579083905022" lon="9.436112707668045"><ele>969.0</ele><time>2026-04-18T08:50:40Z</time></trkpt><trkpt lat="44.53572598149561" lon="9.43629676595979"><ele>969.0</ele><time>2026-04-18T08:50:41Z</time></trkpt><trkpt lat="44.53568488384523" lon="9.436495406673904"><ele>969.0</ele><time>2026-04-18T08:50:41.999Z</time></trkpt><trkpt lat="44.53568740386794" lon="9.436706117945018"><ele>969.0</ele><time>2026-04-18T08:50:42.999Z</time></trkpt><trkpt lat="44.535711337408515" lon="9.43685657502918"><ele>971.0</ele><time>2026-04-18T08:50:43.999Z</time></trkpt><trkpt lat="44.53578332076093" lon="9.436979607388368"><ele>973.0</ele><time>2026-04-18T08:50:44.999Z</time></trkpt><trkpt lat="44.53589684030439" lon="9.437084189051605"><ele>975.0</ele><time>2026-04-18T08:50:45.999Z</time></trkpt><trkpt lat="44.53604125709645" lon="9.43713103937019"><ele>977.0</ele><time>2026-04-18T08:50:46.999Z</time></trkpt><trkpt lat="44.53618590371099" lon="9.437152180586173"><ele>977.0</ele><time>2026-04-18T08:50:47.999Z</time></trkpt><trkpt lat="44.53630696660068" lon="9.437151077536097"><ele>977.0</ele><time>2026-04-18T08:50:48.999Z</time></trkpt><trkpt lat="44.53640266181873" lon="9.437170891593176"><ele>977.0</ele><time>2026-04-18T08:50:49.999Z</time></trkpt><trkpt lat="44.53649704835025" lon="9.437248120536935"><ele>977.0</ele><time>2026-04-18T08:50:50.999Z</time></trkpt><trkpt lat="44.536552724735195" lon="9.437386665856023"><ele>977.0</ele><time>2026-04-18T08:50:51.999Z</time></trkpt><trkpt lat="44.53657906795015" lon="9.437557138114256"><ele>977.0</ele><time>2026-04-18T08:50:52.999Z</time></trkpt><trkpt lat="44.536588313710965" lon="9.437765618156824"><ele>977.0</ele><time>2026-04-18T08:50:53.999Z</time></trkpt><trkpt lat="44.53656935666933" lon="9.438011382155153"><ele>977.0</ele><time>2026-04-18T08:50:54.999Z</time></trkpt><trkpt lat="44.53659241341292" lon="9.438240213859336"><ele>979.6666666666667</ele><time>2026-04-18T08:50:55.999Z</time></trkpt><trkpt lat="44.536663249430205" lon="9.438434798925453"><ele>982.3333333333333</ele><time>2026-04-18T08:50:56.999Z</time></trkpt><trkpt lat="44.53671803572392" lon="9.438635757509514"><ele>985.0</ele><time>2026-04-18T08:50:57.999Z</time></trkpt><trkpt lat="44.53670285137253" lon="9.438877657218155"><ele>987.0</ele><time>2026-04-18T08:50:58.999Z</time></trkpt><trkpt lat="44.53670195431007" lon="9.439148735801277"><ele>989.0</ele><time>2026-04-18T08:50:59.999Z</time></trkpt><trkpt lat="44.536711285114656" lon="9.439382813817987"><ele>991.0</ele><time>2026-04-18T08:51:00.999Z</time></trkpt><trkpt lat="44.53672699470991" lon="9.43962262065582"><ele>996.3333333333333</ele><time>2026-04-18T08:51:01.999Z</time></trkpt><trkpt lat="44.5368227388848" lon="9.439819846850044"><ele>1001.6666666666667</ele><time>2026-04-18T08:51:02.999Z</time></trkpt><trkpt lat="44.53692962152865" lon="9.440037526973112"><ele>1007.0</ele><time>2026-04-18T08:51:03.999Z</time></trkpt><trkpt lat="44.53700293636962" lon="9.440284831495962"><ele>1002.0</ele><time>2026-04-18T08:51:04.999Z</time></trkpt><trkpt lat="44.53710780570334" lon="9.440563269658272"><ele>997.0</ele><time>2026-04-18T08:51:05.999Z</time></trkpt><trkpt lat="44.5370651135391" lon="9.440378601233153"><ele>992.0</ele><time>2026-04-18T08:51:06.999Z</time></trkpt><trkpt lat="44.53711272711615" lon="9.440561413364248"><ele>992.0</ele><time>2026-04-18T08:51:07.999Z</time></trkpt><trkpt lat="44.53717028161526" lon="9.440714940052638"><ele>992.0</ele><time>2026-04-18T08:51:08.999Z</time></trkpt><trkpt lat="44.53720998817968" lon="9.440860849080863"><ele>992.0</ele><time>2026-04-18T08:51:09.999Z</time></trkpt><trkpt lat="44.53729017433285" lon="9.440973789845364"><ele>992.0</ele><time>2026-04-18T08:51:10.999Z</time></trkpt><trkpt lat="44.53742231339333" lon="9.440985320692668"><ele>992.0</ele><time>2026-04-18T08:51:11.999Z</time></trkpt><trkpt lat="44.53757562072288" lon="9.44102246941938"><ele>992.0</ele><time>2026-04-18T08:51:12.999Z</time></trkpt><trkpt lat="44.537704835381064" lon="9.441071405851202"><ele>992.0</ele><time>2026-04-18T08:51:13.999Z</time></trkpt><trkpt lat="44.53780722422922" lon="9.441135670502074"><ele>992.0</ele><time>2026-04-18T08:51:14.999Z</time></trkpt><trkpt lat="44.53786002979105" lon="9.4412854338566"><ele>989.0</ele><time>2026-04-18T08:51:15.999Z</time></trkpt><trkpt lat="44.53791396292791" lon="9.441460241382098"><ele>986.0</ele><time>2026-04-18T08:51:16.999Z</time></trkpt><trkpt lat="44.53797259372176" lon="9.44166076164042"><ele>983.0</ele><time>2026-04-18T08:51:17.999Z</time></trkpt><trkpt lat="44.538029565715384" lon="9.441858449343288"><ele>980.0</ele><time>2026-04-18T08:51:18.999Z</time></trkpt><trkpt lat="44.538068582703644" lon="9.442021142304862"><ele>982.5</ele><time>2026-04-18T08:51:19.999Z</time></trkpt><trkpt lat="44.53808823247871" lon="9.442177149972236"><ele>985.0</ele><time>2026-04-18T08:51:20.999Z</time></trkpt><trkpt lat="44.53807715088361" lon="9.442370618745862"><ele>987.5</ele><time>2026-04-18T08:51:21.999Z</time></trkpt><trkpt lat="44.538055162741486" lon="9.442591216750758"><ele>990.0</ele><time>2026-04-18T08:51:22.999Z</time></trkpt><trkpt lat="44.538050557268456" lon="9.442766465118261"><ele>990.0</ele><time>2026-04-18T08:51:23.999Z</time></trkpt><trkpt lat="44.538066829353376" lon="9.442916446004608"><ele>990.0</ele><time>2026-04-18T08:51:24.999Z</time></trkpt><trkpt lat="44.53811509361043" lon="9.443030631442184"><ele>990.0</ele><time>2026-04-18T08:51:25.999Z</time></trkpt><trkpt lat="44.53819577981102" lon="9.443092596592182"><ele>990.0</ele><time>2026-04-18T08:51:26.999Z</time></trkpt><trkpt lat="44.53830827652569" lon="9.443132894317758"><ele>990.0</ele><time>2026-04-18T08:51:27.999Z</time></trkpt><trkpt lat="44.53845096219973" lon="9.44320518109013"><ele>994.0</ele><time>2026-04-18T08:51:28.999Z</time></trkpt><trkpt lat="44.53860651550497" lon="9.443265709848344"><ele>998.0</ele><time>2026-04-18T08:51:29.999Z</time></trkpt><trkpt lat="44.53875759412943" lon="9.44333176481035"><ele>1002.0</ele><time>2026-04-18T08:51:30.999Z</time></trkpt><trkpt lat="44.53890268305955" lon="9.443394921103309"><ele>1002.0</ele><time>2026-04-18T08:51:31.999Z</time></trkpt><trkpt lat="44.539027973684114" lon="9.443448409420881"><ele>1002.0</ele><time>2026-04-18T08:51:32.999Z</time></trkpt><trkpt lat="44.53913892468574" lon="9.443498565953321"><ele>1002.0</ele><time>2026-04-18T08:51:33.999Z</time></trkpt><trkpt lat="44.539252669501025" lon="9.443504067785554"><ele>1002.0</ele><time>2026-04-18T08:51:34.999Z</time></trkpt><trkpt lat="44.53935774611142" lon="9.443468593904532"><ele>1002.0</ele><time>2026-04-18T08:51:35.999Z</time></trkpt><trkpt lat="44.53946897297718" lon="9.443405176817715"><ele>1002.0</ele><time>2026-04-18T08:51:36.999Z</time></trkpt><trkpt lat="44.539593232658234" lon="9.443363743535777"><ele>1002.0</ele><time>2026-04-18T08:51:37.999Z</time></trkpt><trkpt lat="44.53971586125209" lon="9.443311103733379"><ele>1002.0</ele><time>2026-04-18T08:51:38.999Z</time></trkpt><trkpt lat="44.539823935214834" lon="9.443301092624449"><ele>1002.6</ele><time>2026-04-18T08:51:39.999Z</time></trkpt><trkpt lat="44.53992722617872" lon="9.443294073812275"><ele>1003.2</ele><time>2026-04-18T08:51:40.999Z</time></trkpt><trkpt lat="44.54003705280332" lon="9.443297387169366"><ele>1003.8</ele><time>2026-04-18T08:51:42Z</time></trkpt><trkpt lat="44.54014851338241" lon="9.443298707005466"><ele>1004.4</ele><time>2026-04-18T08:51:43Z</time></trkpt><trkpt lat="44.54026326902005" lon="9.443304856795153"><ele>1005.0</ele><time>2026-04-18T08:51:44Z</time></trkpt><trkpt lat="44.540363278292816" lon="9.443383222807835"><ele>1002.25</ele><time>2026-04-18T08:51:45Z</time></trkpt><trkpt lat="44.54045099663266" lon="9.443485839637356"><ele>999.5</ele><time>2026-04-18T08:51:46Z</time></trkpt><trkpt lat="44.54049437594575" lon="9.443645550206872"><ele>996.75</ele><time>2026-04-18T08:51:47Z</time></trkpt><trkpt lat="44.54051418527281" lon="9.44382271907663"><ele>994.0</ele><time>2026-04-18T08:51:48Z</time></trkpt><trkpt lat="44.540547294946194" lon="9.44401302943107"><ele>994.0</ele><time>2026-04-18T08:51:49Z</time></trkpt><trkpt lat="44.54056572325182" lon="9.44421644856282"><ele>994.0</ele><time>2026-04-18T08:51:50Z</time></trkpt><trkpt lat="44.540625037319565" lon="9.444408465092065"><ele>994.0</ele><time>2026-04-18T08:51:51Z</time></trkpt><trkpt lat="44.54071421200912" lon="9.444580169266382"><ele>994.0</ele><time>2026-04-18T08:51:52Z</time></trkpt><trkpt lat="44.54081444854549" lon="9.444735429150327"><ele>1001.0</ele><time>2026-04-18T08:51:53Z</time></trkpt><trkpt lat="44.54089629165428" lon="9.44490723723858"><ele>1008.0</ele><time>2026-04-18T08:51:54Z</time></trkpt><trkpt lat="44.54097677599653" lon="9.445100275897937"><ele>1015.0</ele><time>2026-04-18T08:51:55Z</time></trkpt><trkpt lat="44.541065545425475" lon="9.445290200915027"><ele>1015.0</ele><time>2026-04-18T08:51:56Z</time></trkpt><trkpt lat="44.54114890838834" lon="9.445448990956029"><ele>1015.0</ele><time>2026-04-18T08:51:57Z</time></trkpt><trkpt lat="44.54123372953077" lon="9.445581422100489"><ele>1015.0</ele><time>2026-04-18T08:51:58Z</time></trkpt><trkpt lat="44.541308996652475" lon="9.445723087839745"><ele>1015.0</ele><time>2026-04-18T08:51:59Z</time></trkpt><trkpt lat="44.541387079478824" lon="9.445878832794435"><ele>1016.5</ele><time>2026-04-18T08:52:00Z</time></trkpt><trkpt lat="44.54145965039697" lon="9.446050522514136"><ele>1018.0</ele><time>2026-04-18T08:52:01Z</time></trkpt><trkpt lat="44.54149621283195" lon="9.446229568111308"><ele>1019.5</ele><time>2026-04-18T08:52:02Z</time></trkpt><trkpt lat="44.541558716286524" lon="9.446362171527703"><ele>1021.0</ele><time>2026-04-18T08:52:03Z</time></trkpt><trkpt lat="44.541644865264324" lon="9.446472068312683"><ele>1021.0</ele><time>2026-04-18T08:52:04Z</time></trkpt><trkpt lat="44.54175306583998" lon="9.446586120693457"><ele>1021.0</ele><time>2026-04-18T08:52:05Z</time></trkpt><trkpt lat="44.54187703235092" lon="9.446693829631101"><ele>1021.0</ele><time>2026-04-18T08:52:06Z</time></trkpt><trkpt lat="44.54198691217051" lon="9.446788834133631"><ele>1021.0</ele><time>2026-04-18T08:52:07Z</time></trkpt><trkpt lat="44.542066858557575" lon="9.446912744670474"><ele>1015.75</ele><time>2026-04-18T08:52:08Z</time></trkpt><trkpt lat="44.542155265350296" lon="9.447033815288588"><ele>1010.5</ele><time>2026-04-18T08:52:09Z</time></trkpt><trkpt lat="44.542169478686816" lon="9.44721311472088"><ele>1005.25</ele><time>2026-04-18T08:52:10Z</time></trkpt><trkpt lat="44.54216949016096" lon="9.447389931143313"><ele>1000.0</ele><time>2026-04-18T08:52:11Z</time></trkpt><trkpt lat="44.54218853099841" lon="9.447553959377679"><ele>1000.0</ele><time>2026-04-18T08:52:12Z</time></trkpt><trkpt lat="44.542274396386006" lon="9.447693051619353"><ele>1000.0</ele><time>2026-04-18T08:52:13Z</time></trkpt><trkpt lat="44.54235270755207" lon="9.447831761424743"><ele>1000.0</ele><time>2026-04-18T08:52:14Z</time></trkpt><trkpt lat="44.54241321240223" lon="9.447973287950937"><ele>1000.0</ele><time>2026-04-18T08:52:15Z</time></trkpt><trkpt lat="44.54242176423801" lon="9.448139298199758"><ele>1003.25</ele><time>2026-04-18T08:52:16Z</time></trkpt><trkpt lat="44.54240799566947" lon="9.448323630307609"><ele>1006.5</ele><time>2026-04-18T08:52:17Z</time></trkpt><trkpt lat="44.54242425617303" lon="9.44847447721111"><ele>1009.75</ele><time>2026-04-18T08:52:18Z</time></trkpt><trkpt lat="44.54248904211858" lon="9.448610847720609"><ele>1013.0</ele><time>2026-04-18T08:52:19Z</time></trkpt><trkpt lat="44.54258694743627" lon="9.448742806035595"><ele>1016.75</ele><time>2026-04-18T08:52:20Z</time></trkpt><trkpt lat="44.542693154287086" lon="9.44889266885577"><ele>1020.5</ele><time>2026-04-18T08:52:21Z</time></trkpt><trkpt lat="44.542801821010485" lon="9.4490300830633"><ele>1024.25</ele><time>2026-04-18T08:52:22Z</time></trkpt><trkpt lat="44.54289052408527" lon="9.449146780274868"><ele>1028.0</ele><time>2026-04-18T08:52:23Z</time></trkpt><trkpt lat="44.54298005201193" lon="9.449243938914774"><ele>1023.75</ele><time>2026-04-18T08:52:24Z</time></trkpt><trkpt lat="44.54304240612665" lon="9.449373344258664"><ele>1019.5</ele><time>2026-04-18T08:52:25Z</time></trkpt><trkpt lat="44.54309462785331" lon="9.449517145149928"><ele>1015.25</ele><time>2026-04-18T08:52:26Z</time></trkpt><trkpt lat="44.54314007527167" lon="9.449677720645857"><ele>1011.0</ele><time>2026-04-18T08:52:27Z</time></trkpt><trkpt lat="44.54318404809673" lon="9.44981902104342"><ele>1011.0</ele><time>2026-04-18T08:52:28Z</time></trkpt><trkpt lat="44.543214542490134" lon="9.449968277372458"><ele>1011.0</ele><time>2026-04-18T08:52:29Z</time></trkpt><trkpt lat="44.543253390920704" lon="9.450129532346585"><ele>1011.0</ele><time>2026-04-18T08:52:30Z</time></trkpt><trkpt lat="44.54329830420152" lon="9.450284756334142"><ele>1011.0</ele><time>2026-04-18T08:52:31Z</time></trkpt><trkpt lat="44.543372033487636" lon="9.450436545537473"><ele>1010.25</ele><time>2026-04-18T08:52:32Z</time></trkpt><trkpt lat="44.54345955233714" lon="9.450573645019059"><ele>1009.5</ele><time>2026-04-18T08:52:33Z</time></trkpt><trkpt lat="44.54355668284209" lon="9.450698084354382"><ele>1008.75</ele><time>2026-04-18T08:52:34Z</time></trkpt><trkpt lat="44.54363722538336" lon="9.45081080040096"><ele>1008.0</ele><time>2026-04-18T08:52:35Z</time></trkpt><trkpt lat="44.54372078025482" lon="9.4509264348642"><ele>1008.0</ele><time>2026-04-18T08:52:36Z</time></trkpt><trkpt lat="44.54380491234187" lon="9.451045790474831"><ele>1008.0</ele><time>2026-04-18T08:52:37Z</time></trkpt><trkpt lat="44.54387766778216" lon="9.451158184727687"><ele>1008.0</ele><time>2026-04-18T08:52:38Z</time></trkpt><trkpt lat="44.543949723355134" lon="9.451255121074613"><ele>1008.0</ele><time>2026-04-18T08:52:39Z</time></trkpt><trkpt lat="44.54403723499521" lon="9.45133108084518"><ele>1008.0</ele><time>2026-04-18T08:52:40Z</time></trkpt><trkpt lat="44.54414447398384" lon="9.4513487409161"><ele>1008.0</ele><time>2026-04-18T08:52:41Z</time></trkpt><trkpt lat="44.54425553234879" lon="9.451295944741128"><ele>1008.0</ele><time>2026-04-18T08:52:42Z</time></trkpt><trkpt lat="44.54435121601358" lon="9.451172723498036"><ele>1008.0</ele><time>2026-04-18T08:52:43Z</time></trkpt><trkpt lat="44.54444223710608" lon="9.450999252545168"><ele>1008.0</ele><time>2026-04-18T08:52:44Z</time></trkpt><trkpt lat="44.54451354944422" lon="9.450830182637029"><ele>1009.5</ele><time>2026-04-18T08:52:45Z</time></trkpt><trkpt lat="44.54457259699474" lon="9.45068073087246"><ele>1011.0</ele><time>2026-04-18T08:52:46Z</time></trkpt><trkpt lat="44.544632068554485" lon="9.450546229119016"><ele>1012.5</ele><time>2026-04-18T08:52:47Z</time></trkpt><trkpt lat="44.54469870177086" lon="9.45040206619097"><ele>1014.0</ele><time>2026-04-18T08:52:48Z</time></trkpt><trkpt lat="44.54476663877599" lon="9.45024023386827"><ele>1014.0</ele><time>2026-04-18T08:52:48.999Z</time></trkpt><trkpt lat="44.544832092994824" lon="9.45009467933292"><ele>1014.0</ele><time>2026-04-18T08:52:49.999Z</time></trkpt><trkpt lat="44.54489523635098" lon="9.449965177402545"><ele>1014.0</ele><time>2026-04-18T08:52:50.999Z</time></trkpt><trkpt lat="44.54497472516165" lon="9.449837630239319"><ele>1014.0</ele><time>2026-04-18T08:52:51.999Z</time></trkpt><trkpt lat="44.545077720247846" lon="9.449738488200678"><ele>1014.0</ele><time>2026-04-18T08:52:52.999Z</time></trkpt><trkpt lat="44.54518206730308" lon="9.449694152958386"><ele>1014.0000000000001</ele><time>2026-04-18T08:52:53.999Z</time></trkpt><trkpt lat="44.54527512018309" lon="9.449696816152509"><ele>1014.0000000000001</ele><time>2026-04-18T08:52:54.999Z</time></trkpt><trkpt lat="44.5453581637183" lon="9.449745856599527"><ele>1014.0</ele><time>2026-04-18T08:52:55.999Z</time></trkpt><trkpt lat="44.54543616793018" lon="9.44980592378587"><ele>1014.0</ele><time>2026-04-18T08:52:56.999Z</time></trkpt><trkpt lat="44.545509137942744" lon="9.449907067494738"><ele>1014.6</ele><time>2026-04-18T08:52:57.999Z</time></trkpt><trkpt lat="44.54556395262474" lon="9.45004295553197"><ele>1015.2</ele><time>2026-04-18T08:52:58.999Z</time></trkpt><trkpt lat="44.54559671103173" lon="9.450173689411805"><ele>1015.8000000000001</ele><time>2026-04-18T08:52:59.999Z</time></trkpt><trkpt lat="44.545625489877104" lon="9.450278981338496"><ele>1016.4000000000001</ele><time>2026-04-18T08:53:00.999Z</time></trkpt><trkpt lat="44.54566055090413" lon="9.450383639199245"><ele>1017.0</ele><time>2026-04-18T08:53:01.999Z</time></trkpt><trkpt lat="44.54570043270452" lon="9.45049694247638"><ele>1017.0</ele><time>2026-04-18T08:53:02.999Z</time></trkpt><trkpt lat="44.54574676344094" lon="9.450605894150513"><ele>1017.0</ele><time>2026-04-18T08:53:03.999Z</time></trkpt><trkpt lat="44.5457723542108" lon="9.450700672114808"><ele>1017.0</ele><time>2026-04-18T08:53:04.999Z</time></trkpt><trkpt lat="44.54579159729761" lon="9.45079499741717"><ele>1017.0</ele><time>2026-04-18T08:53:05.999Z</time></trkpt><trkpt lat="44.54580688816957" lon="9.45088823020127"><ele>1017.0</ele><time>2026-04-18T08:53:06.999Z</time></trkpt><trkpt lat="44.5458303824701" lon="9.45103673936947"><ele>1017.0</ele><time>2026-04-18T08:53:08.999Z</time></trkpt><trkpt lat="44.545920633959945" lon="9.451058509850144"><ele>1017.0</ele><time>2026-04-18T08:53:09.999Z</time></trkpt><trkpt lat="44.54604301498091" lon="9.451104334388072"><ele>1017.0</ele><time>2026-04-18T08:53:11.999Z</time></trkpt><trkpt lat="44.546104998948955" lon="9.451141293964191"><ele>1017.0</ele><time>2026-04-18T08:53:12.999Z</time></trkpt><trkpt lat="44.54616864059813" lon="9.451181037432514"><ele>1017.0</ele><time>2026-04-18T08:53:13.999Z</time></trkpt><trkpt lat="44.54624443032015" lon="9.451230605430352"><ele>1017.0</ele><time>2026-04-18T08:53:14.999Z</time></trkpt><trkpt lat="44.546334480264306" lon="9.45127922934715"><ele>1017.0</ele><time>2026-04-18T08:53:15.999Z</time></trkpt><trkpt lat="44.54642963327853" lon="9.451338605905425"><ele>1016.3333333333334</ele><time>2026-04-18T08:53:16.999Z</time></trkpt><trkpt lat="44.5465152262178" lon="9.451391951425226"><ele>1015.6666666666667</ele><time>2026-04-18T08:53:17.999Z</time></trkpt><trkpt lat="44.54659447800786" lon="9.451434969155605"><ele>1015.0</ele><time>2026-04-18T08:53:18.999Z</time></trkpt><trkpt lat="44.546681579151" lon="9.45145763537633"><ele>1014.3333333333334</ele><time>2026-04-18T08:53:19.999Z</time></trkpt><trkpt lat="44.546764066820785" lon="9.451456287240235"><ele>1013.6666666666667</ele><time>2026-04-18T08:53:20.999Z</time></trkpt><trkpt lat="44.546842506624046" lon="9.45143452689133"><ele>1013.0</ele><time>2026-04-18T08:53:21.999Z</time></trkpt><trkpt lat="44.54692707507843" lon="9.45139862009457"><ele>1013.0</ele><time>2026-04-18T08:53:22.999Z</time></trkpt><trkpt lat="44.546993056177875" lon="9.45136517222012"><ele>1013.0</ele><time>2026-04-18T08:53:23.999Z</time></trkpt><trkpt lat="44.547079220598" lon="9.451326309332378"><ele>1015.0</ele><time>2026-04-18T08:53:25.999Z</time></trkpt><trkpt lat="44.54715490661455" lon="9.451277595857434"><ele>1011.0</ele><time>2026-04-18T08:53:28.999Z</time></trkpt></trkseg><trkseg><trkpt lat="44.54594443968899" lon="9.456463087327487"><ele>1047.0</ele><time>2026-04-18T09:20:58.999Z</time></trkpt><trkpt lat="44.54593244755171" lon="9.456625153975953"><ele>1047.0</ele><time>2026-04-18T09:21:00.999Z</time></trkpt><trkpt lat="44.545917431586425" lon="9.456770166905626"><ele>1047.0</ele><time>2026-04-18T09:21:01.999Z</time></trkpt><trkpt lat="44.545869259261536" lon="9.456864464477286"><ele>1047.0</ele><time>2026-04-18T09:21:02.999Z</time></trkpt><trkpt lat="44.545786983892356" lon="9.456894142951414"><ele>1047.0</ele><time>2026-04-18T09:21:03.999Z</time></trkpt><trkpt lat="44.545735651703794" lon="9.45696576548252"><ele>1047.0</ele><time>2026-04-18T09:21:04.999Z</time></trkpt><trkpt lat="44.545667201863154" lon="9.457030757377707"><ele>1047.0</ele><time>2026-04-18T09:21:05.999Z</time></trkpt><trkpt lat="44.54558532898037" lon="9.457094230937502"><ele>1047.0</ele><time>2026-04-18T09:21:06.999Z</time></trkpt><trkpt lat="44.54549781310316" lon="9.457143970089497"><ele>1047.0</ele><time>2026-04-18T09:21:07.999Z</time></trkpt><trkpt lat="44.54541990002594" lon="9.457164106270751"><ele>1047.0</ele><time>2026-04-18T09:21:08.999Z</time></trkpt><trkpt lat="44.545296487091186" lon="9.457150028982914"><ele>1047.4</ele><time>2026-04-18T09:21:10.999Z</time></trkpt><trkpt lat="44.54521680616921" lon="9.457092604287158"><ele>1047.8000000000002</ele><time>2026-04-18T09:21:11.999Z</time></trkpt><trkpt lat="44.54513480026872" lon="9.457018478294932"><ele>1048.2</ele><time>2026-04-18T09:21:12.999Z</time></trkpt><trkpt lat="44.545055796634216" lon="9.456919743623988"><ele>1048.6000000000001</ele><time>2026-04-18T09:21:13.999Z</time></trkpt><trkpt lat="44.544960409206936" lon="9.456808034403357"><ele>1049.0</ele><time>2026-04-18T09:21:14.999Z</time></trkpt><trkpt lat="44.54487318936127" lon="9.456704597768056"><ele>1049.0</ele><time>2026-04-18T09:21:16Z</time></trkpt><trkpt lat="44.54479056626084" lon="9.45660661410416"><ele>1049.0</ele><time>2026-04-18T09:21:17Z</time></trkpt><trkpt lat="44.54471051917615" lon="9.456509254711143"><ele>1049.0</ele><time>2026-04-18T09:21:18Z</time></trkpt><trkpt lat="44.54463604445038" lon="9.456427165436603"><ele>1049.0</ele><time>2026-04-18T09:21:19Z</time></trkpt><trkpt lat="44.544564223046756" lon="9.456375315145594"><ele>1049.0</ele><time>2026-04-18T09:21:20Z</time></trkpt><trkpt lat="44.544488809900685" lon="9.456310870015393"><ele>1048.0</ele><time>2026-04-18T09:21:21Z</time></trkpt><trkpt lat="44.544399878857156" lon="9.456283327560879"><ele>1047.0</ele><time>2026-04-18T09:21:22Z</time></trkpt><trkpt lat="44.544318121359034" lon="9.456251919249823"><ele>1046.0</ele><time>2026-04-18T09:21:24Z</time></trkpt><trkpt lat="44.54420088039191" lon="9.456237296562662"><ele>1045.0</ele><time>2026-04-18T09:21:26Z</time></trkpt><trkpt lat="44.54410842609543" lon="9.456209958596315"><ele>1044.0</ele><time>2026-04-18T09:21:27Z</time></trkpt><trkpt lat="44.543994097938864" lon="9.456182674489648"><ele>1044.0</ele><time>2026-04-18T09:21:28Z</time></trkpt><trkpt lat="44.54386808762056" lon="9.456125966785782"><ele>1044.0</ele><time>2026-04-18T09:21:29Z</time></trkpt><trkpt lat="44.54374904291481" lon="9.45611752131575"><ele>1044.0</ele><time>2026-04-18T09:21:30Z</time></trkpt><trkpt lat="44.54364647176849" lon="9.45608552666302"><ele>1044.0</ele><time>2026-04-18T09:21:31Z</time></trkpt><trkpt lat="44.543532826930694" lon="9.45603984478291"><ele>1047.0</ele><time>2026-04-18T09:21:32Z</time></trkpt><trkpt lat="44.543435548065254" lon="9.455931419506552"><ele>1050.0</ele><time>2026-04-18T09:21:33Z</time></trkpt><trkpt lat="44.54335483556312" lon="9.455793072983338"><ele>1053.0</ele><time>2026-04-18T09:21:34Z</time></trkpt><trkpt lat="44.543291370543244" lon="9.455617289584714"><ele>1056.0</ele><time>2026-04-18T09:21:35Z</time></trkpt><trkpt lat="44.54328946991017" lon="9.455387582289454"><ele>1056.0</ele><time>2026-04-18T09:21:36Z</time></trkpt><trkpt lat="44.543279181498036" lon="9.455110314387543"><ele>1056.0</ele><time>2026-04-18T09:21:37Z</time></trkpt><trkpt lat="44.54328266599701" lon="9.454842061697821"><ele>1056.0</ele><time>2026-04-18T09:21:38Z</time></trkpt><trkpt lat="44.54327877957747" lon="9.45460401668719"><ele>1055.0</ele><time>2026-04-18T09:21:39Z</time></trkpt><trkpt lat="44.54326006508247" lon="9.454390698915585"><ele>1054.0</ele><time>2026-04-18T09:21:40Z</time></trkpt><trkpt lat="44.54322317599615" lon="9.454171063648792"><ele>1053.0</ele><time>2026-04-18T09:21:41Z</time></trkpt><trkpt lat="44.543180459564496" lon="9.45392944407822"><ele>1053.0</ele><time>2026-04-18T09:21:42Z</time></trkpt><trkpt lat="44.54313941629963" lon="9.453704978619973"><ele>1053.0</ele><time>2026-04-18T09:21:43Z</time></trkpt><trkpt lat="44.543109060812405" lon="9.453516164705322"><ele>1053.0</ele><time>2026-04-18T09:21:44Z</time></trkpt><trkpt lat="44.543073483613874" lon="9.45332967434093"><ele>1053.0</ele><time>2026-04-18T09:21:45Z</time></trkpt><trkpt lat="44.54302057346786" lon="9.453133630083869"><ele>1053.0</ele><time>2026-04-18T09:21:46Z</time></trkpt><trkpt lat="44.54293445884655" lon="9.45295162430709"><ele>1053.0</ele><time>2026-04-18T09:21:47Z</time></trkpt><trkpt lat="44.542830507102394" lon="9.45278190218773"><ele>1053.0</ele><time>2026-04-18T09:21:48Z</time></trkpt><trkpt lat="44.54273154367443" lon="9.452647382177888"><ele>1057.6666666666667</ele><time>2026-04-18T09:21:49Z</time></trkpt><trkpt lat="44.54263485739525" lon="9.452496061142366"><ele>1062.3333333333335</ele><time>2026-04-18T09:21:50Z</time></trkpt><trkpt lat="44.54253281877529" lon="9.45230923917755"><ele>1067.0</ele><time>2026-04-18T09:21:51Z</time></trkpt><trkpt lat="44.54243752370122" lon="9.452088474739849"><ele>1067.0</ele><time>2026-04-18T09:21:52Z</time></trkpt><trkpt lat="44.54236574998111" lon="9.451830359188223"><ele>1067.0</ele><time>2026-04-18T09:21:53Z</time></trkpt><trkpt lat="44.54230384797081" lon="9.451564488691284"><ele>1067.0</ele><time>2026-04-18T09:21:54Z</time></trkpt><trkpt lat="44.54225105221199" lon="9.451334944564135"><ele>1063.0</ele><time>2026-04-18T09:21:55Z</time></trkpt><trkpt lat="44.54220204837102" lon="9.4511181852043"><ele>1059.0</ele><time>2026-04-18T09:21:56Z</time></trkpt><trkpt lat="44.54215879268346" lon="9.450885566304736"><ele>1055.0</ele><time>2026-04-18T09:21:57Z</time></trkpt><trkpt lat="44.54213119020077" lon="9.45068360014375"><ele>1055.0</ele><time>2026-04-18T09:21:58Z</time></trkpt><trkpt lat="44.542105730566604" lon="9.450516931841248"><ele>1055.0</ele><time>2026-04-18T09:21:59Z</time></trkpt><trkpt lat="44.54205037539371" lon="9.45036494215517"><ele>1055.0</ele><time>2026-04-18T09:22:00Z</time></trkpt><trkpt lat="44.54194228392055" lon="9.450237850954595"><ele>1055.0</ele><time>2026-04-18T09:22:01Z</time></trkpt><trkpt lat="44.54180365639234" lon="9.450141207465153"><ele>1064.3333333333335</ele><time>2026-04-18T09:22:02Z</time></trkpt><trkpt lat="44.541631906946755" lon="9.45005498876187"><ele>1073.6666666666667</ele><time>2026-04-18T09:22:03Z</time></trkpt><trkpt lat="44.54148694695297" lon="9.449958496950433"><ele>1083.0</ele><time>2026-04-18T09:22:04Z</time></trkpt><trkpt lat="44.54138433779016" lon="9.449860887615335"><ele>1083.0</ele><time>2026-04-18T09:22:05Z</time></trkpt><trkpt lat="44.54131049896516" lon="9.449731524144823"><ele>1083.0</ele><time>2026-04-18T09:22:06Z</time></trkpt><trkpt lat="44.54128316061461" lon="9.449530749209494"><ele>1083.0</ele><time>2026-04-18T09:22:07Z</time></trkpt><trkpt lat="44.54121321172259" lon="9.449302841103128"><ele>1083.0</ele><time>2026-04-18T09:22:08Z</time></trkpt><trkpt lat="44.54113922885399" lon="9.449033515059902"><ele>1086.0</ele><time>2026-04-18T09:22:09Z</time></trkpt><trkpt lat="44.54105569309351" lon="9.44878852183377"><ele>1089.0</ele><time>2026-04-18T09:22:10Z</time></trkpt><trkpt lat="44.540966389889356" lon="9.44856068956962"><ele>1092.0</ele><time>2026-04-18T09:22:11Z</time></trkpt><trkpt lat="44.54088038735347" lon="9.44836662713827"><ele>1092.0</ele><time>2026-04-18T09:22:12Z</time></trkpt><trkpt lat="44.54080430948471" lon="9.448173016632433"><ele>1092.0</ele><time>2026-04-18T09:22:13Z</time></trkpt><trkpt lat="44.54071780498163" lon="9.447958055921744"><ele>1092.0</ele><time>2026-04-18T09:22:14Z</time></trkpt><trkpt lat="44.540622556899734" lon="9.4477166522819"><ele>1087.6666666666667</ele><time>2026-04-18T09:22:15Z</time></trkpt><trkpt lat="44.540530987419075" lon="9.447490081719046"><ele>1083.3333333333335</ele><time>2026-04-18T09:22:16Z</time></trkpt><trkpt lat="44.540456006616324" lon="9.447305580787745"><ele>1079.0</ele><time>2026-04-18T09:22:17Z</time></trkpt><trkpt lat="44.54039544364412" lon="9.447144135274435"><ele>1082.75</ele><time>2026-04-18T09:22:18Z</time></trkpt><trkpt lat="44.54032663368263" lon="9.44700610575534"><ele>1086.5</ele><time>2026-04-18T09:22:19Z</time></trkpt><trkpt lat="44.54024536509932" lon="9.44690632412415"><ele>1090.25</ele><time>2026-04-18T09:22:20Z</time></trkpt><trkpt lat="44.54012523094953" lon="9.446862232455096"><ele>1094.0</ele><time>2026-04-18T09:22:21Z</time></trkpt><trkpt lat="44.53999935512699" lon="9.446878770049638"><ele>1094.0</ele><time>2026-04-18T09:22:22Z</time></trkpt><trkpt lat="44.53985116960729" lon="9.446951308207106"><ele>1094.0</ele><time>2026-04-18T09:22:23Z</time></trkpt><trkpt lat="44.53968806028789" lon="9.447028016144964"><ele>1094.0</ele><time>2026-04-18T09:22:24Z</time></trkpt><trkpt lat="44.539520482053774" lon="9.447119866546595"><ele>1103.0</ele><time>2026-04-18T09:22:25Z</time></trkpt><trkpt lat="44.53935970739568" lon="9.44719679652457"><ele>1112.0</ele><time>2026-04-18T09:22:25.999Z</time></trkpt><trkpt lat="44.53920047504066" lon="9.447230081309135"><ele>1121.0</ele><time>2026-04-18T09:22:26.999Z</time></trkpt><trkpt lat="44.539054900840725" lon="9.447217527718628"><ele>1121.0</ele><time>2026-04-18T09:22:27.999Z</time></trkpt><trkpt lat="44.53889447383387" lon="9.447208144847759"><ele>1121.0</ele><time>2026-04-18T09:22:28.999Z</time></trkpt><trkpt lat="44.538731771628036" lon="9.447223784152945"><ele>1121.0</ele><time>2026-04-18T09:22:29.999Z</time></trkpt><trkpt lat="44.538592960342505" lon="9.447273813368218"><ele>1119.6666666666667</ele><time>2026-04-18T09:22:30.999Z</time></trkpt><trkpt lat="44.53847013741505" lon="9.447389671080145"><ele>1118.3333333333333</ele><time>2026-04-18T09:22:31.999Z</time></trkpt><trkpt lat="44.53834057045258" lon="9.447526403186858"><ele>1117.0</ele><time>2026-04-18T09:22:32.999Z</time></trkpt><trkpt lat="44.538226946572244" lon="9.447708012007244"><ele>1117.0</ele><time>2026-04-18T09:22:33.999Z</time></trkpt><trkpt lat="44.538128291748095" lon="9.4479153996123"><ele>1117.0</ele><time>2026-04-18T09:22:34.999Z</time></trkpt><trkpt lat="44.5380146464962" lon="9.448060569765424"><ele>1117.0</ele><time>2026-04-18T09:22:35.999Z</time></trkpt><trkpt lat="44.537904172705915" lon="9.448141111871674"><ele>1118.5</ele><time>2026-04-18T09:22:36.999Z</time></trkpt><trkpt lat="44.53779098470111" lon="9.448131842317519"><ele>1120.0</ele><time>2026-04-18T09:22:37.999Z</time></trkpt><trkpt lat="44.53767737266365" lon="9.448073759262774"><ele>1121.5</ele><time>2026-04-18T09:22:38.999Z</time></trkpt><trkpt lat="44.53752563662094" lon="9.44798451686797"><ele>1123.0</ele><time>2026-04-18T09:22:39.999Z</time></trkpt><trkpt lat="44.53736444936955" lon="9.447889666617579"><ele>1123.0</ele><time>2026-04-18T09:22:40.999Z</time></trkpt><trkpt lat="44.53718888248827" lon="9.44779235725884"><ele>1123.0</ele><time>2026-04-18T09:22:41.999Z</time></trkpt><trkpt lat="44.53702015858693" lon="9.447696415805195"><ele>1123.0</ele><time>2026-04-18T09:22:42.999Z</time></trkpt><trkpt lat="44.536880020230306" lon="9.447609225217747"><ele>1129.0</ele><time>2026-04-18T09:22:43.999Z</time></trkpt><trkpt lat="44.53675213465266" lon="9.447510708515564"><ele>1135.0</ele><time>2026-04-18T09:22:44.999Z</time></trkpt><trkpt lat="44.536636448893695" lon="9.447372889974599"><ele>1141.0</ele><time>2026-04-18T09:22:45.999Z</time></trkpt><trkpt lat="44.536534176465885" lon="9.447208899369318"><ele>1137.75</ele><time>2026-04-18T09:22:46.999Z</time></trkpt><trkpt lat="44.53645131964275" lon="9.447016641531047"><ele>1134.5</ele><time>2026-04-18T09:22:47.999Z</time></trkpt><trkpt lat="44.536397056363064" lon="9.446825708332643"><ele>1131.25</ele><time>2026-04-18T09:22:48.999Z</time></trkpt><trkpt lat="44.536344772761176" lon="9.446670571485146"><ele>1128.0</ele><time>2026-04-18T09:22:49.999Z</time></trkpt><trkpt lat="44.53629720659066" lon="9.446516083779477"><ele>1129.25</ele><time>2026-04-18T09:22:51Z</time></trkpt><trkpt lat="44.53619851788711" lon="9.446388774142498"><ele>1130.5</ele><time>2026-04-18T09:22:52Z</time></trkpt><trkpt lat="44.53607054340911" lon="9.44628088256254"><ele>1131.75</ele><time>2026-04-18T09:22:53Z</time></trkpt><trkpt lat="44.53593757405363" lon="9.446224904004543"><ele>1133.0</ele><time>2026-04-18T09:22:54Z</time></trkpt><trkpt lat="44.535827885827324" lon="9.44620834119608"><ele>1133.0</ele><time>2026-04-18T09:22:55Z</time></trkpt><trkpt lat="44.53571557274007" lon="9.446237167429059"><ele>1133.0</ele><time>2026-04-18T09:22:56Z</time></trkpt><trkpt lat="44.53559981216213" lon="9.446311540336257"><ele>1133.0</ele><time>2026-04-18T09:22:57Z</time></trkpt><trkpt lat="44.535487788707655" lon="9.446438404000121"><ele>1133.0</ele><time>2026-04-18T09:22:58Z</time></trkpt><trkpt lat="44.5353836467356" lon="9.446616988747609"><ele>1132.6666666666667</ele><time>2026-04-18T09:22:59Z</time></trkpt><trkpt lat="44.53527424427775" lon="9.446830112053547"><ele>1132.3333333333333</ele><time>2026-04-18T09:23:00Z</time></trkpt><trkpt lat="44.535156288027494" lon="9.447042887050335"><ele>1132.0</ele><time>2026-04-18T09:23:01Z</time></trkpt><trkpt lat="44.535049564429016" lon="9.447215574731448"><ele>1137.0</ele><time>2026-04-18T09:23:02Z</time></trkpt><trkpt lat="44.53496052976577" lon="9.447373126933135"><ele>1142.0</ele><time>2026-04-18T09:23:03Z</time></trkpt><trkpt lat="44.534880247829" lon="9.447543323434056"><ele>1147.0</ele><time>2026-04-18T09:23:04Z</time></trkpt><trkpt lat="44.53480574121222" lon="9.447734436351704"><ele>1152.0</ele><time>2026-04-18T09:23:05Z</time></trkpt><trkpt lat="44.53473675700674" lon="9.447926118541043"><ele>1156.3333333333333</ele><time>2026-04-18T09:23:06Z</time></trkpt><trkpt lat="44.53467334846244" lon="9.448120142701438"><ele>1160.6666666666665</ele><time>2026-04-18T09:23:07Z</time></trkpt><trkpt lat="44.534615486505324" lon="9.448323695273452"><ele>1165.0</ele><time>2026-04-18T09:23:08Z</time></trkpt><trkpt lat="44.534559285053135" lon="9.448514664393421"><ele>1164.25</ele><time>2026-04-18T09:23:09Z</time></trkpt><trkpt lat="44.534501001920404" lon="9.44868627621397"><ele>1163.5</ele><time>2026-04-18T09:23:10Z</time></trkpt><trkpt lat="44.53440481352084" lon="9.448855425239055"><ele>1162.75</ele><time>2026-04-18T09:23:11Z</time></trkpt><trkpt lat="44.53432516638183" lon="9.44904568138401"><ele>1162.0</ele><time>2026-04-18T09:23:12Z</time></trkpt><trkpt lat="44.534233281397334" lon="9.449222493513664"><ele>1162.0</ele><time>2026-04-18T09:23:13Z</time></trkpt><trkpt lat="44.53414985463192" lon="9.449395035552712"><ele>1162.0</ele><time>2026-04-18T09:23:14Z</time></trkpt><trkpt lat="44.534059538492116" lon="9.449579703001872"><ele>1162.0</ele><time>2026-04-18T09:23:15Z</time></trkpt><trkpt lat="44.533978749914134" lon="9.449737193134316"><ele>1162.0</ele><time>2026-04-18T09:23:16Z</time></trkpt><trkpt lat="44.533909178322524" lon="9.449884525404766"><ele>1165.0</ele><time>2026-04-18T09:23:17Z</time></trkpt><trkpt lat="44.53386562978877" lon="9.450056255618627"><ele>1168.0</ele><time>2026-04-18T09:23:18Z</time></trkpt><trkpt lat="44.53386082564587" lon="9.450268122734636"><ele>1171.0</ele><time>2026-04-18T09:23:19Z</time></trkpt><trkpt lat="44.53391531930279" lon="9.450469157731913"><ele>1174.0</ele><time>2026-04-18T09:23:20Z</time></trkpt><trkpt lat="44.53397749902217" lon="9.450685355743516"><ele>1174.3333333333333</ele><time>2026-04-18T09:23:21Z</time></trkpt><trkpt lat="44.53409046141057" lon="9.450898970508867"><ele>1174.6666666666667</ele><time>2026-04-18T09:23:22Z</time></trkpt><trkpt lat="44.534193944457954" lon="9.451100636985913"><ele>1175.0</ele><time>2026-04-18T09:23:23Z</time></trkpt><trkpt lat="44.53427140367204" lon="9.451280707384663"><ele>1172.6666666666667</ele><time>2026-04-18T09:23:24Z</time></trkpt><trkpt lat="44.53434697042897" lon="9.451472373902867"><ele>1170.3333333333333</ele><time>2026-04-18T09:23:25Z</time></trkpt><trkpt lat="44.534418676131025" lon="9.451705361653818"><ele>1168.0</ele><time>2026-04-18T09:23:26Z</time></trkpt><trkpt lat="44.53446409470128" lon="9.451953784984873"><ele>1167.6666666666665</ele><time>2026-04-18T09:23:27Z</time></trkpt><trkpt lat="44.534480569096246" lon="9.452170301008618"><ele>1167.3333333333333</ele><time>2026-04-18T09:23:28Z</time></trkpt><trkpt lat="44.53448624841189" lon="9.452395714671455"><ele>1167.0</ele><time>2026-04-18T09:23:29Z</time></trkpt><trkpt lat="44.53448324172595" lon="9.452668400964566"><ele>1167.0</ele><time>2026-04-18T09:23:30Z</time></trkpt><trkpt lat="44.5344970589864" lon="9.452892325126697"><ele>1167.0</ele><time>2026-04-18T09:23:31Z</time></trkpt><trkpt lat="44.53451001946831" lon="9.453098859782079"><ele>1167.0</ele><time>2026-04-18T09:23:32Z</time></trkpt><trkpt lat="44.53452252343344" lon="9.45328455042354"><ele>1167.0</ele><time>2026-04-18T09:23:33Z</time></trkpt><trkpt lat="44.534515535905676" lon="9.453462085057783"><ele>1169.25</ele><time>2026-04-18T09:23:34Z</time></trkpt><trkpt lat="44.53447022927844" lon="9.453628884665033"><ele>1171.5</ele><time>2026-04-18T09:23:35Z</time></trkpt><trkpt lat="44.53438336966129" lon="9.453782488652399"><ele>1173.75</ele><time>2026-04-18T09:23:36Z</time></trkpt><trkpt lat="44.534247962166894" lon="9.45386000658596"><ele>1176.0</ele><time>2026-04-18T09:23:37Z</time></trkpt><trkpt lat="44.534104927739534" lon="9.45392932453094"><ele>1176.25</ele><time>2026-04-18T09:23:38Z</time></trkpt><trkpt lat="44.53397035172688" lon="9.45400867870244"><ele>1176.5</ele><time>2026-04-18T09:23:39Z</time></trkpt><trkpt lat="44.533818403820945" lon="9.454058083356806"><ele>1176.75</ele><time>2026-04-18T09:23:40Z</time></trkpt><trkpt lat="44.53371869939862" lon="9.454170251744735"><ele>1177.0</ele><time>2026-04-18T09:23:41Z</time></trkpt><trkpt lat="44.53362668585991" lon="9.454288791233274"><ele>1177.0</ele><time>2026-04-18T09:23:42Z</time></trkpt><trkpt lat="44.53355116085167" lon="9.454454288803138"><ele>1177.0</ele><time>2026-04-18T09:23:43Z</time></trkpt><trkpt lat="44.53353389828908" lon="9.454651913171245"><ele>1177.0</ele><time>2026-04-18T09:23:44Z</time></trkpt><trkpt lat="44.53354913881015" lon="9.454866118044116"><ele>1177.0</ele><time>2026-04-18T09:23:45Z</time></trkpt><trkpt lat="44.53361946766527" lon="9.45504452423564"><ele>1176.6666666666665</ele><time>2026-04-18T09:23:46Z</time></trkpt><trkpt lat="44.53370562986367" lon="9.455251499492634"><ele>1176.3333333333333</ele><time>2026-04-18T09:23:47Z</time></trkpt><trkpt lat="44.53380864420149" lon="9.45547466972048"><ele>1176.0</ele><time>2026-04-18T09:23:48Z</time></trkpt><trkpt lat="44.53390464058136" lon="9.455643600979617"><ele>1186.0</ele><time>2026-04-18T09:23:49Z</time></trkpt><trkpt lat="44.53400690025251" lon="9.455798612045719"><ele>1196.0</ele><time>2026-04-18T09:23:50Z</time></trkpt><trkpt lat="44.53412090228488" lon="9.45597866206491"><ele>1206.0</ele><time>2026-04-18T09:23:51Z</time></trkpt><trkpt lat="44.53423296605393" lon="9.456118246093954"><ele>1206.0</ele><time>2026-04-18T09:23:52Z</time></trkpt><trkpt lat="44.53431877503772" lon="9.456273085548018"><ele>1206.0</ele><time>2026-04-18T09:23:53Z</time></trkpt><trkpt lat="44.53433812137868" lon="9.45647696418256"><ele>1206.0</ele><time>2026-04-18T09:23:54Z</time></trkpt><trkpt lat="44.534319744945385" lon="9.456693483032936"><ele>1206.0</ele><time>2026-04-18T09:23:55Z</time></trkpt><trkpt lat="44.5342955813251" lon="9.456960245956628"><ele>1205.3333333333333</ele><time>2026-04-18T09:23:56Z</time></trkpt><trkpt lat="44.534269013867906" lon="9.457248516094133"><ele>1204.6666666666665</ele><time>2026-04-18T09:23:57Z</time></trkpt><trkpt lat="44.5342465027775" lon="9.457487367970208"><ele>1204.0</ele><time>2026-04-18T09:23:58Z</time></trkpt><trkpt lat="44.534225878553535" lon="9.457700919219057"><ele>1204.0</ele><time>2026-04-18T09:23:59Z</time></trkpt><trkpt lat="44.534207451031335" lon="9.45791846079715"><ele>1204.0</ele><time>2026-04-18T09:24:00Z</time></trkpt><trkpt lat="44.53419888003102" lon="9.45812990714035"><ele>1204.0</ele><time>2026-04-18T09:24:01Z</time></trkpt><trkpt lat="44.53422005562298" lon="9.45829806962263"><ele>1204.0</ele><time>2026-04-18T09:24:02Z</time></trkpt><trkpt lat="44.53428543247107" lon="9.458440376299666"><ele>1204.3333333333333</ele><time>2026-04-18T09:24:03Z</time></trkpt><trkpt lat="44.53438931579192" lon="9.458598986676979"><ele>1204.6666666666667</ele><time>2026-04-18T09:24:04Z</time></trkpt><trkpt lat="44.53454151944207" lon="9.458792036956686"><ele>1205.0</ele><time>2026-04-18T09:24:05Z</time></trkpt><trkpt lat="44.534671840580614" lon="9.458984460147963"><ele>1211.0</ele><time>2026-04-18T09:24:06Z</time></trkpt><trkpt lat="44.534768075455816" lon="9.459135444385788"><ele>1217.0</ele><time>2026-04-18T09:24:07Z</time></trkpt><trkpt lat="44.53484499261592" lon="9.45927129334155"><ele>1223.0</ele><time>2026-04-18T09:24:08Z</time></trkpt><trkpt lat="44.53486455239902" lon="9.459441022375696"><ele>1229.0</ele><time>2026-04-18T09:24:09Z</time></trkpt><trkpt lat="44.53484040642955" lon="9.459609839901798"><ele>1229.0</ele><time>2026-04-18T09:24:10Z</time></trkpt><trkpt lat="44.53477435080972" lon="9.459778927091278"><ele>1229.0</ele><time>2026-04-18T09:24:11Z</time></trkpt><trkpt lat="44.53471735914196" lon="9.459949405596989"><ele>1229.0</ele><time>2026-04-18T09:24:12Z</time></trkpt><trkpt lat="44.5346700559992" lon="9.460111497349695"><ele>1229.0</ele><time>2026-04-18T09:24:13Z</time></trkpt><trkpt lat="44.534686070820506" lon="9.460314632814782"><ele>1229.0</ele><time>2026-04-18T09:24:14Z</time></trkpt><trkpt lat="44.53474690066332" lon="9.460541729702307"><ele>1229.0</ele><time>2026-04-18T09:24:15Z</time></trkpt><trkpt lat="44.53482677462259" lon="9.460765615472194"><ele>1229.0</ele><time>2026-04-18T09:24:16Z</time></trkpt><trkpt lat="44.53489029708569" lon="9.46101389855448"><ele>1229.0</ele><time>2026-04-18T09:24:17Z</time></trkpt><trkpt lat="44.53492374080565" lon="9.461237136049494"><ele>1229.0</ele><time>2026-04-18T09:24:18Z</time></trkpt><trkpt lat="44.53495085531039" lon="9.461441694532244"><ele>1229.0</ele><time>2026-04-18T09:24:19Z</time></trkpt><trkpt lat="44.534975296227614" lon="9.461626359867278"><ele>1229.0</ele><time>2026-04-18T09:24:20Z</time></trkpt><trkpt lat="44.53500725393888" lon="9.461779972510989"><ele>1228.0</ele><time>2026-04-18T09:24:21Z</time></trkpt><trkpt lat="44.53507816759234" lon="9.461924503476816"><ele>1227.0</ele><time>2026-04-18T09:24:22Z</time></trkpt><trkpt lat="44.535201191349486" lon="9.462058569192864"><ele>1226.0</ele><time>2026-04-18T09:24:23Z</time></trkpt><trkpt lat="44.5353525232261" lon="9.462199698423346"><ele>1232.6666666666667</ele><time>2026-04-18T09:24:24Z</time></trkpt><trkpt lat="44.53549460261817" lon="9.462357614958966"><ele>1239.3333333333333</ele><time>2026-04-18T09:24:25Z</time></trkpt><trkpt lat="44.53560638949476" lon="9.462494888066178"><ele>1246.0</ele><time>2026-04-18T09:24:26Z</time></trkpt><trkpt lat="44.5356872035967" lon="9.462654547100977"><ele>1246.0</ele><time>2026-04-18T09:24:26.999Z</time></trkpt><trkpt lat="44.53576506742359" lon="9.462841974152365"><ele>1246.0</ele><time>2026-04-18T09:24:27.999Z</time></trkpt><trkpt lat="44.53582494565358" lon="9.463076132001309"><ele>1246.0</ele><time>2026-04-18T09:24:28.999Z</time></trkpt><trkpt lat="44.53587222799312" lon="9.463343922112053"><ele>1245.3333333333333</ele><time>2026-04-18T09:24:29.999Z</time></trkpt><trkpt lat="44.535908241074445" lon="9.463629908286231"><ele>1244.6666666666667</ele><time>2026-04-18T09:24:30.999Z</time></trkpt><trkpt lat="44.53591745838162" lon="9.463882507653405"><ele>1244.0</ele><time>2026-04-18T09:24:31.999Z</time></trkpt><trkpt lat="44.53591858715914" lon="9.464120463317604"><ele>1244.0</ele><time>2026-04-18T09:24:32.999Z</time></trkpt><trkpt lat="44.53593094761907" lon="9.464373190267855"><ele>1244.0</ele><time>2026-04-18T09:24:33.999Z</time></trkpt><trkpt lat="44.53593063285934" lon="9.464646366270383"><ele>1244.0</ele><time>2026-04-18T09:24:34.999Z</time></trkpt><trkpt lat="44.53593215252846" lon="9.464930354396381"><ele>1245.3333333333335</ele><time>2026-04-18T09:24:35.999Z</time></trkpt><trkpt lat="44.53593436070707" lon="9.465195412011024"><ele>1246.6666666666667</ele><time>2026-04-18T09:24:36.999Z</time></trkpt><trkpt lat="44.535934836249105" lon="9.46541723655706"><ele>1248.0</ele><time>2026-04-18T09:24:37.999Z</time></trkpt><trkpt lat="44.53593586494476" lon="9.465602935669725"><ele>1248.0</ele><time>2026-04-18T09:24:38.999Z</time></trkpt><trkpt lat="44.535956902727584" lon="9.465771608331481"><ele>1248.0</ele><time>2026-04-18T09:24:39.999Z</time></trkpt><trkpt lat="44.536014033311815" lon="9.465937884857137"><ele>1248.0</ele><time>2026-04-18T09:24:40.999Z</time></trkpt><trkpt lat="44.5361075796629" lon="9.466086335056596"><ele>1248.0</ele><time>2026-04-18T09:24:41.999Z</time></trkpt><trkpt lat="44.53623968433446" lon="9.466202004571848"><ele>1250.3333333333333</ele><time>2026-04-18T09:24:42.999Z</time></trkpt><trkpt lat="44.5364052996863" lon="9.466298607208545"><ele>1252.6666666666665</ele><time>2026-04-18T09:24:43.999Z</time></trkpt><trkpt lat="44.53657603319793" lon="9.46638552673551"><ele>1255.0</ele><time>2026-04-18T09:24:44.999Z</time></trkpt><trkpt lat="44.53675736691842" lon="9.466450439208147"><ele>1255.0</ele><time>2026-04-18T09:24:45.999Z</time></trkpt><trkpt lat="44.53696452979583" lon="9.466505083756742"><ele>1255.0</ele><time>2026-04-18T09:24:46.999Z</time></trkpt><trkpt lat="44.53717210837294" lon="9.466559664969571"><ele>1255.0</ele><time>2026-04-18T09:24:47.999Z</time></trkpt><trkpt lat="44.537378844074304" lon="9.466638952666493"><ele>1260.0</ele><time>2026-04-18T09:24:48.999Z</time></trkpt><trkpt lat="44.537572777027805" lon="9.466731677711696"><ele>1265.0</ele><time>2026-04-18T09:24:49.999Z</time></trkpt><trkpt lat="44.5377381598656" lon="9.466815631150832"><ele>1270.0</ele><time>2026-04-18T09:24:50.999Z</time></trkpt><trkpt lat="44.53789132076922" lon="9.466890319231808"><ele>1271.0</ele><time>2026-04-18T09:24:51.999Z</time></trkpt><trkpt lat="44.538044943974874" lon="9.466977703006032"><ele>1272.0</ele><time>2026-04-18T09:24:52.999Z</time></trkpt><trkpt lat="44.53817442681874" lon="9.467135616698986"><ele>1273.0</ele><time>2026-04-18T09:24:53.999Z</time></trkpt><trkpt lat="44.538269783989584" lon="9.467310623206169"><ele>1273.0</ele><time>2026-04-18T09:24:54.999Z</time></trkpt><trkpt lat="44.53834075813571" lon="9.46752340615142"><ele>1273.0</ele><time>2026-04-18T09:24:55.999Z</time></trkpt><trkpt lat="44.53842056164939" lon="9.467740829076464"><ele>1273.0</ele><time>2026-04-18T09:24:57Z</time></trkpt><trkpt lat="44.538506618198454" lon="9.46796360227843"><ele>1269.3333333333333</ele><time>2026-04-18T09:24:58Z</time></trkpt><trkpt lat="44.538620517022935" lon="9.468184663750172"><ele>1265.6666666666667</ele><time>2026-04-18T09:24:59Z</time></trkpt><trkpt lat="44.538747385006914" lon="9.468406600419733"><ele>1262.0</ele><time>2026-04-18T09:25:00Z</time></trkpt><trkpt lat="44.538862206244936" lon="9.468607112767318"><ele>1268.75</ele><time>2026-04-18T09:25:01Z</time></trkpt><trkpt lat="44.53895843631868" lon="9.468775421516005"><ele>1275.5</ele><time>2026-04-18T09:25:02Z</time></trkpt><trkpt lat="44.539036376327395" lon="9.468937129500077"><ele>1282.25</ele><time>2026-04-18T09:25:03Z</time></trkpt><trkpt lat="44.5390645544023" lon="9.469110619765909"><ele>1289.0</ele><time>2026-04-18T09:25:04Z</time></trkpt><trkpt lat="44.53906145509336" lon="9.469297397734746"><ele>1289.0</ele><time>2026-04-18T09:25:05Z</time></trkpt><trkpt lat="44.53902695657858" lon="9.469529329318153"><ele>1289.0</ele><time>2026-04-18T09:25:06Z</time></trkpt><trkpt lat="44.53901098525029" lon="9.469812508045276"><ele>1289.0</ele><time>2026-04-18T09:25:07Z</time></trkpt><trkpt lat="44.538987373085845" lon="9.470124981058563"><ele>1289.6666666666667</ele><time>2026-04-18T09:25:08Z</time></trkpt><trkpt lat="44.538985522741235" lon="9.470438256775696"><ele>1290.3333333333333</ele><time>2026-04-18T09:25:09Z</time></trkpt><trkpt lat="44.538991551032105" lon="9.470738865988341"><ele>1291.0</ele><time>2026-04-18T09:25:10Z</time></trkpt><trkpt lat="44.53899691047729" lon="9.470983429222118"><ele>1293.5</ele><time>2026-04-18T09:25:11Z</time></trkpt><trkpt lat="44.538996604911375" lon="9.471184597481015"><ele>1296.0</ele><time>2026-04-18T09:25:12Z</time></trkpt><trkpt lat="44.53896909062874" lon="9.471363978572517"><ele>1298.5</ele><time>2026-04-18T09:25:13Z</time></trkpt><trkpt lat="44.53892722938403" lon="9.471546745464575"><ele>1301.0</ele><time>2026-04-18T09:25:14Z</time></trkpt><trkpt lat="44.53883112072725" lon="9.471720357103287"><ele>1302.3333333333335</ele><time>2026-04-18T09:25:15Z</time></trkpt><trkpt lat="44.53867725604136" lon="9.471888585455414"><ele>1303.6666666666667</ele><time>2026-04-18T09:25:16Z</time></trkpt><trkpt lat="44.53852287489709" lon="9.472091586747185"><ele>1305.0</ele><time>2026-04-18T09:25:17Z</time></trkpt><trkpt lat="44.53838149061268" lon="9.472303985854593"><ele>1305.0</ele><time>2026-04-18T09:25:18Z</time></trkpt><trkpt lat="44.53824993472207" lon="9.472442350339412"><ele>1305.0</ele><time>2026-04-18T09:25:19Z</time></trkpt><trkpt lat="44.53814311472928" lon="9.472558721163196"><ele>1305.0</ele><time>2026-04-18T09:25:20Z</time></trkpt><trkpt lat="44.538028935737685" lon="9.472671009851377"><ele>1305.0</ele><time>2026-04-18T09:25:21Z</time></trkpt><trkpt lat="44.537913476331404" lon="9.472814014676048"><ele>1304.6666666666667</ele><time>2026-04-18T09:25:22Z</time></trkpt><trkpt lat="44.537799140595595" lon="9.472966287748417"><ele>1304.3333333333335</ele><time>2026-04-18T09:25:23Z</time></trkpt><trkpt lat="44.53772825213094" lon="9.473144477662496"><ele>1304.0</ele><time>2026-04-18T09:25:24Z</time></trkpt><trkpt lat="44.53766527070102" lon="9.473357093280125"><ele>1304.0</ele><time>2026-04-18T09:25:25Z</time></trkpt><trkpt lat="44.53759104933225" lon="9.473560972139733"><ele>1304.0</ele><time>2026-04-18T09:25:26Z</time></trkpt><trkpt lat="44.53750807340292" lon="9.47371807506108"><ele>1304.0</ele><time>2026-04-18T09:25:27Z</time></trkpt><trkpt lat="44.537393799634984" lon="9.473845561977022"><ele>1304.0</ele><time>2026-04-18T09:25:28Z</time></trkpt><trkpt lat="44.53726107440303" lon="9.47395757559423"><ele>1302.5</ele><time>2026-04-18T09:25:29Z</time></trkpt><trkpt lat="44.537169453565994" lon="9.474073625746168"><ele>1301.0</ele><time>2026-04-18T09:25:30Z</time></trkpt><trkpt lat="44.53708376680833" lon="9.474205454100177"><ele>1299.5</ele><time>2026-04-18T09:25:31Z</time></trkpt><trkpt lat="44.53702423857387" lon="9.47438426512921"><ele>1298.0</ele><time>2026-04-18T09:25:32Z</time></trkpt><trkpt lat="44.537006138375006" lon="9.47456714727248"><ele>1297.75</ele><time>2026-04-18T09:25:33Z</time></trkpt><trkpt lat="44.537034519129094" lon="9.474746897472922"><ele>1297.5</ele><time>2026-04-18T09:25:34Z</time></trkpt><trkpt lat="44.537104492908185" lon="9.47492952733002"><ele>1297.25</ele><time>2026-04-18T09:25:35Z</time></trkpt><trkpt lat="44.53721254749237" lon="9.475105997113308"><ele>1297.0</ele><time>2026-04-18T09:25:36Z</time></trkpt><trkpt lat="44.53733600636364" lon="9.475261183665358"><ele>1304.75</ele><time>2026-04-18T09:25:37Z</time></trkpt><trkpt lat="44.53744564419804" lon="9.475397703136156"><ele>1312.5</ele><time>2026-04-18T09:25:38Z</time></trkpt><trkpt lat="44.53750105299157" lon="9.475568162351642"><ele>1320.25</ele><time>2026-04-18T09:25:39Z</time></trkpt><trkpt lat="44.537535837714564" lon="9.475767661452263"><ele>1328.0</ele><time>2026-04-18T09:25:40Z</time></trkpt><trkpt lat="44.537537889204074" lon="9.475992927304619"><ele>1328.0</ele><time>2026-04-18T09:25:41Z</time></trkpt><trkpt lat="44.53751403138592" lon="9.476240230111687"><ele>1328.0</ele><time>2026-04-18T09:25:42Z</time></trkpt><trkpt lat="44.53747952450124" lon="9.476466630349622"><ele>1328.0</ele><time>2026-04-18T09:25:43Z</time></trkpt><trkpt lat="44.53741724452976" lon="9.476649963389264"><ele>1330.0</ele><time>2026-04-18T09:25:44Z</time></trkpt><trkpt lat="44.53735589770998" lon="9.476843288301112"><ele>1332.0</ele><time>2026-04-18T09:25:45Z</time></trkpt><trkpt lat="44.53729391213927" lon="9.47700965168077"><ele>1334.0</ele><time>2026-04-18T09:25:46Z</time></trkpt><trkpt lat="44.537273481361" lon="9.47719118284508"><ele>1336.0</ele><time>2026-04-18T09:25:47Z</time></trkpt><trkpt lat="44.5373037650097" lon="9.477384574026336"><ele>1337.3333333333333</ele><time>2026-04-18T09:25:48Z</time></trkpt><trkpt lat="44.537381910420194" lon="9.477568596311635"><ele>1338.6666666666667</ele><time>2026-04-18T09:25:49Z</time></trkpt><trkpt lat="44.53748743897208" lon="9.477754323632778"><ele>1340.0</ele><time>2026-04-18T09:25:50Z</time></trkpt><trkpt lat="44.5375377274885" lon="9.477942048480926"><ele>1340.0</ele><time>2026-04-18T09:25:51Z</time></trkpt><trkpt lat="44.537548638415885" lon="9.478152939121012"><ele>1340.0</ele><time>2026-04-18T09:25:52Z</time></trkpt><trkpt lat="44.537552742959754" lon="9.478403916325902"><ele>1340.0</ele><time>2026-04-18T09:25:53Z</time></trkpt><trkpt lat="44.53757061491226" lon="9.4786354481937"><ele>1341.0</ele><time>2026-04-18T09:25:54Z</time></trkpt><trkpt lat="44.53757849055293" lon="9.478816850873033"><ele>1342.0</ele><time>2026-04-18T09:25:55Z</time></trkpt><trkpt lat="44.537625168923896" lon="9.478995777543888"><ele>1343.0</ele><time>2026-04-18T09:25:56Z</time></trkpt><trkpt lat="44.537725853282744" lon="9.479167051491537"><ele>1344.0</ele><time>2026-04-18T09:25:57Z</time></trkpt><trkpt lat="44.537863955673316" lon="9.479333034456857"><ele>1347.6666666666667</ele><time>2026-04-18T09:25:58Z</time></trkpt><trkpt lat="44.53802087386704" lon="9.479500645662695"><ele>1351.3333333333335</ele><time>2026-04-18T09:25:59Z</time></trkpt><trkpt lat="44.53817956244505" lon="9.479682936630445"><ele>1355.0</ele><time>2026-04-18T09:26:00Z</time></trkpt><trkpt lat="44.53831743816664" lon="9.479845802570958"><ele>1355.0</ele><time>2026-04-18T09:26:01Z</time></trkpt><trkpt lat="44.53842284400204" lon="9.479992331364372"><ele>1355.0</ele><time>2026-04-18T09:26:02Z</time></trkpt><trkpt lat="44.53848181086324" lon="9.4801563396167"><ele>1355.0</ele><time>2026-04-18T09:26:03Z</time></trkpt><trkpt lat="44.53852738083266" lon="9.480335065738107"><ele>1355.0</ele><time>2026-04-18T09:26:04Z</time></trkpt><trkpt lat="44.538524693927144" lon="9.480555705976874"><ele>1357.0</ele><time>2026-04-18T09:26:05Z</time></trkpt><trkpt lat="44.53851739186738" lon="9.480808456426452"><ele>1359.0</ele><time>2026-04-18T09:26:06Z</time></trkpt><trkpt lat="44.5385057175193" lon="9.48104987795947"><ele>1361.0</ele><time>2026-04-18T09:26:07Z</time></trkpt><trkpt lat="44.53849673671938" lon="9.481259651428019"><ele>1364.75</ele><time>2026-04-18T09:26:08Z</time></trkpt><trkpt lat="44.538428806854206" lon="9.481438117449642"><ele>1368.5</ele><time>2026-04-18T09:26:09Z</time></trkpt><trkpt lat="44.538328254254665" lon="9.481620466832242"><ele>1372.25</ele><time>2026-04-18T09:26:10Z</time></trkpt><trkpt lat="44.538224263815195" lon="9.481742295580013"><ele>1376.0</ele><time>2026-04-18T09:26:11Z</time></trkpt><trkpt lat="44.53808714307105" lon="9.481882902224626"><ele>1376.0</ele><time>2026-04-18T09:26:12Z</time></trkpt><trkpt lat="44.537940152059676" lon="9.482032671565387"><ele>1376.0</ele><time>2026-04-18T09:26:13Z</time></trkpt><trkpt lat="44.53778883687115" lon="9.48220626236706"><ele>1376.0</ele><time>2026-04-18T09:26:14Z</time></trkpt><trkpt lat="44.53764067059427" lon="9.482363854919166"><ele>1376.25</ele><time>2026-04-18T09:26:15Z</time></trkpt><trkpt lat="44.5375078567261" lon="9.482482711271821"><ele>1376.5</ele><time>2026-04-18T09:26:16Z</time></trkpt><trkpt lat="44.53739563218297" lon="9.48261022842479"><ele>1376.75</ele><time>2026-04-18T09:26:17Z</time></trkpt><trkpt lat="44.5373042689097" lon="9.482760911940376"><ele>1377.0</ele><time>2026-04-18T09:26:18Z</time></trkpt><trkpt lat="44.53721359835445" lon="9.482925164980104"><ele>1372.6666666666667</ele><time>2026-04-18T09:26:19Z</time></trkpt><trkpt lat="44.53713312619185" lon="9.483117837153864"><ele>1368.3333333333335</ele><time>2026-04-18T09:26:20Z</time></trkpt><trkpt lat="44.53703374272503" lon="9.483306743066187"><ele>1364.0</ele><time>2026-04-18T09:26:21Z</time></trkpt><trkpt lat="44.53696494432905" lon="9.483536431275434"><ele>1369.0</ele><time>2026-04-18T09:26:22Z</time></trkpt><trkpt lat="44.53688986288685" lon="9.483764068566485"><ele>1374.0</ele><time>2026-04-18T09:26:23Z</time></trkpt><trkpt lat="44.536832566523195" lon="9.484019794941553"><ele>1379.0</ele><time>2026-04-18T09:26:24Z</time></trkpt><trkpt lat="44.53678405454169" lon="9.484289808476747"><ele>1379.0</ele><time>2026-04-18T09:26:25Z</time></trkpt><trkpt lat="44.53675237961907" lon="9.484533053398494"><ele>1379.0</ele><time>2026-04-18T09:26:26Z</time></trkpt><trkpt lat="44.53670563089796" lon="9.484732498697076"><ele>1379.0</ele><time>2026-04-18T09:26:27Z</time></trkpt><trkpt lat="44.53666914846626" lon="9.484919477997543"><ele>1382.0</ele><time>2026-04-18T09:26:28Z</time></trkpt><trkpt lat="44.53660886670719" lon="9.485086317948323"><ele>1385.0</ele><time>2026-04-18T09:26:29Z</time></trkpt><trkpt lat="44.53653792262896" lon="9.485217517577995"><ele>1388.0</ele><time>2026-04-18T09:26:30Z</time></trkpt><trkpt lat="44.53644141156689" lon="9.485318144221981"><ele>1391.0</ele><time>2026-04-18T09:26:31Z</time></trkpt><trkpt lat="44.53633273485425" lon="9.48544909071773"><ele>1389.3333333333335</ele><time>2026-04-18T09:26:32Z</time></trkpt><trkpt lat="44.536214557080726" lon="9.485595366658229"><ele>1387.6666666666667</ele><time>2026-04-18T09:26:33Z</time></trkpt><trkpt lat="44.53609601458238" lon="9.485755185325036"><ele>1386.0</ele><time>2026-04-18T09:26:34Z</time></trkpt><trkpt lat="44.53599683539563" lon="9.485937806078182"><ele>1386.0</ele><time>2026-04-18T09:26:35Z</time></trkpt><trkpt lat="44.535894596348626" lon="9.486120860426725"><ele>1386.0</ele><time>2026-04-18T09:26:36Z</time></trkpt><trkpt lat="44.53580079074278" lon="9.48632512684759"><ele>1386.0</ele><time>2026-04-18T09:26:37Z</time></trkpt><trkpt lat="44.535725143306905" lon="9.486548154265586"><ele>1390.3333333333333</ele><time>2026-04-18T09:26:38Z</time></trkpt><trkpt lat="44.53565919941794" lon="9.486776646891816"><ele>1394.6666666666665</ele><time>2026-04-18T09:26:39Z</time></trkpt><trkpt lat="44.53559176820436" lon="9.486970689765815"><ele>1399.0</ele><time>2026-04-18T09:26:40Z</time></trkpt><trkpt lat="44.535560953800164" lon="9.487174649205178"><ele>1403.3333333333333</ele><time>2026-04-18T09:26:41Z</time></trkpt><trkpt lat="44.5355140983352" lon="9.487396156670329"><ele>1407.6666666666667</ele><time>2026-04-18T09:26:41.999Z</time></trkpt><trkpt lat="44.53546197794238" lon="9.48765389035856"><ele>1412.0</ele><time>2026-04-18T09:26:42.999Z</time></trkpt><trkpt lat="44.5354160421732" lon="9.487871505663785"><ele>1408.0</ele><time>2026-04-18T09:26:43.999Z</time></trkpt><trkpt lat="44.53537387827051" lon="9.488067354853955"><ele>1404.0</ele><time>2026-04-18T09:26:44.999Z</time></trkpt><trkpt lat="44.53533855593344" lon="9.488232947666432"><ele>1400.0</ele><time>2026-04-18T09:26:45.999Z</time></trkpt><trkpt lat="44.53531090908457" lon="9.48840266698244"><ele>1396.0</ele><time>2026-04-18T09:26:46.999Z</time></trkpt><trkpt lat="44.53529921998124" lon="9.488591686659344"><ele>1397.0</ele><time>2026-04-18T09:26:47.999Z</time></trkpt><trkpt lat="44.535314619678005" lon="9.488793470668753"><ele>1398.0</ele><time>2026-04-18T09:26:48.999Z</time></trkpt><trkpt lat="44.53535848188904" lon="9.488962402226043"><ele>1399.0</ele><time>2026-04-18T09:26:49.999Z</time></trkpt><trkpt lat="44.53543374044223" lon="9.489100028604485"><ele>1400.0</ele><time>2026-04-18T09:26:50.999Z</time></trkpt><trkpt lat="44.53554663170059" lon="9.48925440629589"><ele>1405.6666666666667</ele><time>2026-04-18T09:26:51.999Z</time></trkpt><trkpt lat="44.535704209811804" lon="9.4894292195233"><ele>1411.3333333333333</ele><time>2026-04-18T09:26:52.999Z</time></trkpt><trkpt lat="44.535884263785164" lon="9.489623228969448"><ele>1417.0</ele><time>2026-04-18T09:26:53.999Z</time></trkpt><trkpt lat="44.53607483543052" lon="9.489835658804795"><ele>1423.0</ele><time>2026-04-18T09:26:54.999Z</time></trkpt><trkpt lat="44.536270201278214" lon="9.490049030605732"><ele>1429.0</ele><time>2026-04-18T09:26:55.999Z</time></trkpt><trkpt lat="44.53646123237218" lon="9.490249463612098"><ele>1429.0</ele><time>2026-04-18T09:26:56.999Z</time></trkpt><trkpt lat="44.536617513758905" lon="9.490416176270985"><ele>1429.0</ele><time>2026-04-18T09:26:57.999Z</time></trkpt><trkpt lat="44.536755897422246" lon="9.49056240515225"><ele>1429.0</ele><time>2026-04-18T09:26:58.999Z</time></trkpt><trkpt lat="44.536878060307906" lon="9.490690636978272"><ele>1429.0</ele><time>2026-04-18T09:26:59.999Z</time></trkpt><trkpt lat="44.53697556127064" lon="9.490821186094779"><ele>1429.0</ele><time>2026-04-18T09:27:00.999Z</time></trkpt><trkpt lat="44.53703686227746" lon="9.49096694446969"><ele>1429.0</ele><time>2026-04-18T09:27:01.999Z</time></trkpt><trkpt lat="44.53704108663924" lon="9.491160931182243"><ele>1429.0</ele><time>2026-04-18T09:27:03Z</time></trkpt><trkpt lat="44.53704214524977" lon="9.491390494467549"><ele>1435.6666666666665</ele><time>2026-04-18T09:27:04Z</time></trkpt><trkpt lat="44.53705645260885" lon="9.4916463886684"><ele>1442.3333333333333</ele><time>2026-04-18T09:27:05Z</time></trkpt><trkpt lat="44.537055978094976" lon="9.491883344034546"><ele>1449.0</ele><time>2026-04-18T09:27:06Z</time></trkpt><trkpt lat="44.53709385092757" lon="9.492118852691506"><ele>1449.0</ele><time>2026-04-18T09:27:07Z</time></trkpt><trkpt lat="44.53716759367685" lon="9.492315544552472"><ele>1449.0</ele><time>2026-04-18T09:27:08Z</time></trkpt><trkpt lat="44.537273047053176" lon="9.492486748022706"><ele>1449.0</ele><time>2026-04-18T09:27:09Z</time></trkpt><trkpt lat="44.53740870108093" lon="9.492665531349036"><ele>1449.0</ele><time>2026-04-18T09:27:10Z</time></trkpt><trkpt lat="44.53755266599098" lon="9.492843472718127"><ele>1449.0</ele><time>2026-04-18T09:27:11Z</time></trkpt><trkpt lat="44.53766058530488" lon="9.493013812152308"><ele>1449.0</ele><time>2026-04-18T09:27:12Z</time></trkpt><trkpt lat="44.53770513204013" lon="9.493212447113155"><ele>1447.3333333333333</ele><time>2026-04-18T09:27:13Z</time></trkpt><trkpt lat="44.537741113763374" lon="9.49343253152598"><ele>1445.6666666666665</ele><time>2026-04-18T09:27:14Z</time></trkpt><trkpt lat="44.53779705320872" lon="9.493689941064636"><ele>1444.0</ele><time>2026-04-18T09:27:15Z</time></trkpt><trkpt lat="44.537829978760314" lon="9.493957188039378"><ele>1444.0</ele><time>2026-04-18T09:27:16Z</time></trkpt><trkpt lat="44.53780891149282" lon="9.494176530008028"><ele>1444.0</ele><time>2026-04-18T09:27:17Z</time></trkpt><trkpt lat="44.537767468521466" lon="9.494389331487834"><ele>1444.0</ele><time>2026-04-18T09:27:18Z</time></trkpt><trkpt lat="44.53767738700849" lon="9.494593276762838"><ele>1447.0</ele><time>2026-04-18T09:27:19Z</time></trkpt><trkpt lat="44.53754796564271" lon="9.494792435511535"><ele>1450.0</ele><time>2026-04-18T09:27:20Z</time></trkpt><trkpt lat="44.537390718917855" lon="9.495019874110465"><ele>1453.0</ele><time>2026-04-18T09:27:21Z</time></trkpt><trkpt lat="44.537236259894236" lon="9.495242409687917"><ele>1449.6666666666665</ele><time>2026-04-18T09:27:22Z</time></trkpt><trkpt lat="44.53710059651423" lon="9.495435883550513"><ele>1446.3333333333333</ele><time>2026-04-18T09:27:23Z</time></trkpt><trkpt lat="44.53697805744697" lon="9.495610851553892"><ele>1443.0</ele><time>2026-04-18T09:27:24Z</time></trkpt><trkpt lat="44.536869731397104" lon="9.495765680203972"><ele>1443.0</ele><time>2026-04-18T09:27:25Z</time></trkpt><trkpt lat="44.536782175700516" lon="9.495927837505215"><ele>1443.0</ele><time>2026-04-18T09:27:26Z</time></trkpt><trkpt lat="44.536689366356306" lon="9.496068513669607"><ele>1443.0</ele><time>2026-04-18T09:27:27Z</time></trkpt><trkpt lat="44.53660748717598" lon="9.49624518015529"><ele>1443.0</ele><time>2026-04-18T09:27:28Z</time></trkpt><trkpt lat="44.53654700433651" lon="9.49646063985082"><ele>1446.0</ele><time>2026-04-18T09:27:29Z</time></trkpt><trkpt lat="44.53652177341845" lon="9.496701902894127"><ele>1449.0</ele><time>2026-04-18T09:27:30Z</time></trkpt><trkpt lat="44.536530210774245" lon="9.496917793189036"><ele>1452.0</ele><time>2026-04-18T09:27:31Z</time></trkpt><trkpt lat="44.53656025224406" lon="9.497147175251023"><ele>1452.6666666666667</ele><time>2026-04-18T09:27:32Z</time></trkpt><trkpt lat="44.53661064155585" lon="9.497386202088943"><ele>1453.3333333333335</ele><time>2026-04-18T09:27:33Z</time></trkpt><trkpt lat="44.536620928785275" lon="9.497601637677901"><ele>1454.0</ele><time>2026-04-18T09:27:34Z</time></trkpt><trkpt lat="44.536591351637014" lon="9.497813794132904"><ele>1456.0</ele><time>2026-04-18T09:27:35Z</time></trkpt><trkpt lat="44.53652043731532" lon="9.498021691697678"><ele>1458.0</ele><time>2026-04-18T09:27:36Z</time></trkpt><trkpt lat="44.536432840530836" lon="9.498245852475517"><ele>1460.0</ele><time>2026-04-18T09:27:37Z</time></trkpt><trkpt lat="44.53636156808385" lon="9.498429790762565"><ele>1460.0</ele><time>2026-04-18T09:27:38Z</time></trkpt><trkpt lat="44.53632211192293" lon="9.498612267667012"><ele>1460.0</ele><time>2026-04-18T09:27:39Z</time></trkpt><trkpt lat="44.53627786273093" lon="9.498816134056165"><ele>1460.0</ele><time>2026-04-18T09:27:40Z</time></trkpt><trkpt lat="44.53626012833544" lon="9.4990294736545"><ele>1460.0</ele><time>2026-04-18T09:27:41Z</time></trkpt><trkpt lat="44.536270443017614" lon="9.49920561392653"><ele>1460.2</ele><time>2026-04-18T09:27:42Z</time></trkpt><trkpt lat="44.53629313042703" lon="9.499344636062716"><ele>1460.4</ele><time>2026-04-18T09:27:43Z</time></trkpt><trkpt lat="44.53631037017499" lon="9.499472840695473"><ele>1460.6</ele><time>2026-04-18T09:27:44Z</time></trkpt><trkpt lat="44.53627859669227" lon="9.499602172691647"><ele>1460.8</ele><time>2026-04-18T09:27:45Z</time></trkpt><trkpt lat="44.536218941963256" lon="9.499738863524657"><ele>1461.0</ele><time>2026-04-18T09:27:46Z</time></trkpt><trkpt lat="44.536133486511034" lon="9.49990048139872"><ele>1461.0</ele><time>2026-04-18T09:27:47Z</time></trkpt><trkpt lat="44.53603991109174" lon="9.500096851645718"><ele>1461.0</ele><time>2026-04-18T09:27:48Z</time></trkpt><trkpt lat="44.535918779494295" lon="9.500282406460942"><ele>1461.0</ele><time>2026-04-18T09:27:49Z</time></trkpt><trkpt lat="44.535832763227035" lon="9.500440729188886"><ele>1463.25</ele><time>2026-04-18T09:27:50Z</time></trkpt><trkpt lat="44.535791598756994" lon="9.500592241701954"><ele>1465.5</ele><time>2026-04-18T09:27:51Z</time></trkpt><trkpt lat="44.53578006676385" lon="9.500771464097337"><ele>1467.75</ele><time>2026-04-18T09:27:52Z</time></trkpt><trkpt lat="44.53580777174452" lon="9.50096615895517"><ele>1470.0</ele><time>2026-04-18T09:27:53Z</time></trkpt><trkpt lat="44.5358688092695" lon="9.5011610848134"><ele>1470.5</ele><time>2026-04-18T09:27:54Z</time></trkpt><trkpt lat="44.53595330526195" lon="9.501300068911274"><ele>1471.0</ele><time>2026-04-18T09:27:55Z</time></trkpt><trkpt lat="44.536062949976504" lon="9.501396965049478"><ele>1471.5</ele><time>2026-04-18T09:27:56Z</time></trkpt><trkpt lat="44.53618404112147" lon="9.501459712263447"><ele>1472.0</ele><time>2026-04-18T09:27:57Z</time></trkpt><trkpt lat="44.5362742213354" lon="9.501502840219919"><ele>1472.8</ele><time>2026-04-18T09:27:58Z</time></trkpt><trkpt lat="44.536336688265166" lon="9.501537265524378"><ele>1473.6</ele><time>2026-04-18T09:27:59Z</time></trkpt><trkpt lat="44.5364465320621" lon="9.501590868225842"><ele>1474.3999999999999</ele><time>2026-04-18T09:28:01Z</time></trkpt><trkpt lat="44.5365511294841" lon="9.501638421837333"><ele>1475.1999999999998</ele><time>2026-04-18T09:28:03Z</time></trkpt><trkpt lat="44.53666976478103" lon="9.501689321146985"><ele>1476.0</ele><time>2026-04-18T09:28:05Z</time></trkpt><trkpt lat="44.53674733670206" lon="9.501716644758853"><ele>1476.0</ele><time>2026-04-18T09:28:06Z</time></trkpt><trkpt lat="44.536834755949734" lon="9.501735602636122"><ele>1476.0</ele><time>2026-04-18T09:28:07Z</time></trkpt><trkpt lat="44.53693014017077" lon="9.501745741628929"><ele>1476.0</ele><time>2026-04-18T09:28:08Z</time></trkpt><trkpt lat="44.53703283663571" lon="9.501740250019228"><ele>1476.0</ele><time>2026-04-18T09:28:09Z</time></trkpt><trkpt lat="44.53715581674709" lon="9.501725105223736"><ele>1476.0</ele><time>2026-04-18T09:28:10Z</time></trkpt><trkpt lat="44.53728378933557" lon="9.501699470318417"><ele>1474.6666666666667</ele><time>2026-04-18T09:28:11Z</time></trkpt><trkpt lat="44.53743579361836" lon="9.501673929101113"><ele>1473.3333333333335</ele><time>2026-04-18T09:28:12Z</time></trkpt><trkpt lat="44.537590897899825" lon="9.501636109192722"><ele>1472.0</ele><time>2026-04-18T09:28:13Z</time></trkpt><trkpt lat="44.53773680263569" lon="9.501604826034766"><ele>1472.0</ele><time>2026-04-18T09:28:14Z</time></trkpt><trkpt lat="44.53786995380135" lon="9.501570740240401"><ele>1472.0</ele><time>2026-04-18T09:28:15Z</time></trkpt><trkpt lat="44.53798198696447" lon="9.501552932815597"><ele>1472.0</ele><time>2026-04-18T09:28:16Z</time></trkpt><trkpt lat="44.538105951328205" lon="9.50152362865085"><ele>1472.0</ele><time>2026-04-18T09:28:17Z</time></trkpt><trkpt lat="44.53823841923053" lon="9.501489497574765"><ele>1468.75</ele><time>2026-04-18T09:28:18Z</time></trkpt><trkpt lat="44.538357569046944" lon="9.501448578914538"><ele>1465.5</ele><time>2026-04-18T09:28:19Z</time></trkpt><trkpt lat="44.5384602064152" lon="9.501372289771837"><ele>1462.25</ele><time>2026-04-18T09:28:20Z</time></trkpt><trkpt lat="44.53856539330434" lon="9.501267766834426"><ele>1459.0</ele><time>2026-04-18T09:28:21Z</time></trkpt><trkpt lat="44.53866416585066" lon="9.501170824590494"><ele>1464.6</ele><time>2026-04-18T09:28:22Z</time></trkpt><trkpt lat="44.53876378258939" lon="9.50110425577894"><ele>1470.2</ele><time>2026-04-18T09:28:23Z</time></trkpt><trkpt lat="44.538855779250326" lon="9.50106587047335"><ele>1475.8</ele><time>2026-04-18T09:28:24Z</time></trkpt><trkpt lat="44.53894447277867" lon="9.501074862539184"><ele>1481.3999999999999</ele><time>2026-04-18T09:28:25Z</time></trkpt><trkpt lat="44.53903833488607" lon="9.501054752793236"><ele>1487.0</ele><time>2026-04-18T09:28:26Z</time></trkpt><trkpt lat="44.539155861786206" lon="9.501069524948903"><ele>1487.0</ele><time>2026-04-18T09:28:27Z</time></trkpt><trkpt lat="44.53926504262126" lon="9.501097747195502"><ele>1487.0</ele><time>2026-04-18T09:28:28Z</time></trkpt><trkpt lat="44.539355695529586" lon="9.501150442147466"><ele>1487.0</ele><time>2026-04-18T09:28:29Z</time></trkpt><trkpt lat="44.53945997101406" lon="9.501228740761507"><ele>1487.0</ele><time>2026-04-18T09:28:30Z</time></trkpt><trkpt lat="44.53957028264727" lon="9.50132625572632"><ele>1484.3999999999999</ele><time>2026-04-18T09:28:31Z</time></trkpt><trkpt lat="44.53967059846812" lon="9.501411086398248"><ele>1481.8</ele><time>2026-04-18T09:28:32Z</time></trkpt><trkpt lat="44.539760030595865" lon="9.501482738932593"><ele>1479.2</ele><time>2026-04-18T09:28:33Z</time></trkpt><trkpt lat="44.539857100463564" lon="9.501558286497136"><ele>1476.6</ele><time>2026-04-18T09:28:34Z</time></trkpt><trkpt lat="44.539956352786184" lon="9.501628821857784"><ele>1474.0</ele><time>2026-04-18T09:28:35Z</time></trkpt><trkpt lat="44.54006681194529" lon="9.50170104005281"><ele>1474.0</ele><time>2026-04-18T09:28:36Z</time></trkpt><trkpt lat="44.540195759440245" lon="9.501770493837006"><ele>1474.0</ele><time>2026-04-18T09:28:37Z</time></trkpt><trkpt lat="44.54035087821876" lon="9.501811066962135"><ele>1474.0</ele><time>2026-04-18T09:28:38Z</time></trkpt><trkpt lat="44.54050106807435" lon="9.501813192423509"><ele>1474.0</ele><time>2026-04-18T09:28:39Z</time></trkpt><trkpt lat="44.54065125332338" lon="9.501814543525356"><ele>1475.5</ele><time>2026-04-18T09:28:40Z</time></trkpt><trkpt lat="44.54078249113596" lon="9.501822090696365"><ele>1477.0</ele><time>2026-04-18T09:28:40.999Z</time></trkpt><trkpt lat="44.54090758917119" lon="9.501845425669028"><ele>1478.5</ele><time>2026-04-18T09:28:41.999Z</time></trkpt><trkpt lat="44.54103140519998" lon="9.501889053055752"><ele>1480.0</ele><time>2026-04-18T09:28:42.999Z</time></trkpt><trkpt lat="44.54116429116448" lon="9.501939764902744"><ele>1479.5</ele><time>2026-04-18T09:28:43.999Z</time></trkpt><trkpt lat="44.54129993364668" lon="9.501991349317914"><ele>1479.0</ele><time>2026-04-18T09:28:44.999Z</time></trkpt><trkpt lat="44.54141467637798" lon="9.502035741113595"><ele>1478.5</ele><time>2026-04-18T09:28:45.999Z</time></trkpt><trkpt lat="44.541519290683446" lon="9.502047214645584"><ele>1478.0</ele><time>2026-04-18T09:28:46.999Z</time></trkpt><trkpt lat="44.541624647060054" lon="9.50200586726275"><ele>1478.0</ele><time>2026-04-18T09:28:47.999Z</time></trkpt><trkpt lat="44.54172746649356" lon="9.501897943117521"><ele>1478.0</ele><time>2026-04-18T09:28:48.999Z</time></trkpt><trkpt lat="44.541821122737424" lon="9.501741524881433"><ele>1478.0</ele><time>2026-04-18T09:28:49.999Z</time></trkpt><trkpt lat="44.54189708241669" lon="9.501544459896365"><ele>1478.0</ele><time>2026-04-18T09:28:50.999Z</time></trkpt><trkpt lat="44.54197475803515" lon="9.501363249265644"><ele>1479.25</ele><time>2026-04-18T09:28:51.999Z</time></trkpt><trkpt lat="44.542053679939706" lon="9.501232002642665"><ele>1480.5</ele><time>2026-04-18T09:28:52.999Z</time></trkpt><trkpt lat="44.54215489834729" lon="9.50113584929711"><ele>1481.75</ele><time>2026-04-18T09:28:53.999Z</time></trkpt><trkpt lat="44.54230215743419" lon="9.501101599808518"><ele>1483.0</ele><time>2026-04-18T09:28:54.999Z</time></trkpt><trkpt lat="44.54247224502769" lon="9.501069707350327"><ele>1483.0</ele><time>2026-04-18T09:28:55.999Z</time></trkpt><trkpt lat="44.54262207588855" lon="9.50101522662878"><ele>1483.0</ele><time>2026-04-18T09:28:56.999Z</time></trkpt><trkpt lat="44.542784272319146" lon="9.500983717694858"><ele>1483.0</ele><time>2026-04-18T09:28:57.999Z</time></trkpt><trkpt lat="44.54295217882716" lon="9.5009375966559"><ele>1480.6666666666665</ele><time>2026-04-18T09:28:58.999Z</time></trkpt><trkpt lat="44.5431231169912" lon="9.50085009465307"><ele>1478.3333333333333</ele><time>2026-04-18T09:28:59.999Z</time></trkpt><trkpt lat="44.54328686583578" lon="9.500738134782384"><ele>1476.0</ele><time>2026-04-18T09:29:00.999Z</time></trkpt><trkpt lat="44.54341766753671" lon="9.50061480147186"><ele>1476.0</ele><time>2026-04-18T09:29:01.999Z</time></trkpt><trkpt lat="44.54355672896242" lon="9.500557802034397"><ele>1476.0</ele><time>2026-04-18T09:29:02.999Z</time></trkpt><trkpt lat="44.54370698627362" lon="9.50055347220702"><ele>1476.0</ele><time>2026-04-18T09:29:03.999Z</time></trkpt><trkpt lat="44.54387501602428" lon="9.50053817803129"><ele>1474.6666666666667</ele><time>2026-04-18T09:29:04.999Z</time></trkpt><trkpt lat="44.544042309530106" lon="9.500490847093328"><ele>1473.3333333333335</ele><time>2026-04-18T09:29:05.999Z</time></trkpt><trkpt lat="44.544199367573384" lon="9.500421509321958"><ele>1472.0</ele><time>2026-04-18T09:29:06.999Z</time></trkpt><trkpt lat="44.54433113841144" lon="9.500343574175877"><ele>1475.25</ele><time>2026-04-18T09:29:07.999Z</time></trkpt><trkpt lat="44.54444706222501" lon="9.500299583024026"><ele>1478.5</ele><time>2026-04-18T09:29:09Z</time></trkpt><trkpt lat="44.54456309232467" lon="9.500318555387755"><ele>1481.75</ele><time>2026-04-18T09:29:10Z</time></trkpt><trkpt lat="44.54467970480922" lon="9.500346292046467"><ele>1485.0</ele><time>2026-04-18T09:29:11Z</time></trkpt><trkpt lat="44.54478758783327" lon="9.500484791024888"><ele>1485.0</ele><time>2026-04-18T09:29:12Z</time></trkpt><trkpt lat="44.54487867926315" lon="9.500659681632772"><ele>1485.0</ele><time>2026-04-18T09:29:13Z</time></trkpt><trkpt lat="44.5449711367908" lon="9.500868220148543"><ele>1485.0</ele><time>2026-04-18T09:29:14Z</time></trkpt><trkpt lat="44.54507717123642" lon="9.501087746376912"><ele>1481.6666666666667</ele><time>2026-04-18T09:29:15Z</time></trkpt><trkpt lat="44.54517383126767" lon="9.501317650228254"><ele>1478.3333333333335</ele><time>2026-04-18T09:29:16Z</time></trkpt><trkpt lat="44.54528347718184" lon="9.501536328574435"><ele>1475.0</ele><time>2026-04-18T09:29:17Z</time></trkpt><trkpt lat="44.545373569083615" lon="9.501726337727959"><ele>1476.5</ele><time>2026-04-18T09:29:18Z</time></trkpt><trkpt lat="44.5454461133818" lon="9.501902177864954"><ele>1478.0</ele><time>2026-04-18T09:29:19Z</time></trkpt><trkpt lat="44.54551852387487" lon="9.502057283996477"><ele>1479.5</ele><time>2026-04-18T09:29:20Z</time></trkpt><trkpt lat="44.54562216976734" lon="9.502194287437277"><ele>1481.0</ele><time>2026-04-18T09:29:21Z</time></trkpt><trkpt lat="44.545748809062374" lon="9.50231002294506"><ele>1481.0</ele><time>2026-04-18T09:29:22Z</time></trkpt><trkpt lat="44.54590422553488" lon="9.502410419455968"><ele>1481.0</ele><time>2026-04-18T09:29:23Z</time></trkpt><trkpt lat="44.54606619560646" lon="9.502504119469892"><ele>1481.0</ele><time>2026-04-18T09:29:24Z</time></trkpt><trkpt lat="44.54619769939728" lon="9.502572446777359"><ele>1481.75</ele><time>2026-04-18T09:29:25Z</time></trkpt><trkpt lat="44.54631028541041" lon="9.502612642201859"><ele>1482.5</ele><time>2026-04-18T09:29:26Z</time></trkpt><trkpt lat="44.546427941988654" lon="9.502595836789697"><ele>1483.25</ele><time>2026-04-18T09:29:27Z</time></trkpt><trkpt lat="44.54656093315234" lon="9.502528898923027"><ele>1484.0</ele><time>2026-04-18T09:29:28Z</time></trkpt><trkpt lat="44.54672229638633" lon="9.502422651320083"><ele>1484.0</ele><time>2026-04-18T09:29:29Z</time></trkpt><trkpt lat="44.546906669408784" lon="9.502309666408056"><ele>1484.0</ele><time>2026-04-18T09:29:30Z</time></trkpt><trkpt lat="44.54708517327197" lon="9.502208617545257"><ele>1484.0</ele><time>2026-04-18T09:29:31Z</time></trkpt><trkpt lat="44.54725100665518" lon="9.502119908439628"><ele>1489.25</ele><time>2026-04-18T09:29:32Z</time></trkpt><trkpt lat="44.547390381213305" lon="9.502044466856708"><ele>1494.5</ele><time>2026-04-18T09:29:33Z</time></trkpt><trkpt lat="44.54750460114071" lon="9.501984180589321"><ele>1499.75</ele><time>2026-04-18T09:29:34Z</time></trkpt><trkpt lat="44.54761464089212" lon="9.501934915418554"><ele>1505.0</ele><time>2026-04-18T09:29:35Z</time></trkpt><trkpt lat="44.547723557195845" lon="9.501955074100094"><ele>1505.0</ele><time>2026-04-18T09:29:36Z</time></trkpt><trkpt lat="44.54782375476504" lon="9.502022657463845"><ele>1505.0</ele><time>2026-04-18T09:29:37Z</time></trkpt><trkpt lat="44.547911045012874" lon="9.502147418391564"><ele>1505.0</ele><time>2026-04-18T09:29:38Z</time></trkpt><trkpt lat="44.547956424396794" lon="9.502327175766464"><ele>1505.0</ele><time>2026-04-18T09:29:39Z</time></trkpt><trkpt lat="44.548036951933625" lon="9.502539605574208"><ele>1503.6666666666667</ele><time>2026-04-18T09:29:40Z</time></trkpt><trkpt lat="44.548127681125095" lon="9.502763418089028"><ele>1502.3333333333333</ele><time>2026-04-18T09:29:41Z</time></trkpt><trkpt lat="44.548201734246284" lon="9.502963880238486"><ele>1501.0</ele><time>2026-04-18T09:29:42Z</time></trkpt><trkpt lat="44.548273334417885" lon="9.503135879617068"><ele>1498.3333333333333</ele><time>2026-04-18T09:29:43Z</time></trkpt><trkpt lat="44.548338307824494" lon="9.503305701242613"><ele>1495.6666666666667</ele><time>2026-04-18T09:29:44Z</time></trkpt><trkpt lat="44.54840808330042" lon="9.503493681090042"><ele>1493.0</ele><time>2026-04-18T09:29:45Z</time></trkpt><trkpt lat="44.5484916371604" lon="9.503708969590463"><ele>1490.0</ele><time>2026-04-18T09:29:46Z</time></trkpt><trkpt lat="44.54858499290438" lon="9.503948854162447"><ele>1487.0</ele><time>2026-04-18T09:29:47Z</time></trkpt><trkpt lat="44.5486605778876" lon="9.504163507454797"><ele>1484.0</ele><time>2026-04-18T09:29:48Z</time></trkpt><trkpt lat="44.5486925711298" lon="9.504352038163777"><ele>1484.0</ele><time>2026-04-18T09:29:49Z</time></trkpt><trkpt lat="44.54869255566749" lon="9.504534320574171"><ele>1484.0</ele><time>2026-04-18T09:29:50Z</time></trkpt><trkpt lat="44.5486569186501" lon="9.504734624337623"><ele>1484.0</ele><time>2026-04-18T09:29:51Z</time></trkpt><trkpt lat="44.54866052022867" lon="9.50497366247576"><ele>1484.0</ele><time>2026-04-18T09:29:52Z</time></trkpt><trkpt lat="44.5486713910934" lon="9.505203434232687"><ele>1493.6666666666667</ele><time>2026-04-18T09:29:53Z</time></trkpt><trkpt lat="44.548719348837054" lon="9.505436949835708"><ele>1503.3333333333333</ele><time>2026-04-18T09:29:54Z</time></trkpt><trkpt lat="44.54876826677222" lon="9.50564509282414"><ele>1513.0</ele><time>2026-04-18T09:29:55Z</time></trkpt><trkpt lat="44.54882896341405" lon="9.505842598266709"><ele>1513.0</ele><time>2026-04-18T09:29:56Z</time></trkpt><trkpt lat="44.548911374034724" lon="9.506015931456313"><ele>1513.0</ele><time>2026-04-18T09:29:57Z</time></trkpt><trkpt lat="44.54899305108034" lon="9.506152666061999"><ele>1513.0</ele><time>2026-04-18T09:29:58Z</time></trkpt><trkpt lat="44.54903945998743" lon="9.506308012098062"><ele>1513.0</ele><time>2026-04-18T09:29:59Z</time></trkpt><trkpt lat="44.549075962925905" lon="9.506493587143034"><ele>1512.3333333333333</ele><time>2026-04-18T09:30:00Z</time></trkpt><trkpt lat="44.54906652725071" lon="9.506705104330148"><ele>1511.6666666666667</ele><time>2026-04-18T09:30:01Z</time></trkpt><trkpt lat="44.549028280501275" lon="9.506926806979738"><ele>1511.0</ele><time>2026-04-18T09:30:02Z</time></trkpt><trkpt lat="44.54897818136386" lon="9.507178273408204"><ele>1512.3333333333335</ele><time>2026-04-18T09:30:03Z</time></trkpt><trkpt lat="44.54893121647489" lon="9.507428137548736"><ele>1513.6666666666667</ele><time>2026-04-18T09:30:04Z</time></trkpt><trkpt lat="44.548912419055554" lon="9.507640079392475"><ele>1515.0</ele><time>2026-04-18T09:30:05Z</time></trkpt><trkpt lat="44.54890260146951" lon="9.50782159047888"><ele>1515.0</ele><time>2026-04-18T09:30:06Z</time></trkpt><trkpt lat="44.54893179856609" lon="9.508021821595154"><ele>1515.0</ele><time>2026-04-18T09:30:07Z</time></trkpt><trkpt lat="44.548993416798666" lon="9.508254488982953"><ele>1515.0</ele><time>2026-04-18T09:30:08Z</time></trkpt><trkpt lat="44.54906671840497" lon="9.508477213222172"><ele>1515.0</ele><time>2026-04-18T09:30:09Z</time></trkpt><trkpt lat="44.54910899348955" lon="9.50866934637644"><ele>1515.0</ele><time>2026-04-18T09:30:10Z</time></trkpt><trkpt lat="44.549200295342" lon="9.508827607978041"><ele>1515.0</ele><time>2026-04-18T09:30:11Z</time></trkpt><trkpt lat="44.54930323829106" lon="9.508982271521429"><ele>1515.0</ele><time>2026-04-18T09:30:12Z</time></trkpt><trkpt lat="44.549428763456596" lon="9.509125802613848"><ele>1517.0</ele><time>2026-04-18T09:30:13Z</time></trkpt><trkpt lat="44.54952130652303" lon="9.509330926607232"><ele>1519.0</ele><time>2026-04-18T09:30:14Z</time></trkpt><trkpt lat="44.54959891899962" lon="9.509559664604133"><ele>1521.0</ele><time>2026-04-18T09:30:15Z</time></trkpt><trkpt lat="44.54965834685243" lon="9.509772540472708"><ele>1521.0</ele><time>2026-04-18T09:30:16Z</time></trkpt><trkpt lat="44.5496996359818" lon="9.509964148578305"><ele>1521.0</ele><time>2026-04-18T09:30:17Z</time></trkpt><trkpt lat="44.549707655722436" lon="9.51016677125189"><ele>1521.0</ele><time>2026-04-18T09:30:18Z</time></trkpt><trkpt lat="44.549672419694396" lon="9.51035364843678"><ele>1521.0</ele><time>2026-04-18T09:30:19Z</time></trkpt><trkpt lat="44.549627946611125" lon="9.510555024311447"><ele>1520.6666666666667</ele><time>2026-04-18T09:30:20Z</time></trkpt><trkpt lat="44.5495876440496" lon="9.510802073178096"><ele>1520.3333333333335</ele><time>2026-04-18T09:30:21Z</time></trkpt><trkpt lat="44.549529805540445" lon="9.511054620857465"><ele>1520.0</ele><time>2026-04-18T09:30:22Z</time></trkpt><trkpt lat="44.549496111187025" lon="9.511285525910465"><ele>1516.75</ele><time>2026-04-18T09:30:23Z</time></trkpt><trkpt lat="44.549478416112" lon="9.511497333922161"><ele>1513.5</ele><time>2026-04-18T09:30:24Z</time></trkpt><trkpt lat="44.549471930483186" lon="9.511692174501603"><ele>1510.25</ele><time>2026-04-18T09:30:25Z</time></trkpt><trkpt lat="44.54947907361965" lon="9.511868174181489"><ele>1507.0</ele><time>2026-04-18T09:30:26Z</time></trkpt><trkpt lat="44.54952544133223" lon="9.512006470007941"><ele>1506.6666666666665</ele><time>2026-04-18T09:30:27Z</time></trkpt><trkpt lat="44.54963334382268" lon="9.512125612537057"><ele>1506.3333333333333</ele><time>2026-04-18T09:30:28Z</time></trkpt><trkpt lat="44.549789859909296" lon="9.512205123506883"><ele>1506.0</ele><time>2026-04-18T09:30:29Z</time></trkpt><trkpt lat="44.5499808145557" lon="9.512286778229809"><ele>1506.0</ele><time>2026-04-18T09:30:30Z</time></trkpt><trkpt lat="44.55018990361907" lon="9.512391968870496"><ele>1506.0</ele><time>2026-04-18T09:30:31Z</time></trkpt><trkpt lat="44.55036320451963" lon="9.51249124196342"><ele>1506.0</ele><time>2026-04-18T09:30:32Z</time></trkpt><trkpt lat="44.55050014547046" lon="9.512573719973531"><ele>1506.5</ele><time>2026-04-18T09:30:33Z</time></trkpt><trkpt lat="44.55062936067242" lon="9.512651740320226"><ele>1507.0</ele><time>2026-04-18T09:30:33.999Z</time></trkpt><trkpt lat="44.55072622617237" lon="9.512773549153977"><ele>1507.5</ele><time>2026-04-18T09:30:34.999Z</time></trkpt><trkpt lat="44.55082821877227" lon="9.51291184843527"><ele>1508.0</ele><time>2026-04-18T09:30:35.999Z</time></trkpt><trkpt lat="44.55092425340324" lon="9.513106102326292"><ele>1508.0</ele><time>2026-04-18T09:30:36.999Z</time></trkpt><trkpt lat="44.5510161873081" lon="9.513325093584234"><ele>1508.0</ele><time>2026-04-18T09:30:37.999Z</time></trkpt><trkpt lat="44.55112871111198" lon="9.513541768703112"><ele>1508.0</ele><time>2026-04-18T09:30:38.999Z</time></trkpt><trkpt lat="44.55124472791939" lon="9.513757639593937"><ele>1510.3333333333335</ele><time>2026-04-18T09:30:39.999Z</time></trkpt><trkpt lat="44.5513814790767" lon="9.51393188992293"><ele>1512.6666666666667</ele><time>2026-04-18T09:30:40.999Z</time></trkpt><trkpt lat="44.55151822121221" lon="9.514073043900867"><ele>1515.0</ele><time>2026-04-18T09:30:41.999Z</time></trkpt><trkpt lat="44.551613342590855" lon="9.514260704549915"><ele>1515.0</ele><time>2026-04-18T09:30:42.999Z</time></trkpt><trkpt lat="44.55169811711934" lon="9.514480870568496"><ele>1515.0</ele><time>2026-04-18T09:30:43.999Z</time></trkpt><trkpt lat="44.551764569533276" lon="9.51474411293013"><ele>1515.0</ele><time>2026-04-18T09:30:44.999Z</time></trkpt><trkpt lat="44.55182402991331" lon="9.515008512626682"><ele>1510.3333333333333</ele><time>2026-04-18T09:30:45.999Z</time></trkpt><trkpt lat="44.55189288947831" lon="9.51523368568813"><ele>1505.6666666666665</ele><time>2026-04-18T09:30:46.999Z</time></trkpt><trkpt lat="44.55194367929884" lon="9.515429908468597"><ele>1501.0</ele><time>2026-04-18T09:30:47.999Z</time></trkpt><trkpt lat="44.55201886432071" lon="9.515622559737226"><ele>1504.5</ele><time>2026-04-18T09:30:48.999Z</time></trkpt><trkpt lat="44.55209349853515" lon="9.515806309403468"><ele>1508.0</ele><time>2026-04-18T09:30:49.999Z</time></trkpt><trkpt lat="44.55217075690591" lon="9.515964415934489"><ele>1511.5</ele><time>2026-04-18T09:30:50.999Z</time></trkpt><trkpt lat="44.55226792060563" lon="9.516099008325225"><ele>1515.0</ele><time>2026-04-18T09:30:51.999Z</time></trkpt><trkpt lat="44.55240517464255" lon="9.516199062372927"><ele>1512.0</ele><time>2026-04-18T09:30:52.999Z</time></trkpt><trkpt lat="44.55259061857824" lon="9.516279302081918"><ele>1509.0</ele><time>2026-04-18T09:30:53.999Z</time></trkpt><trkpt lat="44.55279067591621" lon="9.516357809219912"><ele>1506.0</ele><time>2026-04-18T09:30:54.999Z</time></trkpt><trkpt lat="44.55299497207311" lon="9.516449220951959"><ele>1506.0</ele><time>2026-04-18T09:30:55.999Z</time></trkpt><trkpt lat="44.55317583014154" lon="9.516540134834337"><ele>1506.0</ele><time>2026-04-18T09:30:56.999Z</time></trkpt><trkpt lat="44.553333729062324" lon="9.516618958678457"><ele>1506.0</ele><time>2026-04-18T09:30:57.999Z</time></trkpt><trkpt lat="44.55347289257186" lon="9.516689195370311"><ele>1506.0</ele><time>2026-04-18T09:30:58.999Z</time></trkpt><trkpt lat="44.55359983230216" lon="9.51675171192686"><ele>1506.0</ele><time>2026-04-18T09:30:59.999Z</time></trkpt><trkpt lat="44.55371908197931" lon="9.51679160322354"><ele>1506.0</ele><time>2026-04-18T09:31:00.999Z</time></trkpt><trkpt lat="44.55384758442267" lon="9.516772098351348"><ele>1506.0</ele><time>2026-04-18T09:31:01.999Z</time></trkpt><trkpt lat="44.55398760216149" lon="9.516689633294241"><ele>1505.75</ele><time>2026-04-18T09:31:02.999Z</time></trkpt><trkpt lat="44.554113173272185" lon="9.516554524606615"><ele>1505.5</ele><time>2026-04-18T09:31:03.999Z</time></trkpt><trkpt lat="44.55421143917309" lon="9.516416731397873"><ele>1505.25</ele><time>2026-04-18T09:31:04.999Z</time></trkpt><trkpt lat="44.554294847394424" lon="9.516298241134166"><ele>1505.0</ele><time>2026-04-18T09:31:05.999Z</time></trkpt><trkpt lat="44.55439208970262" lon="9.51621266112484"><ele>1509.6666666666667</ele><time>2026-04-18T09:31:06.999Z</time></trkpt><trkpt lat="44.5545282243162" lon="9.516157521065038"><ele>1514.3333333333333</ele><time>2026-04-18T09:31:07.999Z</time></trkpt><trkpt lat="44.55468171562542" lon="9.516182074702824"><ele>1519.0</ele><time>2026-04-18T09:31:08.999Z</time></trkpt><trkpt lat="44.55484827952581" lon="9.516211633365797"><ele>1513.0</ele><time>2026-04-18T09:31:09.999Z</time></trkpt><trkpt lat="44.55501229064652" lon="9.516275751682967"><ele>1507.0</ele><time>2026-04-18T09:31:10.999Z</time></trkpt><trkpt lat="44.55516616539877" lon="9.516347607981384"><ele>1501.0</ele><time>2026-04-18T09:31:11.999Z</time></trkpt><trkpt lat="44.55528494653444" lon="9.51647205800759"><ele>1506.6666666666665</ele><time>2026-04-18T09:31:12.999Z</time></trkpt><trkpt lat="44.55537980451911" lon="9.51663582117264"><ele>1512.3333333333333</ele><time>2026-04-18T09:31:13.999Z</time></trkpt><trkpt lat="44.55548143603455" lon="9.516844071384579"><ele>1518.0</ele><time>2026-04-18T09:31:15Z</time></trkpt><trkpt lat="44.55560271054722" lon="9.517064305191122"><ele>1511.6666666666667</ele><time>2026-04-18T09:31:16Z</time></trkpt><trkpt lat="44.5557183850788" lon="9.517314924987062"><ele>1505.3333333333335</ele><time>2026-04-18T09:31:17Z</time></trkpt><trkpt lat="44.55584603815066" lon="9.517576900473568"><ele>1499.0</ele><time>2026-04-18T09:31:18Z</time></trkpt><trkpt lat="44.55596373835231" lon="9.517810249567267"><ele>1495.0</ele><time>2026-04-18T09:31:19Z</time></trkpt><trkpt lat="44.55604060162374" lon="9.51803662279982"><ele>1491.0</ele><time>2026-04-18T09:31:20Z</time></trkpt><trkpt lat="44.556095672158094" lon="9.518267616637791"><ele>1487.0</ele><time>2026-04-18T09:31:21Z</time></trkpt><trkpt lat="44.55614750456775" lon="9.518496764765262"><ele>1484.3333333333335</ele><time>2026-04-18T09:31:22Z</time></trkpt><trkpt lat="44.556200890133574" lon="9.518739726825036"><ele>1481.6666666666667</ele><time>2026-04-18T09:31:23Z</time></trkpt><trkpt lat="44.556193212714504" lon="9.51899585521774"><ele>1479.0</ele><time>2026-04-18T09:31:24Z</time></trkpt><trkpt lat="44.55618718885194" lon="9.519238246062145"><ele>1479.0</ele><time>2026-04-18T09:31:25Z</time></trkpt><trkpt lat="44.55619497636004" lon="9.519459445096922"><ele>1479.0</ele><time>2026-04-18T09:31:26Z</time></trkpt><trkpt lat="44.55619144017366" lon="9.519653616209947"><ele>1479.0</ele><time>2026-04-18T09:31:27Z</time></trkpt><trkpt lat="44.55622630382236" lon="9.519837076211731"><ele>1479.0</ele><time>2026-04-18T09:31:28Z</time></trkpt><trkpt lat="44.55631574470158" lon="9.52001702272152"><ele>1482.0</ele><time>2026-04-18T09:31:29Z</time></trkpt><trkpt lat="44.556445337758596" lon="9.52018803551157"><ele>1485.0</ele><time>2026-04-18T09:31:30Z</time></trkpt><trkpt lat="44.55655615625507" lon="9.520341037807345"><ele>1488.0</ele><time>2026-04-18T09:31:31Z</time></trkpt><trkpt lat="44.55660940142602" lon="9.520541707365203"><ele>1488.0</ele><time>2026-04-18T09:31:32Z</time></trkpt><trkpt lat="44.55663733655475" lon="9.520777081360873"><ele>1488.0</ele><time>2026-04-18T09:31:33Z</time></trkpt><trkpt lat="44.556662401652886" lon="9.521007518629316"><ele>1488.0</ele><time>2026-04-18T09:31:34Z</time></trkpt><trkpt lat="44.55669474354064" lon="9.52120816718251"><ele>1484.6666666666667</ele><time>2026-04-18T09:31:35Z</time></trkpt><trkpt lat="44.55674585906687" lon="9.521402920018616"><ele>1481.3333333333335</ele><time>2026-04-18T09:31:36Z</time></trkpt><trkpt lat="44.556849409005146" lon="9.521605046145996"><ele>1478.0</ele><time>2026-04-18T09:31:37Z</time></trkpt><trkpt lat="44.55698163468425" lon="9.521813614248922"><ele>1482.0</ele><time>2026-04-18T09:31:38Z</time></trkpt><trkpt lat="44.55711707489655" lon="9.522034514297264"><ele>1486.0</ele><time>2026-04-18T09:31:39Z</time></trkpt><trkpt lat="44.55723876463585" lon="9.522255646354386"><ele>1490.0</ele><time>2026-04-18T09:31:40Z</time></trkpt><trkpt lat="44.55733072519559" lon="9.522478881657058"><ele>1490.0</ele><time>2026-04-18T09:31:41Z</time></trkpt><trkpt lat="44.55740997615924" lon="9.522717201161315"><ele>1490.0</ele><time>2026-04-18T09:31:42Z</time></trkpt><trkpt lat="44.55748002089126" lon="9.522997578394916"><ele>1490.0</ele><time>2026-04-18T09:31:43Z</time></trkpt><trkpt lat="44.55754876722918" lon="9.523263791693761"><ele>1485.6666666666667</ele><time>2026-04-18T09:31:44Z</time></trkpt><trkpt lat="44.55754868221056" lon="9.523533483146789"><ele>1481.3333333333333</ele><time>2026-04-18T09:31:45Z</time></trkpt><trkpt lat="44.557549505896986" lon="9.523804405319245"><ele>1477.0</ele><time>2026-04-18T09:31:46Z</time></trkpt><trkpt lat="44.55754923888144" lon="9.524048722144581"><ele>1474.75</ele><time>2026-04-18T09:31:47Z</time></trkpt><trkpt lat="44.55755967515098" lon="9.524267467745439"><ele>1472.5</ele><time>2026-04-18T09:31:48Z</time></trkpt><trkpt lat="44.557558419805375" lon="9.524461169028708"><ele>1470.25</ele><time>2026-04-18T09:31:49Z</time></trkpt><trkpt lat="44.557567681708235" lon="9.524622676328587"><ele>1468.0</ele><time>2026-04-18T09:31:50Z</time></trkpt><trkpt lat="44.557608877978055" lon="9.524760659007674"><ele>1467.5</ele><time>2026-04-18T09:31:51Z</time></trkpt><trkpt lat="44.557701888514295" lon="9.524883200932324"><ele>1467.0</ele><time>2026-04-18T09:31:52Z</time></trkpt><trkpt lat="44.557844440952046" lon="9.524930329137616"><ele>1466.5</ele><time>2026-04-18T09:31:53Z</time></trkpt><trkpt lat="44.557977892003045" lon="9.524932062028919"><ele>1466.0</ele><time>2026-04-18T09:31:54Z</time></trkpt><trkpt lat="44.55813293232843" lon="9.524876401905097"><ele>1466.0</ele><time>2026-04-18T09:31:55Z</time></trkpt><trkpt lat="44.55830793925612" lon="9.52480300104481"><ele>1466.0</ele><time>2026-04-18T09:31:56Z</time></trkpt><trkpt lat="44.55845968798088" lon="9.524746625313815"><ele>1466.0</ele><time>2026-04-18T09:31:57Z</time></trkpt><trkpt lat="44.55860536107365" lon="9.52470174253586"><ele>1463.6666666666667</ele><time>2026-04-18T09:31:58Z</time></trkpt><trkpt lat="44.55874062055917" lon="9.52465357955374"><ele>1461.3333333333333</ele><time>2026-04-18T09:31:59Z</time></trkpt><trkpt lat="44.55888062322141" lon="9.524594838672984"><ele>1459.0</ele><time>2026-04-18T09:32:00Z</time></trkpt><trkpt lat="44.55904633924107" lon="9.52455206861151"><ele>1462.25</ele><time>2026-04-18T09:32:01Z</time></trkpt><trkpt lat="44.55918608602288" lon="9.524503689853452"><ele>1465.5</ele><time>2026-04-18T09:32:02Z</time></trkpt><trkpt lat="44.55931463018566" lon="9.524452027981454"><ele>1468.75</ele><time>2026-04-18T09:32:03Z</time></trkpt><trkpt lat="44.559445505578665" lon="9.524455805516244"><ele>1472.0</ele><time>2026-04-18T09:32:04Z</time></trkpt><trkpt lat="44.559588683084826" lon="9.524488146402405"><ele>1472.0</ele><time>2026-04-18T09:32:05Z</time></trkpt><trkpt lat="44.5597531869558" lon="9.524554129327027"><ele>1472.0</ele><time>2026-04-18T09:32:06Z</time></trkpt><trkpt lat="44.5599256730004" lon="9.52463763299892"><ele>1472.0</ele><time>2026-04-18T09:32:07Z</time></trkpt><trkpt lat="44.560073263854136" lon="9.524712448742578"><ele>1467.6666666666667</ele><time>2026-04-18T09:32:08Z</time></trkpt><trkpt lat="44.56021606763799" lon="9.52477338223733"><ele>1463.3333333333333</ele><time>2026-04-18T09:32:09Z</time></trkpt><trkpt lat="44.56037237553157" lon="9.524817332951319"><ele>1459.0</ele><time>2026-04-18T09:32:10Z</time></trkpt><trkpt lat="44.560545541276205" lon="9.52482096741588"><ele>1459.0</ele><time>2026-04-18T09:32:11Z</time></trkpt><trkpt lat="44.56072590738672" lon="9.524784094289908"><ele>1459.0</ele><time>2026-04-18T09:32:12Z</time></trkpt><trkpt lat="44.56093324953403" lon="9.524731529993975"><ele>1459.0</ele><time>2026-04-18T09:32:13Z</time></trkpt><trkpt lat="44.56113662397602" lon="9.524691953587011"><ele>1455.6666666666665</ele><time>2026-04-18T09:32:14Z</time></trkpt><trkpt lat="44.561320699263895" lon="9.524656789240916"><ele>1452.3333333333333</ele><time>2026-04-18T09:32:15Z</time></trkpt><trkpt lat="44.561483242777506" lon="9.524622909370171"><ele>1449.0</ele><time>2026-04-18T09:32:16Z</time></trkpt><trkpt lat="44.561631620218726" lon="9.524592957700952"><ele>1449.0</ele><time>2026-04-18T09:32:17Z</time></trkpt><trkpt lat="44.56176384018925" lon="9.524564250957564"><ele>1449.0</ele><time>2026-04-18T09:32:18Z</time></trkpt><trkpt lat="44.56187730878743" lon="9.524510695462997"><ele>1449.0</ele><time>2026-04-18T09:32:19Z</time></trkpt><trkpt lat="44.561982400389546" lon="9.524401666307226"><ele>1449.0</ele><time>2026-04-18T09:32:20Z</time></trkpt><trkpt lat="44.562056561000546" lon="9.524238509957426"><ele>1446.6666666666667</ele><time>2026-04-18T09:32:21Z</time></trkpt><trkpt lat="44.562116335530646" lon="9.524027801531735"><ele>1444.3333333333335</ele><time>2026-04-18T09:32:22Z</time></trkpt><trkpt lat="44.56217863577137" lon="9.52379168307101"><ele>1442.0</ele><time>2026-04-18T09:32:23Z</time></trkpt><trkpt lat="44.562243518493595" lon="9.523569896090745"><ele>1442.0</ele><time>2026-04-18T09:32:24Z</time></trkpt><trkpt lat="44.562297655674804" lon="9.523365311514452"><ele>1442.0</ele><time>2026-04-18T09:32:25Z</time></trkpt><trkpt lat="44.56233236350095" lon="9.523160519566705"><ele>1442.0</ele><time>2026-04-18T09:32:25.999Z</time></trkpt><trkpt lat="44.56234957869481" lon="9.52294778719096"><ele>1445.6666666666667</ele><time>2026-04-18T09:32:26.999Z</time></trkpt><trkpt lat="44.56236296162077" lon="9.522759596868763"><ele>1449.3333333333333</ele><time>2026-04-18T09:32:27.999Z</time></trkpt><trkpt lat="44.56240765956471" lon="9.522550896412367"><ele>1453.0</ele><time>2026-04-18T09:32:28.999Z</time></trkpt><trkpt lat="44.56251933365081" lon="9.522388895889137"><ele>1453.0</ele><time>2026-04-18T09:32:29.999Z</time></trkpt><trkpt lat="44.562650521563505" lon="9.522308297504408"><ele>1453.0</ele><time>2026-04-18T09:32:30.999Z</time></trkpt><trkpt lat="44.56275005580422" lon="9.52225783208331"><ele>1453.0</ele><time>2026-04-18T09:32:31.999Z</time></trkpt><trkpt lat="44.56290239636584" lon="9.522166790634369"><ele>1453.0</ele><time>2026-04-18T09:32:32.999Z</time></trkpt><trkpt lat="44.56307179242527" lon="9.522088243108692"><ele>1457.0</ele><time>2026-04-18T09:32:33.999Z</time></trkpt><trkpt lat="44.563238073362974" lon="9.522001137075064"><ele>1461.0</ele><time>2026-04-18T09:32:34.999Z</time></trkpt><trkpt lat="44.563383052763385" lon="9.521913277717225"><ele>1465.0</ele><time>2026-04-18T09:32:35.999Z</time></trkpt><trkpt lat="44.56351201442025" lon="9.52182636477051"><ele>1465.0</ele><time>2026-04-18T09:32:36.999Z</time></trkpt><trkpt lat="44.56363491833953" lon="9.521754281982993"><ele>1465.0</ele><time>2026-04-18T09:32:37.999Z</time></trkpt><trkpt lat="44.56375856046972" lon="9.521704826096757"><ele>1465.0</ele><time>2026-04-18T09:32:38.999Z</time></trkpt><trkpt lat="44.56390351697779" lon="9.52166628161265"><ele>1465.0</ele><time>2026-04-18T09:32:39.999Z</time></trkpt><trkpt lat="44.56406066588419" lon="9.521639988420658"><ele>1463.3333333333333</ele><time>2026-04-18T09:32:40.999Z</time></trkpt><trkpt lat="44.56423506314843" lon="9.52164063114179"><ele>1461.6666666666667</ele><time>2026-04-18T09:32:41.999Z</time></trkpt><trkpt lat="44.564396393416" lon="9.521624692963924"><ele>1460.0</ele><time>2026-04-18T09:32:42.999Z</time></trkpt><trkpt lat="44.564541388343386" lon="9.521591205722219"><ele>1460.0</ele><time>2026-04-18T09:32:43.999Z</time></trkpt><trkpt lat="44.564681721288814" lon="9.521592019343032"><ele>1460.0</ele><time>2026-04-18T09:32:44.999Z</time></trkpt><trkpt lat="44.564812289049904" lon="9.521612434789235"><ele>1460.0</ele><time>2026-04-18T09:32:45.999Z</time></trkpt><trkpt lat="44.56494050587899" lon="9.521708140821614"><ele>1460.0</ele><time>2026-04-18T09:32:46.999Z</time></trkpt><trkpt lat="44.565102390469455" lon="9.521847990127618"><ele>1460.0</ele><time>2026-04-18T09:32:47.999Z</time></trkpt><trkpt lat="44.56529287987376" lon="9.521991097675107"><ele>1460.0</ele><time>2026-04-18T09:32:48.999Z</time></trkpt><trkpt lat="44.56546398805051" lon="9.522164344356133"><ele>1460.0</ele><time>2026-04-18T09:32:49.999Z</time></trkpt><trkpt lat="44.56562587646692" lon="9.522305436180277"><ele>1455.3333333333335</ele><time>2026-04-18T09:32:50.999Z</time></trkpt><trkpt lat="44.56576854527001" lon="9.522424355795872"><ele>1450.6666666666667</ele><time>2026-04-18T09:32:51.999Z</time></trkpt><trkpt lat="44.56590400840983" lon="9.522527037167379"><ele>1446.0</ele><time>2026-04-18T09:32:52.999Z</time></trkpt><trkpt lat="44.56604221006554" lon="9.522608966753047"><ele>1447.3333333333333</ele><time>2026-04-18T09:32:53.999Z</time></trkpt><trkpt lat="44.56620589861048" lon="9.522647247135202"><ele>1448.6666666666665</ele><time>2026-04-18T09:32:54.999Z</time></trkpt><trkpt lat="44.56638563046443" lon="9.52264053139533"><ele>1450.0</ele><time>2026-04-18T09:32:55.999Z</time></trkpt><trkpt lat="44.56657233715904" lon="9.522620540941059"><ele>1450.0</ele><time>2026-04-18T09:32:56.999Z</time></trkpt><trkpt lat="44.56673288728973" lon="9.522611103537834"><ele>1450.0</ele><time>2026-04-18T09:32:57.999Z</time></trkpt><trkpt lat="44.56687935329171" lon="9.522615677255667"><ele>1450.0</ele><time>2026-04-18T09:32:58.999Z</time></trkpt><trkpt lat="44.56700822270051" lon="9.52261229355927"><ele>1450.0</ele><time>2026-04-18T09:32:59.999Z</time></trkpt><trkpt lat="44.567118472736276" lon="9.522563530564819"><ele>1448.0</ele><time>2026-04-18T09:33:00.999Z</time></trkpt><trkpt lat="44.56720961271864" lon="9.52245273330499"><ele>1446.0</ele><time>2026-04-18T09:33:01.999Z</time></trkpt><trkpt lat="44.567273183228465" lon="9.522269314255807"><ele>1444.0</ele><time>2026-04-18T09:33:02.999Z</time></trkpt><trkpt lat="44.567306059435815" lon="9.522052289571864"><ele>1442.0</ele><time>2026-04-18T09:33:03.999Z</time></trkpt><trkpt lat="44.567308983576005" lon="9.52180612097732"><ele>1442.0</ele><time>2026-04-18T09:33:04.999Z</time></trkpt><trkpt lat="44.56732278724466" lon="9.521624425846312"><ele>1442.0</ele><time>2026-04-18T09:33:05.999Z</time></trkpt><trkpt lat="44.56734895219652" lon="9.521449677135786"><ele>1442.0</ele><time>2026-04-18T09:33:06.999Z</time></trkpt><trkpt lat="44.567387804081655" lon="9.521289141158443"><ele>1442.0</ele><time>2026-04-18T09:33:07.999Z</time></trkpt><trkpt lat="44.567437433198464" lon="9.521144547036386"><ele>1443.5</ele><time>2026-04-18T09:33:08.999Z</time></trkpt><trkpt lat="44.567520323259075" lon="9.521003422614926"><ele>1445.0</ele><time>2026-04-18T09:33:09.999Z</time></trkpt><trkpt lat="44.56761780286679" lon="9.52084662822731"><ele>1446.5</ele><time>2026-04-18T09:33:10.999Z</time></trkpt><trkpt lat="44.567731502520566" lon="9.520681722084575"><ele>1448.0</ele><time>2026-04-18T09:33:11.999Z</time></trkpt><trkpt lat="44.56783642841301" lon="9.52050451555091"><ele>1444.25</ele><time>2026-04-18T09:33:12.999Z</time></trkpt><trkpt lat="44.567943881289345" lon="9.520348337592619"><ele>1440.5</ele><time>2026-04-18T09:33:13.999Z</time></trkpt><trkpt lat="44.568038430928155" lon="9.520203997777775"><ele>1436.75</ele><time>2026-04-18T09:33:14.999Z</time></trkpt><trkpt lat="44.568142704883996" lon="9.520047396777626"><ele>1433.0</ele><time>2026-04-18T09:33:15.999Z</time></trkpt><trkpt lat="44.56824872162638" lon="9.519908695743009"><ele>1433.0</ele><time>2026-04-18T09:33:16.999Z</time></trkpt><trkpt lat="44.56837145026087" lon="9.519820060289046"><ele>1433.0</ele><time>2026-04-18T09:33:17.999Z</time></trkpt><trkpt lat="44.56850437548316" lon="9.5197801000596"><ele>1433.0</ele><time>2026-04-18T09:33:18.999Z</time></trkpt><trkpt lat="44.56864852287629" lon="9.519809163640966"><ele>1433.0</ele><time>2026-04-18T09:33:19.999Z</time></trkpt><trkpt lat="44.568828799793664" lon="9.519824583403263"><ele>1430.3333333333335</ele><time>2026-04-18T09:33:21Z</time></trkpt><trkpt lat="44.56901008266754" lon="9.519792176906844"><ele>1427.6666666666667</ele><time>2026-04-18T09:33:22Z</time></trkpt><trkpt lat="44.56918558126042" lon="9.51970342593454"><ele>1425.0</ele><time>2026-04-18T09:33:23Z</time></trkpt><trkpt lat="44.56934663416791" lon="9.519629118992434"><ele>1425.0</ele><time>2026-04-18T09:33:24Z</time></trkpt><trkpt lat="44.56949329288415" lon="9.519613549598144"><ele>1425.0</ele><time>2026-04-18T09:33:25Z</time></trkpt><trkpt lat="44.569630412373584" lon="9.519621105512625"><ele>1425.0</ele><time>2026-04-18T09:33:26Z</time></trkpt><trkpt lat="44.569764589028146" lon="9.519686862005729"><ele>1425.0</ele><time>2026-04-18T09:33:27Z</time></trkpt><trkpt lat="44.56991442837791" lon="9.51980406219847"><ele>1425.25</ele><time>2026-04-18T09:33:28Z</time></trkpt><trkpt lat="44.570042276332025" lon="9.519879175374939"><ele>1425.5</ele><time>2026-04-18T09:33:29Z</time></trkpt><trkpt lat="44.5701677397249" lon="9.519900830733457"><ele>1425.75</ele><time>2026-04-18T09:33:30Z</time></trkpt><trkpt lat="44.570298663272084" lon="9.519893241798624"><ele>1426.0</ele><time>2026-04-18T09:33:31Z</time></trkpt><trkpt lat="44.57040499940844" lon="9.519839569403171"><ele>1424.25</ele><time>2026-04-18T09:33:32Z</time></trkpt><trkpt lat="44.57050941931552" lon="9.51972376768062"><ele>1422.5</ele><time>2026-04-18T09:33:33Z</time></trkpt><trkpt lat="44.570623472815775" lon="9.519607291988304"><ele>1420.75</ele><time>2026-04-18T09:33:34Z</time></trkpt><trkpt lat="44.57074985076818" lon="9.519590739764944"><ele>1419.0</ele><time>2026-04-18T09:33:35Z</time></trkpt><trkpt lat="44.57087556400564" lon="9.51964342985666"><ele>1419.0</ele><time>2026-04-18T09:33:36Z</time></trkpt><trkpt lat="44.57104273155258" lon="9.51973076095236"><ele>1419.0</ele><time>2026-04-18T09:33:37Z</time></trkpt><trkpt lat="44.571227894272276" lon="9.519830881514523"><ele>1419.0</ele><time>2026-04-18T09:33:38Z</time></trkpt><trkpt lat="44.57141817662424" lon="9.519918649054652"><ele>1419.25</ele><time>2026-04-18T09:33:39Z</time></trkpt><trkpt lat="44.57156363065194" lon="9.519992197476942"><ele>1419.5</ele><time>2026-04-18T09:33:40Z</time></trkpt><trkpt lat="44.57169285310116" lon="9.52004997180674"><ele>1419.75</ele><time>2026-04-18T09:33:41Z</time></trkpt><trkpt lat="44.57180368621944" lon="9.520071589289524"><ele>1420.0</ele><time>2026-04-18T09:33:42Z</time></trkpt><trkpt lat="44.57194907139702" lon="9.52001755787921"><ele>1417.0</ele><time>2026-04-18T09:33:43Z</time></trkpt><trkpt lat="44.57210584278545" lon="9.519925645724282"><ele>1414.0</ele><time>2026-04-18T09:33:44Z</time></trkpt><trkpt lat="44.57225597256807" lon="9.519826005437785"><ele>1411.0</ele><time>2026-04-18T09:33:45Z</time></trkpt><trkpt lat="44.57240047907246" lon="9.519801696970235"><ele>1411.0</ele><time>2026-04-18T09:33:46Z</time></trkpt><trkpt lat="44.57253271011059" lon="9.519811341299723"><ele>1411.0</ele><time>2026-04-18T09:33:47Z</time></trkpt><trkpt lat="44.5726605175883" lon="9.519869775174364"><ele>1411.0</ele><time>2026-04-18T09:33:48Z</time></trkpt><trkpt lat="44.57279812358888" lon="9.519985315516497"><ele>1411.0</ele><time>2026-04-18T09:33:49Z</time></trkpt><trkpt lat="44.5729255335147" lon="9.520129078675653"><ele>1410.75</ele><time>2026-04-18T09:33:50Z</time></trkpt><trkpt lat="44.573041519262034" lon="9.520267999118563"><ele>1410.5</ele><time>2026-04-18T09:33:51Z</time></trkpt><trkpt lat="44.57314256290215" lon="9.520393968196796"><ele>1410.25</ele><time>2026-04-18T09:33:52Z</time></trkpt><trkpt lat="44.573243914187984" lon="9.520496580058184"><ele>1410.0</ele><time>2026-04-18T09:33:53Z</time></trkpt><trkpt lat="44.57333093933863" lon="9.52060686223045"><ele>1409.2</ele><time>2026-04-18T09:33:54Z</time></trkpt><trkpt lat="44.57341271361646" lon="9.520680578936542"><ele>1408.4</ele><time>2026-04-18T09:33:55Z</time></trkpt><trkpt lat="44.57350393088207" lon="9.520719824444837"><ele>1407.6</ele><time>2026-04-18T09:33:56Z</time></trkpt><trkpt lat="44.5735972492186" lon="9.520698342721888"><ele>1406.8</ele><time>2026-04-18T09:33:57Z</time></trkpt><trkpt lat="44.57368075647039" lon="9.520619398973086"><ele>1406.0</ele><time>2026-04-18T09:33:58Z</time></trkpt><trkpt lat="44.573727614738814" lon="9.52050375288621"><ele>1405.75</ele><time>2026-04-18T09:33:59Z</time></trkpt><trkpt lat="44.57374068852093" lon="9.520363388299723"><ele>1405.5</ele><time>2026-04-18T09:34:00Z</time></trkpt><trkpt lat="44.57371882038881" lon="9.520201023350664"><ele>1405.25</ele><time>2026-04-18T09:34:01Z</time></trkpt><trkpt lat="44.573652638765225" lon="9.52003660560095"><ele>1405.0</ele><time>2026-04-18T09:34:02Z</time></trkpt><trkpt lat="44.57354903500005" lon="9.519878150064832"><ele>1404.3333333333333</ele><time>2026-04-18T09:34:03Z</time></trkpt><trkpt lat="44.573429109619035" lon="9.519702277687593"><ele>1403.6666666666667</ele><time>2026-04-18T09:34:04Z</time></trkpt><trkpt lat="44.57331343814412" lon="9.519515610375347"><ele>1403.0</ele><time>2026-04-18T09:34:05Z</time></trkpt><trkpt lat="44.57319607707103" lon="9.519330195913003"><ele>1403.0</ele><time>2026-04-18T09:34:06Z</time></trkpt><trkpt lat="44.57308672174342" lon="9.519159768773271"><ele>1403.0</ele><time>2026-04-18T09:34:07Z</time></trkpt><trkpt lat="44.57298582104579" lon="9.518996441460358"><ele>1403.0</ele><time>2026-04-18T09:34:08Z</time></trkpt><trkpt lat="44.57289730586139" lon="9.518830501419833"><ele>1404.6666666666667</ele><time>2026-04-18T09:34:09Z</time></trkpt><trkpt lat="44.57279313927006" lon="9.518659734690166"><ele>1406.3333333333333</ele><time>2026-04-18T09:34:10Z</time></trkpt><trkpt lat="44.57269149571282" lon="9.518456874789003"><ele>1408.0</ele><time>2026-04-18T09:34:11Z</time></trkpt><trkpt lat="44.57258502245879" lon="9.518230863734825"><ele>1408.0</ele><time>2026-04-18T09:34:12Z</time></trkpt><trkpt lat="44.57249813327639" lon="9.518009534572709"><ele>1408.0</ele><time>2026-04-18T09:34:13Z</time></trkpt><trkpt lat="44.572427477718" lon="9.517809182345607"><ele>1408.0</ele><time>2026-04-18T09:34:14Z</time></trkpt><trkpt lat="44.57235462645006" lon="9.517634779554504"><ele>1405.25</ele><time>2026-04-18T09:34:15Z</time></trkpt><trkpt lat="44.572295151891325" lon="9.517468140779743"><ele>1402.5</ele><time>2026-04-18T09:34:16Z</time></trkpt><trkpt lat="44.57223828374874" lon="9.517309633033365"><ele>1399.75</ele><time>2026-04-18T09:34:17Z</time></trkpt><trkpt lat="44.572191794123334" lon="9.517154193812736"><ele>1397.0</ele><time>2026-04-18T09:34:18Z</time></trkpt><trkpt lat="44.57216625598295" lon="9.516984270394138"><ele>1395.0</ele><time>2026-04-18T09:34:19Z</time></trkpt><trkpt lat="44.572176056317716" lon="9.516797726645095"><ele>1393.0</ele><time>2026-04-18T09:34:20Z</time></trkpt><trkpt lat="44.57223393105149" lon="9.516596511597905"><ele>1391.0</ele><time>2026-04-18T09:34:21Z</time></trkpt><trkpt lat="44.57234103003838" lon="9.516453020789903"><ele>1389.0</ele><time>2026-04-18T09:34:22Z</time></trkpt><trkpt lat="44.57245287926356" lon="9.516272450158926"><ele>1390.0</ele><time>2026-04-18T09:34:23Z</time></trkpt><trkpt lat="44.57259409632664" lon="9.51610132748631"><ele>1391.0</ele><time>2026-04-18T09:34:24Z</time></trkpt><trkpt lat="44.57272303890694" lon="9.515923376281973"><ele>1392.0</ele><time>2026-04-18T09:34:25Z</time></trkpt><trkpt lat="44.57284770937165" lon="9.515732985668828"><ele>1388.25</ele><time>2026-04-18T09:34:26Z</time></trkpt><trkpt lat="44.57296100678101" lon="9.515566789450133"><ele>1384.5</ele><time>2026-04-18T09:34:27Z</time></trkpt><trkpt lat="44.573061151648425" lon="9.515425275950177"><ele>1380.75</ele><time>2026-04-18T09:34:28Z</time></trkpt><trkpt lat="44.5731148174008" lon="9.515267541259467"><ele>1377.0</ele><time>2026-04-18T09:34:29Z</time></trkpt><trkpt lat="44.573138152582814" lon="9.515111472931093"><ele>1377.0</ele><time>2026-04-18T09:34:29.999Z</time></trkpt><trkpt lat="44.573142070091734" lon="9.51491220101449"><ele>1377.0</ele><time>2026-04-18T09:34:30.999Z</time></trkpt><trkpt lat="44.57313224835933" lon="9.514686744193709"><ele>1377.0</ele><time>2026-04-18T09:34:31.999Z</time></trkpt><trkpt lat="44.57312367128073" lon="9.514461281834253"><ele>1375.6666666666667</ele><time>2026-04-18T09:34:32.999Z</time></trkpt><trkpt lat="44.57312029447684" lon="9.514230910312628"><ele>1374.3333333333335</ele><time>2026-04-18T09:34:33.999Z</time></trkpt><trkpt lat="44.57311080451332" lon="9.513994297076277"><ele>1373.0</ele><time>2026-04-18T09:34:34.999Z</time></trkpt><trkpt lat="44.5730809202769" lon="9.513741451352802"><ele>1370.6666666666667</ele><time>2026-04-18T09:34:35.999Z</time></trkpt><trkpt lat="44.57303549232815" lon="9.513485557445183"><ele>1368.3333333333333</ele><time>2026-04-18T09:34:36.999Z</time></trkpt><trkpt lat="44.57298937501717" lon="9.513254287983337"><ele>1366.0</ele><time>2026-04-18T09:34:37.999Z</time></trkpt><trkpt lat="44.57295329307891" lon="9.513050410520504"><ele>1366.25</ele><time>2026-04-18T09:34:38.999Z</time></trkpt><trkpt lat="44.57293992684031" lon="9.51286360706217"><ele>1366.5</ele><time>2026-04-18T09:34:39.999Z</time></trkpt><trkpt lat="44.57297084344823" lon="9.512687457889616"><ele>1366.75</ele><time>2026-04-18T09:34:40.999Z</time></trkpt><trkpt lat="44.57305211735766" lon="9.512532207603554"><ele>1367.0</ele><time>2026-04-18T09:34:41.999Z</time></trkpt><trkpt lat="44.57318906606368" lon="9.512449058458941"><ele>1367.0</ele><time>2026-04-18T09:34:42.999Z</time></trkpt><trkpt lat="44.573350675672685" lon="9.512351984543443"><ele>1367.0</ele><time>2026-04-18T09:34:43.999Z</time></trkpt><trkpt lat="44.5735394885805" lon="9.512283726348453"><ele>1367.0</ele><time>2026-04-18T09:34:44.999Z</time></trkpt><trkpt lat="44.57370470209218" lon="9.512210810998486"><ele>1363.75</ele><time>2026-04-18T09:34:45.999Z</time></trkpt><trkpt lat="44.57383290393057" lon="9.512142536427218"><ele>1360.5</ele><time>2026-04-18T09:34:46.999Z</time></trkpt><trkpt lat="44.57393705654276" lon="9.512027494209416"><ele>1357.25</ele><time>2026-04-18T09:34:47.999Z</time></trkpt><trkpt lat="44.57403038924081" lon="9.511867569155338"><ele>1354.0</ele><time>2026-04-18T09:34:48.999Z</time></trkpt><trkpt lat="44.574095585528305" lon="9.51170276566517"><ele>1354.0</ele><time>2026-04-18T09:34:49.999Z</time></trkpt><trkpt lat="44.574129078222505" lon="9.511530543167266"><ele>1354.0</ele><time>2026-04-18T09:34:50.999Z</time></trkpt><trkpt lat="44.574134670689745" lon="9.511331082084999"><ele>1354.0</ele><time>2026-04-18T09:34:51.999Z</time></trkpt><trkpt lat="44.574105750867936" lon="9.51109119417298"><ele>1354.0</ele><time>2026-04-18T09:34:52.999Z</time></trkpt><trkpt lat="44.57405007751705" lon="9.510826244654224"><ele>1352.0</ele><time>2026-04-18T09:34:53.999Z</time></trkpt><trkpt lat="44.57400517068904" lon="9.51058217659594"><ele>1350.0</ele><time>2026-04-18T09:34:54.999Z</time></trkpt><trkpt lat="44.573974039701795" lon="9.51037407528883"><ele>1348.0</ele><time>2026-04-18T09:34:55.999Z</time></trkpt><trkpt lat="44.57393237573691" lon="9.510197244531613"><ele>1350.25</ele><time>2026-04-18T09:34:56.999Z</time></trkpt><trkpt lat="44.57385383841124" lon="9.510028244006667"><ele>1352.5</ele><time>2026-04-18T09:34:57.999Z</time></trkpt><trkpt lat="44.57374974628131" lon="9.509856045469013"><ele>1354.75</ele><time>2026-04-18T09:34:58.999Z</time></trkpt><trkpt lat="44.5736622321709" lon="9.509701755841087"><ele>1357.0</ele><time>2026-04-18T09:34:59.999Z</time></trkpt><trkpt lat="44.57359568532335" lon="9.509564750170105"><ele>1357.0</ele><time>2026-04-18T09:35:00.999Z</time></trkpt><trkpt lat="44.57354120658669" lon="9.509439336207144"><ele>1357.0</ele><time>2026-04-18T09:35:01.999Z</time></trkpt><trkpt lat="44.57350457511594" lon="9.509293857492723"><ele>1357.0</ele><time>2026-04-18T09:35:02.999Z</time></trkpt><trkpt lat="44.57352412754293" lon="9.509115561838733"><ele>1357.0</ele><time>2026-04-18T09:35:03.999Z</time></trkpt><trkpt lat="44.573552991024265" lon="9.508921794892272"><ele>1357.0</ele><time>2026-04-18T09:35:04.999Z</time></trkpt><trkpt lat="44.573646360066135" lon="9.508793666559663"><ele>1357.0</ele><time>2026-04-18T09:35:05.999Z</time></trkpt><trkpt lat="44.57375184043808" lon="9.508695725782196"><ele>1357.0</ele><time>2026-04-18T09:35:06.999Z</time></trkpt><trkpt lat="44.573888138375665" lon="9.508681069714573"><ele>1357.0</ele><time>2026-04-18T09:35:07.999Z</time></trkpt><trkpt lat="44.57404852640301" lon="9.508691182916955"><ele>1360.6666666666665</ele><time>2026-04-18T09:35:08.999Z</time></trkpt><trkpt lat="44.57424138456595" lon="9.508716093279608"><ele>1364.3333333333333</ele><time>2026-04-18T09:35:09.999Z</time></trkpt><trkpt lat="44.57441151725747" lon="9.508720996471167"><ele>1368.0</ele><time>2026-04-18T09:35:10.999Z</time></trkpt><trkpt lat="44.574548888460214" lon="9.508748054102004"><ele>1361.5</ele><time>2026-04-18T09:35:11.999Z</time></trkpt><trkpt lat="44.57466255353516" lon="9.508755041302493"><ele>1355.0</ele><time>2026-04-18T09:35:12.999Z</time></trkpt><trkpt lat="44.57477569482107" lon="9.508716187445703"><ele>1348.5</ele><time>2026-04-18T09:35:13.999Z</time></trkpt><trkpt lat="44.574886473843065" lon="9.508630293876465"><ele>1342.0</ele><time>2026-04-18T09:35:14.999Z</time></trkpt><trkpt lat="44.57497826781912" lon="9.508477439368246"><ele>1342.0</ele><time>2026-04-18T09:35:15.999Z</time></trkpt><trkpt lat="44.57505550046281" lon="9.508260148127773"><ele>1342.0</ele><time>2026-04-18T09:35:16.999Z</time></trkpt><trkpt lat="44.575139668739425" lon="9.508054135383448"><ele>1342.0</ele><time>2026-04-18T09:35:17.999Z</time></trkpt><trkpt lat="44.57523388558996" lon="9.5078724369968"><ele>1336.0</ele><time>2026-04-18T09:35:18.999Z</time></trkpt><trkpt lat="44.57535256705407" lon="9.507696951473827"><ele>1330.0</ele><time>2026-04-18T09:35:19.999Z</time></trkpt><trkpt lat="44.57550589192243" lon="9.507560694163733"><ele>1324.0</ele><time>2026-04-18T09:35:20.999Z</time></trkpt><trkpt lat="44.575644476066614" lon="9.507443069103209"><ele>1324.0</ele><time>2026-04-18T09:35:21.999Z</time></trkpt><trkpt lat="44.57575483874405" lon="9.507335791100594"><ele>1324.0</ele><time>2026-04-18T09:35:22.999Z</time></trkpt><trkpt lat="44.57585719319225" lon="9.50724230669387"><ele>1324.0</ele><time>2026-04-18T09:35:23.999Z</time></trkpt><trkpt lat="44.57592670120987" lon="9.507120625064232"><ele>1324.0</ele><time>2026-04-18T09:35:24.999Z</time></trkpt><trkpt lat="44.57595598156351" lon="9.506964799815421"><ele>1326.75</ele><time>2026-04-18T09:35:25.999Z</time></trkpt><trkpt lat="44.57593414103269" lon="9.506800047372757"><ele>1329.5</ele><time>2026-04-18T09:35:27Z</time></trkpt><trkpt lat="44.57585929262666" lon="9.506629786297736"><ele>1332.25</ele><time>2026-04-18T09:35:28Z</time></trkpt><trkpt lat="44.57578847806186" lon="9.50649549331592"><ele>1335.0</ele><time>2026-04-18T09:35:29Z</time></trkpt><trkpt lat="44.57577009523557" lon="9.506350753427936"><ele>1335.75</ele><time>2026-04-18T09:35:30Z</time></trkpt><trkpt lat="44.57577327974384" lon="9.506177385242559"><ele>1336.5</ele><time>2026-04-18T09:35:31Z</time></trkpt><trkpt lat="44.57586716262987" lon="9.506036338135244"><ele>1337.25</ele><time>2026-04-18T09:35:32Z</time></trkpt><trkpt lat="44.575977785208984" lon="9.505896178011248"><ele>1338.0</ele><time>2026-04-18T09:35:33Z</time></trkpt><trkpt lat="44.57610886399174" lon="9.505747199140812"><ele>1329.75</ele><time>2026-04-18T09:35:34Z</time></trkpt><trkpt lat="44.57620810130001" lon="9.50562271901934"><ele>1321.5</ele><time>2026-04-18T09:35:35Z</time></trkpt><trkpt lat="44.57627450986801" lon="9.505479670935477"><ele>1313.25</ele><time>2026-04-18T09:35:36Z</time></trkpt><trkpt lat="44.57629014189325" lon="9.505324117710291"><ele>1305.0</ele><time>2026-04-18T09:35:37Z</time></trkpt><trkpt lat="44.57625000270014" lon="9.505162027062537"><ele>1314.0</ele><time>2026-04-18T09:35:38Z</time></trkpt><trkpt lat="44.576179976272215" lon="9.505008952692398"><ele>1323.0</ele><time>2026-04-18T09:35:39Z</time></trkpt><trkpt lat="44.57609589560231" lon="9.504883354934604"><ele>1332.0</ele><time>2026-04-18T09:35:40Z</time></trkpt><trkpt lat="44.5760501279021" lon="9.504762000341785"><ele>1341.0</ele><time>2026-04-18T09:35:41Z</time></trkpt><trkpt lat="44.57606498249061" lon="9.504593245816658"><ele>1342.5</ele><time>2026-04-18T09:35:42Z</time></trkpt><trkpt lat="44.57609499034989" lon="9.504418520302792"><ele>1344.0</ele><time>2026-04-18T09:35:43Z</time></trkpt><trkpt lat="44.57621549960299" lon="9.504305296728363"><ele>1345.5</ele><time>2026-04-18T09:35:44Z</time></trkpt><trkpt lat="44.576355874489884" lon="9.504246404578376"><ele>1347.0</ele><time>2026-04-18T09:35:45Z</time></trkpt><trkpt lat="44.57651048326991" lon="9.504183817714862"><ele>1339.0</ele><time>2026-04-18T09:35:46Z</time></trkpt><trkpt lat="44.5766536562164" lon="9.504136291714248"><ele>1331.0</ele><time>2026-04-18T09:35:47Z</time></trkpt><trkpt lat="44.5767758622902" lon="9.504098470925966"><ele>1323.0</ele><time>2026-04-18T09:35:48Z</time></trkpt><trkpt lat="44.576885474133476" lon="9.504025509003347"><ele>1315.0</ele><time>2026-04-18T09:35:49Z</time></trkpt><trkpt lat="44.5769695486147" lon="9.503921751421835"><ele>1316.0</ele><time>2026-04-18T09:35:50Z</time></trkpt><trkpt lat="44.57702341474012" lon="9.503786362970196"><ele>1317.0</ele><time>2026-04-18T09:35:51Z</time></trkpt><trkpt lat="44.57704715080211" lon="9.503638955043172"><ele>1318.0</ele><time>2026-04-18T09:35:52Z</time></trkpt><trkpt lat="44.577023789991685" lon="9.503469758599635"><ele>1319.0</ele><time>2026-04-18T09:35:53Z</time></trkpt><trkpt lat="44.576954046252936" lon="9.503305614229113"><ele>1319.0</ele><time>2026-04-18T09:35:54Z</time></trkpt><trkpt lat="44.57686761995506" lon="9.50314200618849"><ele>1319.0</ele><time>2026-04-18T09:35:55Z</time></trkpt><trkpt lat="44.57679075998788" lon="9.50301308036895"><ele>1319.0</ele><time>2026-04-18T09:35:56Z</time></trkpt><trkpt lat="44.576732110271756" lon="9.50288587116563"><ele>1319.0</ele><time>2026-04-18T09:35:57Z</time></trkpt><trkpt lat="44.57672744830099" lon="9.50273468689524"><ele>1320.0</ele><time>2026-04-18T09:35:58Z</time></trkpt><trkpt lat="44.57678136924902" lon="9.502572541199278"><ele>1321.0</ele><time>2026-04-18T09:35:59Z</time></trkpt><trkpt lat="44.57686598478332" lon="9.502461934387451"><ele>1322.0</ele><time>2026-04-18T09:36:00Z</time></trkpt><trkpt lat="44.57699216020012" lon="9.502371153063955"><ele>1323.0</ele><time>2026-04-18T09:36:01Z</time></trkpt><trkpt lat="44.57715043946774" lon="9.502305980596057"><ele>1320.6666666666667</ele><time>2026-04-18T09:36:02Z</time></trkpt><trkpt lat="44.57731617466131" lon="9.502245709448813"><ele>1318.3333333333335</ele><time>2026-04-18T09:36:03Z</time></trkpt><trkpt lat="44.577465726369326" lon="9.502176753521628"><ele>1316.0</ele><time>2026-04-18T09:36:04Z</time></trkpt><trkpt lat="44.57759687249478" lon="9.502081051957155"><ele>1316.0</ele><time>2026-04-18T09:36:05Z</time></trkpt><trkpt lat="44.577737188350625" lon="9.50193553074384"><ele>1316.0</ele><time>2026-04-18T09:36:06Z</time></trkpt><trkpt lat="44.57786327300303" lon="9.501785772351651"><ele>1316.0</ele><time>2026-04-18T09:36:07Z</time></trkpt><trkpt lat="44.577981884381536" lon="9.50164950077035"><ele>1311.6</ele><time>2026-04-18T09:36:08Z</time></trkpt><trkpt lat="44.57808525004098" lon="9.501535583612421"><ele>1307.1999999999998</ele><time>2026-04-18T09:36:09Z</time></trkpt><trkpt lat="44.578180782560274" lon="9.501447756171212"><ele>1302.8000000000002</ele><time>2026-04-18T09:36:10Z</time></trkpt><trkpt lat="44.578255840963756" lon="9.501357623305369"><ele>1298.4</ele><time>2026-04-18T09:36:11Z</time></trkpt><trkpt lat="44.57829551287306" lon="9.501251062483208"><ele>1294.0</ele><time>2026-04-18T09:36:12Z</time></trkpt><trkpt lat="44.578287046329095" lon="9.501119856891984"><ele>1294.0</ele><time>2026-04-18T09:36:13Z</time></trkpt><trkpt lat="44.578242865951566" lon="9.500981945851665"><ele>1294.0</ele><time>2026-04-18T09:36:14Z</time></trkpt><trkpt lat="44.57817405975127" lon="9.500867793955623"><ele>1294.0</ele><time>2026-04-18T09:36:15Z</time></trkpt><trkpt lat="44.5780676488243" lon="9.500743132813593"><ele>1294.0</ele><time>2026-04-18T09:36:16Z</time></trkpt><trkpt lat="44.57794407497816" lon="9.500616349117577"><ele>1294.0</ele><time>2026-04-18T09:36:17Z</time></trkpt><trkpt lat="44.57785472498118" lon="9.500489818563057"><ele>1294.0</ele><time>2026-04-18T09:36:18Z</time></trkpt><trkpt lat="44.577730467502334" lon="9.500408804912288"><ele>1294.0</ele><time>2026-04-18T09:36:19Z</time></trkpt><trkpt lat="44.57790006961835" lon="9.500053893246552"><ele>1296.0</ele><time>2026-04-18T09:36:20Z</time></trkpt><trkpt lat="44.57784156736268" lon="9.499929158475755"><ele>1298.0</ele><time>2026-04-18T09:36:21Z</time></trkpt><trkpt lat="44.57782438507646" lon="9.4997466267343"><ele>1300.0</ele><time>2026-04-18T09:36:22Z</time></trkpt><trkpt lat="44.57782529373684" lon="9.499521273382449"><ele>1302.0</ele><time>2026-04-18T09:36:23Z</time></trkpt><trkpt lat="44.577826519678105" lon="9.499330564385621"><ele>1302.0</ele><time>2026-04-18T09:36:24Z</time></trkpt><trkpt lat="44.57781761850439" lon="9.499160379666952"><ele>1302.0</ele><time>2026-04-18T09:36:25Z</time></trkpt><trkpt lat="44.57778733371214" lon="9.499003302773962"><ele>1302.0</ele><time>2026-04-18T09:36:26Z</time></trkpt><trkpt lat="44.577728989683074" lon="9.498872288890746"><ele>1302.0</ele><time>2026-04-18T09:36:27Z</time></trkpt><trkpt lat="44.57764028919376" lon="9.498735150233745"><ele>1296.25</ele><time>2026-04-18T09:36:28Z</time></trkpt><trkpt lat="44.57754570913693" lon="9.498610872500908"><ele>1290.5</ele><time>2026-04-18T09:36:29Z</time></trkpt><trkpt lat="44.577435199723794" lon="9.49853021997791"><ele>1284.75</ele><time>2026-04-18T09:36:30Z</time></trkpt><trkpt lat="44.577312808192715" lon="9.498466559382877"><ele>1279.0</ele><time>2026-04-18T09:36:31Z</time></trkpt><trkpt lat="44.57717261628705" lon="9.498455472874491"><ele>1279.0</ele><time>2026-04-18T09:36:32Z</time></trkpt><trkpt lat="44.57702571891156" lon="9.498484153168787"><ele>1279.0</ele><time>2026-04-18T09:36:33Z</time></trkpt><trkpt lat="44.576860050933014" lon="9.498533385469406"><ele>1279.0</ele><time>2026-04-18T09:36:34Z</time></trkpt><trkpt lat="44.576681139992324" lon="9.498574752219522"><ele>1279.6666666666665</ele><time>2026-04-18T09:36:35Z</time></trkpt><trkpt lat="44.57651814308313" lon="9.498607541021132"><ele>1280.3333333333333</ele><time>2026-04-18T09:36:35.999Z</time></trkpt><trkpt lat="44.576364368534115" lon="9.498619431617017"><ele>1281.0</ele><time>2026-04-18T09:36:36.999Z</time></trkpt><trkpt lat="44.57621944028044" lon="9.498599154429032"><ele>1279.75</ele><time>2026-04-18T09:36:37.999Z</time></trkpt><trkpt lat="44.5760834723383" lon="9.498545851537303"><ele>1278.5</ele><time>2026-04-18T09:36:38.999Z</time></trkpt><trkpt lat="44.5759601388603" lon="9.498485866576381"><ele>1277.25</ele><time>2026-04-18T09:36:39.999Z</time></trkpt><trkpt lat="44.57582515039041" lon="9.498447571363883"><ele>1276.0</ele><time>2026-04-18T09:36:40.999Z</time></trkpt><trkpt lat="44.575668837143176" lon="9.498452971173565"><ele>1276.0</ele><time>2026-04-18T09:36:41.999Z</time></trkpt><trkpt lat="44.57552545975911" lon="9.498456065238436"><ele>1276.0</ele><time>2026-04-18T09:36:42.999Z</time></trkpt><trkpt lat="44.575398900456264" lon="9.498457816497764"><ele>1276.0</ele><time>2026-04-18T09:36:43.999Z</time></trkpt><trkpt lat="44.57527773706716" lon="9.49845574396314"><ele>1276.0</ele><time>2026-04-18T09:36:44.999Z</time></trkpt><trkpt lat="44.57516428311154" lon="9.498427811417859"><ele>1275.5</ele><time>2026-04-18T09:36:45.999Z</time></trkpt><trkpt lat="44.575048184292584" lon="9.498351395247814"><ele>1275.0</ele><time>2026-04-18T09:36:46.999Z</time></trkpt><trkpt lat="44.57496473697141" lon="9.49823013645805"><ele>1274.5</ele><time>2026-04-18T09:36:47.999Z</time></trkpt><trkpt lat="44.574911652986565" lon="9.49806089734778"><ele>1274.0</ele><time>2026-04-18T09:36:48.999Z</time></trkpt><trkpt lat="44.57490157929533" lon="9.497846358786317"><ele>1274.0</ele><time>2026-04-18T09:36:49.999Z</time></trkpt><trkpt lat="44.574930950213236" lon="9.497642962676426"><ele>1274.0</ele><time>2026-04-18T09:36:50.999Z</time></trkpt><trkpt lat="44.574982432601246" lon="9.497408731949319"><ele>1274.0</ele><time>2026-04-18T09:36:51.999Z</time></trkpt><trkpt lat="44.575056420771325" lon="9.497147069286118"><ele>1277.6666666666667</ele><time>2026-04-18T09:36:52.999Z</time></trkpt><trkpt lat="44.575128006065356" lon="9.496888265808671"><ele>1281.3333333333333</ele><time>2026-04-18T09:36:53.999Z</time></trkpt><trkpt lat="44.5752072045969" lon="9.496661597201857"><ele>1285.0</ele><time>2026-04-18T09:36:54.999Z</time></trkpt><trkpt lat="44.575291090131806" lon="9.49645911258772"><ele>1278.25</ele><time>2026-04-18T09:36:55.999Z</time></trkpt><trkpt lat="44.57539558305258" lon="9.496287946998144"><ele>1271.5</ele><time>2026-04-18T09:36:56.999Z</time></trkpt><trkpt lat="44.5754897341202" lon="9.496130900454444"><ele>1264.75</ele><time>2026-04-18T09:36:57.999Z</time></trkpt><trkpt lat="44.57556125065847" lon="9.495962536505596"><ele>1258.0</ele><time>2026-04-18T09:36:58.999Z</time></trkpt><trkpt lat="44.57561807637877" lon="9.495748406199763"><ele>1258.0</ele><time>2026-04-18T09:36:59.999Z</time></trkpt><trkpt lat="44.575679737589866" lon="9.495501034832687"><ele>1258.0</ele><time>2026-04-18T09:37:00.999Z</time></trkpt><trkpt lat="44.57573129503965" lon="9.495242920966595"><ele>1258.0</ele><time>2026-04-18T09:37:01.999Z</time></trkpt><trkpt lat="44.57579153592305" lon="9.494996056414903"><ele>1258.0</ele><time>2026-04-18T09:37:02.999Z</time></trkpt><trkpt lat="44.575844622050596" lon="9.49476323720165"><ele>1258.0</ele><time>2026-04-18T09:37:03.999Z</time></trkpt><trkpt lat="44.575889178043546" lon="9.494568067341522"><ele>1258.0</ele><time>2026-04-18T09:37:04.999Z</time></trkpt><trkpt lat="44.57591449680399" lon="9.494412039160379"><ele>1258.0</ele><time>2026-04-18T09:37:05.999Z</time></trkpt><trkpt lat="44.575904760408996" lon="9.494243014922597"><ele>1257.0</ele><time>2026-04-18T09:37:06.999Z</time></trkpt><trkpt lat="44.575855122256044" lon="9.494059549495361"><ele>1256.0</ele><time>2026-04-18T09:37:07.999Z</time></trkpt><trkpt lat="44.57579038529582" lon="9.49386446843942"><ele>1255.0</ele><time>2026-04-18T09:37:08.999Z</time></trkpt><trkpt lat="44.57572771929523" lon="9.493688570990585"><ele>1254.0</ele><time>2026-04-18T09:37:09.999Z</time></trkpt><trkpt lat="44.57566406544235" lon="9.493538622921815"><ele>1251.75</ele><time>2026-04-18T09:37:10.999Z</time></trkpt><trkpt lat="44.57559265934394" lon="9.493402288932119"><ele>1249.5</ele><time>2026-04-18T09:37:11.999Z</time></trkpt><trkpt lat="44.57551418013244" lon="9.493278733773518"><ele>1247.25</ele><time>2026-04-18T09:37:12.999Z</time></trkpt><trkpt lat="44.57545005864295" lon="9.493151332385738"><ele>1245.0</ele><time>2026-04-18T09:37:13.999Z</time></trkpt><trkpt lat="44.575434325528015" lon="9.492975537968205"><ele>1244.5</ele><time>2026-04-18T09:37:14.999Z</time></trkpt><trkpt lat="44.57547182667304" lon="9.492794106923192"><ele>1244.0</ele><time>2026-04-18T09:37:15.999Z</time></trkpt><trkpt lat="44.57556546052268" lon="9.492634982823208"><ele>1243.5</ele><time>2026-04-18T09:37:16.999Z</time></trkpt><trkpt lat="44.57568078595363" lon="9.492523855381771"><ele>1243.0</ele><time>2026-04-18T09:37:17.999Z</time></trkpt><trkpt lat="44.575767262187654" lon="9.492418257003301"><ele>1243.0</ele><time>2026-04-18T09:37:18.999Z</time></trkpt><trkpt lat="44.57581024617646" lon="9.492252745086972"><ele>1243.0</ele><time>2026-04-18T09:37:19.999Z</time></trkpt><trkpt lat="44.57580555451364" lon="9.492056916090775"><ele>1243.0</ele><time>2026-04-18T09:37:20.999Z</time></trkpt><trkpt lat="44.57576052775612" lon="9.49183778292596"><ele>1243.0</ele><time>2026-04-18T09:37:21.999Z</time></trkpt><trkpt lat="44.57567331729991" lon="9.4915975895841"><ele>1241.6666666666665</ele><time>2026-04-18T09:37:22.999Z</time></trkpt><trkpt lat="44.57557903905202" lon="9.49135415003514"><ele>1240.3333333333333</ele><time>2026-04-18T09:37:23.999Z</time></trkpt><trkpt lat="44.57549171133701" lon="9.491108395205556"><ele>1239.0</ele><time>2026-04-18T09:37:24.999Z</time></trkpt><trkpt lat="44.57541723432914" lon="9.490883907235565"><ele>1240.6666666666667</ele><time>2026-04-18T09:37:25.999Z</time></trkpt><trkpt lat="44.5753469347438" lon="9.49068450907916"><ele>1242.3333333333335</ele><time>2026-04-18T09:37:26.999Z</time></trkpt><trkpt lat="44.57527295845818" lon="9.490492376450423"><ele>1244.0</ele><time>2026-04-18T09:37:27.999Z</time></trkpt><trkpt lat="44.57518478389493" lon="9.490311071326207"><ele>1244.0</ele><time>2026-04-18T09:37:28.999Z</time></trkpt><trkpt lat="44.5750932530933" lon="9.490159450486937"><ele>1244.0</ele><time>2026-04-18T09:37:29.999Z</time></trkpt><trkpt lat="44.5750161530968" lon="9.490029911644799"><ele>1244.0</ele><time>2026-04-18T09:37:30.999Z</time></trkpt><trkpt lat="44.574963225312075" lon="9.48988775739829"><ele>1244.0</ele><time>2026-04-18T09:37:31.999Z</time></trkpt><trkpt lat="44.57490227312995" lon="9.489762020328856"><ele>1244.0</ele><time>2026-04-18T09:37:33Z</time></trkpt><trkpt lat="44.57489215129105" lon="9.489608999904027"><ele>1244.0</ele><time>2026-04-18T09:37:34Z</time></trkpt><trkpt lat="44.574915119274834" lon="9.489447008218256"><ele>1244.0</ele><time>2026-04-18T09:37:35Z</time></trkpt><trkpt lat="44.574953367014146" lon="9.489298251471604"><ele>1244.0</ele><time>2026-04-18T09:37:36Z</time></trkpt><trkpt lat="44.575035688023085" lon="9.48915022839445"><ele>1244.0</ele><time>2026-04-18T09:37:37Z</time></trkpt><trkpt lat="44.57510841408722" lon="9.488961094332286"><ele>1244.0</ele><time>2026-04-18T09:37:38Z</time></trkpt><trkpt lat="44.575197557583564" lon="9.488791917905655"><ele>1244.0</ele><time>2026-04-18T09:37:39Z</time></trkpt><trkpt lat="44.575289578213045" lon="9.488618215127634"><ele>1236.5</ele><time>2026-04-18T09:37:40Z</time></trkpt><trkpt lat="44.57538240312904" lon="9.488429486792368"><ele>1229.0</ele><time>2026-04-18T09:37:41Z</time></trkpt><trkpt lat="44.575462166594235" lon="9.48824842466657"><ele>1221.5</ele><time>2026-04-18T09:37:42Z</time></trkpt><trkpt lat="44.57553331179255" lon="9.488091468223741"><ele>1214.0</ele><time>2026-04-18T09:37:43Z</time></trkpt><trkpt lat="44.57559882840576" lon="9.487948418883454"><ele>1215.25</ele><time>2026-04-18T09:37:44Z</time></trkpt><trkpt lat="44.57563202282079" lon="9.48779793450241"><ele>1216.5</ele><time>2026-04-18T09:37:45Z</time></trkpt><trkpt lat="44.575628624792714" lon="9.487618992745634"><ele>1217.75</ele><time>2026-04-18T09:37:46Z</time></trkpt><trkpt lat="44.57558435375724" lon="9.487422939140792"><ele>1219.0</ele><time>2026-04-18T09:37:47Z</time></trkpt><trkpt lat="44.57549218427925" lon="9.487220229241323"><ele>1215.0</ele><time>2026-04-18T09:37:48Z</time></trkpt><trkpt lat="44.57538929587894" lon="9.487042876198506"><ele>1211.0</ele><time>2026-04-18T09:37:49Z</time></trkpt><trkpt lat="44.57534589825652" lon="9.486857299770174"><ele>1207.0</ele><time>2026-04-18T09:37:50Z</time></trkpt><trkpt lat="44.57530785266016" lon="9.48666309353226"><ele>1203.0</ele><time>2026-04-18T09:37:51Z</time></trkpt><trkpt lat="44.575257958797295" lon="9.486433831950551"><ele>1213.0</ele><time>2026-04-18T09:37:52Z</time></trkpt><trkpt lat="44.57522093951732" lon="9.486191438652442"><ele>1223.0</ele><time>2026-04-18T09:37:53Z</time></trkpt><trkpt lat="44.57518408578691" lon="9.485963034344111"><ele>1233.0</ele><time>2026-04-18T09:37:54Z</time></trkpt><trkpt lat="44.57515298875239" lon="9.485764168150117"><ele>1233.0</ele><time>2026-04-18T09:37:55Z</time></trkpt><trkpt lat="44.57512774113434" lon="9.485593292965136"><ele>1233.0</ele><time>2026-04-18T09:37:56Z</time></trkpt><trkpt lat="44.575105886343245" lon="9.485442397206901"><ele>1233.0</ele><time>2026-04-18T09:37:57Z</time></trkpt><trkpt lat="44.5750990840901" lon="9.485293020311278"><ele>1233.0</ele><time>2026-04-18T09:37:58Z</time></trkpt><trkpt lat="44.575107861250444" lon="9.48514695363205"><ele>1233.0</ele><time>2026-04-18T09:37:59Z</time></trkpt><trkpt lat="44.57515041556235" lon="9.484995131721782"><ele>1230.75</ele><time>2026-04-18T09:38:00Z</time></trkpt><trkpt lat="44.575234577351395" lon="9.484864746955836"><ele>1228.5</ele><time>2026-04-18T09:38:01Z</time></trkpt><trkpt lat="44.57534117973546" lon="9.484770679041473"><ele>1226.25</ele><time>2026-04-18T09:38:02Z</time></trkpt><trkpt lat="44.57546181982005" lon="9.484723782208835"><ele>1224.0</ele><time>2026-04-18T09:38:03Z</time></trkpt><trkpt lat="44.57557194887742" lon="9.484714488312855"><ele>1220.75</ele><time>2026-04-18T09:38:04Z</time></trkpt><trkpt lat="44.575674665176734" lon="9.484796398562425"><ele>1217.5</ele><time>2026-04-18T09:38:05Z</time></trkpt><trkpt lat="44.5758076412937" lon="9.484883275174555"><ele>1214.25</ele><time>2026-04-18T09:38:06Z</time></trkpt><trkpt lat="44.57595191439565" lon="9.48497694185952"><ele>1211.0</ele><time>2026-04-18T09:38:07Z</time></trkpt><trkpt lat="44.57609958629978" lon="9.485087759281967"><ele>1211.6</ele><time>2026-04-18T09:38:08Z</time></trkpt><trkpt lat="44.576228222491444" lon="9.485184520794823"><ele>1212.1999999999998</ele><time>2026-04-18T09:38:09Z</time></trkpt><trkpt lat="44.57633484782271" lon="9.485266059434693"><ele>1212.8000000000002</ele><time>2026-04-18T09:38:10Z</time></trkpt><trkpt lat="44.57641958798776" lon="9.48531712765646"><ele>1213.4</ele><time>2026-04-18T09:38:11Z</time></trkpt><trkpt lat="44.57650597781527" lon="9.485346288498757"><ele>1214.0</ele><time>2026-04-18T09:38:12Z</time></trkpt><trkpt lat="44.576594389796256" lon="9.48533985153873"><ele>1214.0</ele><time>2026-04-18T09:38:13Z</time></trkpt><trkpt lat="44.576700371182" lon="9.485283138392827"><ele>1214.0</ele><time>2026-04-18T09:38:14Z</time></trkpt><trkpt lat="44.576815984473" lon="9.485160273245926"><ele>1214.0</ele><time>2026-04-18T09:38:15Z</time></trkpt><trkpt lat="44.57692151663049" lon="9.485006144715099"><ele>1214.0</ele><time>2026-04-18T09:38:16Z</time></trkpt><trkpt lat="44.577037702257684" lon="9.48490891178264"><ele>1209.6666666666667</ele><time>2026-04-18T09:38:17Z</time></trkpt><trkpt lat="44.577168865479514" lon="9.484920986647728"><ele>1205.3333333333333</ele><time>2026-04-18T09:38:18Z</time></trkpt><trkpt lat="44.57732922258845" lon="9.484924152138705"><ele>1201.0</ele><time>2026-04-18T09:38:19Z</time></trkpt><trkpt lat="44.57751409340195" lon="9.484968522638683"><ele>1201.0</ele><time>2026-04-18T09:38:20Z</time></trkpt><trkpt lat="44.57768238818105" lon="9.484998834266102"><ele>1201.0</ele><time>2026-04-18T09:38:21Z</time></trkpt><trkpt lat="44.57782035750912" lon="9.484990469075308"><ele>1201.0</ele><time>2026-04-18T09:38:22Z</time></trkpt><trkpt lat="44.577946369791086" lon="9.484922286992227"><ele>1201.0</ele><time>2026-04-18T09:38:23Z</time></trkpt><trkpt lat="44.57808656415008" lon="9.484811370925149"><ele>1202.75</ele><time>2026-04-18T09:38:24Z</time></trkpt><trkpt lat="44.57822433395199" lon="9.484679539818144"><ele>1204.5</ele><time>2026-04-18T09:38:25Z</time></trkpt><trkpt lat="44.57835006338829" lon="9.4846328092796"><ele>1206.25</ele><time>2026-04-18T09:38:26Z</time></trkpt><trkpt lat="44.57845998917954" lon="9.48458266919302"><ele>1208.0</ele><time>2026-04-18T09:38:27Z</time></trkpt><trkpt lat="44.57855845353211" lon="9.484555104979053"><ele>1208.0</ele><time>2026-04-18T09:38:28Z</time></trkpt><trkpt lat="44.57864181563567" lon="9.484465673014054"><ele>1208.0</ele><time>2026-04-18T09:38:29Z</time></trkpt><trkpt lat="44.57871473671251" lon="9.484320525743254"><ele>1208.0</ele><time>2026-04-18T09:38:30Z</time></trkpt><trkpt lat="44.578742822611154" lon="9.484126198165857"><ele>1208.0</ele><time>2026-04-18T09:38:31Z</time></trkpt><trkpt lat="44.57874999354312" lon="9.483895721327528"><ele>1207.3333333333335</ele><time>2026-04-18T09:38:32Z</time></trkpt><trkpt lat="44.57874489308101" lon="9.483664950063142"><ele>1206.6666666666667</ele><time>2026-04-18T09:38:33Z</time></trkpt><trkpt lat="44.57871684000055" lon="9.48344609950819"><ele>1206.0</ele><time>2026-04-18T09:38:34Z</time></trkpt><trkpt lat="44.578663624160214" lon="9.48321274342519"><ele>1206.0</ele><time>2026-04-18T09:38:35Z</time></trkpt><trkpt lat="44.5786076053664" lon="9.482982249951565"><ele>1206.0</ele><time>2026-04-18T09:38:36Z</time></trkpt><trkpt lat="44.578552319925954" lon="9.482784199837454"><ele>1206.0</ele><time>2026-04-18T09:38:37Z</time></trkpt><trkpt lat="44.57851294791696" lon="9.482601614132175"><ele>1203.75</ele><time>2026-04-18T09:38:38Z</time></trkpt><trkpt lat="44.57851207970278" lon="9.482426043508118"><ele>1201.5</ele><time>2026-04-18T09:38:39Z</time></trkpt><trkpt lat="44.57853505174041" lon="9.482258785462589"><ele>1199.25</ele><time>2026-04-18T09:38:40Z</time></trkpt><trkpt lat="44.578573540714615" lon="9.482068606884743"><ele>1197.0</ele><time>2026-04-18T09:38:41Z</time></trkpt><trkpt lat="44.578632788528225" lon="9.481862783002628"><ele>1191.5</ele><time>2026-04-18T09:38:41.999Z</time></trkpt><trkpt lat="44.57871766628578" lon="9.4816729136567"><ele>1186.0</ele><time>2026-04-18T09:38:42.999Z</time></trkpt><trkpt lat="44.57878870600303" lon="9.481501062000321"><ele>1180.5</ele><time>2026-04-18T09:38:43.999Z</time></trkpt><trkpt lat="44.57887483640965" lon="9.481378241671726"><ele>1175.0</ele><time>2026-04-18T09:38:44.999Z</time></trkpt><trkpt lat="44.57898146692859" lon="9.481291520686955"><ele>1175.0</ele><time>2026-04-18T09:38:45.999Z</time></trkpt><trkpt lat="44.5791110788336" lon="9.481231865303313"><ele>1175.0</ele><time>2026-04-18T09:38:46.999Z</time></trkpt><trkpt lat="44.57925944376387" lon="9.48127863233962"><ele>1175.0</ele><time>2026-04-18T09:38:47.999Z</time></trkpt><trkpt lat="44.57939459808951" lon="9.481327408995815"><ele>1175.0</ele><time>2026-04-18T09:38:48.999Z</time></trkpt><trkpt lat="44.57954310321494" lon="9.481387760872076"><ele>1172.75</ele><time>2026-04-18T09:38:49.999Z</time></trkpt><trkpt lat="44.57968497689824" lon="9.481464226950296"><ele>1170.5</ele><time>2026-04-18T09:38:50.999Z</time></trkpt><trkpt lat="44.579805602449824" lon="9.481505747307619"><ele>1168.25</ele><time>2026-04-18T09:38:51.999Z</time></trkpt><trkpt lat="44.5799197819465" lon="9.481497848804656"><ele>1166.0</ele><time>2026-04-18T09:38:52.999Z</time></trkpt><trkpt lat="44.58002773141364" lon="9.481423906336442"><ele>1166.0</ele><time>2026-04-18T09:38:53.999Z</time></trkpt><trkpt lat="44.580125053763844" lon="9.481266248654068"><ele>1166.0</ele><time>2026-04-18T09:38:54.999Z</time></trkpt><trkpt lat="44.58020772166857" lon="9.481079394278815"><ele>1166.0</ele><time>2026-04-18T09:38:55.999Z</time></trkpt><trkpt lat="44.580263274522586" lon="9.480908778260417"><ele>1166.0</ele><time>2026-04-18T09:38:56.999Z</time></trkpt><trkpt lat="44.580350861116145" lon="9.480808185039118"><ele>1167.5</ele><time>2026-04-18T09:38:57.999Z</time></trkpt><trkpt lat="44.5804369349275" lon="9.480721709996342"><ele>1169.0</ele><time>2026-04-18T09:38:58.999Z</time></trkpt><trkpt lat="44.58056950117642" lon="9.480714629321337"><ele>1170.5</ele><time>2026-04-18T09:38:59.999Z</time></trkpt><trkpt lat="44.580700540478524" lon="9.48079364087886"><ele>1172.0</ele><time>2026-04-18T09:39:00.999Z</time></trkpt><trkpt lat="44.58080233771698" lon="9.48093305438948"><ele>1172.0</ele><time>2026-04-18T09:39:01.999Z</time></trkpt><trkpt lat="44.58087042190587" lon="9.481093238426997"><ele>1172.0</ele><time>2026-04-18T09:39:02.999Z</time></trkpt><trkpt lat="44.58090734368789" lon="9.481287567769153"><ele>1172.0</ele><time>2026-04-18T09:39:03.999Z</time></trkpt><trkpt lat="44.58095875765398" lon="9.481525916543633"><ele>1169.75</ele><time>2026-04-18T09:39:04.999Z</time></trkpt><trkpt lat="44.581019699133755" lon="9.481728931898777"><ele>1167.5</ele><time>2026-04-18T09:39:05.999Z</time></trkpt><trkpt lat="44.58105227630904" lon="9.481920422644501"><ele>1165.25</ele><time>2026-04-18T09:39:06.999Z</time></trkpt><trkpt lat="44.58109059764587" lon="9.482094904384446"><ele>1163.0</ele><time>2026-04-18T09:39:07.999Z</time></trkpt><trkpt lat="44.58112307915107" lon="9.482274566988526"><ele>1161.75</ele><time>2026-04-18T09:39:08.999Z</time></trkpt><trkpt lat="44.58112536468842" lon="9.482489243489942"><ele>1160.5</ele><time>2026-04-18T09:39:09.999Z</time></trkpt><trkpt lat="44.581111282489545" lon="9.4826875193983"><ele>1159.25</ele><time>2026-04-18T09:39:10.999Z</time></trkpt><trkpt lat="44.58106608614516" lon="9.482871480015787"><ele>1158.0</ele><time>2026-04-18T09:39:11.999Z</time></trkpt><trkpt lat="44.58101531973364" lon="9.483075068990765"><ele>1155.75</ele><time>2026-04-18T09:39:12.999Z</time></trkpt><trkpt lat="44.580980065530795" lon="9.483254786173067"><ele>1153.5</ele><time>2026-04-18T09:39:13.999Z</time></trkpt><trkpt lat="44.58096613831418" lon="9.483432430744603"><ele>1151.25</ele><time>2026-04-18T09:39:14.999Z</time></trkpt><trkpt lat="44.58098726179345" lon="9.483600619218965"><ele>1149.0</ele><time>2026-04-18T09:39:15.999Z</time></trkpt><trkpt lat="44.58103531032828" lon="9.483778285858723"><ele>1149.75</ele><time>2026-04-18T09:39:16.999Z</time></trkpt><trkpt lat="44.58111584957637" lon="9.483936507261998"><ele>1150.5</ele><time>2026-04-18T09:39:17.999Z</time></trkpt><trkpt lat="44.58122123221959" lon="9.484079567107385"><ele>1151.25</ele><time>2026-04-18T09:39:18.999Z</time></trkpt><trkpt lat="44.58132291957411" lon="9.484201742683307"><ele>1152.0</ele><time>2026-04-18T09:39:19.999Z</time></trkpt><trkpt lat="44.58141430493488" lon="9.484304742059038"><ele>1152.0</ele><time>2026-04-18T09:39:20.999Z</time></trkpt><trkpt lat="44.581521063368626" lon="9.484379861073759"><ele>1152.0</ele><time>2026-04-18T09:39:21.999Z</time></trkpt><trkpt lat="44.58166569052675" lon="9.48443758995473"><ele>1152.0</ele><time>2026-04-18T09:39:22.999Z</time></trkpt><trkpt lat="44.58183203827646" lon="9.484472405837295"><ele>1152.0</ele><time>2026-04-18T09:39:23.999Z</time></trkpt><trkpt lat="44.581979479011075" lon="9.484492885228137"><ele>1150.0</ele><time>2026-04-18T09:39:24.999Z</time></trkpt><trkpt lat="44.58210407506447" lon="9.484503159796013"><ele>1148.0</ele><time>2026-04-18T09:39:25.999Z</time></trkpt><trkpt lat="44.582215493873896" lon="9.484487478684033"><ele>1146.0</ele><time>2026-04-18T09:39:26.999Z</time></trkpt><trkpt lat="44.582323966169234" lon="9.484416214684627"><ele>1144.0</ele><time>2026-04-18T09:39:27.999Z</time></trkpt><trkpt lat="44.58242864247518" lon="9.484286172088995"><ele>1144.0</ele><time>2026-04-18T09:39:28.999Z</time></trkpt><trkpt lat="44.58251124440267" lon="9.484112093030621"><ele>1144.0</ele><time>2026-04-18T09:39:29.999Z</time></trkpt><trkpt lat="44.58255108270192" lon="9.483911936778346"><ele>1144.0</ele><time>2026-04-18T09:39:30.999Z</time></trkpt><trkpt lat="44.58261742731051" lon="9.483762644388316"><ele>1144.0</ele><time>2026-04-18T09:39:31.999Z</time></trkpt><trkpt lat="44.582711290652945" lon="9.483639590573558"><ele>1141.3333333333333</ele><time>2026-04-18T09:39:32.999Z</time></trkpt><trkpt lat="44.58284366023266" lon="9.483531167125435"><ele>1138.6666666666667</ele><time>2026-04-18T09:39:33.999Z</time></trkpt><trkpt lat="44.58298882491328" lon="9.483431715169605"><ele>1136.0</ele><time>2026-04-18T09:39:34.999Z</time></trkpt><trkpt lat="44.58310613298835" lon="9.483320410479035"><ele>1136.0</ele><time>2026-04-18T09:39:35.999Z</time></trkpt><trkpt lat="44.583199096966915" lon="9.48318177594632"><ele>1136.0</ele><time>2026-04-18T09:39:36.999Z</time></trkpt><trkpt lat="44.58328257971613" lon="9.483004891720853"><ele>1136.0</ele><time>2026-04-18T09:39:37.999Z</time></trkpt><trkpt lat="44.583361729192006" lon="9.482805283106478"><ele>1136.0</ele><time>2026-04-18T09:39:39Z</time></trkpt><trkpt lat="44.58342540420123" lon="9.482637605741605"><ele>1138.8</ele><time>2026-04-18T09:39:40Z</time></trkpt><trkpt lat="44.58346205776795" lon="9.482478179467478"><ele>1141.6</ele><time>2026-04-18T09:39:41Z</time></trkpt><trkpt lat="44.583484517590904" lon="9.482313963534475"><ele>1144.4</ele><time>2026-04-18T09:39:42Z</time></trkpt><trkpt lat="44.583503963814366" lon="9.482164874208829"><ele>1147.2</ele><time>2026-04-18T09:39:43Z</time></trkpt><trkpt lat="44.583518784690746" lon="9.482030734346532"><ele>1150.0</ele><time>2026-04-18T09:39:44Z</time></trkpt><trkpt lat="44.583560623748674" lon="9.48190568858716"><ele>1151.5</ele><time>2026-04-18T09:39:45Z</time></trkpt><trkpt lat="44.5836431044128" lon="9.481825225413694"><ele>1153.0</ele><time>2026-04-18T09:39:46Z</time></trkpt><trkpt lat="44.583759050062504" lon="9.481792708022436"><ele>1154.5</ele><time>2026-04-18T09:39:47Z</time></trkpt><trkpt lat="44.583865600737205" lon="9.48184596843055"><ele>1156.0</ele><time>2026-04-18T09:39:48Z</time></trkpt><trkpt lat="44.58400571156098" lon="9.481876659160433"><ele>1151.25</ele><time>2026-04-18T09:39:49Z</time></trkpt><trkpt lat="44.58413092018304" lon="9.481866145877055"><ele>1146.5</ele><time>2026-04-18T09:39:50Z</time></trkpt><trkpt lat="44.58425696752726" lon="9.481778923760784"><ele>1141.75</ele><time>2026-04-18T09:39:51Z</time></trkpt><trkpt lat="44.584374516146056" lon="9.481684893109676"><ele>1137.0</ele><time>2026-04-18T09:39:52Z</time></trkpt><trkpt lat="44.584490067722186" lon="9.48162783706878"><ele>1135.0</ele><time>2026-04-18T09:39:53Z</time></trkpt><trkpt lat="44.58463386359083" lon="9.481653075274046"><ele>1133.0</ele><time>2026-04-18T09:39:54Z</time></trkpt><trkpt lat="44.58474188011734" lon="9.48174313325005"><ele>1131.0</ele><time>2026-04-18T09:39:55Z</time></trkpt><trkpt lat="44.5848673811081" lon="9.481844141192612"><ele>1129.0</ele><time>2026-04-18T09:39:56Z</time></trkpt><trkpt lat="44.584989608205106" lon="9.481940535362137"><ele>1129.0</ele><time>2026-04-18T09:39:57Z</time></trkpt><trkpt lat="44.58510391979948" lon="9.481998285835623"><ele>1129.0</ele><time>2026-04-18T09:39:58Z</time></trkpt><trkpt lat="44.58522300834308" lon="9.48204288869622"><ele>1129.0</ele><time>2026-04-18T09:39:59Z</time></trkpt><trkpt lat="44.58536555476041" lon="9.482019498979415"><ele>1129.0</ele><time>2026-04-18T09:40:00Z</time></trkpt><trkpt lat="44.58551683229797" lon="9.48195616997503"><ele>1128.0</ele><time>2026-04-18T09:40:01Z</time></trkpt><trkpt lat="44.58567789145377" lon="9.481895118460328"><ele>1127.0</ele><time>2026-04-18T09:40:02Z</time></trkpt><trkpt lat="44.58581354546621" lon="9.481847212276145"><ele>1126.0</ele><time>2026-04-18T09:40:03Z</time></trkpt><trkpt lat="44.58594098683382" lon="9.481805314119253"><ele>1125.0</ele><time>2026-04-18T09:40:04Z</time></trkpt><trkpt lat="44.586065862268036" lon="9.481825615523798"><ele>1125.6</ele><time>2026-04-18T09:40:05Z</time></trkpt><trkpt lat="44.586182027559516" lon="9.481861956377061"><ele>1126.2</ele><time>2026-04-18T09:40:06Z</time></trkpt><trkpt lat="44.58628336098516" lon="9.48193433322854"><ele>1126.8</ele><time>2026-04-18T09:40:07Z</time></trkpt><trkpt lat="44.58637462004917" lon="9.482027632485993"><ele>1127.4</ele><time>2026-04-18T09:40:08Z</time></trkpt><trkpt lat="44.58643131869435" lon="9.482147245887353"><ele>1128.0</ele><time>2026-04-18T09:40:09Z</time></trkpt><trkpt lat="44.586472859189946" lon="9.482304909086038"><ele>1126.5</ele><time>2026-04-18T09:40:10Z</time></trkpt><trkpt lat="44.586489621179474" lon="9.482465118115577"><ele>1125.0</ele><time>2026-04-18T09:40:11Z</time></trkpt><trkpt lat="44.586484358548205" lon="9.482621209280058"><ele>1123.5</ele><time>2026-04-18T09:40:12Z</time></trkpt><trkpt lat="44.586446109471595" lon="9.482777888629615"><ele>1122.0</ele><time>2026-04-18T09:40:13Z</time></trkpt><trkpt lat="44.58636656155294" lon="9.48291596756327"><ele>1120.0</ele><time>2026-04-18T09:40:14Z</time></trkpt><trkpt lat="44.586267711635166" lon="9.483028151004534"><ele>1118.0</ele><time>2026-04-18T09:40:15Z</time></trkpt><trkpt lat="44.58616176930381" lon="9.483084627232541"><ele>1116.0</ele><time>2026-04-18T09:40:16Z</time></trkpt><trkpt lat="44.58602159529981" lon="9.483126684630205"><ele>1114.0</ele><time>2026-04-18T09:40:17Z</time></trkpt><trkpt lat="44.585825690825445" lon="9.483121450814957"><ele>1113.5</ele><time>2026-04-18T09:40:18Z</time></trkpt><trkpt lat="44.58564163847186" lon="9.483164957819135"><ele>1113.0</ele><time>2026-04-18T09:40:19Z</time></trkpt><trkpt lat="44.58560457789713" lon="9.483292814142677"><ele>1112.5</ele><time>2026-04-18T09:40:20Z</time></trkpt><trkpt lat="44.58549614708558" lon="9.48334790384484"><ele>1112.0</ele><time>2026-04-18T09:40:21Z</time></trkpt><trkpt lat="44.58540300804902" lon="9.483442176572435"><ele>1112.75</ele><time>2026-04-18T09:40:22Z</time></trkpt><trkpt lat="44.585326165275625" lon="9.483593856416126"><ele>1113.5</ele><time>2026-04-18T09:40:23Z</time></trkpt><trkpt lat="44.585261410797585" lon="9.483791867462"><ele>1114.25</ele><time>2026-04-18T09:40:24Z</time></trkpt><trkpt lat="44.585210983810335" lon="9.483983060166945"><ele>1115.0</ele><time>2026-04-18T09:40:25Z</time></trkpt><trkpt lat="44.58515616014806" lon="9.484179409703446"><ele>1113.25</ele><time>2026-04-18T09:40:26Z</time></trkpt><trkpt lat="44.585102196990235" lon="9.484391782732725"><ele>1111.5</ele><time>2026-04-18T09:40:27Z</time></trkpt><trkpt lat="44.58504953236345" lon="9.48457763547239"><ele>1109.75</ele><time>2026-04-18T09:40:28Z</time></trkpt><trkpt lat="44.58499599895295" lon="9.484748717709506"><ele>1108.0</ele><time>2026-04-18T09:40:29Z</time></trkpt><trkpt lat="44.58495865401591" lon="9.484911455809764"><ele>1106.0</ele><time>2026-04-18T09:40:30Z</time></trkpt><trkpt lat="44.584940499896916" lon="9.485063197163432"><ele>1104.0</ele><time>2026-04-18T09:40:31Z</time></trkpt><trkpt lat="44.584960879470344" lon="9.485212978601687"><ele>1102.0</ele><time>2026-04-18T09:40:32Z</time></trkpt><trkpt lat="44.58502368415935" lon="9.48535095228115"><ele>1100.0</ele><time>2026-04-18T09:40:33Z</time></trkpt><trkpt lat="44.585117153415986" lon="9.485463830715691"><ele>1097.75</ele><time>2026-04-18T09:40:34Z</time></trkpt><trkpt lat="44.585238285216036" lon="9.485509824517283"><ele>1095.5</ele><time>2026-04-18T09:40:35Z</time></trkpt><trkpt lat="44.585363321916" lon="9.485482283294731"><ele>1093.25</ele><time>2026-04-18T09:40:36Z</time></trkpt><trkpt lat="44.58547763142191" lon="9.48539942801448"><ele>1091.0</ele><time>2026-04-18T09:40:37Z</time></trkpt><trkpt lat="44.585585039833255" lon="9.485252173950496"><ele>1090.6666666666667</ele><time>2026-04-18T09:40:38Z</time></trkpt><trkpt lat="44.58569591079925" lon="9.485060876091582"><ele>1090.3333333333333</ele><time>2026-04-18T09:40:39Z</time></trkpt><trkpt lat="44.58580073042846" lon="9.484886525498075"><ele>1090.0</ele><time>2026-04-18T09:40:40Z</time></trkpt><trkpt lat="44.58590210018389" lon="9.484746362532409"><ele>1090.0</ele><time>2026-04-18T09:40:41Z</time></trkpt><trkpt lat="44.586014185207446" lon="9.484624722945469"><ele>1090.0</ele><time>2026-04-18T09:40:42Z</time></trkpt><trkpt lat="44.58616804181056" lon="9.484571588350168"><ele>1090.0</ele><time>2026-04-18T09:40:43Z</time></trkpt><trkpt lat="44.58632288724031" lon="9.484516388109624"><ele>1092.3333333333333</ele><time>2026-04-18T09:40:44Z</time></trkpt><trkpt lat="44.58649154479071" lon="9.484453932091283"><ele>1094.6666666666667</ele><time>2026-04-18T09:40:44.999Z</time></trkpt><trkpt lat="44.58666288518153" lon="9.484413674323498"><ele>1097.0</ele><time>2026-04-18T09:40:45.999Z</time></trkpt><trkpt lat="44.58685484128244" lon="9.484404512303255"><ele>1093.6666666666667</ele><time>2026-04-18T09:40:46.999Z</time></trkpt><trkpt lat="44.58705574783338" lon="9.484398165452761"><ele>1090.3333333333333</ele><time>2026-04-18T09:40:47.999Z</time></trkpt><trkpt lat="44.58722838024307" lon="9.484372666564411"><ele>1087.0</ele><time>2026-04-18T09:40:48.999Z</time></trkpt><trkpt lat="44.58738282882793" lon="9.484370783847401"><ele>1087.0</ele><time>2026-04-18T09:40:49.999Z</time></trkpt><trkpt lat="44.58750926263795" lon="9.484366741270994"><ele>1087.0</ele><time>2026-04-18T09:40:50.999Z</time></trkpt><trkpt lat="44.587623309746796" lon="9.484342876878129"><ele>1087.0</ele><time>2026-04-18T09:40:51.999Z</time></trkpt><trkpt lat="44.58772621265591" lon="9.484264322067622"><ele>1087.0</ele><time>2026-04-18T09:40:52.999Z</time></trkpt><trkpt lat="44.58781387749332" lon="9.484115500708675"><ele>1085.3333333333333</ele><time>2026-04-18T09:40:53.999Z</time></trkpt><trkpt lat="44.58787233000289" lon="9.483912673066794"><ele>1083.6666666666667</ele><time>2026-04-18T09:40:54.999Z</time></trkpt><trkpt lat="44.58792804825747" lon="9.483700651235578"><ele>1082.0</ele><time>2026-04-18T09:40:55.999Z</time></trkpt><trkpt lat="44.58799458225444" lon="9.483494011371182"><ele>1082.0</ele><time>2026-04-18T09:40:56.999Z</time></trkpt><trkpt lat="44.588065905119436" lon="9.483321042515055"><ele>1082.0</ele><time>2026-04-18T09:40:57.999Z</time></trkpt><trkpt lat="44.588171320607" lon="9.483205148394127"><ele>1082.0</ele><time>2026-04-18T09:40:58.999Z</time></trkpt><trkpt lat="44.58827900289164" lon="9.483132495405203"><ele>1082.0</ele><time>2026-04-18T09:40:59.999Z</time></trkpt><trkpt lat="44.58839889153618" lon="9.48314441820728"><ele>1082.0</ele><time>2026-04-18T09:41:00.999Z</time></trkpt><trkpt lat="44.5885502273007" lon="9.483191553523866"><ele>1082.0</ele><time>2026-04-18T09:41:01.999Z</time></trkpt><trkpt lat="44.58872430604757" lon="9.48322356356054"><ele>1082.0</ele><time>2026-04-18T09:41:02.999Z</time></trkpt><trkpt lat="44.588914839150505" lon="9.483236168706798"><ele>1078.6666666666667</ele><time>2026-04-18T09:41:03.999Z</time></trkpt><trkpt lat="44.58912215004994" lon="9.48325532613845"><ele>1075.3333333333333</ele><time>2026-04-18T09:41:04.999Z</time></trkpt><trkpt lat="44.589306150711366" lon="9.483274601941698"><ele>1072.0</ele><time>2026-04-18T09:41:05.999Z</time></trkpt><trkpt lat="44.58946573687397" lon="9.483288268107442"><ele>1070.0</ele><time>2026-04-18T09:41:06.999Z</time></trkpt><trkpt lat="44.58961394557543" lon="9.483309866631137"><ele>1068.0</ele><time>2026-04-18T09:41:07.999Z</time></trkpt><trkpt lat="44.58973715660721" lon="9.483323266966291"><ele>1066.0</ele><time>2026-04-18T09:41:08.999Z</time></trkpt><trkpt lat="44.589852679832845" lon="9.483311075549546"><ele>1064.0</ele><time>2026-04-18T09:41:09.999Z</time></trkpt><trkpt lat="44.589979040663074" lon="9.483225228414108"><ele>1064.0</ele><time>2026-04-18T09:41:10.999Z</time></trkpt><trkpt lat="44.590108135734496" lon="9.483090586892251"><ele>1064.0</ele><time>2026-04-18T09:41:11.999Z</time></trkpt><trkpt lat="44.59023909963593" lon="9.482939203137779"><ele>1064.0</ele><time>2026-04-18T09:41:12.999Z</time></trkpt><trkpt lat="44.5903921489004" lon="9.48282270224644"><ele>1065.6666666666667</ele><time>2026-04-18T09:41:13.999Z</time></trkpt><trkpt lat="44.590548742045364" lon="9.482725825249842"><ele>1067.3333333333333</ele><time>2026-04-18T09:41:14.999Z</time></trkpt><trkpt lat="44.59070383644347" lon="9.482693053509488"><ele>1069.0</ele><time>2026-04-18T09:41:15.999Z</time></trkpt><trkpt lat="44.59085870172349" lon="9.48267632749026"><ele>1069.0</ele><time>2026-04-18T09:41:16.999Z</time></trkpt><trkpt lat="44.59101917226584" lon="9.482643116897869"><ele>1069.0</ele><time>2026-04-18T09:41:17.999Z</time></trkpt><trkpt lat="44.59119620362065" lon="9.482636574671558"><ele>1069.0</ele><time>2026-04-18T09:41:18.999Z</time></trkpt><trkpt lat="44.59135563999108" lon="9.48261445434604"><ele>1066.4</ele><time>2026-04-18T09:41:19.999Z</time></trkpt><trkpt lat="44.59148580045963" lon="9.482601729244553"><ele>1063.8000000000002</ele><time>2026-04-18T09:41:20.999Z</time></trkpt><trkpt lat="44.59158610930696" lon="9.482664285882532"><ele>1061.1999999999998</ele><time>2026-04-18T09:41:21.999Z</time></trkpt><trkpt lat="44.5916503300541" lon="9.482765497793146"><ele>1058.6</ele><time>2026-04-18T09:41:22.999Z</time></trkpt><trkpt lat="44.591658317958945" lon="9.482902821052596"><ele>1056.0</ele><time>2026-04-18T09:41:23.999Z</time></trkpt><trkpt lat="44.59161787066208" lon="9.483016405644289"><ele>1054.0</ele><time>2026-04-18T09:41:24.999Z</time></trkpt><trkpt lat="44.591554715129426" lon="9.483103814703489"><ele>1052.0</ele><time>2026-04-18T09:41:25.999Z</time></trkpt><trkpt lat="44.59142777686964" lon="9.483089003001863"><ele>1050.0</ele><time>2026-04-18T09:41:26.999Z</time></trkpt><trkpt lat="44.59129668219998" lon="9.48310396774968"><ele>1048.0</ele><time>2026-04-18T09:41:27.999Z</time></trkpt><trkpt lat="44.5911433941949" lon="9.483125653326733"><ele>1048.0</ele><time>2026-04-18T09:41:28.999Z</time></trkpt><trkpt lat="44.590996286090366" lon="9.483152828508981"><ele>1048.0</ele><time>2026-04-18T09:41:29.999Z</time></trkpt><trkpt lat="44.59086579848955" lon="9.483124510590756"><ele>1048.0</ele><time>2026-04-18T09:41:30.999Z</time></trkpt><trkpt lat="44.590761647977175" lon="9.483116006988121"><ele>1048.0</ele><time>2026-04-18T09:41:31.999Z</time></trkpt><trkpt lat="44.590669864907106" lon="9.483150558930479"><ele>1048.0</ele><time>2026-04-18T09:41:32.999Z</time></trkpt><trkpt lat="44.59057088115201" lon="9.483177573791263"><ele>1048.0</ele><time>2026-04-18T09:41:33.999Z</time></trkpt><trkpt lat="44.59047953665374" lon="9.483224313560338"><ele>1048.0</ele><time>2026-04-18T09:41:34.999Z</time></trkpt><trkpt lat="44.59038631542083" lon="9.4832839248342"><ele>1048.0</ele><time>2026-04-18T09:41:35.999Z</time></trkpt><trkpt lat="44.59029790023372" lon="9.48336248666393"><ele>1048.0</ele><time>2026-04-18T09:41:36.999Z</time></trkpt><trkpt lat="44.59022199565335" lon="9.483468679671802"><ele>1048.5</ele><time>2026-04-18T09:41:37.999Z</time></trkpt><trkpt lat="44.59017328073102" lon="9.483608061037291"><ele>1049.0</ele><time>2026-04-18T09:41:38.999Z</time></trkpt><trkpt lat="44.59015685967197" lon="9.48378346485647"><ele>1049.5</ele><time>2026-04-18T09:41:39.999Z</time></trkpt><trkpt lat="44.59014514868253" lon="9.483993254826842"><ele>1050.0</ele><time>2026-04-18T09:41:40.999Z</time></trkpt><trkpt lat="44.590146916606066" lon="9.484227040956329"><ele>1050.0</ele><time>2026-04-18T09:41:41.999Z</time></trkpt><trkpt lat="44.590132273070594" lon="9.484433223703547"><ele>1050.0</ele><time>2026-04-18T09:41:42.999Z</time></trkpt><trkpt lat="44.59011435311124" lon="9.484614245381664"><ele>1050.0</ele><time>2026-04-18T09:41:43.999Z</time></trkpt><trkpt lat="44.590044221543955" lon="9.484763626135399"><ele>1050.0</ele><time>2026-04-18T09:41:45Z</time></trkpt><trkpt lat="44.589938913567565" lon="9.484883978019079"><ele>1044.6666666666667</ele><time>2026-04-18T09:41:46Z</time></trkpt><trkpt lat="44.58980368167432" lon="9.484968152033188"><ele>1039.3333333333335</ele><time>2026-04-18T09:41:47Z</time></trkpt><trkpt lat="44.589658827478424" lon="9.485083167719319"><ele>1034.0</ele><time>2026-04-18T09:41:48Z</time></trkpt><trkpt lat="44.58954003730257" lon="9.485193550413594"><ele>1032.8</ele><time>2026-04-18T09:41:49Z</time></trkpt><trkpt lat="44.58942771747816" lon="9.485278160827228"><ele>1031.6000000000001</ele><time>2026-04-18T09:41:50Z</time></trkpt><trkpt lat="44.58933456324605" lon="9.485342388592938"><ele>1030.4</ele><time>2026-04-18T09:41:51Z</time></trkpt><trkpt lat="44.589263647916376" lon="9.485407147774332"><ele>1029.2</ele><time>2026-04-18T09:41:52Z</time></trkpt><trkpt lat="44.589222409942394" lon="9.485481667212913"><ele>1028.0</ele><time>2026-04-18T09:41:53Z</time></trkpt><trkpt lat="44.5892024861582" lon="9.485576277310157"><ele>1028.0</ele><time>2026-04-18T09:41:54Z</time></trkpt><trkpt lat="44.58917719434798" lon="9.485673970813968"><ele>1028.0</ele><time>2026-04-18T09:41:55Z</time></trkpt><trkpt lat="44.58922479437344" lon="9.485783649091262"><ele>1028.0</ele><time>2026-04-18T09:41:56Z</time></trkpt><trkpt lat="44.589261348737935" lon="9.485863755503173"><ele>1028.0</ele><time>2026-04-18T09:41:57Z</time></trkpt><trkpt lat="44.58932602122309" lon="9.485908344943104"><ele>1028.0</ele><time>2026-04-18T09:41:58Z</time></trkpt><trkpt lat="44.58940980028189" lon="9.485938469269536"><ele>1028.0</ele><time>2026-04-18T09:41:59Z</time></trkpt><trkpt lat="44.58951368120181" lon="9.48585641210018"><ele>1029.5</ele><time>2026-04-18T09:42:00Z</time></trkpt><trkpt lat="44.58961204283612" lon="9.485767848892719"><ele>1031.0</ele><time>2026-04-18T09:42:01Z</time></trkpt><trkpt lat="44.589715242876814" lon="9.485636657646138"><ele>1032.5</ele><time>2026-04-18T09:42:02Z</time></trkpt><trkpt lat="44.5898285491578" lon="9.485485908853732"><ele>1034.0</ele><time>2026-04-18T09:42:03Z</time></trkpt><trkpt lat="44.58995290343207" lon="9.485334834411601"><ele>1034.0</ele><time>2026-04-18T09:42:04Z</time></trkpt><trkpt lat="44.590081759689184" lon="9.485186371323755"><ele>1034.0</ele><time>2026-04-18T09:42:05Z</time></trkpt><trkpt lat="44.59021049673042" lon="9.48505775348445"><ele>1034.0</ele><time>2026-04-18T09:42:06Z</time></trkpt><trkpt lat="44.590327473334625" lon="9.484948658483193"><ele>1031.0</ele><time>2026-04-18T09:42:07Z</time></trkpt><trkpt lat="44.590433603321706" lon="9.484852675170103"><ele>1028.0</ele><time>2026-04-18T09:42:08Z</time></trkpt><trkpt lat="44.5905224718083" lon="9.484731271987728"><ele>1025.0</ele><time>2026-04-18T09:42:09Z</time></trkpt><trkpt lat="44.59059890075847" lon="9.48456606566245"><ele>1022.0</ele><time>2026-04-18T09:42:10Z</time></trkpt><trkpt lat="44.59065429166526" lon="9.48438604239407"><ele>1022.0</ele><time>2026-04-18T09:42:11Z</time></trkpt><trkpt lat="44.59071663063756" lon="9.484230427823315"><ele>1022.0</ele><time>2026-04-18T09:42:12Z</time></trkpt><trkpt lat="44.59078983182714" lon="9.484094686144804"><ele>1022.0</ele><time>2026-04-18T09:42:13Z</time></trkpt><trkpt lat="44.59088204947161" lon="9.484050225955817"><ele>1022.0</ele><time>2026-04-18T09:42:14Z</time></trkpt><trkpt lat="44.59097807693171" lon="9.484031819997789"><ele>1022.0</ele><time>2026-04-18T09:42:15Z</time></trkpt><trkpt lat="44.59109235172255" lon="9.484043342704576"><ele>1019.0</ele><time>2026-04-18T09:42:16Z</time></trkpt><trkpt lat="44.59124919853929" lon="9.48403261012022"><ele>1016.0</ele><time>2026-04-18T09:42:17Z</time></trkpt><trkpt lat="44.5914404015132" lon="9.48405552322284"><ele>1013.0</ele><time>2026-04-18T09:42:18Z</time></trkpt><trkpt lat="44.59165892305257" lon="9.484067727520653"><ele>1013.0</ele><time>2026-04-18T09:42:19Z</time></trkpt><trkpt lat="44.591883096164814" lon="9.484074442247815"><ele>1013.0</ele><time>2026-04-18T09:42:20Z</time></trkpt><trkpt lat="44.59210702334224" lon="9.484080460312065"><ele>1013.0</ele><time>2026-04-18T09:42:21Z</time></trkpt><trkpt lat="44.59230216920546" lon="9.484095517911431"><ele>1010.6666666666667</ele><time>2026-04-18T09:42:22Z</time></trkpt><trkpt lat="44.59248014720282" lon="9.484102220767477"><ele>1008.3333333333333</ele><time>2026-04-18T09:42:23Z</time></trkpt><trkpt lat="44.592651268939676" lon="9.484103599830853"><ele>1006.0</ele><time>2026-04-18T09:42:24Z</time></trkpt><trkpt lat="44.59281330245434" lon="9.484119870839386"><ele>1006.75</ele><time>2026-04-18T09:42:25Z</time></trkpt><trkpt lat="44.592961985693385" lon="9.48413114271751"><ele>1007.5</ele><time>2026-04-18T09:42:26Z</time></trkpt><trkpt lat="44.59309423449619" lon="9.484162705008272"><ele>1008.25</ele><time>2026-04-18T09:42:27Z</time></trkpt><trkpt lat="44.59319795241091" lon="9.484264515058602"><ele>1009.0</ele><time>2026-04-18T09:42:28Z</time></trkpt><trkpt lat="44.59328666902782" lon="9.484403180354413"><ele>1009.0</ele><time>2026-04-18T09:42:29Z</time></trkpt><trkpt lat="44.59331889647267" lon="9.484587677668928"><ele>1009.0</ele><time>2026-04-18T09:42:30Z</time></trkpt><trkpt lat="44.59335599312811" lon="9.484776869353542"><ele>1009.0</ele><time>2026-04-18T09:42:31Z</time></trkpt><trkpt lat="44.59340409922338" lon="9.48493860664181"><ele>1009.0</ele><time>2026-04-18T09:42:32Z</time></trkpt><trkpt lat="44.59350014755441" lon="9.485049845253906"><ele>1005.5</ele><time>2026-04-18T09:42:33Z</time></trkpt><trkpt lat="44.59362511534229" lon="9.485146541924037"><ele>1002.0</ele><time>2026-04-18T09:42:34Z</time></trkpt><trkpt lat="44.59375534560322" lon="9.485223974410872"><ele>998.5</ele><time>2026-04-18T09:42:35Z</time></trkpt><trkpt lat="44.59385286634108" lon="9.48525217172678"><ele>995.0</ele><time>2026-04-18T09:42:36Z</time></trkpt><trkpt lat="44.593944769970996" lon="9.485206158561772"><ele>995.0</ele><time>2026-04-18T09:42:37Z</time></trkpt><trkpt lat="44.59403938770057" lon="9.485123999650327"><ele>995.0</ele><time>2026-04-18T09:42:38Z</time></trkpt><trkpt lat="44.59412756801651" lon="9.48495617555474"><ele>995.0</ele><time>2026-04-18T09:42:39Z</time></trkpt><trkpt lat="44.59419909997599" lon="9.48474253104398"><ele>995.0</ele><time>2026-04-18T09:42:40Z</time></trkpt><trkpt lat="44.59426884016729" lon="9.484546100557047"><ele>993.75</ele><time>2026-04-18T09:42:41Z</time></trkpt><trkpt lat="44.59433234266448" lon="9.484404601368876"><ele>992.5</ele><time>2026-04-18T09:42:42Z</time></trkpt><trkpt lat="44.594417776401215" lon="9.484308263800067"><ele>991.25</ele><time>2026-04-18T09:42:43Z</time></trkpt><trkpt lat="44.59455513629756" lon="9.484277399004226"><ele>990.0</ele><time>2026-04-18T09:42:44Z</time></trkpt><trkpt lat="44.59472066276911" lon="9.484224325619579"><ele>990.0</ele><time>2026-04-18T09:42:45Z</time></trkpt><trkpt lat="44.59489186611007" lon="9.484161069485916"><ele>990.0</ele><time>2026-04-18T09:42:46Z</time></trkpt><trkpt lat="44.59505025906969" lon="9.484119369555549"><ele>990.0</ele><time>2026-04-18T09:42:47Z</time></trkpt><trkpt lat="44.59518490609583" lon="9.484091246949939"><ele>990.0</ele><time>2026-04-18T09:42:48Z</time></trkpt><trkpt lat="44.59530875093584" lon="9.484116569560786"><ele>990.0</ele><time>2026-04-18T09:42:48.999Z</time></trkpt><trkpt lat="44.59543367100368" lon="9.484165429485504"><ele>990.0</ele><time>2026-04-18T09:42:49.999Z</time></trkpt><trkpt lat="44.59555910445956" lon="9.484264950799762"><ele>990.0</ele><time>2026-04-18T09:42:50.999Z</time></trkpt><trkpt lat="44.59568003443777" lon="9.484381065964008"><ele>991.0</ele><time>2026-04-18T09:42:51.999Z</time></trkpt><trkpt lat="44.59579284975203" lon="9.484494291007909"><ele>992.0</ele><time>2026-04-18T09:42:52.999Z</time></trkpt><trkpt lat="44.59589251731125" lon="9.484598656698779"><ele>993.0</ele><time>2026-04-18T09:42:53.999Z</time></trkpt><trkpt lat="44.59600083760191" lon="9.484673341251447"><ele>994.0</ele><time>2026-04-18T09:42:54.999Z</time></trkpt><trkpt lat="44.59609231502736" lon="9.484755567612453"><ele>989.0</ele><time>2026-04-18T09:42:55.999Z</time></trkpt><trkpt lat="44.59619612821233" lon="9.484805678165925"><ele>984.0</ele><time>2026-04-18T09:42:56.999Z</time></trkpt><trkpt lat="44.59633047446179" lon="9.484811060987795"><ele>979.0</ele><time>2026-04-18T09:42:57.999Z</time></trkpt><trkpt lat="44.59646874786616" lon="9.484753336631968"><ele>974.0</ele><time>2026-04-18T09:42:58.999Z</time></trkpt><trkpt lat="44.596613507101345" lon="9.484665092210946"><ele>972.6666666666667</ele><time>2026-04-18T09:42:59.999Z</time></trkpt><trkpt lat="44.59677276025042" lon="9.484572530597328"><ele>971.3333333333333</ele><time>2026-04-18T09:43:00.999Z</time></trkpt><trkpt lat="44.59691447007025" lon="9.484500034159474"><ele>970.0</ele><time>2026-04-18T09:43:01.999Z</time></trkpt><trkpt lat="44.59703453776923" lon="9.484429120056802"><ele>970.0</ele><time>2026-04-18T09:43:02.999Z</time></trkpt><trkpt lat="44.59713948010089" lon="9.48430952285265"><ele>970.0</ele><time>2026-04-18T09:43:03.999Z</time></trkpt><trkpt lat="44.597236416632455" lon="9.484121589072538"><ele>970.0</ele><time>2026-04-18T09:43:04.999Z</time></trkpt><trkpt lat="44.59732618160562" lon="9.483925483775392"><ele>972.75</ele><time>2026-04-18T09:43:05.999Z</time></trkpt><trkpt lat="44.59740568609383" lon="9.483753865829812"><ele>975.5</ele><time>2026-04-18T09:43:06.999Z</time></trkpt><trkpt lat="44.597503981054174" lon="9.483627620115241"><ele>978.25</ele><time>2026-04-18T09:43:07.999Z</time></trkpt><trkpt lat="44.59760828957095" lon="9.483540852297555"><ele>981.0</ele><time>2026-04-18T09:43:08.999Z</time></trkpt><trkpt lat="44.597707883343666" lon="9.483450964841001"><ele>981.0</ele><time>2026-04-18T09:43:09.999Z</time></trkpt><trkpt lat="44.59781406751422" lon="9.483393455671836"><ele>980.9999999999999</ele><time>2026-04-18T09:43:10.999Z</time></trkpt><trkpt lat="44.597927777107614" lon="9.483393421167024"><ele>980.9999999999999</ele><time>2026-04-18T09:43:11.999Z</time></trkpt><trkpt lat="44.59802977181094" lon="9.483427980263658"><ele>981.0</ele><time>2026-04-18T09:43:12.999Z</time></trkpt><trkpt lat="44.598128722223905" lon="9.48350046293507"><ele>981.0</ele><time>2026-04-18T09:43:13.999Z</time></trkpt><trkpt lat="44.59816417406925" lon="9.483679136030966"><ele>977.25</ele><time>2026-04-18T09:43:14.999Z</time></trkpt><trkpt lat="44.598220917564085" lon="9.48383099968506"><ele>973.5</ele><time>2026-04-18T09:43:15.999Z</time></trkpt><trkpt lat="44.598284325405125" lon="9.483952028099663"><ele>969.75</ele><time>2026-04-18T09:43:16.999Z</time></trkpt><trkpt lat="44.59837386768845" lon="9.484051336754435"><ele>966.0</ele><time>2026-04-18T09:43:17.999Z</time></trkpt><trkpt lat="44.59851401496058" lon="9.484124182912103"><ele>968.0</ele><time>2026-04-18T09:43:18.999Z</time></trkpt><trkpt lat="44.59867541002127" lon="9.484167619519694"><ele>970.0</ele><time>2026-04-18T09:43:19.999Z</time></trkpt><trkpt lat="44.598846143851866" lon="9.484204079988631"><ele>972.0</ele><time>2026-04-18T09:43:20.999Z</time></trkpt><trkpt lat="44.59903584066793" lon="9.484256865332462"><ele>972.0</ele><time>2026-04-18T09:43:21.999Z</time></trkpt><trkpt lat="44.59921111310375" lon="9.484312654245288"><ele>972.0</ele><time>2026-04-18T09:43:22.999Z</time></trkpt><trkpt lat="44.59937711664587" lon="9.484349705477431"><ele>972.0</ele><time>2026-04-18T09:43:23.999Z</time></trkpt><trkpt lat="44.59952748874162" lon="9.48438460152496"><ele>972.75</ele><time>2026-04-18T09:43:24.999Z</time></trkpt><trkpt lat="44.599659277442456" lon="9.484457700580716"><ele>973.5</ele><time>2026-04-18T09:43:25.999Z</time></trkpt><trkpt lat="44.599750570869595" lon="9.48459429749558"><ele>974.25</ele><time>2026-04-18T09:43:26.999Z</time></trkpt><trkpt lat="44.59981890052315" lon="9.484765983664568"><ele>975.0</ele><time>2026-04-18T09:43:27.999Z</time></trkpt><trkpt lat="44.599886692956844" lon="9.484968984459583"><ele>970.75</ele><time>2026-04-18T09:43:28.999Z</time></trkpt><trkpt lat="44.599956453804246" lon="9.485138328527697"><ele>966.5</ele><time>2026-04-18T09:43:29.999Z</time></trkpt><trkpt lat="44.60001532238036" lon="9.485269449790287"><ele>962.25</ele><time>2026-04-18T09:43:30.999Z</time></trkpt><trkpt lat="44.60011170055223" lon="9.48533974479969"><ele>958.0</ele><time>2026-04-18T09:43:31.999Z</time></trkpt><trkpt lat="44.60023025903476" lon="9.485353490207077"><ele>955.5</ele><time>2026-04-18T09:43:32.999Z</time></trkpt><trkpt lat="44.600348744893" lon="9.48529124602642"><ele>953.0</ele><time>2026-04-18T09:43:33.999Z</time></trkpt><trkpt lat="44.60044927844559" lon="9.485172453757581"><ele>950.5</ele><time>2026-04-18T09:43:34.999Z</time></trkpt><trkpt lat="44.60053978156896" lon="9.484988662139306"><ele>948.0</ele><time>2026-04-18T09:43:35.999Z</time></trkpt><trkpt lat="44.60063198738892" lon="9.484786959679338"><ele>948.0</ele><time>2026-04-18T09:43:36.999Z</time></trkpt><trkpt lat="44.60073648382908" lon="9.484638410198155"><ele>948.0</ele><time>2026-04-18T09:43:37.999Z</time></trkpt><trkpt lat="44.60086928080749" lon="9.484523168689314"><ele>948.0</ele><time>2026-04-18T09:43:38.999Z</time></trkpt><trkpt lat="44.60102298058727" lon="9.484425077945266"><ele>949.0</ele><time>2026-04-18T09:43:39.999Z</time></trkpt><trkpt lat="44.601196384656205" lon="9.484333325313944"><ele>950.0</ele><time>2026-04-18T09:43:40.999Z</time></trkpt><trkpt lat="44.60137685980143" lon="9.4842312105636"><ele>951.0</ele><time>2026-04-18T09:43:41.999Z</time></trkpt><trkpt lat="44.60154536395987" lon="9.484145649183167"><ele>951.0</ele><time>2026-04-18T09:43:42.999Z</time></trkpt><trkpt lat="44.60169947145025" lon="9.484061437658324"><ele>951.0</ele><time>2026-04-18T09:43:43.999Z</time></trkpt><trkpt lat="44.601854269452254" lon="9.48397664833061"><ele>951.0</ele><time>2026-04-18T09:43:44.999Z</time></trkpt><trkpt lat="44.602008565312715" lon="9.483892802318355"><ele>951.25</ele><time>2026-04-18T09:43:45.999Z</time></trkpt><trkpt lat="44.602142940739625" lon="9.483817001354932"><ele>951.5</ele><time>2026-04-18T09:43:46.999Z</time></trkpt><trkpt lat="44.60225828951489" lon="9.483750758168597"><ele>951.75</ele><time>2026-04-18T09:43:47.999Z</time></trkpt><trkpt lat="44.602339306756534" lon="9.483667153149032"><ele>952.0</ele><time>2026-04-18T09:43:48.999Z</time></trkpt><trkpt lat="44.60238848721037" lon="9.483559589131398"><ele>952.0</ele><time>2026-04-18T09:43:49.999Z</time></trkpt><trkpt lat="44.60240660348262" lon="9.483397812134681"><ele>952.0</ele><time>2026-04-18T09:43:51Z</time></trkpt><trkpt lat="44.602376351514565" lon="9.483206920341207"><ele>952.0</ele><time>2026-04-18T09:43:52Z</time></trkpt><trkpt lat="44.60235272315841" lon="9.483062729853147"><ele>952.0</ele><time>2026-04-18T09:43:53Z</time></trkpt><trkpt lat="44.602375084367274" lon="9.48292217504431"><ele>954.2</ele><time>2026-04-18T09:43:54Z</time></trkpt><trkpt lat="44.60243844588391" lon="9.482798419340932"><ele>956.4000000000001</ele><time>2026-04-18T09:43:55Z</time></trkpt><trkpt lat="44.60253941499891" lon="9.48271854356467"><ele>958.5999999999999</ele><time>2026-04-18T09:43:56Z</time></trkpt><trkpt lat="44.60264562114578" lon="9.482719197356639"><ele>960.8</ele><time>2026-04-18T09:43:57Z</time></trkpt><trkpt lat="44.602754628392006" lon="9.482753990520424"><ele>963.0</ele><time>2026-04-18T09:43:58Z</time></trkpt><trkpt lat="44.60288596526336" lon="9.48285799420189"><ele>954.6666666666667</ele><time>2026-04-18T09:43:59Z</time></trkpt><trkpt lat="44.603020871732646" lon="9.482974792878935"><ele>946.3333333333334</ele><time>2026-04-18T09:44:00Z</time></trkpt><trkpt lat="44.60315819121314" lon="9.483099740879409"><ele>938.0</ele><time>2026-04-18T09:44:01Z</time></trkpt><trkpt lat="44.60327623236731" lon="9.483215555470569"><ele>938.0</ele><time>2026-04-18T09:44:02Z</time></trkpt><trkpt lat="44.603384807291384" lon="9.483310917382964"><ele>938.0</ele><time>2026-04-18T09:44:03Z</time></trkpt><trkpt lat="44.603462152328795" lon="9.483367066565494"><ele>938.0</ele><time>2026-04-18T09:44:04Z</time></trkpt><trkpt lat="44.60355033739486" lon="9.48338253092577"><ele>938.0</ele><time>2026-04-18T09:44:05Z</time></trkpt><trkpt lat="44.603618739105535" lon="9.48336210707803"><ele>938.0</ele><time>2026-04-18T09:44:06Z</time></trkpt><trkpt lat="44.603805050716424" lon="9.483321568242815"><ele>939.25</ele><time>2026-04-18T09:44:07Z</time></trkpt><trkpt lat="44.60391965666211" lon="9.48328717888889"><ele>940.5</ele><time>2026-04-18T09:44:08Z</time></trkpt><trkpt lat="44.604032300159446" lon="9.483381767992773"><ele>941.75</ele><time>2026-04-18T09:44:09Z</time></trkpt><trkpt lat="44.60412220722024" lon="9.483532003233892"><ele>943.0</ele><time>2026-04-18T09:44:10Z</time></trkpt><trkpt lat="44.60424440152497" lon="9.483694841686827"><ele>939.0</ele><time>2026-04-18T09:44:11Z</time></trkpt><trkpt lat="44.6043578037575" lon="9.483845964037052"><ele>935.0</ele><time>2026-04-18T09:44:12Z</time></trkpt><trkpt lat="44.60446234504975" lon="9.48397433963674"><ele>931.0</ele><time>2026-04-18T09:44:13Z</time></trkpt><trkpt lat="44.60457423600796" lon="9.484080941244375"><ele>927.0</ele><time>2026-04-18T09:44:14Z</time></trkpt><trkpt lat="44.60468007317086" lon="9.484164584663134"><ele>927.0</ele><time>2026-04-18T09:44:15Z</time></trkpt><trkpt lat="44.60479984683811" lon="9.484188871912798"><ele>927.0</ele><time>2026-04-18T09:44:16Z</time></trkpt><trkpt lat="44.60493652907681" lon="9.484158226020014"><ele>927.0</ele><time>2026-04-18T09:44:17Z</time></trkpt><trkpt lat="44.60505853972149" lon="9.484078647004683"><ele>927.0</ele><time>2026-04-18T09:44:18Z</time></trkpt><trkpt lat="44.60517779076308" lon="9.483947356466603"><ele>927.0</ele><time>2026-04-18T09:44:19Z</time></trkpt><trkpt lat="44.605288503471904" lon="9.483812774581263"><ele>927.0</ele><time>2026-04-18T09:44:20Z</time></trkpt><trkpt lat="44.605385664787526" lon="9.483699794162707"><ele>927.0</ele><time>2026-04-18T09:44:21Z</time></trkpt><trkpt lat="44.605502027124984" lon="9.483618202160544"><ele>927.0</ele><time>2026-04-18T09:44:22Z</time></trkpt><trkpt lat="44.60562842359871" lon="9.483593980419164"><ele>930.0</ele><time>2026-04-18T09:44:23Z</time></trkpt><trkpt lat="44.60576143129633" lon="9.483637812293843"><ele>933.0</ele><time>2026-04-18T09:44:24Z</time></trkpt><trkpt lat="44.60592371014157" lon="9.483683259714256"><ele>936.0</ele><time>2026-04-18T09:44:25Z</time></trkpt><trkpt lat="44.60605278384171" lon="9.48372369605154"><ele>939.0</ele><time>2026-04-18T09:44:26Z</time></trkpt><trkpt lat="44.60618104051723" lon="9.483757537298771"><ele>934.25</ele><time>2026-04-18T09:44:27Z</time></trkpt><trkpt lat="44.60628677269355" lon="9.483847795573391"><ele>929.5</ele><time>2026-04-18T09:44:28Z</time></trkpt><trkpt lat="44.60641215143491" lon="9.483910910405967"><ele>924.75</ele><time>2026-04-18T09:44:29Z</time></trkpt><trkpt lat="44.60652807352296" lon="9.484021445444638"><ele>920.0</ele><time>2026-04-18T09:44:30Z</time></trkpt><trkpt lat="44.60664839773126" lon="9.484152633833348"><ele>920.0</ele><time>2026-04-18T09:44:31Z</time></trkpt><trkpt lat="44.606766411773116" lon="9.484266225990154"><ele>920.0</ele><time>2026-04-18T09:44:32Z</time></trkpt><trkpt lat="44.60685661572545" lon="9.484340144750462"><ele>920.0</ele><time>2026-04-18T09:44:33Z</time></trkpt><trkpt lat="44.606988844874124" lon="9.484397378426642"><ele>920.0</ele><time>2026-04-18T09:44:34Z</time></trkpt><trkpt lat="44.60711412093999" lon="9.484429039402064"><ele>919.5</ele><time>2026-04-18T09:44:35Z</time></trkpt><trkpt lat="44.60723688416862" lon="9.484427209387217"><ele>919.0</ele><time>2026-04-18T09:44:36Z</time></trkpt><trkpt lat="44.60737156682516" lon="9.484408331688602"><ele>918.5</ele><time>2026-04-18T09:44:37Z</time></trkpt><trkpt lat="44.60747794488423" lon="9.484359607430207"><ele>918.0</ele><time>2026-04-18T09:44:38Z</time></trkpt><trkpt lat="44.6075845493723" lon="9.48429674656677"><ele>918.0</ele><time>2026-04-18T09:44:39Z</time></trkpt><trkpt lat="44.607724709765264" lon="9.484212582113042"><ele>918.0</ele><time>2026-04-18T09:44:40Z</time></trkpt><trkpt lat="44.60787008225862" lon="9.484100768889157"><ele>918.0</ele><time>2026-04-18T09:44:41Z</time></trkpt><trkpt lat="44.608006362703904" lon="9.483986828959463"><ele>919.5</ele><time>2026-04-18T09:44:42Z</time></trkpt><trkpt lat="44.608123616897075" lon="9.483885447306633"><ele>921.0</ele><time>2026-04-18T09:44:43Z</time></trkpt><trkpt lat="44.60824349420216" lon="9.483779054877427"><ele>922.5</ele><time>2026-04-18T09:44:44Z</time></trkpt><trkpt lat="44.608342150610866" lon="9.48366476799174"><ele>924.0</ele><time>2026-04-18T09:44:45Z</time></trkpt><trkpt lat="44.60843766641827" lon="9.483565605665335"><ele>924.0</ele><time>2026-04-18T09:44:46Z</time></trkpt><trkpt lat="44.60854695640977" lon="9.483503874009966"><ele>924.0000000000001</ele><time>2026-04-18T09:44:47Z</time></trkpt><trkpt lat="44.60865919781137" lon="9.483480341286361"><ele>924.0000000000001</ele><time>2026-04-18T09:44:48Z</time></trkpt><trkpt lat="44.60876739698556" lon="9.483472174320433"><ele>924.0</ele><time>2026-04-18T09:44:49Z</time></trkpt><trkpt lat="44.608868391386906" lon="9.48342276722542"><ele>924.0</ele><time>2026-04-18T09:44:50Z</time></trkpt><trkpt lat="44.6089537925199" lon="9.483328988055689"><ele>922.8333333333334</ele><time>2026-04-18T09:44:51Z</time></trkpt><trkpt lat="44.609012158640375" lon="9.483228396503915"><ele>921.6666666666667</ele><time>2026-04-18T09:44:52Z</time></trkpt><trkpt lat="44.609047018690944" lon="9.483121903171266"><ele>920.5</ele><time>2026-04-18T09:44:53Z</time></trkpt><trkpt lat="44.60906605632438" lon="9.48300254860333"><ele>919.3333333333334</ele><time>2026-04-18T09:44:54Z</time></trkpt><trkpt lat="44.6090672152387" lon="9.482880479501656"><ele>918.1666666666667</ele><time>2026-04-18T09:44:55Z</time></trkpt><trkpt lat="44.6090525452974" lon="9.482762674662986"><ele>917.0</ele><time>2026-04-18T09:44:56Z</time></trkpt><trkpt lat="44.60902903077745" lon="9.48264372990895"><ele>916.6666666666667</ele><time>2026-04-18T09:44:57Z</time></trkpt><trkpt lat="44.609008598810846" lon="9.482525672610304"><ele>916.3333333333334</ele><time>2026-04-18T09:44:57.999Z</time></trkpt><trkpt lat="44.60898986311596" lon="9.482409185859808"><ele>916.0</ele><time>2026-04-18T09:44:58.999Z</time></trkpt><trkpt lat="44.60899139124547" lon="9.482292061477866"><ele>915.6666666666667</ele><time>2026-04-18T09:44:59.999Z</time></trkpt><trkpt lat="44.60901624419378" lon="9.482184119797768"><ele>915.3333333333334</ele><time>2026-04-18T09:45:00.999Z</time></trkpt><trkpt lat="44.60905318126004" lon="9.482090207980901"><ele>915.0</ele><time>2026-04-18T09:45:01.999Z</time></trkpt><trkpt lat="44.60910014655879" lon="9.48199718522624"><ele>915.0</ele><time>2026-04-18T09:45:02.999Z</time></trkpt><trkpt lat="44.6091561109555" lon="9.481904750357847"><ele>915.0</ele><time>2026-04-18T09:45:03.999Z</time></trkpt><trkpt lat="44.609211581383796" lon="9.481814840573929"><ele>915.0</ele><time>2026-04-18T09:45:04.999Z</time></trkpt><trkpt lat="44.60926850159838" lon="9.481716564571135"><ele>915.0</ele><time>2026-04-18T09:45:05.999Z</time></trkpt><trkpt lat="44.60932738396913" lon="9.481605354395416"><ele>915.0</ele><time>2026-04-18T09:45:06.999Z</time></trkpt><trkpt lat="44.609403133175036" lon="9.481473828061905"><ele>909.75</ele><time>2026-04-18T09:45:07.999Z</time></trkpt><trkpt lat="44.60950246556984" lon="9.481313965589994"><ele>904.5</ele><time>2026-04-18T09:45:08.999Z</time></trkpt><trkpt lat="44.609582933331545" lon="9.481167613484681"><ele>899.25</ele><time>2026-04-18T09:45:09.999Z</time></trkpt><trkpt lat="44.60966047722307" lon="9.481036953107676"><ele>894.0</ele><time>2026-04-18T09:45:10.999Z</time></trkpt><trkpt lat="44.60971018130004" lon="9.480911385651652"><ele>894.0</ele><time>2026-04-18T09:45:11.999Z</time></trkpt><trkpt lat="44.609735046262486" lon="9.480762971574826"><ele>894.0</ele><time>2026-04-18T09:45:12.999Z</time></trkpt><trkpt lat="44.609711137124656" lon="9.480615037853143"><ele>894.0</ele><time>2026-04-18T09:45:13.999Z</time></trkpt><trkpt lat="44.6096509314125" lon="9.480455102036993"><ele>894.0</ele><time>2026-04-18T09:45:14.999Z</time></trkpt><trkpt lat="44.60957737546529" lon="9.480305260577447"><ele>891.5</ele><time>2026-04-18T09:45:15.999Z</time></trkpt><trkpt lat="44.60949597696671" lon="9.480154106200171"><ele>889.0</ele><time>2026-04-18T09:45:16.999Z</time></trkpt><trkpt lat="44.609433114186324" lon="9.47999738604776"><ele>886.5</ele><time>2026-04-18T09:45:17.999Z</time></trkpt><trkpt lat="44.60937782188094" lon="9.479863271524604"><ele>884.0</ele><time>2026-04-18T09:45:18.999Z</time></trkpt><trkpt lat="44.609355099399515" lon="9.47971834595376"><ele>890.25</ele><time>2026-04-18T09:45:19.999Z</time></trkpt><trkpt lat="44.60935285712468" lon="9.47953486533902"><ele>896.5</ele><time>2026-04-18T09:45:20.999Z</time></trkpt><trkpt lat="44.60934722735534" lon="9.479340683986882"><ele>902.75</ele><time>2026-04-18T09:45:21.999Z</time></trkpt><trkpt lat="44.60933034965662" lon="9.479133094141373"><ele>909.0</ele><time>2026-04-18T09:45:22.999Z</time></trkpt><trkpt lat="44.609337984174886" lon="9.47895086101656"><ele>909.0</ele><time>2026-04-18T09:45:23.999Z</time></trkpt><trkpt lat="44.60938749565985" lon="9.478780890814006"><ele>909.0</ele><time>2026-04-18T09:45:24.999Z</time></trkpt><trkpt lat="44.60944872831747" lon="9.478608514162294"><ele>909.0</ele><time>2026-04-18T09:45:25.999Z</time></trkpt><trkpt lat="44.6094819511132" lon="9.478463015412355"><ele>909.0</ele><time>2026-04-18T09:45:26.999Z</time></trkpt><trkpt lat="44.60951311451436" lon="9.47835266518874"><ele>908.0</ele><time>2026-04-18T09:45:27.999Z</time></trkpt><trkpt lat="44.609503838952605" lon="9.478225916456438"><ele>907.0</ele><time>2026-04-18T09:45:28.999Z</time></trkpt><trkpt lat="44.60945286715884" lon="9.478081521757744"><ele>906.0</ele><time>2026-04-18T09:45:29.999Z</time></trkpt><trkpt lat="44.60936662313585" lon="9.477941734329724"><ele>905.0</ele><time>2026-04-18T09:45:30.999Z</time></trkpt><trkpt lat="44.60926318227467" lon="9.477830875264202"><ele>902.8</ele><time>2026-04-18T09:45:31.999Z</time></trkpt><trkpt lat="44.609177665290055" lon="9.477724600507415"><ele>900.6</ele><time>2026-04-18T09:45:32.999Z</time></trkpt><trkpt lat="44.609100363791036" lon="9.477636312267125"><ele>898.4000000000001</ele><time>2026-04-18T09:45:33.999Z</time></trkpt><trkpt lat="44.60903587976238" lon="9.477548267797392"><ele>896.2</ele><time>2026-04-18T09:45:34.999Z</time></trkpt><trkpt lat="44.60898357790857" lon="9.477446687223958"><ele>894.0</ele><time>2026-04-18T09:45:35.999Z</time></trkpt><trkpt lat="44.60895762272705" lon="9.477312876213912"><ele>894.0</ele><time>2026-04-18T09:45:36.999Z</time></trkpt><trkpt lat="44.60896634370979" lon="9.477153763827015"><ele>894.0</ele><time>2026-04-18T09:45:37.999Z</time></trkpt><trkpt lat="44.60901963974583" lon="9.476975006053323"><ele>894.0</ele><time>2026-04-18T09:45:38.999Z</time></trkpt><trkpt lat="44.60909413146007" lon="9.476769886049905"><ele>894.0</ele><time>2026-04-18T09:45:39.999Z</time></trkpt><trkpt lat="44.60918343886804" lon="9.476566184478308"><ele>894.5</ele><time>2026-04-18T09:45:40.999Z</time></trkpt><trkpt lat="44.60926253599959" lon="9.476389699558274"><ele>895.0</ele><time>2026-04-18T09:45:41.999Z</time></trkpt><trkpt lat="44.60933964409511" lon="9.476228778692724"><ele>895.5</ele><time>2026-04-18T09:45:42.999Z</time></trkpt><trkpt lat="44.60944209455246" lon="9.476062769495595"><ele>896.0</ele><time>2026-04-18T09:45:43.999Z</time></trkpt><trkpt lat="44.60955285354477" lon="9.475920205430892"><ele>890.5</ele><time>2026-04-18T09:45:44.999Z</time></trkpt><trkpt lat="44.609650733855396" lon="9.475798345773725"><ele>885.0</ele><time>2026-04-18T09:45:45.999Z</time></trkpt><trkpt lat="44.609721639562686" lon="9.475662754903638"><ele>879.5</ele><time>2026-04-18T09:45:46.999Z</time></trkpt><trkpt lat="44.60975910242157" lon="9.47548879750031"><ele>874.0</ele><time>2026-04-18T09:45:47.999Z</time></trkpt><trkpt lat="44.60978022951993" lon="9.4753105202261"><ele>874.0</ele><time>2026-04-18T09:45:48.999Z</time></trkpt><trkpt lat="44.60979454318634" lon="9.475146257923535"><ele>874.0</ele><time>2026-04-18T09:45:49.999Z</time></trkpt><trkpt lat="44.60984860590269" lon="9.474991893288928"><ele>874.0</ele><time>2026-04-18T09:45:50.999Z</time></trkpt><trkpt lat="44.60992913236125" lon="9.474851137023888"><ele>874.0</ele><time>2026-04-18T09:45:51.999Z</time></trkpt><trkpt lat="44.61001769270538" lon="9.474725426749531"><ele>874.2</ele><time>2026-04-18T09:45:52.999Z</time></trkpt><trkpt lat="44.6100842827224" lon="9.474599307945939"><ele>874.4000000000001</ele><time>2026-04-18T09:45:53.999Z</time></trkpt><trkpt lat="44.61011675281217" lon="9.47446668115375"><ele>874.6</ele><time>2026-04-18T09:45:54.999Z</time></trkpt><trkpt lat="44.610113898369804" lon="9.474308829939567"><ele>874.8</ele><time>2026-04-18T09:45:55.999Z</time></trkpt><trkpt lat="44.6100707815191" lon="9.474143738540203"><ele>875.0</ele><time>2026-04-18T09:45:57Z</time></trkpt><trkpt lat="44.60998625680567" lon="9.47398071612915"><ele>875.0</ele><time>2026-04-18T09:45:58Z</time></trkpt><trkpt lat="44.60988999758758" lon="9.473843629386154"><ele>875.0</ele><time>2026-04-18T09:45:59Z</time></trkpt><trkpt lat="44.609816616319534" lon="9.473712723302816"><ele>875.0</ele><time>2026-04-18T09:46:00Z</time></trkpt><trkpt lat="44.60975537460073" lon="9.473601221085648"><ele>875.0</ele><time>2026-04-18T09:46:01Z</time></trkpt><trkpt lat="44.609704565562126" lon="9.473479765274655"><ele>874.2</ele><time>2026-04-18T09:46:02Z</time></trkpt><trkpt lat="44.60967600164865" lon="9.473348813076848"><ele>873.4</ele><time>2026-04-18T09:46:03Z</time></trkpt><trkpt lat="44.609677322351644" lon="9.473183062781048"><ele>872.5999999999999</ele><time>2026-04-18T09:46:04Z</time></trkpt><trkpt lat="44.60970484947377" lon="9.473032028503951"><ele>871.8</ele><time>2026-04-18T09:46:05Z</time></trkpt><trkpt lat="44.60976758022289" lon="9.472899163977814"><ele>871.0</ele><time>2026-04-18T09:46:06Z</time></trkpt><trkpt lat="44.60985319339536" lon="9.47276859775116"><ele>871.0</ele><time>2026-04-18T09:46:07Z</time></trkpt><trkpt lat="44.609977836432414" lon="9.472721243468708"><ele>871.0</ele><time>2026-04-18T09:46:08Z</time></trkpt><trkpt lat="44.610082164536514" lon="9.472715774398676"><ele>871.0</ele><time>2026-04-18T09:46:09Z</time></trkpt><trkpt lat="44.610192106545526" lon="9.472718937556328"><ele>871.0</ele><time>2026-04-18T09:46:10Z</time></trkpt><trkpt lat="44.61031127792872" lon="9.472788648127395"><ele>867.6666666666666</ele><time>2026-04-18T09:46:11Z</time></trkpt><trkpt lat="44.61045222159771" lon="9.472866956589728"><ele>864.3333333333333</ele><time>2026-04-18T09:46:12Z</time></trkpt><trkpt lat="44.6105951885285" lon="9.472942548088131"><ele>861.0</ele><time>2026-04-18T09:46:13Z</time></trkpt><trkpt lat="44.61076010919648" lon="9.473023872038752"><ele>861.0</ele><time>2026-04-18T09:46:14Z</time></trkpt><trkpt lat="44.61092588482604" lon="9.473107459649846"><ele>861.0</ele><time>2026-04-18T09:46:15Z</time></trkpt><trkpt lat="44.611079873951674" lon="9.473194523090728"><ele>861.0</ele><time>2026-04-18T09:46:16Z</time></trkpt><trkpt lat="44.611199503670655" lon="9.473337787344276"><ele>860.6666666666667</ele><time>2026-04-18T09:46:17Z</time></trkpt><trkpt lat="44.611330691935486" lon="9.473500415715119"><ele>860.3333333333334</ele><time>2026-04-18T09:46:18Z</time></trkpt><trkpt lat="44.61145985861441" lon="9.47365429747968"><ele>860.0</ele><time>2026-04-18T09:46:19Z</time></trkpt><trkpt lat="44.61154499118214" lon="9.473837126222945"><ele>860.0</ele><time>2026-04-18T09:46:20Z</time></trkpt><trkpt lat="44.61163327854639" lon="9.474037012781036"><ele>860.0</ele><time>2026-04-18T09:46:21Z</time></trkpt><trkpt lat="44.61172219880858" lon="9.474237471431511"><ele>860.0</ele><time>2026-04-18T09:46:22Z</time></trkpt><trkpt lat="44.61181307756478" lon="9.47442237661189"><ele>856.6666666666667</ele><time>2026-04-18T09:46:23Z</time></trkpt><trkpt lat="44.6118688064283" lon="9.474645793140391"><ele>853.3333333333333</ele><time>2026-04-18T09:46:24Z</time></trkpt><trkpt lat="44.61191111054305" lon="9.474875467917416"><ele>850.0</ele><time>2026-04-18T09:46:25Z</time></trkpt><trkpt lat="44.61194677088061" lon="9.475100690404634"><ele>850.0</ele><time>2026-04-18T09:46:26Z</time></trkpt><trkpt lat="44.611984896709615" lon="9.475305861594961"><ele>850.0</ele><time>2026-04-18T09:46:27Z</time></trkpt><trkpt lat="44.61202645243697" lon="9.47551593563831"><ele>850.0</ele><time>2026-04-18T09:46:28Z</time></trkpt><trkpt lat="44.61207173623309" lon="9.475738900887341"><ele>858.6666666666666</ele><time>2026-04-18T09:46:29Z</time></trkpt><trkpt lat="44.61211889491186" lon="9.475970144679552"><ele>867.3333333333333</ele><time>2026-04-18T09:46:30Z</time></trkpt><trkpt lat="44.61217076487063" lon="9.476206959541415"><ele>876.0</ele><time>2026-04-18T09:46:31Z</time></trkpt><trkpt lat="44.61223565486771" lon="9.476441601908219"><ele>876.0</ele><time>2026-04-18T09:46:32Z</time></trkpt><trkpt lat="44.612278140187776" lon="9.476695667045286"><ele>876.0</ele><time>2026-04-18T09:46:33Z</time></trkpt><trkpt lat="44.61230025009109" lon="9.476957453782738"><ele>876.0</ele><time>2026-04-18T09:46:34Z</time></trkpt><trkpt lat="44.61232753871326" lon="9.477224512456297"><ele>871.3333333333333</ele><time>2026-04-18T09:46:35Z</time></trkpt><trkpt lat="44.61236727124799" lon="9.477483923406018"><ele>866.6666666666666</ele><time>2026-04-18T09:46:36Z</time></trkpt><trkpt lat="44.612373529561644" lon="9.477724727812465"><ele>862.0</ele><time>2026-04-18T09:46:37Z</time></trkpt><trkpt lat="44.61239546778203" lon="9.477924075197613"><ele>859.4000000000001</ele><time>2026-04-18T09:46:38Z</time></trkpt><trkpt lat="44.61243101190773" lon="9.47806492814989"><ele>856.8000000000001</ele><time>2026-04-18T09:46:39Z</time></trkpt><trkpt lat="44.61247621895025" lon="9.478184253021286"><ele>854.2</ele><time>2026-04-18T09:46:40Z</time></trkpt><trkpt lat="44.612552469690726" lon="9.478272145865352"><ele>851.6</ele><time>2026-04-18T09:46:41Z</time></trkpt><trkpt lat="44.61265170509635" lon="9.478331421450065"><ele>849.0</ele><time>2026-04-18T09:46:42Z</time></trkpt><trkpt lat="44.61276961569632" lon="9.47831595166489"><ele>851.6</ele><time>2026-04-18T09:46:43Z</time></trkpt><trkpt lat="44.6128900174972" lon="9.478259653535233"><ele>854.2</ele><time>2026-04-18T09:46:44Z</time></trkpt><trkpt lat="44.612976742795915" lon="9.478190665344"><ele>856.8000000000001</ele><time>2026-04-18T09:46:45Z</time></trkpt><trkpt lat="44.613062817099355" lon="9.478176808147438"><ele>859.4000000000001</ele><time>2026-04-18T09:46:46Z</time></trkpt><trkpt lat="44.61314390515074" lon="9.478208108297533"><ele>862.0</ele><time>2026-04-18T09:46:47Z</time></trkpt><trkpt lat="44.61321222293893" lon="9.478282511303462"><ele>862.0</ele><time>2026-04-18T09:46:48Z</time></trkpt><trkpt lat="44.613276783768114" lon="9.478364677013062"><ele>862.0</ele><time>2026-04-18T09:46:49Z</time></trkpt><trkpt lat="44.61329304907641" lon="9.47849709943425"><ele>862.0</ele><time>2026-04-18T09:46:50Z</time></trkpt><trkpt lat="44.61332710497678" lon="9.478625886393537"><ele>862.0</ele><time>2026-04-18T09:46:51Z</time></trkpt><trkpt lat="44.61333189247468" lon="9.478787753028024"><ele>862.0</ele><time>2026-04-18T09:46:52Z</time></trkpt><trkpt lat="44.61332441600655" lon="9.478952442374094"><ele>860.0</ele><time>2026-04-18T09:46:53Z</time></trkpt><trkpt lat="44.61329195419266" lon="9.479124320516952"><ele>858.0</ele><time>2026-04-18T09:46:54Z</time></trkpt><trkpt lat="44.613295392025265" lon="9.479304443680498"><ele>856.0</ele><time>2026-04-18T09:46:55Z</time></trkpt><trkpt lat="44.61333410038393" lon="9.479454930831775"><ele>854.0</ele><time>2026-04-18T09:46:56Z</time></trkpt><trkpt lat="44.61336994492392" lon="9.479600221323588"><ele>853.4000000000001</ele><time>2026-04-18T09:46:57Z</time></trkpt><trkpt lat="44.613406415355655" lon="9.479749777105008"><ele>852.8000000000001</ele><time>2026-04-18T09:46:58Z</time></trkpt><trkpt lat="44.613403424641504" lon="9.479914099591646"><ele>852.2</ele><time>2026-04-18T09:46:59Z</time></trkpt><trkpt lat="44.61340289892884" lon="9.48006659119425"><ele>851.5999999999999</ele><time>2026-04-18T09:47:00Z</time></trkpt><trkpt lat="44.613412831120804" lon="9.480212775682732"><ele>851.0</ele><time>2026-04-18T09:47:01Z</time></trkpt><trkpt lat="44.61341522063542" lon="9.480362243696742"><ele>849.0</ele><time>2026-04-18T09:47:02Z</time></trkpt><trkpt lat="44.613438763774845" lon="9.480508543972917"><ele>847.0</ele><time>2026-04-18T09:47:03Z</time></trkpt><trkpt lat="44.613492424138975" lon="9.48063587121032"><ele>845.0</ele><time>2026-04-18T09:47:04Z</time></trkpt><trkpt lat="44.61355264427304" lon="9.480745509293792"><ele>843.0</ele><time>2026-04-18T09:47:05Z</time></trkpt><trkpt lat="44.61361036813294" lon="9.480859946964426"><ele>841.0</ele><time>2026-04-18T09:47:06Z</time></trkpt><trkpt lat="44.613628389042866" lon="9.480999260313023"><ele>841.0</ele><time>2026-04-18T09:47:06.999Z</time></trkpt><trkpt lat="44.61364537325087" lon="9.481141525654257"><ele>841.0</ele><time>2026-04-18T09:47:07.999Z</time></trkpt><trkpt lat="44.61366565477845" lon="9.481309457946505"><ele>841.0</ele><time>2026-04-18T09:47:08.999Z</time></trkpt><trkpt lat="44.61364792844972" lon="9.481482504287165"><ele>841.0</ele><time>2026-04-18T09:47:09.999Z</time></trkpt><trkpt lat="44.61367366629222" lon="9.481641129508484"><ele>845.0</ele><time>2026-04-18T09:47:10.999Z</time></trkpt><trkpt lat="44.61369975146186" lon="9.481815424027985"><ele>849.0</ele><time>2026-04-18T09:47:11.999Z</time></trkpt><trkpt lat="44.613738357920674" lon="9.481982023363017"><ele>853.0</ele><time>2026-04-18T09:47:12.999Z</time></trkpt><trkpt lat="44.61374095394496" lon="9.482143521942985"><ele>857.0</ele><time>2026-04-18T09:47:13.999Z</time></trkpt><trkpt lat="44.61373549854951" lon="9.482301216513267"><ele>857.0</ele><time>2026-04-18T09:47:14.999Z</time></trkpt><trkpt lat="44.61369367571287" lon="9.482456864654436"><ele>857.0</ele><time>2026-04-18T09:47:15.999Z</time></trkpt><trkpt lat="44.61361979217747" lon="9.48259966700932"><ele>857.0</ele><time>2026-04-18T09:47:16.999Z</time></trkpt><trkpt lat="44.613576632860045" lon="9.482744052447424"><ele>857.0</ele><time>2026-04-18T09:47:17.999Z</time></trkpt><trkpt lat="44.61353887106406" lon="9.48285739231167"><ele>857.0</ele><time>2026-04-18T09:47:18.999Z</time></trkpt><trkpt lat="44.61355042062655" lon="9.48298910789081"><ele>855.75</ele><time>2026-04-18T09:47:19.999Z</time></trkpt><trkpt lat="44.61360996300594" lon="9.483128097241842"><ele>854.5</ele><time>2026-04-18T09:47:20.999Z</time></trkpt><trkpt lat="44.61370627139252" lon="9.483305919017715"><ele>853.25</ele><time>2026-04-18T09:47:21.999Z</time></trkpt><trkpt lat="44.613812060442406" lon="9.483438846355117"><ele>852.0</ele><time>2026-04-18T09:47:22.999Z</time></trkpt><trkpt lat="44.61390988297428" lon="9.483576342445179"><ele>852.0</ele><time>2026-04-18T09:47:23.999Z</time></trkpt><trkpt lat="44.613998189168775" lon="9.483706792548231"><ele>852.0</ele><time>2026-04-18T09:47:24.999Z</time></trkpt><trkpt lat="44.61409186282275" lon="9.483850401709258"><ele>852.0</ele><time>2026-04-18T09:47:25.999Z</time></trkpt><trkpt lat="44.61420565192821" lon="9.483985793801315"><ele>852.0</ele><time>2026-04-18T09:47:26.999Z</time></trkpt><trkpt lat="44.61433282488496" lon="9.484098698524944"><ele>850.0</ele><time>2026-04-18T09:47:27.999Z</time></trkpt><trkpt lat="44.61445780187818" lon="9.484195655281567"><ele>848.0</ele><time>2026-04-18T09:47:28.999Z</time></trkpt><trkpt lat="44.614580366192996" lon="9.484265583820765"><ele>846.0</ele><time>2026-04-18T09:47:29.999Z</time></trkpt><trkpt lat="44.61467564241624" lon="9.484370685792147"><ele>844.0</ele><time>2026-04-18T09:47:30.999Z</time></trkpt><trkpt lat="44.61476165278183" lon="9.484505875057366"><ele>839.5</ele><time>2026-04-18T09:47:31.999Z</time></trkpt><trkpt lat="44.614841846092865" lon="9.484682783227413"><ele>835.0</ele><time>2026-04-18T09:47:32.999Z</time></trkpt><trkpt lat="44.614931043971545" lon="9.484855044880403"><ele>830.5</ele><time>2026-04-18T09:47:33.999Z</time></trkpt><trkpt lat="44.61500796813705" lon="9.48500484996728"><ele>826.0</ele><time>2026-04-18T09:47:34.999Z</time></trkpt><trkpt lat="44.61512156780109" lon="9.485123830020482"><ele>826.0</ele><time>2026-04-18T09:47:35.999Z</time></trkpt><trkpt lat="44.615272107867064" lon="9.485218657092384"><ele>826.0</ele><time>2026-04-18T09:47:36.999Z</time></trkpt><trkpt lat="44.61544626460139" lon="9.48530558363849"><ele>826.0</ele><time>2026-04-18T09:47:37.999Z</time></trkpt><trkpt lat="44.615625207018304" lon="9.485417163882616"><ele>824.0</ele><time>2026-04-18T09:47:38.999Z</time></trkpt><trkpt lat="44.615797112654526" lon="9.485549649952574"><ele>822.0</ele><time>2026-04-18T09:47:39.999Z</time></trkpt><trkpt lat="44.61593978638701" lon="9.485704474360459"><ele>820.0</ele><time>2026-04-18T09:47:40.999Z</time></trkpt><trkpt lat="44.61607367331151" lon="9.485876949050228"><ele>820.0</ele><time>2026-04-18T09:47:41.999Z</time></trkpt><trkpt lat="44.61620815114729" lon="9.486059272729456"><ele>820.0</ele><time>2026-04-18T09:47:42.999Z</time></trkpt><trkpt lat="44.61635132212517" lon="9.486247194202235"><ele>820.0</ele><time>2026-04-18T09:47:43.999Z</time></trkpt><trkpt lat="44.616491593447556" lon="9.486417755200787"><ele>820.0</ele><time>2026-04-18T09:47:44.999Z</time></trkpt><trkpt lat="44.616625745656854" lon="9.486577808608956"><ele>820.0</ele><time>2026-04-18T09:47:45.999Z</time></trkpt><trkpt lat="44.61672552482905" lon="9.486780925523666"><ele>820.0</ele><time>2026-04-18T09:47:46.999Z</time></trkpt><trkpt lat="44.616809612926666" lon="9.48699869609935"><ele>822.0</ele><time>2026-04-18T09:47:47.999Z</time></trkpt><trkpt lat="44.61688022139368" lon="9.48721286895706"><ele>824.0</ele><time>2026-04-18T09:47:48.999Z</time></trkpt><trkpt lat="44.616939219734064" lon="9.487391458664362"><ele>826.0</ele><time>2026-04-18T09:47:49.999Z</time></trkpt><trkpt lat="44.61701086148297" lon="9.487547785119055"><ele>828.0</ele><time>2026-04-18T09:47:50.999Z</time></trkpt><trkpt lat="44.61710421961829" lon="9.48768721911213"><ele>828.0</ele><time>2026-04-18T09:47:51.999Z</time></trkpt><trkpt lat="44.61721901187066" lon="9.487841885643428"><ele>828.0</ele><time>2026-04-18T09:47:52.999Z</time></trkpt><trkpt lat="44.617332301323174" lon="9.487993757641371"><ele>828.0</ele><time>2026-04-18T09:47:53.999Z</time></trkpt><trkpt lat="44.617442015337566" lon="9.488113230286753"><ele>825.0</ele><time>2026-04-18T09:47:54.999Z</time></trkpt><trkpt lat="44.617541456747006" lon="9.488223462416359"><ele>822.0</ele><time>2026-04-18T09:47:55.999Z</time></trkpt><trkpt lat="44.617596560674286" lon="9.488385478975113"><ele>819.0</ele><time>2026-04-18T09:47:56.999Z</time></trkpt><trkpt lat="44.61760534784221" lon="9.488581541657181"><ele>816.0</ele><time>2026-04-18T09:47:57.999Z</time></trkpt><trkpt lat="44.61758906228952" lon="9.488789733348396"><ele>813.75</ele><time>2026-04-18T09:47:58.999Z</time></trkpt><trkpt lat="44.61753238470012" lon="9.48901463822635"><ele>811.5</ele><time>2026-04-18T09:47:59.999Z</time></trkpt><trkpt lat="44.61747777183448" lon="9.489199551598038"><ele>809.25</ele><time>2026-04-18T09:48:00.999Z</time></trkpt><trkpt lat="44.61743509501257" lon="9.489370375305187"><ele>807.0</ele><time>2026-04-18T09:48:01.999Z</time></trkpt><trkpt lat="44.6174076959686" lon="9.489540060449169"><ele>804.75</ele><time>2026-04-18T09:48:03Z</time></trkpt><trkpt lat="44.61740776512788" lon="9.48971391578364"><ele>802.5</ele><time>2026-04-18T09:48:04Z</time></trkpt><trkpt lat="44.617455229995045" lon="9.489893806348116"><ele>800.25</ele><time>2026-04-18T09:48:05Z</time></trkpt><trkpt lat="44.617532373576225" lon="9.49004753205313"><ele>798.0</ele><time>2026-04-18T09:48:06Z</time></trkpt><trkpt lat="44.61761868571037" lon="9.490186515011763"><ele>798.0</ele><time>2026-04-18T09:48:07Z</time></trkpt><trkpt lat="44.61776045677498" lon="9.49025469565749"><ele>798.0</ele><time>2026-04-18T09:48:08Z</time></trkpt><trkpt lat="44.61788984811654" lon="9.490286436359778"><ele>798.0</ele><time>2026-04-18T09:48:09Z</time></trkpt><trkpt lat="44.61803684361978" lon="9.490269311094812"><ele>798.0</ele><time>2026-04-18T09:48:10Z</time></trkpt><trkpt lat="44.61820228193075" lon="9.490212551929353"><ele>796.6666666666667</ele><time>2026-04-18T09:48:11Z</time></trkpt><trkpt lat="44.61838013432716" lon="9.490179746332872"><ele>795.3333333333334</ele><time>2026-04-18T09:48:12Z</time></trkpt><trkpt lat="44.61857718435664" lon="9.49012343714305"><ele>794.0</ele><time>2026-04-18T09:48:13Z</time></trkpt><trkpt lat="44.61876657688775" lon="9.490042408957757"><ele>794.0</ele><time>2026-04-18T09:48:14Z</time></trkpt><trkpt lat="44.61893415729326" lon="9.489977264076979"><ele>794.0</ele><time>2026-04-18T09:48:15Z</time></trkpt><trkpt lat="44.619075655515054" lon="9.489902991823474"><ele>794.0</ele><time>2026-04-18T09:48:16Z</time></trkpt><trkpt lat="44.61921086034015" lon="9.489824423200657"><ele>794.0</ele><time>2026-04-18T09:48:17Z</time></trkpt><trkpt lat="44.61935414757333" lon="9.48981827812974"><ele>794.0</ele><time>2026-04-18T09:48:18Z</time></trkpt><trkpt lat="44.61951005043575" lon="9.489862352693645"><ele>794.0</ele><time>2026-04-18T09:48:19Z</time></trkpt><trkpt lat="44.6196854829415" lon="9.489920555107489"><ele>792.0</ele><time>2026-04-18T09:48:20Z</time></trkpt><trkpt lat="44.61987630355481" lon="9.48993561634369"><ele>790.0</ele><time>2026-04-18T09:48:21Z</time></trkpt><trkpt lat="44.62008322604185" lon="9.489969507687873"><ele>788.0</ele><time>2026-04-18T09:48:22Z</time></trkpt><trkpt lat="44.6202734425139" lon="9.490004507371069"><ele>787.3333333333334</ele><time>2026-04-18T09:48:23Z</time></trkpt><trkpt lat="44.62044967599313" lon="9.49002776878208"><ele>786.6666666666667</ele><time>2026-04-18T09:48:24Z</time></trkpt><trkpt lat="44.620621176124914" lon="9.490038580904638"><ele>786.0</ele><time>2026-04-18T09:48:25Z</time></trkpt><trkpt lat="44.62078426986977" lon="9.490027771414265"><ele>786.0</ele><time>2026-04-18T09:48:26Z</time></trkpt><trkpt lat="44.620932131749306" lon="9.490003842496899"><ele>786.0</ele><time>2026-04-18T09:48:27Z</time></trkpt><trkpt lat="44.62108002800794" lon="9.489997994374995"><ele>786.0</ele><time>2026-04-18T09:48:28Z</time></trkpt><trkpt lat="44.62121705408268" lon="9.489978254901793"><ele>786.0</ele><time>2026-04-18T09:48:29Z</time></trkpt><trkpt lat="44.6213464877053" lon="9.48997504528575"><ele>785.25</ele><time>2026-04-18T09:48:30Z</time></trkpt><trkpt lat="44.621469637414116" lon="9.49002534581879"><ele>784.5</ele><time>2026-04-18T09:48:31Z</time></trkpt><trkpt lat="44.6215900501131" lon="9.490083981120856"><ele>783.75</ele><time>2026-04-18T09:48:32Z</time></trkpt><trkpt lat="44.621686196622534" lon="9.490203689870498"><ele>783.0</ele><time>2026-04-18T09:48:33Z</time></trkpt><trkpt lat="44.6217899113127" lon="9.490367220919829"><ele>781.3333333333333</ele><time>2026-04-18T09:48:34Z</time></trkpt><trkpt lat="44.621899349890185" lon="9.490541954881396"><ele>779.6666666666666</ele><time>2026-04-18T09:48:35Z</time></trkpt><trkpt lat="44.62199078504593" lon="9.490699457440169"><ele>778.0</ele><time>2026-04-18T09:48:36Z</time></trkpt><trkpt lat="44.62210632243804" lon="9.490810807107902"><ele>778.0</ele><time>2026-04-18T09:48:37Z</time></trkpt><trkpt lat="44.622232391311115" lon="9.49091486112483"><ele>778.0</ele><time>2026-04-18T09:48:38Z</time></trkpt><trkpt lat="44.62237898108832" lon="9.491032066688565"><ele>778.0</ele><time>2026-04-18T09:48:39Z</time></trkpt><trkpt lat="44.62252982715323" lon="9.491154600446476"><ele>774.75</ele><time>2026-04-18T09:48:40Z</time></trkpt><trkpt lat="44.622657514738314" lon="9.491280169909949"><ele>771.5</ele><time>2026-04-18T09:48:41Z</time></trkpt><trkpt lat="44.6227642143616" lon="9.491412315683709"><ele>768.25</ele><time>2026-04-18T09:48:42Z</time></trkpt><trkpt lat="44.62286619586183" lon="9.491533340068324"><ele>765.0</ele><time>2026-04-18T09:48:43Z</time></trkpt><trkpt lat="44.622968606476846" lon="9.491653593886065"><ele>765.0</ele><time>2026-04-18T09:48:44Z</time></trkpt><trkpt lat="44.62308023316304" lon="9.491753347872"><ele>765.0</ele><time>2026-04-18T09:48:45Z</time></trkpt><trkpt lat="44.623177890757944" lon="9.491854091190607"><ele>765.0</ele><time>2026-04-18T09:48:46Z</time></trkpt><trkpt lat="44.6232961050473" lon="9.491920449280245"><ele>765.0</ele><time>2026-04-18T09:48:47Z</time></trkpt><trkpt lat="44.623449280273185" lon="9.491948643602349"><ele>765.0</ele><time>2026-04-18T09:48:48Z</time></trkpt><trkpt lat="44.62361340447831" lon="9.491948652245965"><ele>765.0</ele><time>2026-04-18T09:48:49Z</time></trkpt><trkpt lat="44.6237911791793" lon="9.491937655958793"><ele>765.0</ele><time>2026-04-18T09:48:50Z</time></trkpt><trkpt lat="44.62397377295532" lon="9.4919699649873"><ele>765.0</ele><time>2026-04-18T09:48:51Z</time></trkpt><trkpt lat="44.62414355302832" lon="9.491956538480354"><ele>765.0</ele><time>2026-04-18T09:48:52Z</time></trkpt><trkpt lat="44.62430067676899" lon="9.491969177222632"><ele>765.0</ele><time>2026-04-18T09:48:53Z</time></trkpt><trkpt lat="44.624447099430746" lon="9.491974910881376"><ele>763.0</ele><time>2026-04-18T09:48:54Z</time></trkpt><trkpt lat="44.62459506145021" lon="9.49198178924739"><ele>761.0</ele><time>2026-04-18T09:48:55Z</time></trkpt><trkpt lat="44.624755072601744" lon="9.491988004863822"><ele>759.0</ele><time>2026-04-18T09:48:56Z</time></trkpt><trkpt lat="44.62489934573987" lon="9.491996858995757"><ele>759.0</ele><time>2026-04-18T09:48:57Z</time></trkpt><trkpt lat="44.62503141807742" lon="9.492008738550178"><ele>759.0</ele><time>2026-04-18T09:48:58Z</time></trkpt><trkpt lat="44.6251420980194" lon="9.491979722241323"><ele>759.0</ele><time>2026-04-18T09:48:59Z</time></trkpt><trkpt lat="44.625233122394874" lon="9.491899526968908"><ele>759.0</ele><time>2026-04-18T09:49:00Z</time></trkpt><trkpt lat="44.6252933823837" lon="9.49176908984208"><ele>759.0</ele><time>2026-04-18T09:49:01Z</time></trkpt><trkpt lat="44.62531257907435" lon="9.491566660748138"><ele>759.0</ele><time>2026-04-18T09:49:02Z</time></trkpt><trkpt lat="44.62531850061602" lon="9.491384921731235"><ele>759.0</ele><time>2026-04-18T09:49:03Z</time></trkpt><trkpt lat="44.62532829599036" lon="9.491241618914012"><ele>759.0</ele><time>2026-04-18T09:49:04Z</time></trkpt><trkpt lat="44.625387636113274" lon="9.491118031078688"><ele>759.0</ele><time>2026-04-18T09:49:05Z</time></trkpt><trkpt lat="44.625478570377155" lon="9.491032999676062"><ele>759.0</ele><time>2026-04-18T09:49:06Z</time></trkpt><trkpt lat="44.625581038089365" lon="9.491012231917754"><ele>759.0</ele><time>2026-04-18T09:49:07Z</time></trkpt><trkpt lat="44.62567126690537" lon="9.491035403825641"><ele>759.0</ele><time>2026-04-18T09:49:08Z</time></trkpt><trkpt lat="44.62575332524701" lon="9.491123501911453"><ele>759.0</ele><time>2026-04-18T09:49:09Z</time></trkpt><trkpt lat="44.62581540605151" lon="9.491284096564385"><ele>759.0</ele><time>2026-04-18T09:49:10Z</time></trkpt><trkpt lat="44.62584417485814" lon="9.491471629638097"><ele>759.0</ele><time>2026-04-18T09:49:10.999Z</time></trkpt><trkpt lat="44.62585243705532" lon="9.491691394863556"><ele>759.0</ele><time>2026-04-18T09:49:11.999Z</time></trkpt><trkpt lat="44.625866339490194" lon="9.491889814737489"><ele>759.0</ele><time>2026-04-18T09:49:12.999Z</time></trkpt><trkpt lat="44.62591657913776" lon="9.492070372221464"><ele>755.0</ele><time>2026-04-18T09:49:13.999Z</time></trkpt><trkpt lat="44.62600130358102" lon="9.49224977826709"><ele>751.0</ele><time>2026-04-18T09:49:14.999Z</time></trkpt><trkpt lat="44.6260748446845" lon="9.492415508523017"><ele>747.0</ele><time>2026-04-18T09:49:15.999Z</time></trkpt><trkpt lat="44.62610898031588" lon="9.492623239612849"><ele>743.0</ele><time>2026-04-18T09:49:16.999Z</time></trkpt><trkpt lat="44.62612307758128" lon="9.492870592286678"><ele>739.6666666666666</ele><time>2026-04-18T09:49:17.999Z</time></trkpt><trkpt lat="44.62612453348806" lon="9.493116533789905"><ele>736.3333333333334</ele><time>2026-04-18T09:49:18.999Z</time></trkpt><trkpt lat="44.62612953415542" lon="9.493331469832782"><ele>733.0</ele><time>2026-04-18T09:49:19.999Z</time></trkpt><trkpt lat="44.62611435392447" lon="9.493512717030931"><ele>733.0</ele><time>2026-04-18T09:49:20.999Z</time></trkpt><trkpt lat="44.62613166880835" lon="9.49365841367409"><ele>733.0</ele><time>2026-04-18T09:49:21.999Z</time></trkpt><trkpt lat="44.62614903364248" lon="9.493785735918323"><ele>733.0</ele><time>2026-04-18T09:49:22.999Z</time></trkpt><trkpt lat="44.626210873492646" lon="9.493896034945237"><ele>733.0</ele><time>2026-04-18T09:49:23.999Z</time></trkpt><trkpt lat="44.62631542370149" lon="9.493968261174656"><ele>733.0</ele><time>2026-04-18T09:49:24.999Z</time></trkpt><trkpt lat="44.62644852606798" lon="9.49400858533192"><ele>733.5</ele><time>2026-04-18T09:49:25.999Z</time></trkpt><trkpt lat="44.62659625962044" lon="9.49402265062119"><ele>734.0</ele><time>2026-04-18T09:49:26.999Z</time></trkpt><trkpt lat="44.62673728862969" lon="9.494079348026991"><ele>734.5</ele><time>2026-04-18T09:49:27.999Z</time></trkpt><trkpt lat="44.626833754166256" lon="9.494222847029013"><ele>735.0</ele><time>2026-04-18T09:49:28.999Z</time></trkpt><trkpt lat="44.62693248317185" lon="9.494283232094013"><ele>731.25</ele><time>2026-04-18T09:49:29.999Z</time></trkpt><trkpt lat="44.627031406162466" lon="9.494333516572057"><ele>727.5</ele><time>2026-04-18T09:49:30.999Z</time></trkpt><trkpt lat="44.62713945252061" lon="9.494311959516105"><ele>723.75</ele><time>2026-04-18T09:49:31.999Z</time></trkpt><trkpt lat="44.627240008381065" lon="9.494222392204016"><ele>720.0</ele><time>2026-04-18T09:49:32.999Z</time></trkpt><trkpt lat="44.62731347879406" lon="9.49407897148441"><ele>720.0</ele><time>2026-04-18T09:49:33.999Z</time></trkpt><trkpt lat="44.627371471010775" lon="9.493903270425394"><ele>720.0</ele><time>2026-04-18T09:49:34.999Z</time></trkpt><trkpt lat="44.62743997794921" lon="9.49375424942906"><ele>720.0</ele><time>2026-04-18T09:49:35.999Z</time></trkpt><trkpt lat="44.627568523683095" lon="9.493711730359488"><ele>720.0</ele><time>2026-04-18T09:49:36.999Z</time></trkpt><trkpt lat="44.627701632365735" lon="9.49367302817278"><ele>719.75</ele><time>2026-04-18T09:49:37.999Z</time></trkpt><trkpt lat="44.62784526583983" lon="9.493618653651875"><ele>719.5</ele><time>2026-04-18T09:49:38.999Z</time></trkpt><trkpt lat="44.62796967926165" lon="9.493592605214594"><ele>719.25</ele><time>2026-04-18T09:49:39.999Z</time></trkpt><trkpt lat="44.62807211665267" lon="9.493550011380268"><ele>719.0</ele><time>2026-04-18T09:49:40.999Z</time></trkpt><trkpt lat="44.62816433092253" lon="9.493468592469434"><ele>719.0</ele><time>2026-04-18T09:49:41.999Z</time></trkpt><trkpt lat="44.628235315799756" lon="9.49331089282995"><ele>719.0</ele><time>2026-04-18T09:49:42.999Z</time></trkpt><trkpt lat="44.62828281628603" lon="9.493154999882531"><ele>719.0</ele><time>2026-04-18T09:49:43.999Z</time></trkpt><trkpt lat="44.628343157747395" lon="9.493015293471885"><ele>719.0</ele><time>2026-04-18T09:49:44.999Z</time></trkpt><trkpt lat="44.62846449816996" lon="9.492928023488076"><ele>717.3333333333333</ele><time>2026-04-18T09:49:45.999Z</time></trkpt><trkpt lat="44.62861036937986" lon="9.49285935609068"><ele>715.6666666666666</ele><time>2026-04-18T09:49:46.999Z</time></trkpt><trkpt lat="44.62873523547821" lon="9.492722471341182"><ele>714.0</ele><time>2026-04-18T09:49:47.999Z</time></trkpt><trkpt lat="44.62879639663027" lon="9.492534009087656"><ele>714.0</ele><time>2026-04-18T09:49:48.999Z</time></trkpt><trkpt lat="44.628853494840456" lon="9.492376905102889"><ele>714.0</ele><time>2026-04-18T09:49:49.999Z</time></trkpt><trkpt lat="44.628894506379005" lon="9.492250457057565"><ele>714.0</ele><time>2026-04-18T09:49:50.999Z</time></trkpt><trkpt lat="44.628958225814436" lon="9.492146704489778"><ele>714.0</ele><time>2026-04-18T09:49:51.999Z</time></trkpt><trkpt lat="44.629053269729134" lon="9.492096803247922"><ele>714.0</ele><time>2026-04-18T09:49:52.999Z</time></trkpt><trkpt lat="44.629171113345734" lon="9.49212651916657"><ele>714.0</ele><time>2026-04-18T09:49:53.999Z</time></trkpt><trkpt lat="44.62930817866973" lon="9.49217649325028"><ele>714.0</ele><time>2026-04-18T09:49:54.999Z</time></trkpt><trkpt lat="44.62945643697612" lon="9.492255237797677"><ele>714.0</ele><time>2026-04-18T09:49:55.999Z</time></trkpt><trkpt lat="44.62962607211117" lon="9.492329522216616"><ele>714.0</ele><time>2026-04-18T09:49:56.999Z</time></trkpt><trkpt lat="44.629785978930194" lon="9.492415796163607"><ele>714.0</ele><time>2026-04-18T09:49:57.999Z</time></trkpt><trkpt lat="44.62992498543381" lon="9.492484780667073"><ele>714.0</ele><time>2026-04-18T09:49:58.999Z</time></trkpt><trkpt lat="44.63003445311148" lon="9.492540058295091"><ele>714.0</ele><time>2026-04-18T09:49:59.999Z</time></trkpt><trkpt lat="44.63012759244985" lon="9.49259091522933"><ele>714.0</ele><time>2026-04-18T09:50:00.999Z</time></trkpt><trkpt lat="44.63021681841897" lon="9.492631194638715"><ele>714.0</ele><time>2026-04-18T09:50:01.999Z</time></trkpt><trkpt lat="44.63030835731657" lon="9.492655638352632"><ele>714.0</ele><time>2026-04-18T09:50:02.999Z</time></trkpt><trkpt lat="44.63042082267281" lon="9.492659485741079"><ele>714.0</ele><time>2026-04-18T09:50:03.999Z</time></trkpt><trkpt lat="44.630547968922464" lon="9.492645368686397"><ele>714.0</ele><time>2026-04-18T09:50:04.999Z</time></trkpt><trkpt lat="44.63068505461697" lon="9.492629850546471"><ele>713.75</ele><time>2026-04-18T09:50:05.999Z</time></trkpt><trkpt lat="44.63081827072569" lon="9.492623914349018"><ele>713.5</ele><time>2026-04-18T09:50:06.999Z</time></trkpt><trkpt lat="44.63093915174679" lon="9.492620902930327"><ele>713.25</ele><time>2026-04-18T09:50:07.999Z</time></trkpt><trkpt lat="44.63105953331398" lon="9.492612895886325"><ele>713.0</ele><time>2026-04-18T09:50:09Z</time></trkpt><trkpt lat="44.631178382647015" lon="9.492621792506423"><ele>710.75</ele><time>2026-04-18T09:50:10Z</time></trkpt><trkpt lat="44.631294888085925" lon="9.492676350797844"><ele>708.5</ele><time>2026-04-18T09:50:11Z</time></trkpt><trkpt lat="44.6313748335033" lon="9.492810728368347"><ele>706.25</ele><time>2026-04-18T09:50:12Z</time></trkpt><trkpt lat="44.631415689063076" lon="9.492970001921979"><ele>704.0</ele><time>2026-04-18T09:50:13Z</time></trkpt><trkpt lat="44.63147608842414" lon="9.493149526902448"><ele>704.0</ele><time>2026-04-18T09:50:14Z</time></trkpt><trkpt lat="44.631540112519424" lon="9.493286827915734"><ele>704.0</ele><time>2026-04-18T09:50:15Z</time></trkpt><trkpt lat="44.631628116813395" lon="9.493394657674417"><ele>704.0</ele><time>2026-04-18T09:50:16Z</time></trkpt><trkpt lat="44.631773707081294" lon="9.49347874984546"><ele>704.0</ele><time>2026-04-18T09:50:17Z</time></trkpt><trkpt lat="44.63192829023612" lon="9.493549518555048"><ele>706.6666666666666</ele><time>2026-04-18T09:50:18Z</time></trkpt><trkpt lat="44.63207091713987" lon="9.493675175564942"><ele>709.3333333333334</ele><time>2026-04-18T09:50:19Z</time></trkpt><trkpt lat="44.632200828123544" lon="9.49381743696406"><ele>712.0</ele><time>2026-04-18T09:50:20Z</time></trkpt><trkpt lat="44.63231343917425" lon="9.493949605152245"><ele>708.0</ele><time>2026-04-18T09:50:21Z</time></trkpt><trkpt lat="44.63240403694891" lon="9.494118872957515"><ele>704.0</ele><time>2026-04-18T09:50:22Z</time></trkpt><trkpt lat="44.632480302714875" lon="9.494290843919016"><ele>700.0</ele><time>2026-04-18T09:50:23Z</time></trkpt><trkpt lat="44.632541158112154" lon="9.494470002637993"><ele>696.0</ele><time>2026-04-18T09:50:24Z</time></trkpt><trkpt lat="44.6325958065506" lon="9.494672443105914"><ele>693.0</ele><time>2026-04-18T09:50:25Z</time></trkpt><trkpt lat="44.6325997944966" lon="9.494885578635309"><ele>690.0</ele><time>2026-04-18T09:50:26Z</time></trkpt><trkpt lat="44.632637043312634" lon="9.495039782906789"><ele>687.0</ele><time>2026-04-18T09:50:27Z</time></trkpt><trkpt lat="44.632661740217074" lon="9.495171068841863"><ele>684.0</ele><time>2026-04-18T09:50:28Z</time></trkpt><trkpt lat="44.63273389670752" lon="9.495274577079744"><ele>684.0</ele><time>2026-04-18T09:50:29Z</time></trkpt><trkpt lat="44.632834525946095" lon="9.495340921427063"><ele>684.0</ele><time>2026-04-18T09:50:30Z</time></trkpt><trkpt lat="44.63295102425459" lon="9.495325880657022"><ele>684.0</ele><time>2026-04-18T09:50:31Z</time></trkpt><trkpt lat="44.633073691541824" lon="9.495255791084412"><ele>684.0</ele><time>2026-04-18T09:50:32Z</time></trkpt><trkpt lat="44.63319248258857" lon="9.49511836258552"><ele>684.0</ele><time>2026-04-18T09:50:33Z</time></trkpt><trkpt lat="44.633295847192066" lon="9.494962504509344"><ele>684.0</ele><time>2026-04-18T09:50:34Z</time></trkpt><trkpt lat="44.633412208617095" lon="9.494797883448777"><ele>684.0</ele><time>2026-04-18T09:50:35Z</time></trkpt><trkpt lat="44.63353018201465" lon="9.494648803177775"><ele>682.5</ele><time>2026-04-18T09:50:36Z</time></trkpt><trkpt lat="44.63363516372287" lon="9.494506482715394"><ele>681.0</ele><time>2026-04-18T09:50:37Z</time></trkpt><trkpt lat="44.63374455257699" lon="9.494369086960663"><ele>679.5</ele><time>2026-04-18T09:50:38Z</time></trkpt><trkpt lat="44.63384549736823" lon="9.49424591858469"><ele>678.0</ele><time>2026-04-18T09:50:39Z</time></trkpt><trkpt lat="44.63392249134786" lon="9.494136611655744"><ele>678.0</ele><time>2026-04-18T09:50:40Z</time></trkpt><trkpt lat="44.633970764976794" lon="9.494040130074115"><ele>678.0</ele><time>2026-04-18T09:50:41Z</time></trkpt><trkpt lat="44.63400066050397" lon="9.493938617178165"><ele>678.0</ele><time>2026-04-18T09:50:42Z</time></trkpt><trkpt lat="44.63401168906545" lon="9.493818778143986"><ele>678.0</ele><time>2026-04-18T09:50:43Z</time></trkpt><trkpt lat="44.63403216318717" lon="9.493696524908454"><ele>678.0</ele><time>2026-04-18T09:50:44Z</time></trkpt><trkpt lat="44.634083057723934" lon="9.493584359649752"><ele>678.0</ele><time>2026-04-18T09:50:45Z</time></trkpt><trkpt lat="44.6341891985901" lon="9.493542750382591"><ele>678.4</ele><time>2026-04-18T09:50:46Z</time></trkpt><trkpt lat="44.63428736539774" lon="9.493443785439029"><ele>678.8</ele><time>2026-04-18T09:50:47Z</time></trkpt><trkpt lat="44.63438735644713" lon="9.49345209046623"><ele>679.2</ele><time>2026-04-18T09:50:48Z</time></trkpt><trkpt lat="44.63449087081211" lon="9.49344835198518"><ele>679.6</ele><time>2026-04-18T09:50:49Z</time></trkpt><trkpt lat="44.63460799534873" lon="9.493419611923812"><ele>680.0</ele><time>2026-04-18T09:50:50Z</time></trkpt><trkpt lat="44.6347101470222" lon="9.4934130899143"><ele>679.0</ele><time>2026-04-18T09:50:51Z</time></trkpt><trkpt lat="44.63480828040933" lon="9.493394856784844"><ele>678.0</ele><time>2026-04-18T09:50:52Z</time></trkpt><trkpt lat="44.63491585813706" lon="9.49337213772972"><ele>677.0</ele><time>2026-04-18T09:50:53Z</time></trkpt><trkpt lat="44.63503309711698" lon="9.493359770269674"><ele>676.0</ele><time>2026-04-18T09:50:54Z</time></trkpt><trkpt lat="44.635148279542456" lon="9.493378894774244"><ele>675.0</ele><time>2026-04-18T09:50:55Z</time></trkpt><trkpt lat="44.63524918859637" lon="9.493421330389303"><ele>675.5</ele><time>2026-04-18T09:50:56Z</time></trkpt><trkpt lat="44.63534318685136" lon="9.493531926973581"><ele>676.0</ele><time>2026-04-18T09:50:57Z</time></trkpt><trkpt lat="44.63544672140357" lon="9.49364610745081"><ele>676.5</ele><time>2026-04-18T09:50:58Z</time></trkpt><trkpt lat="44.63555206945406" lon="9.493748480088737"><ele>677.0</ele><time>2026-04-18T09:50:59Z</time></trkpt><trkpt lat="44.63564209531997" lon="9.493808927940414"><ele>677.0</ele><time>2026-04-18T09:51:00Z</time></trkpt><trkpt lat="44.6357438640717" lon="9.493819581632422"><ele>677.0</ele><time>2026-04-18T09:51:01Z</time></trkpt><trkpt lat="44.63585348616757" lon="9.493783297451348"><ele>677.0</ele><time>2026-04-18T09:51:02Z</time></trkpt><trkpt lat="44.63596889135443" lon="9.493707139506947"><ele>677.0</ele><time>2026-04-18T09:51:03Z</time></trkpt><trkpt lat="44.63609197540231" lon="9.493625458740121"><ele>676.5</ele><time>2026-04-18T09:51:04Z</time></trkpt><trkpt lat="44.63621783827955" lon="9.493596616752887"><ele>676.0</ele><time>2026-04-18T09:51:05Z</time></trkpt><trkpt lat="44.63634303320833" lon="9.493573919209467"><ele>675.5</ele><time>2026-04-18T09:51:06Z</time></trkpt><trkpt lat="44.636483407019185" lon="9.49357990927832"><ele>675.0</ele><time>2026-04-18T09:51:07Z</time></trkpt><trkpt lat="44.6366151476379" lon="9.493595683639523"><ele>675.0</ele><time>2026-04-18T09:51:08Z</time></trkpt><trkpt lat="44.63673427047042" lon="9.493633710072764"><ele>675.0</ele><time>2026-04-18T09:51:09Z</time></trkpt><trkpt lat="44.63684781071642" lon="9.493701258143021"><ele>675.0</ele><time>2026-04-18T09:51:10Z</time></trkpt><trkpt lat="44.63696542054534" lon="9.493812167241023"><ele>675.0</ele><time>2026-04-18T09:51:11Z</time></trkpt><trkpt lat="44.63708441941306" lon="9.493938577047194"><ele>671.0</ele><time>2026-04-18T09:51:12Z</time></trkpt><trkpt lat="44.63719372093915" lon="9.494060266532987"><ele>667.0</ele><time>2026-04-18T09:51:12.999Z</time></trkpt><trkpt lat="44.6372914980988" lon="9.49417211947412"><ele>663.0</ele><time>2026-04-18T09:51:13.999Z</time></trkpt><trkpt lat="44.63738192187386" lon="9.494284760323158"><ele>659.0</ele><time>2026-04-18T09:51:14.999Z</time></trkpt><trkpt lat="44.63748312942497" lon="9.494377271498461"><ele>659.0</ele><time>2026-04-18T09:51:15.999Z</time></trkpt><trkpt lat="44.63758575965037" lon="9.49448922238264"><ele>659.0</ele><time>2026-04-18T09:51:16.999Z</time></trkpt><trkpt lat="44.63768977256196" lon="9.49456656733934"><ele>659.0</ele><time>2026-04-18T09:51:17.999Z</time></trkpt><trkpt lat="44.637795776634924" lon="9.494613565741515"><ele>659.0</ele><time>2026-04-18T09:51:18.999Z</time></trkpt><trkpt lat="44.63790878860103" lon="9.494660208610412"><ele>656.5</ele><time>2026-04-18T09:51:19.999Z</time></trkpt><trkpt lat="44.63803937892985" lon="9.49471196506463"><ele>654.0</ele><time>2026-04-18T09:51:20.999Z</time></trkpt><trkpt lat="44.63817152239386" lon="9.494777439306677"><ele>651.5</ele><time>2026-04-18T09:51:21.999Z</time></trkpt><trkpt lat="44.63830514107734" lon="9.494847493706661"><ele>649.0</ele><time>2026-04-18T09:51:22.999Z</time></trkpt><trkpt lat="44.638427042287205" lon="9.494906700801224"><ele>649.0</ele><time>2026-04-18T09:51:23.999Z</time></trkpt><trkpt lat="44.638542793664094" lon="9.494956755058784"><ele>649.0</ele><time>2026-04-18T09:51:24.999Z</time></trkpt><trkpt lat="44.638650920702524" lon="9.495004253193803"><ele>649.0</ele><time>2026-04-18T09:51:25.999Z</time></trkpt><trkpt lat="44.63875913210899" lon="9.495030596189185"><ele>649.0</ele><time>2026-04-18T09:51:26.999Z</time></trkpt><trkpt lat="44.63887915641473" lon="9.49501998738017"><ele>647.5</ele><time>2026-04-18T09:51:27.999Z</time></trkpt><trkpt lat="44.63901250364837" lon="9.494990919983556"><ele>646.0</ele><time>2026-04-18T09:51:28.999Z</time></trkpt><trkpt lat="44.639148897817776" lon="9.494952687724682"><ele>644.5</ele><time>2026-04-18T09:51:29.999Z</time></trkpt><trkpt lat="44.639291030446714" lon="9.494904466077598"><ele>643.0</ele><time>2026-04-18T09:51:30.999Z</time></trkpt><trkpt lat="44.63944159953405" lon="9.49484967798404"><ele>641.75</ele><time>2026-04-18T09:51:31.999Z</time></trkpt><trkpt lat="44.6395834285599" lon="9.49479194046129"><ele>640.5</ele><time>2026-04-18T09:51:32.999Z</time></trkpt><trkpt lat="44.63971140460366" lon="9.494732187047795"><ele>639.25</ele><time>2026-04-18T09:51:33.999Z</time></trkpt><trkpt lat="44.6398329233648" lon="9.494683055748103"><ele>638.0</ele><time>2026-04-18T09:51:34.999Z</time></trkpt><trkpt lat="44.63996683952591" lon="9.494632139980393"><ele>644.0</ele><time>2026-04-18T09:51:35.999Z</time></trkpt><trkpt lat="44.64012020777377" lon="9.49458365559105"><ele>650.0</ele><time>2026-04-18T09:51:36.999Z</time></trkpt><trkpt lat="44.64028238276432" lon="9.494568533927794"><ele>656.0</ele><time>2026-04-18T09:51:37.999Z</time></trkpt><trkpt lat="44.640443139395494" lon="9.494581343972865"><ele>652.0</ele><time>2026-04-18T09:51:38.999Z</time></trkpt><trkpt lat="44.6405933448361" lon="9.494598921764922"><ele>648.0</ele><time>2026-04-18T09:51:39.999Z</time></trkpt><trkpt lat="44.640724888450464" lon="9.49462464671119"><ele>644.0</ele><time>2026-04-18T09:51:40.999Z</time></trkpt><trkpt lat="44.640856539531335" lon="9.494675162364322"><ele>640.0</ele><time>2026-04-18T09:51:41.999Z</time></trkpt><trkpt lat="44.6409789470185" lon="9.494807256378238"><ele>640.0</ele><time>2026-04-18T09:51:42.999Z</time></trkpt><trkpt lat="44.641119923753294" lon="9.49494311447057"><ele>640.0</ele><time>2026-04-18T09:51:43.999Z</time></trkpt><trkpt lat="44.64126587518048" lon="9.49507020979242"><ele>640.0</ele><time>2026-04-18T09:51:44.999Z</time></trkpt><trkpt lat="44.64143477818837" lon="9.495200739667776"><ele>637.0</ele><time>2026-04-18T09:51:45.999Z</time></trkpt><trkpt lat="44.641601969058655" lon="9.495322070338952"><ele>634.0</ele><time>2026-04-18T09:51:46.999Z</time></trkpt><trkpt lat="44.64175672803896" lon="9.495432019166753"><ele>631.0</ele><time>2026-04-18T09:51:47.999Z</time></trkpt><trkpt lat="44.6419001724926" lon="9.495549962075543"><ele>636.3333333333334</ele><time>2026-04-18T09:51:48.999Z</time></trkpt><trkpt lat="44.64204776411018" lon="9.495667561996168"><ele>641.6666666666666</ele><time>2026-04-18T09:51:49.999Z</time></trkpt><trkpt lat="44.64219643246861" lon="9.49579202706318"><ele>647.0</ele><time>2026-04-18T09:51:50.999Z</time></trkpt><trkpt lat="44.6423442020113" lon="9.49593129043615"><ele>647.0</ele><time>2026-04-18T09:51:51.999Z</time></trkpt><trkpt lat="44.64247659719083" lon="9.49610475274622"><ele>647.0</ele><time>2026-04-18T09:51:52.999Z</time></trkpt><trkpt lat="44.64258044131314" lon="9.49629822924925"><ele>647.0</ele><time>2026-04-18T09:51:53.999Z</time></trkpt><trkpt lat="44.642675242284874" lon="9.496459594559424"><ele>644.5</ele><time>2026-04-18T09:51:54.999Z</time></trkpt><trkpt lat="44.642778367510886" lon="9.496588845154164"><ele>642.0</ele><time>2026-04-18T09:51:55.999Z</time></trkpt><trkpt lat="44.642900969864755" lon="9.496683019825982"><ele>639.5</ele><time>2026-04-18T09:51:56.999Z</time></trkpt><trkpt lat="44.64305020834648" lon="9.496776013513616"><ele>637.0</ele><time>2026-04-18T09:51:57.999Z</time></trkpt><trkpt lat="44.64319053296535" lon="9.496881011561594"><ele>637.0</ele><time>2026-04-18T09:51:58.999Z</time></trkpt><trkpt lat="44.64330404614094" lon="9.496987187029468"><ele>637.0</ele><time>2026-04-18T09:51:59.999Z</time></trkpt><trkpt lat="44.64340904756815" lon="9.49709725585459"><ele>637.0</ele><time>2026-04-18T09:52:00.999Z</time></trkpt><trkpt lat="44.64351291956125" lon="9.497210572791063"><ele>637.0</ele><time>2026-04-18T09:52:01.999Z</time></trkpt><trkpt lat="44.64360341492317" lon="9.49732240970917"><ele>636.2</ele><time>2026-04-18T09:52:02.999Z</time></trkpt><trkpt lat="44.643668594792885" lon="9.497452628882941"><ele>635.4000000000001</ele><time>2026-04-18T09:52:03.999Z</time></trkpt><trkpt lat="44.643745794603554" lon="9.49755105921975"><ele>634.5999999999999</ele><time>2026-04-18T09:52:04.999Z</time></trkpt><trkpt lat="44.64380677515641" lon="9.49765390600866"><ele>633.8</ele><time>2026-04-18T09:52:05.999Z</time></trkpt><trkpt lat="44.64386322405178" lon="9.497746459728402"><ele>633.0</ele><time>2026-04-18T09:52:06.999Z</time></trkpt><trkpt lat="44.643909029473534" lon="9.497826888170692"><ele>631.6666666666666</ele><time>2026-04-18T09:52:07.999Z</time></trkpt><trkpt lat="44.64395366724038" lon="9.497964828099704"><ele>630.3333333333334</ele><time>2026-04-18T09:52:09.999Z</time></trkpt><trkpt lat="44.643942313951314" lon="9.498125623641574"><ele>629.0</ele><time>2026-04-18T09:52:11.999Z</time></trkpt><trkpt lat="44.643924604558144" lon="9.498212517584891"><ele>627.6666666666667</ele><time>2026-04-18T09:52:12.999Z</time></trkpt><trkpt lat="44.64389790306264" lon="9.498303100892564"><ele>626.3333333333334</ele><time>2026-04-18T09:52:13.999Z</time></trkpt><trkpt lat="44.64386093560136" lon="9.49838624663865"><ele>625.0</ele><time>2026-04-18T09:52:15Z</time></trkpt><trkpt lat="44.64381278981122" lon="9.498476099499037"><ele>625.0</ele><time>2026-04-18T09:52:16Z</time></trkpt><trkpt lat="44.643760378233615" lon="9.498579314666147"><ele>625.0</ele><time>2026-04-18T09:52:17Z</time></trkpt><trkpt lat="44.643695125239816" lon="9.498693694984887"><ele>625.0</ele><time>2026-04-18T09:52:18Z</time></trkpt><trkpt lat="44.643634553596605" lon="9.498800941283148"><ele>625.0</ele><time>2026-04-18T09:52:19Z</time></trkpt><trkpt lat="44.64357513880431" lon="9.498915044297542"><ele>625.0</ele><time>2026-04-18T09:52:20Z</time></trkpt><trkpt lat="44.643516552535345" lon="9.499036384168631"><ele>625.0</ele><time>2026-04-18T09:52:21Z</time></trkpt><trkpt lat="44.64347414298736" lon="9.499170759463711"><ele>625.0</ele><time>2026-04-18T09:52:22Z</time></trkpt><trkpt lat="44.64346558498807" lon="9.499304689862619"><ele>625.0</ele><time>2026-04-18T09:52:23Z</time></trkpt><trkpt lat="44.64349157375744" lon="9.499420761900138"><ele>625.0</ele><time>2026-04-18T09:52:24Z</time></trkpt><trkpt lat="44.64352443407921" lon="9.499553571240517"><ele>625.0</ele><time>2026-04-18T09:52:25Z</time></trkpt><trkpt lat="44.643605163125144" lon="9.499644644912635"><ele>625.8</ele><time>2026-04-18T09:52:26Z</time></trkpt><trkpt lat="44.643683140101324" lon="9.499738317240332"><ele>626.6</ele><time>2026-04-18T09:52:27Z</time></trkpt><trkpt lat="44.64377261019727" lon="9.499819003276249"><ele>627.4</ele><time>2026-04-18T09:52:28Z</time></trkpt><trkpt lat="44.643863740711865" lon="9.499911273298759"><ele>628.2</ele><time>2026-04-18T09:52:29Z</time></trkpt><trkpt lat="44.64396292077183" lon="9.499997082548521"><ele>629.0</ele><time>2026-04-18T09:52:30Z</time></trkpt><trkpt lat="44.64406895170439" lon="9.500084546672385"><ele>629.0</ele><time>2026-04-18T09:52:31Z</time></trkpt><trkpt lat="44.644183379060046" lon="9.500170449744658"><ele>629.0</ele><time>2026-04-18T09:52:32Z</time></trkpt><trkpt lat="44.64431362272713" lon="9.500262792221259"><ele>629.0</ele><time>2026-04-18T09:52:33Z</time></trkpt><trkpt lat="44.64445037057915" lon="9.500370812328462"><ele>629.0</ele><time>2026-04-18T09:52:34Z</time></trkpt><trkpt lat="44.644596675261795" lon="9.500456614176787"><ele>629.75</ele><time>2026-04-18T09:52:35Z</time></trkpt><trkpt lat="44.64472023586283" lon="9.500552340848966"><ele>630.5</ele><time>2026-04-18T09:52:36Z</time></trkpt><trkpt lat="44.64484696258146" lon="9.500670582114287"><ele>631.25</ele><time>2026-04-18T09:52:37Z</time></trkpt><trkpt lat="44.64495974407197" lon="9.50081444845655"><ele>632.0</ele><time>2026-04-18T09:52:38Z</time></trkpt><trkpt lat="44.64505779311813" lon="9.500958015220617"><ele>632.0</ele><time>2026-04-18T09:52:39Z</time></trkpt><trkpt lat="44.64513602455529" lon="9.501099685654998"><ele>632.0</ele><time>2026-04-18T09:52:40Z</time></trkpt><trkpt lat="44.64519425702318" lon="9.50124584543251"><ele>632.0</ele><time>2026-04-18T09:52:41Z</time></trkpt><trkpt lat="44.64523746558055" lon="9.501379689641457"><ele>632.0</ele><time>2026-04-18T09:52:42Z</time></trkpt><trkpt lat="44.645250701131225" lon="9.501487465975538"><ele>632.0</ele><time>2026-04-18T09:52:43Z</time></trkpt><trkpt lat="44.64540502843199" lon="9.501934744994696"><ele>632.0</ele><time>2026-04-18T09:52:44Z</time></trkpt><trkpt lat="44.6454562693614" lon="9.502102604947254"><ele>632.0</ele><time>2026-04-18T09:52:45Z</time></trkpt><trkpt lat="44.645501620398285" lon="9.50225068846569"><ele>632.0</ele><time>2026-04-18T09:52:46Z</time></trkpt><trkpt lat="44.645564627218704" lon="9.502376229319294"><ele>632.0</ele><time>2026-04-18T09:52:47Z</time></trkpt><trkpt lat="44.64561088845352" lon="9.50249395908858"><ele>632.0</ele><time>2026-04-18T09:52:48Z</time></trkpt><trkpt lat="44.645645596589645" lon="9.50259546214026"><ele>632.0</ele><time>2026-04-18T09:52:49Z</time></trkpt><trkpt lat="44.645661431545584" lon="9.50268316059301"><ele>632.0</ele><time>2026-04-18T09:52:50Z</time></trkpt><trkpt lat="44.64568605068594" lon="9.502808526370508"><ele>632.0</ele><time>2026-04-18T09:52:52Z</time></trkpt><trkpt lat="44.64572245651774" lon="9.50289545784895"><ele>632.0</ele><time>2026-04-18T09:52:54Z</time></trkpt><trkpt lat="44.64574448984325" lon="9.503001491277464"><ele>632.0</ele><time>2026-04-18T09:53:27.999Z</time></trkpt><trkpt lat="44.64579264951483" lon="9.503107787777406"><ele>634.0</ele><time>2026-04-18T09:53:29.999Z</time></trkpt><trkpt lat="44.64584729751091" lon="9.503264399781015"><ele>636.0</ele><time>2026-04-18T09:53:31.999Z</time></trkpt><trkpt lat="44.64586994471481" lon="9.50339106971468"><ele>638.0</ele><time>2026-04-18T09:53:32.999Z</time></trkpt><trkpt lat="44.645896948328215" lon="9.503538970702568"><ele>640.0</ele><time>2026-04-18T09:53:33.999Z</time></trkpt><trkpt lat="44.64593031911206" lon="9.503692768127882"><ele>642.0</ele><time>2026-04-18T09:53:34.999Z</time></trkpt><trkpt lat="44.64597630758407" lon="9.503841476832964"><ele>644.5</ele><time>2026-04-18T09:53:35.999Z</time></trkpt><trkpt lat="44.646041506959016" lon="9.503989543096754"><ele>647.0</ele><time>2026-04-18T09:53:36.999Z</time></trkpt><trkpt lat="44.646108225366724" lon="9.504142798416513"><ele>649.5</ele><time>2026-04-18T09:53:37.999Z</time></trkpt><trkpt lat="44.646145677885606" lon="9.504291491254278"><ele>652.0</ele><time>2026-04-18T09:53:38.999Z</time></trkpt><trkpt lat="44.646148308798466" lon="9.50445472954661"><ele>654.0</ele><time>2026-04-18T09:53:39.999Z</time></trkpt><trkpt lat="44.64610603556588" lon="9.504626852893262"><ele>656.0</ele><time>2026-04-18T09:53:40.999Z</time></trkpt><trkpt lat="44.646081629579605" lon="9.504815994824538"><ele>658.0</ele><time>2026-04-18T09:53:41.999Z</time></trkpt><trkpt lat="44.64604840081978" lon="9.505003963615657"><ele>660.0</ele><time>2026-04-18T09:53:42.999Z</time></trkpt><trkpt lat="44.64603472752177" lon="9.505173790333956"><ele>660.0</ele><time>2026-04-18T09:53:43.999Z</time></trkpt><trkpt lat="44.64605700006786" lon="9.50532982561369"><ele>660.0</ele><time>2026-04-18T09:53:44.999Z</time></trkpt><trkpt lat="44.64613107021655" lon="9.505474227382534"><ele>660.0</ele><time>2026-04-18T09:53:45.999Z</time></trkpt><trkpt lat="44.646244226302784" lon="9.505620973996924"><ele>660.0</ele><time>2026-04-18T09:53:46.999Z</time></trkpt><trkpt lat="44.64637553806206" lon="9.50579748342896"><ele>657.0</ele><time>2026-04-18T09:53:47.999Z</time></trkpt><trkpt lat="44.6465027836412" lon="9.505987631832243"><ele>654.0</ele><time>2026-04-18T09:53:48.999Z</time></trkpt><trkpt lat="44.646612868475565" lon="9.50616071150514"><ele>651.0</ele><time>2026-04-18T09:53:49.999Z</time></trkpt><trkpt lat="44.64671416839522" lon="9.50631474679291"><ele>651.0</ele><time>2026-04-18T09:53:50.999Z</time></trkpt><trkpt lat="44.64680974297006" lon="9.506453518361026"><ele>651.0</ele><time>2026-04-18T09:53:51.999Z</time></trkpt><trkpt lat="44.64690394543827" lon="9.506586680746599"><ele>651.0</ele><time>2026-04-18T09:53:52.999Z</time></trkpt><trkpt lat="44.647000244641326" lon="9.506697616225212"><ele>651.0</ele><time>2026-04-18T09:53:53.999Z</time></trkpt><trkpt lat="44.647111414320314" lon="9.506817548642047"><ele>647.5</ele><time>2026-04-18T09:53:54.999Z</time></trkpt><trkpt lat="44.64718581110297" lon="9.50697823780741"><ele>644.0</ele><time>2026-04-18T09:53:55.999Z</time></trkpt><trkpt lat="44.64727226588044" lon="9.507108620873277"><ele>640.5</ele><time>2026-04-18T09:53:56.999Z</time></trkpt><trkpt lat="44.64731044144386" lon="9.50726891456272"><ele>637.0</ele><time>2026-04-18T09:53:57.999Z</time></trkpt><trkpt lat="44.6473438720074" lon="9.507446691896414"><ele>637.0</ele><time>2026-04-18T09:53:58.999Z</time></trkpt><trkpt lat="44.647378001640746" lon="9.50762938032136"><ele>637.0</ele><time>2026-04-18T09:53:59.999Z</time></trkpt><trkpt lat="44.64742597742323" lon="9.507774298606266"><ele>637.0</ele><time>2026-04-18T09:54:00.999Z</time></trkpt><trkpt lat="44.6474856540348" lon="9.50792326552544"><ele>637.0</ele><time>2026-04-18T09:54:01.999Z</time></trkpt><trkpt lat="44.64758416542901" lon="9.508052082367046"><ele>636.75</ele><time>2026-04-18T09:54:02.999Z</time></trkpt><trkpt lat="44.64770464091467" lon="9.508127629074236"><ele>636.5</ele><time>2026-04-18T09:54:03.999Z</time></trkpt><trkpt lat="44.64783372411135" lon="9.50814727565302"><ele>636.25</ele><time>2026-04-18T09:54:04.999Z</time></trkpt><trkpt lat="44.647974057625134" lon="9.508151042630086"><ele>636.0</ele><time>2026-04-18T09:54:05.999Z</time></trkpt><trkpt lat="44.64809752222074" lon="9.508151847396073"><ele>636.0</ele><time>2026-04-18T09:54:06.999Z</time></trkpt><trkpt lat="44.64820563592147" lon="9.508235229987445"><ele>636.0</ele><time>2026-04-18T09:54:07.999Z</time></trkpt><trkpt lat="44.648307381621976" lon="9.508347288061819"><ele>636.0</ele><time>2026-04-18T09:54:08.999Z</time></trkpt><trkpt lat="44.64837604026513" lon="9.508501106604852"><ele>636.0</ele><time>2026-04-18T09:54:09.999Z</time></trkpt><trkpt lat="44.64845695719957" lon="9.508670784535745"><ele>631.75</ele><time>2026-04-18T09:54:10.999Z</time></trkpt><trkpt lat="44.648534398004735" lon="9.508837881176708"><ele>627.5</ele><time>2026-04-18T09:54:11.999Z</time></trkpt><trkpt lat="44.64859648013151" lon="9.508989959278185"><ele>623.25</ele><time>2026-04-18T09:54:12.999Z</time></trkpt><trkpt lat="44.64865077635207" lon="9.50916297320263"><ele>619.0</ele><time>2026-04-18T09:54:13.999Z</time></trkpt><trkpt lat="44.648708833467644" lon="9.50935789755913"><ele>619.0</ele><time>2026-04-18T09:54:14.999Z</time></trkpt><trkpt lat="44.64877513377498" lon="9.509557565262009"><ele>619.0</ele><time>2026-04-18T09:54:15.999Z</time></trkpt><trkpt lat="44.648847267445056" lon="9.5097643341846"><ele>619.0</ele><time>2026-04-18T09:54:16.999Z</time></trkpt><trkpt lat="44.6489090362248" lon="9.509970081305866"><ele>621.0</ele><time>2026-04-18T09:54:17.999Z</time></trkpt><trkpt lat="44.64896609864302" lon="9.51018423054526"><ele>623.0</ele><time>2026-04-18T09:54:18.999Z</time></trkpt><trkpt lat="44.649015633413875" lon="9.510381997615887"><ele>625.0</ele><time>2026-04-18T09:54:19.999Z</time></trkpt><trkpt lat="44.649061524240004" lon="9.510564041785111"><ele>627.0</ele><time>2026-04-18T09:54:21Z</time></trkpt><trkpt lat="44.649111245135394" lon="9.51074046940259"><ele>628.5</ele><time>2026-04-18T09:54:22Z</time></trkpt><trkpt lat="44.6491889091827" lon="9.51092326255152"><ele>630.0</ele><time>2026-04-18T09:54:23Z</time></trkpt><trkpt lat="44.64929707197442" lon="9.511078429738491"><ele>631.5</ele><time>2026-04-18T09:54:24Z</time></trkpt><trkpt lat="44.64936398171013" lon="9.511244624023325"><ele>633.0</ele><time>2026-04-18T09:54:25Z</time></trkpt><trkpt lat="44.64940897539809" lon="9.511401752136404"><ele>634.5</ele><time>2026-04-18T09:54:26Z</time></trkpt><trkpt lat="44.64941379209768" lon="9.511571266104722"><ele>636.0</ele><time>2026-04-18T09:54:27Z</time></trkpt><trkpt lat="44.64940491949942" lon="9.511768659858365"><ele>637.5</ele><time>2026-04-18T09:54:28Z</time></trkpt><trkpt lat="44.64940133277764" lon="9.511982467763202"><ele>639.0</ele><time>2026-04-18T09:54:29Z</time></trkpt><trkpt lat="44.64942960940147" lon="9.512211498818516"><ele>633.0</ele><time>2026-04-18T09:54:30Z</time></trkpt><trkpt lat="44.64950528924157" lon="9.512423079313034"><ele>627.0</ele><time>2026-04-18T09:54:31Z</time></trkpt><trkpt lat="44.649594156777304" lon="9.512616741139851"><ele>621.0</ele><time>2026-04-18T09:54:32Z</time></trkpt><trkpt lat="44.64965365757401" lon="9.512798569084293"><ele>621.75</ele><time>2026-04-18T09:54:33Z</time></trkpt><trkpt lat="44.64968122191459" lon="9.512969438129234"><ele>622.5</ele><time>2026-04-18T09:54:34Z</time></trkpt><trkpt lat="44.64966552144361" lon="9.513127898227582"><ele>623.25</ele><time>2026-04-18T09:54:35Z</time></trkpt><trkpt lat="44.64960998523561" lon="9.513289947097238"><ele>624.0</ele><time>2026-04-18T09:54:36Z</time></trkpt><trkpt lat="44.649544522655276" lon="9.513494580112173"><ele>624.0</ele><time>2026-04-18T09:54:37Z</time></trkpt><trkpt lat="44.649492384508335" lon="9.513666309956216"><ele>624.0</ele><time>2026-04-18T09:54:38Z</time></trkpt><trkpt lat="44.64946397671743" lon="9.513831582097115"><ele>624.0</ele><time>2026-04-18T09:54:39Z</time></trkpt><trkpt lat="44.64943663167437" lon="9.513985053649371"><ele>624.0</ele><time>2026-04-18T09:54:40Z</time></trkpt><trkpt lat="44.64944171023224" lon="9.514152600074544"><ele>624.0</ele><time>2026-04-18T09:54:41Z</time></trkpt><trkpt lat="44.6494929172367" lon="9.514329657561635"><ele>624.0</ele><time>2026-04-18T09:54:42Z</time></trkpt><trkpt lat="44.64959830379702" lon="9.514478698540414"><ele>624.0</ele><time>2026-04-18T09:54:43Z</time></trkpt><trkpt lat="44.6497305098722" lon="9.514607314301166"><ele>624.0</ele><time>2026-04-18T09:54:44Z</time></trkpt><trkpt lat="44.64987630120146" lon="9.514719800513182"><ele>624.4</ele><time>2026-04-18T09:54:45Z</time></trkpt><trkpt lat="44.64996999920572" lon="9.514844015177365"><ele>624.8</ele><time>2026-04-18T09:54:46Z</time></trkpt><trkpt lat="44.6500463712459" lon="9.514952311765686"><ele>625.2</ele><time>2026-04-18T09:54:47Z</time></trkpt><trkpt lat="44.65006153310014" lon="9.515078423538224"><ele>625.6</ele><time>2026-04-18T09:54:48Z</time></trkpt><trkpt lat="44.65003840397515" lon="9.515224875299305"><ele>626.0</ele><time>2026-04-18T09:54:49Z</time></trkpt><trkpt lat="44.65002527999982" lon="9.515427511260425"><ele>626.25</ele><time>2026-04-18T09:54:50Z</time></trkpt><trkpt lat="44.64999514465839" lon="9.51564244833675"><ele>626.5</ele><time>2026-04-18T09:54:51Z</time></trkpt><trkpt lat="44.64994844461179" lon="9.515829112857926"><ele>626.75</ele><time>2026-04-18T09:54:52Z</time></trkpt><trkpt lat="44.64993622075152" lon="9.516009936682382"><ele>627.0</ele><time>2026-04-18T09:54:53Z</time></trkpt><trkpt lat="44.64992665891418" lon="9.516177029955426"><ele>627.0</ele><time>2026-04-18T09:54:54Z</time></trkpt><trkpt lat="44.649962368815174" lon="9.516353457116097"><ele>627.0</ele><time>2026-04-18T09:54:55Z</time></trkpt><trkpt lat="44.65004317301888" lon="9.516540339936387"><ele>627.0</ele><time>2026-04-18T09:54:56Z</time></trkpt><trkpt lat="44.650104175580275" lon="9.516768032735335"><ele>627.0</ele><time>2026-04-18T09:54:57Z</time></trkpt><trkpt lat="44.65013315792511" lon="9.516978158381464"><ele>627.0</ele><time>2026-04-18T09:54:58Z</time></trkpt><trkpt lat="44.6501621262968" lon="9.517174279911808"><ele>627.0</ele><time>2026-04-18T09:54:59Z</time></trkpt><trkpt lat="44.65020045676414" lon="9.517361074900984"><ele>627.0</ele><time>2026-04-18T09:55:00Z</time></trkpt><trkpt lat="44.65025097504977" lon="9.517565404522188"><ele>619.6666666666666</ele><time>2026-04-18T09:55:01Z</time></trkpt><trkpt lat="44.650329797936095" lon="9.517770616347965"><ele>612.3333333333333</ele><time>2026-04-18T09:55:02Z</time></trkpt><trkpt lat="44.65035512457616" lon="9.517981619414572"><ele>605.0</ele><time>2026-04-18T09:55:03Z</time></trkpt><trkpt lat="44.650375740284865" lon="9.518180337314996"><ele>604.0</ele><time>2026-04-18T09:55:04Z</time></trkpt><trkpt lat="44.65038817585519" lon="9.51839625153299"><ele>603.0</ele><time>2026-04-18T09:55:05Z</time></trkpt><trkpt lat="44.65040007175284" lon="9.518617792413236"><ele>602.0</ele><time>2026-04-18T09:55:06Z</time></trkpt><trkpt lat="44.65041087538826" lon="9.518860718869098"><ele>602.0</ele><time>2026-04-18T09:55:07Z</time></trkpt><trkpt lat="44.650430604398395" lon="9.519110509528202"><ele>602.0</ele><time>2026-04-18T09:55:08Z</time></trkpt><trkpt lat="44.650493715824915" lon="9.519359805232172"><ele>602.0</ele><time>2026-04-18T09:55:09Z</time></trkpt><trkpt lat="44.650558282703244" lon="9.51961745974731"><ele>602.0</ele><time>2026-04-18T09:55:10Z</time></trkpt><trkpt lat="44.65061020572228" lon="9.519882735239987"><ele>602.0</ele><time>2026-04-18T09:55:11Z</time></trkpt><trkpt lat="44.65065964860766" lon="9.520128448300824"><ele>602.0</ele><time>2026-04-18T09:55:12Z</time></trkpt><trkpt lat="44.65069432488514" lon="9.520367636539213"><ele>604.3333333333333</ele><time>2026-04-18T09:55:13Z</time></trkpt><trkpt lat="44.65072443635877" lon="9.520592165783583"><ele>606.6666666666666</ele><time>2026-04-18T09:55:14Z</time></trkpt><trkpt lat="44.650767783600585" lon="9.52079280178881"><ele>609.0</ele><time>2026-04-18T09:55:15Z</time></trkpt><trkpt lat="44.65085592006566" lon="9.520974422846358"><ele>609.0</ele><time>2026-04-18T09:55:16Z</time></trkpt><trkpt lat="44.65093935181128" lon="9.5211537624449"><ele>609.0</ele><time>2026-04-18T09:55:17Z</time></trkpt><trkpt lat="44.651004837263095" lon="9.521342517226332"><ele>609.0</ele><time>2026-04-18T09:55:18Z</time></trkpt><trkpt lat="44.65106797249699" lon="9.521556589009473"><ele>613.3333333333334</ele><time>2026-04-18T09:55:19Z</time></trkpt><trkpt lat="44.65112407566517" lon="9.521778629444624"><ele>617.6666666666667</ele><time>2026-04-18T09:55:20Z</time></trkpt><trkpt lat="44.65116533558683" lon="9.521992752426101"><ele>622.0</ele><time>2026-04-18T09:55:21Z</time></trkpt><trkpt lat="44.65118489199152" lon="9.52222761806114"><ele>610.0</ele><time>2026-04-18T09:55:22Z</time></trkpt><trkpt lat="44.65119446829658" lon="9.522474190655695"><ele>598.0</ele><time>2026-04-18T09:55:23Z</time></trkpt><trkpt lat="44.65121898442071" lon="9.52273459585246"><ele>586.0</ele><time>2026-04-18T09:55:23.999Z</time></trkpt><trkpt lat="44.65124647262935" lon="9.522970856716066"><ele>586.0</ele><time>2026-04-18T09:55:24.999Z</time></trkpt><trkpt lat="44.65127257134284" lon="9.523191606597305"><ele>586.0</ele><time>2026-04-18T09:55:25.999Z</time></trkpt><trkpt lat="44.65129956043299" lon="9.523396668348486"><ele>586.0</ele><time>2026-04-18T09:55:26.999Z</time></trkpt><trkpt lat="44.65136133005089" lon="9.523577787366671"><ele>589.3333333333334</ele><time>2026-04-18T09:55:27.999Z</time></trkpt><trkpt lat="44.65144503239141" lon="9.523765874510717"><ele>592.6666666666666</ele><time>2026-04-18T09:55:28.999Z</time></trkpt><trkpt lat="44.651537986602" lon="9.523936937813776"><ele>596.0</ele><time>2026-04-18T09:55:29.999Z</time></trkpt><trkpt lat="44.65160291406505" lon="9.524109931894053"><ele>596.0</ele><time>2026-04-18T09:55:30.999Z</time></trkpt><trkpt lat="44.651623990382255" lon="9.524304067101149"><ele>596.0</ele><time>2026-04-18T09:55:31.999Z</time></trkpt><trkpt lat="44.65163937950067" lon="9.524504991735485"><ele>596.0</ele><time>2026-04-18T09:55:32.999Z</time></trkpt><trkpt lat="44.65169998836115" lon="9.524659616466629"><ele>596.0</ele><time>2026-04-18T09:55:33.999Z</time></trkpt><trkpt lat="44.651783402067764" lon="9.524803807773933"><ele>592.25</ele><time>2026-04-18T09:55:34.999Z</time></trkpt><trkpt lat="44.6519049246558" lon="9.52490525134026"><ele>588.5</ele><time>2026-04-18T09:55:35.999Z</time></trkpt><trkpt lat="44.65203999101458" lon="9.524958916695065"><ele>584.75</ele><time>2026-04-18T09:55:36.999Z</time></trkpt><trkpt lat="44.652175717691314" lon="9.524997351618813"><ele>581.0</ele><time>2026-04-18T09:55:37.999Z</time></trkpt><trkpt lat="44.65226307786909" lon="9.525090063807744"><ele>581.0</ele><time>2026-04-18T09:55:38.999Z</time></trkpt><trkpt lat="44.652322652933535" lon="9.52521781705506"><ele>581.0</ele><time>2026-04-18T09:55:39.999Z</time></trkpt><trkpt lat="44.65236305322557" lon="9.525410178800984"><ele>581.0</ele><time>2026-04-18T09:55:40.999Z</time></trkpt><trkpt lat="44.65241601156838" lon="9.525629617747933"><ele>581.0</ele><time>2026-04-18T09:55:41.999Z</time></trkpt><trkpt lat="44.652531640142875" lon="9.525828404520835"><ele>577.6666666666666</ele><time>2026-04-18T09:55:42.999Z</time></trkpt><trkpt lat="44.6526471122504" lon="9.526019416530021"><ele>574.3333333333334</ele><time>2026-04-18T09:55:43.999Z</time></trkpt><trkpt lat="44.652749362857634" lon="9.526188174163748"><ele>571.0</ele><time>2026-04-18T09:55:44.999Z</time></trkpt><trkpt lat="44.652837822253204" lon="9.526337994730518"><ele>571.0</ele><time>2026-04-18T09:55:45.999Z</time></trkpt><trkpt lat="44.65289820644576" lon="9.526474177369943"><ele>571.0</ele><time>2026-04-18T09:55:46.999Z</time></trkpt><trkpt lat="44.65293309096927" lon="9.526619713513565"><ele>571.0</ele><time>2026-04-18T09:55:47.999Z</time></trkpt><trkpt lat="44.65291662258443" lon="9.526762895951938"><ele>571.0</ele><time>2026-04-18T09:55:48.999Z</time></trkpt><trkpt lat="44.652870266693476" lon="9.52691160202743"><ele>571.0</ele><time>2026-04-18T09:55:49.999Z</time></trkpt><trkpt lat="44.65277277259087" lon="9.527042302316119"><ele>577.0</ele><time>2026-04-18T09:55:50.999Z</time></trkpt><trkpt lat="44.652676405572116" lon="9.527184856672335"><ele>583.0</ele><time>2026-04-18T09:55:51.999Z</time></trkpt><trkpt lat="44.65263295119867" lon="9.527345848814528"><ele>589.0</ele><time>2026-04-18T09:55:52.999Z</time></trkpt><trkpt lat="44.652614884921626" lon="9.527522434369478"><ele>595.0</ele><time>2026-04-18T09:55:53.999Z</time></trkpt><trkpt lat="44.65265170174633" lon="9.527714652624478"><ele>595.0</ele><time>2026-04-18T09:55:54.999Z</time></trkpt><trkpt lat="44.65273437974543" lon="9.527885045626853"><ele>595.0</ele><time>2026-04-18T09:55:55.999Z</time></trkpt><trkpt lat="44.652827204269116" lon="9.52804618471879"><ele>595.0</ele><time>2026-04-18T09:55:56.999Z</time></trkpt><trkpt lat="44.65289765519663" lon="9.528245218062874"><ele>591.3333333333334</ele><time>2026-04-18T09:55:57.999Z</time></trkpt><trkpt lat="44.65297332370144" lon="9.52844173009152"><ele>587.6666666666666</ele><time>2026-04-18T09:55:58.999Z</time></trkpt><trkpt lat="44.65303381255809" lon="9.52865376826602"><ele>584.0</ele><time>2026-04-18T09:55:59.999Z</time></trkpt><trkpt lat="44.65311295878541" lon="9.52884240827432"><ele>584.0</ele><time>2026-04-18T09:56:00.999Z</time></trkpt><trkpt lat="44.65322789915848" lon="9.528993557239144"><ele>584.0</ele><time>2026-04-18T09:56:01.999Z</time></trkpt><trkpt lat="44.653384629650304" lon="9.529124249710978"><ele>584.0</ele><time>2026-04-18T09:56:02.999Z</time></trkpt><trkpt lat="44.653536171980775" lon="9.529274395545768"><ele>582.25</ele><time>2026-04-18T09:56:03.999Z</time></trkpt><trkpt lat="44.653667146811635" lon="9.529403486124975"><ele>580.5</ele><time>2026-04-18T09:56:04.999Z</time></trkpt><trkpt lat="44.65376815750273" lon="9.529532131431724"><ele>578.75</ele><time>2026-04-18T09:56:05.999Z</time></trkpt><trkpt lat="44.653838179117336" lon="9.529681645665068"><ele>577.0</ele><time>2026-04-18T09:56:06.999Z</time></trkpt><trkpt lat="44.65388771394769" lon="9.529860982600836"><ele>577.0</ele><time>2026-04-18T09:56:07.999Z</time></trkpt><trkpt lat="44.65390563495685" lon="9.530046058477556"><ele>577.0</ele><time>2026-04-18T09:56:08.999Z</time></trkpt><trkpt lat="44.653872105150704" lon="9.530226534666177"><ele>577.0</ele><time>2026-04-18T09:56:09.999Z</time></trkpt><trkpt lat="44.653838386664965" lon="9.530454699856273"><ele>577.0</ele><time>2026-04-18T09:56:10.999Z</time></trkpt><trkpt lat="44.65384627443955" lon="9.530658263752123"><ele>576.6666666666667</ele><time>2026-04-18T09:56:11.999Z</time></trkpt><trkpt lat="44.65387214945454" lon="9.530851021504013"><ele>576.3333333333334</ele><time>2026-04-18T09:56:12.999Z</time></trkpt><trkpt lat="44.65392394663119" lon="9.531055825213812"><ele>576.0</ele><time>2026-04-18T09:56:13.999Z</time></trkpt><trkpt lat="44.653957418499715" lon="9.531287086961887"><ele>575.6666666666666</ele><time>2026-04-18T09:56:14.999Z</time></trkpt><trkpt lat="44.654021876240044" lon="9.531526111226244"><ele>575.3333333333333</ele><time>2026-04-18T09:56:15.999Z</time></trkpt><trkpt lat="44.65405848642327" lon="9.531785915855423"><ele>575.0</ele><time>2026-04-18T09:56:16.999Z</time></trkpt><trkpt lat="44.65412703025728" lon="9.532045837463002"><ele>575.0</ele><time>2026-04-18T09:56:17.999Z</time></trkpt><trkpt lat="44.65420472665672" lon="9.532278277197278"><ele>575.0</ele><time>2026-04-18T09:56:18.999Z</time></trkpt><trkpt lat="44.65430127756038" lon="9.53246689838962"><ele>575.0</ele><time>2026-04-18T09:56:19.999Z</time></trkpt><trkpt lat="44.65438517789121" lon="9.53265478356266"><ele>574.3333333333333</ele><time>2026-04-18T09:56:20.999Z</time></trkpt><trkpt lat="44.65448179991838" lon="9.532815963645923"><ele>573.6666666666666</ele><time>2026-04-18T09:56:21.999Z</time></trkpt><trkpt lat="44.654601985527684" lon="9.53296861693001"><ele>573.0</ele><time>2026-04-18T09:56:22.999Z</time></trkpt><trkpt lat="44.65474294980222" lon="9.53312305246893"><ele>573.0</ele><time>2026-04-18T09:56:23.999Z</time></trkpt><trkpt lat="44.65488022883489" lon="9.533249951928015"><ele>573.0</ele><time>2026-04-18T09:56:24.999Z</time></trkpt><trkpt lat="44.65500397092601" lon="9.533354531296611"><ele>573.0</ele><time>2026-04-18T09:56:25.999Z</time></trkpt><trkpt lat="44.655135049876556" lon="9.533464498113144"><ele>573.0</ele><time>2026-04-18T09:56:27Z</time></trkpt><trkpt lat="44.655250887135104" lon="9.533592665935698"><ele>573.0</ele><time>2026-04-18T09:56:28Z</time></trkpt><trkpt lat="44.655307512775664" lon="9.533763345478855"><ele>573.0</ele><time>2026-04-18T09:56:29Z</time></trkpt><trkpt lat="44.65533581330915" lon="9.533930604753827"><ele>573.0</ele><time>2026-04-18T09:56:30Z</time></trkpt><trkpt lat="44.65531976379916" lon="9.534119805450178"><ele>577.0</ele><time>2026-04-18T09:56:31Z</time></trkpt><trkpt lat="44.65526745457271" lon="9.534317875698758"><ele>581.0</ele><time>2026-04-18T09:56:32Z</time></trkpt><trkpt lat="44.65521892683784" lon="9.534535695230343"><ele>585.0</ele><time>2026-04-18T09:56:33Z</time></trkpt><trkpt lat="44.65518262343102" lon="9.534737407083226"><ele>585.0</ele><time>2026-04-18T09:56:34Z</time></trkpt><trkpt lat="44.65514826286163" lon="9.534937454242746"><ele>585.0</ele><time>2026-04-18T09:56:35Z</time></trkpt><trkpt lat="44.65514294041118" lon="9.535155483069767"><ele>585.0</ele><time>2026-04-18T09:56:36Z</time></trkpt><trkpt lat="44.655185953828756" lon="9.535367747462372"><ele>588.3333333333334</ele><time>2026-04-18T09:56:37Z</time></trkpt><trkpt lat="44.655277888651504" lon="9.535555543270096"><ele>591.6666666666667</ele><time>2026-04-18T09:56:38Z</time></trkpt><trkpt lat="44.6553954201062" lon="9.535707184164561"><ele>595.0</ele><time>2026-04-18T09:56:39Z</time></trkpt><trkpt lat="44.65554045455168" lon="9.53584789661706"><ele>590.0</ele><time>2026-04-18T09:56:40Z</time></trkpt><trkpt lat="44.655671222416764" lon="9.536019342845009"><ele>585.0</ele><time>2026-04-18T09:56:41Z</time></trkpt><trkpt lat="44.65576896910582" lon="9.536200429378901"><ele>580.0</ele><time>2026-04-18T09:56:42Z</time></trkpt><trkpt lat="44.655846767239794" lon="9.53641755109715"><ele>580.0</ele><time>2026-04-18T09:56:43Z</time></trkpt><trkpt lat="44.65592608169026" lon="9.536656963363956"><ele>580.0</ele><time>2026-04-18T09:56:44Z</time></trkpt><trkpt lat="44.656017727151074" lon="9.536860780746665"><ele>580.0</ele><time>2026-04-18T09:56:45Z</time></trkpt><trkpt lat="44.65610462390783" lon="9.537058439425898"><ele>576.6666666666667</ele><time>2026-04-18T09:56:46Z</time></trkpt><trkpt lat="44.65622016415309" lon="9.537233474972002"><ele>573.3333333333334</ele><time>2026-04-18T09:56:47Z</time></trkpt><trkpt lat="44.65634243725109" lon="9.537426279619648"><ele>570.0</ele><time>2026-04-18T09:56:48Z</time></trkpt><trkpt lat="44.656459288328314" lon="9.537599317856392"><ele>570.0</ele><time>2026-04-18T09:56:49Z</time></trkpt><trkpt lat="44.65658310947182" lon="9.537731707797604"><ele>570.0</ele><time>2026-04-18T09:56:50Z</time></trkpt><trkpt lat="44.65671811323106" lon="9.537847937960487"><ele>570.0</ele><time>2026-04-18T09:56:51Z</time></trkpt><trkpt lat="44.656872895397676" lon="9.537919506887427"><ele>572.6666666666666</ele><time>2026-04-18T09:56:52Z</time></trkpt><trkpt lat="44.65704581504711" lon="9.53793934940998"><ele>575.3333333333333</ele><time>2026-04-18T09:56:53Z</time></trkpt><trkpt lat="44.65720894023813" lon="9.537947384566715"><ele>578.0</ele><time>2026-04-18T09:56:54Z</time></trkpt><trkpt lat="44.65733342421677" lon="9.53802610379552"><ele>578.0</ele><time>2026-04-18T09:56:55Z</time></trkpt><trkpt lat="44.65746239750119" lon="9.538130535010504"><ele>578.0</ele><time>2026-04-18T09:56:56Z</time></trkpt><trkpt lat="44.65760664922558" lon="9.538268858996076"><ele>578.0</ele><time>2026-04-18T09:56:57Z</time></trkpt><trkpt lat="44.65774332492" lon="9.538359569535478"><ele>574.0</ele><time>2026-04-18T09:56:58Z</time></trkpt><trkpt lat="44.65787161681023" lon="9.538422818703392"><ele>570.0</ele><time>2026-04-18T09:56:59Z</time></trkpt><trkpt lat="44.65797237977284" lon="9.538524152522717"><ele>566.0</ele><time>2026-04-18T09:57:00Z</time></trkpt><trkpt lat="44.6580496513759" lon="9.538650288988526"><ele>562.0</ele><time>2026-04-18T09:57:01Z</time></trkpt><trkpt lat="44.6581124813889" lon="9.538836770421604"><ele>562.0</ele><time>2026-04-18T09:57:02Z</time></trkpt><trkpt lat="44.65818949398593" lon="9.539051048302447"><ele>562.0</ele><time>2026-04-18T09:57:03Z</time></trkpt><trkpt lat="44.65828247824449" lon="9.53925728486588"><ele>562.0</ele><time>2026-04-18T09:57:04Z</time></trkpt><trkpt lat="44.658358912377594" lon="9.53944104789642"><ele>562.25</ele><time>2026-04-18T09:57:05Z</time></trkpt><trkpt lat="44.658389021467904" lon="9.539626477966431"><ele>562.5</ele><time>2026-04-18T09:57:06Z</time></trkpt><trkpt lat="44.65839492836251" lon="9.539818644870364"><ele>562.75</ele><time>2026-04-18T09:57:07Z</time></trkpt><trkpt lat="44.65837090509764" lon="9.540039979568853"><ele>563.0</ele><time>2026-04-18T09:57:08Z</time></trkpt><trkpt lat="44.658352983917176" lon="9.540262999201584"><ele>565.0</ele><time>2026-04-18T09:57:09Z</time></trkpt><trkpt lat="44.65836118677362" lon="9.54043526824606"><ele>567.0</ele><time>2026-04-18T09:57:10Z</time></trkpt><trkpt lat="44.65839073682284" lon="9.540604373190428"><ele>569.0</ele><time>2026-04-18T09:57:11Z</time></trkpt><trkpt lat="44.658472151687356" lon="9.540766864925406"><ele>571.0</ele><time>2026-04-18T09:57:12Z</time></trkpt><trkpt lat="44.65858394221382" lon="9.540911576962356"><ele>564.6666666666667</ele><time>2026-04-18T09:57:13Z</time></trkpt><trkpt lat="44.65872529959553" lon="9.541014714219848"><ele>558.3333333333334</ele><time>2026-04-18T09:57:14Z</time></trkpt><trkpt lat="44.65888497184838" lon="9.541092903403943"><ele>552.0</ele><time>2026-04-18T09:57:15Z</time></trkpt><trkpt lat="44.65904674423257" lon="9.54116711312249"><ele>551.6666666666666</ele><time>2026-04-18T09:57:16Z</time></trkpt><trkpt lat="44.65920236367783" lon="9.541240780570565"><ele>551.3333333333333</ele><time>2026-04-18T09:57:17Z</time></trkpt><trkpt lat="44.65935776438626" lon="9.541305538107602"><ele>551.0</ele><time>2026-04-18T09:57:18Z</time></trkpt><trkpt lat="44.65950908468225" lon="9.541383086257067"><ele>551.0</ele><time>2026-04-18T09:57:19Z</time></trkpt><trkpt lat="44.659650829263406" lon="9.541485155724546"><ele>551.0</ele><time>2026-04-18T09:57:20Z</time></trkpt><trkpt lat="44.659795747724374" lon="9.541625892851137"><ele>551.0</ele><time>2026-04-18T09:57:21Z</time></trkpt><trkpt lat="44.65990332290191" lon="9.541830697708564"><ele>551.0</ele><time>2026-04-18T09:57:22Z</time></trkpt><trkpt lat="44.66002468576219" lon="9.541987401943258"><ele>551.0</ele><time>2026-04-18T09:57:23Z</time></trkpt><trkpt lat="44.660147708116035" lon="9.542133424571665"><ele>551.0</ele><time>2026-04-18T09:57:24Z</time></trkpt><trkpt lat="44.66028339680232" lon="9.542250259150046"><ele>549.5</ele><time>2026-04-18T09:57:25Z</time></trkpt><trkpt lat="44.66041430206719" lon="9.542319005855825"><ele>548.0</ele><time>2026-04-18T09:57:26Z</time></trkpt><trkpt lat="44.66051973576931" lon="9.542414338769248"><ele>546.5</ele><time>2026-04-18T09:57:27Z</time></trkpt><trkpt lat="44.66061892161896" lon="9.542540867725288"><ele>545.0</ele><time>2026-04-18T09:57:28Z</time></trkpt><trkpt lat="44.66069607225308" lon="9.542707190215719"><ele>545.6666666666666</ele><time>2026-04-18T09:57:29Z</time></trkpt><trkpt lat="44.660735601030865" lon="9.542920288533066"><ele>546.3333333333334</ele><time>2026-04-18T09:57:30Z</time></trkpt><trkpt lat="44.660780703453774" lon="9.543133497595745"><ele>547.0</ele><time>2026-04-18T09:57:31Z</time></trkpt><trkpt lat="44.66083211485164" lon="9.543379238060991"><ele>547.0</ele><time>2026-04-18T09:57:31.999Z</time></trkpt><trkpt lat="44.66089060918044" lon="9.543608306023996"><ele>547.0</ele><time>2026-04-18T09:57:32.999Z</time></trkpt><trkpt lat="44.660899134588504" lon="9.543826344022609"><ele>547.0</ele><time>2026-04-18T09:57:33.999Z</time></trkpt><trkpt lat="44.66090069772487" lon="9.544050925000908"><ele>547.0</ele><time>2026-04-18T09:57:34.999Z</time></trkpt><trkpt lat="44.66089153459742" lon="9.544311441709478"><ele>547.0</ele><time>2026-04-18T09:57:35.999Z</time></trkpt><trkpt lat="44.660882702889616" lon="9.544600803816795"><ele>547.0</ele><time>2026-04-18T09:57:36.999Z</time></trkpt><trkpt lat="44.66087406942211" lon="9.544883669890583"><ele>546.0</ele><time>2026-04-18T09:57:37.999Z</time></trkpt><trkpt lat="44.6608660357704" lon="9.545146884158116"><ele>545.0</ele><time>2026-04-18T09:57:38.999Z</time></trkpt><trkpt lat="44.66086099796695" lon="9.545370930909062"><ele>544.0</ele><time>2026-04-18T09:57:39.999Z</time></trkpt><trkpt lat="44.660860120712044" lon="9.545562638141483"><ele>543.75</ele><time>2026-04-18T09:57:40.999Z</time></trkpt><trkpt lat="44.66086656669215" lon="9.54576492891938"><ele>543.5</ele><time>2026-04-18T09:57:41.999Z</time></trkpt><trkpt lat="44.660897215529026" lon="9.54595635985177"><ele>543.25</ele><time>2026-04-18T09:57:42.999Z</time></trkpt><trkpt lat="44.66095899251211" lon="9.546125995453858"><ele>543.0</ele><time>2026-04-18T09:57:43.999Z</time></trkpt><trkpt lat="44.66105478333308" lon="9.54628208796541"><ele>539.75</ele><time>2026-04-18T09:57:44.999Z</time></trkpt><trkpt lat="44.66116986385044" lon="9.546380871435499"><ele>536.5</ele><time>2026-04-18T09:57:45.999Z</time></trkpt><trkpt lat="44.66125348797583" lon="9.546487673465945"><ele>533.25</ele><time>2026-04-18T09:57:46.999Z</time></trkpt><trkpt lat="44.66134838724111" lon="9.546550324490907"><ele>530.0</ele><time>2026-04-18T09:57:47.999Z</time></trkpt><trkpt lat="44.661447293064874" lon="9.546567380689169"><ele>530.0</ele><time>2026-04-18T09:57:48.999Z</time></trkpt><trkpt lat="44.66154969894554" lon="9.546517460250547"><ele>530.0</ele><time>2026-04-18T09:57:49.999Z</time></trkpt><trkpt lat="44.66166007477321" lon="9.546513533436814"><ele>530.0</ele><time>2026-04-18T09:57:50.999Z</time></trkpt><trkpt lat="44.661772035556744" lon="9.546482884068048"><ele>530.0</ele><time>2026-04-18T09:57:51.999Z</time></trkpt><trkpt lat="44.66189344180384" lon="9.546427129104833"><ele>528.5</ele><time>2026-04-18T09:57:52.999Z</time></trkpt><trkpt lat="44.66203136358337" lon="9.546394330931246"><ele>527.0</ele><time>2026-04-18T09:57:53.999Z</time></trkpt><trkpt lat="44.66218432901528" lon="9.546356360568124"><ele>525.5</ele><time>2026-04-18T09:57:54.999Z</time></trkpt><trkpt lat="44.662322019228554" lon="9.546319860066989"><ele>524.0</ele><time>2026-04-18T09:57:55.999Z</time></trkpt><trkpt lat="44.66247353544153" lon="9.54627648443396"><ele>524.0</ele><time>2026-04-18T09:57:56.999Z</time></trkpt><trkpt lat="44.66262113180107" lon="9.546242912196357"><ele>524.0</ele><time>2026-04-18T09:57:57.999Z</time></trkpt><trkpt lat="44.662755880661834" lon="9.54621521674317"><ele>524.0</ele><time>2026-04-18T09:57:58.999Z</time></trkpt><trkpt lat="44.66287714009218" lon="9.546194891635958"><ele>524.0</ele><time>2026-04-18T09:57:59.999Z</time></trkpt><trkpt lat="44.663005015008196" lon="9.546186750948586"><ele>527.5</ele><time>2026-04-18T09:58:00.999Z</time></trkpt><trkpt lat="44.66314031932343" lon="9.546224898810818"><ele>531.0</ele><time>2026-04-18T09:58:01.999Z</time></trkpt><trkpt lat="44.663249135740045" lon="9.546309504106723"><ele>534.5</ele><time>2026-04-18T09:58:02.999Z</time></trkpt><trkpt lat="44.66332077137072" lon="9.546425634739732"><ele>538.0</ele><time>2026-04-18T09:58:03.999Z</time></trkpt><trkpt lat="44.663352588129776" lon="9.546549845054333"><ele>538.0</ele><time>2026-04-18T09:58:04.999Z</time></trkpt><trkpt lat="44.66335505689953" lon="9.546712204299224"><ele>538.0</ele><time>2026-04-18T09:58:05.999Z</time></trkpt><trkpt lat="44.663331053669744" lon="9.54686672367714"><ele>538.0</ele><time>2026-04-18T09:58:06.999Z</time></trkpt><trkpt lat="44.66326333661917" lon="9.546980002556268"><ele>538.0</ele><time>2026-04-18T09:58:07.999Z</time></trkpt><trkpt lat="44.663226380425996" lon="9.547101775870535"><ele>538.0</ele><time>2026-04-18T09:58:08.999Z</time></trkpt><trkpt lat="44.66319730673285" lon="9.547239332762434"><ele>538.25</ele><time>2026-04-18T09:58:09.999Z</time></trkpt><trkpt lat="44.66319907244703" lon="9.547405188597116"><ele>538.5</ele><time>2026-04-18T09:58:10.999Z</time></trkpt><trkpt lat="44.6632440540936" lon="9.547588705758221"><ele>538.75</ele><time>2026-04-18T09:58:11.999Z</time></trkpt><trkpt lat="44.66331913195266" lon="9.54778646445156"><ele>539.0</ele><time>2026-04-18T09:58:12.999Z</time></trkpt><trkpt lat="44.66339747271623" lon="9.547982947566625"><ele>535.6666666666666</ele><time>2026-04-18T09:58:13.999Z</time></trkpt><trkpt lat="44.663477337000494" lon="9.548199217854046"><ele>532.3333333333334</ele><time>2026-04-18T09:58:14.999Z</time></trkpt><trkpt lat="44.663568629836924" lon="9.548430485805316"><ele>529.0</ele><time>2026-04-18T09:58:15.999Z</time></trkpt><trkpt lat="44.66368399888092" lon="9.548675080182491"><ele>535.6666666666667</ele><time>2026-04-18T09:58:16.999Z</time></trkpt><trkpt lat="44.66379190969359" lon="9.548882427656253"><ele>542.3333333333334</ele><time>2026-04-18T09:58:17.999Z</time></trkpt><trkpt lat="44.66387132854794" lon="9.549065404306544"><ele>549.0</ele><time>2026-04-18T09:58:18.999Z</time></trkpt><trkpt lat="44.663934368280835" lon="9.549255596344915"><ele>549.0</ele><time>2026-04-18T09:58:19.999Z</time></trkpt><trkpt lat="44.663979628812704" lon="9.549479373442644"><ele>549.0</ele><time>2026-04-18T09:58:20.999Z</time></trkpt><trkpt lat="44.66401824856369" lon="9.549700493931695"><ele>549.0</ele><time>2026-04-18T09:58:21.999Z</time></trkpt><trkpt lat="44.66406580392419" lon="9.549904227305474"><ele>548.0</ele><time>2026-04-18T09:58:22.999Z</time></trkpt><trkpt lat="44.66413164740925" lon="9.550091229218301"><ele>547.0</ele><time>2026-04-18T09:58:23.999Z</time></trkpt><trkpt lat="44.66420952801945" lon="9.550232374306463"><ele>546.0</ele><time>2026-04-18T09:58:24.999Z</time></trkpt><trkpt lat="44.664504547344976" lon="9.550715359505956"><ele>546.0</ele><time>2026-04-18T09:58:25.999Z</time></trkpt><trkpt lat="44.66459699371167" lon="9.550918006655822"><ele>546.0</ele><time>2026-04-18T09:58:26.999Z</time></trkpt><trkpt lat="44.66468225409108" lon="9.551093912008406"><ele>546.0</ele><time>2026-04-18T09:58:27.999Z</time></trkpt><trkpt lat="44.66475417671601" lon="9.551240267514428"><ele>546.0</ele><time>2026-04-18T09:58:28.999Z</time></trkpt><trkpt lat="44.66478020344608" lon="9.551388623631182"><ele>545.5</ele><time>2026-04-18T09:58:29.999Z</time></trkpt><trkpt lat="44.66476828862924" lon="9.551531478768718"><ele>545.0</ele><time>2026-04-18T09:58:30.999Z</time></trkpt><trkpt lat="44.66471911543592" lon="9.551675924719625"><ele>544.5</ele><time>2026-04-18T09:58:31.999Z</time></trkpt><trkpt lat="44.66467820197127" lon="9.551871205893345"><ele>544.0</ele><time>2026-04-18T09:58:33Z</time></trkpt><trkpt lat="44.66463275195945" lon="9.552083082464877"><ele>544.0</ele><time>2026-04-18T09:58:34Z</time></trkpt><trkpt lat="44.66459511166088" lon="9.552282865420382"><ele>544.0</ele><time>2026-04-18T09:58:35Z</time></trkpt><trkpt lat="44.66456641906776" lon="9.552497436301561"><ele>544.0</ele><time>2026-04-18T09:58:36Z</time></trkpt><trkpt lat="44.66458453430207" lon="9.552714080941847"><ele>543.3333333333334</ele><time>2026-04-18T09:58:37Z</time></trkpt><trkpt lat="44.664603810237445" lon="9.552904614635137"><ele>542.6666666666666</ele><time>2026-04-18T09:58:38Z</time></trkpt><trkpt lat="44.664667231928966" lon="9.55311732438951"><ele>542.0</ele><time>2026-04-18T09:58:39Z</time></trkpt><trkpt lat="44.664759351298336" lon="9.5533791831395"><ele>542.0</ele><time>2026-04-18T09:58:40Z</time></trkpt><trkpt lat="44.664851442180975" lon="9.553642952237734"><ele>542.0</ele><time>2026-04-18T09:58:41Z</time></trkpt><trkpt lat="44.6649443901831" lon="9.553928643049595"><ele>542.0</ele><time>2026-04-18T09:58:42Z</time></trkpt><trkpt lat="44.665041697665835" lon="9.554233665583624"><ele>539.6666666666666</ele><time>2026-04-18T09:58:43Z</time></trkpt><trkpt lat="44.66512503820073" lon="9.55451689937062"><ele>537.3333333333334</ele><time>2026-04-18T09:58:44Z</time></trkpt><trkpt lat="44.66517341797952" lon="9.554784921548377"><ele>535.0</ele><time>2026-04-18T09:58:45Z</time></trkpt><trkpt lat="44.66525229937774" lon="9.555035750734731"><ele>539.6666666666667</ele><time>2026-04-18T09:58:46Z</time></trkpt><trkpt lat="44.66532257506366" lon="9.555305588795635"><ele>544.3333333333334</ele><time>2026-04-18T09:58:47Z</time></trkpt><trkpt lat="44.665400312876805" lon="9.555555122416626"><ele>549.0</ele><time>2026-04-18T09:58:48Z</time></trkpt><trkpt lat="44.66545417623909" lon="9.555819282727633"><ele>549.0</ele><time>2026-04-18T09:58:49Z</time></trkpt><trkpt lat="44.66551822457488" lon="9.55608959876345"><ele>549.0</ele><time>2026-04-18T09:58:50Z</time></trkpt><trkpt lat="44.665575131362125" lon="9.556374209786847"><ele>549.0</ele><time>2026-04-18T09:58:51Z</time></trkpt><trkpt lat="44.66561510487659" lon="9.5566684593251"><ele>544.3333333333334</ele><time>2026-04-18T09:58:52Z</time></trkpt><trkpt lat="44.66564786487162" lon="9.55694234550313"><ele>539.6666666666667</ele><time>2026-04-18T09:58:53Z</time></trkpt><trkpt lat="44.66567742223609" lon="9.557202450336813"><ele>535.0</ele><time>2026-04-18T09:58:54Z</time></trkpt><trkpt lat="44.66570719386123" lon="9.557458549789906"><ele>531.6666666666667</ele><time>2026-04-18T09:58:55Z</time></trkpt><trkpt lat="44.6657373019916" lon="9.55770322832066"><ele>528.3333333333334</ele><time>2026-04-18T09:58:56Z</time></trkpt><trkpt lat="44.665797516455996" lon="9.557942148335552"><ele>525.0</ele><time>2026-04-18T09:58:57Z</time></trkpt><trkpt lat="44.66586805875092" lon="9.55820286605619"><ele>523.3333333333334</ele><time>2026-04-18T09:58:58Z</time></trkpt><trkpt lat="44.665960714362214" lon="9.558481362151324"><ele>521.6666666666667</ele><time>2026-04-18T09:58:59Z</time></trkpt><trkpt lat="44.66602059257592" lon="9.558751753106662"><ele>520.0</ele><time>2026-04-18T09:59:00Z</time></trkpt><trkpt lat="44.6660908494292" lon="9.558996557840377"><ele>524.0</ele><time>2026-04-18T09:59:01Z</time></trkpt><trkpt lat="44.666150545423726" lon="9.559244573196045"><ele>528.0</ele><time>2026-04-18T09:59:02Z</time></trkpt><trkpt lat="44.66620258271078" lon="9.559485817341088"><ele>532.0</ele><time>2026-04-18T09:59:03Z</time></trkpt><trkpt lat="44.66624987866308" lon="9.5597057504996"><ele>532.0</ele><time>2026-04-18T09:59:04Z</time></trkpt><trkpt lat="44.66629220090236" lon="9.559911354681304"><ele>532.0</ele><time>2026-04-18T09:59:05Z</time></trkpt><trkpt lat="44.66631182062369" lon="9.560104459538401"><ele>532.0</ele><time>2026-04-18T09:59:06Z</time></trkpt><trkpt lat="44.66627779354983" lon="9.560278616789788"><ele>532.0</ele><time>2026-04-18T09:59:07Z</time></trkpt><trkpt lat="44.666198974434046" lon="9.560425340486027"><ele>528.0</ele><time>2026-04-18T09:59:08Z</time></trkpt><trkpt lat="44.666104905857814" lon="9.560609381681564"><ele>524.0</ele><time>2026-04-18T09:59:09Z</time></trkpt><trkpt lat="44.66603943677986" lon="9.560772781563461"><ele>520.0</ele><time>2026-04-18T09:59:10Z</time></trkpt><trkpt lat="44.665976926369815" lon="9.560892868660758"><ele>516.0</ele><time>2026-04-18T09:59:11Z</time></trkpt><trkpt lat="44.66594869644092" lon="9.561015448244136"><ele>516.0</ele><time>2026-04-18T09:59:12Z</time></trkpt><trkpt lat="44.66595610352922" lon="9.561147680051054"><ele>516.0</ele><time>2026-04-18T09:59:13Z</time></trkpt><trkpt lat="44.66599261151701" lon="9.561274661905527"><ele>516.0</ele><time>2026-04-18T09:59:14Z</time></trkpt><trkpt lat="44.66608020559401" lon="9.561404810056956"><ele>516.0</ele><time>2026-04-18T09:59:15Z</time></trkpt><trkpt lat="44.66617807470145" lon="9.561538482286517"><ele>517.75</ele><time>2026-04-18T09:59:16Z</time></trkpt><trkpt lat="44.66626235668291" lon="9.561663478558934"><ele>519.5</ele><time>2026-04-18T09:59:17Z</time></trkpt><trkpt lat="44.66634468674708" lon="9.561777223525494"><ele>521.25</ele><time>2026-04-18T09:59:18Z</time></trkpt><trkpt lat="44.66644259734467" lon="9.561854986592364"><ele>523.0</ele><time>2026-04-18T09:59:19Z</time></trkpt><trkpt lat="44.66656551151915" lon="9.561914562349877"><ele>523.0</ele><time>2026-04-18T09:59:20Z</time></trkpt><trkpt lat="44.66669967587899" lon="9.561954725993557"><ele>523.0</ele><time>2026-04-18T09:59:21Z</time></trkpt><trkpt lat="44.66679921218169" lon="9.56202631293618"><ele>523.0</ele><time>2026-04-18T09:59:22Z</time></trkpt><trkpt lat="44.666900204235816" lon="9.562067000796782"><ele>523.0</ele><time>2026-04-18T09:59:23Z</time></trkpt><trkpt lat="44.6669818390247" lon="9.562156624590937"><ele>524.5</ele><time>2026-04-18T09:59:24Z</time></trkpt><trkpt lat="44.66705558214077" lon="9.56227922462697"><ele>526.0</ele><time>2026-04-18T09:59:25Z</time></trkpt><trkpt lat="44.66712961578825" lon="9.562445195436464"><ele>527.5</ele><time>2026-04-18T09:59:26Z</time></trkpt><trkpt lat="44.66718849822351" lon="9.562656185078323"><ele>529.0</ele><time>2026-04-18T09:59:27Z</time></trkpt><trkpt lat="44.66726812378701" lon="9.562857865485453"><ele>526.75</ele><time>2026-04-18T09:59:28Z</time></trkpt><trkpt lat="44.667332491899735" lon="9.563033895398835"><ele>524.5</ele><time>2026-04-18T09:59:29Z</time></trkpt><trkpt lat="44.66738188024747" lon="9.563198993986271"><ele>522.25</ele><time>2026-04-18T09:59:30Z</time></trkpt><trkpt lat="44.667407710912926" lon="9.563371137302981"><ele>520.0</ele><time>2026-04-18T09:59:31Z</time></trkpt><trkpt lat="44.66742365418924" lon="9.563575635101191"><ele>517.3333333333334</ele><time>2026-04-18T09:59:32Z</time></trkpt><trkpt lat="44.66745301039436" lon="9.563789320672132"><ele>514.6666666666666</ele><time>2026-04-18T09:59:33Z</time></trkpt><trkpt lat="44.667486248143575" lon="9.564003611722644"><ele>512.0</ele><time>2026-04-18T09:59:34Z</time></trkpt><trkpt lat="44.66753135114186" lon="9.564220475252203"><ele>512.0</ele><time>2026-04-18T09:59:35Z</time></trkpt><trkpt lat="44.667593035487464" lon="9.564431311199415"><ele>512.0</ele><time>2026-04-18T09:59:36Z</time></trkpt><trkpt lat="44.66764845637934" lon="9.564620582129157"><ele>512.0</ele><time>2026-04-18T09:59:37Z</time></trkpt><trkpt lat="44.667712141635604" lon="9.564791196437056"><ele>512.0</ele><time>2026-04-18T09:59:37.999Z</time></trkpt><trkpt lat="44.66778374011943" lon="9.564945752813637"><ele>513.0</ele><time>2026-04-18T09:59:38.999Z</time></trkpt><trkpt lat="44.667874481210205" lon="9.565071795090898"><ele>514.0</ele><time>2026-04-18T09:59:39.999Z</time></trkpt><trkpt lat="44.66799769359806" lon="9.565161755790824"><ele>515.0</ele><time>2026-04-18T09:59:40.999Z</time></trkpt><trkpt lat="44.66814524234746" lon="9.56525811726965"><ele>516.0</ele><time>2026-04-18T09:59:41.999Z</time></trkpt><trkpt lat="44.66827367821053" lon="9.56541819651805"><ele>514.0</ele><time>2026-04-18T09:59:42.999Z</time></trkpt><trkpt lat="44.668398608948195" lon="9.565568182032624"><ele>512.0</ele><time>2026-04-18T09:59:43.999Z</time></trkpt><trkpt lat="44.668509310451036" lon="9.565706369009733"><ele>510.0</ele><time>2026-04-18T09:59:44.999Z</time></trkpt><trkpt lat="44.668605708883646" lon="9.565837589155818"><ele>508.0</ele><time>2026-04-18T09:59:45.999Z</time></trkpt><trkpt lat="44.668703581967456" lon="9.565995502555923"><ele>510.0</ele><time>2026-04-18T09:59:46.999Z</time></trkpt><trkpt lat="44.66878156153205" lon="9.566188164875573"><ele>512.0</ele><time>2026-04-18T09:59:47.999Z</time></trkpt><trkpt lat="44.668847095866056" lon="9.566379999474577"><ele>514.0</ele><time>2026-04-18T09:59:48.999Z</time></trkpt><trkpt lat="44.668913475275126" lon="9.566544357998547"><ele>516.0</ele><time>2026-04-18T09:59:49.999Z</time></trkpt><trkpt lat="44.6689601342008" lon="9.56669485539864"><ele>516.0</ele><time>2026-04-18T09:59:50.999Z</time></trkpt><trkpt lat="44.66903003146447" lon="9.566825807824394"><ele>516.0</ele><time>2026-04-18T09:59:51.999Z</time></trkpt><trkpt lat="44.66914181439799" lon="9.566910611381962"><ele>516.0</ele><time>2026-04-18T09:59:52.999Z</time></trkpt><trkpt lat="44.669287696322606" lon="9.56696615658671"><ele>516.0</ele><time>2026-04-18T09:59:53.999Z</time></trkpt><trkpt lat="44.66944902827132" lon="9.566991652475664"><ele>511.66666666666663</ele><time>2026-04-18T09:59:54.999Z</time></trkpt><trkpt lat="44.66958893492255" lon="9.56705360027581"><ele>507.3333333333333</ele><time>2026-04-18T09:59:55.999Z</time></trkpt><trkpt lat="44.66974019849888" lon="9.567111372478998"><ele>503.0</ele><time>2026-04-18T09:59:56.999Z</time></trkpt><trkpt lat="44.66990898257845" lon="9.56718758651659"><ele>503.0</ele><time>2026-04-18T09:59:57.999Z</time></trkpt><trkpt lat="44.67006566485623" lon="9.567274271864255"><ele>503.0</ele><time>2026-04-18T09:59:58.999Z</time></trkpt><trkpt lat="44.67020426504504" lon="9.567360840645238"><ele>503.0</ele><time>2026-04-18T09:59:59.999Z</time></trkpt><trkpt lat="44.67032947145911" lon="9.567438699626523"><ele>503.66666666666663</ele><time>2026-04-18T10:00:00.999Z</time></trkpt><trkpt lat="44.670465617424355" lon="9.567474214367468"><ele>504.33333333333337</ele><time>2026-04-18T10:00:01.999Z</time></trkpt><trkpt lat="44.670618182483885" lon="9.567489822298995"><ele>505.0</ele><time>2026-04-18T10:00:02.999Z</time></trkpt><trkpt lat="44.6707925500321" lon="9.56749228117539"><ele>505.0</ele><time>2026-04-18T10:00:03.999Z</time></trkpt><trkpt lat="44.67094883526432" lon="9.567466421035736"><ele>505.0</ele><time>2026-04-18T10:00:04.999Z</time></trkpt><trkpt lat="44.67107761610034" lon="9.567470150057492"><ele>505.0</ele><time>2026-04-18T10:00:05.999Z</time></trkpt><trkpt lat="44.671198801728195" lon="9.567537407386999"><ele>505.0</ele><time>2026-04-18T10:00:06.999Z</time></trkpt><trkpt lat="44.671332311308035" lon="9.567664788964237"><ele>506.33333333333337</ele><time>2026-04-18T10:00:07.999Z</time></trkpt><trkpt lat="44.67148787952671" lon="9.567785946576128"><ele>507.66666666666663</ele><time>2026-04-18T10:00:08.999Z</time></trkpt><trkpt lat="44.671643860920184" lon="9.567876466841756"><ele>509.0</ele><time>2026-04-18T10:00:09.999Z</time></trkpt><trkpt lat="44.67176876789762" lon="9.567981094078355"><ele>507.0</ele><time>2026-04-18T10:00:10.999Z</time></trkpt><trkpt lat="44.67189792503409" lon="9.568057309623015"><ele>505.0</ele><time>2026-04-18T10:00:11.999Z</time></trkpt><trkpt lat="44.67202597715213" lon="9.56809619794455"><ele>503.0</ele><time>2026-04-18T10:00:12.999Z</time></trkpt><trkpt lat="44.67214557675618" lon="9.568123907915195"><ele>501.0</ele><time>2026-04-18T10:00:13.999Z</time></trkpt><trkpt lat="44.67225889526107" lon="9.568126493623689"><ele>501.0</ele><time>2026-04-18T10:00:14.999Z</time></trkpt><trkpt lat="44.6723657323491" lon="9.568129077087718"><ele>501.0</ele><time>2026-04-18T10:00:15.999Z</time></trkpt><trkpt lat="44.67246862008335" lon="9.568139237173545"><ele>501.0</ele><time>2026-04-18T10:00:16.999Z</time></trkpt><trkpt lat="44.67253593701566" lon="9.568156147274685"><ele>501.0</ele><time>2026-04-18T10:00:17.999Z</time></trkpt><trkpt lat="44.67260958918126" lon="9.568177729240995"><ele>501.0</ele><time>2026-04-18T10:00:19.999Z</time></trkpt><trkpt lat="44.67268794731745" lon="9.568193902109705"><ele>501.0</ele><time>2026-04-18T10:00:22.999Z</time></trkpt><trkpt lat="44.672747669290466" lon="9.56815866741073"><ele>498.8</ele><time>2026-04-18T10:08:05.999Z</time></trkpt><trkpt lat="44.67281326271379" lon="9.568195607280824"><ele>496.6</ele><time>2026-04-18T10:15:09.999Z</time></trkpt><trkpt lat="44.67289526842436" lon="9.568163649585882"><ele>494.4</ele><time>2026-04-18T10:15:11.999Z</time></trkpt><trkpt lat="44.673020862185915" lon="9.568145053562645"><ele>492.2</ele><time>2026-04-18T10:15:13.999Z</time></trkpt><trkpt lat="44.6731138548672" lon="9.568144682646674"><ele>490.0</ele><time>2026-04-18T10:15:14.999Z</time></trkpt><trkpt lat="44.673204178451236" lon="9.568137883097286"><ele>490.0</ele><time>2026-04-18T10:15:15.999Z</time></trkpt><trkpt lat="44.67330526796809" lon="9.568108678637067"><ele>490.0</ele><time>2026-04-18T10:15:16.999Z</time></trkpt><trkpt lat="44.673404360111505" lon="9.568055752868219"><ele>490.0</ele><time>2026-04-18T10:15:17.999Z</time></trkpt><trkpt lat="44.673493162656285" lon="9.56799077184549"><ele>490.0</ele><time>2026-04-18T10:15:18.999Z</time></trkpt><trkpt lat="44.673585405359184" lon="9.567915888828386"><ele>490.0</ele><time>2026-04-18T10:15:19.999Z</time></trkpt><trkpt lat="44.67367653011922" lon="9.5678202072493"><ele>491.25</ele><time>2026-04-18T10:15:21Z</time></trkpt><trkpt lat="44.673774421754004" lon="9.567717184562213"><ele>492.5</ele><time>2026-04-18T10:15:22Z</time></trkpt><trkpt lat="44.67388519675424" lon="9.567625039084549"><ele>493.75</ele><time>2026-04-18T10:15:23Z</time></trkpt><trkpt lat="44.67399374310715" lon="9.56754307143244"><ele>495.0</ele><time>2026-04-18T10:15:24Z</time></trkpt><trkpt lat="44.67410691480475" lon="9.567483720936627"><ele>495.0</ele><time>2026-04-18T10:15:25Z</time></trkpt><trkpt lat="44.67423028307068" lon="9.567432705599389"><ele>495.0</ele><time>2026-04-18T10:15:26Z</time></trkpt><trkpt lat="44.674365162827364" lon="9.567367748565967"><ele>495.0</ele><time>2026-04-18T10:15:27Z</time></trkpt><trkpt lat="44.67449237018732" lon="9.56730441203175"><ele>495.0</ele><time>2026-04-18T10:15:28Z</time></trkpt><trkpt lat="44.67462519892197" lon="9.567228555595229"><ele>495.0</ele><time>2026-04-18T10:15:29Z</time></trkpt><trkpt lat="44.67476141234851" lon="9.567153564203675"><ele>495.0</ele><time>2026-04-18T10:15:30Z</time></trkpt><trkpt lat="44.67490797938671" lon="9.567105074939663"><ele>495.0</ele><time>2026-04-18T10:15:31Z</time></trkpt><trkpt lat="44.67504392781926" lon="9.567065867170301"><ele>495.0</ele><time>2026-04-18T10:15:32Z</time></trkpt><trkpt lat="44.67518106308142" lon="9.567014672514423"><ele>494.0</ele><time>2026-04-18T10:15:33Z</time></trkpt><trkpt lat="44.67533214717851" lon="9.566945767126823"><ele>493.0</ele><time>2026-04-18T10:15:34Z</time></trkpt><trkpt lat="44.675471644987745" lon="9.56688837015181"><ele>492.0</ele><time>2026-04-18T10:15:35Z</time></trkpt><trkpt lat="44.67560865532752" lon="9.566859752336091"><ele>491.0</ele><time>2026-04-18T10:15:36Z</time></trkpt><trkpt lat="44.675760311376536" lon="9.566850487636223"><ele>491.0</ele><time>2026-04-18T10:15:37Z</time></trkpt><trkpt lat="44.67591898092853" lon="9.566852668203886"><ele>491.0</ele><time>2026-04-18T10:15:38Z</time></trkpt><trkpt lat="44.67608976373527" lon="9.566858968148566"><ele>491.0</ele><time>2026-04-18T10:15:39Z</time></trkpt><trkpt lat="44.67625299381304" lon="9.566860857705299"><ele>490.5</ele><time>2026-04-18T10:15:40Z</time></trkpt><trkpt lat="44.67640197143718" lon="9.566853149654449"><ele>490.0</ele><time>2026-04-18T10:15:41Z</time></trkpt><trkpt lat="44.676542111181526" lon="9.566819540268432"><ele>489.5</ele><time>2026-04-18T10:15:42Z</time></trkpt><trkpt lat="44.676674167664174" lon="9.566769725159423"><ele>489.0</ele><time>2026-04-18T10:15:43Z</time></trkpt><trkpt lat="44.676791873549604" lon="9.56670711050101"><ele>489.0</ele><time>2026-04-18T10:15:44Z</time></trkpt><trkpt lat="44.67689587962492" lon="9.5666350785361"><ele>489.0</ele><time>2026-04-18T10:15:45Z</time></trkpt><trkpt lat="44.67699867302417" lon="9.566575579752666"><ele>489.0</ele><time>2026-04-18T10:15:46Z</time></trkpt><trkpt lat="44.67710095699447" lon="9.56656749435771"><ele>489.0</ele><time>2026-04-18T10:15:47Z</time></trkpt><trkpt lat="44.6771885508462" lon="9.566613162561438"><ele>489.0</ele><time>2026-04-18T10:15:48Z</time></trkpt><trkpt lat="44.67726820996308" lon="9.566711731107622"><ele>486.25</ele><time>2026-04-18T10:15:49Z</time></trkpt><trkpt lat="44.67734196947158" lon="9.566850199922227"><ele>483.5</ele><time>2026-04-18T10:15:50Z</time></trkpt><trkpt lat="44.67741896979855" lon="9.567005852838411"><ele>480.75</ele><time>2026-04-18T10:15:51Z</time></trkpt><trkpt lat="44.67750041571847" lon="9.567180644495341"><ele>478.0</ele><time>2026-04-18T10:15:52Z</time></trkpt><trkpt lat="44.677578851000604" lon="9.567332999389057"><ele>477.25</ele><time>2026-04-18T10:15:53Z</time></trkpt><trkpt lat="44.67765494101114" lon="9.567472706351335"><ele>476.5</ele><time>2026-04-18T10:15:54Z</time></trkpt><trkpt lat="44.677734936026305" lon="9.567618351659286"><ele>475.75</ele><time>2026-04-18T10:15:55Z</time></trkpt><trkpt lat="44.67782084840982" lon="9.567771790580688"><ele>475.0</ele><time>2026-04-18T10:15:56Z</time></trkpt><trkpt lat="44.677908656546485" lon="9.567939996181446"><ele>478.0</ele><time>2026-04-18T10:15:57Z</time></trkpt><trkpt lat="44.67798565723562" lon="9.568086262584396"><ele>481.0</ele><time>2026-04-18T10:15:58Z</time></trkpt><trkpt lat="44.6780581713757" lon="9.568221094893897"><ele>484.0</ele><time>2026-04-18T10:15:59Z</time></trkpt><trkpt lat="44.67812179838372" lon="9.568344389993388"><ele>487.0</ele><time>2026-04-18T10:16:00Z</time></trkpt><trkpt lat="44.67818064760769" lon="9.56845512943437"><ele>487.0</ele><time>2026-04-18T10:16:01Z</time></trkpt><trkpt lat="44.67824802599808" lon="9.568540077960428"><ele>487.00000000000006</ele><time>2026-04-18T10:16:02Z</time></trkpt><trkpt lat="44.67833367989082" lon="9.568578712032444"><ele>487.00000000000006</ele><time>2026-04-18T10:16:03Z</time></trkpt><trkpt lat="44.678434815871505" lon="9.568568238174134"><ele>487.0</ele><time>2026-04-18T10:16:04Z</time></trkpt><trkpt lat="44.67854062021891" lon="9.568508176350731"><ele>487.0</ele><time>2026-04-18T10:16:05Z</time></trkpt><trkpt lat="44.67862616176829" lon="9.56842036755753"><ele>487.75</ele><time>2026-04-18T10:16:06Z</time></trkpt><trkpt lat="44.678694050324616" lon="9.568298248082515"><ele>488.5</ele><time>2026-04-18T10:16:07Z</time></trkpt><trkpt lat="44.678743782559955" lon="9.568155273279581"><ele>489.25</ele><time>2026-04-18T10:16:08Z</time></trkpt><trkpt lat="44.678782806903826" lon="9.567983389533712"><ele>490.0</ele><time>2026-04-18T10:16:09Z</time></trkpt><trkpt lat="44.67881809796181" lon="9.567784143065238"><ele>490.0</ele><time>2026-04-18T10:16:10Z</time></trkpt><trkpt lat="44.67885992570571" lon="9.567568494494727"><ele>490.0</ele><time>2026-04-18T10:16:11Z</time></trkpt><trkpt lat="44.67892732289916" lon="9.56737934333888"><ele>490.0</ele><time>2026-04-18T10:16:12Z</time></trkpt><trkpt lat="44.67901748040964" lon="9.567211284468138"><ele>490.0</ele><time>2026-04-18T10:16:13Z</time></trkpt><trkpt lat="44.67913264092568" lon="9.567049582572663"><ele>490.0</ele><time>2026-04-18T10:16:14Z</time></trkpt><trkpt lat="44.67926323200158" lon="9.56688735141249"><ele>490.0</ele><time>2026-04-18T10:16:15Z</time></trkpt><trkpt lat="44.679399740909425" lon="9.56672728933684"><ele>490.6666666666667</ele><time>2026-04-18T10:16:16Z</time></trkpt><trkpt lat="44.67954705879722" lon="9.566565037088148"><ele>491.33333333333337</ele><time>2026-04-18T10:16:17Z</time></trkpt><trkpt lat="44.679681237420986" lon="9.56641862834543"><ele>492.0</ele><time>2026-04-18T10:16:18Z</time></trkpt><trkpt lat="44.679805916107384" lon="9.566278421246135"><ele>486.66666666666663</ele><time>2026-04-18T10:16:19Z</time></trkpt><trkpt lat="44.679934839433884" lon="9.56613687987458"><ele>481.3333333333333</ele><time>2026-04-18T10:16:20Z</time></trkpt><trkpt lat="44.68007235987851" lon="9.566006041516408"><ele>476.0</ele><time>2026-04-18T10:16:21Z</time></trkpt><trkpt lat="44.68021669215909" lon="9.565934119616612"><ele>477.25</ele><time>2026-04-18T10:16:22Z</time></trkpt><trkpt lat="44.68036339106957" lon="9.56590821700324"><ele>478.5</ele><time>2026-04-18T10:16:23Z</time></trkpt><trkpt lat="44.680515370402006" lon="9.5658898085222"><ele>479.75</ele><time>2026-04-18T10:16:24Z</time></trkpt><trkpt lat="44.68065873530565" lon="9.565834729883944"><ele>481.0</ele><time>2026-04-18T10:16:25Z</time></trkpt><trkpt lat="44.68078231705314" lon="9.565769416852755"><ele>481.0</ele><time>2026-04-18T10:16:26Z</time></trkpt><trkpt lat="44.68090379608301" lon="9.565759433435803"><ele>481.0</ele><time>2026-04-18T10:16:27Z</time></trkpt><trkpt lat="44.681005417466295" lon="9.565832488500371"><ele>481.0</ele><time>2026-04-18T10:16:28Z</time></trkpt><trkpt lat="44.681081896876066" lon="9.565955828695062"><ele>481.0</ele><time>2026-04-18T10:16:29Z</time></trkpt><trkpt lat="44.68113654961052" lon="9.566115498709902"><ele>482.25</ele><time>2026-04-18T10:16:30Z</time></trkpt><trkpt lat="44.681196481049525" lon="9.566271712594205"><ele>483.5</ele><time>2026-04-18T10:16:31Z</time></trkpt><trkpt lat="44.68129361501199" lon="9.566410155948242"><ele>484.75</ele><time>2026-04-18T10:16:32Z</time></trkpt><trkpt lat="44.68140155231138" lon="9.56651479234722"><ele>486.0</ele><time>2026-04-18T10:16:33Z</time></trkpt><trkpt lat="44.68152771683685" lon="9.566595905713722"><ele>486.0</ele><time>2026-04-18T10:16:34Z</time></trkpt><trkpt lat="44.68166794262988" lon="9.566648015033131"><ele>486.0</ele><time>2026-04-18T10:16:35Z</time></trkpt><trkpt lat="44.68182058034191" lon="9.566662431546858"><ele>486.0</ele><time>2026-04-18T10:16:36Z</time></trkpt><trkpt lat="44.68197171653113" lon="9.566659376593496"><ele>486.0</ele><time>2026-04-18T10:16:37Z</time></trkpt><trkpt lat="44.68210234413983" lon="9.566668912593812"><ele>484.25</ele><time>2026-04-18T10:16:38Z</time></trkpt><trkpt lat="44.682230985068585" lon="9.566731628658308"><ele>482.5</ele><time>2026-04-18T10:16:38.999Z</time></trkpt><trkpt lat="44.68234988481143" lon="9.566840753590833"><ele>480.75</ele><time>2026-04-18T10:16:39.999Z</time></trkpt><trkpt lat="44.68244700545899" lon="9.566964878092305"><ele>479.0</ele><time>2026-04-18T10:16:40.999Z</time></trkpt><trkpt lat="44.6825445147697" lon="9.567056926955411"><ele>478.0</ele><time>2026-04-18T10:16:41.999Z</time></trkpt><trkpt lat="44.68265867397956" lon="9.567073229718464"><ele>477.0</ele><time>2026-04-18T10:16:42.999Z</time></trkpt><trkpt lat="44.6827659424505" lon="9.567018256410227"><ele>476.0</ele><time>2026-04-18T10:16:43.999Z</time></trkpt><trkpt lat="44.68286466149255" lon="9.566910708222442"><ele>475.0</ele><time>2026-04-18T10:16:44.999Z</time></trkpt><trkpt lat="44.68295779138842" lon="9.566812574496721"><ele>475.0</ele><time>2026-04-18T10:16:45.999Z</time></trkpt><trkpt lat="44.6830609416505" lon="9.56678048851427"><ele>475.0</ele><time>2026-04-18T10:16:46.999Z</time></trkpt><trkpt lat="44.68316639027223" lon="9.566819227477414"><ele>475.0</ele><time>2026-04-18T10:16:47.999Z</time></trkpt><trkpt lat="44.68324535043682" lon="9.566910156580974"><ele>475.0</ele><time>2026-04-18T10:16:48.999Z</time></trkpt><trkpt lat="44.68329594904045" lon="9.567050875429784"><ele>475.0</ele><time>2026-04-18T10:16:49.999Z</time></trkpt><trkpt lat="44.68334236832318" lon="9.567230261706172"><ele>474.33333333333337</ele><time>2026-04-18T10:16:50.999Z</time></trkpt><trkpt lat="44.68339396933281" lon="9.56743390616778"><ele>473.66666666666663</ele><time>2026-04-18T10:16:51.999Z</time></trkpt><trkpt lat="44.68348853437354" lon="9.567629107482025"><ele>473.0</ele><time>2026-04-18T10:16:52.999Z</time></trkpt><trkpt lat="44.683624803006026" lon="9.567823873162641"><ele>477.0</ele><time>2026-04-18T10:16:53.999Z</time></trkpt><trkpt lat="44.68373182797276" lon="9.56803046697024"><ele>481.0</ele><time>2026-04-18T10:16:54.999Z</time></trkpt><trkpt lat="44.683826413873945" lon="9.568207410552013"><ele>485.0</ele><time>2026-04-18T10:16:55.999Z</time></trkpt><trkpt lat="44.68390238536792" lon="9.568370805862793"><ele>485.0</ele><time>2026-04-18T10:16:56.999Z</time></trkpt><trkpt lat="44.68398821558981" lon="9.56849412080029"><ele>485.0</ele><time>2026-04-18T10:16:57.999Z</time></trkpt><trkpt lat="44.684091307775304" lon="9.568584017623863"><ele>485.0</ele><time>2026-04-18T10:16:58.999Z</time></trkpt><trkpt lat="44.684218591263296" lon="9.568646738813449"><ele>485.0</ele><time>2026-04-18T10:16:59.999Z</time></trkpt><trkpt lat="44.68435524306696" lon="9.568670418018565"><ele>483.75</ele><time>2026-04-18T10:17:00.999Z</time></trkpt><trkpt lat="44.68449590654036" lon="9.56864423634585"><ele>482.5</ele><time>2026-04-18T10:17:01.999Z</time></trkpt><trkpt lat="44.68462194897486" lon="9.568586556649615"><ele>481.25</ele><time>2026-04-18T10:17:02.999Z</time></trkpt><trkpt lat="44.68474068476916" lon="9.568580541186016"><ele>480.0</ele><time>2026-04-18T10:17:03.999Z</time></trkpt><trkpt lat="44.68485681909887" lon="9.568643302286596"><ele>480.0</ele><time>2026-04-18T10:17:04.999Z</time></trkpt><trkpt lat="44.68496931743941" lon="9.568715089423987"><ele>480.0</ele><time>2026-04-18T10:17:05.999Z</time></trkpt><trkpt lat="44.685106701233565" lon="9.56872636401621"><ele>480.0</ele><time>2026-04-18T10:17:06.999Z</time></trkpt><trkpt lat="44.68524542284443" lon="9.568670331740075"><ele>480.0</ele><time>2026-04-18T10:17:07.999Z</time></trkpt><trkpt lat="44.68537091870093" lon="9.56858220328438"><ele>482.25</ele><time>2026-04-18T10:17:08.999Z</time></trkpt><trkpt lat="44.68549836639265" lon="9.56846693848955"><ele>484.5</ele><time>2026-04-18T10:17:09.999Z</time></trkpt><trkpt lat="44.685619801372106" lon="9.568358784989421"><ele>486.75</ele><time>2026-04-18T10:17:10.999Z</time></trkpt><trkpt lat="44.685741595358294" lon="9.568303825982419"><ele>489.0</ele><time>2026-04-18T10:17:11.999Z</time></trkpt><trkpt lat="44.68588169428695" lon="9.568299151042439"><ele>489.0</ele><time>2026-04-18T10:17:12.999Z</time></trkpt><trkpt lat="44.68602979765017" lon="9.568341766377966"><ele>489.0</ele><time>2026-04-18T10:17:13.999Z</time></trkpt><trkpt lat="44.68618892174761" lon="9.568417705104032"><ele>489.0</ele><time>2026-04-18T10:17:14.999Z</time></trkpt><trkpt lat="44.68634241881773" lon="9.56849051140204"><ele>488.25</ele><time>2026-04-18T10:17:15.999Z</time></trkpt><trkpt lat="44.686475742827895" lon="9.568549283734471"><ele>487.5</ele><time>2026-04-18T10:17:16.999Z</time></trkpt><trkpt lat="44.686596046344235" lon="9.56859862330633"><ele>486.75</ele><time>2026-04-18T10:17:17.999Z</time></trkpt><trkpt lat="44.686719275706004" lon="9.56861156566551"><ele>486.0</ele><time>2026-04-18T10:17:18.999Z</time></trkpt><trkpt lat="44.686858544176246" lon="9.56856252211749"><ele>487.0</ele><time>2026-04-18T10:17:19.999Z</time></trkpt><trkpt lat="44.68701040987157" lon="9.568463748705547"><ele>488.0</ele><time>2026-04-18T10:17:20.999Z</time></trkpt><trkpt lat="44.68716198487385" lon="9.568366044692436"><ele>489.0</ele><time>2026-04-18T10:17:21.999Z</time></trkpt><trkpt lat="44.687337903392155" lon="9.568295980377876"><ele>489.0</ele><time>2026-04-18T10:17:22.999Z</time></trkpt><trkpt lat="44.68753754026742" lon="9.568261934800892"><ele>489.0</ele><time>2026-04-18T10:17:23.999Z</time></trkpt><trkpt lat="44.68771538998688" lon="9.56826253721046"><ele>489.0</ele><time>2026-04-18T10:17:24.999Z</time></trkpt><trkpt lat="44.68786740394284" lon="9.568299316173785"><ele>489.33333333333337</ele><time>2026-04-18T10:17:25.999Z</time></trkpt><trkpt lat="44.68800526279572" lon="9.568378429873018"><ele>489.6666666666667</ele><time>2026-04-18T10:17:27Z</time></trkpt><trkpt lat="44.68813771925634" lon="9.568513509066673"><ele>490.0</ele><time>2026-04-18T10:17:28Z</time></trkpt><trkpt lat="44.68825910434854" lon="9.568683879878323"><ele>491.75</ele><time>2026-04-18T10:17:29Z</time></trkpt><trkpt lat="44.688340729971" lon="9.568886791284022"><ele>493.5</ele><time>2026-04-18T10:17:30Z</time></trkpt><trkpt lat="44.688415239575995" lon="9.569062081546802"><ele>495.25</ele><time>2026-04-18T10:17:31Z</time></trkpt><trkpt lat="44.68846705058765" lon="9.569213508989433"><ele>497.0</ele><time>2026-04-18T10:17:32Z</time></trkpt><trkpt lat="44.688549989787795" lon="9.569328570479703"><ele>496.5</ele><time>2026-04-18T10:17:33Z</time></trkpt><trkpt lat="44.68866447390514" lon="9.569384162378402"><ele>496.0</ele><time>2026-04-18T10:17:34Z</time></trkpt><trkpt lat="44.688793701864576" lon="9.569391121003589"><ele>495.5</ele><time>2026-04-18T10:17:35Z</time></trkpt><trkpt lat="44.688946642789496" lon="9.569335808110203"><ele>495.0</ele><time>2026-04-18T10:17:36Z</time></trkpt><trkpt lat="44.68912288818435" lon="9.569247153008387"><ele>495.0</ele><time>2026-04-18T10:17:37Z</time></trkpt><trkpt lat="44.68928610397031" lon="9.569187983017699"><ele>495.0</ele><time>2026-04-18T10:17:38Z</time></trkpt><trkpt lat="44.68943456286506" lon="9.569154409599541"><ele>495.0</ele><time>2026-04-18T10:17:39Z</time></trkpt><trkpt lat="44.689573633791134" lon="9.56914926708384"><ele>496.0</ele><time>2026-04-18T10:17:40Z</time></trkpt><trkpt lat="44.689696339279344" lon="9.56914251077713"><ele>497.0</ele><time>2026-04-18T10:17:41Z</time></trkpt><trkpt lat="44.68980381022354" lon="9.569097651138485"><ele>498.0</ele><time>2026-04-18T10:17:42Z</time></trkpt><trkpt lat="44.68990622536959" lon="9.56901878410831"><ele>499.0</ele><time>2026-04-18T10:17:43Z</time></trkpt><trkpt lat="44.689996699178124" lon="9.568893010235199"><ele>499.0</ele><time>2026-04-18T10:17:44Z</time></trkpt><trkpt lat="44.69008132552308" lon="9.56876098798134"><ele>499.0</ele><time>2026-04-18T10:17:45Z</time></trkpt><trkpt lat="44.69018290789171" lon="9.56868838784086"><ele>499.0</ele><time>2026-04-18T10:17:46Z</time></trkpt><trkpt lat="44.690297883365005" lon="9.56867715970935"><ele>499.0</ele><time>2026-04-18T10:17:47Z</time></trkpt><trkpt lat="44.69041921281678" lon="9.568722146225888"><ele>497.25</ele><time>2026-04-18T10:17:48Z</time></trkpt><trkpt lat="44.69052198286293" lon="9.568822379340125"><ele>495.5</ele><time>2026-04-18T10:17:49Z</time></trkpt><trkpt lat="44.6906123509799" lon="9.568977424916223"><ele>493.75</ele><time>2026-04-18T10:17:50Z</time></trkpt><trkpt lat="44.690683627182686" lon="9.569164805012424"><ele>492.0</ele><time>2026-04-18T10:17:51Z</time></trkpt><trkpt lat="44.69073676068968" lon="9.569310025864793"><ele>492.0</ele><time>2026-04-18T10:17:52Z</time></trkpt><trkpt lat="44.690809526649815" lon="9.56941112839366"><ele>492.0</ele><time>2026-04-18T10:17:53Z</time></trkpt><trkpt lat="44.69090868362479" lon="9.569459337315836"><ele>492.0</ele><time>2026-04-18T10:17:54Z</time></trkpt><trkpt lat="44.691028851107575" lon="9.569442976798705"><ele>492.0</ele><time>2026-04-18T10:17:55Z</time></trkpt><trkpt lat="44.691173063571" lon="9.569364633846364"><ele>493.0</ele><time>2026-04-18T10:17:56Z</time></trkpt><trkpt lat="44.691339397021935" lon="9.569291909336144"><ele>494.0</ele><time>2026-04-18T10:17:57Z</time></trkpt><trkpt lat="44.691483940996726" lon="9.56917450378892"><ele>495.0</ele><time>2026-04-18T10:17:58Z</time></trkpt><trkpt lat="44.69164128866288" lon="9.569079088086461"><ele>495.0</ele><time>2026-04-18T10:17:59Z</time></trkpt><trkpt lat="44.69179426924351" lon="9.569008347341555"><ele>495.0</ele><time>2026-04-18T10:18:00Z</time></trkpt><trkpt lat="44.69193725649155" lon="9.568957024407675"><ele>495.0</ele><time>2026-04-18T10:18:01Z</time></trkpt><trkpt lat="44.6920752187727" lon="9.568921366553077"><ele>495.0</ele><time>2026-04-18T10:18:02Z</time></trkpt><trkpt lat="44.692206774871046" lon="9.568936934753523"><ele>494.25</ele><time>2026-04-18T10:18:03Z</time></trkpt><trkpt lat="44.692332993785165" lon="9.568989491355508"><ele>493.5</ele><time>2026-04-18T10:18:04Z</time></trkpt><trkpt lat="44.69245853862837" lon="9.569088131765144"><ele>492.75</ele><time>2026-04-18T10:18:05Z</time></trkpt><trkpt lat="44.69255484490746" lon="9.569198084280613"><ele>492.0</ele><time>2026-04-18T10:18:06Z</time></trkpt><trkpt lat="44.69265623528405" lon="9.569258525772673"><ele>495.25</ele><time>2026-04-18T10:18:07Z</time></trkpt><trkpt lat="44.69276074240857" lon="9.56927411303903"><ele>498.5</ele><time>2026-04-18T10:18:08Z</time></trkpt><trkpt lat="44.69285519150751" lon="9.569225416477947"><ele>501.75</ele><time>2026-04-18T10:18:09Z</time></trkpt><trkpt lat="44.69294677756183" lon="9.569091655058282"><ele>505.0</ele><time>2026-04-18T10:18:10Z</time></trkpt><trkpt lat="44.693011552753894" lon="9.568942311033295"><ele>505.0</ele><time>2026-04-18T10:18:11Z</time></trkpt><trkpt lat="44.6930709573498" lon="9.568750646920847"><ele>505.0</ele><time>2026-04-18T10:18:12Z</time></trkpt><trkpt lat="44.69312348620563" lon="9.568583483298745"><ele>505.0</ele><time>2026-04-18T10:18:13Z</time></trkpt><trkpt lat="44.693133900898424" lon="9.568407441474811"><ele>505.0</ele><time>2026-04-18T10:18:14Z</time></trkpt><trkpt lat="44.693141486418476" lon="9.568208629786865"><ele>502.5</ele><time>2026-04-18T10:18:15Z</time></trkpt><trkpt lat="44.69313414197909" lon="9.5680055156031"><ele>500.0</ele><time>2026-04-18T10:18:16Z</time></trkpt><trkpt lat="44.69311424415239" lon="9.56783170019005"><ele>497.5</ele><time>2026-04-18T10:18:17Z</time></trkpt><trkpt lat="44.69313506408796" lon="9.567672049801567"><ele>495.0</ele><time>2026-04-18T10:18:18Z</time></trkpt><trkpt lat="44.693205692446" lon="9.56754434547981"><ele>491.5</ele><time>2026-04-18T10:18:19Z</time></trkpt><trkpt lat="44.693303829238275" lon="9.56746267204305"><ele>488.0</ele><time>2026-04-18T10:18:20Z</time></trkpt><trkpt lat="44.69342562284838" lon="9.567422700352234"><ele>484.5</ele><time>2026-04-18T10:18:21Z</time></trkpt><trkpt lat="44.69355989405182" lon="9.567416666176703"><ele>481.0</ele><time>2026-04-18T10:18:22Z</time></trkpt><trkpt lat="44.69370550110905" lon="9.567441944791778"><ele>481.0</ele><time>2026-04-18T10:18:23Z</time></trkpt><trkpt lat="44.693854832352514" lon="9.567499977708472"><ele>481.0</ele><time>2026-04-18T10:18:24Z</time></trkpt><trkpt lat="44.69399249661484" lon="9.567572597235387"><ele>481.0</ele><time>2026-04-18T10:18:25Z</time></trkpt><trkpt lat="44.694130771106195" lon="9.567587673001189"><ele>481.0</ele><time>2026-04-18T10:18:26Z</time></trkpt><trkpt lat="44.694282428358505" lon="9.567543184677715"><ele>481.0</ele><time>2026-04-18T10:18:27Z</time></trkpt><trkpt lat="44.69441804641461" lon="9.567479118629631"><ele>481.0</ele><time>2026-04-18T10:18:28Z</time></trkpt><trkpt lat="44.69455055688916" lon="9.567449386738936"><ele>481.0</ele><time>2026-04-18T10:18:29Z</time></trkpt><trkpt lat="44.69468852977218" lon="9.56747185012225"><ele>481.0</ele><time>2026-04-18T10:18:30Z</time></trkpt><trkpt lat="44.694804462222855" lon="9.567553567677743"><ele>480.0</ele><time>2026-04-18T10:18:31Z</time></trkpt><trkpt lat="44.6949182062949" lon="9.567679649625353"><ele>479.0</ele><time>2026-04-18T10:18:32Z</time></trkpt><trkpt lat="44.69502150254695" lon="9.56782881495653"><ele>478.0</ele><time>2026-04-18T10:18:33Z</time></trkpt><trkpt lat="44.695120235765124" lon="9.567979113382888"><ele>477.0</ele><time>2026-04-18T10:18:34Z</time></trkpt><trkpt lat="44.69523677835618" lon="9.568109550872602"><ele>478.0</ele><time>2026-04-18T10:18:35Z</time></trkpt><trkpt lat="44.69537676137192" lon="9.568216300277193"><ele>479.0</ele><time>2026-04-18T10:18:36Z</time></trkpt><trkpt lat="44.695539088583885" lon="9.56827422353347"><ele>480.0</ele><time>2026-04-18T10:18:37Z</time></trkpt><trkpt lat="44.695715373264406" lon="9.568282428339094"><ele>480.0</ele><time>2026-04-18T10:18:38Z</time></trkpt><trkpt lat="44.69589928309382" lon="9.568240574512528"><ele>480.0</ele><time>2026-04-18T10:18:39Z</time></trkpt><trkpt lat="44.6960728226413" lon="9.568193928884828"><ele>480.0</ele><time>2026-04-18T10:18:40Z</time></trkpt><trkpt lat="44.696226915802114" lon="9.568149899208713"><ele>479.75</ele><time>2026-04-18T10:18:40.999Z</time></trkpt><trkpt lat="44.69636602596511" lon="9.568108124606624"><ele>479.5</ele><time>2026-04-18T10:18:41.999Z</time></trkpt><trkpt lat="44.69649081085177" lon="9.56807847330343"><ele>479.25</ele><time>2026-04-18T10:18:42.999Z</time></trkpt><trkpt lat="44.696606366649114" lon="9.568109026995113"><ele>479.0</ele><time>2026-04-18T10:18:43.999Z</time></trkpt><trkpt lat="44.69673106613777" lon="9.568183318178296"><ele>479.0</ele><time>2026-04-18T10:18:44.999Z</time></trkpt><trkpt lat="44.6968492261167" lon="9.568281477615193"><ele>479.0</ele><time>2026-04-18T10:18:45.999Z</time></trkpt><trkpt lat="44.69697337502792" lon="9.568393341938076"><ele>479.0</ele><time>2026-04-18T10:18:46.999Z</time></trkpt><trkpt lat="44.69711225811283" lon="9.568486903448198"><ele>479.0</ele><time>2026-04-18T10:18:47.999Z</time></trkpt><trkpt lat="44.69726020738018" lon="9.568552991064053"><ele>478.25</ele><time>2026-04-18T10:18:48.999Z</time></trkpt><trkpt lat="44.69740396495567" lon="9.568568432952276"><ele>477.5</ele><time>2026-04-18T10:18:49.999Z</time></trkpt><trkpt lat="44.69754701442509" lon="9.568566347852677"><ele>476.75</ele><time>2026-04-18T10:18:50.999Z</time></trkpt><trkpt lat="44.697674419590996" lon="9.568591479116778"><ele>476.0</ele><time>2026-04-18T10:18:51.999Z</time></trkpt><trkpt lat="44.69778408503147" lon="9.568645911276338"><ele>477.75</ele><time>2026-04-18T10:18:52.999Z</time></trkpt><trkpt lat="44.69789282932228" lon="9.568676341553017"><ele>479.5</ele><time>2026-04-18T10:18:53.999Z</time></trkpt><trkpt lat="44.69800499737791" lon="9.568644390564291"><ele>481.25</ele><time>2026-04-18T10:18:54.999Z</time></trkpt><trkpt lat="44.69810688336825" lon="9.568541606796414"><ele>483.0</ele><time>2026-04-18T10:18:55.999Z</time></trkpt><trkpt lat="44.69819132210902" lon="9.568384092756583"><ele>483.0</ele><time>2026-04-18T10:18:56.999Z</time></trkpt><trkpt lat="44.69827249292876" lon="9.568194838519315"><ele>483.0</ele><time>2026-04-18T10:18:57.999Z</time></trkpt><trkpt lat="44.6983599814408" lon="9.568031488863332"><ele>483.0</ele><time>2026-04-18T10:18:58.999Z</time></trkpt><trkpt lat="44.69846725149771" lon="9.567916021957162"><ele>483.0</ele><time>2026-04-18T10:18:59.999Z</time></trkpt><trkpt lat="44.69858276521984" lon="9.56782993725109"><ele>482.5</ele><time>2026-04-18T10:19:00.999Z</time></trkpt><trkpt lat="44.69869771787092" lon="9.567783089698773"><ele>482.0</ele><time>2026-04-18T10:19:01.999Z</time></trkpt><trkpt lat="44.69880667832494" lon="9.567801415331065"><ele>481.5</ele><time>2026-04-18T10:19:02.999Z</time></trkpt><trkpt lat="44.69892083256235" lon="9.567849127734688"><ele>481.0</ele><time>2026-04-18T10:19:03.999Z</time></trkpt><trkpt lat="44.699033983131606" lon="9.567922270712172"><ele>481.0</ele><time>2026-04-18T10:19:04.999Z</time></trkpt><trkpt lat="44.69911640799892" lon="9.567965937848289"><ele>481.0</ele><time>2026-04-18T10:19:05.999Z</time></trkpt><trkpt lat="44.69917839677605" lon="9.568057915536436"><ele>481.0</ele><time>2026-04-18T10:19:06.999Z</time></trkpt><trkpt lat="44.69923016025409" lon="9.568190276398678"><ele>481.0</ele><time>2026-04-18T10:19:07.999Z</time></trkpt><trkpt lat="44.69927895144225" lon="9.568380399920969"><ele>481.0</ele><time>2026-04-18T10:19:08.999Z</time></trkpt><trkpt lat="44.69931506523767" lon="9.568545025894373"><ele>481.25</ele><time>2026-04-18T10:19:09.999Z</time></trkpt><trkpt lat="44.69935045544787" lon="9.568710941173846"><ele>481.5</ele><time>2026-04-18T10:19:10.999Z</time></trkpt><trkpt lat="44.69943099475525" lon="9.56886084736123"><ele>481.75</ele><time>2026-04-18T10:19:11.999Z</time></trkpt><trkpt lat="44.6995386014355" lon="9.568970008462212"><ele>482.0</ele><time>2026-04-18T10:19:12.999Z</time></trkpt><trkpt lat="44.69968431725564" lon="9.569062435008048"><ele>482.0</ele><time>2026-04-18T10:19:13.999Z</time></trkpt><trkpt lat="44.69985792868653" lon="9.569153554578488"><ele>482.0</ele><time>2026-04-18T10:19:14.999Z</time></trkpt><trkpt lat="44.7000064302823" lon="9.569235165092694"><ele>482.0</ele><time>2026-04-18T10:19:15.999Z</time></trkpt><trkpt lat="44.70014852789107" lon="9.569299545417538"><ele>479.25</ele><time>2026-04-18T10:19:16.999Z</time></trkpt><trkpt lat="44.70029345547563" lon="9.569316512917533"><ele>476.5</ele><time>2026-04-18T10:19:17.999Z</time></trkpt><trkpt lat="44.7004473474782" lon="9.569312229215969"><ele>473.75</ele><time>2026-04-18T10:19:18.999Z</time></trkpt><trkpt lat="44.70059375871956" lon="9.56930739917446"><ele>471.0</ele><time>2026-04-18T10:19:19.999Z</time></trkpt><trkpt lat="44.70072000359002" lon="9.569365318161731"><ele>471.0</ele><time>2026-04-18T10:19:20.999Z</time></trkpt><trkpt lat="44.700831174585666" lon="9.569444373771601"><ele>471.0</ele><time>2026-04-18T10:19:21.999Z</time></trkpt><trkpt lat="44.700942175324876" lon="9.569531431408429"><ele>471.0</ele><time>2026-04-18T10:19:22.999Z</time></trkpt><trkpt lat="44.70104815117178" lon="9.569591454528268"><ele>471.0</ele><time>2026-04-18T10:19:23.999Z</time></trkpt><trkpt lat="44.701157494468326" lon="9.569611469809626"><ele>470.5</ele><time>2026-04-18T10:19:24.999Z</time></trkpt><trkpt lat="44.70127137193708" lon="9.56957859612334"><ele>470.0</ele><time>2026-04-18T10:19:25.999Z</time></trkpt><trkpt lat="44.701379651133905" lon="9.569477655988573"><ele>469.5</ele><time>2026-04-18T10:19:26.999Z</time></trkpt><trkpt lat="44.70146652938368" lon="9.56934713016572"><ele>469.0</ele><time>2026-04-18T10:19:27.999Z</time></trkpt><trkpt lat="44.70152897250547" lon="9.569224563327419"><ele>469.0</ele><time>2026-04-18T10:19:28.999Z</time></trkpt><trkpt lat="44.70160844994698" lon="9.569145293183167"><ele>469.0</ele><time>2026-04-18T10:19:29.999Z</time></trkpt><trkpt lat="44.70171693203889" lon="9.569117453869893"><ele>469.0</ele><time>2026-04-18T10:19:30.999Z</time></trkpt><trkpt lat="44.70184688996477" lon="9.569135673862185"><ele>469.0</ele><time>2026-04-18T10:19:31.999Z</time></trkpt><trkpt lat="44.70198724344663" lon="9.569205596284538"><ele>467.0</ele><time>2026-04-18T10:19:33Z</time></trkpt><trkpt lat="44.70212598131443" lon="9.569271763955063"><ele>465.0</ele><time>2026-04-18T10:19:34Z</time></trkpt><trkpt lat="44.702283933344944" lon="9.569340607163392"><ele>463.0</ele><time>2026-04-18T10:19:35Z</time></trkpt><trkpt lat="44.70243696655469" lon="9.569401454916859"><ele>463.0</ele><time>2026-04-18T10:19:36Z</time></trkpt><trkpt lat="44.70258281968683" lon="9.569437343789325"><ele>463.0</ele><time>2026-04-18T10:19:37Z</time></trkpt><trkpt lat="44.70275021494802" lon="9.569443049039787"><ele>463.0</ele><time>2026-04-18T10:19:38Z</time></trkpt><trkpt lat="44.70293275198478" lon="9.569416533409306"><ele>462.0</ele><time>2026-04-18T10:19:39Z</time></trkpt><trkpt lat="44.7030952597512" lon="9.569376224683163"><ele>461.0</ele><time>2026-04-18T10:19:40Z</time></trkpt><trkpt lat="44.7032500493348" lon="9.569335100445276"><ele>460.0</ele><time>2026-04-18T10:19:41Z</time></trkpt><trkpt lat="44.7033960494068" lon="9.569296465041479"><ele>460.0</ele><time>2026-04-18T10:19:42Z</time></trkpt><trkpt lat="44.70354472327235" lon="9.569263765997736"><ele>460.0</ele><time>2026-04-18T10:19:43Z</time></trkpt><trkpt lat="44.70369389527389" lon="9.569275972835111"><ele>460.0</ele><time>2026-04-18T10:19:44Z</time></trkpt><trkpt lat="44.70381930764474" lon="9.56934249204564"><ele>460.0</ele><time>2026-04-18T10:19:45Z</time></trkpt><trkpt lat="44.70393783123466" lon="9.569444522408206"><ele>463.0</ele><time>2026-04-18T10:19:46Z</time></trkpt><trkpt lat="44.70404615117081" lon="9.569581667226013"><ele>466.0</ele><time>2026-04-18T10:19:47Z</time></trkpt><trkpt lat="44.70413035831632" lon="9.569787751428857"><ele>469.0</ele><time>2026-04-18T10:19:48Z</time></trkpt><trkpt lat="44.70422362836645" lon="9.569959501421044"><ele>469.0</ele><time>2026-04-18T10:19:49Z</time></trkpt><trkpt lat="44.7042969982333" lon="9.570121557284832"><ele>469.0</ele><time>2026-04-18T10:19:50Z</time></trkpt><trkpt lat="44.704363058135506" lon="9.570268735110897"><ele>469.0</ele><time>2026-04-18T10:19:51Z</time></trkpt><trkpt lat="44.70445045444394" lon="9.570381431971432"><ele>469.0</ele><time>2026-04-18T10:19:52Z</time></trkpt><trkpt lat="44.70456295163145" lon="9.570455723340428"><ele>468.5</ele><time>2026-04-18T10:19:53Z</time></trkpt><trkpt lat="44.704688100103645" lon="9.570472099927253"><ele>468.0</ele><time>2026-04-18T10:19:54Z</time></trkpt><trkpt lat="44.70480924762446" lon="9.570429321424413"><ele>467.5</ele><time>2026-04-18T10:19:55Z</time></trkpt><trkpt lat="44.704903327000444" lon="9.57033200875728"><ele>467.0</ele><time>2026-04-18T10:19:56Z</time></trkpt><trkpt lat="44.70497617410668" lon="9.570204929441733"><ele>467.0</ele><time>2026-04-18T10:19:57Z</time></trkpt><trkpt lat="44.70502793067883" lon="9.570028450822129"><ele>467.0</ele><time>2026-04-18T10:19:58Z</time></trkpt><trkpt lat="44.70507147645546" lon="9.56982990836706"><ele>467.0</ele><time>2026-04-18T10:19:59Z</time></trkpt><trkpt lat="44.705143826505385" lon="9.569629130056791"><ele>467.0</ele><time>2026-04-18T10:20:00Z</time></trkpt><trkpt lat="44.70525392519293" lon="9.569424159554863"><ele>467.3333333333333</ele><time>2026-04-18T10:20:01Z</time></trkpt><trkpt lat="44.70537814524397" lon="9.569228346652803"><ele>467.66666666666663</ele><time>2026-04-18T10:20:02Z</time></trkpt><trkpt lat="44.705511044355774" lon="9.569047150702701"><ele>468.0</ele><time>2026-04-18T10:20:03Z</time></trkpt><trkpt lat="44.70563509187205" lon="9.568893573479906"><ele>468.0</ele><time>2026-04-18T10:20:04Z</time></trkpt><trkpt lat="44.70576388525258" lon="9.568729775776921"><ele>468.0</ele><time>2026-04-18T10:20:05Z</time></trkpt><trkpt lat="44.70588605609711" lon="9.568547949345144"><ele>468.0</ele><time>2026-04-18T10:20:06Z</time></trkpt><trkpt lat="44.70599055855244" lon="9.568380655514446"><ele>467.33333333333337</ele><time>2026-04-18T10:20:07Z</time></trkpt><trkpt lat="44.70609052334188" lon="9.568227723790674"><ele>466.6666666666667</ele><time>2026-04-18T10:20:08Z</time></trkpt><trkpt lat="44.70620281512805" lon="9.568081086238655"><ele>466.0</ele><time>2026-04-18T10:20:09Z</time></trkpt><trkpt lat="44.706338396163964" lon="9.567942644842212"><ele>461.33333333333337</ele><time>2026-04-18T10:20:10Z</time></trkpt><trkpt lat="44.70647549611465" lon="9.567852036755449"><ele>456.66666666666663</ele><time>2026-04-18T10:20:11Z</time></trkpt><trkpt lat="44.70662254331333" lon="9.567797693626945"><ele>452.0</ele><time>2026-04-18T10:20:12Z</time></trkpt><trkpt lat="44.7068002287612" lon="9.567762854744583"><ele>452.0</ele><time>2026-04-18T10:20:13Z</time></trkpt><trkpt lat="44.70698613635178" lon="9.567732069735115"><ele>452.0</ele><time>2026-04-18T10:20:14Z</time></trkpt><trkpt lat="44.7071496365732" lon="9.567702954200973"><ele>452.0</ele><time>2026-04-18T10:20:15Z</time></trkpt><trkpt lat="44.70730430197546" lon="9.56768075813676"><ele>452.0</ele><time>2026-04-18T10:20:16Z</time></trkpt><trkpt lat="44.70745049245724" lon="9.567668434849555"><ele>452.0</ele><time>2026-04-18T10:20:17Z</time></trkpt><trkpt lat="44.707589819402436" lon="9.567666237901511"><ele>452.0</ele><time>2026-04-18T10:20:18Z</time></trkpt><trkpt lat="44.70771835080197" lon="9.567686764817394"><ele>452.0</ele><time>2026-04-18T10:20:19Z</time></trkpt><trkpt lat="44.707837283576886" lon="9.567757800036604"><ele>453.0</ele><time>2026-04-18T10:20:20Z</time></trkpt><trkpt lat="44.70795540247214" lon="9.567894598645406"><ele>454.0</ele><time>2026-04-18T10:20:21Z</time></trkpt><trkpt lat="44.70807102483457" lon="9.568042441733802"><ele>455.0</ele><time>2026-04-18T10:20:22Z</time></trkpt><trkpt lat="44.70819517684254" lon="9.568139335937557"><ele>455.0</ele><time>2026-04-18T10:20:23Z</time></trkpt><trkpt lat="44.70832861673417" lon="9.568196704191143"><ele>455.0</ele><time>2026-04-18T10:20:24Z</time></trkpt><trkpt lat="44.70846562334799" lon="9.568218736211522"><ele>455.0</ele><time>2026-04-18T10:20:25Z</time></trkpt><trkpt lat="44.70860335400423" lon="9.568186267434731"><ele>455.0</ele><time>2026-04-18T10:20:26Z</time></trkpt><trkpt lat="44.70873226003351" lon="9.568111205134976"><ele>452.5</ele><time>2026-04-18T10:20:27Z</time></trkpt><trkpt lat="44.70883764681621" lon="9.56801898860828"><ele>450.0</ele><time>2026-04-18T10:20:28Z</time></trkpt><trkpt lat="44.708940528157044" lon="9.567952979206535"><ele>447.5</ele><time>2026-04-18T10:20:29Z</time></trkpt><trkpt lat="44.70906694956431" lon="9.567942292970006"><ele>445.0</ele><time>2026-04-18T10:20:30Z</time></trkpt><trkpt lat="44.70919990739642" lon="9.568000057525863"><ele>445.0</ele><time>2026-04-18T10:20:31Z</time></trkpt><trkpt lat="44.709334236443084" lon="9.568116581729454"><ele>445.0</ele><time>2026-04-18T10:20:32Z</time></trkpt><trkpt lat="44.709472641842794" lon="9.568255011813164"><ele>445.0</ele><time>2026-04-18T10:20:33Z</time></trkpt><trkpt lat="44.709613115392735" lon="9.568363262959213"><ele>443.33333333333337</ele><time>2026-04-18T10:20:34Z</time></trkpt><trkpt lat="44.70977222325923" lon="9.5684646995724"><ele>441.66666666666663</ele><time>2026-04-18T10:20:35Z</time></trkpt><trkpt lat="44.709932483539156" lon="9.568559932736212"><ele>440.0</ele><time>2026-04-18T10:20:36Z</time></trkpt><trkpt lat="44.710075758659166" lon="9.568644737383085"><ele>440.5</ele><time>2026-04-18T10:20:37Z</time></trkpt><trkpt lat="44.71020983690088" lon="9.568728211225938"><ele>441.0</ele><time>2026-04-18T10:20:38Z</time></trkpt><trkpt lat="44.71032832334737" lon="9.568822745518373"><ele>441.5</ele><time>2026-04-18T10:20:39Z</time></trkpt><trkpt lat="44.71042712122277" lon="9.568934313195113"><ele>442.0</ele><time>2026-04-18T10:20:40Z</time></trkpt><trkpt lat="44.71050788910929" lon="9.569053074933043"><ele>442.0</ele><time>2026-04-18T10:20:41Z</time></trkpt><trkpt lat="44.71058807601755" lon="9.569168485659263"><ele>442.0</ele><time>2026-04-18T10:20:42Z</time></trkpt><trkpt lat="44.71066202016206" lon="9.569311384335936"><ele>442.0</ele><time>2026-04-18T10:20:42.999Z</time></trkpt><trkpt lat="44.710748392349196" lon="9.569437676040778"><ele>442.0</ele><time>2026-04-18T10:20:43.999Z</time></trkpt><trkpt lat="44.710816916037594" lon="9.569561926383468"><ele>442.75</ele><time>2026-04-18T10:20:44.999Z</time></trkpt><trkpt lat="44.71089563354765" lon="9.569675853785602"><ele>443.5</ele><time>2026-04-18T10:20:45.999Z</time></trkpt><trkpt lat="44.7109778161281" lon="9.569790468403015"><ele>444.25</ele><time>2026-04-18T10:20:46.999Z</time></trkpt><trkpt lat="44.71107055440217" lon="9.569899508540553"><ele>445.0</ele><time>2026-04-18T10:20:47.999Z</time></trkpt><trkpt lat="44.71118093412948" lon="9.569985049766688"><ele>442.25</ele><time>2026-04-18T10:20:48.999Z</time></trkpt><trkpt lat="44.71130192226128" lon="9.570058264591557"><ele>439.5</ele><time>2026-04-18T10:20:49.999Z</time></trkpt><trkpt lat="44.71143352712679" lon="9.570101088838229"><ele>436.75</ele><time>2026-04-18T10:20:50.999Z</time></trkpt><trkpt lat="44.71157175277515" lon="9.570093404130548"><ele>434.0</ele><time>2026-04-18T10:20:51.999Z</time></trkpt><trkpt lat="44.711700581230005" lon="9.570029237118321"><ele>434.0</ele><time>2026-04-18T10:20:52.999Z</time></trkpt><trkpt lat="44.71181503893816" lon="9.569927356865037"><ele>434.0</ele><time>2026-04-18T10:20:53.999Z</time></trkpt><trkpt lat="44.711927127722774" lon="9.569799402210517"><ele>434.0</ele><time>2026-04-18T10:20:54.999Z</time></trkpt><trkpt lat="44.71203005756604" lon="9.569682002258876"><ele>434.0</ele><time>2026-04-18T10:20:55.999Z</time></trkpt><trkpt lat="44.71212500418769" lon="9.569570341544711"><ele>432.5</ele><time>2026-04-18T10:20:56.999Z</time></trkpt><trkpt lat="44.71222665472917" lon="9.569454147237524"><ele>431.0</ele><time>2026-04-18T10:20:57.999Z</time></trkpt><trkpt lat="44.71233477024602" lon="9.569326980521847"><ele>429.5</ele><time>2026-04-18T10:20:58.999Z</time></trkpt><trkpt lat="44.71244254131285" lon="9.569199046711505"><ele>428.0</ele><time>2026-04-18T10:20:59.999Z</time></trkpt><trkpt lat="44.71253627260817" lon="9.569090068774235"><ele>428.0</ele><time>2026-04-18T10:21:00.999Z</time></trkpt><trkpt lat="44.71262728707028" lon="9.568990061287193"><ele>428.0</ele><time>2026-04-18T10:21:01.999Z</time></trkpt><trkpt lat="44.71271980578908" lon="9.568910607676944"><ele>428.0</ele><time>2026-04-18T10:21:02.999Z</time></trkpt><trkpt lat="44.71283146108243" lon="9.568862370525208"><ele>428.0</ele><time>2026-04-18T10:21:03.999Z</time></trkpt><trkpt lat="44.712963319187125" lon="9.568852947119753"><ele>429.66666666666663</ele><time>2026-04-18T10:21:04.999Z</time></trkpt><trkpt lat="44.71306275504823" lon="9.568886150216356"><ele>431.3333333333333</ele><time>2026-04-18T10:21:05.999Z</time></trkpt><trkpt lat="44.713137836989254" lon="9.568917102288133"><ele>433.0</ele><time>2026-04-18T10:21:06.999Z</time></trkpt><trkpt lat="44.7132227169324" lon="9.568955495592887"><ele>434.66666666666663</ele><time>2026-04-18T10:21:08.999Z</time></trkpt><trkpt lat="44.713292958228756" lon="9.568996146440288"><ele>436.3333333333333</ele><time>2026-04-18T10:21:09.999Z</time></trkpt><trkpt lat="44.713365811045904" lon="9.569072539227394"><ele>438.0</ele><time>2026-04-18T10:21:10.999Z</time></trkpt><trkpt lat="44.713422967671086" lon="9.569166784478368"><ele>438.0</ele><time>2026-04-18T10:21:12.999Z</time></trkpt><trkpt lat="44.71348037078394" lon="9.569226246137687"><ele>438.0</ele><time>2026-04-18T10:22:07Z</time></trkpt><trkpt lat="44.713533932974215" lon="9.569302554058769"><ele>438.0</ele><time>2026-04-18T10:24:04Z</time></trkpt><trkpt lat="44.713606546915656" lon="9.56942894182301"><ele>438.0</ele><time>2026-04-18T10:24:06Z</time></trkpt><trkpt lat="44.71364273222135" lon="9.569527231680267"><ele>438.0</ele><time>2026-04-18T10:24:07Z</time></trkpt><trkpt lat="44.71363920050869" lon="9.569634742132084"><ele>438.0</ele><time>2026-04-18T10:24:08Z</time></trkpt><trkpt lat="44.713669148283515" lon="9.56971552146658"><ele>439.0</ele><time>2026-04-18T10:24:09Z</time></trkpt><trkpt lat="44.71370914968212" lon="9.569821758579153"><ele>439.99999999999994</ele><time>2026-04-18T10:24:10Z</time></trkpt><trkpt lat="44.713750931808136" lon="9.56993543618008"><ele>440.99999999999994</ele><time>2026-04-18T10:24:11Z</time></trkpt><trkpt lat="44.71379870241314" lon="9.570063063819497"><ele>442.0</ele><time>2026-04-18T10:24:12Z</time></trkpt><trkpt lat="44.71385615305165" lon="9.570205375682535"><ele>443.0</ele><time>2026-04-18T10:24:13Z</time></trkpt><trkpt lat="44.71392991393223" lon="9.570312284950424"><ele>439.75</ele><time>2026-04-18T10:24:14Z</time></trkpt><trkpt lat="44.71401051634669" lon="9.570416391438373"><ele>436.5</ele><time>2026-04-18T10:24:15Z</time></trkpt><trkpt lat="44.714103985204865" lon="9.570497715996638"><ele>433.25</ele><time>2026-04-18T10:24:16Z</time></trkpt><trkpt lat="44.71421891833738" lon="9.57056690396899"><ele>430.0</ele><time>2026-04-18T10:24:17Z</time></trkpt><trkpt lat="44.71434932115538" lon="9.570577266294494"><ele>431.75</ele><time>2026-04-18T10:24:18Z</time></trkpt><trkpt lat="44.714483760431776" lon="9.570613598852889"><ele>433.5</ele><time>2026-04-18T10:24:19Z</time></trkpt><trkpt lat="44.71460766963769" lon="9.570663524569829"><ele>435.25</ele><time>2026-04-18T10:24:20Z</time></trkpt><trkpt lat="44.714738474089884" lon="9.570714668811688"><ele>437.0</ele><time>2026-04-18T10:24:21Z</time></trkpt><trkpt lat="44.71486981822745" lon="9.57076542487002"><ele>437.0</ele><time>2026-04-18T10:24:22Z</time></trkpt><trkpt lat="44.7150005161026" lon="9.570830401238288"><ele>437.0</ele><time>2026-04-18T10:24:23Z</time></trkpt><trkpt lat="44.71514509169506" lon="9.570904385176968"><ele>437.0</ele><time>2026-04-18T10:24:24Z</time></trkpt><trkpt lat="44.71531995797117" lon="9.57096975775793"><ele>440.0</ele><time>2026-04-18T10:24:24.999Z</time></trkpt><trkpt lat="44.71548670836744" lon="9.571010898448694"><ele>443.0</ele><time>2026-04-18T10:24:25.999Z</time></trkpt><trkpt lat="44.71564558039624" lon="9.571051034549189"><ele>446.0</ele><time>2026-04-18T10:24:26.999Z</time></trkpt><trkpt lat="44.715840099466675" lon="9.571073338520208"><ele>446.0</ele><time>2026-04-18T10:24:27.999Z</time></trkpt><trkpt lat="44.71603476130836" lon="9.571114483239858"><ele>446.0</ele><time>2026-04-18T10:24:28.999Z</time></trkpt><trkpt lat="44.71619850197311" lon="9.571170301114734"><ele>446.0</ele><time>2026-04-18T10:24:29.999Z</time></trkpt><trkpt lat="44.716374427525565" lon="9.57125207146317"><ele>440.66666666666663</ele><time>2026-04-18T10:24:30.999Z</time></trkpt><trkpt lat="44.71653994910849" lon="9.571342788569936"><ele>435.33333333333337</ele><time>2026-04-18T10:24:31.999Z</time></trkpt><trkpt lat="44.716690557712916" lon="9.571402687164012"><ele>430.0</ele><time>2026-04-18T10:24:32.999Z</time></trkpt><trkpt lat="44.71684123639599" lon="9.571448294963814"><ele>433.5</ele><time>2026-04-18T10:24:33.999Z</time></trkpt><trkpt lat="44.716970488568435" lon="9.571477149615502"><ele>437.0</ele><time>2026-04-18T10:24:34.999Z</time></trkpt><trkpt lat="44.71710938365262" lon="9.571535709835349"><ele>440.5</ele><time>2026-04-18T10:24:35.999Z</time></trkpt><trkpt lat="44.7172385979915" lon="9.571648506443593"><ele>444.0</ele><time>2026-04-18T10:24:36.999Z</time></trkpt><trkpt lat="44.717357578915994" lon="9.57180110813171"><ele>444.0</ele><time>2026-04-18T10:24:37.999Z</time></trkpt><trkpt lat="44.717477689821266" lon="9.57201117783166"><ele>444.0</ele><time>2026-04-18T10:24:38.999Z</time></trkpt><trkpt lat="44.71762832222329" lon="9.572223407594334"><ele>444.0</ele><time>2026-04-18T10:24:39.999Z</time></trkpt><trkpt lat="44.7177800870105" lon="9.572485217489245"><ele>443.0</ele><time>2026-04-18T10:24:40.999Z</time></trkpt><trkpt lat="44.71795857109584" lon="9.572766175025045"><ele>442.0</ele><time>2026-04-18T10:24:41.999Z</time></trkpt><trkpt lat="44.718126883881176" lon="9.573031121667725"><ele>442.0</ele><time>2026-04-18T10:24:42.999Z</time></trkpt><trkpt lat="44.718272666059995" lon="9.573260601971965"><ele>442.0</ele><time>2026-04-18T10:24:43.999Z</time></trkpt><trkpt lat="44.71841961610776" lon="9.573460745446619"><ele>442.0</ele><time>2026-04-18T10:24:44.999Z</time></trkpt><trkpt lat="44.718545835382606" lon="9.573664472569812"><ele>445.0</ele><time>2026-04-18T10:24:45.999Z</time></trkpt><trkpt lat="44.71867765021982" lon="9.57387200958396"><ele>448.0</ele><time>2026-04-18T10:24:46.999Z</time></trkpt><trkpt lat="44.71879973634035" lon="9.574076814067848"><ele>451.0</ele><time>2026-04-18T10:24:47.999Z</time></trkpt><trkpt lat="44.718921266071206" lon="9.574268950048527"><ele>451.0</ele><time>2026-04-18T10:24:48.999Z</time></trkpt><trkpt lat="44.71903375541157" lon="9.574436575501867"><ele>451.0</ele><time>2026-04-18T10:24:49.999Z</time></trkpt><trkpt lat="44.719138335928676" lon="9.57457601166493"><ele>451.0</ele><time>2026-04-18T10:24:50.999Z</time></trkpt><trkpt lat="44.719248488567416" lon="9.57466609208451"><ele>451.0</ele><time>2026-04-18T10:24:51.999Z</time></trkpt><trkpt lat="44.71936788733683" lon="9.574713426822116"><ele>448.0</ele><time>2026-04-18T10:24:52.999Z</time></trkpt><trkpt lat="44.71950121339651" lon="9.57475487442841"><ele>445.0</ele><time>2026-04-18T10:24:53.999Z</time></trkpt><trkpt lat="44.719675709625776" lon="9.574712091464427"><ele>442.0</ele><time>2026-04-18T10:24:54.999Z</time></trkpt><trkpt lat="44.719857252317205" lon="9.574673378869901"><ele>442.0</ele><time>2026-04-18T10:24:55.999Z</time></trkpt><trkpt lat="44.720028986682934" lon="9.574606855837493"><ele>442.0</ele><time>2026-04-18T10:24:56.999Z</time></trkpt><trkpt lat="44.72020036311861" lon="9.574539282473218"><ele>442.0</ele><time>2026-04-18T10:24:57.999Z</time></trkpt><trkpt lat="44.720380711507154" lon="9.574484717244461"><ele>448.6666666666667</ele><time>2026-04-18T10:24:58.999Z</time></trkpt><trkpt lat="44.7205454352243" lon="9.574433018905573"><ele>455.33333333333337</ele><time>2026-04-18T10:24:59.999Z</time></trkpt><trkpt lat="44.72070967644917" lon="9.574377072289966"><ele>462.0</ele><time>2026-04-18T10:25:00.999Z</time></trkpt><trkpt lat="44.72085569994445" lon="9.574338340747566"><ele>462.0</ele><time>2026-04-18T10:25:01.999Z</time></trkpt><trkpt lat="44.7209823012085" lon="9.574373979162361"><ele>462.0</ele><time>2026-04-18T10:25:02.999Z</time></trkpt><trkpt lat="44.72109303761125" lon="9.574427891200552"><ele>462.0</ele><time>2026-04-18T10:25:03.999Z</time></trkpt><trkpt lat="44.721204489223126" lon="9.57454689922795"><ele>462.0</ele><time>2026-04-18T10:25:04.999Z</time></trkpt><trkpt lat="44.72131696729167" lon="9.574711477964476"><ele>461.0</ele><time>2026-04-18T10:25:05.999Z</time></trkpt><trkpt lat="44.721432454022036" lon="9.574882513468415"><ele>460.0</ele><time>2026-04-18T10:25:06.999Z</time></trkpt><trkpt lat="44.72155890620169" lon="9.575040422173478"><ele>459.0</ele><time>2026-04-18T10:25:07.999Z</time></trkpt><trkpt lat="44.72169722718557" lon="9.575156685754557"><ele>459.0</ele><time>2026-04-18T10:25:08.999Z</time></trkpt><trkpt lat="44.721855938677976" lon="9.57524437382524"><ele>459.0</ele><time>2026-04-18T10:25:09.999Z</time></trkpt><trkpt lat="44.72202382784748" lon="9.575316040621471"><ele>459.0</ele><time>2026-04-18T10:25:10.999Z</time></trkpt><trkpt lat="44.72218861190212" lon="9.57540155647054"><ele>457.0</ele><time>2026-04-18T10:25:11.999Z</time></trkpt><trkpt lat="44.722363699676045" lon="9.575471931662177"><ele>455.0</ele><time>2026-04-18T10:25:12.999Z</time></trkpt><trkpt lat="44.72254483798667" lon="9.57552825714266"><ele>453.0</ele><time>2026-04-18T10:25:13.999Z</time></trkpt><trkpt lat="44.72274980933755" lon="9.575573131924532"><ele>453.0</ele><time>2026-04-18T10:25:14.999Z</time></trkpt><trkpt lat="44.72295860870951" lon="9.575615272040467"><ele>453.0</ele><time>2026-04-18T10:25:15.999Z</time></trkpt><trkpt lat="44.72317655530444" lon="9.575678203874425"><ele>453.0</ele><time>2026-04-18T10:25:16.999Z</time></trkpt><trkpt lat="44.723396396497925" lon="9.575782756608564"><ele>458.66666666666663</ele><time>2026-04-18T10:25:17.999Z</time></trkpt><trkpt lat="44.72360599047749" lon="9.575900530658421"><ele>464.3333333333333</ele><time>2026-04-18T10:25:18.999Z</time></trkpt><trkpt lat="44.72379901780084" lon="9.576009945699923"><ele>470.0</ele><time>2026-04-18T10:25:19.999Z</time></trkpt><trkpt lat="44.72398074451736" lon="9.576108012026934"><ele>460.0</ele><time>2026-04-18T10:25:20.999Z</time></trkpt><trkpt lat="44.72414759904079" lon="9.576193647447159"><ele>450.0</ele><time>2026-04-18T10:25:21.999Z</time></trkpt><trkpt lat="44.7243169110385" lon="9.576262076504745"><ele>440.0</ele><time>2026-04-18T10:25:22.999Z</time></trkpt><trkpt lat="44.72450236386749" lon="9.576301134272027"><ele>440.0</ele><time>2026-04-18T10:25:23.999Z</time></trkpt><trkpt lat="44.72469014884725" lon="9.57631891952666"><ele>440.0</ele><time>2026-04-18T10:25:24.999Z</time></trkpt><trkpt lat="44.72488444278208" lon="9.576328341033852"><ele>440.0</ele><time>2026-04-18T10:25:25.999Z</time></trkpt><trkpt lat="44.72505753760097" lon="9.576339373461394"><ele>440.0</ele><time>2026-04-18T10:25:26.999Z</time></trkpt><trkpt lat="44.72520771681007" lon="9.576372864083432"><ele>440.0</ele><time>2026-04-18T10:25:27.999Z</time></trkpt><trkpt lat="44.7253263630845" lon="9.576446493515073"><ele>440.0</ele><time>2026-04-18T10:25:28.999Z</time></trkpt><trkpt lat="44.7253951623157" lon="9.576561066339423"><ele>440.0</ele><time>2026-04-18T10:25:29.999Z</time></trkpt><trkpt lat="44.72550181116418" lon="9.576627870532283"><ele>434.0</ele><time>2026-04-18T10:25:30.999Z</time></trkpt><trkpt lat="44.725583679234845" lon="9.576696228853445"><ele>428.0</ele><time>2026-04-18T10:25:31.999Z</time></trkpt><trkpt lat="44.725407294501416" lon="9.57716013819821"><ele>428.0</ele><time>2026-04-18T10:25:33.999Z</time></trkpt><trkpt lat="44.72528817401039" lon="9.577250154868471"><ele>428.0</ele><time>2026-04-18T10:25:34.999Z</time></trkpt><trkpt lat="44.725159368395865" lon="9.5773312603182"><ele>428.0</ele><time>2026-04-18T10:25:35.999Z</time></trkpt><trkpt lat="44.72648192105255" lon="9.577278260485759"><ele>432.0</ele><time>2026-04-18T10:25:36.999Z</time></trkpt><trkpt lat="44.72660328072014" lon="9.57722788617618"><ele>436.0</ele><time>2026-04-18T10:25:37.999Z</time></trkpt><trkpt lat="44.726708401538346" lon="9.577116206360728"><ele>440.0</ele><time>2026-04-18T10:25:38.999Z</time></trkpt><trkpt lat="44.726797679936354" lon="9.576951987848346"><ele>444.0</ele><time>2026-04-18T10:25:39.999Z</time></trkpt><trkpt lat="44.72687780309646" lon="9.576764984940727"><ele>453.2</ele><time>2026-04-18T10:25:40.999Z</time></trkpt><trkpt lat="44.72694382941212" lon="9.576621679578267"><ele>462.4</ele><time>2026-04-18T10:25:41.999Z</time></trkpt><trkpt lat="44.72699616556298" lon="9.576518078524346"><ele>471.6</ele><time>2026-04-18T10:25:42.999Z</time></trkpt><trkpt lat="44.727063020580566" lon="9.576461217731282"><ele>480.8</ele><time>2026-04-18T10:25:43.999Z</time></trkpt><trkpt lat="44.72714266726749" lon="9.57646854193583"><ele>490.0</ele><time>2026-04-18T10:25:44.999Z</time></trkpt><trkpt lat="44.72720567059203" lon="9.576606378343726"><ele>490.0</ele><time>2026-04-18T10:25:45.999Z</time></trkpt><trkpt lat="44.7272764129254" lon="9.576694997327136"><ele>490.0</ele><time>2026-04-18T10:25:46.999Z</time></trkpt><trkpt lat="44.72730077850382" lon="9.57679789057951"><ele>490.0</ele><time>2026-04-18T10:25:47.999Z</time></trkpt><trkpt lat="44.72724831267509" lon="9.5769221566465"><ele>490.0</ele><time>2026-04-18T10:25:48.999Z</time></trkpt><trkpt lat="44.72722737813824" lon="9.577118768163473"><ele>490.0</ele><time>2026-04-18T10:25:49.999Z</time></trkpt><trkpt lat="44.72719260735399" lon="9.577322369971295"><ele>489.33333333333337</ele><time>2026-04-18T10:25:50.999Z</time></trkpt><trkpt lat="44.72714250468406" lon="9.577560298779943"><ele>488.66666666666663</ele><time>2026-04-18T10:25:51.999Z</time></trkpt><trkpt lat="44.727108294757066" lon="9.577774734195716"><ele>488.0</ele><time>2026-04-18T10:25:52.999Z</time></trkpt><trkpt lat="44.727090641100034" lon="9.577948654605116"><ele>483.25</ele><time>2026-04-18T10:25:53.999Z</time></trkpt><trkpt lat="44.72707954311734" lon="9.578107603318676"><ele>478.5</ele><time>2026-04-18T10:25:54.999Z</time></trkpt><trkpt lat="44.72711874362175" lon="9.578276031883197"><ele>473.75</ele><time>2026-04-18T10:25:55.999Z</time></trkpt><trkpt lat="44.72719627482475" lon="9.578474990700691"><ele>469.0</ele><time>2026-04-18T10:25:56.999Z</time></trkpt><trkpt lat="44.7272702733114" lon="9.578698617216316"><ele>461.33333333333337</ele><time>2026-04-18T10:25:58Z</time></trkpt><trkpt lat="44.7273311778273" lon="9.578974614557275"><ele>453.66666666666663</ele><time>2026-04-18T10:25:59Z</time></trkpt><trkpt lat="44.7274227805589" lon="9.579173003169593"><ele>446.0</ele><time>2026-04-18T10:26:00Z</time></trkpt><trkpt lat="44.72752524231625" lon="9.579362842321114"><ele>440.66666666666663</ele><time>2026-04-18T10:26:01Z</time></trkpt><trkpt lat="44.72759687121236" lon="9.579550584251178"><ele>435.33333333333337</ele><time>2026-04-18T10:26:02Z</time></trkpt><trkpt lat="44.727659663716864" lon="9.57975371556268"><ele>430.0</ele><time>2026-04-18T10:26:03Z</time></trkpt><trkpt lat="44.72771514886038" lon="9.579992467972637"><ele>442.33333333333337</ele><time>2026-04-18T10:26:04Z</time></trkpt><trkpt lat="44.727754516220195" lon="9.580269470774576"><ele>454.66666666666663</ele><time>2026-04-18T10:26:05Z</time></trkpt><trkpt lat="44.727797288937644" lon="9.58055025231635"><ele>467.0</ele><time>2026-04-18T10:26:06Z</time></trkpt><trkpt lat="44.72785796945095" lon="9.580841640584335"><ele>467.0</ele><time>2026-04-18T10:26:07Z</time></trkpt><trkpt lat="44.72790566840838" lon="9.581110467181151"><ele>467.0</ele><time>2026-04-18T10:26:08Z</time></trkpt><trkpt lat="44.72795031674492" lon="9.581352272840792"><ele>467.0</ele><time>2026-04-18T10:26:09Z</time></trkpt><trkpt lat="44.72797925248521" lon="9.581592232002022"><ele>463.75</ele><time>2026-04-18T10:26:10Z</time></trkpt><trkpt lat="44.72802750536579" lon="9.581793834673721"><ele>460.5</ele><time>2026-04-18T10:26:11Z</time></trkpt><trkpt lat="44.72805807380483" lon="9.581969154776235"><ele>457.25</ele><time>2026-04-18T10:26:12Z</time></trkpt><trkpt lat="44.728100048164585" lon="9.582123129594365"><ele>454.0</ele><time>2026-04-18T10:26:13Z</time></trkpt><trkpt lat="44.72817472465662" lon="9.582238450357071"><ele>456.0</ele><time>2026-04-18T10:26:14Z</time></trkpt><trkpt lat="44.72828108347677" lon="9.582337493818335"><ele>458.0</ele><time>2026-04-18T10:26:15Z</time></trkpt><trkpt lat="44.728414933803236" lon="9.582393515274598"><ele>460.0</ele><time>2026-04-18T10:26:16Z</time></trkpt><trkpt lat="44.72855749148043" lon="9.582431273303756"><ele>462.0</ele><time>2026-04-18T10:26:17Z</time></trkpt><trkpt lat="44.7286621989343" lon="9.582540530807156"><ele>462.0</ele><time>2026-04-18T10:26:18Z</time></trkpt><trkpt lat="44.72872759191473" lon="9.582690972078552"><ele>462.0</ele><time>2026-04-18T10:26:19Z</time></trkpt><trkpt lat="44.72879942822824" lon="9.582871544005984"><ele>462.0</ele><time>2026-04-18T10:26:20Z</time></trkpt><trkpt lat="44.72889302994336" lon="9.583026129595556"><ele>462.0</ele><time>2026-04-18T10:26:21Z</time></trkpt><trkpt lat="44.72901900325554" lon="9.583175494288662"><ele>460.33333333333337</ele><time>2026-04-18T10:26:22Z</time></trkpt><trkpt lat="44.729174073566426" lon="9.583310384502207"><ele>458.6666666666667</ele><time>2026-04-18T10:26:23Z</time></trkpt><trkpt lat="44.72932757138847" lon="9.583440302604007"><ele>457.0</ele><time>2026-04-18T10:26:24Z</time></trkpt><trkpt lat="44.729491829404964" lon="9.583567569054587"><ele>450.6666666666667</ele><time>2026-04-18T10:26:25Z</time></trkpt><trkpt lat="44.72966158462094" lon="9.583704123837743"><ele>444.33333333333337</ele><time>2026-04-18T10:26:26Z</time></trkpt><trkpt lat="44.72982958667268" lon="9.58385617952705"><ele>438.0</ele><time>2026-04-18T10:26:27Z</time></trkpt><trkpt lat="44.72999574930998" lon="9.583988292694519"><ele>438.0</ele><time>2026-04-18T10:26:28Z</time></trkpt><trkpt lat="44.73013719400427" lon="9.584112348661721"><ele>438.0</ele><time>2026-04-18T10:26:29Z</time></trkpt><trkpt lat="44.730248458893804" lon="9.584276181634236"><ele>438.0</ele><time>2026-04-18T10:26:30Z</time></trkpt><trkpt lat="44.73031685898021" lon="9.58445930542642"><ele>441.66666666666663</ele><time>2026-04-18T10:26:31Z</time></trkpt><trkpt lat="44.73038224961921" lon="9.58468774733157"><ele>445.3333333333333</ele><time>2026-04-18T10:26:32Z</time></trkpt><trkpt lat="44.73045488702819" lon="9.584927229487242"><ele>449.0</ele><time>2026-04-18T10:26:33Z</time></trkpt><trkpt lat="44.73052831703245" lon="9.585166733035473"><ele>443.66666666666663</ele><time>2026-04-18T10:26:34Z</time></trkpt><trkpt lat="44.7306278649881" lon="9.585383713188937"><ele>438.33333333333337</ele><time>2026-04-18T10:26:35Z</time></trkpt><trkpt lat="44.73072538990494" lon="9.585566327777736"><ele>433.0</ele><time>2026-04-18T10:26:36Z</time></trkpt><trkpt lat="44.73080759522455" lon="9.585725933286769"><ele>433.0</ele><time>2026-04-18T10:26:37Z</time></trkpt><trkpt lat="44.730889855710736" lon="9.585844442723904"><ele>433.0</ele><time>2026-04-18T10:26:38Z</time></trkpt><trkpt lat="44.73099872283042" lon="9.585921416912866"><ele>433.0</ele><time>2026-04-18T10:26:39Z</time></trkpt><trkpt lat="44.73114164486613" lon="9.585962605813645"><ele>433.0</ele><time>2026-04-18T10:26:40Z</time></trkpt><trkpt lat="44.7313181132956" lon="9.585983886941039"><ele>437.33333333333337</ele><time>2026-04-18T10:26:41Z</time></trkpt><trkpt lat="44.73149375651677" lon="9.586012061440632"><ele>441.66666666666663</ele><time>2026-04-18T10:26:42Z</time></trkpt><trkpt lat="44.731682060321255" lon="9.586057882942306"><ele>446.0</ele><time>2026-04-18T10:26:43Z</time></trkpt><trkpt lat="44.73185741405524" lon="9.586137353466851"><ele>442.3333333333333</ele><time>2026-04-18T10:26:44Z</time></trkpt><trkpt lat="44.73200911524507" lon="9.586224538485727"><ele>438.66666666666663</ele><time>2026-04-18T10:26:45Z</time></trkpt><trkpt lat="44.73215558568051" lon="9.586335881989324"><ele>435.0</ele><time>2026-04-18T10:26:46Z</time></trkpt><trkpt lat="44.732302978001286" lon="9.5864679087385"><ele>435.0</ele><time>2026-04-18T10:26:47Z</time></trkpt><trkpt lat="44.73243977723576" lon="9.586616502669536"><ele>435.0</ele><time>2026-04-18T10:26:48Z</time></trkpt><trkpt lat="44.7325676896468" lon="9.586764637060048"><ele>435.0</ele><time>2026-04-18T10:26:49Z</time></trkpt><trkpt lat="44.73269463062115" lon="9.586906169448643"><ele>432.33333333333337</ele><time>2026-04-18T10:26:50Z</time></trkpt><trkpt lat="44.73282866258456" lon="9.587029025609322"><ele>429.6666666666667</ele><time>2026-04-18T10:26:51Z</time></trkpt><trkpt lat="44.73298149374543" lon="9.587126064085362"><ele>427.0</ele><time>2026-04-18T10:26:52Z</time></trkpt><trkpt lat="44.73315048194253" lon="9.58719766876802"><ele>427.0</ele><time>2026-04-18T10:26:53Z</time></trkpt><trkpt lat="44.73330448171039" lon="9.587257846793207"><ele>427.0</ele><time>2026-04-18T10:26:54Z</time></trkpt><trkpt lat="44.73344013501424" lon="9.587311539881474"><ele>427.0</ele><time>2026-04-18T10:26:55Z</time></trkpt><trkpt lat="44.73357134980188" lon="9.587334381387155"><ele>427.0</ele><time>2026-04-18T10:26:56Z</time></trkpt><trkpt lat="44.73370249903493" lon="9.587299274986501"><ele>426.6666666666667</ele><time>2026-04-18T10:26:57Z</time></trkpt><trkpt lat="44.73385472118772" lon="9.58721042683421"><ele>426.33333333333337</ele><time>2026-04-18T10:26:58Z</time></trkpt><trkpt lat="44.734021294566254" lon="9.587142997072673"><ele>426.0</ele><time>2026-04-18T10:26:59Z</time></trkpt><trkpt lat="44.73416877972152" lon="9.58710275756058"><ele>426.0</ele><time>2026-04-18T10:27:00Z</time></trkpt><trkpt lat="44.73431870028923" lon="9.587122780175532"><ele>426.0</ele><time>2026-04-18T10:27:01Z</time></trkpt><trkpt lat="44.73447715730541" lon="9.587190176166942"><ele>426.0</ele><time>2026-04-18T10:27:02Z</time></trkpt><trkpt lat="44.73465544978735" lon="9.587261991769884"><ele>427.66666666666663</ele><time>2026-04-18T10:27:03Z</time></trkpt><trkpt lat="44.734817750844826" lon="9.58735416793283"><ele>429.3333333333333</ele><time>2026-04-18T10:27:04Z</time></trkpt><trkpt lat="44.73499866207921" lon="9.587431395853208"><ele>431.0</ele><time>2026-04-18T10:27:05Z</time></trkpt><trkpt lat="44.73518620863582" lon="9.587481321564878"><ele>433.3333333333333</ele><time>2026-04-18T10:27:06Z</time></trkpt><trkpt lat="44.7353860350516" lon="9.587495977193223"><ele>435.66666666666663</ele><time>2026-04-18T10:27:07Z</time></trkpt><trkpt lat="44.73558945337162" lon="9.587488040888662"><ele>438.0</ele><time>2026-04-18T10:27:08Z</time></trkpt><trkpt lat="44.7357697885789" lon="9.587476908244845"><ele>438.0</ele><time>2026-04-18T10:27:09Z</time></trkpt><trkpt lat="44.735933985349504" lon="9.587476917770974"><ele>438.0</ele><time>2026-04-18T10:27:10Z</time></trkpt><trkpt lat="44.73608481683378" lon="9.587480525170095"><ele>438.0</ele><time>2026-04-18T10:27:10.999Z</time></trkpt><trkpt lat="44.736216990372384" lon="9.587470524747985"><ele>438.0</ele><time>2026-04-18T10:27:11.999Z</time></trkpt><trkpt lat="44.7363417812736" lon="9.587424549793871"><ele>437.0</ele><time>2026-04-18T10:27:12.999Z</time></trkpt><trkpt lat="44.73644663334818" lon="9.587333868815557"><ele>435.99999999999994</ele><time>2026-04-18T10:27:13.999Z</time></trkpt><trkpt lat="44.7365469046981" lon="9.587319509703768"><ele>434.99999999999994</ele><time>2026-04-18T10:27:14.999Z</time></trkpt><trkpt lat="44.73663981938117" lon="9.587366913730325"><ele>434.0</ele><time>2026-04-18T10:27:15.999Z</time></trkpt><trkpt lat="44.736758587422635" lon="9.587421099784425"><ele>433.0</ele><time>2026-04-18T10:27:16.999Z</time></trkpt><trkpt lat="44.73684484538698" lon="9.587582045239154"><ele>430.25</ele><time>2026-04-18T10:27:17.999Z</time></trkpt><trkpt lat="44.73692458121449" lon="9.58773143629915"><ele>427.5</ele><time>2026-04-18T10:27:18.999Z</time></trkpt><trkpt lat="44.73699524113871" lon="9.587879840300516"><ele>424.75</ele><time>2026-04-18T10:27:19.999Z</time></trkpt><trkpt lat="44.737103729359575" lon="9.587997044044714"><ele>422.0</ele><time>2026-04-18T10:27:20.999Z</time></trkpt><trkpt lat="44.73724413537439" lon="9.588068942065785"><ele>422.0</ele><time>2026-04-18T10:27:21.999Z</time></trkpt><trkpt lat="44.73739671851971" lon="9.588097035472872"><ele>422.0</ele><time>2026-04-18T10:27:22.999Z</time></trkpt><trkpt lat="44.73756659907342" lon="9.588104755792898"><ele>422.0</ele><time>2026-04-18T10:27:23.999Z</time></trkpt><trkpt lat="44.73773603890235" lon="9.588105062400409"><ele>424.66666666666663</ele><time>2026-04-18T10:27:24.999Z</time></trkpt><trkpt lat="44.73790677195925" lon="9.588111933655828"><ele>427.33333333333337</ele><time>2026-04-18T10:27:25.999Z</time></trkpt><trkpt lat="44.73806041287229" lon="9.58812133921988"><ele>430.0</ele><time>2026-04-18T10:27:26.999Z</time></trkpt><trkpt lat="44.73819297245873" lon="9.58815310826829"><ele>430.0</ele><time>2026-04-18T10:27:27.999Z</time></trkpt><trkpt lat="44.738311057699065" lon="9.588222261322938"><ele>430.0</ele><time>2026-04-18T10:27:28.999Z</time></trkpt><trkpt lat="44.73842873130419" lon="9.588329744262266"><ele>430.0</ele><time>2026-04-18T10:27:29.999Z</time></trkpt><trkpt lat="44.73854882143304" lon="9.588453858850471"><ele>430.0</ele><time>2026-04-18T10:27:30.999Z</time></trkpt><trkpt lat="44.738672061387526" lon="9.588544417635374"><ele>430.75</ele><time>2026-04-18T10:27:31.999Z</time></trkpt><trkpt lat="44.73881469388865" lon="9.588590671788573"><ele>431.5</ele><time>2026-04-18T10:27:32.999Z</time></trkpt><trkpt lat="44.73896398578229" lon="9.588605030908129"><ele>432.25</ele><time>2026-04-18T10:27:33.999Z</time></trkpt><trkpt lat="44.73908819274616" lon="9.588597083242007"><ele>433.0</ele><time>2026-04-18T10:27:34.999Z</time></trkpt><trkpt lat="44.73921011027323" lon="9.588546639588618"><ele>433.0</ele><time>2026-04-18T10:27:35.999Z</time></trkpt><trkpt lat="44.73933900901764" lon="9.588456105017277"><ele>433.0</ele><time>2026-04-18T10:27:36.999Z</time></trkpt><trkpt lat="44.739485014415116" lon="9.588353335590039"><ele>433.0</ele><time>2026-04-18T10:27:37.999Z</time></trkpt><trkpt lat="44.73960807495622" lon="9.58827558157277"><ele>433.0</ele><time>2026-04-18T10:27:38.999Z</time></trkpt><trkpt lat="44.73973365607235" lon="9.58827655477042"><ele>432.75</ele><time>2026-04-18T10:27:39.999Z</time></trkpt><trkpt lat="44.73985782234512" lon="9.588327040970457"><ele>432.5</ele><time>2026-04-18T10:27:40.999Z</time></trkpt><trkpt lat="44.73998245493663" lon="9.588427579112782"><ele>432.25</ele><time>2026-04-18T10:27:41.999Z</time></trkpt><trkpt lat="44.74012323581516" lon="9.588540680082387"><ele>432.0</ele><time>2026-04-18T10:27:42.999Z</time></trkpt><trkpt lat="44.740253759539" lon="9.588646255134933"><ele>428.75</ele><time>2026-04-18T10:27:43.999Z</time></trkpt><trkpt lat="44.7403682177134" lon="9.58873113206004"><ele>425.5</ele><time>2026-04-18T10:27:44.999Z</time></trkpt><trkpt lat="44.7404924492301" lon="9.588800814187877"><ele>422.25</ele><time>2026-04-18T10:27:45.999Z</time></trkpt><trkpt lat="44.740629322328886" lon="9.588825560381865"><ele>419.0</ele><time>2026-04-18T10:27:46.999Z</time></trkpt><trkpt lat="44.740777012067845" lon="9.588784359403277"><ele>419.0</ele><time>2026-04-18T10:27:47.999Z</time></trkpt><trkpt lat="44.74090481814218" lon="9.588705571268386"><ele>419.0</ele><time>2026-04-18T10:27:48.999Z</time></trkpt><trkpt lat="44.741004700504014" lon="9.588652290226106"><ele>419.0</ele><time>2026-04-18T10:27:49.999Z</time></trkpt><trkpt lat="44.74110420643409" lon="9.588686809460594"><ele>419.0</ele><time>2026-04-18T10:27:50.999Z</time></trkpt><trkpt lat="44.74119473323778" lon="9.588835241000714"><ele>422.0</ele><time>2026-04-18T10:27:51.999Z</time></trkpt><trkpt lat="44.741305819697956" lon="9.588918042561819"><ele>425.0</ele><time>2026-04-18T10:27:52.999Z</time></trkpt><trkpt lat="44.741378644552434" lon="9.589035764174726"><ele>428.0</ele><time>2026-04-18T10:27:53.999Z</time></trkpt><trkpt lat="44.741398273407064" lon="9.589183072302854"><ele>431.0</ele><time>2026-04-18T10:27:54.999Z</time></trkpt><trkpt lat="44.74138032377073" lon="9.589356822060829"><ele>427.75</ele><time>2026-04-18T10:27:55.999Z</time></trkpt><trkpt lat="44.741358790075935" lon="9.589537928765177"><ele>424.5</ele><time>2026-04-18T10:27:57Z</time></trkpt><trkpt lat="44.741394413972984" lon="9.589697018421466"><ele>421.25</ele><time>2026-04-18T10:27:58Z</time></trkpt><trkpt lat="44.74147581599774" lon="9.58981764372453"><ele>418.0</ele><time>2026-04-18T10:27:59Z</time></trkpt><trkpt lat="44.74158502697733" lon="9.58989627605712"><ele>418.0</ele><time>2026-04-18T10:28:00Z</time></trkpt><trkpt lat="44.741717491566256" lon="9.589902698690521"><ele>418.0</ele><time>2026-04-18T10:28:01Z</time></trkpt><trkpt lat="44.74185664437249" lon="9.589851169971636"><ele>418.0</ele><time>2026-04-18T10:28:02Z</time></trkpt><trkpt lat="44.741984259894224" lon="9.589805318155767"><ele>418.0</ele><time>2026-04-18T10:28:03Z</time></trkpt><trkpt lat="44.742108324967475" lon="9.589859734421633"><ele>423.33333333333337</ele><time>2026-04-18T10:28:04Z</time></trkpt><trkpt lat="44.742250993241456" lon="9.589960718381272"><ele>428.66666666666663</ele><time>2026-04-18T10:28:05Z</time></trkpt><trkpt lat="44.742415754070144" lon="9.590096738293402"><ele>434.0</ele><time>2026-04-18T10:28:06Z</time></trkpt><trkpt lat="44.7425591585957" lon="9.590253000040658"><ele>433.66666666666663</ele><time>2026-04-18T10:28:07Z</time></trkpt><trkpt lat="44.742710749910046" lon="9.590414211185694"><ele>433.33333333333337</ele><time>2026-04-18T10:28:08Z</time></trkpt><trkpt lat="44.74288800622125" lon="9.590575105202905"><ele>433.0</ele><time>2026-04-18T10:28:09Z</time></trkpt><trkpt lat="44.743084833969796" lon="9.590729583136126"><ele>433.0</ele><time>2026-04-18T10:28:10Z</time></trkpt><trkpt lat="44.743264037873246" lon="9.590875727026965"><ele>433.0</ele><time>2026-04-18T10:28:11Z</time></trkpt><trkpt lat="44.743430564783594" lon="9.591005455187547"><ele>433.0</ele><time>2026-04-18T10:28:12Z</time></trkpt><trkpt lat="44.743588796726094" lon="9.591129815641937"><ele>429.6666666666667</ele><time>2026-04-18T10:28:13Z</time></trkpt><trkpt lat="44.743743564069064" lon="9.59124302095976"><ele>426.33333333333337</ele><time>2026-04-18T10:28:14Z</time></trkpt><trkpt lat="44.74390940752539" lon="9.591362857284055"><ele>423.0</ele><time>2026-04-18T10:28:15Z</time></trkpt><trkpt lat="44.744076903233356" lon="9.59148211194366"><ele>423.0</ele><time>2026-04-18T10:28:16Z</time></trkpt><trkpt lat="44.74425017692159" lon="9.591607899426863"><ele>423.0</ele><time>2026-04-18T10:28:17Z</time></trkpt><trkpt lat="44.744425298452256" lon="9.591744989260247"><ele>423.0</ele><time>2026-04-18T10:28:18Z</time></trkpt><trkpt lat="44.74460144401864" lon="9.591894646122698"><ele>416.66666666666663</ele><time>2026-04-18T10:28:19Z</time></trkpt><trkpt lat="44.744767330937" lon="9.592049046688176"><ele>410.3333333333333</ele><time>2026-04-18T10:28:20Z</time></trkpt><trkpt lat="44.7449284090025" lon="9.592186965108557"><ele>404.0</ele><time>2026-04-18T10:28:21Z</time></trkpt><trkpt lat="44.745118777784874" lon="9.59232026252041"><ele>416.66666666666663</ele><time>2026-04-18T10:28:22Z</time></trkpt><trkpt lat="44.74531641708019" lon="9.592446043373394"><ele>429.33333333333337</ele><time>2026-04-18T10:28:23Z</time></trkpt><trkpt lat="44.74551795541012" lon="9.592572327580381"><ele>442.0</ele><time>2026-04-18T10:28:24Z</time></trkpt><trkpt lat="44.74568936465929" lon="9.59271242784869"><ele>437.6666666666667</ele><time>2026-04-18T10:28:25Z</time></trkpt><trkpt lat="44.74585105024708" lon="9.59286656026012"><ele>433.33333333333337</ele><time>2026-04-18T10:28:26Z</time></trkpt><trkpt lat="44.74602496117112" lon="9.593022991671434"><ele>429.0</ele><time>2026-04-18T10:28:27Z</time></trkpt><trkpt lat="44.746190467823034" lon="9.593147771864588"><ele>429.0</ele><time>2026-04-18T10:28:28Z</time></trkpt><trkpt lat="44.74634136855492" lon="9.59325948199225"><ele>429.0</ele><time>2026-04-18T10:28:29Z</time></trkpt><trkpt lat="44.74649632572159" lon="9.593379037094424"><ele>429.0</ele><time>2026-04-18T10:28:30Z</time></trkpt><trkpt lat="44.74666808131361" lon="9.593493818577448"><ele>429.0</ele><time>2026-04-18T10:28:31Z</time></trkpt><trkpt lat="44.746846108348144" lon="9.593575205784008"><ele>429.0</ele><time>2026-04-18T10:28:32Z</time></trkpt><trkpt lat="44.74700113823441" lon="9.593633064446276"><ele>429.0</ele><time>2026-04-18T10:28:33Z</time></trkpt><trkpt lat="44.74712774305097" lon="9.59367863458739"><ele>428.2</ele><time>2026-04-18T10:28:34Z</time></trkpt><trkpt lat="44.747233621474756" lon="9.593682758380478"><ele>427.4</ele><time>2026-04-18T10:28:35Z</time></trkpt><trkpt lat="44.74732687637775" lon="9.593643196554785"><ele>426.6</ele><time>2026-04-18T10:28:36Z</time></trkpt><trkpt lat="44.74739847220669" lon="9.593525326933916"><ele>425.8</ele><time>2026-04-18T10:28:37Z</time></trkpt><trkpt lat="44.747441078438804" lon="9.593356003584251"><ele>425.0</ele><time>2026-04-18T10:28:38Z</time></trkpt><trkpt lat="44.747486390050824" lon="9.593160260992159"><ele>425.0</ele><time>2026-04-18T10:28:39Z</time></trkpt><trkpt lat="44.74754378823071" lon="9.59300332123773"><ele>425.0</ele><time>2026-04-18T10:28:40Z</time></trkpt><trkpt lat="44.74764851395864" lon="9.592911572866099"><ele>425.0</ele><time>2026-04-18T10:28:41Z</time></trkpt><trkpt lat="44.74776012117404" lon="9.592866005054013"><ele>425.0</ele><time>2026-04-18T10:28:42Z</time></trkpt><trkpt lat="44.74789240698494" lon="9.592869236032703"><ele>423.3333333333333</ele><time>2026-04-18T10:28:43Z</time></trkpt><trkpt lat="44.748033627001924" lon="9.592919977944973"><ele>421.66666666666663</ele><time>2026-04-18T10:28:44Z</time></trkpt><trkpt lat="44.74819924729695" lon="9.593015746346927"><ele>420.0</ele><time>2026-04-18T10:28:45Z</time></trkpt><trkpt lat="44.74837273870352" lon="9.593140024900622"><ele>420.0</ele><time>2026-04-18T10:28:46Z</time></trkpt><trkpt lat="44.74849293631582" lon="9.593251002962138"><ele>420.0</ele><time>2026-04-18T10:28:47Z</time></trkpt><trkpt lat="44.74861662933949" lon="9.593379408402853"><ele>420.0</ele><time>2026-04-18T10:28:48Z</time></trkpt><trkpt lat="44.74875577341106" lon="9.59349137404381"><ele>420.33333333333337</ele><time>2026-04-18T10:28:49Z</time></trkpt><trkpt lat="44.748912584749846" lon="9.593573402680098"><ele>420.6666666666667</ele><time>2026-04-18T10:28:50Z</time></trkpt><trkpt lat="44.74905884588226" lon="9.593634243843724"><ele>421.0</ele><time>2026-04-18T10:28:51Z</time></trkpt><trkpt lat="44.749185562101935" lon="9.59368239762608"><ele>418.25</ele><time>2026-04-18T10:28:52Z</time></trkpt><trkpt lat="44.74930649481164" lon="9.59369190443337"><ele>415.5</ele><time>2026-04-18T10:28:53Z</time></trkpt><trkpt lat="44.749438303698994" lon="9.593686892061559"><ele>412.75</ele><time>2026-04-18T10:28:54Z</time></trkpt><trkpt lat="44.749575729166416" lon="9.593620928820823"><ele>410.0</ele><time>2026-04-18T10:28:55Z</time></trkpt><trkpt lat="44.749696726976836" lon="9.593522077147767"><ele>410.0</ele><time>2026-04-18T10:28:56Z</time></trkpt><trkpt lat="44.749781378033646" lon="9.593400568950585"><ele>410.0</ele><time>2026-04-18T10:28:57Z</time></trkpt><trkpt lat="44.749873426558814" lon="9.593259294614182"><ele>410.0</ele><time>2026-04-18T10:28:58Z</time></trkpt><trkpt lat="44.74997620351715" lon="9.593093429234315"><ele>410.0</ele><time>2026-04-18T10:28:59Z</time></trkpt><trkpt lat="44.750083983865636" lon="9.592916014957268"><ele>410.5</ele><time>2026-04-18T10:29:00Z</time></trkpt><trkpt lat="44.75017864550683" lon="9.59276047235677"><ele>411.0</ele><time>2026-04-18T10:29:01Z</time></trkpt><trkpt lat="44.75027531742584" lon="9.592609661039644"><ele>411.5</ele><time>2026-04-18T10:29:02Z</time></trkpt><trkpt lat="44.75037538133711" lon="9.592477612740673"><ele>412.0</ele><time>2026-04-18T10:29:03Z</time></trkpt><trkpt lat="44.75048770401312" lon="9.59239833974175"><ele>412.0</ele><time>2026-04-18T10:29:04Z</time></trkpt><trkpt lat="44.7506118237153" lon="9.592343655338015"><ele>412.0</ele><time>2026-04-18T10:29:05Z</time></trkpt><trkpt lat="44.75076520271377" lon="9.59229286195619"><ele>412.0</ele><time>2026-04-18T10:29:06Z</time></trkpt><trkpt lat="44.750936491761365" lon="9.592292829484812"><ele>410.6666666666667</ele><time>2026-04-18T10:29:07Z</time></trkpt><trkpt lat="44.75111581364781" lon="9.592310066470176"><ele>409.33333333333337</ele><time>2026-04-18T10:29:08Z</time></trkpt><trkpt lat="44.75129882364173" lon="9.592349811241654"><ele>408.0</ele><time>2026-04-18T10:29:09Z</time></trkpt><trkpt lat="44.751464552707525" lon="9.592376762463253"><ele>408.0</ele><time>2026-04-18T10:29:10Z</time></trkpt><trkpt lat="44.75163330603129" lon="9.592367090796712"><ele>408.0</ele><time>2026-04-18T10:29:11Z</time></trkpt><trkpt lat="44.7517654358348" lon="9.592312596945463"><ele>408.0</ele><time>2026-04-18T10:29:12Z</time></trkpt><trkpt lat="44.75189733258216" lon="9.59222783603909"><ele>409.0</ele><time>2026-04-18T10:29:13Z</time></trkpt><trkpt lat="44.7520238074337" lon="9.592158191140625"><ele>410.0</ele><time>2026-04-18T10:29:14Z</time></trkpt><trkpt lat="44.75216134565252" lon="9.592162406463647"><ele>411.0</ele><time>2026-04-18T10:29:15Z</time></trkpt><trkpt lat="44.75231439002071" lon="9.592218305565241"><ele>412.0</ele><time>2026-04-18T10:29:16Z</time></trkpt><trkpt lat="44.75248327949813" lon="9.592313983867772"><ele>412.0</ele><time>2026-04-18T10:29:17Z</time></trkpt><trkpt lat="44.75263237261748" lon="9.592443225134504"><ele>412.0</ele><time>2026-04-18T10:29:18Z</time></trkpt><trkpt lat="44.752762330381316" lon="9.592560516927481"><ele>412.0</ele><time>2026-04-18T10:29:19Z</time></trkpt><trkpt lat="44.752892300951174" lon="9.592659103376052"><ele>412.0</ele><time>2026-04-18T10:29:20Z</time></trkpt><trkpt lat="44.75301145451606" lon="9.592766246912392"><ele>412.0</ele><time>2026-04-18T10:29:21Z</time></trkpt><trkpt lat="44.753147998526714" lon="9.592841877393617"><ele>412.0</ele><time>2026-04-18T10:29:22Z</time></trkpt><trkpt lat="44.75328706258314" lon="9.592881492290891"><ele>412.0</ele><time>2026-04-18T10:29:23Z</time></trkpt><trkpt lat="44.75341718603122" lon="9.592881344165855"><ele>409.0</ele><time>2026-04-18T10:29:24Z</time></trkpt><trkpt lat="44.753539462765595" lon="9.592838212676096"><ele>406.0</ele><time>2026-04-18T10:29:25Z</time></trkpt><trkpt lat="44.75365018908607" lon="9.592743856816979"><ele>403.0</ele><time>2026-04-18T10:29:26Z</time></trkpt><trkpt lat="44.75374399515813" lon="9.592582491324817"><ele>400.0</ele><time>2026-04-18T10:29:27Z</time></trkpt><trkpt lat="44.7538312322691" lon="9.59236433626527"><ele>400.0</ele><time>2026-04-18T10:29:28Z</time></trkpt><trkpt lat="44.75392633681606" lon="9.592117077264515"><ele>400.0</ele><time>2026-04-18T10:29:29Z</time></trkpt><trkpt lat="44.754030956037695" lon="9.591915536213389"><ele>400.0</ele><time>2026-04-18T10:29:30Z</time></trkpt><trkpt lat="44.75413831271421" lon="9.591736264537825"><ele>401.0</ele><time>2026-04-18T10:29:31Z</time></trkpt><trkpt lat="44.75424316176068" lon="9.591568913357806"><ele>402.0</ele><time>2026-04-18T10:29:32Z</time></trkpt><trkpt lat="44.75434061596626" lon="9.59141700120437"><ele>403.0</ele><time>2026-04-18T10:29:33Z</time></trkpt><trkpt lat="44.754430353368676" lon="9.591282693406368"><ele>404.0</ele><time>2026-04-18T10:29:34Z</time></trkpt><trkpt lat="44.7545234060624" lon="9.59116740224603"><ele>404.0</ele><time>2026-04-18T10:29:35Z</time></trkpt><trkpt lat="44.75464499789332" lon="9.591075943229363"><ele>404.0</ele><time>2026-04-18T10:29:36Z</time></trkpt><trkpt lat="44.754772854475554" lon="9.59104444921097"><ele>404.0</ele><time>2026-04-18T10:29:37Z</time></trkpt><trkpt lat="44.75492871765875" lon="9.591028551116995"><ele>404.0</ele><time>2026-04-18T10:29:38Z</time></trkpt><trkpt lat="44.755074105162976" lon="9.591017059092865"><ele>404.0</ele><time>2026-04-18T10:29:39Z</time></trkpt><trkpt lat="44.755189302027496" lon="9.591018964586068"><ele>404.0</ele><time>2026-04-18T10:29:40Z</time></trkpt><trkpt lat="44.75528817213043" lon="9.591050142412003"><ele>404.0</ele><time>2026-04-18T10:29:41Z</time></trkpt><trkpt lat="44.755401000754716" lon="9.591073786379413"><ele>404.0</ele><time>2026-04-18T10:29:42Z</time></trkpt><trkpt lat="44.75550975742792" lon="9.59123258856118"><ele>404.66666666666663</ele><time>2026-04-18T10:29:42.999Z</time></trkpt><trkpt lat="44.755563613622876" lon="9.59135713120984"><ele>405.33333333333337</ele><time>2026-04-18T10:29:43.999Z</time></trkpt><trkpt lat="44.755606750496426" lon="9.591431914236948"><ele>406.0</ele><time>2026-04-18T10:29:44.999Z</time></trkpt><trkpt lat="44.755970322289954" lon="9.591444347075159"><ele>406.5</ele><time>2026-04-18T10:29:46.999Z</time></trkpt><trkpt lat="44.75608721290154" lon="9.591497933594857"><ele>407.0</ele><time>2026-04-18T10:29:47.999Z</time></trkpt><trkpt lat="44.75614583587856" lon="9.591680844419676"><ele>407.5</ele><time>2026-04-18T10:29:48.999Z</time></trkpt><trkpt lat="44.756215088710874" lon="9.59188378533277"><ele>408.0</ele><time>2026-04-18T10:29:49.999Z</time></trkpt><trkpt lat="44.756291308662014" lon="9.592103610527456"><ele>408.0</ele><time>2026-04-18T10:29:50.999Z</time></trkpt><trkpt lat="44.75635501320784" lon="9.592272788970753"><ele>408.0</ele><time>2026-04-18T10:29:51.999Z</time></trkpt><trkpt lat="44.7564223325728" lon="9.592393560179193"><ele>408.0</ele><time>2026-04-18T10:29:52.999Z</time></trkpt><trkpt lat="44.7565036937181" lon="9.592454500849005"><ele>408.0</ele><time>2026-04-18T10:29:53.999Z</time></trkpt><trkpt lat="44.75661092696816" lon="9.592439905633398"><ele>408.0</ele><time>2026-04-18T10:29:54.999Z</time></trkpt><trkpt lat="44.75672042708332" lon="9.592347244729295"><ele>408.0</ele><time>2026-04-18T10:29:55.999Z</time></trkpt><trkpt lat="44.75681617609123" lon="9.592212734219338"><ele>408.0</ele><time>2026-04-18T10:29:56.999Z</time></trkpt><trkpt lat="44.7568588091101" lon="9.592066301729707"><ele>408.0</ele><time>2026-04-18T10:29:57.999Z</time></trkpt><trkpt lat="44.75685899636331" lon="9.591900863868572"><ele>408.0</ele><time>2026-04-18T10:29:58.999Z</time></trkpt><trkpt lat="44.75680289781825" lon="9.591750963084426"><ele>411.0</ele><time>2026-04-18T10:29:59.999Z</time></trkpt><trkpt lat="44.75670512010963" lon="9.591637523224701"><ele>414.0</ele><time>2026-04-18T10:30:00.999Z</time></trkpt><trkpt lat="44.75657249893269" lon="9.591551537750789"><ele>417.0</ele><time>2026-04-18T10:30:01.999Z</time></trkpt><trkpt lat="44.75646304402346" lon="9.591478633703632"><ele>420.0</ele><time>2026-04-18T10:30:03Z</time></trkpt><trkpt lat="44.75638541796251" lon="9.59135609638362"><ele>422.0</ele><time>2026-04-18T10:30:04Z</time></trkpt><trkpt lat="44.75636472501178" lon="9.591154998827388"><ele>424.0</ele><time>2026-04-18T10:30:05Z</time></trkpt><trkpt lat="44.7563456599275" lon="9.590941304572993"><ele>426.0</ele><time>2026-04-18T10:30:06Z</time></trkpt><trkpt lat="44.756304256445006" lon="9.590751144209124"><ele>428.0</ele><time>2026-04-18T10:30:07Z</time></trkpt><trkpt lat="44.75625098791391" lon="9.59060186489524"><ele>428.0</ele><time>2026-04-18T10:30:08Z</time></trkpt><trkpt lat="44.756117993765145" lon="9.590489113362535"><ele>428.0</ele><time>2026-04-18T10:30:09Z</time></trkpt><trkpt lat="44.755985424278705" lon="9.590443891298962"><ele>428.0</ele><time>2026-04-18T10:30:10Z</time></trkpt><trkpt lat="44.75588665924329" lon="9.590405080958762"><ele>428.0</ele><time>2026-04-18T10:30:11Z</time></trkpt><trkpt lat="44.75580504120429" lon="9.59032721939437"><ele>427.59999999999997</ele><time>2026-04-18T10:30:12Z</time></trkpt><trkpt lat="44.75577245144914" lon="9.590202605686262"><ele>427.19999999999993</ele><time>2026-04-18T10:30:13Z</time></trkpt><trkpt lat="44.755809654580034" lon="9.590081166763422"><ele>426.8</ele><time>2026-04-18T10:30:14Z</time></trkpt><trkpt lat="44.755898077747304" lon="9.590029261359769"><ele>426.4</ele><time>2026-04-18T10:30:15Z</time></trkpt><trkpt lat="44.75599370830243" lon="9.590054380035756"><ele>426.0</ele><time>2026-04-18T10:30:16Z</time></trkpt><trkpt lat="44.756084133293456" lon="9.590150339700356"><ele>426.66666666666663</ele><time>2026-04-18T10:30:17Z</time></trkpt><trkpt lat="44.756169989118085" lon="9.590329449216208"><ele>427.3333333333333</ele><time>2026-04-18T10:30:18Z</time></trkpt><trkpt lat="44.75629985607633" lon="9.59046085776722"><ele>428.0</ele><time>2026-04-18T10:30:19Z</time></trkpt><trkpt lat="44.75641548901941" lon="9.590587973663832"><ele>428.0</ele><time>2026-04-18T10:30:20Z</time></trkpt><trkpt lat="44.7565497231041" lon="9.590708271285148"><ele>428.0</ele><time>2026-04-18T10:30:21Z</time></trkpt><trkpt lat="44.756665510422074" lon="9.59080216709091"><ele>428.0</ele><time>2026-04-18T10:30:22Z</time></trkpt><trkpt lat="44.756775621391355" lon="9.590865476031631"><ele>428.0</ele><time>2026-04-18T10:30:23Z</time></trkpt><trkpt lat="44.75687989985983" lon="9.590866051098624"><ele>427.66666666666663</ele><time>2026-04-18T10:30:24Z</time></trkpt><trkpt lat="44.75698296311107" lon="9.59077198116725"><ele>427.33333333333337</ele><time>2026-04-18T10:30:25Z</time></trkpt><trkpt lat="44.75708366503168" lon="9.590617354753318"><ele>427.0</ele><time>2026-04-18T10:30:26Z</time></trkpt><trkpt lat="44.757198264450494" lon="9.590408233286666"><ele>430.6666666666667</ele><time>2026-04-18T10:30:27Z</time></trkpt><trkpt lat="44.75730564230471" lon="9.59021494572436"><ele>434.33333333333337</ele><time>2026-04-18T10:30:28Z</time></trkpt><trkpt lat="44.75737656788079" lon="9.590039070379369"><ele>438.0</ele><time>2026-04-18T10:30:29Z</time></trkpt><trkpt lat="44.75743788056714" lon="9.589870378226019"><ele>438.0</ele><time>2026-04-18T10:30:30Z</time></trkpt><trkpt lat="44.757549006573726" lon="9.589741939614365"><ele>438.0</ele><time>2026-04-18T10:30:31Z</time></trkpt><trkpt lat="44.75767225417868" lon="9.589619497241479"><ele>438.0</ele><time>2026-04-18T10:30:32Z</time></trkpt><trkpt lat="44.75778581442935" lon="9.589522763590518"><ele>438.0</ele><time>2026-04-18T10:30:33Z</time></trkpt><trkpt lat="44.75790778140452" lon="9.58948271840365"><ele>438.0</ele><time>2026-04-18T10:30:34Z</time></trkpt><trkpt lat="44.75802707835228" lon="9.589547596210076"><ele>438.0</ele><time>2026-04-18T10:30:35Z</time></trkpt><trkpt lat="44.75815553285329" lon="9.589648500156924"><ele>438.0</ele><time>2026-04-18T10:30:36Z</time></trkpt><trkpt lat="44.75832234785042" lon="9.589741000156017"><ele>438.0</ele><time>2026-04-18T10:30:37Z</time></trkpt><trkpt lat="44.75846678887066" lon="9.589881526118983"><ele>438.0</ele><time>2026-04-18T10:30:38Z</time></trkpt><trkpt lat="44.75857826390732" lon="9.59006436944359"><ele>438.0</ele><time>2026-04-18T10:30:39Z</time></trkpt><trkpt lat="44.758687522041804" lon="9.590199020030775"><ele>438.5</ele><time>2026-04-18T10:30:40Z</time></trkpt><trkpt lat="44.758788305807066" lon="9.590308433259786"><ele>439.0</ele><time>2026-04-18T10:30:41Z</time></trkpt><trkpt lat="44.75892925238786" lon="9.590384308604623"><ele>439.5</ele><time>2026-04-18T10:30:42Z</time></trkpt><trkpt lat="44.75908116608629" lon="9.590473902994944"><ele>440.0</ele><time>2026-04-18T10:30:43Z</time></trkpt><trkpt lat="44.759189362522235" lon="9.59064769169019"><ele>440.0</ele><time>2026-04-18T10:30:44Z</time></trkpt><trkpt lat="44.75931081211853" lon="9.590853314541572"><ele>440.0</ele><time>2026-04-18T10:30:45Z</time></trkpt><trkpt lat="44.75943549319304" lon="9.591055717962007"><ele>440.0</ele><time>2026-04-18T10:30:46Z</time></trkpt><trkpt lat="44.75952745849424" lon="9.59124891016298"><ele>440.3333333333333</ele><time>2026-04-18T10:30:47Z</time></trkpt><trkpt lat="44.7596290972632" lon="9.59142886581995"><ele>440.66666666666663</ele><time>2026-04-18T10:30:48Z</time></trkpt><trkpt lat="44.75975527806885" lon="9.591596002106845"><ele>441.0</ele><time>2026-04-18T10:30:49Z</time></trkpt><trkpt lat="44.75989201788393" lon="9.591767317878222"><ele>441.0</ele><time>2026-04-18T10:30:50Z</time></trkpt><trkpt lat="44.76003672508883" lon="9.591963325057577"><ele>441.0</ele><time>2026-04-18T10:30:51Z</time></trkpt><trkpt lat="44.76016961276428" lon="9.592153529230496"><ele>441.0</ele><time>2026-04-18T10:30:52Z</time></trkpt><trkpt lat="44.76030239663609" lon="9.592335163502597"><ele>440.66666666666663</ele><time>2026-04-18T10:30:53Z</time></trkpt><trkpt lat="44.7604425320537" lon="9.592523822038368"><ele>440.3333333333333</ele><time>2026-04-18T10:30:54Z</time></trkpt><trkpt lat="44.760575127219354" lon="9.592692990469898"><ele>440.0</ele><time>2026-04-18T10:30:55Z</time></trkpt><trkpt lat="44.76069512245751" lon="9.592852529290019"><ele>436.0</ele><time>2026-04-18T10:30:56Z</time></trkpt><trkpt lat="44.76079468344904" lon="9.593013692953807"><ele>432.0</ele><time>2026-04-18T10:30:57Z</time></trkpt><trkpt lat="44.76085608124081" lon="9.593201867532308"><ele>428.0</ele><time>2026-04-18T10:30:58Z</time></trkpt><trkpt lat="44.760861574450146" lon="9.593414594926488"><ele>428.0</ele><time>2026-04-18T10:30:59Z</time></trkpt><trkpt lat="44.76086231758947" lon="9.593632641525144"><ele>428.0</ele><time>2026-04-18T10:31:00Z</time></trkpt><trkpt lat="44.7608799757297" lon="9.593818880032414"><ele>428.0</ele><time>2026-04-18T10:31:01Z</time></trkpt><trkpt lat="44.76093717647903" lon="9.59400235498447"><ele>428.0</ele><time>2026-04-18T10:31:02Z</time></trkpt><trkpt lat="44.76103670474208" lon="9.594180281804451"><ele>428.25</ele><time>2026-04-18T10:31:03Z</time></trkpt><trkpt lat="44.7611422210918" lon="9.594322077773557"><ele>428.5</ele><time>2026-04-18T10:31:04Z</time></trkpt><trkpt lat="44.76125708379466" lon="9.59443337504841"><ele>428.75</ele><time>2026-04-18T10:31:05Z</time></trkpt><trkpt lat="44.761400762242516" lon="9.594500803592759"><ele>429.0</ele><time>2026-04-18T10:31:06Z</time></trkpt><trkpt lat="44.76153351489553" lon="9.594553363025797"><ele>425.33333333333337</ele><time>2026-04-18T10:31:07Z</time></trkpt><trkpt lat="44.76159827213108" lon="9.594694040683327"><ele>421.6666666666667</ele><time>2026-04-18T10:31:08Z</time></trkpt><trkpt lat="44.76163459916289" lon="9.59490051178284"><ele>418.0</ele><time>2026-04-18T10:31:09Z</time></trkpt><trkpt lat="44.76169505111163" lon="9.595154355548399"><ele>415.0</ele><time>2026-04-18T10:31:10Z</time></trkpt><trkpt lat="44.761761876949315" lon="9.595368109834416"><ele>412.0</ele><time>2026-04-18T10:31:11Z</time></trkpt><trkpt lat="44.76184872851264" lon="9.59558817736739"><ele>409.0</ele><time>2026-04-18T10:31:12Z</time></trkpt><trkpt lat="44.76195784191696" lon="9.595803763211538"><ele>408.25</ele><time>2026-04-18T10:31:13Z</time></trkpt><trkpt lat="44.76204429501727" lon="9.595990904647799"><ele>407.5</ele><time>2026-04-18T10:31:14Z</time></trkpt><trkpt lat="44.76212065867575" lon="9.596159968906049"><ele>406.75</ele><time>2026-04-18T10:31:15Z</time></trkpt><trkpt lat="44.76220251309385" lon="9.596311156086406"><ele>406.0</ele><time>2026-04-18T10:31:16Z</time></trkpt><trkpt lat="44.76231765669278" lon="9.596425908271403"><ele>406.0</ele><time>2026-04-18T10:31:17Z</time></trkpt><trkpt lat="44.76246181379795" lon="9.596484837217217"><ele>406.0</ele><time>2026-04-18T10:31:18Z</time></trkpt><trkpt lat="44.762618870648446" lon="9.596521208058457"><ele>406.0</ele><time>2026-04-18T10:31:19Z</time></trkpt><trkpt lat="44.76279028408748" lon="9.596578751554212"><ele>407.6666666666667</ele><time>2026-04-18T10:31:20Z</time></trkpt><trkpt lat="44.76295816085416" lon="9.596659924932194"><ele>409.33333333333337</ele><time>2026-04-18T10:31:21Z</time></trkpt><trkpt lat="44.76309692770162" lon="9.596756929831948"><ele>411.0</ele><time>2026-04-18T10:31:22Z</time></trkpt><trkpt lat="44.763198756435244" lon="9.596895889665355"><ele>406.66666666666663</ele><time>2026-04-18T10:31:23Z</time></trkpt><trkpt lat="44.763288303913534" lon="9.597063471156309"><ele>402.3333333333333</ele><time>2026-04-18T10:31:24Z</time></trkpt><trkpt lat="44.76337003714645" lon="9.597260988534641"><ele>398.0</ele><time>2026-04-18T10:31:25Z</time></trkpt><trkpt lat="44.76341551716202" lon="9.597451087381664"><ele>398.0</ele><time>2026-04-18T10:31:26Z</time></trkpt><trkpt lat="44.76345347674697" lon="9.597627583960984"><ele>398.0</ele><time>2026-04-18T10:31:27Z</time></trkpt><trkpt lat="44.763449597954526" lon="9.597801827240342"><ele>398.0</ele><time>2026-04-18T10:31:28Z</time></trkpt><trkpt lat="44.76344379534697" lon="9.59796166168934"><ele>398.0</ele><time>2026-04-18T10:31:29Z</time></trkpt><trkpt lat="44.76346051877202" lon="9.59810786427776"><ele>396.75</ele><time>2026-04-18T10:31:30Z</time></trkpt><trkpt lat="44.76352284961348" lon="9.598216872469171"><ele>395.5</ele><time>2026-04-18T10:31:31Z</time></trkpt><trkpt lat="44.763619885503054" lon="9.5982723729909"><ele>394.25</ele><time>2026-04-18T10:31:32Z</time></trkpt><trkpt lat="44.76374189313641" lon="9.598291332848113"><ele>393.0</ele><time>2026-04-18T10:31:33Z</time></trkpt><trkpt lat="44.76391249839163" lon="9.598283396267659"><ele>393.0</ele><time>2026-04-18T10:31:34Z</time></trkpt><trkpt lat="44.76411255957406" lon="9.598258149574017"><ele>393.0</ele><time>2026-04-18T10:31:35Z</time></trkpt><trkpt lat="44.764304310538954" lon="9.598218944341461"><ele>393.0</ele><time>2026-04-18T10:31:36Z</time></trkpt><trkpt lat="44.76448293226571" lon="9.59817390700869"><ele>392.66666666666663</ele><time>2026-04-18T10:31:37Z</time></trkpt><trkpt lat="44.76464635785092" lon="9.598135949440499"><ele>392.3333333333333</ele><time>2026-04-18T10:31:38Z</time></trkpt><trkpt lat="44.764814669348944" lon="9.598119184783222"><ele>392.0</ele><time>2026-04-18T10:31:39Z</time></trkpt><trkpt lat="44.764974433029884" lon="9.598147025873308"><ele>392.0</ele><time>2026-04-18T10:31:40Z</time></trkpt><trkpt lat="44.76512873869894" lon="9.598203822670998"><ele>392.0</ele><time>2026-04-18T10:31:41Z</time></trkpt><trkpt lat="44.76527767389413" lon="9.598276332275486"><ele>392.0</ele><time>2026-04-18T10:31:42Z</time></trkpt><trkpt lat="44.76542876405318" lon="9.598354520940564"><ele>394.66666666666663</ele><time>2026-04-18T10:31:43Z</time></trkpt><trkpt lat="44.765585939714484" lon="9.598448074173008"><ele>397.33333333333337</ele><time>2026-04-18T10:31:44Z</time></trkpt><trkpt lat="44.76574379349149" lon="9.598541506342801"><ele>400.0</ele><time>2026-04-18T10:31:45Z</time></trkpt><trkpt lat="44.76590647666807" lon="9.598617800194539"><ele>397.33333333333337</ele><time>2026-04-18T10:31:46Z</time></trkpt><trkpt lat="44.76607995771412" lon="9.59868287077152"><ele>394.66666666666663</ele><time>2026-04-18T10:31:47Z</time></trkpt><trkpt lat="44.76625732856328" lon="9.598748299540977"><ele>392.0</ele><time>2026-04-18T10:31:48Z</time></trkpt><trkpt lat="44.766436367316594" lon="9.598806390802267"><ele>392.0</ele><time>2026-04-18T10:31:49Z</time></trkpt><trkpt lat="44.76659582094612" lon="9.59888009070845"><ele>392.0</ele><time>2026-04-18T10:31:50Z</time></trkpt><trkpt lat="44.766730901450636" lon="9.599019042548347"><ele>392.0</ele><time>2026-04-18T10:31:51Z</time></trkpt><trkpt lat="44.766870438085625" lon="9.599181488048396"><ele>394.3333333333333</ele><time>2026-04-18T10:31:52Z</time></trkpt><trkpt lat="44.76700748508883" lon="9.599327371107798"><ele>396.66666666666663</ele><time>2026-04-18T10:31:53Z</time></trkpt><trkpt lat="44.76712516056887" lon="9.599475957377864"><ele>399.0</ele><time>2026-04-18T10:31:54Z</time></trkpt><trkpt lat="44.767239529373626" lon="9.599600498821642"><ele>394.75</ele><time>2026-04-18T10:31:55Z</time></trkpt><trkpt lat="44.767347531593025" lon="9.599702555707985"><ele>390.5</ele><time>2026-04-18T10:31:56Z</time></trkpt><trkpt lat="44.76746586294715" lon="9.599768818336123"><ele>386.25</ele><time>2026-04-18T10:31:56.999Z</time></trkpt><trkpt lat="44.76760855105499" lon="9.59980049896287"><ele>382.0</ele><time>2026-04-18T10:31:57.999Z</time></trkpt><trkpt lat="44.767782088734684" lon="9.59981520916873"><ele>382.0</ele><time>2026-04-18T10:31:58.999Z</time></trkpt><trkpt lat="44.767967669411014" lon="9.59987014678986"><ele>382.0</ele><time>2026-04-18T10:31:59.999Z</time></trkpt><trkpt lat="44.768156068084096" lon="9.599964822443011"><ele>382.0</ele><time>2026-04-18T10:32:00.999Z</time></trkpt><trkpt lat="44.768356289803116" lon="9.600029711159616"><ele>381.66666666666663</ele><time>2026-04-18T10:32:01.999Z</time></trkpt><trkpt lat="44.76854801960413" lon="9.600050942157457"><ele>381.3333333333333</ele><time>2026-04-18T10:32:02.999Z</time></trkpt><trkpt lat="44.768716465439304" lon="9.600086621677182"><ele>381.0</ele><time>2026-04-18T10:32:03.999Z</time></trkpt><trkpt lat="44.768900703220595" lon="9.600185494741531"><ele>381.0</ele><time>2026-04-18T10:32:04.999Z</time></trkpt><trkpt lat="44.769079753967475" lon="9.600303757198258"><ele>381.0</ele><time>2026-04-18T10:32:05.999Z</time></trkpt><trkpt lat="44.76924131817004" lon="9.600408309688817"><ele>381.0</ele><time>2026-04-18T10:32:06.999Z</time></trkpt><trkpt lat="44.76938802528597" lon="9.600493464037477"><ele>379.5</ele><time>2026-04-18T10:32:07.999Z</time></trkpt><trkpt lat="44.76951306053582" lon="9.60057499524479"><ele>378.0</ele><time>2026-04-18T10:32:09Z</time></trkpt><trkpt lat="44.76959902327933" lon="9.600704698593557"><ele>376.5</ele><time>2026-04-18T10:32:10Z</time></trkpt><trkpt lat="44.76968082475552" lon="9.60084698537264"><ele>375.0</ele><time>2026-04-18T10:32:11Z</time></trkpt><trkpt lat="44.769743783389195" lon="9.601039316469716"><ele>373.0</ele><time>2026-04-18T10:32:12Z</time></trkpt><trkpt lat="44.76979998740523" lon="9.60125859293975"><ele>371.0</ele><time>2026-04-18T10:32:13Z</time></trkpt><trkpt lat="44.769858427367524" lon="9.60148355187948"><ele>369.0</ele><time>2026-04-18T10:32:14Z</time></trkpt><trkpt lat="44.769900051399716" lon="9.601682032395574"><ele>369.0</ele><time>2026-04-18T10:32:15Z</time></trkpt><trkpt lat="44.7699310514582" lon="9.601857076555978"><ele>369.0</ele><time>2026-04-18T10:32:16Z</time></trkpt><trkpt lat="44.76996545020449" lon="9.602003827140729"><ele>369.0</ele><time>2026-04-18T10:32:17Z</time></trkpt><trkpt lat="44.770038652112504" lon="9.602131319049258"><ele>369.0</ele><time>2026-04-18T10:32:18Z</time></trkpt><trkpt lat="44.770182465147705" lon="9.602210442370948"><ele>367.0</ele><time>2026-04-18T10:32:19Z</time></trkpt><trkpt lat="44.77032245326907" lon="9.602255764139471"><ele>365.0</ele><time>2026-04-18T10:32:20Z</time></trkpt><trkpt lat="44.77045018065445" lon="9.602303445933101"><ele>363.0</ele><time>2026-04-18T10:32:21Z</time></trkpt><trkpt lat="44.77057960092577" lon="9.602252808006709"><ele>361.0</ele><time>2026-04-18T10:32:22Z</time></trkpt><trkpt lat="44.770681015185545" lon="9.602198794986268"><ele>361.0</ele><time>2026-04-18T10:32:23Z</time></trkpt><trkpt lat="44.770769522728486" lon="9.602113956336122"><ele>361.0</ele><time>2026-04-18T10:32:24Z</time></trkpt><trkpt lat="44.770861783014034" lon="9.602048657941165"><ele>361.0</ele><time>2026-04-18T10:32:25Z</time></trkpt><trkpt lat="44.77097095463569" lon="9.602065434334255"><ele>361.0</ele><time>2026-04-18T10:32:26Z</time></trkpt><trkpt lat="44.77106752566933" lon="9.602146884102623"><ele>361.0</ele><time>2026-04-18T10:32:27Z</time></trkpt><trkpt lat="44.771139454596195" lon="9.602322717983894"><ele>360.25</ele><time>2026-04-18T10:32:28Z</time></trkpt><trkpt lat="44.77121855260867" lon="9.602488390885105"><ele>359.5</ele><time>2026-04-18T10:32:29Z</time></trkpt><trkpt lat="44.77127214276677" lon="9.602649734001046"><ele>358.75</ele><time>2026-04-18T10:32:30Z</time></trkpt><trkpt lat="44.7713521733612" lon="9.60275802933393"><ele>358.0</ele><time>2026-04-18T10:32:31Z</time></trkpt><trkpt lat="44.771456680978424" lon="9.602819433060654"><ele>355.25</ele><time>2026-04-18T10:32:32Z</time></trkpt><trkpt lat="44.771586559327844" lon="9.602850183249403"><ele>352.5</ele><time>2026-04-18T10:32:33Z</time></trkpt><trkpt lat="44.771737178904736" lon="9.60286901635072"><ele>349.75</ele><time>2026-04-18T10:32:34Z</time></trkpt><trkpt lat="44.7718872618269" lon="9.602903315393101"><ele>347.0</ele><time>2026-04-18T10:32:35Z</time></trkpt><trkpt lat="44.772020965004884" lon="9.602947474478034"><ele>347.0</ele><time>2026-04-18T10:32:36Z</time></trkpt><trkpt lat="44.77213967525226" lon="9.60301697467653"><ele>347.0</ele><time>2026-04-18T10:32:37Z</time></trkpt><trkpt lat="44.77224119627826" lon="9.603115082991605"><ele>347.0</ele><time>2026-04-18T10:32:38Z</time></trkpt><trkpt lat="44.77231901136994" lon="9.603264515830901"><ele>347.0</ele><time>2026-04-18T10:32:39Z</time></trkpt><trkpt lat="44.77237167323632" lon="9.603447263108219"><ele>347.0</ele><time>2026-04-18T10:32:40Z</time></trkpt><trkpt lat="44.77236306359979" lon="9.60363009837755"><ele>347.0</ele><time>2026-04-18T10:32:41Z</time></trkpt><trkpt lat="44.77237602302438" lon="9.603797790580245"><ele>347.0</ele><time>2026-04-18T10:32:42Z</time></trkpt><trkpt lat="44.77239576555656" lon="9.603973899117483"><ele>347.0</ele><time>2026-04-18T10:32:43Z</time></trkpt><trkpt lat="44.7724635263114" lon="9.604161367414308"><ele>345.75</ele><time>2026-04-18T10:32:44Z</time></trkpt><trkpt lat="44.7725692186234" lon="9.604303814079984"><ele>344.5</ele><time>2026-04-18T10:32:45Z</time></trkpt><trkpt lat="44.77269481845431" lon="9.604409097186885"><ele>343.25</ele><time>2026-04-18T10:32:46Z</time></trkpt><trkpt lat="44.77281803538301" lon="9.60448949054724"><ele>342.0</ele><time>2026-04-18T10:32:47Z</time></trkpt><trkpt lat="44.77293976910338" lon="9.604568011984709"><ele>339.5</ele><time>2026-04-18T10:32:48Z</time></trkpt><trkpt lat="44.77305512924575" lon="9.604639490588749"><ele>337.0</ele><time>2026-04-18T10:32:49Z</time></trkpt><trkpt lat="44.77318630310547" lon="9.60471901015757"><ele>334.5</ele><time>2026-04-18T10:32:50Z</time></trkpt><trkpt lat="44.77331613811765" lon="9.604784216825283"><ele>332.0</ele><time>2026-04-18T10:32:51Z</time></trkpt><trkpt lat="44.773436850165346" lon="9.604844608395304"><ele>331.5</ele><time>2026-04-18T10:32:52Z</time></trkpt><trkpt lat="44.77355211042238" lon="9.604902988457749"><ele>331.0</ele><time>2026-04-18T10:32:53Z</time></trkpt><trkpt lat="44.77366723062727" lon="9.604963036557868"><ele>330.5</ele><time>2026-04-18T10:32:54Z</time></trkpt><trkpt lat="44.77378663051044" lon="9.605030427987353"><ele>330.0</ele><time>2026-04-18T10:32:55Z</time></trkpt><trkpt lat="44.773927883679356" lon="9.60509493675123"><ele>330.0</ele><time>2026-04-18T10:32:56Z</time></trkpt><trkpt lat="44.77406010175232" lon="9.60516932383042"><ele>330.0</ele><time>2026-04-18T10:32:57Z</time></trkpt><trkpt lat="44.774207618081526" lon="9.605200018292773"><ele>330.0</ele><time>2026-04-18T10:32:58Z</time></trkpt><trkpt lat="44.77435601878866" lon="9.605241699781919"><ele>330.0</ele><time>2026-04-18T10:32:59Z</time></trkpt><trkpt lat="44.774511493102274" lon="9.605284639379851"><ele>328.6666666666667</ele><time>2026-04-18T10:33:00Z</time></trkpt><trkpt lat="44.77467457624274" lon="9.605329096429104"><ele>327.33333333333337</ele><time>2026-04-18T10:33:01Z</time></trkpt><trkpt lat="44.77484978187027" lon="9.605373050406858"><ele>326.0</ele><time>2026-04-18T10:33:02Z</time></trkpt><trkpt lat="44.77501086463028" lon="9.605412286531216"><ele>326.0</ele><time>2026-04-18T10:33:03Z</time></trkpt><trkpt lat="44.77515313981607" lon="9.605447578995463"><ele>326.0</ele><time>2026-04-18T10:33:04Z</time></trkpt><trkpt lat="44.77528317844781" lon="9.605480476777588"><ele>326.0</ele><time>2026-04-18T10:33:05Z</time></trkpt><trkpt lat="44.775402102298074" lon="9.605507012516155"><ele>326.0</ele><time>2026-04-18T10:33:06Z</time></trkpt><trkpt lat="44.775529437359324" lon="9.605532419444007"><ele>326.25</ele><time>2026-04-18T10:33:07Z</time></trkpt><trkpt lat="44.7756796621986" lon="9.605554271009629"><ele>326.5</ele><time>2026-04-18T10:33:08Z</time></trkpt><trkpt lat="44.7758056058527" lon="9.605559808506221"><ele>326.75</ele><time>2026-04-18T10:33:09Z</time></trkpt><trkpt lat="44.775918375281066" lon="9.60556612298675"><ele>327.0</ele><time>2026-04-18T10:33:10Z</time></trkpt><trkpt lat="44.77601480211675" lon="9.605572209010356"><ele>326.6666666666667</ele><time>2026-04-18T10:33:11Z</time></trkpt><trkpt lat="44.776093988146194" lon="9.605577974487963"><ele>326.3333333333333</ele><time>2026-04-18T10:33:12Z</time></trkpt><trkpt lat="44.776174555483664" lon="9.605584806521694"><ele>326.0</ele><time>2026-04-18T10:33:14Z</time></trkpt><trkpt lat="44.776235245044305" lon="9.605609828712796"><ele>325.66666666666663</ele><time>2026-04-18T10:33:16Z</time></trkpt><trkpt lat="44.776271497755154" lon="9.605720714942057"><ele>325.3333333333333</ele><time>2026-04-18T10:33:18Z</time></trkpt><trkpt lat="44.7762554941501" lon="9.605816910823682"><ele>325.0</ele><time>2026-04-18T10:33:19Z</time></trkpt><trkpt lat="44.77623634331328" lon="9.605937133901527"><ele>325.0</ele><time>2026-04-18T10:33:20Z</time></trkpt><trkpt lat="44.776234874351104" lon="9.606067907635426"><ele>325.0</ele><time>2026-04-18T10:33:21Z</time></trkpt><trkpt lat="44.776234444829505" lon="9.606186645517859"><ele>325.0</ele><time>2026-04-18T10:33:22Z</time></trkpt><trkpt lat="44.776231431986744" lon="9.606307194363094"><ele>325.0</ele><time>2026-04-18T10:33:23Z</time></trkpt><trkpt lat="44.77622912500982" lon="9.606408971956267"><ele>325.0</ele><time>2026-04-18T10:33:24Z</time></trkpt><trkpt lat="44.77622405700581" lon="9.606575308019446"><ele>325.0</ele><time>2026-04-18T10:33:26Z</time></trkpt><trkpt lat="44.776212363894764" lon="9.60672662564174"><ele>325.0</ele><time>2026-04-18T10:33:28Z</time></trkpt><trkpt lat="44.77621037883258" lon="9.606818584050282"><ele>325.0</ele><time>2026-04-18T10:33:30Z</time></trkpt><trkpt lat="44.776201936328015" lon="9.606938410151464"><ele>325.0</ele><time>2026-04-18T10:33:33Z</time></trkpt><trkpt lat="44.776206363599584" lon="9.607033128966604"><ele>325.0</ele><time>2026-04-18T10:33:35Z</time></trkpt><trkpt lat="44.77624505520723" lon="9.60714002373402"><ele>325.0</ele><time>2026-04-18T10:33:54.999Z</time></trkpt><trkpt lat="44.776292216728464" lon="9.607201514428018"><ele>325.8</ele><time>2026-04-18T10:33:57.999Z</time></trkpt><trkpt lat="44.77639623430282" lon="9.607165878478352"><ele>326.6</ele><time>2026-04-18T10:33:58.999Z</time></trkpt><trkpt lat="44.77646549444058" lon="9.60721438605952"><ele>327.4</ele><time>2026-04-18T10:33:59.999Z</time></trkpt><trkpt lat="44.77654721067885" lon="9.607263706926803"><ele>328.2</ele><time>2026-04-18T10:34:00.999Z</time></trkpt><trkpt lat="44.77663220690852" lon="9.607317522637276"><ele>329.0</ele><time>2026-04-18T10:34:01.999Z</time></trkpt><trkpt lat="44.77673218317465" lon="9.607373923826989"><ele>329.0</ele><time>2026-04-18T10:34:02.999Z</time></trkpt><trkpt lat="44.77683371423351" lon="9.607430791748811"><ele>329.0</ele><time>2026-04-18T10:34:03.999Z</time></trkpt><trkpt lat="44.77694237518268" lon="9.607499231358007"><ele>329.0</ele><time>2026-04-18T10:34:04.999Z</time></trkpt><trkpt lat="44.77706029476869" lon="9.60757043536566"><ele>329.0</ele><time>2026-04-18T10:34:05.999Z</time></trkpt><trkpt lat="44.777170515049946" lon="9.607630467188919"><ele>328.75</ele><time>2026-04-18T10:34:06.999Z</time></trkpt><trkpt lat="44.77727808676106" lon="9.607704967417334"><ele>328.5</ele><time>2026-04-18T10:34:07.999Z</time></trkpt><trkpt lat="44.777388638120215" lon="9.607768261455611"><ele>328.25</ele><time>2026-04-18T10:34:08.999Z</time></trkpt><trkpt lat="44.77750716759125" lon="9.60783633627665"><ele>328.0</ele><time>2026-04-18T10:34:09.999Z</time></trkpt><trkpt lat="44.777632401605054" lon="9.607911904893419"><ele>328.0</ele><time>2026-04-18T10:34:10.999Z</time></trkpt><trkpt lat="44.777756012530375" lon="9.607985503157114"><ele>328.0</ele><time>2026-04-18T10:34:11.999Z</time></trkpt><trkpt lat="44.77788839640723" lon="9.608065944909923"><ele>328.0</ele><time>2026-04-18T10:34:12.999Z</time></trkpt><trkpt lat="44.778031428718535" lon="9.608150668983946"><ele>328.0</ele><time>2026-04-18T10:34:13.999Z</time></trkpt><trkpt lat="44.7781833861227" lon="9.608241432112827"><ele>328.0</ele><time>2026-04-18T10:34:15Z</time></trkpt><trkpt lat="44.778328762933604" lon="9.608319750979923"><ele>328.0</ele><time>2026-04-18T10:34:16Z</time></trkpt><trkpt lat="44.77847092469507" lon="9.608403390116516"><ele>328.0</ele><time>2026-04-18T10:34:17Z</time></trkpt><trkpt lat="44.77861658081651" lon="9.608486156010333"><ele>327.0</ele><time>2026-04-18T10:34:18Z</time></trkpt><trkpt lat="44.7787623138241" lon="9.60856494000067"><ele>326.0</ele><time>2026-04-18T10:34:19Z</time></trkpt><trkpt lat="44.778898786084085" lon="9.608645141935297"><ele>325.0</ele><time>2026-04-18T10:34:20Z</time></trkpt><trkpt lat="44.77903795057135" lon="9.608731343845019"><ele>325.0</ele><time>2026-04-18T10:34:21Z</time></trkpt><trkpt lat="44.77918153050943" lon="9.60881557792302"><ele>325.0</ele><time>2026-04-18T10:34:22Z</time></trkpt><trkpt lat="44.779319380630845" lon="9.608898293053846"><ele>325.0</ele><time>2026-04-18T10:34:23Z</time></trkpt><trkpt lat="44.7794461110337" lon="9.608968666409227"><ele>325.0</ele><time>2026-04-18T10:34:24Z</time></trkpt><trkpt lat="44.779567754956" lon="9.609041977652291"><ele>325.25</ele><time>2026-04-18T10:34:25Z</time></trkpt><trkpt lat="44.77968912261989" lon="9.6091172670221"><ele>325.5</ele><time>2026-04-18T10:34:26Z</time></trkpt><trkpt lat="44.779820793479644" lon="9.609195204631845"><ele>325.75</ele><time>2026-04-18T10:34:27Z</time></trkpt><trkpt lat="44.779959041854035" lon="9.60927428090649"><ele>326.0</ele><time>2026-04-18T10:34:28Z</time></trkpt><trkpt lat="44.78010368739367" lon="9.609358153247689"><ele>325.75</ele><time>2026-04-18T10:34:29Z</time></trkpt><trkpt lat="44.78024825337271" lon="9.609444943157934"><ele>325.5</ele><time>2026-04-18T10:34:30Z</time></trkpt><trkpt lat="44.780384094042134" lon="9.60952408660027"><ele>325.25</ele><time>2026-04-18T10:34:31Z</time></trkpt><trkpt lat="44.780514987055746" lon="9.60959968254289"><ele>325.0</ele><time>2026-04-18T10:34:32Z</time></trkpt><trkpt lat="44.78064975033313" lon="9.609676568514137"><ele>325.0</ele><time>2026-04-18T10:34:33Z</time></trkpt><trkpt lat="44.78078873825376" lon="9.609754869812543"><ele>325.0</ele><time>2026-04-18T10:34:34Z</time></trkpt><trkpt lat="44.780932457301546" lon="9.609839006725474"><ele>325.0</ele><time>2026-04-18T10:34:35Z</time></trkpt><trkpt lat="44.78107853856897" lon="9.609924642640731"><ele>325.0</ele><time>2026-04-18T10:34:36Z</time></trkpt><trkpt lat="44.78121234198577" lon="9.610001818737869"><ele>325.0</ele><time>2026-04-18T10:34:37Z</time></trkpt><trkpt lat="44.781336732911164" lon="9.610079218871483"><ele>325.0</ele><time>2026-04-18T10:34:38Z</time></trkpt><trkpt lat="44.78145192906699" lon="9.610146212307107"><ele>325.0</ele><time>2026-04-18T10:34:39Z</time></trkpt><trkpt lat="44.78157198916448" lon="9.610216774340524"><ele>325.0</ele><time>2026-04-18T10:34:40Z</time></trkpt><trkpt lat="44.78169793386586" lon="9.610296090122047"><ele>325.0</ele><time>2026-04-18T10:34:41Z</time></trkpt><trkpt lat="44.78182496662162" lon="9.610361837660498"><ele>325.0</ele><time>2026-04-18T10:34:42Z</time></trkpt><trkpt lat="44.78195001252692" lon="9.610418610585885"><ele>325.0</ele><time>2026-04-18T10:34:43Z</time></trkpt><trkpt lat="44.78207872671893" lon="9.610451107608542"><ele>325.25</ele><time>2026-04-18T10:34:44Z</time></trkpt><trkpt lat="44.78220950562568" lon="9.610446506710542"><ele>325.5</ele><time>2026-04-18T10:34:45Z</time></trkpt><trkpt lat="44.78232964168716" lon="9.610400583854778"><ele>325.75</ele><time>2026-04-18T10:34:46Z</time></trkpt><trkpt lat="44.782434093842916" lon="9.610334551053658"><ele>326.0</ele><time>2026-04-18T10:34:47Z</time></trkpt><trkpt lat="44.782529160636436" lon="9.610242188302509"><ele>325.5</ele><time>2026-04-18T10:34:48Z</time></trkpt><trkpt lat="44.78262320460815" lon="9.610130164108414"><ele>325.0</ele><time>2026-04-18T10:34:49Z</time></trkpt><trkpt lat="44.78271503847059" lon="9.609992815259064"><ele>324.5</ele><time>2026-04-18T10:34:50Z</time></trkpt><trkpt lat="44.78282069567872" lon="9.60985969920641"><ele>324.0</ele><time>2026-04-18T10:34:51Z</time></trkpt><trkpt lat="44.782925116300085" lon="9.609726330487176"><ele>324.0</ele><time>2026-04-18T10:34:52Z</time></trkpt><trkpt lat="44.78302603557094" lon="9.609607421781552"><ele>324.0</ele><time>2026-04-18T10:34:53Z</time></trkpt><trkpt lat="44.783147789677166" lon="9.609480914131867"><ele>324.0</ele><time>2026-04-18T10:34:54Z</time></trkpt><trkpt lat="44.78328301593753" lon="9.60935825490461"><ele>324.0</ele><time>2026-04-18T10:34:55Z</time></trkpt><trkpt lat="44.78343029430259" lon="9.609240431583524"><ele>321.0</ele><time>2026-04-18T10:34:56Z</time></trkpt><trkpt lat="44.783574849272426" lon="9.609143380395327"><ele>318.0</ele><time>2026-04-18T10:34:57Z</time></trkpt><trkpt lat="44.78371454954283" lon="9.609071573841105"><ele>315.0</ele><time>2026-04-18T10:34:58Z</time></trkpt><trkpt lat="44.78385824704356" lon="9.609012992874295"><ele>315.0</ele><time>2026-04-18T10:34:59Z</time></trkpt><trkpt lat="44.78400951986702" lon="9.608960325514852"><ele>315.0</ele><time>2026-04-18T10:35:00Z</time></trkpt><trkpt lat="44.78417107064359" lon="9.608920902912969"><ele>315.0</ele><time>2026-04-18T10:35:01Z</time></trkpt><trkpt lat="44.784334012967506" lon="9.60888433539077"><ele>315.25</ele><time>2026-04-18T10:35:02Z</time></trkpt><trkpt lat="44.784481962017566" lon="9.60885006700357"><ele>315.5</ele><time>2026-04-18T10:35:03Z</time></trkpt><trkpt lat="44.784625506272555" lon="9.608816024872443"><ele>315.75</ele><time>2026-04-18T10:35:04Z</time></trkpt><trkpt lat="44.784763753372324" lon="9.608783293051891"><ele>316.0</ele><time>2026-04-18T10:35:05Z</time></trkpt><trkpt lat="44.78489739459813" lon="9.60875107044455"><ele>316.0</ele><time>2026-04-18T10:35:06Z</time></trkpt><trkpt lat="44.785031128772445" lon="9.608716803719245"><ele>316.0</ele><time>2026-04-18T10:35:07Z</time></trkpt><trkpt lat="44.78516536530243" lon="9.608684573995685"><ele>316.0</ele><time>2026-04-18T10:35:08Z</time></trkpt><trkpt lat="44.78530891207399" lon="9.608650189555428"><ele>316.0</ele><time>2026-04-18T10:35:09Z</time></trkpt><trkpt lat="44.7854635337549" lon="9.608607066573498"><ele>315.0</ele><time>2026-04-18T10:35:10Z</time></trkpt><trkpt lat="44.78562155769788" lon="9.608562898503008"><ele>314.0</ele><time>2026-04-18T10:35:11Z</time></trkpt><trkpt lat="44.785770635198304" lon="9.608521284671745"><ele>313.0</ele><time>2026-04-18T10:35:12Z</time></trkpt><trkpt lat="44.78595422097893" lon="9.60848679194169"><ele>313.0</ele><time>2026-04-18T10:35:13Z</time></trkpt><trkpt lat="44.78614880728535" lon="9.608436418221016"><ele>313.0</ele><time>2026-04-18T10:35:14Z</time></trkpt><trkpt lat="44.78633489908333" lon="9.608389282746323"><ele>313.0</ele><time>2026-04-18T10:35:15Z</time></trkpt><trkpt lat="44.78652614690942" lon="9.608333457162477"><ele>313.0</ele><time>2026-04-18T10:35:16Z</time></trkpt><trkpt lat="44.786689678527196" lon="9.608313272810848"><ele>313.0</ele><time>2026-04-18T10:35:17Z</time></trkpt><trkpt lat="44.786841274865445" lon="9.608288467846457"><ele>313.0</ele><time>2026-04-18T10:35:18Z</time></trkpt><trkpt lat="44.78699809595574" lon="9.608256064952487"><ele>311.3333333333333</ele><time>2026-04-18T10:35:19Z</time></trkpt><trkpt lat="44.787150847295095" lon="9.608218241056399"><ele>309.6666666666667</ele><time>2026-04-18T10:35:20Z</time></trkpt><trkpt lat="44.787290043727836" lon="9.608173120601322"><ele>308.0</ele><time>2026-04-18T10:35:21Z</time></trkpt><trkpt lat="44.78744203476332" lon="9.608137380361526"><ele>309.5</ele><time>2026-04-18T10:35:22Z</time></trkpt><trkpt lat="44.78781997313938" lon="9.608046329854579"><ele>311.0</ele><time>2026-04-18T10:35:23Z</time></trkpt><trkpt lat="44.78798459655249" lon="9.608001087643999"><ele>311.0</ele><time>2026-04-18T10:35:24Z</time></trkpt><trkpt lat="44.78816507163454" lon="9.60795240060661"><ele>311.0</ele><time>2026-04-18T10:35:25Z</time></trkpt><trkpt lat="44.7883553074132" lon="9.607900915252644"><ele>311.0</ele><time>2026-04-18T10:35:26Z</time></trkpt><trkpt lat="44.788555427702484" lon="9.607853502379381"><ele>310.0</ele><time>2026-04-18T10:35:27Z</time></trkpt><trkpt lat="44.78875974057555" lon="9.60779741529077"><ele>309.0</ele><time>2026-04-18T10:35:28Z</time></trkpt><trkpt lat="44.7889492382959" lon="9.607746888284883"><ele>308.0</ele><time>2026-04-18T10:35:29Z</time></trkpt><trkpt lat="44.78912734844984" lon="9.607696238732066"><ele>308.0</ele><time>2026-04-18T10:35:30Z</time></trkpt><trkpt lat="44.789305162617815" lon="9.607648843496351"><ele>308.0</ele><time>2026-04-18T10:35:31Z</time></trkpt><trkpt lat="44.78949095470578" lon="9.607604625873538"><ele>308.0</ele><time>2026-04-18T10:35:32Z</time></trkpt><trkpt lat="44.789678296663425" lon="9.60756005749215"><ele>308.33333333333337</ele><time>2026-04-18T10:35:33Z</time></trkpt><trkpt lat="44.78985281782435" lon="9.607512126288418"><ele>308.6666666666667</ele><time>2026-04-18T10:35:34Z</time></trkpt><trkpt lat="44.79001815627948" lon="9.607469283341555"><ele>309.0</ele><time>2026-04-18T10:35:35Z</time></trkpt><trkpt lat="44.790185322009236" lon="9.607428450219096"><ele>309.0</ele><time>2026-04-18T10:35:36Z</time></trkpt><trkpt lat="44.79035592146541" lon="9.607390511739116"><ele>309.0</ele><time>2026-04-18T10:35:37Z</time></trkpt><trkpt lat="44.79053546571904" lon="9.607338110087017"><ele>309.0</ele><time>2026-04-18T10:35:38Z</time></trkpt><trkpt lat="44.79070953177416" lon="9.607283469584399"><ele>309.0</ele><time>2026-04-18T10:35:39Z</time></trkpt><trkpt lat="44.79088228276858" lon="9.607233714439813"><ele>309.0</ele><time>2026-04-18T10:35:40Z</time></trkpt><trkpt lat="44.79106475360153" lon="9.607185916644681"><ele>309.0</ele><time>2026-04-18T10:35:41Z</time></trkpt><trkpt lat="44.79125579040537" lon="9.607131664918006"><ele>309.0</ele><time>2026-04-18T10:35:42Z</time></trkpt><trkpt lat="44.791452917064" lon="9.607069727981196"><ele>309.0</ele><time>2026-04-18T10:35:43Z</time></trkpt><trkpt lat="44.7916544484982" lon="9.60699804062238"><ele>309.0</ele><time>2026-04-18T10:35:44Z</time></trkpt><trkpt lat="44.79186447904056" lon="9.606925184198067"><ele>308.6666666666667</ele><time>2026-04-18T10:35:45Z</time></trkpt><trkpt lat="44.79208928433906" lon="9.606845416770975"><ele>308.33333333333337</ele><time>2026-04-18T10:35:46Z</time></trkpt><trkpt lat="44.792300528125416" lon="9.60677351242265"><ele>308.0</ele><time>2026-04-18T10:35:47Z</time></trkpt><trkpt lat="44.79248330221226" lon="9.606708584871486"><ele>308.0</ele><time>2026-04-18T10:35:48Z</time></trkpt><trkpt lat="44.79266655162596" lon="9.606635024585431"><ele>308.0</ele><time>2026-04-18T10:35:49Z</time></trkpt><trkpt lat="44.79287105135029" lon="9.606560369057679"><ele>308.0</ele><time>2026-04-18T10:35:50Z</time></trkpt><trkpt lat="44.79306697915084" lon="9.606496870759313"><ele>310.6666666666667</ele><time>2026-04-18T10:35:51Z</time></trkpt><trkpt lat="44.793234655889634" lon="9.606428489072698"><ele>313.3333333333333</ele><time>2026-04-18T10:35:51.999Z</time></trkpt><trkpt lat="44.79341300541483" lon="9.606358597384455"><ele>316.0</ele><time>2026-04-18T10:35:52.999Z</time></trkpt><trkpt lat="44.79360145434944" lon="9.606299419501255"><ele>317.3333333333333</ele><time>2026-04-18T10:35:53.999Z</time></trkpt><trkpt lat="44.79379305429297" lon="9.60625642773984"><ele>318.6666666666667</ele><time>2026-04-18T10:35:54.999Z</time></trkpt><trkpt lat="44.793986761888966" lon="9.606237158538033"><ele>320.0</ele><time>2026-04-18T10:35:55.999Z</time></trkpt><trkpt lat="44.7941728633047" lon="9.606238651319103"><ele>321.0</ele><time>2026-04-18T10:35:56.999Z</time></trkpt><trkpt lat="44.79434815585536" lon="9.606241976678813"><ele>322.0</ele><time>2026-04-18T10:35:57.999Z</time></trkpt><trkpt lat="44.79453395491005" lon="9.60625998927975"><ele>323.0</ele><time>2026-04-18T10:35:58.999Z</time></trkpt><trkpt lat="44.79472752572642" lon="9.606303715927151"><ele>323.0</ele><time>2026-04-18T10:35:59.999Z</time></trkpt><trkpt lat="44.794920194549405" lon="9.60636562977109"><ele>323.0</ele><time>2026-04-18T10:36:00.999Z</time></trkpt><trkpt lat="44.795100126322204" lon="9.606441154017764"><ele>323.0</ele><time>2026-04-18T10:36:01.999Z</time></trkpt><trkpt lat="44.79526399155313" lon="9.60652182798247"><ele>321.0</ele><time>2026-04-18T10:36:02.999Z</time></trkpt><trkpt lat="44.79541866759025" lon="9.606610895414242"><ele>319.0</ele><time>2026-04-18T10:36:03.999Z</time></trkpt><trkpt lat="44.795571765122" lon="9.606710969918051"><ele>317.0</ele><time>2026-04-18T10:36:04.999Z</time></trkpt><trkpt lat="44.79572967105459" lon="9.606826582581649"><ele>317.0</ele><time>2026-04-18T10:36:05.999Z</time></trkpt><trkpt lat="44.79589264204827" lon="9.60695206632032"><ele>317.0</ele><time>2026-04-18T10:36:06.999Z</time></trkpt><trkpt lat="44.796055762120616" lon="9.607082102349528"><ele>317.0</ele><time>2026-04-18T10:36:07.999Z</time></trkpt><trkpt lat="44.79620717258276" lon="9.60720287605405"><ele>314.6666666666667</ele><time>2026-04-18T10:36:08.999Z</time></trkpt><trkpt lat="44.79635644069339" lon="9.607317771627145"><ele>312.3333333333333</ele><time>2026-04-18T10:36:09.999Z</time></trkpt><trkpt lat="44.796516763143565" lon="9.60743805712496"><ele>310.0</ele><time>2026-04-18T10:36:10.999Z</time></trkpt><trkpt lat="44.79668600953386" lon="9.607555099929156"><ele>308.3333333333333</ele><time>2026-04-18T10:36:11.999Z</time></trkpt><trkpt lat="44.796866823262285" lon="9.607661042624985"><ele>306.6666666666667</ele><time>2026-04-18T10:36:12.999Z</time></trkpt><trkpt lat="44.79705588355732" lon="9.607744712152552"><ele>305.0</ele><time>2026-04-18T10:36:13.999Z</time></trkpt><trkpt lat="44.7972542042005" lon="9.607804942643694"><ele>309.0</ele><time>2026-04-18T10:36:14.999Z</time></trkpt><trkpt lat="44.79745106569689" lon="9.607845619686424"><ele>313.0</ele><time>2026-04-18T10:36:15.999Z</time></trkpt><trkpt lat="44.79765108040291" lon="9.607853890306195"><ele>317.0</ele><time>2026-04-18T10:36:16.999Z</time></trkpt><trkpt lat="44.79784815849629" lon="9.607842253574551"><ele>313.33333333333337</ele><time>2026-04-18T10:36:17.999Z</time></trkpt><trkpt lat="44.79805002917685" lon="9.607811917998246"><ele>309.6666666666667</ele><time>2026-04-18T10:36:18.999Z</time></trkpt><trkpt lat="44.79824823387107" lon="9.607778948217916"><ele>306.0</ele><time>2026-04-18T10:36:19.999Z</time></trkpt><trkpt lat="44.798442186149146" lon="9.607748863688979"><ele>306.0</ele><time>2026-04-18T10:36:21Z</time></trkpt><trkpt lat="44.7986282595419" lon="9.607720905083365"><ele>306.0</ele><time>2026-04-18T10:36:22Z</time></trkpt><trkpt lat="44.79881653370553" lon="9.607697626456291"><ele>306.0</ele><time>2026-04-18T10:36:23Z</time></trkpt><trkpt lat="44.799013145904" lon="9.607689143844011"><ele>306.0</ele><time>2026-04-18T10:36:24Z</time></trkpt><trkpt lat="44.799194577928475" lon="9.607688282208834"><ele>306.0</ele><time>2026-04-18T10:36:25Z</time></trkpt><trkpt lat="44.79936780914423" lon="9.60772170166729"><ele>306.0</ele><time>2026-04-18T10:36:26Z</time></trkpt><trkpt lat="44.79955196780246" lon="9.607767452285128"><ele>305.0</ele><time>2026-04-18T10:36:27Z</time></trkpt><trkpt lat="44.79974189436343" lon="9.607826323120051"><ele>304.0</ele><time>2026-04-18T10:36:28Z</time></trkpt><trkpt lat="44.799925314723104" lon="9.607896433746994"><ele>303.0</ele><time>2026-04-18T10:36:29Z</time></trkpt><trkpt lat="44.80011342935165" lon="9.607986502306085"><ele>302.6666666666667</ele><time>2026-04-18T10:36:30Z</time></trkpt><trkpt lat="44.80029942467928" lon="9.608100679995188"><ele>302.33333333333337</ele><time>2026-04-18T10:36:31Z</time></trkpt><trkpt lat="44.8004813816141" lon="9.608223906969823"><ele>302.0</ele><time>2026-04-18T10:36:32Z</time></trkpt><trkpt lat="44.800662068190974" lon="9.608360753057854"><ele>302.0</ele><time>2026-04-18T10:36:33Z</time></trkpt><trkpt lat="44.80083112852697" lon="9.608513157668552"><ele>302.0</ele><time>2026-04-18T10:36:34Z</time></trkpt><trkpt lat="44.800996295895644" lon="9.608673874747916"><ele>302.0</ele><time>2026-04-18T10:36:35Z</time></trkpt><trkpt lat="44.80116064597035" lon="9.608853633310815"><ele>299.33333333333337</ele><time>2026-04-18T10:36:36Z</time></trkpt><trkpt lat="44.801317051622306" lon="9.609052974174205"><ele>296.6666666666667</ele><time>2026-04-18T10:36:37Z</time></trkpt><trkpt lat="44.801468781908866" lon="9.609266669600311"><ele>294.0</ele><time>2026-04-18T10:36:38Z</time></trkpt><trkpt lat="44.80161371888623" lon="9.609489798669816"><ele>292.3333333333333</ele><time>2026-04-18T10:36:39Z</time></trkpt><trkpt lat="44.80174484476583" lon="9.609713907665096"><ele>290.66666666666663</ele><time>2026-04-18T10:36:40Z</time></trkpt><trkpt lat="44.80186663797759" lon="9.609937464829803"><ele>289.0</ele><time>2026-04-18T10:36:41Z</time></trkpt><trkpt lat="44.801984490160216" lon="9.610159667791558"><ele>290.3333333333333</ele><time>2026-04-18T10:36:42Z</time></trkpt><trkpt lat="44.8020981651551" lon="9.610363338605037"><ele>291.6666666666667</ele><time>2026-04-18T10:36:43Z</time></trkpt><trkpt lat="44.802211328358496" lon="9.610569337339562"><ele>293.0</ele><time>2026-04-18T10:36:44Z</time></trkpt><trkpt lat="44.802330658425724" lon="9.61078134847079"><ele>293.0</ele><time>2026-04-18T10:36:45Z</time></trkpt><trkpt lat="44.802456219484384" lon="9.610994483726172"><ele>293.0</ele><time>2026-04-18T10:36:46Z</time></trkpt><trkpt lat="44.80258390625954" lon="9.6112208158728"><ele>293.0</ele><time>2026-04-18T10:36:47Z</time></trkpt><trkpt lat="44.802715613868905" lon="9.61144691304267"><ele>292.0</ele><time>2026-04-18T10:36:48Z</time></trkpt><trkpt lat="44.80285843923657" lon="9.611662529615165"><ele>291.0</ele><time>2026-04-18T10:36:49Z</time></trkpt><trkpt lat="44.80300747338455" lon="9.611862468840544"><ele>290.0</ele><time>2026-04-18T10:36:50Z</time></trkpt><trkpt lat="44.80315653370327" lon="9.61204135837948"><ele>289.6666666666667</ele><time>2026-04-18T10:36:51Z</time></trkpt><trkpt lat="44.80330921723503" lon="9.612208059505813"><ele>289.3333333333333</ele><time>2026-04-18T10:36:52Z</time></trkpt><trkpt lat="44.80347159634144" lon="9.612371547560098"><ele>289.0</ele><time>2026-04-18T10:36:53Z</time></trkpt><trkpt lat="44.803636525209235" lon="9.612526745772449"><ele>289.0</ele><time>2026-04-18T10:36:54Z</time></trkpt><trkpt lat="44.803795803630045" lon="9.612669058988198"><ele>289.0</ele><time>2026-04-18T10:36:55Z</time></trkpt><trkpt lat="44.80395076014803" lon="9.612789604980652"><ele>289.0</ele><time>2026-04-18T10:36:56Z</time></trkpt><trkpt lat="44.80410341954666" lon="9.61289199442214"><ele>289.66666666666663</ele><time>2026-04-18T10:36:57Z</time></trkpt><trkpt lat="44.80425952964782" lon="9.612987390786541"><ele>290.3333333333333</ele><time>2026-04-18T10:36:58Z</time></trkpt><trkpt lat="44.80441899503911" lon="9.613081628777822"><ele>291.0</ele><time>2026-04-18T10:36:59Z</time></trkpt><trkpt lat="44.804594158824884" lon="9.613174723303217"><ele>291.0</ele><time>2026-04-18T10:37:00Z</time></trkpt><trkpt lat="44.80477634560634" lon="9.613255124248258"><ele>291.0</ele><time>2026-04-18T10:37:01Z</time></trkpt><trkpt lat="44.80496487088382" lon="9.613325383637825"><ele>291.0</ele><time>2026-04-18T10:37:02Z</time></trkpt><trkpt lat="44.80515688223859" lon="9.613383693818058"><ele>289.6666666666667</ele><time>2026-04-18T10:37:03Z</time></trkpt><trkpt lat="44.80535863498224" lon="9.613435592956364"><ele>288.33333333333337</ele><time>2026-04-18T10:37:04Z</time></trkpt><trkpt lat="44.80556020861111" lon="9.61348351926711"><ele>287.0</ele><time>2026-04-18T10:37:05Z</time></trkpt><trkpt lat="44.80576841339081" lon="9.61353021276061"><ele>287.0</ele><time>2026-04-18T10:37:06Z</time></trkpt><trkpt lat="44.80597562794555" lon="9.613573601384507"><ele>287.0</ele><time>2026-04-18T10:37:07Z</time></trkpt><trkpt lat="44.80616535249319" lon="9.613620684287072"><ele>287.0</ele><time>2026-04-18T10:37:08Z</time></trkpt><trkpt lat="44.80634358522638" lon="9.613660929594579"><ele>289.33333333333337</ele><time>2026-04-18T10:37:09Z</time></trkpt><trkpt lat="44.80651858877102" lon="9.613704870181913"><ele>291.6666666666667</ele><time>2026-04-18T10:37:10Z</time></trkpt><trkpt lat="44.8066971836912" lon="9.613745101262678"><ele>294.0</ele><time>2026-04-18T10:37:11Z</time></trkpt><trkpt lat="44.80687195474625" lon="9.613784298150769"><ele>294.0</ele><time>2026-04-18T10:37:12Z</time></trkpt><trkpt lat="44.80703377619381" lon="9.613820109762372"><ele>294.0</ele><time>2026-04-18T10:37:13Z</time></trkpt><trkpt lat="44.80718339477522" lon="9.613854956948558"><ele>294.0</ele><time>2026-04-18T10:37:14Z</time></trkpt><trkpt lat="44.80732625658656" lon="9.613886476100376"><ele>294.0</ele><time>2026-04-18T10:37:15Z</time></trkpt><trkpt lat="44.80746622607161" lon="9.613919797809968"><ele>294.0</ele><time>2026-04-18T10:37:16Z</time></trkpt><trkpt lat="44.8076091373002" lon="9.613949978369794"><ele>294.0</ele><time>2026-04-18T10:37:17Z</time></trkpt><trkpt lat="44.807760687875415" lon="9.613985312900057"><ele>294.0</ele><time>2026-04-18T10:37:18Z</time></trkpt><trkpt lat="44.80791898382306" lon="9.614023068805276"><ele>291.3333333333333</ele><time>2026-04-18T10:37:19Z</time></trkpt><trkpt lat="44.80807402440815" lon="9.61406309606165"><ele>288.66666666666663</ele><time>2026-04-18T10:37:20Z</time></trkpt><trkpt lat="44.80821676371388" lon="9.614095518158575"><ele>286.0</ele><time>2026-04-18T10:37:21Z</time></trkpt><trkpt lat="44.80836259538516" lon="9.614128168104305"><ele>285.66666666666663</ele><time>2026-04-18T10:37:22Z</time></trkpt><trkpt lat="44.808509940458634" lon="9.61417277664851"><ele>285.3333333333333</ele><time>2026-04-18T10:37:23Z</time></trkpt><trkpt lat="44.80865713699724" lon="9.614207441020655"><ele>285.0</ele><time>2026-04-18T10:37:24Z</time></trkpt><trkpt lat="44.808807261809726" lon="9.614238288730308"><ele>285.0</ele><time>2026-04-18T10:37:25Z</time></trkpt><trkpt lat="44.80895484993844" lon="9.614268142116872"><ele>285.0</ele><time>2026-04-18T10:37:26Z</time></trkpt><trkpt lat="44.8091065134486" lon="9.614302714517022"><ele>285.0</ele><time>2026-04-18T10:37:27Z</time></trkpt><trkpt lat="44.80925524895701" lon="9.614336159823276"><ele>284.6666666666667</ele><time>2026-04-18T10:37:28Z</time></trkpt><trkpt lat="44.80941460662187" lon="9.61437785085745"><ele>284.33333333333337</ele><time>2026-04-18T10:37:29Z</time></trkpt><trkpt lat="44.80958676497375" lon="9.614415983696821"><ele>284.0</ele><time>2026-04-18T10:37:30Z</time></trkpt><trkpt lat="44.80976100770184" lon="9.61445962302623"><ele>284.33333333333337</ele><time>2026-04-18T10:37:31Z</time></trkpt><trkpt lat="44.80994592171026" lon="9.614507873526204"><ele>284.6666666666667</ele><time>2026-04-18T10:37:32Z</time></trkpt><trkpt lat="44.810113941529025" lon="9.614560942739889"><ele>285.0</ele><time>2026-04-18T10:37:33Z</time></trkpt><trkpt lat="44.810281550234535" lon="9.614623660728794"><ele>285.0</ele><time>2026-04-18T10:37:34Z</time></trkpt><trkpt lat="44.810460524507285" lon="9.614697987650542"><ele>285.0</ele><time>2026-04-18T10:37:35Z</time></trkpt><trkpt lat="44.81063304302983" lon="9.614792530404483"><ele>285.0</ele><time>2026-04-18T10:37:36Z</time></trkpt><trkpt lat="44.81079241104123" lon="9.61490689595171"><ele>285.0</ele><time>2026-04-18T10:37:37Z</time></trkpt><trkpt lat="44.81097159072708" lon="9.61501926723785"><ele>285.0</ele><time>2026-04-18T10:37:38Z</time></trkpt><trkpt lat="44.81114546800733" lon="9.615144633391308"><ele>285.0</ele><time>2026-04-18T10:37:39Z</time></trkpt><trkpt lat="44.811326543411134" lon="9.61527034871154"><ele>286.3333333333333</ele><time>2026-04-18T10:37:40Z</time></trkpt><trkpt lat="44.81150050710099" lon="9.615397542767935"><ele>287.66666666666663</ele><time>2026-04-18T10:37:41Z</time></trkpt><trkpt lat="44.81166680660614" lon="9.61551948865757"><ele>289.0</ele><time>2026-04-18T10:37:42Z</time></trkpt><trkpt lat="44.81183841947149" lon="9.615641860884816"><ele>286.0</ele><time>2026-04-18T10:37:43Z</time></trkpt><trkpt lat="44.812011691298245" lon="9.615763915530263"><ele>283.0</ele><time>2026-04-18T10:37:44Z</time></trkpt><trkpt lat="44.81219316360134" lon="9.615886053461326"><ele>280.0</ele><time>2026-04-18T10:37:45Z</time></trkpt><trkpt lat="44.81236109092817" lon="9.616008695335204"><ele>280.0</ele><time>2026-04-18T10:37:45.999Z</time></trkpt><trkpt lat="44.812525893454094" lon="9.616129185267685"><ele>280.0</ele><time>2026-04-18T10:37:46.999Z</time></trkpt><trkpt lat="44.81268743365126" lon="9.616243941274824"><ele>280.0</ele><time>2026-04-18T10:37:47.999Z</time></trkpt><trkpt lat="44.81284894919324" lon="9.61635706537173"><ele>279.0</ele><time>2026-04-18T10:37:48.999Z</time></trkpt><trkpt lat="44.81301374230882" lon="9.616481525210142"><ele>278.0</ele><time>2026-04-18T10:37:49.999Z</time></trkpt><trkpt lat="44.813180251093996" lon="9.616608453169334"><ele>277.0</ele><time>2026-04-18T10:37:50.999Z</time></trkpt><trkpt lat="44.81334820433866" lon="9.616733708595158"><ele>278.3333333333333</ele><time>2026-04-18T10:37:51.999Z</time></trkpt><trkpt lat="44.81352444931342" lon="9.61685592366389"><ele>279.6666666666667</ele><time>2026-04-18T10:37:52.999Z</time></trkpt><trkpt lat="44.8137010850262" lon="9.616978881851004"><ele>281.0</ele><time>2026-04-18T10:37:53.999Z</time></trkpt><trkpt lat="44.813878939088056" lon="9.617101459075627"><ele>281.0</ele><time>2026-04-18T10:37:54.999Z</time></trkpt><trkpt lat="44.8140588540692" lon="9.617228089501971"><ele>281.0</ele><time>2026-04-18T10:37:55.999Z</time></trkpt><trkpt lat="44.81424108849812" lon="9.617349238298683"><ele>281.0</ele><time>2026-04-18T10:37:56.999Z</time></trkpt><trkpt lat="44.814420550898795" lon="9.617464634234928"><ele>278.6666666666667</ele><time>2026-04-18T10:37:57.999Z</time></trkpt><trkpt lat="44.81460381609734" lon="9.617574519132127"><ele>276.3333333333333</ele><time>2026-04-18T10:37:58.999Z</time></trkpt><trkpt lat="44.814788900618154" lon="9.61767779266747"><ele>274.0</ele><time>2026-04-18T10:37:59.999Z</time></trkpt><trkpt lat="44.81497419161105" lon="9.617775935962191"><ele>277.0</ele><time>2026-04-18T10:38:00.999Z</time></trkpt><trkpt lat="44.815158091449156" lon="9.617867862425244"><ele>280.0</ele><time>2026-04-18T10:38:01.999Z</time></trkpt><trkpt lat="44.81534577480832" lon="9.617952119945558"><ele>283.0</ele><time>2026-04-18T10:38:02.999Z</time></trkpt><trkpt lat="44.81553741196164" lon="9.618028545088892"><ele>283.0</ele><time>2026-04-18T10:38:03.999Z</time></trkpt><trkpt lat="44.81572128942168" lon="9.618098053343656"><ele>283.0</ele><time>2026-04-18T10:38:04.999Z</time></trkpt><trkpt lat="44.81590527930113" lon="9.618167379329883"><ele>283.0</ele><time>2026-04-18T10:38:05.999Z</time></trkpt><trkpt lat="44.81608581094047" lon="9.618235313251285"><ele>281.0</ele><time>2026-04-18T10:38:06.999Z</time></trkpt><trkpt lat="44.81626559636622" lon="9.618301534621086"><ele>279.0</ele><time>2026-04-18T10:38:07.999Z</time></trkpt><trkpt lat="44.816445993252266" lon="9.618369584325514"><ele>277.0</ele><time>2026-04-18T10:38:08.999Z</time></trkpt><trkpt lat="44.81662382066425" lon="9.618435557249503"><ele>277.0</ele><time>2026-04-18T10:38:09.999Z</time></trkpt><trkpt lat="44.81679396110835" lon="9.618498037982224"><ele>277.0</ele><time>2026-04-18T10:38:10.999Z</time></trkpt><trkpt lat="44.816963700980686" lon="9.61856310935183"><ele>277.0</ele><time>2026-04-18T10:38:11.999Z</time></trkpt><trkpt lat="44.817133177594904" lon="9.618629004114498"><ele>277.66666666666663</ele><time>2026-04-18T10:38:12.999Z</time></trkpt><trkpt lat="44.817303079474385" lon="9.61869589040312"><ele>278.3333333333333</ele><time>2026-04-18T10:38:13.999Z</time></trkpt><trkpt lat="44.81747750537977" lon="9.618763348152541"><ele>279.0</ele><time>2026-04-18T10:38:14.999Z</time></trkpt><trkpt lat="44.817658889828614" lon="9.61882750652041"><ele>279.0</ele><time>2026-04-18T10:38:15.999Z</time></trkpt><trkpt lat="44.817842300989625" lon="9.618895075262204"><ele>279.0</ele><time>2026-04-18T10:38:16.999Z</time></trkpt><trkpt lat="44.818028545407245" lon="9.618964250060191"><ele>279.0</ele><time>2026-04-18T10:38:17.999Z</time></trkpt><trkpt lat="44.81821612167234" lon="9.619032155789176"><ele>279.0</ele><time>2026-04-18T10:38:18.999Z</time></trkpt><trkpt lat="44.81840474345063" lon="9.6191025209069"><ele>279.0</ele><time>2026-04-18T10:38:19.999Z</time></trkpt><trkpt lat="44.81859650743665" lon="9.619172720826949"><ele>279.0</ele><time>2026-04-18T10:38:20.999Z</time></trkpt><trkpt lat="44.81879051177587" lon="9.619245421352856"><ele>276.6666666666667</ele><time>2026-04-18T10:38:21.999Z</time></trkpt><trkpt lat="44.818987911327454" lon="9.619319277293355"><ele>274.33333333333337</ele><time>2026-04-18T10:38:22.999Z</time></trkpt><trkpt lat="44.81918695511793" lon="9.61939331834102"><ele>272.0</ele><time>2026-04-18T10:38:23.999Z</time></trkpt><trkpt lat="44.81937481834695" lon="9.619457540941081"><ele>273.33333333333337</ele><time>2026-04-18T10:38:24.999Z</time></trkpt><trkpt lat="44.81955687082121" lon="9.619521053524723"><ele>274.6666666666667</ele><time>2026-04-18T10:38:25.999Z</time></trkpt><trkpt lat="44.81973425422227" lon="9.619588091988145"><ele>276.0</ele><time>2026-04-18T10:38:27Z</time></trkpt><trkpt lat="44.819902468471945" lon="9.619653399624248"><ele>276.0</ele><time>2026-04-18T10:38:28Z</time></trkpt><trkpt lat="44.82005870831788" lon="9.619710889686885"><ele>276.0</ele><time>2026-04-18T10:38:29Z</time></trkpt><trkpt lat="44.82022124798675" lon="9.61976754726389"><ele>276.0</ele><time>2026-04-18T10:38:30Z</time></trkpt><trkpt lat="44.820386176808505" lon="9.619822780766269"><ele>275.25</ele><time>2026-04-18T10:38:31Z</time></trkpt><trkpt lat="44.82053440421337" lon="9.619873378735623"><ele>274.5</ele><time>2026-04-18T10:38:32Z</time></trkpt><trkpt lat="44.820673175359275" lon="9.61991336822148"><ele>273.75</ele><time>2026-04-18T10:38:33Z</time></trkpt><trkpt lat="44.82080228889706" lon="9.619944639466672"><ele>273.0</ele><time>2026-04-18T10:38:34Z</time></trkpt><trkpt lat="44.82093268181348" lon="9.61996960568066"><ele>272.0</ele><time>2026-04-18T10:38:35Z</time></trkpt><trkpt lat="44.821075052457374" lon="9.61999239843012"><ele>271.0</ele><time>2026-04-18T10:38:36Z</time></trkpt><trkpt lat="44.82123205172912" lon="9.620011014898013"><ele>270.0</ele><time>2026-04-18T10:38:37Z</time></trkpt><trkpt lat="44.82139782342882" lon="9.620027001527381"><ele>270.0</ele><time>2026-04-18T10:38:38Z</time></trkpt><trkpt lat="44.821567205228895" lon="9.620032254060087"><ele>270.0</ele><time>2026-04-18T10:38:39Z</time></trkpt><trkpt lat="44.82174716264894" lon="9.62003393492305"><ele>270.0</ele><time>2026-04-18T10:38:40Z</time></trkpt><trkpt lat="44.821932313034935" lon="9.620051036297342"><ele>270.3333333333333</ele><time>2026-04-18T10:38:41Z</time></trkpt><trkpt lat="44.822109970882366" lon="9.620053497751513"><ele>270.66666666666663</ele><time>2026-04-18T10:38:42Z</time></trkpt><trkpt lat="44.8222788245886" lon="9.620053673115883"><ele>271.0</ele><time>2026-04-18T10:38:43Z</time></trkpt><trkpt lat="44.82243382876061" lon="9.620052512179141"><ele>271.0</ele><time>2026-04-18T10:38:44Z</time></trkpt><trkpt lat="44.82258952811918" lon="9.62005601298965"><ele>271.0</ele><time>2026-04-18T10:38:45Z</time></trkpt><trkpt lat="44.822762290434824" lon="9.620057539629641"><ele>271.0</ele><time>2026-04-18T10:38:46Z</time></trkpt><trkpt lat="44.82295186199774" lon="9.62006294697464"><ele>269.66666666666663</ele><time>2026-04-18T10:38:47Z</time></trkpt><trkpt lat="44.823142907709055" lon="9.620069610247874"><ele>268.3333333333333</ele><time>2026-04-18T10:38:48Z</time></trkpt><trkpt lat="44.823336571671504" lon="9.62008701323982"><ele>267.0</ele><time>2026-04-18T10:38:49Z</time></trkpt><trkpt lat="44.823540063017084" lon="9.620102002243511"><ele>266.3333333333333</ele><time>2026-04-18T10:38:50Z</time></trkpt><trkpt lat="44.823744606780906" lon="9.620107768755853"><ele>265.66666666666663</ele><time>2026-04-18T10:38:51Z</time></trkpt><trkpt lat="44.82393103650627" lon="9.620116183847294"><ele>265.0</ele><time>2026-04-18T10:38:52Z</time></trkpt><trkpt lat="44.82410303133144" lon="9.620117363825111"><ele>265.0</ele><time>2026-04-18T10:38:53Z</time></trkpt><trkpt lat="44.82426511351523" lon="9.620123347086409"><ele>265.0</ele><time>2026-04-18T10:38:54Z</time></trkpt><trkpt lat="44.82442127765531" lon="9.620125573515264"><ele>265.0</ele><time>2026-04-18T10:38:55Z</time></trkpt><trkpt lat="44.82457817665023" lon="9.620130365241067"><ele>265.3333333333333</ele><time>2026-04-18T10:38:56Z</time></trkpt><trkpt lat="44.824735067861425" lon="9.620133073311536"><ele>265.6666666666667</ele><time>2026-04-18T10:38:57Z</time></trkpt><trkpt lat="44.824889669238964" lon="9.620134504956798"><ele>266.0</ele><time>2026-04-18T10:38:58Z</time></trkpt><trkpt lat="44.82504817868777" lon="9.620137970428868"><ele>266.0</ele><time>2026-04-18T10:38:59Z</time></trkpt><trkpt lat="44.825212291429075" lon="9.620139890698741"><ele>266.0</ele><time>2026-04-18T10:39:00Z</time></trkpt><trkpt lat="44.82538277251526" lon="9.620132413447687"><ele>266.0</ele><time>2026-04-18T10:39:01Z</time></trkpt><trkpt lat="44.825556545294376" lon="9.620114062869755"><ele>266.0</ele><time>2026-04-18T10:39:02Z</time></trkpt><trkpt lat="44.82571487632621" lon="9.620088476883806"><ele>266.0</ele><time>2026-04-18T10:39:03Z</time></trkpt><trkpt lat="44.82587806471258" lon="9.620061543658265"><ele>266.0</ele><time>2026-04-18T10:39:04Z</time></trkpt><trkpt lat="44.82604427494344" lon="9.620024788932016"><ele>269.0</ele><time>2026-04-18T10:39:05Z</time></trkpt><trkpt lat="44.826217134142674" lon="9.619975746472228"><ele>272.0</ele><time>2026-04-18T10:39:06Z</time></trkpt><trkpt lat="44.826397116663365" lon="9.619919319377477"><ele>275.0</ele><time>2026-04-18T10:39:07Z</time></trkpt><trkpt lat="44.826578477806095" lon="9.619848317549435"><ele>275.0</ele><time>2026-04-18T10:39:08Z</time></trkpt><trkpt lat="44.82674744735204" lon="9.61977265598333"><ele>275.0</ele><time>2026-04-18T10:39:09Z</time></trkpt><trkpt lat="44.82690564361886" lon="9.619689061777592"><ele>275.0</ele><time>2026-04-18T10:39:10Z</time></trkpt><trkpt lat="44.827060706857594" lon="9.61959108329059"><ele>273.0</ele><time>2026-04-18T10:39:11Z</time></trkpt><trkpt lat="44.827220070228314" lon="9.619490840160912"><ele>271.0</ele><time>2026-04-18T10:39:12Z</time></trkpt><trkpt lat="44.82738268684463" lon="9.619382186258413"><ele>269.0</ele><time>2026-04-18T10:39:13Z</time></trkpt><trkpt lat="44.82754750284007" lon="9.619257820408746"><ele>274.33333333333337</ele><time>2026-04-18T10:39:14Z</time></trkpt><trkpt lat="44.82770636330565" lon="9.619117542588025"><ele>279.6666666666667</ele><time>2026-04-18T10:39:15Z</time></trkpt><trkpt lat="44.827866104718794" lon="9.618968615683047"><ele>285.0</ele><time>2026-04-18T10:39:16Z</time></trkpt><trkpt lat="44.82802427879693" lon="9.618819434264552"><ele>285.0</ele><time>2026-04-18T10:39:17Z</time></trkpt><trkpt lat="44.82817592344602" lon="9.618665516298186"><ele>285.0</ele><time>2026-04-18T10:39:18Z</time></trkpt><trkpt lat="44.82832751806623" lon="9.618506743111897"><ele>285.0</ele><time>2026-04-18T10:39:19Z</time></trkpt><trkpt lat="44.82848057515264" lon="9.618347907068163"><ele>287.0</ele><time>2026-04-18T10:39:20Z</time></trkpt><trkpt lat="44.8286344557041" lon="9.618191251175752"><ele>289.0</ele><time>2026-04-18T10:39:21Z</time></trkpt><trkpt lat="44.82878583761277" lon="9.618040604073812"><ele>291.0</ele><time>2026-04-18T10:39:22Z</time></trkpt><trkpt lat="44.82893499123183" lon="9.617900556005546"><ele>286.0</ele><time>2026-04-18T10:39:23Z</time></trkpt><trkpt lat="44.82908705307484" lon="9.617769485682988"><ele>281.0</ele><time>2026-04-18T10:39:24Z</time></trkpt><trkpt lat="44.829243229106325" lon="9.617642562841931"><ele>276.0</ele><time>2026-04-18T10:39:25Z</time></trkpt><trkpt lat="44.82940693201689" lon="9.617527565763783"><ele>276.0</ele><time>2026-04-18T10:39:26Z</time></trkpt><trkpt lat="44.82957951974534" lon="9.617422091467539"><ele>276.0</ele><time>2026-04-18T10:39:27Z</time></trkpt><trkpt lat="44.82975926148731" lon="9.617328474445905"><ele>276.0</ele><time>2026-04-18T10:39:28Z</time></trkpt><trkpt lat="44.82994890836452" lon="9.61724755645887"><ele>276.0</ele><time>2026-04-18T10:39:29Z</time></trkpt><trkpt lat="44.830136203146516" lon="9.617183125759773"><ele>276.0</ele><time>2026-04-18T10:39:30Z</time></trkpt><trkpt lat="44.83031899142691" lon="9.617132513088531"><ele>276.0</ele><time>2026-04-18T10:39:31Z</time></trkpt><trkpt lat="44.83050892821631" lon="9.617084341104311"><ele>276.3333333333333</ele><time>2026-04-18T10:39:32Z</time></trkpt><trkpt lat="44.83070803637698" lon="9.617054629890115"><ele>276.66666666666663</ele><time>2026-04-18T10:39:33Z</time></trkpt><trkpt lat="44.830916180398" lon="9.617034576830207"><ele>277.0</ele><time>2026-04-18T10:39:34Z</time></trkpt><trkpt lat="44.83113102281427" lon="9.61702406901802"><ele>277.0</ele><time>2026-04-18T10:39:35Z</time></trkpt><trkpt lat="44.83133887901248" lon="9.6170135701996"><ele>277.0</ele><time>2026-04-18T10:39:36Z</time></trkpt><trkpt lat="44.83151539460266" lon="9.617004231486623"><ele>277.0</ele><time>2026-04-18T10:39:37Z</time></trkpt><trkpt lat="44.83169137127845" lon="9.61698713435038"><ele>272.0</ele><time>2026-04-18T10:39:38Z</time></trkpt><trkpt lat="44.83184985420898" lon="9.616971315360225"><ele>267.0</ele><time>2026-04-18T10:39:39Z</time></trkpt><trkpt lat="44.83201093785093" lon="9.61696276730837"><ele>262.0</ele><time>2026-04-18T10:39:39.999Z</time></trkpt><trkpt lat="44.832177509013164" lon="9.616940029136096"><ele>262.0</ele><time>2026-04-18T10:39:40.999Z</time></trkpt><trkpt lat="44.832343507968396" lon="9.616913765568585"><ele>262.0</ele><time>2026-04-18T10:39:41.999Z</time></trkpt><trkpt lat="44.83251326460568" lon="9.616855927970482"><ele>262.0</ele><time>2026-04-18T10:39:42.999Z</time></trkpt><trkpt lat="44.83268525223051" lon="9.616766801821012"><ele>265.0</ele><time>2026-04-18T10:39:43.999Z</time></trkpt><trkpt lat="44.832864492028186" lon="9.616656026944126"><ele>268.0</ele><time>2026-04-18T10:39:44.999Z</time></trkpt><trkpt lat="44.83303783899654" lon="9.616552785730946"><ele>271.0</ele><time>2026-04-18T10:39:45.999Z</time></trkpt><trkpt lat="44.83319243301461" lon="9.616436475198697"><ele>271.0</ele><time>2026-04-18T10:39:46.999Z</time></trkpt><trkpt lat="44.8333550989953" lon="9.616318242237318"><ele>271.0</ele><time>2026-04-18T10:39:47.999Z</time></trkpt><trkpt lat="44.83349577404285" lon="9.616144559603041"><ele>271.0</ele><time>2026-04-18T10:39:48.999Z</time></trkpt><trkpt lat="44.833647856697056" lon="9.615985700496203"><ele>271.3333333333333</ele><time>2026-04-18T10:39:49.999Z</time></trkpt><trkpt lat="44.83378798404337" lon="9.615814992513242"><ele>271.6666666666667</ele><time>2026-04-18T10:39:50.999Z</time></trkpt><trkpt lat="44.83392224619893" lon="9.615648436965627"><ele>272.0</ele><time>2026-04-18T10:39:51.999Z</time></trkpt><trkpt lat="44.83406242093549" lon="9.615480945921897"><ele>270.33333333333337</ele><time>2026-04-18T10:39:52.999Z</time></trkpt><trkpt lat="44.834205579792226" lon="9.615308477630936"><ele>268.6666666666667</ele><time>2026-04-18T10:39:53.999Z</time></trkpt><trkpt lat="44.83435597772062" lon="9.61514989337017"><ele>267.0</ele><time>2026-04-18T10:39:54.999Z</time></trkpt><trkpt lat="44.83451377246009" lon="9.615001356423207"><ele>267.0</ele><time>2026-04-18T10:39:55.999Z</time></trkpt><trkpt lat="44.83468669432274" lon="9.614863231418255"><ele>267.0</ele><time>2026-04-18T10:39:56.999Z</time></trkpt><trkpt lat="44.83486068406215" lon="9.61474175683243"><ele>267.0</ele><time>2026-04-18T10:39:57.999Z</time></trkpt><trkpt lat="44.835032141986176" lon="9.614624813450273"><ele>269.6666666666667</ele><time>2026-04-18T10:39:58.999Z</time></trkpt><trkpt lat="44.83520322784127" lon="9.614503446780336"><ele>272.33333333333337</ele><time>2026-04-18T10:39:59.999Z</time></trkpt><trkpt lat="44.83536954480798" lon="9.61437785494456"><ele>275.0</ele><time>2026-04-18T10:40:00.999Z</time></trkpt><trkpt lat="44.83553586034209" lon="9.614254695597356"><ele>271.33333333333337</ele><time>2026-04-18T10:40:01.999Z</time></trkpt><trkpt lat="44.83570075819962" lon="9.614133302018827"><ele>267.6666666666667</ele><time>2026-04-18T10:40:02.999Z</time></trkpt><trkpt lat="44.83586759864375" lon="9.614017234970563"><ele>264.0</ele><time>2026-04-18T10:40:03.999Z</time></trkpt><trkpt lat="44.83602978010451" lon="9.613897006551518"><ele>264.0</ele><time>2026-04-18T10:40:04.999Z</time></trkpt><trkpt lat="44.83619307678787" lon="9.613777608742607"><ele>264.0</ele><time>2026-04-18T10:40:05.999Z</time></trkpt><trkpt lat="44.836359974532506" lon="9.61365474563122"><ele>264.0</ele><time>2026-04-18T10:40:06.999Z</time></trkpt><trkpt lat="44.83653353576199" lon="9.613535733003694"><ele>263.0</ele><time>2026-04-18T10:40:07.999Z</time></trkpt><trkpt lat="44.836706798733246" lon="9.61341692375854"><ele>262.0</ele><time>2026-04-18T10:40:08.999Z</time></trkpt><trkpt lat="44.836877667684874" lon="9.61329108468636"><ele>261.0</ele><time>2026-04-18T10:40:09.999Z</time></trkpt><trkpt lat="44.837054052890416" lon="9.613166812858221"><ele>261.0</ele><time>2026-04-18T10:40:10.999Z</time></trkpt><trkpt lat="44.83723014055775" lon="9.613044490918504"><ele>261.0</ele><time>2026-04-18T10:40:11.999Z</time></trkpt><trkpt lat="44.837400961499526" lon="9.612922647476637"><ele>261.0</ele><time>2026-04-18T10:40:12.999Z</time></trkpt><trkpt lat="44.83755834247146" lon="9.61280680220292"><ele>259.0</ele><time>2026-04-18T10:40:13.999Z</time></trkpt><trkpt lat="44.837714612506204" lon="9.612701079535976"><ele>257.0</ele><time>2026-04-18T10:40:14.999Z</time></trkpt><trkpt lat="44.83787291359868" lon="9.612596794539469"><ele>255.0</ele><time>2026-04-18T10:40:15.999Z</time></trkpt><trkpt lat="44.838040671322375" lon="9.612493037717"><ele>255.0</ele><time>2026-04-18T10:40:16.999Z</time></trkpt><trkpt lat="44.83821879899624" lon="9.612396781492702"><ele>255.0</ele><time>2026-04-18T10:40:17.999Z</time></trkpt><trkpt lat="44.83839903117251" lon="9.612312728577967"><ele>255.0</ele><time>2026-04-18T10:40:18.999Z</time></trkpt><trkpt lat="44.83857429751886" lon="9.612242216968646"><ele>255.0</ele><time>2026-04-18T10:40:19.999Z</time></trkpt><trkpt lat="44.838759225291895" lon="9.612181955376721"><ele>255.0</ele><time>2026-04-18T10:40:20.999Z</time></trkpt><trkpt lat="44.838951400550094" lon="9.612128132874243"><ele>255.0</ele><time>2026-04-18T10:40:21.999Z</time></trkpt><trkpt lat="44.83913216090695" lon="9.612082777606616"><ele>254.0</ele><time>2026-04-18T10:40:22.999Z</time></trkpt><trkpt lat="44.83930534941934" lon="9.6120508175668"><ele>253.0</ele><time>2026-04-18T10:40:23.999Z</time></trkpt><trkpt lat="44.83948053085243" lon="9.61202704250592"><ele>252.0</ele><time>2026-04-18T10:40:24.999Z</time></trkpt><trkpt lat="44.83966613086094" lon="9.612019036617523"><ele>252.0</ele><time>2026-04-18T10:40:25.999Z</time></trkpt><trkpt lat="44.8398595487358" lon="9.612019822163793"><ele>252.0</ele><time>2026-04-18T10:40:26.999Z</time></trkpt><trkpt lat="44.8400566468688" lon="9.612036664120852"><ele>252.0</ele><time>2026-04-18T10:40:27.999Z</time></trkpt><trkpt lat="44.84025675397245" lon="9.612061350579838"><ele>251.66666666666669</ele><time>2026-04-18T10:40:28.999Z</time></trkpt><trkpt lat="44.840459678998194" lon="9.612094463522453"><ele>251.33333333333334</ele><time>2026-04-18T10:40:29.999Z</time></trkpt><trkpt lat="44.840658746813766" lon="9.61212110026942"><ele>251.0</ele><time>2026-04-18T10:40:30.999Z</time></trkpt><trkpt lat="44.840843595433455" lon="9.612144257647643"><ele>249.66666666666669</ele><time>2026-04-18T10:40:31.999Z</time></trkpt><trkpt lat="44.84102900791" lon="9.612170945657825"><ele>248.33333333333331</ele><time>2026-04-18T10:40:33Z</time></trkpt><trkpt lat="44.84120541950926" lon="9.612194506120964"><ele>247.0</ele><time>2026-04-18T10:40:34Z</time></trkpt><trkpt lat="44.84138290217346" lon="9.612227260849007"><ele>247.0</ele><time>2026-04-18T10:40:35Z</time></trkpt><trkpt lat="44.84156430289219" lon="9.612276498580535"><ele>247.0</ele><time>2026-04-18T10:40:36Z</time></trkpt><trkpt lat="44.841742263907676" lon="9.61234218534809"><ele>247.0</ele><time>2026-04-18T10:40:37Z</time></trkpt><trkpt lat="44.841925496623226" lon="9.612433928332344"><ele>245.0</ele><time>2026-04-18T10:40:38Z</time></trkpt><trkpt lat="44.842110407095575" lon="9.612530816910168"><ele>243.0</ele><time>2026-04-18T10:40:39Z</time></trkpt><trkpt lat="44.84228751907847" lon="9.612651132208075"><ele>241.0</ele><time>2026-04-18T10:40:40Z</time></trkpt><trkpt lat="44.842461302609124" lon="9.612790747599236"><ele>241.66666666666666</ele><time>2026-04-18T10:40:41Z</time></trkpt><trkpt lat="44.84264267321181" lon="9.61295164022724"><ele>242.33333333333331</ele><time>2026-04-18T10:40:42Z</time></trkpt><trkpt lat="44.84282235732415" lon="9.613129070133233"><ele>243.0</ele><time>2026-04-18T10:40:43Z</time></trkpt><trkpt lat="44.84298528438073" lon="9.61331511367824"><ele>243.0</ele><time>2026-04-18T10:40:44Z</time></trkpt><trkpt lat="44.84312926437505" lon="9.61349313179056"><ele>243.0</ele><time>2026-04-18T10:40:45Z</time></trkpt><trkpt lat="44.84324932776941" lon="9.613686986681797"><ele>243.0</ele><time>2026-04-18T10:40:46Z</time></trkpt><trkpt lat="44.84336061890081" lon="9.613875315934589"><ele>241.0</ele><time>2026-04-18T10:40:47Z</time></trkpt><trkpt lat="44.84345108758318" lon="9.614057491789383"><ele>239.0</ele><time>2026-04-18T10:40:48Z</time></trkpt><trkpt lat="44.84354389690507" lon="9.614246236662666"><ele>237.0</ele><time>2026-04-18T10:40:49Z</time></trkpt><trkpt lat="44.843646943171635" lon="9.614443930846154"><ele>239.66666666666669</ele><time>2026-04-18T10:40:50Z</time></trkpt><trkpt lat="44.84375174529121" lon="9.614641229287725"><ele>242.33333333333334</ele><time>2026-04-18T10:40:51Z</time></trkpt><trkpt lat="44.84386280826473" lon="9.61484477982392"><ele>245.0</ele><time>2026-04-18T10:40:52Z</time></trkpt><trkpt lat="44.84396886241736" lon="9.615041551742538"><ele>245.0</ele><time>2026-04-18T10:40:53Z</time></trkpt><trkpt lat="44.84406998461972" lon="9.615238467155006"><ele>245.0</ele><time>2026-04-18T10:40:54Z</time></trkpt><trkpt lat="44.844177927849636" lon="9.61544471996582"><ele>245.0</ele><time>2026-04-18T10:40:55Z</time></trkpt><trkpt lat="44.84429516891824" lon="9.615648483205176"><ele>244.33333333333334</ele><time>2026-04-18T10:40:56Z</time></trkpt><trkpt lat="44.84442188743185" lon="9.615844425454402"><ele>243.66666666666669</ele><time>2026-04-18T10:40:57Z</time></trkpt><trkpt lat="44.844556597111314" lon="9.61603401674365"><ele>243.0</ele><time>2026-04-18T10:40:58Z</time></trkpt><trkpt lat="44.84469040375416" lon="9.616214691385943"><ele>243.0</ele><time>2026-04-18T10:40:59Z</time></trkpt><trkpt lat="44.8448195720511" lon="9.616380679015048"><ele>243.0</ele><time>2026-04-18T10:41:00Z</time></trkpt><trkpt lat="44.844948498554736" lon="9.61654703225469"><ele>243.0</ele><time>2026-04-18T10:41:01Z</time></trkpt><trkpt lat="44.84507449089957" lon="9.616714018260144"><ele>241.66666666666669</ele><time>2026-04-18T10:41:02Z</time></trkpt><trkpt lat="44.84520091068951" lon="9.61688465281106"><ele>240.33333333333334</ele><time>2026-04-18T10:41:03Z</time></trkpt><trkpt lat="44.845331288467165" lon="9.617056617666691"><ele>239.0</ele><time>2026-04-18T10:41:04Z</time></trkpt><trkpt lat="44.845463622893554" lon="9.617230865374356"><ele>239.0</ele><time>2026-04-18T10:41:05Z</time></trkpt><trkpt lat="44.84559755648321" lon="9.617401300310389"><ele>239.0</ele><time>2026-04-18T10:41:06Z</time></trkpt><trkpt lat="44.84573680627894" lon="9.617578292227972"><ele>239.0</ele><time>2026-04-18T10:41:07Z</time></trkpt><trkpt lat="44.84588243495444" lon="9.617763630589986"><ele>238.66666666666669</ele><time>2026-04-18T10:41:08Z</time></trkpt><trkpt lat="44.84603283961825" lon="9.617949791959049"><ele>238.33333333333331</ele><time>2026-04-18T10:41:09Z</time></trkpt><trkpt lat="44.84618350616756" lon="9.618140134139727"><ele>238.0</ele><time>2026-04-18T10:41:10Z</time></trkpt><trkpt lat="44.84633579687453" lon="9.618334505038453"><ele>238.0</ele><time>2026-04-18T10:41:11Z</time></trkpt><trkpt lat="44.84648734979975" lon="9.618530684197033"><ele>238.0</ele><time>2026-04-18T10:41:12Z</time></trkpt><trkpt lat="44.84663999944583" lon="9.618730211700973"><ele>238.0</ele><time>2026-04-18T10:41:13Z</time></trkpt><trkpt lat="44.846794310915556" lon="9.618926344043933"><ele>236.33333333333331</ele><time>2026-04-18T10:41:14Z</time></trkpt><trkpt lat="44.846943764613904" lon="9.61911618521352"><ele>234.66666666666669</ele><time>2026-04-18T10:41:15Z</time></trkpt><trkpt lat="44.847083264295975" lon="9.619296507791931"><ele>233.0</ele><time>2026-04-18T10:41:16Z</time></trkpt><trkpt lat="44.84721781598186" lon="9.619466723480311"><ele>232.33333333333334</ele><time>2026-04-18T10:41:17Z</time></trkpt><trkpt lat="44.84735336418399" lon="9.619645054420845"><ele>231.66666666666669</ele><time>2026-04-18T10:41:18Z</time></trkpt><trkpt lat="44.84749046832948" lon="9.619821922112713"><ele>231.0</ele><time>2026-04-18T10:41:19Z</time></trkpt><trkpt lat="44.847627503147905" lon="9.619995932484711"><ele>231.0</ele><time>2026-04-18T10:41:20Z</time></trkpt><trkpt lat="44.84776411842905" lon="9.620169686012323"><ele>231.0</ele><time>2026-04-18T10:41:21Z</time></trkpt><trkpt lat="44.84789784829201" lon="9.620340689826188"><ele>231.0</ele><time>2026-04-18T10:41:22Z</time></trkpt><trkpt lat="44.848032325125104" lon="9.620516049384632"><ele>232.33333333333331</ele><time>2026-04-18T10:41:23Z</time></trkpt><trkpt lat="44.84816514192117" lon="9.62068597033804"><ele>233.66666666666666</ele><time>2026-04-18T10:41:24Z</time></trkpt><trkpt lat="44.84829415757539" lon="9.62085309998985"><ele>235.0</ele><time>2026-04-18T10:41:25Z</time></trkpt><trkpt lat="44.848419715718414" lon="9.621010486763558"><ele>235.66666666666666</ele><time>2026-04-18T10:41:26Z</time></trkpt><trkpt lat="44.84854494468862" lon="9.621165943705606"><ele>236.33333333333331</ele><time>2026-04-18T10:41:27Z</time></trkpt><trkpt lat="44.84866948643726" lon="9.621320302218162"><ele>237.0</ele><time>2026-04-18T10:41:28Z</time></trkpt><trkpt lat="44.84879501422912" lon="9.621470890805302"><ele>237.0</ele><time>2026-04-18T10:41:29Z</time></trkpt><trkpt lat="44.848916930922655" lon="9.6216209686644"><ele>237.0</ele><time>2026-04-18T10:41:30Z</time></trkpt><trkpt lat="44.84904367792732" lon="9.621778889800135"><ele>237.0</ele><time>2026-04-18T10:41:31Z</time></trkpt><trkpt lat="44.849181413144514" lon="9.621947890728459"><ele>237.66666666666669</ele><time>2026-04-18T10:41:32Z</time></trkpt><trkpt lat="44.849329983791876" lon="9.622115127867092"><ele>238.33333333333334</ele><time>2026-04-18T10:41:33Z</time></trkpt><trkpt lat="44.84949029163928" lon="9.622278412864258"><ele>239.0</ele><time>2026-04-18T10:41:34Z</time></trkpt><trkpt lat="44.849667313306625" lon="9.622437750647563"><ele>239.0</ele><time>2026-04-18T10:41:35Z</time></trkpt><trkpt lat="44.84985396773192" lon="9.622592081698574"><ele>239.0</ele><time>2026-04-18T10:41:36Z</time></trkpt><trkpt lat="44.85003089542029" lon="9.622705155793588"><ele>239.0</ele><time>2026-04-18T10:41:37Z</time></trkpt><trkpt lat="44.85019459548499" lon="9.622801551023619"><ele>239.33333333333334</ele><time>2026-04-18T10:41:38Z</time></trkpt><trkpt lat="44.850360232961215" lon="9.622888445576654"><ele>239.66666666666669</ele><time>2026-04-18T10:41:39Z</time></trkpt><trkpt lat="44.850535174482296" lon="9.62297697658673"><ele>240.0</ele><time>2026-04-18T10:41:40Z</time></trkpt><trkpt lat="44.8507166568611" lon="9.62305998612734"><ele>240.0</ele><time>2026-04-18T10:41:41Z</time></trkpt><trkpt lat="44.85090092409016" lon="9.623147462510444"><ele>240.0</ele><time>2026-04-18T10:41:42Z</time></trkpt><trkpt lat="44.8510851671659" lon="9.623239654889193"><ele>240.0</ele><time>2026-04-18T10:41:43Z</time></trkpt><trkpt lat="44.85127826076856" lon="9.623340846783258"><ele>237.66666666666669</ele><time>2026-04-18T10:41:43.999Z</time></trkpt><trkpt lat="44.85146727813796" lon="9.62344476486943"><ele>235.33333333333334</ele><time>2026-04-18T10:41:44.999Z</time></trkpt><trkpt lat="44.8516407845165" lon="9.623538344150187"><ele>233.0</ele><time>2026-04-18T10:41:45.999Z</time></trkpt><trkpt lat="44.85181211630496" lon="9.623627904526407"><ele>234.66666666666669</ele><time>2026-04-18T10:41:46.999Z</time></trkpt><trkpt lat="44.85197116682954" lon="9.623711429383517"><ele>236.33333333333331</ele><time>2026-04-18T10:41:47.999Z</time></trkpt><trkpt lat="44.85212062751729" lon="9.623794150736524"><ele>238.0</ele><time>2026-04-18T10:41:48.999Z</time></trkpt><trkpt lat="44.85226036573046" lon="9.623881033663062"><ele>238.0</ele><time>2026-04-18T10:41:49.999Z</time></trkpt><trkpt lat="44.852393299148154" lon="9.62397414037588"><ele>238.0</ele><time>2026-04-18T10:41:50.999Z</time></trkpt><trkpt lat="44.85252201876147" lon="9.62408049686261"><ele>238.0</ele><time>2026-04-18T10:41:51.999Z</time></trkpt><trkpt lat="44.85263844759088" lon="9.624190419729613"><ele>238.0</ele><time>2026-04-18T10:41:52.999Z</time></trkpt><trkpt lat="44.852746114267156" lon="9.62430650539671"><ele>235.0</ele><time>2026-04-18T10:41:53.999Z</time></trkpt><trkpt lat="44.852855289499466" lon="9.624432261572458"><ele>232.0</ele><time>2026-04-18T10:41:54.999Z</time></trkpt><trkpt lat="44.85296783670875" lon="9.624581484938844"><ele>229.0</ele><time>2026-04-18T10:41:55.999Z</time></trkpt><trkpt lat="44.85308221649302" lon="9.624744670203823"><ele>229.0</ele><time>2026-04-18T10:41:56.999Z</time></trkpt><trkpt lat="44.853195155559966" lon="9.624920912849491"><ele>229.0</ele><time>2026-04-18T10:41:57.999Z</time></trkpt><trkpt lat="44.853296863492396" lon="9.625092137751858"><ele>229.0</ele><time>2026-04-18T10:41:58.999Z</time></trkpt><trkpt lat="44.85339862035048" lon="9.625255838734207"><ele>228.0</ele><time>2026-04-18T10:41:59.999Z</time></trkpt><trkpt lat="44.85350829089643" lon="9.62542979918894"><ele>227.0</ele><time>2026-04-18T10:42:00.999Z</time></trkpt><trkpt lat="44.85362353340106" lon="9.625616917709795"><ele>226.0</ele><time>2026-04-18T10:42:01.999Z</time></trkpt><trkpt lat="44.85374449937004" lon="9.625811881602916"><ele>226.0</ele><time>2026-04-18T10:42:02.999Z</time></trkpt><trkpt lat="44.85387050638665" lon="9.626015012296126"><ele>226.0</ele><time>2026-04-18T10:42:03.999Z</time></trkpt><trkpt lat="44.85399774849425" lon="9.626222481052212"><ele>226.0</ele><time>2026-04-18T10:42:04.999Z</time></trkpt><trkpt lat="44.8541271676631" lon="9.62643177332559"><ele>226.33333333333331</ele><time>2026-04-18T10:42:05.999Z</time></trkpt><trkpt lat="44.85425610466207" lon="9.626634349033804"><ele>226.66666666666669</ele><time>2026-04-18T10:42:06.999Z</time></trkpt><trkpt lat="44.8543773637579" lon="9.626824456447011"><ele>227.0</ele><time>2026-04-18T10:42:07.999Z</time></trkpt><trkpt lat="44.85450355307088" lon="9.627014244314854"><ele>229.0</ele><time>2026-04-18T10:42:08.999Z</time></trkpt><trkpt lat="44.85462818721291" lon="9.627183139017472"><ele>231.0</ele><time>2026-04-18T10:42:09.999Z</time></trkpt><trkpt lat="44.85474649703179" lon="9.627338721323346"><ele>233.0</ele><time>2026-04-18T10:42:10.999Z</time></trkpt><trkpt lat="44.854857430779006" lon="9.627486058254169"><ele>233.0</ele><time>2026-04-18T10:42:11.999Z</time></trkpt><trkpt lat="44.85496381311604" lon="9.627626399638569"><ele>233.0</ele><time>2026-04-18T10:42:12.999Z</time></trkpt><trkpt lat="44.855066594633634" lon="9.627755647566842"><ele>233.0</ele><time>2026-04-18T10:42:13.999Z</time></trkpt><trkpt lat="44.85517132074056" lon="9.627875673810816"><ele>233.0</ele><time>2026-04-18T10:42:14.999Z</time></trkpt><trkpt lat="44.855266803651105" lon="9.627987232696908"><ele>233.5</ele><time>2026-04-18T10:42:15.999Z</time></trkpt><trkpt lat="44.85535901244108" lon="9.628095284410467"><ele>234.0</ele><time>2026-04-18T10:42:16.999Z</time></trkpt><trkpt lat="44.85545029573593" lon="9.628197250805625"><ele>234.5</ele><time>2026-04-18T10:42:17.999Z</time></trkpt><trkpt lat="44.85554180041002" lon="9.628303162419366"><ele>235.0</ele><time>2026-04-18T10:42:18.999Z</time></trkpt><trkpt lat="44.85563585836924" lon="9.62841282900823"><ele>235.0</ele><time>2026-04-18T10:42:19.999Z</time></trkpt><trkpt lat="44.85573689791794" lon="9.628529056274875"><ele>235.0</ele><time>2026-04-18T10:42:20.999Z</time></trkpt><trkpt lat="44.85584129419197" lon="9.62865431449238"><ele>235.0</ele><time>2026-04-18T10:42:21.999Z</time></trkpt><trkpt lat="44.85594868139764" lon="9.628791176479114"><ele>235.0</ele><time>2026-04-18T10:42:22.999Z</time></trkpt><trkpt lat="44.856069063516856" lon="9.628924880618014"><ele>233.66666666666666</ele><time>2026-04-18T10:42:23.999Z</time></trkpt><trkpt lat="44.856193843456325" lon="9.62906842518585"><ele>232.33333333333331</ele><time>2026-04-18T10:42:24.999Z</time></trkpt><trkpt lat="44.85631949934735" lon="9.62921639896204"><ele>231.0</ele><time>2026-04-18T10:42:25.999Z</time></trkpt><trkpt lat="44.85643421863633" lon="9.62935321674932"><ele>231.25</ele><time>2026-04-18T10:42:26.999Z</time></trkpt><trkpt lat="44.85653911028993" lon="9.629477414276591"><ele>231.5</ele><time>2026-04-18T10:42:27.999Z</time></trkpt><trkpt lat="44.85663960299823" lon="9.629591387470942"><ele>231.75</ele><time>2026-04-18T10:42:28.999Z</time></trkpt><trkpt lat="44.85673472582632" lon="9.62970263015363"><ele>232.0</ele><time>2026-04-18T10:42:29.999Z</time></trkpt><trkpt lat="44.85683567872539" lon="9.629828246931947"><ele>232.33333333333331</ele><time>2026-04-18T10:42:30.999Z</time></trkpt><trkpt lat="44.85694365347255" lon="9.629966431133319"><ele>232.66666666666669</ele><time>2026-04-18T10:42:31.999Z</time></trkpt><trkpt lat="44.85705718719565" lon="9.630109279174045"><ele>233.0</ele><time>2026-04-18T10:42:32.999Z</time></trkpt><trkpt lat="44.85717353680325" lon="9.63025282193717"><ele>233.5</ele><time>2026-04-18T10:42:33.999Z</time></trkpt><trkpt lat="44.85728314766499" lon="9.630386840412658"><ele>234.0</ele><time>2026-04-18T10:42:34.999Z</time></trkpt><trkpt lat="44.85739186114231" lon="9.630521091522251"><ele>234.5</ele><time>2026-04-18T10:42:35.999Z</time></trkpt><trkpt lat="44.85749889535822" lon="9.63065920448336"><ele>235.0</ele><time>2026-04-18T10:42:36.999Z</time></trkpt><trkpt lat="44.857606677520145" lon="9.630807405276768"><ele>235.0</ele><time>2026-04-18T10:42:37.999Z</time></trkpt><trkpt lat="44.85771869256425" lon="9.630958067332347"><ele>235.0</ele><time>2026-04-18T10:42:39Z</time></trkpt><trkpt lat="44.857830504894366" lon="9.631110076310158"><ele>235.0</ele><time>2026-04-18T10:42:40Z</time></trkpt><trkpt lat="44.857935923825025" lon="9.631254614505503"><ele>235.0</ele><time>2026-04-18T10:42:41Z</time></trkpt><trkpt lat="44.858038430721074" lon="9.631395399526278"><ele>235.0</ele><time>2026-04-18T10:42:42Z</time></trkpt><trkpt lat="44.85814105017669" lon="9.631536750027491"><ele>235.0</ele><time>2026-04-18T10:42:43Z</time></trkpt><trkpt lat="44.85824408905509" lon="9.631677339014262"><ele>235.0</ele><time>2026-04-18T10:42:44Z</time></trkpt><trkpt lat="44.85834696896078" lon="9.63181804794718"><ele>235.0</ele><time>2026-04-18T10:42:45Z</time></trkpt><trkpt lat="44.8584416532705" lon="9.63194759800964"><ele>235.0</ele><time>2026-04-18T10:42:46Z</time></trkpt><trkpt lat="44.858532695181836" lon="9.632066523170556"><ele>235.0</ele><time>2026-04-18T10:42:47Z</time></trkpt><trkpt lat="44.85862352372632" lon="9.632186605634175"><ele>235.0</ele><time>2026-04-18T10:42:48Z</time></trkpt><trkpt lat="44.858720289007515" lon="9.632300393155079"><ele>233.25</ele><time>2026-04-18T10:42:49Z</time></trkpt><trkpt lat="44.85882260021146" lon="9.632411489809005"><ele>231.5</ele><time>2026-04-18T10:42:50Z</time></trkpt><trkpt lat="44.858930795941376" lon="9.632514570188825"><ele>229.75</ele><time>2026-04-18T10:42:51Z</time></trkpt><trkpt lat="44.85904581154889" lon="9.632609812132397"><ele>228.0</ele><time>2026-04-18T10:42:52Z</time></trkpt><trkpt lat="44.85916620784269" lon="9.632697573327127"><ele>228.0</ele><time>2026-04-18T10:42:53Z</time></trkpt><trkpt lat="44.85928169293175" lon="9.632773012357651"><ele>228.0</ele><time>2026-04-18T10:42:54Z</time></trkpt><trkpt lat="44.85939605455212" lon="9.63283358506612"><ele>228.0</ele><time>2026-04-18T10:42:55Z</time></trkpt><trkpt lat="44.85951661419682" lon="9.6328814866397"><ele>228.0</ele><time>2026-04-18T10:42:56Z</time></trkpt><trkpt lat="44.8596481949118" lon="9.632924675302744"><ele>227.5</ele><time>2026-04-18T10:42:57Z</time></trkpt><trkpt lat="44.859784001198896" lon="9.632964644553837"><ele>227.0</ele><time>2026-04-18T10:42:58Z</time></trkpt><trkpt lat="44.85991466709146" lon="9.633001031134782"><ele>226.5</ele><time>2026-04-18T10:42:59Z</time></trkpt><trkpt lat="44.86004500565366" lon="9.633038424968408"><ele>226.0</ele><time>2026-04-18T10:43:00Z</time></trkpt><trkpt lat="44.86017728819982" lon="9.633074576654012"><ele>225.0</ele><time>2026-04-18T10:43:01Z</time></trkpt><trkpt lat="44.86031134233827" lon="9.633113877786073"><ele>224.0</ele><time>2026-04-18T10:43:02Z</time></trkpt><trkpt lat="44.86044725369006" lon="9.633154464446335"><ele>223.0</ele><time>2026-04-18T10:43:03Z</time></trkpt><trkpt lat="44.86058279209246" lon="9.633194756048931"><ele>222.0</ele><time>2026-04-18T10:43:04Z</time></trkpt><trkpt lat="44.860718894288475" lon="9.633239376287973"><ele>222.0</ele><time>2026-04-18T10:43:05Z</time></trkpt><trkpt lat="44.86084159594" lon="9.63328817378119"><ele>222.0</ele><time>2026-04-18T10:43:06Z</time></trkpt><trkpt lat="44.86095777381797" lon="9.633350838076717"><ele>222.0</ele><time>2026-04-18T10:43:07Z</time></trkpt><trkpt lat="44.86107614483116" lon="9.633426303588703"><ele>222.0</ele><time>2026-04-18T10:43:08Z</time></trkpt><trkpt lat="44.8611878173432" lon="9.633512572425103"><ele>221.75</ele><time>2026-04-18T10:43:09Z</time></trkpt><trkpt lat="44.861290835917124" lon="9.633612446790702"><ele>221.5</ele><time>2026-04-18T10:43:10Z</time></trkpt><trkpt lat="44.86138079441481" lon="9.633724162281803"><ele>221.25</ele><time>2026-04-18T10:43:11Z</time></trkpt><trkpt lat="44.861460698613676" lon="9.63384604976611"><ele>221.0</ele><time>2026-04-18T10:43:12Z</time></trkpt><trkpt lat="44.86153851291602" lon="9.633975693860764"><ele>221.0</ele><time>2026-04-18T10:43:13Z</time></trkpt><trkpt lat="44.86161608955044" lon="9.63410949781894"><ele>221.0</ele><time>2026-04-18T10:43:14Z</time></trkpt><trkpt lat="44.861692372130314" lon="9.634250069901729"><ele>221.0</ele><time>2026-04-18T10:43:15Z</time></trkpt><trkpt lat="44.86176533962373" lon="9.63439916438284"><ele>221.0</ele><time>2026-04-18T10:43:16Z</time></trkpt><trkpt lat="44.86183470772906" lon="9.634552782049973"><ele>219.75</ele><time>2026-04-18T10:43:17Z</time></trkpt><trkpt lat="44.86189916786528" lon="9.634701015039463"><ele>218.5</ele><time>2026-04-18T10:43:18Z</time></trkpt><trkpt lat="44.861966002053144" lon="9.634851990679206"><ele>217.25</ele><time>2026-04-18T10:43:19Z</time></trkpt><trkpt lat="44.86203273812149" lon="9.635000582255756"><ele>216.0</ele><time>2026-04-18T10:43:20Z</time></trkpt><trkpt lat="44.8620975296809" lon="9.635152524924129"><ele>217.0</ele><time>2026-04-18T10:43:21Z</time></trkpt><trkpt lat="44.862165041146724" lon="9.635306010647005"><ele>218.0</ele><time>2026-04-18T10:43:22Z</time></trkpt><trkpt lat="44.86223511930767" lon="9.635462180425067"><ele>219.0</ele><time>2026-04-18T10:43:23Z</time></trkpt><trkpt lat="44.86230416130913" lon="9.635625641244495"><ele>220.0</ele><time>2026-04-18T10:43:24Z</time></trkpt><trkpt lat="44.86237591428258" lon="9.63579082817669"><ele>220.0</ele><time>2026-04-18T10:43:25Z</time></trkpt><trkpt lat="44.86244317565269" lon="9.635952604605384"><ele>220.0</ele><time>2026-04-18T10:43:26Z</time></trkpt><trkpt lat="44.86251089976543" lon="9.636102552718153"><ele>220.0</ele><time>2026-04-18T10:43:27Z</time></trkpt><trkpt lat="44.862589312548096" lon="9.636243921428836"><ele>220.0</ele><time>2026-04-18T10:43:28Z</time></trkpt><trkpt lat="44.86268429005584" lon="9.636379056977324"><ele>219.5</ele><time>2026-04-18T10:43:29Z</time></trkpt><trkpt lat="44.86278749323262" lon="9.636508276600269"><ele>219.0</ele><time>2026-04-18T10:43:30Z</time></trkpt><trkpt lat="44.862897329781376" lon="9.636636804878552"><ele>218.5</ele><time>2026-04-18T10:43:31Z</time></trkpt><trkpt lat="44.86300120175639" lon="9.636758852084286"><ele>218.0</ele><time>2026-04-18T10:43:32Z</time></trkpt><trkpt lat="44.86310100427733" lon="9.636875946366569"><ele>218.25</ele><time>2026-04-18T10:43:33Z</time></trkpt><trkpt lat="44.863201007982475" lon="9.636997082828167"><ele>218.5</ele><time>2026-04-18T10:43:34Z</time></trkpt><trkpt lat="44.863304333681256" lon="9.637115497810548"><ele>218.75</ele><time>2026-04-18T10:43:35Z</time></trkpt><trkpt lat="44.86341098016874" lon="9.637238289770401"><ele>219.0</ele><time>2026-04-18T10:43:36Z</time></trkpt><trkpt lat="44.86352102223228" lon="9.637367344390537"><ele>217.66666666666669</ele><time>2026-04-18T10:43:37Z</time></trkpt><trkpt lat="44.86363536901279" lon="9.637500054003844"><ele>216.33333333333334</ele><time>2026-04-18T10:43:38Z</time></trkpt><trkpt lat="44.863753646104556" lon="9.63763783431255"><ele>215.0</ele><time>2026-04-18T10:43:39Z</time></trkpt><trkpt lat="44.86387673960576" lon="9.63778141804838"><ele>215.25</ele><time>2026-04-18T10:43:40Z</time></trkpt><trkpt lat="44.863994819122176" lon="9.637921586532597"><ele>215.5</ele><time>2026-04-18T10:43:41Z</time></trkpt><trkpt lat="44.86410306428864" lon="9.638055705213109"><ele>215.75</ele><time>2026-04-18T10:43:42Z</time></trkpt><trkpt lat="44.86420819809178" lon="9.63818588429344"><ele>216.0</ele><time>2026-04-18T10:43:43Z</time></trkpt><trkpt lat="44.864303128084664" lon="9.638312763948013"><ele>215.75</ele><time>2026-04-18T10:43:44Z</time></trkpt><trkpt lat="44.86439192468333" lon="9.638439084647796"><ele>215.5</ele><time>2026-04-18T10:43:45Z</time></trkpt><trkpt lat="44.86448142479842" lon="9.63856355094753"><ele>215.25</ele><time>2026-04-18T10:43:46Z</time></trkpt><trkpt lat="44.86457078581048" lon="9.638689710858715"><ele>215.0</ele><time>2026-04-18T10:43:47Z</time></trkpt><trkpt lat="44.864653141783855" lon="9.638804755369947"><ele>215.0</ele><time>2026-04-18T10:43:48Z</time></trkpt><trkpt lat="44.86473100196682" lon="9.638923028570222"><ele>215.0</ele><time>2026-04-18T10:43:49Z</time></trkpt><trkpt lat="44.86480804096273" lon="9.639038530197693"><ele>215.0</ele><time>2026-04-18T10:43:50Z</time></trkpt><trkpt lat="44.86488234325387" lon="9.639149919438918"><ele>215.0</ele><time>2026-04-18T10:43:51Z</time></trkpt><trkpt lat="44.864953645068425" lon="9.63925502878869"><ele>215.0</ele><time>2026-04-18T10:43:52Z</time></trkpt><trkpt lat="44.865023000812364" lon="9.639360089131596"><ele>215.2</ele><time>2026-04-18T10:43:53Z</time></trkpt><trkpt lat="44.86509358602463" lon="9.639467948897263"><ele>215.4</ele><time>2026-04-18T10:43:54Z</time></trkpt><trkpt lat="44.86516573674837" lon="9.639576728179364"><ele>215.60000000000002</ele><time>2026-04-18T10:43:55Z</time></trkpt><trkpt lat="44.86524033427854" lon="9.639685254141462"><ele>215.8</ele><time>2026-04-18T10:43:56Z</time></trkpt><trkpt lat="44.86531394523182" lon="9.639800667986737"><ele>216.0</ele><time>2026-04-18T10:43:57Z</time></trkpt><trkpt lat="44.86538838528459" lon="9.639913441011863"><ele>216.0</ele><time>2026-04-18T10:43:57.999Z</time></trkpt><trkpt lat="44.86546297495116" lon="9.640023777711757"><ele>216.0</ele><time>2026-04-18T10:43:58.999Z</time></trkpt><trkpt lat="44.8655408405212" lon="9.640134493189581"><ele>216.0</ele><time>2026-04-18T10:43:59.999Z</time></trkpt><trkpt lat="44.86562228415338" lon="9.640250482932814"><ele>216.0</ele><time>2026-04-18T10:44:00.999Z</time></trkpt><trkpt lat="44.865705722818745" lon="9.64036382497126"><ele>216.0</ele><time>2026-04-18T10:44:01.999Z</time></trkpt><trkpt lat="44.86579464497167" lon="9.640457519246521"><ele>216.00000000000003</ele><time>2026-04-18T10:44:02.999Z</time></trkpt><trkpt lat="44.865885757722914" lon="9.640539727210811"><ele>216.00000000000003</ele><time>2026-04-18T10:44:03.999Z</time></trkpt><trkpt lat="44.86598349586696" lon="9.640614596685962"><ele>216.0</ele><time>2026-04-18T10:44:04.999Z</time></trkpt><trkpt lat="44.86609168864605" lon="9.64067434397608"><ele>216.0</ele><time>2026-04-18T10:44:05.999Z</time></trkpt><trkpt lat="44.866208014968194" lon="9.640720542784114"><ele>215.75</ele><time>2026-04-18T10:44:06.999Z</time></trkpt><trkpt lat="44.86632918440009" lon="9.640745369857488"><ele>215.5</ele><time>2026-04-18T10:44:07.999Z</time></trkpt><trkpt lat="44.86645863945203" lon="9.640753949173119"><ele>215.25</ele><time>2026-04-18T10:44:08.999Z</time></trkpt><trkpt lat="44.866577706477706" lon="9.640748038811452"><ele>215.0</ele><time>2026-04-18T10:44:09.999Z</time></trkpt><trkpt lat="44.86668778217897" lon="9.640732198102574"><ele>215.0</ele><time>2026-04-18T10:44:10.999Z</time></trkpt><trkpt lat="44.86679220625277" lon="9.640702332454"><ele>215.0</ele><time>2026-04-18T10:44:11.999Z</time></trkpt><trkpt lat="44.86689790259784" lon="9.640652840570517"><ele>215.0</ele><time>2026-04-18T10:44:12.999Z</time></trkpt><trkpt lat="44.8670027121834" lon="9.640583059683923"><ele>215.0</ele><time>2026-04-18T10:44:13.999Z</time></trkpt><trkpt lat="44.86711665085815" lon="9.640509815620993"><ele>215.0</ele><time>2026-04-18T10:44:14.999Z</time></trkpt><trkpt lat="44.86722397252754" lon="9.640450767004145"><ele>215.0</ele><time>2026-04-18T10:44:15.999Z</time></trkpt><trkpt lat="44.86732588412843" lon="9.64038831414581"><ele>215.0</ele><time>2026-04-18T10:44:16.999Z</time></trkpt><trkpt lat="44.867423943882365" lon="9.640335042205892"><ele>215.0</ele><time>2026-04-18T10:44:17.999Z</time></trkpt><trkpt lat="44.86752149805475" lon="9.640288083685215"><ele>215.0</ele><time>2026-04-18T10:44:18.999Z</time></trkpt><trkpt lat="44.86762464607725" lon="9.64025015798466"><ele>214.5</ele><time>2026-04-18T10:44:19.999Z</time></trkpt><trkpt lat="44.86773836152759" lon="9.640232622510979"><ele>214.0</ele><time>2026-04-18T10:44:20.999Z</time></trkpt><trkpt lat="44.86785459863333" lon="9.640231322051713"><ele>213.5</ele><time>2026-04-18T10:44:21.999Z</time></trkpt><trkpt lat="44.86797383591242" lon="9.640231289676672"><ele>213.0</ele><time>2026-04-18T10:44:22.999Z</time></trkpt><trkpt lat="44.86810104178146" lon="9.640239094489953"><ele>213.0</ele><time>2026-04-18T10:44:23.999Z</time></trkpt><trkpt lat="44.868237612132006" lon="9.640255423700898"><ele>213.0</ele><time>2026-04-18T10:44:24.999Z</time></trkpt><trkpt lat="44.86837244475909" lon="9.64028400085805"><ele>213.0</ele><time>2026-04-18T10:44:25.999Z</time></trkpt><trkpt lat="44.86850289627105" lon="9.640322793518374"><ele>213.0</ele><time>2026-04-18T10:44:26.999Z</time></trkpt><trkpt lat="44.8686364989569" lon="9.640367159638682"><ele>212.75</ele><time>2026-04-18T10:44:27.999Z</time></trkpt><trkpt lat="44.86877216065489" lon="9.640410000602895"><ele>212.5</ele><time>2026-04-18T10:44:28.999Z</time></trkpt><trkpt lat="44.868910293318216" lon="9.640454452504592"><ele>212.25</ele><time>2026-04-18T10:44:29.999Z</time></trkpt><trkpt lat="44.869040070291184" lon="9.640498282111139"><ele>212.0</ele><time>2026-04-18T10:44:30.999Z</time></trkpt><trkpt lat="44.869165587463435" lon="9.640540303658222"><ele>211.5</ele><time>2026-04-18T10:44:31.999Z</time></trkpt><trkpt lat="44.86928673322227" lon="9.640579795463116"><ele>211.0</ele><time>2026-04-18T10:44:32.999Z</time></trkpt><trkpt lat="44.869412998134884" lon="9.640621811806572"><ele>210.5</ele><time>2026-04-18T10:44:33.999Z</time></trkpt><trkpt lat="44.86954564832817" lon="9.640665039124348"><ele>210.0</ele><time>2026-04-18T10:44:34.999Z</time></trkpt><trkpt lat="44.86968625168271" lon="9.640705155026286"><ele>210.0</ele><time>2026-04-18T10:44:35.999Z</time></trkpt><trkpt lat="44.86983258425011" lon="9.640746841530108"><ele>210.0</ele><time>2026-04-18T10:44:36.999Z</time></trkpt><trkpt lat="44.86997996760239" lon="9.640801400666934"><ele>210.0</ele><time>2026-04-18T10:44:37.999Z</time></trkpt><trkpt lat="44.870119042903966" lon="9.640858166410013"><ele>210.0</ele><time>2026-04-18T10:44:38.999Z</time></trkpt><trkpt lat="44.87025390743359" lon="9.640925888184706"><ele>209.66666666666669</ele><time>2026-04-18T10:44:39.999Z</time></trkpt><trkpt lat="44.87039615419288" lon="9.641010315676063"><ele>209.33333333333334</ele><time>2026-04-18T10:44:40.999Z</time></trkpt><trkpt lat="44.870538919155024" lon="9.64110989709647"><ele>209.0</ele><time>2026-04-18T10:44:41.999Z</time></trkpt><trkpt lat="44.87067790870692" lon="9.64121507188977"><ele>209.0</ele><time>2026-04-18T10:44:42.999Z</time></trkpt><trkpt lat="44.87081584963862" lon="9.641334783952045"><ele>209.0</ele><time>2026-04-18T10:44:43.999Z</time></trkpt><trkpt lat="44.87094921974666" lon="9.64146706913017"><ele>209.0</ele><time>2026-04-18T10:44:45Z</time></trkpt><trkpt lat="44.87107806094582" lon="9.64160857775541"><ele>208.0</ele><time>2026-04-18T10:44:46Z</time></trkpt><trkpt lat="44.8711936326342" lon="9.641750486302682"><ele>207.0</ele><time>2026-04-18T10:44:47Z</time></trkpt><trkpt lat="44.87130639349727" lon="9.641904722711978"><ele>206.0</ele><time>2026-04-18T10:44:48Z</time></trkpt><trkpt lat="44.871421201174435" lon="9.642061362071368"><ele>206.0</ele><time>2026-04-18T10:44:49Z</time></trkpt><trkpt lat="44.87153475070141" lon="9.642218724193958"><ele>206.0</ele><time>2026-04-18T10:44:50Z</time></trkpt><trkpt lat="44.871640540229976" lon="9.642367046551142"><ele>206.0</ele><time>2026-04-18T10:44:51Z</time></trkpt><trkpt lat="44.871742503140375" lon="9.642509885778852"><ele>205.5</ele><time>2026-04-18T10:44:52Z</time></trkpt><trkpt lat="44.87184955881971" lon="9.64265767388978"><ele>205.0</ele><time>2026-04-18T10:44:53Z</time></trkpt><trkpt lat="44.87195687186968" lon="9.642809869545554"><ele>204.5</ele><time>2026-04-18T10:44:54Z</time></trkpt><trkpt lat="44.872061435585216" lon="9.642948545088991"><ele>204.0</ele><time>2026-04-18T10:44:55Z</time></trkpt><trkpt lat="44.87216003737806" lon="9.64307693780196"><ele>204.0</ele><time>2026-04-18T10:44:56Z</time></trkpt><trkpt lat="44.87225160637924" lon="9.64320599266003"><ele>204.0</ele><time>2026-04-18T10:44:57Z</time></trkpt><trkpt lat="44.872342715126464" lon="9.643335643396064"><ele>204.0</ele><time>2026-04-18T10:44:58Z</time></trkpt><trkpt lat="44.87243711626183" lon="9.643468271613287"><ele>204.0</ele><time>2026-04-18T10:44:59Z</time></trkpt><trkpt lat="44.87252614146491" lon="9.643599598846134"><ele>202.75</ele><time>2026-04-18T10:45:00Z</time></trkpt><trkpt lat="44.87262009482674" lon="9.64373327205557"><ele>201.5</ele><time>2026-04-18T10:45:01Z</time></trkpt><trkpt lat="44.87271048061655" lon="9.643863267444143"><ele>200.25</ele><time>2026-04-18T10:45:02Z</time></trkpt><trkpt lat="44.8727946864271" lon="9.643977074811954"><ele>199.0</ele><time>2026-04-18T10:45:03Z</time></trkpt><trkpt lat="44.87288512645667" lon="9.644065756177767"><ele>199.0</ele><time>2026-04-18T10:45:04Z</time></trkpt><trkpt lat="44.872981072086596" lon="9.644122494159454"><ele>199.0</ele><time>2026-04-18T10:45:05Z</time></trkpt><trkpt lat="44.873081667151986" lon="9.644107958062795"><ele>199.0</ele><time>2026-04-18T10:45:06Z</time></trkpt><trkpt lat="44.873171938162194" lon="9.64406448757273"><ele>199.0</ele><time>2026-04-18T10:45:07Z</time></trkpt><trkpt lat="44.873269893015205" lon="9.644013502478277"><ele>199.0</ele><time>2026-04-18T10:45:08Z</time></trkpt><trkpt lat="44.87339449628159" lon="9.643953266634217"><ele>199.0</ele><time>2026-04-18T10:45:09Z</time></trkpt><trkpt lat="44.87354127474545" lon="9.64388595230141"><ele>199.0</ele><time>2026-04-18T10:45:10Z</time></trkpt><trkpt lat="44.873668322264606" lon="9.64383435298249"><ele>199.0</ele><time>2026-04-18T10:45:11Z</time></trkpt><trkpt lat="44.87378413435574" lon="9.64378367593093"><ele>199.0</ele><time>2026-04-18T10:45:12Z</time></trkpt><trkpt lat="44.87389170427454" lon="9.64373339380928"><ele>198.99999999999997</ele><time>2026-04-18T10:45:13Z</time></trkpt><trkpt lat="44.87398681904471" lon="9.643691789866615"><ele>199.0</ele><time>2026-04-18T10:45:14Z</time></trkpt><trkpt lat="44.87406945853484" lon="9.643656404901074"><ele>199.0</ele><time>2026-04-18T10:45:15Z</time></trkpt><trkpt lat="44.874147111821046" lon="9.6436247887677"><ele>199.0</ele><time>2026-04-18T10:45:16Z</time></trkpt><trkpt lat="44.8742279716201" lon="9.643592970436368"><ele>198.99999999999997</ele><time>2026-04-18T10:45:17Z</time></trkpt><trkpt lat="44.87430895219103" lon="9.643599390707575"><ele>199.0</ele><time>2026-04-18T10:45:18Z</time></trkpt><trkpt lat="44.87437844651641" lon="9.643662887095092"><ele>205.5</ele><time>2026-04-18T10:45:19Z</time></trkpt><trkpt lat="44.87443300898464" lon="9.643773063597992"><ele>212.0</ele><time>2026-04-18T10:45:20Z</time></trkpt><trkpt lat="44.87448207561675" lon="9.643915111783015"><ele>218.5</ele><time>2026-04-18T10:45:21Z</time></trkpt><trkpt lat="44.87454080009041" lon="9.644067079455722"><ele>225.0</ele><time>2026-04-18T10:45:22Z</time></trkpt><trkpt lat="44.87461784676522" lon="9.644224645420692"><ele>225.0</ele><time>2026-04-18T10:45:23Z</time></trkpt><trkpt lat="44.874693506081435" lon="9.644388325918074"><ele>225.0</ele><time>2026-04-18T10:45:24Z</time></trkpt><trkpt lat="44.87475760568812" lon="9.644534155205715"><ele>225.0</ele><time>2026-04-18T10:45:25Z</time></trkpt><trkpt lat="44.87481888492217" lon="9.644677255614706"><ele>225.0</ele><time>2026-04-18T10:45:26Z</time></trkpt><trkpt lat="44.87488660913326" lon="9.644814897823684"><ele>226.25</ele><time>2026-04-18T10:45:27Z</time></trkpt><trkpt lat="44.874965972732106" lon="9.644945432431888"><ele>227.5</ele><time>2026-04-18T10:45:28Z</time></trkpt><trkpt lat="44.8750593417757" lon="9.645084202110034"><ele>228.75</ele><time>2026-04-18T10:45:29Z</time></trkpt><trkpt lat="44.875159080042536" lon="9.645237692321292"><ele>230.0</ele><time>2026-04-18T10:45:30Z</time></trkpt><trkpt lat="44.87527066057553" lon="9.645411642093833"><ele>224.33333333333334</ele><time>2026-04-18T10:45:31Z</time></trkpt><trkpt lat="44.875401874916854" lon="9.645607873729869"><ele>218.66666666666669</ele><time>2026-04-18T10:45:32Z</time></trkpt><trkpt lat="44.87554480506444" lon="9.645815019540619"><ele>213.0</ele><time>2026-04-18T10:45:33Z</time></trkpt><trkpt lat="44.87566648826956" lon="9.646000451664838"><ele>212.66666666666669</ele><time>2026-04-18T10:45:34Z</time></trkpt><trkpt lat="44.87578133994114" lon="9.64616834768027"><ele>212.33333333333334</ele><time>2026-04-18T10:45:35Z</time></trkpt><trkpt lat="44.87589784825269" lon="9.646330543584654"><ele>212.0</ele><time>2026-04-18T10:45:36Z</time></trkpt><trkpt lat="44.87604832119238" lon="9.64651410463045"><ele>212.0</ele><time>2026-04-18T10:45:37Z</time></trkpt><trkpt lat="44.876214296671776" lon="9.646734556092085"><ele>212.0</ele><time>2026-04-18T10:45:38Z</time></trkpt><trkpt lat="44.87638134777548" lon="9.64692630283041"><ele>212.0</ele><time>2026-04-18T10:45:39Z</time></trkpt><trkpt lat="44.87652813052815" lon="9.647091224175343"><ele>212.66666666666669</ele><time>2026-04-18T10:45:40Z</time></trkpt><trkpt lat="44.87666998164657" lon="9.647221246570968"><ele>213.33333333333331</ele><time>2026-04-18T10:45:41Z</time></trkpt><trkpt lat="44.87679777006072" lon="9.647369488968739"><ele>214.0</ele><time>2026-04-18T10:45:42Z</time></trkpt><trkpt lat="44.87693012497764" lon="9.647505342330117"><ele>214.0</ele><time>2026-04-18T10:45:43Z</time></trkpt><trkpt lat="44.87707283845681" lon="9.647644842265747"><ele>214.0</ele><time>2026-04-18T10:45:44Z</time></trkpt><trkpt lat="44.87721086002262" lon="9.647765130509393"><ele>214.0</ele><time>2026-04-18T10:45:45Z</time></trkpt><trkpt lat="44.877344556956324" lon="9.647887431371936"><ele>211.99999999999997</ele><time>2026-04-18T10:45:46Z</time></trkpt><trkpt lat="44.877479971510006" lon="9.647960702919109"><ele>210.0</ele><time>2026-04-18T10:45:48Z</time></trkpt><trkpt lat="44.877550188280885" lon="9.648011303482791"><ele>208.0</ele><time>2026-04-18T10:45:49Z</time></trkpt><trkpt lat="44.87761062834092" lon="9.648057200540336"><ele>206.0</ele><time>2026-04-18T10:45:50Z</time></trkpt><trkpt lat="44.87766784413286" lon="9.648096796285017"><ele>203.99999999999997</ele><time>2026-04-18T10:45:51Z</time></trkpt><trkpt lat="44.877726702895565" lon="9.648137396972364"><ele>202.0</ele><time>2026-04-18T10:45:52Z</time></trkpt><trkpt lat="44.87778797710833" lon="9.648182454223845"><ele>202.0</ele><time>2026-04-18T10:45:53Z</time></trkpt><trkpt lat="44.877889594377244" lon="9.648253090755128"><ele>202.0</ele><time>2026-04-18T10:45:55Z</time></trkpt><trkpt lat="44.877952963956105" lon="9.648284486015891"><ele>202.0</ele><time>2026-04-18T10:45:56Z</time></trkpt><trkpt lat="44.87807164310404" lon="9.648329124166048"><ele>202.0</ele><time>2026-04-18T10:45:58Z</time></trkpt><trkpt lat="44.87814809968664" lon="9.648357389973562"><ele>202.0</ele><time>2026-04-18T10:45:59Z</time></trkpt><trkpt lat="44.8782360345562" lon="9.648380923132036"><ele>201.99999999999997</ele><time>2026-04-18T10:46:00Z</time></trkpt><trkpt lat="44.87832571732652" lon="9.648400247120728"><ele>202.0</ele><time>2026-04-18T10:46:01Z</time></trkpt><trkpt lat="44.878406799694545" lon="9.648413914843067"><ele>202.0</ele><time>2026-04-18T10:46:02Z</time></trkpt><trkpt lat="44.87849284044481" lon="9.648413670254188"><ele>202.0</ele><time>2026-04-18T10:46:03Z</time></trkpt><trkpt lat="44.87858709556082" lon="9.648408697432338"><ele>201.99999999999997</ele><time>2026-04-18T10:46:04Z</time></trkpt><trkpt lat="44.878679894212" lon="9.648403211685347"><ele>202.0</ele><time>2026-04-18T10:46:05Z</time></trkpt><trkpt lat="44.8787666101978" lon="9.648397584611109"><ele>201.49999999999997</ele><time>2026-04-18T10:46:06Z</time></trkpt><trkpt lat="44.8788569242133" lon="9.648387211903046"><ele>201.0</ele><time>2026-04-18T10:46:07Z</time></trkpt><trkpt lat="44.878930724357716" lon="9.648383943686353"><ele>200.5</ele><time>2026-04-18T10:46:08Z</time></trkpt><trkpt lat="44.87900882096085" lon="9.648388675460613"><ele>200.0</ele><time>2026-04-18T10:46:10Z</time></trkpt><trkpt lat="44.87899127099881" lon="9.648279765235321"><ele>199.49999999999997</ele><time>2026-04-18T10:46:12Z</time></trkpt><trkpt lat="44.878873502794555" lon="9.648290421886411"><ele>199.0</ele><time>2026-04-18T10:46:16.999Z</time></trkpt><trkpt lat="44.87880030736281" lon="9.648337085906146"><ele>199.0</ele><time>2026-04-18T10:46:17.999Z</time></trkpt><trkpt lat="44.87870668611443" lon="9.648363589228588"><ele>199.0</ele><time>2026-04-18T10:46:18.999Z</time></trkpt><trkpt lat="44.878606515828025" lon="9.648370177299617"><ele>199.0</ele><time>2026-04-18T10:46:19.999Z</time></trkpt><trkpt lat="44.87849429316281" lon="9.64837036748839"><ele>199.0</ele><time>2026-04-18T10:46:20.999Z</time></trkpt><trkpt lat="44.87836667118505" lon="9.648356698419894"><ele>199.0</ele><time>2026-04-18T10:46:21.999Z</time></trkpt><trkpt lat="44.8782366324347" lon="9.648332827039289"><ele>199.75</ele><time>2026-04-18T10:46:22.999Z</time></trkpt><trkpt lat="44.87809721827523" lon="9.648294826864515"><ele>200.5</ele><time>2026-04-18T10:46:23.999Z</time></trkpt><trkpt lat="44.87795682027255" lon="9.648238498477031"><ele>201.25</ele><time>2026-04-18T10:46:24.999Z</time></trkpt><trkpt lat="44.87780907349057" lon="9.648164743284084"><ele>202.0</ele><time>2026-04-18T10:46:25.999Z</time></trkpt><trkpt lat="44.87765001529929" lon="9.64805885232017"><ele>201.66666666666666</ele><time>2026-04-18T10:46:26.999Z</time></trkpt><trkpt lat="44.87748565936762" lon="9.647928501683861"><ele>201.33333333333331</ele><time>2026-04-18T10:46:27.999Z</time></trkpt><trkpt lat="44.877351345592906" lon="9.647811483304782"><ele>201.0</ele><time>2026-04-18T10:46:28.999Z</time></trkpt><trkpt lat="44.87721833481789" lon="9.647705641420366"><ele>202.0</ele><time>2026-04-18T10:46:29.999Z</time></trkpt><trkpt lat="44.87706897903757" lon="9.647588778037747"><ele>203.0</ele><time>2026-04-18T10:46:30.999Z</time></trkpt><trkpt lat="44.876912028074415" lon="9.647459353950216"><ele>204.0</ele><time>2026-04-18T10:46:31.999Z</time></trkpt><trkpt lat="44.87675568274745" lon="9.64730735121193"><ele>204.0</ele><time>2026-04-18T10:46:32.999Z</time></trkpt><trkpt lat="44.87662485451756" lon="9.647162665911848"><ele>204.0</ele><time>2026-04-18T10:46:33.999Z</time></trkpt><trkpt lat="44.87649907520277" lon="9.647013721079926"><ele>204.0</ele><time>2026-04-18T10:46:34.999Z</time></trkpt><trkpt lat="44.876381951166294" lon="9.64687899627647"><ele>206.66666666666669</ele><time>2026-04-18T10:46:35.999Z</time></trkpt><trkpt lat="44.87625145007517" lon="9.646725947799359"><ele>209.33333333333334</ele><time>2026-04-18T10:46:36.999Z</time></trkpt><trkpt lat="44.87611838368213" lon="9.646579550948813"><ele>212.0</ele><time>2026-04-18T10:46:37.999Z</time></trkpt><trkpt lat="44.87599766968336" lon="9.646440720247966"><ele>212.33333333333334</ele><time>2026-04-18T10:46:38.999Z</time></trkpt><trkpt lat="44.87589551650178" lon="9.646270720694282"><ele>212.66666666666669</ele><time>2026-04-18T10:46:39.999Z</time></trkpt><trkpt lat="44.875779481428125" lon="9.646106737052941"><ele>213.0</ele><time>2026-04-18T10:46:40.999Z</time></trkpt><trkpt lat="44.875656904304925" lon="9.645928912542233"><ele>213.0</ele><time>2026-04-18T10:46:41.999Z</time></trkpt><trkpt lat="44.87553730665517" lon="9.64577520685897"><ele>213.0</ele><time>2026-04-18T10:46:42.999Z</time></trkpt><trkpt lat="44.87543899903441" lon="9.645623405785239"><ele>213.0</ele><time>2026-04-18T10:46:43.999Z</time></trkpt><trkpt lat="44.875330408279176" lon="9.645472356962129"><ele>211.0</ele><time>2026-04-18T10:46:44.999Z</time></trkpt><trkpt lat="44.875230127447246" lon="9.645289099413777"><ele>209.0</ele><time>2026-04-18T10:46:45.999Z</time></trkpt><trkpt lat="44.87511106930138" lon="9.645140519813241"><ele>207.0</ele><time>2026-04-18T10:46:46.999Z</time></trkpt><trkpt lat="44.87501951177928" lon="9.644989738105991"><ele>207.0</ele><time>2026-04-18T10:46:47.999Z</time></trkpt><trkpt lat="44.874938675765804" lon="9.644840898518463"><ele>207.0</ele><time>2026-04-18T10:46:48.999Z</time></trkpt><trkpt lat="44.8748537733005" lon="9.64468990743833"><ele>207.0</ele><time>2026-04-18T10:46:49.999Z</time></trkpt><trkpt lat="44.87476599486827" lon="9.644512705431623"><ele>207.0</ele><time>2026-04-18T10:46:51Z</time></trkpt><trkpt lat="44.87468600462291" lon="9.644339187265501"><ele>211.5</ele><time>2026-04-18T10:46:52Z</time></trkpt><trkpt lat="44.87461505141358" lon="9.64418602698713"><ele>216.0</ele><time>2026-04-18T10:46:53Z</time></trkpt><trkpt lat="44.87455560021102" lon="9.644040787538044"><ele>220.5</ele><time>2026-04-18T10:46:54Z</time></trkpt><trkpt lat="44.874499714366046" lon="9.643910343942856"><ele>225.0</ele><time>2026-04-18T10:46:55Z</time></trkpt><trkpt lat="44.874448143128454" lon="9.643785273002731"><ele>225.0</ele><time>2026-04-18T10:46:56Z</time></trkpt><trkpt lat="44.874412386316685" lon="9.643676408470869"><ele>225.0</ele><time>2026-04-18T10:46:57Z</time></trkpt><trkpt lat="44.87438876577608" lon="9.643577495390188"><ele>225.0</ele><time>2026-04-18T10:46:58Z</time></trkpt><trkpt lat="44.87437748619906" lon="9.643474192282113"><ele>225.0</ele><time>2026-04-18T10:46:59Z</time></trkpt><trkpt lat="44.87438268242264" lon="9.643352085453921"><ele>225.0</ele><time>2026-04-18T10:47:00Z</time></trkpt><trkpt lat="44.87440163102064" lon="9.643211920914025"><ele>225.0</ele><time>2026-04-18T10:47:01Z</time></trkpt><trkpt lat="44.87441287042833" lon="9.643060596184146"><ele>228.75</ele><time>2026-04-18T10:47:02Z</time></trkpt><trkpt lat="44.874414540551484" lon="9.64289291059371"><ele>232.5</ele><time>2026-04-18T10:47:03Z</time></trkpt><trkpt lat="44.87441282185595" lon="9.642688469223195"><ele>236.25</ele><time>2026-04-18T10:47:04Z</time></trkpt><trkpt lat="44.87441033798189" lon="9.642459919076344"><ele>240.0</ele><time>2026-04-18T10:47:05Z</time></trkpt><trkpt lat="44.87440890200976" lon="9.64225858718517"><ele>243.25</ele><time>2026-04-18T10:47:06Z</time></trkpt><trkpt lat="44.87441067096138" lon="9.64207905542339"><ele>246.5</ele><time>2026-04-18T10:47:07Z</time></trkpt><trkpt lat="44.87441421638473" lon="9.641887330245833"><ele>249.75</ele><time>2026-04-18T10:47:08Z</time></trkpt><trkpt lat="44.874424138751046" lon="9.641681041363707"><ele>253.0</ele><time>2026-04-18T10:47:09Z</time></trkpt><trkpt lat="44.87443996610252" lon="9.641465124111742"><ele>253.0</ele><time>2026-04-18T10:47:10Z</time></trkpt><trkpt lat="44.87446020693772" lon="9.641236927578348"><ele>253.0</ele><time>2026-04-18T10:47:11Z</time></trkpt><trkpt lat="44.87448478111875" lon="9.641007600292921"><ele>253.0</ele><time>2026-04-18T10:47:12Z</time></trkpt><trkpt lat="44.87450264139575" lon="9.640775342564961"><ele>252.75</ele><time>2026-04-18T10:47:13Z</time></trkpt><trkpt lat="44.874504119476285" lon="9.640584168298911"><ele>252.5</ele><time>2026-04-18T10:47:14Z</time></trkpt><trkpt lat="44.874498083409236" lon="9.640384596714721"><ele>252.25</ele><time>2026-04-18T10:47:15Z</time></trkpt><trkpt lat="44.874490069260176" lon="9.64018609365178"><ele>252.0</ele><time>2026-04-18T10:47:16Z</time></trkpt><trkpt lat="44.87449226832654" lon="9.639981330653953"><ele>252.0</ele><time>2026-04-18T10:47:17Z</time></trkpt><trkpt lat="44.874497280519634" lon="9.639771809307538"><ele>252.0</ele><time>2026-04-18T10:47:18Z</time></trkpt><trkpt lat="44.87451037566236" lon="9.639561649014407"><ele>252.0</ele><time>2026-04-18T10:47:19Z</time></trkpt><trkpt lat="44.87452124381939" lon="9.639374892117502"><ele>252.0</ele><time>2026-04-18T10:47:20Z</time></trkpt><trkpt lat="44.87453453767268" lon="9.639220266070108"><ele>253.0</ele><time>2026-04-18T10:47:21Z</time></trkpt><trkpt lat="44.87455828234303" lon="9.639070817234172"><ele>254.0</ele><time>2026-04-18T10:47:22Z</time></trkpt><trkpt lat="44.87460866754346" lon="9.638909183275478"><ele>255.0</ele><time>2026-04-18T10:47:23Z</time></trkpt><trkpt lat="44.87468803546747" lon="9.638740850385549"><ele>256.0</ele><time>2026-04-18T10:47:24Z</time></trkpt><trkpt lat="44.87477879141412" lon="9.638558168133413"><ele>256.5</ele><time>2026-04-18T10:47:25Z</time></trkpt><trkpt lat="44.87484803044151" lon="9.638390036343372"><ele>257.0</ele><time>2026-04-18T10:47:26Z</time></trkpt><trkpt lat="44.874918450172935" lon="9.638221523247173"><ele>257.5</ele><time>2026-04-18T10:47:27Z</time></trkpt><trkpt lat="44.87499663932738" lon="9.638041084692897"><ele>258.0</ele><time>2026-04-18T10:47:28Z</time></trkpt><trkpt lat="44.875072993748404" lon="9.637873132571436"><ele>268.3333333333333</ele><time>2026-04-18T10:47:29Z</time></trkpt><trkpt lat="44.87512781479753" lon="9.637681462042528"><ele>278.66666666666663</ele><time>2026-04-18T10:47:30Z</time></trkpt><trkpt lat="44.8751817380993" lon="9.637442092587056"><ele>289.0</ele><time>2026-04-18T10:47:31Z</time></trkpt><trkpt lat="44.875236567805665" lon="9.637170384485485"><ele>289.3333333333333</ele><time>2026-04-18T10:47:32Z</time></trkpt><trkpt lat="44.875296179685726" lon="9.63691844252454"><ele>289.6666666666667</ele><time>2026-04-18T10:47:33Z</time></trkpt><trkpt lat="44.875346925728834" lon="9.63667167478238"><ele>290.0</ele><time>2026-04-18T10:47:34Z</time></trkpt><trkpt lat="44.87539450224528" lon="9.63641411562642"><ele>290.0</ele><time>2026-04-18T10:47:35Z</time></trkpt><trkpt lat="44.8754400288482" lon="9.63618023367477"><ele>290.0</ele><time>2026-04-18T10:47:36Z</time></trkpt><trkpt lat="44.87548866884706" lon="9.635996213425043"><ele>290.0</ele><time>2026-04-18T10:47:37Z</time></trkpt><trkpt lat="44.875527877244856" lon="9.635829842004924"><ele>290.0</ele><time>2026-04-18T10:47:38Z</time></trkpt><trkpt lat="44.875541190657" lon="9.635643276063583"><ele>290.33333333333337</ele><time>2026-04-18T10:47:39Z</time></trkpt><trkpt lat="44.875529038442444" lon="9.63542592047037"><ele>290.6666666666667</ele><time>2026-04-18T10:47:40Z</time></trkpt><trkpt lat="44.87549344814632" lon="9.635207524426331"><ele>291.0</ele><time>2026-04-18T10:47:41Z</time></trkpt><trkpt lat="44.875437850236004" lon="9.635018194649222"><ele>293.0</ele><time>2026-04-18T10:47:42Z</time></trkpt><trkpt lat="44.875359807364255" lon="9.634818401024164"><ele>295.0</ele><time>2026-04-18T10:47:43Z</time></trkpt><trkpt lat="44.8752714984912" lon="9.634609571562407"><ele>297.0</ele><time>2026-04-18T10:47:44Z</time></trkpt><trkpt lat="44.87521099233443" lon="9.634362308738611"><ele>296.0</ele><time>2026-04-18T10:47:45Z</time></trkpt><trkpt lat="44.87515699271489" lon="9.634135103752476"><ele>295.0</ele><time>2026-04-18T10:47:46Z</time></trkpt><trkpt lat="44.8750983656391" lon="9.6339508060738"><ele>294.0</ele><time>2026-04-18T10:47:47Z</time></trkpt><trkpt lat="44.87504531749867" lon="9.63375546620331"><ele>295.4</ele><time>2026-04-18T10:47:48Z</time></trkpt><trkpt lat="44.874996644501174" lon="9.633583081339005"><ele>296.79999999999995</ele><time>2026-04-18T10:47:49Z</time></trkpt><trkpt lat="44.87495462350649" lon="9.633439598522687"><ele>298.20000000000005</ele><time>2026-04-18T10:47:50Z</time></trkpt><trkpt lat="44.87492986715393" lon="9.633294468912629"><ele>299.6</ele><time>2026-04-18T10:47:51Z</time></trkpt><trkpt lat="44.87493917969441" lon="9.633163200291953"><ele>301.0</ele><time>2026-04-18T10:47:52Z</time></trkpt><trkpt lat="44.875000071396144" lon="9.633034405117401"><ele>301.0</ele><time>2026-04-18T10:47:53Z</time></trkpt><trkpt lat="44.875060573486344" lon="9.632882911353317"><ele>301.0</ele><time>2026-04-18T10:47:54Z</time></trkpt><trkpt lat="44.87509077920106" lon="9.632719948012806"><ele>301.0</ele><time>2026-04-18T10:47:55Z</time></trkpt><trkpt lat="44.87509327831975" lon="9.632547075114884"><ele>301.0</ele><time>2026-04-18T10:47:56Z</time></trkpt><trkpt lat="44.87508970183919" lon="9.632377467095377"><ele>300.75</ele><time>2026-04-18T10:47:57Z</time></trkpt><trkpt lat="44.87510481027415" lon="9.632195882253553"><ele>300.5</ele><time>2026-04-18T10:47:58Z</time></trkpt><trkpt lat="44.87515309838502" lon="9.632012059530718"><ele>300.25</ele><time>2026-04-18T10:47:59Z</time></trkpt><trkpt lat="44.8752494831288" lon="9.631837995947178"><ele>300.0</ele><time>2026-04-18T10:48:00Z</time></trkpt><trkpt lat="44.87533912921462" lon="9.631632609329445"><ele>300.0</ele><time>2026-04-18T10:48:01Z</time></trkpt><trkpt lat="44.8754478203798" lon="9.631431794600966"><ele>300.0</ele><time>2026-04-18T10:48:02Z</time></trkpt><trkpt lat="44.875545764757355" lon="9.631239387815922"><ele>300.0</ele><time>2026-04-18T10:48:03Z</time></trkpt><trkpt lat="44.87562379406777" lon="9.631065284294186"><ele>302.0</ele><time>2026-04-18T10:48:04Z</time></trkpt><trkpt lat="44.8757006497641" lon="9.630878593944411"><ele>304.0</ele><time>2026-04-18T10:48:05Z</time></trkpt><trkpt lat="44.87576491138024" lon="9.630718528624179"><ele>306.0</ele><time>2026-04-18T10:48:06Z</time></trkpt><trkpt lat="44.87580961858935" lon="9.63053902174634"><ele>308.0</ele><time>2026-04-18T10:48:07Z</time></trkpt><trkpt lat="44.875825469445275" lon="9.630315362498369"><ele>310.33333333333337</ele><time>2026-04-18T10:48:08Z</time></trkpt><trkpt lat="44.875828308987494" lon="9.630072151217544"><ele>312.6666666666667</ele><time>2026-04-18T10:48:09Z</time></trkpt><trkpt lat="44.875850533603625" lon="9.629822907560612"><ele>315.0</ele><time>2026-04-18T10:48:10Z</time></trkpt><trkpt lat="44.87589706128663" lon="9.62958629429914"><ele>320.6666666666667</ele><time>2026-04-18T10:48:11Z</time></trkpt><trkpt lat="44.87595605644306" lon="9.629352382874584"><ele>326.33333333333337</ele><time>2026-04-18T10:48:12Z</time></trkpt><trkpt lat="44.87600566153284" lon="9.629112077842695"><ele>332.0</ele><time>2026-04-18T10:48:13Z</time></trkpt><trkpt lat="44.876052065175536" lon="9.62889501417736"><ele>332.0</ele><time>2026-04-18T10:48:14Z</time></trkpt><trkpt lat="44.87607957668616" lon="9.628706144590621"><ele>332.0</ele><time>2026-04-18T10:48:15Z</time></trkpt><trkpt lat="44.87609789796918" lon="9.628523991095523"><ele>332.0</ele><time>2026-04-18T10:48:16Z</time></trkpt><trkpt lat="44.876104216129384" lon="9.628335692611214"><ele>332.0</ele><time>2026-04-18T10:48:17Z</time></trkpt><trkpt lat="44.87608965434507" lon="9.628135881731843"><ele>332.33333333333337</ele><time>2026-04-18T10:48:18Z</time></trkpt><trkpt lat="44.876057813468684" lon="9.627927295014553"><ele>332.6666666666667</ele><time>2026-04-18T10:48:19Z</time></trkpt><trkpt lat="44.876026169117715" lon="9.627702861194354"><ele>333.0</ele><time>2026-04-18T10:48:20Z</time></trkpt><trkpt lat="44.876005348095624" lon="9.627489231233458"><ele>330.75</ele><time>2026-04-18T10:48:21Z</time></trkpt><trkpt lat="44.875996340069484" lon="9.627278169958222"><ele>328.5</ele><time>2026-04-18T10:48:22Z</time></trkpt><trkpt lat="44.87601027360265" lon="9.62706334006732"><ele>326.25</ele><time>2026-04-18T10:48:23Z</time></trkpt><trkpt lat="44.8760558203638" lon="9.626868020071264"><ele>324.0</ele><time>2026-04-18T10:48:24Z</time></trkpt><trkpt lat="44.876091361133504" lon="9.626664470987347"><ele>322.25</ele><time>2026-04-18T10:48:25Z</time></trkpt><trkpt lat="44.87609815688151" lon="9.626477819087182"><ele>320.5</ele><time>2026-04-18T10:48:25.999Z</time></trkpt><trkpt lat="44.87607714667822" lon="9.626313279232901"><ele>318.75</ele><time>2026-04-18T10:48:26.999Z</time></trkpt><trkpt lat="44.87603656336187" lon="9.626145565550502"><ele>317.0</ele><time>2026-04-18T10:48:27.999Z</time></trkpt><trkpt lat="44.875980421816344" lon="9.625957337227687"><ele>327.0</ele><time>2026-04-18T10:48:28.999Z</time></trkpt><trkpt lat="44.87588953136778" lon="9.625754037221586"><ele>337.0</ele><time>2026-04-18T10:48:29.999Z</time></trkpt><trkpt lat="44.875804087183674" lon="9.62556895908822"><ele>347.0</ele><time>2026-04-18T10:48:30.999Z</time></trkpt><trkpt lat="44.87571354205211" lon="9.625407541870452"><ele>342.6666666666667</ele><time>2026-04-18T10:48:31.999Z</time></trkpt><trkpt lat="44.875609052998776" lon="9.62524696777321"><ele>338.3333333333333</ele><time>2026-04-18T10:48:32.999Z</time></trkpt><trkpt lat="44.87549363895549" lon="9.625099823959548"><ele>334.0</ele><time>2026-04-18T10:48:33.999Z</time></trkpt><trkpt lat="44.875393625489046" lon="9.624956011844123"><ele>334.0</ele><time>2026-04-18T10:48:34.999Z</time></trkpt><trkpt lat="44.87530661224325" lon="9.624833871802286"><ele>334.0</ele><time>2026-04-18T10:48:35.999Z</time></trkpt><trkpt lat="44.875230350843786" lon="9.624729147846049"><ele>334.0</ele><time>2026-04-18T10:48:36.999Z</time></trkpt><trkpt lat="44.87516328025011" lon="9.624637866855824"><ele>334.0</ele><time>2026-04-18T10:48:37.999Z</time></trkpt><trkpt lat="44.87510917673259" lon="9.624554159008184"><ele>334.0</ele><time>2026-04-18T10:48:38.999Z</time></trkpt><trkpt lat="44.87505993495327" lon="9.624466968514467"><ele>334.6</ele><time>2026-04-18T10:48:39.999Z</time></trkpt><trkpt lat="44.875013142247724" lon="9.62436183686131"><ele>335.2</ele><time>2026-04-18T10:48:40.999Z</time></trkpt><trkpt lat="44.87498135691912" lon="9.624238981251393"><ele>335.8</ele><time>2026-04-18T10:48:41.999Z</time></trkpt><trkpt lat="44.87497389658653" lon="9.624101732181945"><ele>336.40000000000003</ele><time>2026-04-18T10:48:42.999Z</time></trkpt><trkpt lat="44.87501045454129" lon="9.623972679896145"><ele>337.0</ele><time>2026-04-18T10:48:43.999Z</time></trkpt><trkpt lat="44.875083319819495" lon="9.623869992267396"><ele>334.5</ele><time>2026-04-18T10:48:44.999Z</time></trkpt><trkpt lat="44.875184532642315" lon="9.623798491339658"><ele>332.0</ele><time>2026-04-18T10:48:45.999Z</time></trkpt><trkpt lat="44.875309342475326" lon="9.623772758123057"><ele>329.5</ele><time>2026-04-18T10:48:46.999Z</time></trkpt><trkpt lat="44.875469658777604" lon="9.623775765421891"><ele>327.0</ele><time>2026-04-18T10:48:47.999Z</time></trkpt><trkpt lat="44.87563760144569" lon="9.623779407728161"><ele>327.0</ele><time>2026-04-18T10:48:48.999Z</time></trkpt><trkpt lat="44.87581054583663" lon="9.623783357652202"><ele>327.0</ele><time>2026-04-18T10:48:49.999Z</time></trkpt><trkpt lat="44.87598225265702" lon="9.623779355818138"><ele>327.0</ele><time>2026-04-18T10:48:50.999Z</time></trkpt><trkpt lat="44.87616154390318" lon="9.623775772600888"><ele>326.3333333333333</ele><time>2026-04-18T10:48:51.999Z</time></trkpt><trkpt lat="44.876324902940205" lon="9.62377539701375"><ele>325.66666666666663</ele><time>2026-04-18T10:48:52.999Z</time></trkpt><trkpt lat="44.8764888057332" lon="9.623766897074098"><ele>325.0</ele><time>2026-04-18T10:48:53.999Z</time></trkpt><trkpt lat="44.87663388297844" lon="9.623766756466757"><ele>325.0</ele><time>2026-04-18T10:48:54.999Z</time></trkpt><trkpt lat="44.876772259973635" lon="9.623798958585741"><ele>325.0</ele><time>2026-04-18T10:48:55.999Z</time></trkpt><trkpt lat="44.876910528845634" lon="9.623875981962879"><ele>325.0</ele><time>2026-04-18T10:48:57Z</time></trkpt><trkpt lat="44.87706962064" lon="9.623948935770636"><ele>325.0</ele><time>2026-04-18T10:48:58Z</time></trkpt><trkpt lat="44.87723115592933" lon="9.624019814122049"><ele>325.0</ele><time>2026-04-18T10:48:59Z</time></trkpt><trkpt lat="44.877400816754786" lon="9.624089713609076"><ele>325.0</ele><time>2026-04-18T10:49:00Z</time></trkpt><trkpt lat="44.87756453184195" lon="9.624156593985425"><ele>325.3333333333333</ele><time>2026-04-18T10:49:01Z</time></trkpt><trkpt lat="44.877717522745215" lon="9.624223908872088"><ele>325.6666666666667</ele><time>2026-04-18T10:49:02Z</time></trkpt><trkpt lat="44.877871904847865" lon="9.624289206285688"><ele>326.0</ele><time>2026-04-18T10:49:03Z</time></trkpt><trkpt lat="44.87803991057969" lon="9.62435800511254"><ele>326.0</ele><time>2026-04-18T10:49:04Z</time></trkpt><trkpt lat="44.87818773148212" lon="9.624427310261053"><ele>326.0</ele><time>2026-04-18T10:49:05Z</time></trkpt><trkpt lat="44.87833992238272" lon="9.6244915567955"><ele>326.0</ele><time>2026-04-18T10:49:06Z</time></trkpt><trkpt lat="44.8785070831415" lon="9.624564804406257"><ele>323.33333333333337</ele><time>2026-04-18T10:49:07Z</time></trkpt><trkpt lat="44.878677887467134" lon="9.62463767967642"><ele>320.6666666666667</ele><time>2026-04-18T10:49:08Z</time></trkpt><trkpt lat="44.87884273631983" lon="9.624710604906916"><ele>318.0</ele><time>2026-04-18T10:49:09Z</time></trkpt><trkpt lat="44.87897783287349" lon="9.624785488404484"><ele>318.0</ele><time>2026-04-18T10:49:10Z</time></trkpt><trkpt lat="44.87908458936217" lon="9.624843128677504"><ele>318.0</ele><time>2026-04-18T10:49:11Z</time></trkpt><trkpt lat="44.879176920779564" lon="9.624879008286905"><ele>318.0</ele><time>2026-04-18T10:49:12Z</time></trkpt><trkpt lat="44.87926157903685" lon="9.624881867849924"><ele>318.0</ele><time>2026-04-18T10:49:13Z</time></trkpt><trkpt lat="44.879361109416216" lon="9.624902548347466"><ele>318.0</ele><time>2026-04-18T10:49:14Z</time></trkpt><trkpt lat="44.879736652215136" lon="9.624752097900874"><ele>319.0</ele><time>2026-04-18T10:49:16Z</time></trkpt><trkpt lat="44.879823421609544" lon="9.624638219806334"><ele>320.0</ele><time>2026-04-18T10:49:17Z</time></trkpt><trkpt lat="44.87990413252064" lon="9.624513919477758"><ele>321.0</ele><time>2026-04-18T10:49:18Z</time></trkpt><trkpt lat="44.879962704349914" lon="9.624388950361347"><ele>322.0</ele><time>2026-04-18T10:49:19Z</time></trkpt><trkpt lat="44.87998522004672" lon="9.624258347816781"><ele>323.0</ele><time>2026-04-18T10:49:20Z</time></trkpt><trkpt lat="44.879970319719675" lon="9.6241356624945"><ele>323.5</ele><time>2026-04-18T10:49:21Z</time></trkpt><trkpt lat="44.87992014524555" lon="9.624002228904917"><ele>324.0</ele><time>2026-04-18T10:49:22Z</time></trkpt><trkpt lat="44.87983304377316" lon="9.623849507670313"><ele>324.5</ele><time>2026-04-18T10:49:23Z</time></trkpt><trkpt lat="44.8797176360531" lon="9.623671980640625"><ele>325.0</ele><time>2026-04-18T10:49:24Z</time></trkpt><trkpt lat="44.87960445561091" lon="9.623477691488164"><ele>323.3333333333333</ele><time>2026-04-18T10:49:25Z</time></trkpt><trkpt lat="44.87952227794518" lon="9.623295617290283"><ele>321.6666666666667</ele><time>2026-04-18T10:49:26Z</time></trkpt><trkpt lat="44.87947071031881" lon="9.62306655694065"><ele>320.0</ele><time>2026-04-18T10:49:27Z</time></trkpt><trkpt lat="44.879406415393575" lon="9.622816020538577"><ele>321.0</ele><time>2026-04-18T10:49:28Z</time></trkpt><trkpt lat="44.87933259336327" lon="9.622602005776827"><ele>322.0</ele><time>2026-04-18T10:49:29Z</time></trkpt><trkpt lat="44.87927818719163" lon="9.622340715012223"><ele>323.0</ele><time>2026-04-18T10:49:30Z</time></trkpt><trkpt lat="44.879197694811715" lon="9.62203920817859"><ele>326.33333333333337</ele><time>2026-04-18T10:49:31Z</time></trkpt><trkpt lat="44.879106684413856" lon="9.621727940537225"><ele>329.6666666666667</ele><time>2026-04-18T10:49:32Z</time></trkpt><trkpt lat="44.879046590192196" lon="9.621486724954519"><ele>333.0</ele><time>2026-04-18T10:49:33Z</time></trkpt><trkpt lat="44.87901673690656" lon="9.62128778185893"><ele>333.75</ele><time>2026-04-18T10:49:34Z</time></trkpt><trkpt lat="44.87903627875331" lon="9.62111535549775"><ele>334.5</ele><time>2026-04-18T10:49:35Z</time></trkpt><trkpt lat="44.87909002053076" lon="9.620982576642396"><ele>335.25</ele><time>2026-04-18T10:49:36Z</time></trkpt><trkpt lat="44.87916395156584" lon="9.620847383523241"><ele>336.0</ele><time>2026-04-18T10:49:37Z</time></trkpt><trkpt lat="44.87930750187095" lon="9.620717432932825"><ele>336.6666666666667</ele><time>2026-04-18T10:49:38Z</time></trkpt><trkpt lat="44.87944402147459" lon="9.620637070511659"><ele>337.33333333333337</ele><time>2026-04-18T10:49:39Z</time></trkpt><trkpt lat="44.87961082882863" lon="9.620685413268882"><ele>338.0</ele><time>2026-04-18T10:49:40Z</time></trkpt><trkpt lat="44.87979574215074" lon="9.620721904526185"><ele>338.0</ele><time>2026-04-18T10:49:41Z</time></trkpt><trkpt lat="44.87998795930521" lon="9.620748141321862"><ele>338.0</ele><time>2026-04-18T10:49:42Z</time></trkpt><trkpt lat="44.88018287697579" lon="9.620793031523258"><ele>338.0</ele><time>2026-04-18T10:49:43Z</time></trkpt><trkpt lat="44.88038095554092" lon="9.620831112015171"><ele>340.0</ele><time>2026-04-18T10:49:44Z</time></trkpt><trkpt lat="44.88055694187119" lon="9.620858261828877"><ele>342.0</ele><time>2026-04-18T10:49:45Z</time></trkpt><trkpt lat="44.880709785188536" lon="9.620891988819102"><ele>344.0</ele><time>2026-04-18T10:49:46Z</time></trkpt><trkpt lat="44.880825804273854" lon="9.621008020319673"><ele>341.79999999999995</ele><time>2026-04-18T10:49:47Z</time></trkpt><trkpt lat="44.88093274285663" lon="9.621108958174922"><ele>339.59999999999997</ele><time>2026-04-18T10:49:48Z</time></trkpt><trkpt lat="44.88102349157433" lon="9.621178510742313"><ele>337.4</ele><time>2026-04-18T10:49:49Z</time></trkpt><trkpt lat="44.88111461201432" lon="9.621211806666754"><ele>335.2</ele><time>2026-04-18T10:49:50Z</time></trkpt><trkpt lat="44.88120386111841" lon="9.621168393871462"><ele>333.0</ele><time>2026-04-18T10:49:51Z</time></trkpt><trkpt lat="44.88127010564502" lon="9.62106523329691"><ele>333.0</ele><time>2026-04-18T10:49:52Z</time></trkpt><trkpt lat="44.88132940054059" lon="9.620959964088106"><ele>333.0</ele><time>2026-04-18T10:49:53Z</time></trkpt><trkpt lat="44.881296854861304" lon="9.620783387511402"><ele>333.0</ele><time>2026-04-18T10:49:54Z</time></trkpt><trkpt lat="44.88125035043253" lon="9.620622092971551"><ele>333.0</ele><time>2026-04-18T10:49:55Z</time></trkpt><trkpt lat="44.88119389930548" lon="9.620445012107067"><ele>332.75</ele><time>2026-04-18T10:49:56Z</time></trkpt><trkpt lat="44.88118960076989" lon="9.620247274633002"><ele>332.5</ele><time>2026-04-18T10:49:57Z</time></trkpt><trkpt lat="44.88119596901966" lon="9.620045798645132"><ele>332.25</ele><time>2026-04-18T10:49:58Z</time></trkpt><trkpt lat="44.88123981617401" lon="9.619872804596309"><ele>332.0</ele><time>2026-04-18T10:49:59Z</time></trkpt><trkpt lat="44.8813277251727" lon="9.619750613369208"><ele>332.0</ele><time>2026-04-18T10:50:00Z</time></trkpt><trkpt lat="44.881417988959505" lon="9.61961168206082"><ele>332.0</ele><time>2026-04-18T10:50:01Z</time></trkpt><trkpt lat="44.88148616396548" lon="9.619462257618446"><ele>332.0</ele><time>2026-04-18T10:50:02Z</time></trkpt><trkpt lat="44.881526779475564" lon="9.619296620278678"><ele>332.0</ele><time>2026-04-18T10:50:03Z</time></trkpt><trkpt lat="44.881530942069155" lon="9.619112693019762"><ele>332.0</ele><time>2026-04-18T10:50:04Z</time></trkpt><trkpt lat="44.88151555212254" lon="9.618901390837365"><ele>332.0</ele><time>2026-04-18T10:50:05Z</time></trkpt><trkpt lat="44.88148682025579" lon="9.618653362943949"><ele>332.0</ele><time>2026-04-18T10:50:06Z</time></trkpt><trkpt lat="44.88142525127091" lon="9.618378101765709"><ele>332.0</ele><time>2026-04-18T10:50:07Z</time></trkpt><trkpt lat="44.88136827606616" lon="9.61810858302323"><ele>332.0</ele><time>2026-04-18T10:50:08Z</time></trkpt><trkpt lat="44.88131547449489" lon="9.617881257808783"><ele>332.0</ele><time>2026-04-18T10:50:09Z</time></trkpt><trkpt lat="44.88130055237817" lon="9.61765691764982"><ele>332.25</ele><time>2026-04-18T10:50:10Z</time></trkpt><trkpt lat="44.88126222095408" lon="9.617452993965149"><ele>332.5</ele><time>2026-04-18T10:50:11Z</time></trkpt><trkpt lat="44.881254048845406" lon="9.617250809877973"><ele>332.75</ele><time>2026-04-18T10:50:12Z</time></trkpt><trkpt lat="44.88127910871643" lon="9.617071500465828"><ele>333.0</ele><time>2026-04-18T10:50:13Z</time></trkpt><trkpt lat="44.88133394200011" lon="9.616918504033176"><ele>334.3333333333333</ele><time>2026-04-18T10:50:14Z</time></trkpt><trkpt lat="44.88143216940743" lon="9.616781721906868"><ele>335.66666666666663</ele><time>2026-04-18T10:50:15Z</time></trkpt><trkpt lat="44.88157203343541" lon="9.616656098412486"><ele>337.0</ele><time>2026-04-18T10:50:16Z</time></trkpt><trkpt lat="44.881698896070276" lon="9.616504213083058"><ele>338.0</ele><time>2026-04-18T10:50:17Z</time></trkpt><trkpt lat="44.881804364812666" lon="9.616374262766465"><ele>339.0</ele><time>2026-04-18T10:50:18Z</time></trkpt><trkpt lat="44.88189200940841" lon="9.61620926562718"><ele>340.0</ele><time>2026-04-18T10:50:19Z</time></trkpt><trkpt lat="44.88196824766567" lon="9.615998695689136"><ele>340.0</ele><time>2026-04-18T10:50:20Z</time></trkpt><trkpt lat="44.88202890768401" lon="9.615803254059996"><ele>340.0</ele><time>2026-04-18T10:50:21Z</time></trkpt><trkpt lat="44.88210730899287" lon="9.615665383651608"><ele>340.0</ele><time>2026-04-18T10:50:22Z</time></trkpt><trkpt lat="44.882182120910606" lon="9.615531642272034"><ele>340.0</ele><time>2026-04-18T10:50:23Z</time></trkpt><trkpt lat="44.882318074040995" lon="9.615497048880526"><ele>340.0</ele><time>2026-04-18T10:50:24Z</time></trkpt><trkpt lat="44.88244337591378" lon="9.615488233617786"><ele>340.0</ele><time>2026-04-18T10:50:25Z</time></trkpt><trkpt lat="44.882570916495425" lon="9.615583478099213"><ele>340.0</ele><time>2026-04-18T10:50:26Z</time></trkpt><trkpt lat="44.88263325603801" lon="9.615779703406574"><ele>340.0</ele><time>2026-04-18T10:50:27Z</time></trkpt><trkpt lat="44.88270484681856" lon="9.615992609518862"><ele>339.0</ele><time>2026-04-18T10:50:28Z</time></trkpt><trkpt lat="44.8827860016991" lon="9.616188704620162"><ele>338.0</ele><time>2026-04-18T10:50:29Z</time></trkpt><trkpt lat="44.88283542351853" lon="9.616350392826526"><ele>337.0</ele><time>2026-04-18T10:50:29.999Z</time></trkpt><trkpt lat="44.882906352233384" lon="9.616463699271597"><ele>336.0</ele><time>2026-04-18T10:50:30.999Z</time></trkpt><trkpt lat="44.88300534388975" lon="9.61652602352378"><ele>336.0</ele><time>2026-04-18T10:50:31.999Z</time></trkpt><trkpt lat="44.883128865683055" lon="9.616540624155293"><ele>336.0</ele><time>2026-04-18T10:50:32.999Z</time></trkpt><trkpt lat="44.883274774892136" lon="9.616500766101716"><ele>336.0</ele><time>2026-04-18T10:50:33.999Z</time></trkpt><trkpt lat="44.883430727053515" lon="9.616430027172633"><ele>336.0</ele><time>2026-04-18T10:50:34.999Z</time></trkpt><trkpt lat="44.883566613376736" lon="9.616369677785597"><ele>337.0</ele><time>2026-04-18T10:50:35.999Z</time></trkpt><trkpt lat="44.883692687194404" lon="9.616356153560515"><ele>338.0</ele><time>2026-04-18T10:50:36.999Z</time></trkpt><trkpt lat="44.883822142826034" lon="9.616417409940647"><ele>339.0</ele><time>2026-04-18T10:50:37.999Z</time></trkpt><trkpt lat="44.88397402833609" lon="9.616456372507693"><ele>340.0</ele><time>2026-04-18T10:50:38.999Z</time></trkpt><trkpt lat="44.88413572978175" lon="9.616534832869602"><ele>340.66666666666663</ele><time>2026-04-18T10:50:39.999Z</time></trkpt><trkpt lat="44.88429684060325" lon="9.616589890751868"><ele>341.3333333333333</ele><time>2026-04-18T10:50:40.999Z</time></trkpt><trkpt lat="44.88447366287624" lon="9.616610277480282"><ele>342.0</ele><time>2026-04-18T10:50:41.999Z</time></trkpt><trkpt lat="44.88467378387448" lon="9.616614070504426"><ele>342.0</ele><time>2026-04-18T10:50:42.999Z</time></trkpt><trkpt lat="44.884870263335515" lon="9.616611023098075"><ele>342.0</ele><time>2026-04-18T10:50:43.999Z</time></trkpt><trkpt lat="44.88504009292816" lon="9.616608713272159"><ele>342.0</ele><time>2026-04-18T10:50:44.999Z</time></trkpt><trkpt lat="44.88519196877912" lon="9.616610960721"><ele>341.6</ele><time>2026-04-18T10:50:45.999Z</time></trkpt><trkpt lat="44.88532640406738" lon="9.616614629783456"><ele>341.20000000000005</ele><time>2026-04-18T10:50:46.999Z</time></trkpt><trkpt lat="44.88543519073188" lon="9.616598892185996"><ele>340.8</ele><time>2026-04-18T10:50:47.999Z</time></trkpt><trkpt lat="44.88551425282874" lon="9.616540298165141"><ele>340.4</ele><time>2026-04-18T10:50:48.999Z</time></trkpt><trkpt lat="44.88557509585506" lon="9.616435590721158"><ele>340.0</ele><time>2026-04-18T10:50:49.999Z</time></trkpt><trkpt lat="44.885614064850536" lon="9.616290030626958"><ele>341.0</ele><time>2026-04-18T10:50:50.999Z</time></trkpt><trkpt lat="44.88561817487931" lon="9.616121687364698"><ele>342.0</ele><time>2026-04-18T10:50:51.999Z</time></trkpt><trkpt lat="44.88557796405489" lon="9.615951999944432"><ele>343.0</ele><time>2026-04-18T10:50:52.999Z</time></trkpt><trkpt lat="44.88550118764759" lon="9.615824038027542"><ele>344.0</ele><time>2026-04-18T10:50:53.999Z</time></trkpt><trkpt lat="44.8854081651457" lon="9.615721885275823"><ele>344.0</ele><time>2026-04-18T10:50:54.999Z</time></trkpt><trkpt lat="44.88532409066625" lon="9.615581967237505"><ele>344.0</ele><time>2026-04-18T10:50:55.999Z</time></trkpt><trkpt lat="44.885215009269366" lon="9.615457027237163"><ele>344.0</ele><time>2026-04-18T10:50:56.999Z</time></trkpt><trkpt lat="44.88515343632118" lon="9.615296439654417"><ele>344.0</ele><time>2026-04-18T10:50:57.999Z</time></trkpt><trkpt lat="44.88510044007956" lon="9.615151107543054"><ele>346.0</ele><time>2026-04-18T10:50:58.999Z</time></trkpt><trkpt lat="44.88505714979228" lon="9.6149824005738"><ele>348.0</ele><time>2026-04-18T10:50:59.999Z</time></trkpt><trkpt lat="44.88502037605932" lon="9.614773580108785"><ele>350.0</ele><time>2026-04-18T10:51:00.999Z</time></trkpt><trkpt lat="44.885023196391096" lon="9.614517658417647"><ele>348.6666666666667</ele><time>2026-04-18T10:51:01.999Z</time></trkpt><trkpt lat="44.88503030122475" lon="9.614279811977694"><ele>347.3333333333333</ele><time>2026-04-18T10:51:03Z</time></trkpt><trkpt lat="44.88503606464094" lon="9.61406582343972"><ele>346.0</ele><time>2026-04-18T10:51:04Z</time></trkpt><trkpt lat="44.88503720417105" lon="9.61386923177669"><ele>346.0</ele><time>2026-04-18T10:51:05Z</time></trkpt><trkpt lat="44.88504165071873" lon="9.61367914508008"><ele>346.0</ele><time>2026-04-18T10:51:06Z</time></trkpt><trkpt lat="44.88504926901043" lon="9.613476757761765"><ele>346.0</ele><time>2026-04-18T10:51:07Z</time></trkpt><trkpt lat="44.885061732916895" lon="9.61326217021361"><ele>346.0</ele><time>2026-04-18T10:51:08Z</time></trkpt><trkpt lat="44.88507751208169" lon="9.613044279300333"><ele>344.3333333333333</ele><time>2026-04-18T10:51:09Z</time></trkpt><trkpt lat="44.88509333420595" lon="9.612821525594363"><ele>342.6666666666667</ele><time>2026-04-18T10:51:10Z</time></trkpt><trkpt lat="44.885108675670146" lon="9.612605721152216"><ele>341.0</ele><time>2026-04-18T10:51:11Z</time></trkpt><trkpt lat="44.885125504753475" lon="9.61238273616797"><ele>340.0</ele><time>2026-04-18T10:51:12Z</time></trkpt><trkpt lat="44.88514019381669" lon="9.612138283288617"><ele>339.0</ele><time>2026-04-18T10:51:13Z</time></trkpt><trkpt lat="44.885154241093495" lon="9.611878180013083"><ele>338.0</ele><time>2026-04-18T10:51:14Z</time></trkpt><trkpt lat="44.88517168752385" lon="9.61162164331277"><ele>338.0</ele><time>2026-04-18T10:51:15Z</time></trkpt><trkpt lat="44.8851905345154" lon="9.611410039633915"><ele>338.0</ele><time>2026-04-18T10:51:16Z</time></trkpt><trkpt lat="44.88520707647333" lon="9.611210831815132"><ele>338.0</ele><time>2026-04-18T10:51:17Z</time></trkpt><trkpt lat="44.885209745742564" lon="9.611033583731368"><ele>338.0</ele><time>2026-04-18T10:51:18Z</time></trkpt><trkpt lat="44.8851864245095" lon="9.610860766145514"><ele>338.0</ele><time>2026-04-18T10:51:19Z</time></trkpt><trkpt lat="44.8851223787701" lon="9.610688335396272"><ele>338.0</ele><time>2026-04-18T10:51:20Z</time></trkpt><trkpt lat="44.885020789244294" lon="9.61049649042838"><ele>338.0</ele><time>2026-04-18T10:51:21Z</time></trkpt><trkpt lat="44.88490400247066" lon="9.610269170957954"><ele>340.6666666666667</ele><time>2026-04-18T10:51:22Z</time></trkpt><trkpt lat="44.884787906894296" lon="9.610039053482739"><ele>343.3333333333333</ele><time>2026-04-18T10:51:23Z</time></trkpt><trkpt lat="44.88469441293671" lon="9.6098281660541"><ele>346.0</ele><time>2026-04-18T10:51:24Z</time></trkpt><trkpt lat="44.884579209126244" lon="9.609656842331194"><ele>349.66666666666663</ele><time>2026-04-18T10:51:25Z</time></trkpt><trkpt lat="44.88448433328646" lon="9.609452866375358"><ele>353.3333333333333</ele><time>2026-04-18T10:51:26Z</time></trkpt><trkpt lat="44.88435155808475" lon="9.609274277118313"><ele>357.0</ele><time>2026-04-18T10:51:27Z</time></trkpt><trkpt lat="44.88422664251831" lon="9.609088489834356"><ele>357.0</ele><time>2026-04-18T10:51:28Z</time></trkpt><trkpt lat="44.884113848179574" lon="9.608921084074543"><ele>357.0</ele><time>2026-04-18T10:51:29Z</time></trkpt><trkpt lat="44.88399951503295" lon="9.608750399165203"><ele>357.0</ele><time>2026-04-18T10:51:30Z</time></trkpt><trkpt lat="44.883920267846484" lon="9.608560482363702"><ele>352.0</ele><time>2026-04-18T10:51:31Z</time></trkpt><trkpt lat="44.883855666901425" lon="9.608368823865092"><ele>347.0</ele><time>2026-04-18T10:51:32Z</time></trkpt><trkpt lat="44.8838279950034" lon="9.608149093778973"><ele>342.0</ele><time>2026-04-18T10:51:33Z</time></trkpt><trkpt lat="44.88381517798224" lon="9.607925031204912"><ele>340.6</ele><time>2026-04-18T10:51:34Z</time></trkpt><trkpt lat="44.88378828765815" lon="9.607745275032185"><ele>339.20000000000005</ele><time>2026-04-18T10:51:35Z</time></trkpt><trkpt lat="44.88376959786043" lon="9.607600286125509"><ele>337.8</ele><time>2026-04-18T10:51:36Z</time></trkpt><trkpt lat="44.88371531058746" lon="9.60747832851268"><ele>336.4</ele><time>2026-04-18T10:51:37Z</time></trkpt><trkpt lat="44.88362565298836" lon="9.607387473249563"><ele>335.0</ele><time>2026-04-18T10:51:38Z</time></trkpt><trkpt lat="44.88350353677184" lon="9.607316893901235"><ele>341.0</ele><time>2026-04-18T10:51:39Z</time></trkpt><trkpt lat="44.88334991850336" lon="9.607266478451626"><ele>347.0</ele><time>2026-04-18T10:51:40Z</time></trkpt><trkpt lat="44.88318666756576" lon="9.60721507275816"><ele>353.0</ele><time>2026-04-18T10:51:41Z</time></trkpt><trkpt lat="44.88304850185705" lon="9.607126626702186"><ele>353.0</ele><time>2026-04-18T10:51:42Z</time></trkpt><trkpt lat="44.882921332740835" lon="9.607023642253685"><ele>353.0</ele><time>2026-04-18T10:51:43Z</time></trkpt><trkpt lat="44.882793673883654" lon="9.606873625989703"><ele>353.0</ele><time>2026-04-18T10:51:44Z</time></trkpt><trkpt lat="44.882683183976326" lon="9.606725961030683"><ele>352.0</ele><time>2026-04-18T10:51:45Z</time></trkpt><trkpt lat="44.88259854128055" lon="9.606577280354417"><ele>351.0</ele><time>2026-04-18T10:51:46Z</time></trkpt><trkpt lat="44.88252655028002" lon="9.606435875348739"><ele>350.0</ele><time>2026-04-18T10:51:47Z</time></trkpt><trkpt lat="44.882530797627126" lon="9.606275184378271"><ele>349.0</ele><time>2026-04-18T10:51:48Z</time></trkpt><trkpt lat="44.882555637097134" lon="9.606098562895575"><ele>349.0</ele><time>2026-04-18T10:51:49Z</time></trkpt><trkpt lat="44.882583777779985" lon="9.605915908458446"><ele>349.0</ele><time>2026-04-18T10:51:50Z</time></trkpt><trkpt lat="44.882650450200494" lon="9.605711728110924"><ele>349.0</ele><time>2026-04-18T10:51:51Z</time></trkpt><trkpt lat="44.882704912287785" lon="9.605537940830233"><ele>349.0</ele><time>2026-04-18T10:51:52Z</time></trkpt><trkpt lat="44.882744992010224" lon="9.605370779632285"><ele>346.5</ele><time>2026-04-18T10:51:53Z</time></trkpt><trkpt lat="44.882803101444715" lon="9.605217036513205"><ele>344.0</ele><time>2026-04-18T10:51:54Z</time></trkpt><trkpt lat="44.88288730879636" lon="9.605101121504129"><ele>341.5</ele><time>2026-04-18T10:51:55Z</time></trkpt><trkpt lat="44.88302099995679" lon="9.605037282583814"><ele>339.0</ele><time>2026-04-18T10:51:56Z</time></trkpt><trkpt lat="44.88317247221026" lon="9.604960977529288"><ele>339.0</ele><time>2026-04-18T10:51:57Z</time></trkpt><trkpt lat="44.88332599499944" lon="9.604879649125737"><ele>339.0</ele><time>2026-04-18T10:51:58Z</time></trkpt><trkpt lat="44.88346877583966" lon="9.604802671168011"><ele>339.0</ele><time>2026-04-18T10:51:59Z</time></trkpt><trkpt lat="44.88362301330967" lon="9.604695378024601"><ele>340.3333333333333</ele><time>2026-04-18T10:52:00Z</time></trkpt><trkpt lat="44.88379263618419" lon="9.604630633135944"><ele>341.66666666666663</ele><time>2026-04-18T10:52:01Z</time></trkpt><trkpt lat="44.88397406389939" lon="9.604547591988537"><ele>343.0</ele><time>2026-04-18T10:52:02Z</time></trkpt><trkpt lat="44.884157388447946" lon="9.604482740243476"><ele>342.66666666666663</ele><time>2026-04-18T10:52:03Z</time></trkpt><trkpt lat="44.88435260740136" lon="9.60443531962332"><ele>342.3333333333333</ele><time>2026-04-18T10:52:04Z</time></trkpt><trkpt lat="44.88454957601747" lon="9.604403161291247"><ele>342.0</ele><time>2026-04-18T10:52:05Z</time></trkpt><trkpt lat="44.884728658831975" lon="9.604374741660193"><ele>342.0</ele><time>2026-04-18T10:52:06Z</time></trkpt><trkpt lat="44.88489034394317" lon="9.604346207758534"><ele>342.0</ele><time>2026-04-18T10:52:07Z</time></trkpt><trkpt lat="44.885033489596516" lon="9.604293559603322"><ele>342.0</ele><time>2026-04-18T10:52:08Z</time></trkpt><trkpt lat="44.88515954667095" lon="9.604260546857281"><ele>342.0</ele><time>2026-04-18T10:52:09Z</time></trkpt><trkpt lat="44.88526645105686" lon="9.60418262605392"><ele>340.0</ele><time>2026-04-18T10:52:10Z</time></trkpt><trkpt lat="44.885364847547486" lon="9.604061853126685"><ele>338.0</ele><time>2026-04-18T10:52:11Z</time></trkpt><trkpt lat="44.88545178927602" lon="9.603943442471675"><ele>336.0</ele><time>2026-04-18T10:52:12Z</time></trkpt><trkpt lat="44.88549030157608" lon="9.60378174853296"><ele>334.0</ele><time>2026-04-18T10:52:13Z</time></trkpt><trkpt lat="44.8854853169125" lon="9.60360679470635"><ele>334.0</ele><time>2026-04-18T10:52:14Z</time></trkpt><trkpt lat="44.8854587771043" lon="9.603430494101094"><ele>334.0</ele><time>2026-04-18T10:52:15Z</time></trkpt><trkpt lat="44.88539925736683" lon="9.603264771270984"><ele>334.0</ele><time>2026-04-18T10:52:16Z</time></trkpt><trkpt lat="44.88530545428657" lon="9.603111311179463"><ele>334.0</ele><time>2026-04-18T10:52:17Z</time></trkpt><trkpt lat="44.885175961905475" lon="9.602931577081742"><ele>336.0</ele><time>2026-04-18T10:52:18Z</time></trkpt><trkpt lat="44.88505952677409" lon="9.602752584555601"><ele>338.0</ele><time>2026-04-18T10:52:19Z</time></trkpt><trkpt lat="44.88496812127252" lon="9.602582662353313"><ele>340.0</ele><time>2026-04-18T10:52:20Z</time></trkpt><trkpt lat="44.88490733048482" lon="9.60241225150695"><ele>340.0</ele><time>2026-04-18T10:52:21Z</time></trkpt><trkpt lat="44.8848505089427" lon="9.602241202125555"><ele>340.0</ele><time>2026-04-18T10:52:22Z</time></trkpt><trkpt lat="44.88482658326485" lon="9.602050840862693"><ele>340.0</ele><time>2026-04-18T10:52:23Z</time></trkpt><trkpt lat="44.8848471910759" lon="9.601873207323433"><ele>340.0</ele><time>2026-04-18T10:52:24Z</time></trkpt><trkpt lat="44.88488152137222" lon="9.601706402873631"><ele>339.66666666666663</ele><time>2026-04-18T10:52:25Z</time></trkpt><trkpt lat="44.884973215101404" lon="9.601553774967474"><ele>339.3333333333333</ele><time>2026-04-18T10:52:26Z</time></trkpt><trkpt lat="44.88509185281897" lon="9.601405810563936"><ele>339.0</ele><time>2026-04-18T10:52:27Z</time></trkpt><trkpt lat="44.885198471596304" lon="9.601253732104633"><ele>338.79999999999995</ele><time>2026-04-18T10:52:28Z</time></trkpt><trkpt lat="44.88529255166714" lon="9.601161812931606"><ele>338.59999999999997</ele><time>2026-04-18T10:52:29Z</time></trkpt><trkpt lat="44.88538415873646" lon="9.601056440663505"><ele>338.4</ele><time>2026-04-18T10:52:31Z</time></trkpt><trkpt lat="44.88543693025936" lon="9.600990540553966"><ele>338.2</ele><time>2026-04-18T10:52:32.999Z</time></trkpt><trkpt lat="44.88548688804403" lon="9.600933157878355"><ele>338.0</ele><time>2026-04-18T10:52:35.999Z</time></trkpt><trkpt lat="44.88540994167501" lon="9.600795002178339"><ele>338.0</ele><time>2026-04-18T10:52:38.999Z</time></trkpt><trkpt lat="44.88531413287066" lon="9.600678139212604"><ele>338.0</ele><time>2026-04-18T10:52:40.999Z</time></trkpt><trkpt lat="44.8852333368238" lon="9.600592159537127"><ele>338.0</ele><time>2026-04-18T10:52:41.999Z</time></trkpt><trkpt lat="44.88515621900409" lon="9.600476882967715"><ele>338.0</ele><time>2026-04-18T10:52:42.999Z</time></trkpt><trkpt lat="44.88506653477144" lon="9.600351072815604"><ele>341.5</ele><time>2026-04-18T10:52:43.999Z</time></trkpt><trkpt lat="44.884963516232645" lon="9.60020791840916"><ele>345.0</ele><time>2026-04-18T10:52:44.999Z</time></trkpt><trkpt lat="44.88486588973889" lon="9.600071035548732"><ele>348.5</ele><time>2026-04-18T10:52:45.999Z</time></trkpt><trkpt lat="44.884746731665984" lon="9.599926973837942"><ele>352.0</ele><time>2026-04-18T10:52:46.999Z</time></trkpt><trkpt lat="44.88460844638636" lon="9.599791721091012"><ele>352.0</ele><time>2026-04-18T10:52:47.999Z</time></trkpt><trkpt lat="44.88446400396449" lon="9.599661446413482"><ele>352.0</ele><time>2026-04-18T10:52:48.999Z</time></trkpt><trkpt lat="44.88431431383365" lon="9.599525894502571"><ele>352.0</ele><time>2026-04-18T10:52:49.999Z</time></trkpt><trkpt lat="44.88414684840876" lon="9.599377838716201"><ele>354.66666666666663</ele><time>2026-04-18T10:52:50.999Z</time></trkpt><trkpt lat="44.88398814416702" lon="9.599235134494629"><ele>357.3333333333333</ele><time>2026-04-18T10:52:51.999Z</time></trkpt><trkpt lat="44.88382162743687" lon="9.59908918891568"><ele>360.0</ele><time>2026-04-18T10:52:52.999Z</time></trkpt><trkpt lat="44.883662968884394" lon="9.598945515893012"><ele>360.0</ele><time>2026-04-18T10:52:53.999Z</time></trkpt><trkpt lat="44.8835287244314" lon="9.598820843937908"><ele>360.0</ele><time>2026-04-18T10:52:54.999Z</time></trkpt><trkpt lat="44.88340779352983" lon="9.59870956034331"><ele>360.0</ele><time>2026-04-18T10:52:55.999Z</time></trkpt><trkpt lat="44.88327895697655" lon="9.598583957689414"><ele>364.6666666666667</ele><time>2026-04-18T10:52:56.999Z</time></trkpt><trkpt lat="44.88314989956397" lon="9.598376088752634"><ele>369.33333333333337</ele><time>2026-04-18T10:52:57.999Z</time></trkpt><trkpt lat="44.88299766814154" lon="9.598122600120789"><ele>374.0</ele><time>2026-04-18T10:52:58.999Z</time></trkpt><trkpt lat="44.88281396002823" lon="9.597843272847342"><ele>375.25</ele><time>2026-04-18T10:52:59.999Z</time></trkpt><trkpt lat="44.882717251063895" lon="9.597643980123491"><ele>376.5</ele><time>2026-04-18T10:53:01.999Z</time></trkpt><trkpt lat="44.88264030102725" lon="9.597483633641804"><ele>377.75</ele><time>2026-04-18T10:53:02.999Z</time></trkpt><trkpt lat="44.88258318109651" lon="9.597329904542796"><ele>379.0</ele><time>2026-04-18T10:53:03.999Z</time></trkpt><trkpt lat="44.88254449559956" lon="9.597195254544458"><ele>380.5</ele><time>2026-04-18T10:53:04.999Z</time></trkpt><trkpt lat="44.882520564706645" lon="9.597081461763196"><ele>382.0</ele><time>2026-04-18T10:53:05.999Z</time></trkpt><trkpt lat="44.882521105844575" lon="9.596969834634564"><ele>383.5</ele><time>2026-04-18T10:53:06.999Z</time></trkpt><trkpt lat="44.8825332584036" lon="9.596878581290134"><ele>385.0</ele><time>2026-04-18T10:53:07.999Z</time></trkpt><trkpt lat="44.882505668574304" lon="9.596771432526834"><ele>386.50000000000006</ele><time>2026-04-18T10:53:08.999Z</time></trkpt><trkpt lat="44.88243454816474" lon="9.59668865127345"><ele>388.0</ele><time>2026-04-18T10:53:09.999Z</time></trkpt><trkpt lat="44.882343251183116" lon="9.596625764882635"><ele>388.0</ele><time>2026-04-18T10:53:10.999Z</time></trkpt><trkpt lat="44.88223298619631" lon="9.59660208235604"><ele>388.0</ele><time>2026-04-18T10:53:11.999Z</time></trkpt><trkpt lat="44.882101093965794" lon="9.596587120023345"><ele>388.0</ele><time>2026-04-18T10:53:12.999Z</time></trkpt><trkpt lat="44.88195418343193" lon="9.596563680500633"><ele>388.0</ele><time>2026-04-18T10:53:13.999Z</time></trkpt><trkpt lat="44.88181880180053" lon="9.596469012142867"><ele>388.25</ele><time>2026-04-18T10:53:14.999Z</time></trkpt><trkpt lat="44.88169083568129" lon="9.596400043644696"><ele>388.5</ele><time>2026-04-18T10:53:15.999Z</time></trkpt><trkpt lat="44.88157539652001" lon="9.5963051135677"><ele>388.75</ele><time>2026-04-18T10:53:16.999Z</time></trkpt><trkpt lat="44.88145578456412" lon="9.59620234179658"><ele>389.0</ele><time>2026-04-18T10:53:17.999Z</time></trkpt><trkpt lat="44.881347605186974" lon="9.596091578137987"><ele>388.0</ele><time>2026-04-18T10:53:19Z</time></trkpt><trkpt lat="44.88123233167676" lon="9.595983604487632"><ele>387.0</ele><time>2026-04-18T10:53:20Z</time></trkpt><trkpt lat="44.88111250153812" lon="9.595887646147466"><ele>386.0</ele><time>2026-04-18T10:53:21Z</time></trkpt><trkpt lat="44.881009890784334" lon="9.59580262400894"><ele>385.0</ele><time>2026-04-18T10:53:22Z</time></trkpt><trkpt lat="44.880905790532815" lon="9.595735084252224"><ele>385.0</ele><time>2026-04-18T10:53:23Z</time></trkpt><trkpt lat="44.8808039215133" lon="9.595671010401952"><ele>385.0</ele><time>2026-04-18T10:53:24Z</time></trkpt><trkpt lat="44.880712023070124" lon="9.59562905998522"><ele>385.0</ele><time>2026-04-18T10:53:25Z</time></trkpt><trkpt lat="44.88061527804733" lon="9.595588844960872"><ele>385.0</ele><time>2026-04-18T10:53:26Z</time></trkpt><trkpt lat="44.880502782334865" lon="9.595551057884114"><ele>385.0</ele><time>2026-04-18T10:53:27Z</time></trkpt><trkpt lat="44.88037836232827" lon="9.59551756535464"><ele>385.0</ele><time>2026-04-18T10:53:28Z</time></trkpt><trkpt lat="44.88026431949049" lon="9.595480564335384"><ele>385.0</ele><time>2026-04-18T10:53:29Z</time></trkpt><trkpt lat="44.880157259960406" lon="9.595451223733846"><ele>385.0</ele><time>2026-04-18T10:53:30Z</time></trkpt><trkpt lat="44.88005481382283" lon="9.595429864848487"><ele>385.0</ele><time>2026-04-18T10:53:31Z</time></trkpt><trkpt lat="44.87996239599571" lon="9.595447138100274"><ele>385.0</ele><time>2026-04-18T10:53:32Z</time></trkpt><trkpt lat="44.879883872636206" lon="9.595506343290575"><ele>386.0</ele><time>2026-04-18T10:53:33Z</time></trkpt><trkpt lat="44.879804762169925" lon="9.595577796340764"><ele>387.0</ele><time>2026-04-18T10:53:34Z</time></trkpt><trkpt lat="44.879709367156" lon="9.595665725384928"><ele>388.0</ele><time>2026-04-18T10:53:35Z</time></trkpt><trkpt lat="44.879611831123135" lon="9.595738205536774"><ele>389.0</ele><time>2026-04-18T10:53:36Z</time></trkpt><trkpt lat="44.879515510680726" lon="9.595773576601792"><ele>390.0</ele><time>2026-04-18T10:53:37Z</time></trkpt><trkpt lat="44.87942308332562" lon="9.595762786906146"><ele>390.0</ele><time>2026-04-18T10:53:38Z</time></trkpt><trkpt lat="44.87934501893045" lon="9.595670192270203"><ele>390.0</ele><time>2026-04-18T10:53:39Z</time></trkpt><trkpt lat="44.87927746492289" lon="9.59554856897688"><ele>390.0</ele><time>2026-04-18T10:53:40Z</time></trkpt><trkpt lat="44.87918192396339" lon="9.595415882973512"><ele>390.0</ele><time>2026-04-18T10:53:41Z</time></trkpt><trkpt lat="44.87909970736255" lon="9.595252160315702"><ele>386.25</ele><time>2026-04-18T10:53:42Z</time></trkpt><trkpt lat="44.8790217471552" lon="9.595094823759977"><ele>382.5</ele><time>2026-04-18T10:53:43Z</time></trkpt><trkpt lat="44.87893235610306" lon="9.594971139235833"><ele>378.75</ele><time>2026-04-18T10:53:44Z</time></trkpt><trkpt lat="44.878816229604496" lon="9.594848701422329"><ele>375.0</ele><time>2026-04-18T10:53:45Z</time></trkpt><trkpt lat="44.87869819790611" lon="9.594734658601833"><ele>375.0</ele><time>2026-04-18T10:53:46Z</time></trkpt><trkpt lat="44.87860145710561" lon="9.594595497508385"><ele>375.0</ele><time>2026-04-18T10:53:47Z</time></trkpt><trkpt lat="44.878489850571356" lon="9.59449566703606"><ele>375.0</ele><time>2026-04-18T10:53:48Z</time></trkpt><trkpt lat="44.87839868162413" lon="9.594386718869934"><ele>375.0</ele><time>2026-04-18T10:53:49Z</time></trkpt><trkpt lat="44.87833054381262" lon="9.594272010977988"><ele>374.2</ele><time>2026-04-18T10:53:50Z</time></trkpt><trkpt lat="44.87830535126415" lon="9.594122541468822"><ele>373.4</ele><time>2026-04-18T10:53:51Z</time></trkpt><trkpt lat="44.87826715671159" lon="9.593983170573077"><ele>372.6</ele><time>2026-04-18T10:53:52Z</time></trkpt><trkpt lat="44.87822060578084" lon="9.593857565670152"><ele>371.8</ele><time>2026-04-18T10:53:53Z</time></trkpt><trkpt lat="44.878171828848636" lon="9.593761076139169"><ele>371.0</ele><time>2026-04-18T10:53:54Z</time></trkpt><trkpt lat="44.87809733032028" lon="9.593644166507564"><ele>368.25</ele><time>2026-04-18T10:53:55Z</time></trkpt><trkpt lat="44.87800410755054" lon="9.593539719097173"><ele>365.5</ele><time>2026-04-18T10:53:56Z</time></trkpt><trkpt lat="44.87789955481871" lon="9.593432607208872"><ele>362.75</ele><time>2026-04-18T10:53:57Z</time></trkpt><trkpt lat="44.8777965320995" lon="9.593284586500786"><ele>360.0</ele><time>2026-04-18T10:53:58Z</time></trkpt><trkpt lat="44.877698565049" lon="9.593138086251654"><ele>360.0</ele><time>2026-04-18T10:53:59Z</time></trkpt><trkpt lat="44.87761594827244" lon="9.593002580490499"><ele>360.0</ele><time>2026-04-18T10:54:00Z</time></trkpt><trkpt lat="44.87753531996931" lon="9.59286691150594"><ele>360.0</ele><time>2026-04-18T10:54:01Z</time></trkpt><trkpt lat="44.877446733066115" lon="9.592719764295918"><ele>360.0</ele><time>2026-04-18T10:54:02Z</time></trkpt><trkpt lat="44.87735283111473" lon="9.592593165303166"><ele>362.5</ele><time>2026-04-18T10:54:03Z</time></trkpt><trkpt lat="44.87728967689319" lon="9.592450450217948"><ele>365.0</ele><time>2026-04-18T10:54:04Z</time></trkpt><trkpt lat="44.87720845191627" lon="9.592335688400327"><ele>367.5</ele><time>2026-04-18T10:54:05Z</time></trkpt><trkpt lat="44.8771613397735" lon="9.592183267537807"><ele>370.0</ele><time>2026-04-18T10:54:06Z</time></trkpt><trkpt lat="44.87711371398791" lon="9.592007858301546"><ele>368.25</ele><time>2026-04-18T10:54:07Z</time></trkpt><trkpt lat="44.87706074225958" lon="9.591810455992377"><ele>366.5</ele><time>2026-04-18T10:54:08Z</time></trkpt><trkpt lat="44.87700223130624" lon="9.591627007723407"><ele>364.75</ele><time>2026-04-18T10:54:09Z</time></trkpt><trkpt lat="44.87697418480385" lon="9.591449412967538"><ele>363.0</ele><time>2026-04-18T10:54:10Z</time></trkpt><trkpt lat="44.876957663704076" lon="9.591288560545715"><ele>361.75</ele><time>2026-04-18T10:54:11Z</time></trkpt><trkpt lat="44.876958046280336" lon="9.59111754520877"><ele>360.5</ele><time>2026-04-18T10:54:12Z</time></trkpt><trkpt lat="44.87695100798448" lon="9.59093198397844"><ele>359.25</ele><time>2026-04-18T10:54:13Z</time></trkpt><trkpt lat="44.87695954768189" lon="9.590738651137837"><ele>358.0</ele><time>2026-04-18T10:54:14Z</time></trkpt><trkpt lat="44.876975124515454" lon="9.590563701858203"><ele>358.0</ele><time>2026-04-18T10:54:15Z</time></trkpt><trkpt lat="44.876981782998975" lon="9.590401017044881"><ele>358.0</ele><time>2026-04-18T10:54:16Z</time></trkpt><trkpt lat="44.876983653940556" lon="9.590242949384136"><ele>358.0</ele><time>2026-04-18T10:54:17Z</time></trkpt><trkpt lat="44.87695214525139" lon="9.5901013339263"><ele>358.0</ele><time>2026-04-18T10:54:18Z</time></trkpt><trkpt lat="44.87689713705219" lon="9.589974360463238"><ele>358.0</ele><time>2026-04-18T10:54:19Z</time></trkpt><trkpt lat="44.876814951558146" lon="9.589828104329953"><ele>359.75</ele><time>2026-04-18T10:54:20Z</time></trkpt><trkpt lat="44.8767207386815" lon="9.589659066891349"><ele>361.5</ele><time>2026-04-18T10:54:21Z</time></trkpt><trkpt lat="44.876628518626205" lon="9.58948121116563"><ele>363.25</ele><time>2026-04-18T10:54:22Z</time></trkpt><trkpt lat="44.876553901886005" lon="9.589341070876245"><ele>365.0</ele><time>2026-04-18T10:54:23Z</time></trkpt><trkpt lat="44.87649495485809" lon="9.589210104138948"><ele>365.0</ele><time>2026-04-18T10:54:24Z</time></trkpt><trkpt lat="44.876402570482156" lon="9.589126584227262"><ele>365.0</ele><time>2026-04-18T10:54:25Z</time></trkpt><trkpt lat="44.876327701034775" lon="9.589055807320713"><ele>365.0</ele><time>2026-04-18T10:54:26Z</time></trkpt><trkpt lat="44.876265375832105" lon="9.589006930954564"><ele>365.0</ele><time>2026-04-18T10:54:27Z</time></trkpt><trkpt lat="44.87621970998505" lon="9.588940683278222"><ele>365.0</ele><time>2026-04-18T10:54:29Z</time></trkpt><trkpt lat="44.87626820714876" lon="9.588771926279165"><ele>365.0</ele><time>2026-04-18T10:54:34Z</time></trkpt><trkpt lat="44.87633258759754" lon="9.588681204681562"><ele>365.0</ele><time>2026-04-18T10:54:35Z</time></trkpt><trkpt lat="44.87641116447957" lon="9.588584802202144"><ele>365.0</ele><time>2026-04-18T10:54:36Z</time></trkpt><trkpt lat="44.87648852766909" lon="9.588481866265806"><ele>365.0</ele><time>2026-04-18T10:54:37Z</time></trkpt><trkpt lat="44.87656992912919" lon="9.588380593078142"><ele>365.0</ele><time>2026-04-18T10:54:38Z</time></trkpt><trkpt lat="44.876658170684614" lon="9.588276924326824"><ele>363.75</ele><time>2026-04-18T10:54:39Z</time></trkpt><trkpt lat="44.876756881263375" lon="9.588170696832611"><ele>362.5</ele><time>2026-04-18T10:54:40Z</time></trkpt><trkpt lat="44.87685411146665" lon="9.588071762723501"><ele>361.25</ele><time>2026-04-18T10:54:41Z</time></trkpt><trkpt lat="44.87695332608985" lon="9.587966371778984"><ele>360.0</ele><time>2026-04-18T10:54:42Z</time></trkpt><trkpt lat="44.877037260227326" lon="9.587845479614812"><ele>357.0</ele><time>2026-04-18T10:54:43Z</time></trkpt><trkpt lat="44.87713119453056" lon="9.587703632379467"><ele>354.0</ele><time>2026-04-18T10:54:44Z</time></trkpt><trkpt lat="44.877212771270116" lon="9.58753435835577"><ele>351.0</ele><time>2026-04-18T10:54:45Z</time></trkpt><trkpt lat="44.877279461454535" lon="9.587380593113526"><ele>348.0</ele><time>2026-04-18T10:54:46Z</time></trkpt><trkpt lat="44.877349014990415" lon="9.587232578573964"><ele>348.0</ele><time>2026-04-18T10:54:47Z</time></trkpt><trkpt lat="44.87742126345414" lon="9.587099385053103"><ele>348.0</ele><time>2026-04-18T10:54:48Z</time></trkpt><trkpt lat="44.87748343232603" lon="9.586975495728487"><ele>348.0</ele><time>2026-04-18T10:54:49Z</time></trkpt><trkpt lat="44.877529853555814" lon="9.586867086012772"><ele>348.0</ele><time>2026-04-18T10:54:50Z</time></trkpt><trkpt lat="44.87756602921932" lon="9.586756748760868"><ele>348.0</ele><time>2026-04-18T10:54:51Z</time></trkpt><trkpt lat="44.877544350593986" lon="9.586630210617686"><ele>347.2</ele><time>2026-04-18T10:54:52Z</time></trkpt><trkpt lat="44.87752101824966" lon="9.586488693437442"><ele>346.4</ele><time>2026-04-18T10:54:53Z</time></trkpt><trkpt lat="44.877486497356216" lon="9.586330012730464"><ele>345.59999999999997</ele><time>2026-04-18T10:54:54Z</time></trkpt><trkpt lat="44.87745880168608" lon="9.58617509556915"><ele>344.79999999999995</ele><time>2026-04-18T10:54:54.999Z</time></trkpt><trkpt lat="44.87742753183349" lon="9.586029020884443"><ele>344.0</ele><time>2026-04-18T10:54:55.999Z</time></trkpt><trkpt lat="44.87740569026333" lon="9.585884235052756"><ele>342.0</ele><time>2026-04-18T10:54:56.999Z</time></trkpt><trkpt lat="44.877390201758736" lon="9.585721662535986"><ele>340.0</ele><time>2026-04-18T10:54:57.999Z</time></trkpt><trkpt lat="44.877393545335075" lon="9.58556608635431"><ele>338.0</ele><time>2026-04-18T10:54:58.999Z</time></trkpt><trkpt lat="44.87740807422519" lon="9.585403458721578"><ele>336.0</ele><time>2026-04-18T10:54:59.999Z</time></trkpt><trkpt lat="44.877427599184045" lon="9.585253071296679"><ele>334.4</ele><time>2026-04-18T10:55:00.999Z</time></trkpt><trkpt lat="44.87744082439513" lon="9.585099777288534"><ele>332.8</ele><time>2026-04-18T10:55:01.999Z</time></trkpt><trkpt lat="44.877455689214344" lon="9.58494023957201"><ele>331.2</ele><time>2026-04-18T10:55:02.999Z</time></trkpt><trkpt lat="44.87747090271634" lon="9.58478406419284"><ele>329.59999999999997</ele><time>2026-04-18T10:55:03.999Z</time></trkpt><trkpt lat="44.877484306801165" lon="9.584624624971461"><ele>328.0</ele><time>2026-04-18T10:55:04.999Z</time></trkpt><trkpt lat="44.87749922283461" lon="9.584464569643448"><ele>324.75</ele><time>2026-04-18T10:55:05.999Z</time></trkpt><trkpt lat="44.87751437677134" lon="9.584298735356054"><ele>321.5</ele><time>2026-04-18T10:55:06.999Z</time></trkpt><trkpt lat="44.8775378790016" lon="9.58415189291059"><ele>318.25</ele><time>2026-04-18T10:55:07.999Z</time></trkpt><trkpt lat="44.87756735175392" lon="9.584005316858677"><ele>315.0</ele><time>2026-04-18T10:55:08.999Z</time></trkpt><trkpt lat="44.877612175205044" lon="9.583848587125868"><ele>314.8</ele><time>2026-04-18T10:55:09.999Z</time></trkpt><trkpt lat="44.87764635065393" lon="9.583712430351376"><ele>314.6</ele><time>2026-04-18T10:55:10.999Z</time></trkpt><trkpt lat="44.87768228374356" lon="9.583561216361288"><ele>314.4</ele><time>2026-04-18T10:55:11.999Z</time></trkpt><trkpt lat="44.877717234093225" lon="9.583404790825828"><ele>314.2</ele><time>2026-04-18T10:55:12.999Z</time></trkpt><trkpt lat="44.87774877840739" lon="9.58325585019421"><ele>314.0</ele><time>2026-04-18T10:55:13.999Z</time></trkpt><trkpt lat="44.877777898911205" lon="9.583112445858427"><ele>311.4</ele><time>2026-04-18T10:55:15Z</time></trkpt><trkpt lat="44.87781334813292" lon="9.582970555036992"><ele>308.79999999999995</ele><time>2026-04-18T10:55:16Z</time></trkpt><trkpt lat="44.87784187031789" lon="9.582828248856336"><ele>306.20000000000005</ele><time>2026-04-18T10:55:17Z</time></trkpt><trkpt lat="44.87786804665746" lon="9.582674985778858"><ele>303.6</ele><time>2026-04-18T10:55:18Z</time></trkpt><trkpt lat="44.877899404722776" lon="9.582514747323215"><ele>301.0</ele><time>2026-04-18T10:55:19Z</time></trkpt><trkpt lat="44.87793592753479" lon="9.58236163512479"><ele>299.2</ele><time>2026-04-18T10:55:20Z</time></trkpt><trkpt lat="44.87797646171746" lon="9.58221217245328"><ele>297.40000000000003</ele><time>2026-04-18T10:55:21Z</time></trkpt><trkpt lat="44.87802025364152" lon="9.582076464857629"><ele>295.6</ele><time>2026-04-18T10:55:22Z</time></trkpt><trkpt lat="44.87806178397209" lon="9.581970446140838"><ele>293.8</ele><time>2026-04-18T10:55:23Z</time></trkpt><trkpt lat="44.878101320069554" lon="9.581872582615288"><ele>292.0</ele><time>2026-04-18T10:55:24Z</time></trkpt><trkpt lat="44.87814874608082" lon="9.58178772354848"><ele>291.0</ele><time>2026-04-18T10:55:25Z</time></trkpt><trkpt lat="44.87820922956687" lon="9.581730742031283"><ele>290.0</ele><time>2026-04-18T10:55:26Z</time></trkpt><trkpt lat="44.878286936871774" lon="9.58168648544787"><ele>289.0</ele><time>2026-04-18T10:55:27Z</time></trkpt><trkpt lat="44.878377935090064" lon="9.581626805412315"><ele>288.0</ele><time>2026-04-18T10:55:28Z</time></trkpt><trkpt lat="44.87845986189024" lon="9.581542229352722"><ele>287.0</ele><time>2026-04-18T10:55:29Z</time></trkpt><trkpt lat="44.87852930312463" lon="9.581434590147433"><ele>285.4</ele><time>2026-04-18T10:55:30Z</time></trkpt><trkpt lat="44.87859497799509" lon="9.581326464622341"><ele>283.79999999999995</ele><time>2026-04-18T10:55:31Z</time></trkpt><trkpt lat="44.878657090997066" lon="9.581236140287931"><ele>282.2</ele><time>2026-04-18T10:55:32Z</time></trkpt><trkpt lat="44.87871522071613" lon="9.581136070515495"><ele>280.59999999999997</ele><time>2026-04-18T10:55:33Z</time></trkpt><trkpt lat="44.878766965797716" lon="9.581023864947845"><ele>279.0</ele><time>2026-04-18T10:55:34Z</time></trkpt><trkpt lat="44.878813345345264" lon="9.580896825511068"><ele>278.4</ele><time>2026-04-18T10:55:35Z</time></trkpt><trkpt lat="44.878855923250946" lon="9.580769801031506"><ele>277.79999999999995</ele><time>2026-04-18T10:55:36Z</time></trkpt><trkpt lat="44.87890369753528" lon="9.580628247563483"><ele>277.20000000000005</ele><time>2026-04-18T10:55:37Z</time></trkpt><trkpt lat="44.878951511611504" lon="9.580477423564384"><ele>276.6</ele><time>2026-04-18T10:55:38Z</time></trkpt><trkpt lat="44.87899732722278" lon="9.580326611498686"><ele>276.0</ele><time>2026-04-18T10:55:39Z</time></trkpt><trkpt lat="44.879053343459525" lon="9.580176171115246"><ele>275.0</ele><time>2026-04-18T10:55:40Z</time></trkpt><trkpt lat="44.87911503534655" lon="9.580006128958418"><ele>274.0</ele><time>2026-04-18T10:55:41Z</time></trkpt><trkpt lat="44.87917526735998" lon="9.579827778711271"><ele>273.0</ele><time>2026-04-18T10:55:42Z</time></trkpt><trkpt lat="44.87922704783015" lon="9.579661675234934"><ele>272.0</ele><time>2026-04-18T10:55:43Z</time></trkpt><trkpt lat="44.87928485319654" lon="9.579512022551073"><ele>268.6</ele><time>2026-04-18T10:55:44Z</time></trkpt><trkpt lat="44.879332439923864" lon="9.579367662182731"><ele>265.2</ele><time>2026-04-18T10:55:45Z</time></trkpt><trkpt lat="44.87938237904438" lon="9.57923682179184"><ele>261.8</ele><time>2026-04-18T10:55:46Z</time></trkpt><trkpt lat="44.879425644310714" lon="9.579118396366392"><ele>258.4</ele><time>2026-04-18T10:55:47Z</time></trkpt><trkpt lat="44.87946942131998" lon="9.578994118817995"><ele>255.0</ele><time>2026-04-18T10:55:48Z</time></trkpt><trkpt lat="44.87951467038462" lon="9.578870532123965"><ele>255.0</ele><time>2026-04-18T10:55:49Z</time></trkpt><trkpt lat="44.87955184051797" lon="9.57873924478449"><ele>255.0</ele><time>2026-04-18T10:55:50Z</time></trkpt><trkpt lat="44.87957262587096" lon="9.578602282160848"><ele>255.0</ele><time>2026-04-18T10:55:51Z</time></trkpt><trkpt lat="44.87957952814049" lon="9.578452092583358"><ele>255.0</ele><time>2026-04-18T10:55:52Z</time></trkpt><trkpt lat="44.87958325890254" lon="9.57828734275995"><ele>255.0</ele><time>2026-04-18T10:55:53Z</time></trkpt><trkpt lat="44.879582165410724" lon="9.578139313188249"><ele>254.0</ele><time>2026-04-18T10:55:54Z</time></trkpt><trkpt lat="44.879578351082216" lon="9.577998484043956"><ele>253.0</ele><time>2026-04-18T10:55:55Z</time></trkpt><trkpt lat="44.879576096793365" lon="9.577840666355637"><ele>252.0</ele><time>2026-04-18T10:55:56Z</time></trkpt><trkpt lat="44.87960274407903" lon="9.577700435850938"><ele>251.0</ele><time>2026-04-18T10:55:57Z</time></trkpt><trkpt lat="44.87967843704775" lon="9.577601416215055"><ele>250.0</ele><time>2026-04-18T10:55:58Z</time></trkpt><trkpt lat="44.87976913336615" lon="9.577515144610583"><ele>249.33333333333331</ele><time>2026-04-18T10:55:59Z</time></trkpt><trkpt lat="44.87982602438157" lon="9.577408163409142"><ele>248.66666666666666</ele><time>2026-04-18T10:56:00Z</time></trkpt><trkpt lat="44.8798777637133" lon="9.577313623577192"><ele>248.0</ele><time>2026-04-18T10:56:01Z</time></trkpt><trkpt lat="44.879913149250164" lon="9.577210023991592"><ele>247.33333333333331</ele><time>2026-04-18T10:56:02Z</time></trkpt><trkpt lat="44.87994117630376" lon="9.577098520008626"><ele>246.66666666666666</ele><time>2026-04-18T10:56:03Z</time></trkpt><trkpt lat="44.87996960818479" lon="9.576963878539903"><ele>246.0</ele><time>2026-04-18T10:56:04Z</time></trkpt><trkpt lat="44.87997937335468" lon="9.576812934574802"><ele>245.8</ele><time>2026-04-18T10:56:05Z</time></trkpt><trkpt lat="44.879988375086214" lon="9.576654060799802"><ele>245.60000000000002</ele><time>2026-04-18T10:56:06Z</time></trkpt><trkpt lat="44.880015439129714" lon="9.576514862892758"><ele>245.4</ele><time>2026-04-18T10:56:07Z</time></trkpt><trkpt lat="44.88005253479911" lon="9.576388418193135"><ele>245.2</ele><time>2026-04-18T10:56:08Z</time></trkpt><trkpt lat="44.880126966063344" lon="9.576266953217718"><ele>245.0</ele><time>2026-04-18T10:56:09Z</time></trkpt><trkpt lat="44.88022647530717" lon="9.576119354450285"><ele>242.0</ele><time>2026-04-18T10:56:10Z</time></trkpt><trkpt lat="44.88032377130797" lon="9.575989910521905"><ele>239.0</ele><time>2026-04-18T10:56:11Z</time></trkpt><trkpt lat="44.88040225993585" lon="9.575880566860295"><ele>236.0</ele><time>2026-04-18T10:56:12Z</time></trkpt><trkpt lat="44.8804575203015" lon="9.575774147390286"><ele>233.0</ele><time>2026-04-18T10:56:13Z</time></trkpt><trkpt lat="44.88050255841336" lon="9.575660683997556"><ele>230.0</ele><time>2026-04-18T10:56:14Z</time></trkpt><trkpt lat="44.880528362758824" lon="9.575534217575989"><ele>230.0</ele><time>2026-04-18T10:56:15Z</time></trkpt><trkpt lat="44.88053980611974" lon="9.575403303091168"><ele>230.0</ele><time>2026-04-18T10:56:16Z</time></trkpt><trkpt lat="44.88053461172233" lon="9.575232120035654"><ele>230.0</ele><time>2026-04-18T10:56:17Z</time></trkpt><trkpt lat="44.88052638307571" lon="9.575066692861201"><ele>230.0</ele><time>2026-04-18T10:56:18Z</time></trkpt><trkpt lat="44.880474382937095" lon="9.574908120609026"><ele>229.0</ele><time>2026-04-18T10:56:19Z</time></trkpt><trkpt lat="44.88043900080018" lon="9.574768084905676"><ele>228.0</ele><time>2026-04-18T10:56:20Z</time></trkpt><trkpt lat="44.880420512987484" lon="9.574604145668"><ele>227.0</ele><time>2026-04-18T10:56:21Z</time></trkpt><trkpt lat="44.88039775660615" lon="9.574461039755697"><ele>226.0</ele><time>2026-04-18T10:56:22Z</time></trkpt><trkpt lat="44.88038079253859" lon="9.574335964296258"><ele>225.0</ele><time>2026-04-18T10:56:23Z</time></trkpt><trkpt lat="44.88036024563914" lon="9.57422162189829"><ele>223.83333333333334</ele><time>2026-04-18T10:56:24Z</time></trkpt><trkpt lat="44.88034759201635" lon="9.574076622265212"><ele>222.66666666666669</ele><time>2026-04-18T10:56:26Z</time></trkpt><trkpt lat="44.8803511087125" lon="9.573977406356418"><ele>221.5</ele><time>2026-04-18T10:56:40Z</time></trkpt><trkpt lat="44.8804329002733" lon="9.573911933296591"><ele>220.33333333333334</ele><time>2026-04-18T10:56:43Z</time></trkpt><trkpt lat="44.88050073644446" lon="9.573935266200364"><ele>219.16666666666669</ele><time>2026-04-18T10:56:44Z</time></trkpt><trkpt lat="44.88058904900579" lon="9.574001184082354"><ele>218.0</ele><time>2026-04-18T10:56:45Z</time></trkpt><trkpt lat="44.88068459623446" lon="9.574074906887226"><ele>218.0</ele><time>2026-04-18T10:56:46Z</time></trkpt><trkpt lat="44.880790437116175" lon="9.57416096137491"><ele>218.0</ele><time>2026-04-18T10:56:47Z</time></trkpt><trkpt lat="44.880917372426936" lon="9.574262968802802"><ele>218.0</ele><time>2026-04-18T10:56:48Z</time></trkpt><trkpt lat="44.881024339094665" lon="9.57435824286056"><ele>218.0</ele><time>2026-04-18T10:56:49Z</time></trkpt><trkpt lat="44.881121408829934" lon="9.574457661176883"><ele>215.25</ele><time>2026-04-18T10:56:50Z</time></trkpt><trkpt lat="44.88122048455385" lon="9.574557684851296"><ele>212.5</ele><time>2026-04-18T10:56:51Z</time></trkpt><trkpt lat="44.881320108124115" lon="9.574663946551366"><ele>209.75</ele><time>2026-04-18T10:56:52Z</time></trkpt><trkpt lat="44.88143325029005" lon="9.574789053188468"><ele>207.0</ele><time>2026-04-18T10:56:53Z</time></trkpt><trkpt lat="44.88155557034297" lon="9.57491366857013"><ele>207.0</ele><time>2026-04-18T10:56:54Z</time></trkpt><trkpt lat="44.88167330137898" lon="9.575030387234968"><ele>207.0</ele><time>2026-04-18T10:56:55Z</time></trkpt><trkpt lat="44.88178492390435" lon="9.57514520706784"><ele>207.0</ele><time>2026-04-18T10:56:56Z</time></trkpt><trkpt lat="44.88188863924289" lon="9.575261715041467"><ele>207.0</ele><time>2026-04-18T10:56:57Z</time></trkpt><trkpt lat="44.88198700617602" lon="9.57540125406023"><ele>203.75</ele><time>2026-04-18T10:56:58Z</time></trkpt><trkpt lat="44.88207435870512" lon="9.575569541246878"><ele>200.5</ele><time>2026-04-18T10:56:59Z</time></trkpt><trkpt lat="44.88214833183885" lon="9.575749428762679"><ele>197.25</ele><time>2026-04-18T10:57:00Z</time></trkpt><trkpt lat="44.882226980694774" lon="9.57593505949097"><ele>194.0</ele><time>2026-04-18T10:57:01Z</time></trkpt><trkpt lat="44.88229691928675" lon="9.576105488517213"><ele>194.79999999999998</ele><time>2026-04-18T10:57:02Z</time></trkpt><trkpt lat="44.88233586760986" lon="9.576224215674257"><ele>195.6</ele><time>2026-04-18T10:57:03Z</time></trkpt><trkpt lat="44.88236850840448" lon="9.576321777391227"><ele>196.4</ele><time>2026-04-18T10:57:04Z</time></trkpt><trkpt lat="44.88241014365115" lon="9.57641024811051"><ele>197.2</ele><time>2026-04-18T10:57:05Z</time></trkpt><trkpt lat="44.882454694046814" lon="9.576481192865417"><ele>198.0</ele><time>2026-04-18T10:57:06Z</time></trkpt><trkpt lat="44.88268978605148" lon="9.576874798923464"><ele>197.5</ele><time>2026-04-18T10:57:07Z</time></trkpt><trkpt lat="44.88281546800971" lon="9.5769775995747"><ele>197.0</ele><time>2026-04-18T10:57:08Z</time></trkpt><trkpt lat="44.88292463487411" lon="9.577046089416179"><ele>196.5</ele><time>2026-04-18T10:57:09Z</time></trkpt><trkpt lat="44.88302134096766" lon="9.57710052172743"><ele>196.0</ele><time>2026-04-18T10:57:10Z</time></trkpt><trkpt lat="44.88312800384564" lon="9.577075648290059"><ele>196.0</ele><time>2026-04-18T10:57:11Z</time></trkpt><trkpt lat="44.883251502945676" lon="9.577039652016804"><ele>196.0</ele><time>2026-04-18T10:57:12Z</time></trkpt><trkpt lat="44.883407079436296" lon="9.57697290113426"><ele>196.0</ele><time>2026-04-18T10:57:13Z</time></trkpt><trkpt lat="44.883566404661174" lon="9.576860513384045"><ele>192.75</ele><time>2026-04-18T10:57:14Z</time></trkpt><trkpt lat="44.88370457727941" lon="9.576772693277178"><ele>189.5</ele><time>2026-04-18T10:57:15Z</time></trkpt><trkpt lat="44.88383658705101" lon="9.576704430114768"><ele>186.25</ele><time>2026-04-18T10:57:16Z</time></trkpt><trkpt lat="44.88395940653355" lon="9.576675995293476"><ele>183.0</ele><time>2026-04-18T10:57:17Z</time></trkpt><trkpt lat="44.88407262441947" lon="9.57666964123025"><ele>183.0</ele><time>2026-04-18T10:57:18Z</time></trkpt><trkpt lat="44.884177201626635" lon="9.576694576107325"><ele>183.0</ele><time>2026-04-18T10:57:19Z</time></trkpt><trkpt lat="44.884259363145915" lon="9.5767690482593"><ele>183.0</ele><time>2026-04-18T10:57:20Z</time></trkpt><trkpt lat="44.88431854193411" lon="9.576866925252583"><ele>183.0</ele><time>2026-04-18T10:57:21Z</time></trkpt><trkpt lat="44.8843468477674" lon="9.576995155337675"><ele>183.0</ele><time>2026-04-18T10:57:22Z</time></trkpt><trkpt lat="44.88438858728623" lon="9.577163409526577"><ele>181.5</ele><time>2026-04-18T10:57:23Z</time></trkpt><trkpt lat="44.884424357457746" lon="9.577321490678008"><ele>180.0</ele><time>2026-04-18T10:57:24Z</time></trkpt><trkpt lat="44.88446219824716" lon="9.577496911868844"><ele>178.5</ele><time>2026-04-18T10:57:25Z</time></trkpt><trkpt lat="44.88450730142202" lon="9.577702394205236"><ele>177.0</ele><time>2026-04-18T10:57:26Z</time></trkpt><trkpt lat="44.884561992708655" lon="9.577868990031488"><ele>177.0</ele><time>2026-04-18T10:57:27Z</time></trkpt><trkpt lat="44.884589204213086" lon="9.578026153616829"><ele>177.0</ele><time>2026-04-18T10:57:28Z</time></trkpt><trkpt lat="44.8846184207333" lon="9.578178621614844"><ele>177.0</ele><time>2026-04-18T10:57:29Z</time></trkpt><trkpt lat="44.884646936754535" lon="9.578315493251694"><ele>177.0</ele><time>2026-04-18T10:57:30Z</time></trkpt><trkpt lat="44.88467560573347" lon="9.578444747582818"><ele>177.0</ele><time>2026-04-18T10:57:31Z</time></trkpt><trkpt lat="44.884704431448846" lon="9.578571635350706"><ele>177.33333333333334</ele><time>2026-04-18T10:57:32Z</time></trkpt><trkpt lat="44.88473047770274" lon="9.57868816914895"><ele>177.66666666666666</ele><time>2026-04-18T10:57:33Z</time></trkpt><trkpt lat="44.884752558982726" lon="9.578798644256949"><ele>178.0</ele><time>2026-04-18T10:57:34Z</time></trkpt><trkpt lat="44.88476895300926" lon="9.578886695656951"><ele>178.33333333333331</ele><time>2026-04-18T10:57:35Z</time></trkpt><trkpt lat="44.884793165950306" lon="9.579016620720992"><ele>178.66666666666666</ele><time>2026-04-18T10:57:37Z</time></trkpt><trkpt lat="44.88485289829984" lon="9.579048058196484"><ele>179.0</ele><time>2026-04-18T10:57:40Z</time></trkpt><trkpt lat="44.88487465859144" lon="9.578763645389145"><ele>178.5</ele><time>2026-04-18T10:57:46Z</time></trkpt><trkpt lat="44.88483470133313" lon="9.57861211817039"><ele>178.0</ele><time>2026-04-18T10:57:47Z</time></trkpt><trkpt lat="44.884802650606126" lon="9.578436533322979"><ele>177.5</ele><time>2026-04-18T10:57:48Z</time></trkpt><trkpt lat="44.884767500320294" lon="9.578243941277416"><ele>177.0</ele><time>2026-04-18T10:57:49Z</time></trkpt><trkpt lat="44.88473804858131" lon="9.578040098843703"><ele>174.66666666666666</ele><time>2026-04-18T10:57:50Z</time></trkpt><trkpt lat="44.884713809211775" lon="9.577819921541892"><ele>172.33333333333331</ele><time>2026-04-18T10:57:51Z</time></trkpt><trkpt lat="44.884696995715224" lon="9.577579448894625"><ele>170.0</ele><time>2026-04-18T10:57:52Z</time></trkpt><trkpt lat="44.88468870631662" lon="9.577353452183562"><ele>170.0</ele><time>2026-04-18T10:57:53Z</time></trkpt><trkpt lat="44.88468754402433" lon="9.577132219184241"><ele>170.0</ele><time>2026-04-18T10:57:54Z</time></trkpt><trkpt lat="44.88469017399647" lon="9.576921016387647"><ele>170.0</ele><time>2026-04-18T10:57:55Z</time></trkpt><trkpt lat="44.88468505290572" lon="9.576733586363131"><ele>170.0</ele><time>2026-04-18T10:57:56Z</time></trkpt><trkpt lat="44.88465846481217" lon="9.576564410818039"><ele>170.75</ele><time>2026-04-18T10:57:57Z</time></trkpt><trkpt lat="44.88461279547541" lon="9.576407182687586"><ele>171.5</ele><time>2026-04-18T10:57:58Z</time></trkpt><trkpt lat="44.884521740510124" lon="9.576273495876746"><ele>172.25</ele><time>2026-04-18T10:57:59Z</time></trkpt><trkpt lat="44.88439415501558" lon="9.576165110677307"><ele>173.0</ele><time>2026-04-18T10:58:00Z</time></trkpt><trkpt lat="44.88423565338701" lon="9.5760398432606"><ele>173.0</ele><time>2026-04-18T10:58:01Z</time></trkpt><trkpt lat="44.88408324929842" lon="9.575926024439442"><ele>173.0</ele><time>2026-04-18T10:58:02Z</time></trkpt><trkpt lat="44.88397487798619" lon="9.575773260669727"><ele>173.0</ele><time>2026-04-18T10:58:03Z</time></trkpt><trkpt lat="44.883891988348566" lon="9.575618533334339"><ele>173.0</ele><time>2026-04-18T10:58:04Z</time></trkpt><trkpt lat="44.883855522043916" lon="9.575431669049067"><ele>173.0</ele><time>2026-04-18T10:58:05Z</time></trkpt><trkpt lat="44.8838429497837" lon="9.57521616943653"><ele>173.0</ele><time>2026-04-18T10:58:06Z</time></trkpt><trkpt lat="44.88382584439653" lon="9.574991127447149"><ele>171.75</ele><time>2026-04-18T10:58:07Z</time></trkpt><trkpt lat="44.88383781773626" lon="9.574788197609736"><ele>170.5</ele><time>2026-04-18T10:58:08Z</time></trkpt><trkpt lat="44.88385896360879" lon="9.574591074653084"><ele>169.25</ele><time>2026-04-18T10:58:09Z</time></trkpt><trkpt lat="44.8838906316539" lon="9.574395205718584"><ele>168.0</ele><time>2026-04-18T10:58:10Z</time></trkpt><trkpt lat="44.88392630494093" lon="9.574212656462946"><ele>168.0</ele><time>2026-04-18T10:58:11Z</time></trkpt><trkpt lat="44.883949811024586" lon="9.574022283003547"><ele>168.0</ele><time>2026-04-18T10:58:12Z</time></trkpt><trkpt lat="44.8839442302508" lon="9.573825776146261"><ele>168.0</ele><time>2026-04-18T10:58:13Z</time></trkpt><trkpt lat="44.88391477667306" lon="9.573641123616099"><ele>168.0</ele><time>2026-04-18T10:58:14Z</time></trkpt><trkpt lat="44.883863573731475" lon="9.573458547692336"><ele>168.0</ele><time>2026-04-18T10:58:15Z</time></trkpt><trkpt lat="44.88379019974192" lon="9.573259426845729"><ele>168.0</ele><time>2026-04-18T10:58:16Z</time></trkpt><trkpt lat="44.88371039524529" lon="9.573039130436051"><ele>168.0</ele><time>2026-04-18T10:58:17Z</time></trkpt><trkpt lat="44.883624453814456" lon="9.572808485856276"><ele>167.0</ele><time>2026-04-18T10:58:18Z</time></trkpt><trkpt lat="44.883540519520885" lon="9.572560981508692"><ele>166.0</ele><time>2026-04-18T10:58:19Z</time></trkpt><trkpt lat="44.88345939481972" lon="9.572327720417011"><ele>165.0</ele><time>2026-04-18T10:58:20Z</time></trkpt><trkpt lat="44.883376663690115" lon="9.572093292817057"><ele>166.33333333333334</ele><time>2026-04-18T10:58:21Z</time></trkpt><trkpt lat="44.88328976007542" lon="9.571848471373524"><ele>167.66666666666669</ele><time>2026-04-18T10:58:22Z</time></trkpt><trkpt lat="44.883199941701264" lon="9.5716004965352"><ele>169.0</ele><time>2026-04-18T10:58:23Z</time></trkpt><trkpt lat="44.883111623590274" lon="9.57134462413745"><ele>167.66666666666669</ele><time>2026-04-18T10:58:24Z</time></trkpt><trkpt lat="44.883022287102364" lon="9.57108446482132"><ele>166.33333333333334</ele><time>2026-04-18T10:58:25Z</time></trkpt><trkpt lat="44.88293372632207" lon="9.570829469714669"><ele>165.0</ele><time>2026-04-18T10:58:26Z</time></trkpt><trkpt lat="44.88285057749599" lon="9.570596776934533"><ele>165.0</ele><time>2026-04-18T10:58:27Z</time></trkpt><trkpt lat="44.88277321368692" lon="9.570370085432154"><ele>165.0</ele><time>2026-04-18T10:58:28Z</time></trkpt><trkpt lat="44.88269003465377" lon="9.570141724485712"><ele>165.0</ele><time>2026-04-18T10:58:29Z</time></trkpt><trkpt lat="44.882602100225725" lon="9.569900982126663"><ele>167.0</ele><time>2026-04-18T10:58:30Z</time></trkpt><trkpt lat="44.88251314254621" lon="9.569660006286549"><ele>169.0</ele><time>2026-04-18T10:58:31Z</time></trkpt><trkpt lat="44.88242939519013" lon="9.569415430061616"><ele>171.0</ele><time>2026-04-18T10:58:32Z</time></trkpt><trkpt lat="44.882354063163724" lon="9.569191267828966"><ele>171.0</ele><time>2026-04-18T10:58:33Z</time></trkpt><trkpt lat="44.882282183376454" lon="9.568977250994724"><ele>171.0</ele><time>2026-04-18T10:58:34Z</time></trkpt><trkpt lat="44.882204973160135" lon="9.568759229705371"><ele>171.0</ele><time>2026-04-18T10:58:35Z</time></trkpt><trkpt lat="44.882124529107486" lon="9.56853538791405"><ele>169.66666666666666</ele><time>2026-04-18T10:58:36Z</time></trkpt><trkpt lat="44.88204154393099" lon="9.56829462981572"><ele>168.33333333333331</ele><time>2026-04-18T10:58:37Z</time></trkpt><trkpt lat="44.88195758239085" lon="9.56805659004664"><ele>167.0</ele><time>2026-04-18T10:58:38Z</time></trkpt><trkpt lat="44.88187888576608" lon="9.567837493408119"><ele>166.66666666666666</ele><time>2026-04-18T10:58:39Z</time></trkpt><trkpt lat="44.88179072501655" lon="9.567610537838105"><ele>166.33333333333334</ele><time>2026-04-18T10:58:40Z</time></trkpt><trkpt lat="44.88168181157743" lon="9.567382890505836"><ele>166.0</ele><time>2026-04-18T10:58:41Z</time></trkpt><trkpt lat="44.88154623410323" lon="9.56715385674821"><ele>167.0</ele><time>2026-04-18T10:58:42Z</time></trkpt><trkpt lat="44.8813893109533" lon="9.566939789939417"><ele>168.0</ele><time>2026-04-18T10:58:43Z</time></trkpt><trkpt lat="44.88124090307097" lon="9.566716509378132"><ele>169.0</ele><time>2026-04-18T10:58:44Z</time></trkpt><trkpt lat="44.88108590343672" lon="9.566509550179342"><ele>169.0</ele><time>2026-04-18T10:58:45Z</time></trkpt><trkpt lat="44.880922541295554" lon="9.566291425444085"><ele>169.0</ele><time>2026-04-18T10:58:46Z</time></trkpt><trkpt lat="44.88075978599655" lon="9.566072224522513"><ele>169.0</ele><time>2026-04-18T10:58:47Z</time></trkpt><trkpt lat="44.8805934633645" lon="9.565848222187183"><ele>169.0</ele><time>2026-04-18T10:58:48Z</time></trkpt><trkpt lat="44.88042495672421" lon="9.565621277988942"><ele>169.0</ele><time>2026-04-18T10:58:49Z</time></trkpt><trkpt lat="44.88025269027349" lon="9.56538888682193"><ele>169.0</ele><time>2026-04-18T10:58:50Z</time></trkpt><trkpt lat="44.880077517143356" lon="9.565152447621982"><ele>170.66666666666669</ele><time>2026-04-18T10:58:51Z</time></trkpt><trkpt lat="44.87991423137761" lon="9.564931295110245"><ele>172.33333333333334</ele><time>2026-04-18T10:58:52Z</time></trkpt><trkpt lat="44.8797601851043" lon="9.564722193494715"><ele>174.0</ele><time>2026-04-18T10:58:53Z</time></trkpt><trkpt lat="44.879606493861694" lon="9.56451357348"><ele>176.33333333333334</ele><time>2026-04-18T10:58:54Z</time></trkpt><trkpt lat="44.87944850119728" lon="9.564301297455994"><ele>178.66666666666669</ele><time>2026-04-18T10:58:55Z</time></trkpt><trkpt lat="44.8792912911955" lon="9.56409033584838"><ele>181.0</ele><time>2026-04-18T10:58:56Z</time></trkpt><trkpt lat="44.8791518724686" lon="9.56390217974803"><ele>181.0</ele><time>2026-04-18T10:58:57Z</time></trkpt><trkpt lat="44.879018618425064" lon="9.563721300798084"><ele>181.0</ele><time>2026-04-18T10:58:58Z</time></trkpt><trkpt lat="44.87888066335059" lon="9.563534040561883"><ele>181.0</ele><time>2026-04-18T10:58:59Z</time></trkpt><trkpt lat="44.87872949465449" lon="9.563329140515819"><ele>181.0</ele><time>2026-04-18T10:59:00Z</time></trkpt><trkpt lat="44.87858049756004" lon="9.563134084563462"><ele>181.0</ele><time>2026-04-18T10:59:01Z</time></trkpt><trkpt lat="44.87842097134274" lon="9.562939773394126"><ele>181.0</ele><time>2026-04-18T10:59:02Z</time></trkpt><trkpt lat="44.87824432296211" lon="9.562769961576404"><ele>178.66666666666669</ele><time>2026-04-18T10:59:03Z</time></trkpt><trkpt lat="44.87809146869284" lon="9.562579735948248"><ele>176.33333333333334</ele><time>2026-04-18T10:59:04Z</time></trkpt><trkpt lat="44.87794013896379" lon="9.562416816184657"><ele>174.0</ele><time>2026-04-18T10:59:05Z</time></trkpt><trkpt lat="44.87778900159636" lon="9.562251600646508"><ele>174.0</ele><time>2026-04-18T10:59:06Z</time></trkpt><trkpt lat="44.87763068213992" lon="9.562083177561572"><ele>174.0</ele><time>2026-04-18T10:59:07Z</time></trkpt><trkpt lat="44.87746718533856" lon="9.56191331421662"><ele>174.0</ele><time>2026-04-18T10:59:08Z</time></trkpt><trkpt lat="44.87730407982853" lon="9.561743857495411"><ele>174.33333333333334</ele><time>2026-04-18T10:59:09Z</time></trkpt><trkpt lat="44.87714212336257" lon="9.561575592093021"><ele>174.66666666666669</ele><time>2026-04-18T10:59:10Z</time></trkpt><trkpt lat="44.876974882945724" lon="9.561401834149178"><ele>175.0</ele><time>2026-04-18T10:59:11Z</time></trkpt><trkpt lat="44.87681645157969" lon="9.561237228551782"><ele>175.0</ele><time>2026-04-18T10:59:12Z</time></trkpt><trkpt lat="44.87666334627511" lon="9.561081972207568"><ele>175.0</ele><time>2026-04-18T10:59:13Z</time></trkpt><trkpt lat="44.87646849930514" lon="9.56102726262568"><ele>175.0</ele><time>2026-04-18T10:59:14Z</time></trkpt><trkpt lat="44.8762914500898" lon="9.560951294480269"><ele>175.0</ele><time>2026-04-18T10:59:15Z</time></trkpt><trkpt lat="44.87611766960751" lon="9.560898132501087"><ele>175.0</ele><time>2026-04-18T10:59:16Z</time></trkpt><trkpt lat="44.87593959721512" lon="9.560875967886052"><ele>175.0</ele><time>2026-04-18T10:59:17Z</time></trkpt><trkpt lat="44.87577396909631" lon="9.560888858318709"><ele>175.33333333333334</ele><time>2026-04-18T10:59:18Z</time></trkpt><trkpt lat="44.875613445486366" lon="9.560927874821996"><ele>175.66666666666666</ele><time>2026-04-18T10:59:19Z</time></trkpt><trkpt lat="44.87544384232339" lon="9.560978021185225"><ele>176.0</ele><time>2026-04-18T10:59:20Z</time></trkpt><trkpt lat="44.87527613719244" lon="9.561017486803113"><ele>176.0</ele><time>2026-04-18T10:59:21Z</time></trkpt><trkpt lat="44.87510828296121" lon="9.56105659597347"><ele>176.0</ele><time>2026-04-18T10:59:22Z</time></trkpt><trkpt lat="44.874952181025364" lon="9.561088717661256"><ele>176.0</ele><time>2026-04-18T10:59:23Z</time></trkpt><trkpt lat="44.874808076473755" lon="9.561094796092913"><ele>176.33333333333331</ele><time>2026-04-18T10:59:24Z</time></trkpt><trkpt lat="44.874660017241055" lon="9.561044481266219"><ele>176.66666666666666</ele><time>2026-04-18T10:59:25Z</time></trkpt><trkpt lat="44.874506196366916" lon="9.560933320612849"><ele>177.0</ele><time>2026-04-18T10:59:26Z</time></trkpt><trkpt lat="44.87434985703772" lon="9.560798095971277"><ele>177.66666666666666</ele><time>2026-04-18T10:59:27Z</time></trkpt><trkpt lat="44.87418303624678" lon="9.560662206887066"><ele>178.33333333333331</ele><time>2026-04-18T10:59:28Z</time></trkpt><trkpt lat="44.87400095863083" lon="9.560527620189527"><ele>179.0</ele><time>2026-04-18T10:59:29Z</time></trkpt><trkpt lat="44.87381889490669" lon="9.560392406627049"><ele>179.66666666666666</ele><time>2026-04-18T10:59:30Z</time></trkpt><trkpt lat="44.873634349823654" lon="9.560260002428624"><ele>180.33333333333334</ele><time>2026-04-18T10:59:31Z</time></trkpt><trkpt lat="44.873449280718084" lon="9.560125177728603"><ele>181.0</ele><time>2026-04-18T10:59:32Z</time></trkpt><trkpt lat="44.87326235889095" lon="9.559989045753664"><ele>181.0</ele><time>2026-04-18T10:59:33Z</time></trkpt><trkpt lat="44.87307573764977" lon="9.559852928559915"><ele>181.0</ele><time>2026-04-18T10:59:34Z</time></trkpt><trkpt lat="44.87289250583781" lon="9.559722072375571"><ele>181.0</ele><time>2026-04-18T10:59:35Z</time></trkpt><trkpt lat="44.87272260315984" lon="9.559601650549958"><ele>180.0</ele><time>2026-04-18T10:59:36Z</time></trkpt><trkpt lat="44.87256770633672" lon="9.55948859707957"><ele>179.0</ele><time>2026-04-18T10:59:37Z</time></trkpt><trkpt lat="44.87242502956613" lon="9.559383035833086"><ele>178.0</ele><time>2026-04-18T10:59:38Z</time></trkpt><trkpt lat="44.872294751844805" lon="9.55924981464986"><ele>178.0</ele><time>2026-04-18T10:59:39Z</time></trkpt><trkpt lat="44.872183249639484" lon="9.559074681183453"><ele>178.0</ele><time>2026-04-18T10:59:40Z</time></trkpt><trkpt lat="44.8721006460263" lon="9.55887075288974"><ele>178.0</ele><time>2026-04-18T10:59:41Z</time></trkpt><trkpt lat="44.87203208379222" lon="9.558636024402276"><ele>177.0</ele><time>2026-04-18T10:59:42Z</time></trkpt><trkpt lat="44.871970964625824" lon="9.558428515313794"><ele>176.0</ele><time>2026-04-18T10:59:43Z</time></trkpt><trkpt lat="44.87190984050447" lon="9.558244811289258"><ele>175.0</ele><time>2026-04-18T10:59:44Z</time></trkpt><trkpt lat="44.87183451552854" lon="9.558089071538529"><ele>174.0</ele><time>2026-04-18T10:59:45Z</time></trkpt><trkpt lat="44.87174497643175" lon="9.55794888357487"><ele>175.0</ele><time>2026-04-18T10:59:46Z</time></trkpt><trkpt lat="44.87163881878044" lon="9.55782797599314"><ele>176.0</ele><time>2026-04-18T10:59:47Z</time></trkpt><trkpt lat="44.87151349899511" lon="9.557723618395878"><ele>177.0</ele><time>2026-04-18T10:59:48Z</time></trkpt><trkpt lat="44.87137571926515" lon="9.557639336522683"><ele>178.0</ele><time>2026-04-18T10:59:49Z</time></trkpt><trkpt lat="44.871232241708036" lon="9.557591450981196"><ele>178.0</ele><time>2026-04-18T10:59:50Z</time></trkpt><trkpt lat="44.87109988235213" lon="9.557584912454475"><ele>178.0</ele><time>2026-04-18T10:59:51Z</time></trkpt><trkpt lat="44.87095953179402" lon="9.557610310401808"><ele>178.0</ele><time>2026-04-18T10:59:52Z</time></trkpt><trkpt lat="44.870798102217755" lon="9.557655448107331"><ele>178.0</ele><time>2026-04-18T10:59:53Z</time></trkpt><trkpt lat="44.870628080469416" lon="9.55770847733227"><ele>180.66666666666669</ele><time>2026-04-18T10:59:54Z</time></trkpt><trkpt lat="44.8704502561613" lon="9.557763168344364"><ele>183.33333333333334</ele><time>2026-04-18T10:59:55Z</time></trkpt><trkpt lat="44.87029315964042" lon="9.557806513498374"><ele>186.0</ele><time>2026-04-18T10:59:56Z</time></trkpt><trkpt lat="44.870153869597026" lon="9.557850049894041"><ele>188.5</ele><time>2026-04-18T10:59:57Z</time></trkpt><trkpt lat="44.87003097219792" lon="9.557876502761548"><ele>191.0</ele><time>2026-04-18T10:59:58Z</time></trkpt><trkpt lat="44.86989308132182" lon="9.557911524749617"><ele>193.5</ele><time>2026-04-18T10:59:59Z</time></trkpt><trkpt lat="44.86975097107547" lon="9.55793839172852"><ele>196.0</ele><time>2026-04-18T11:00:00Z</time></trkpt><trkpt lat="44.869600031786035" lon="9.557964666872872"><ele>196.0</ele><time>2026-04-18T11:00:01Z</time></trkpt><trkpt lat="44.86945181355473" lon="9.557938633532764"><ele>196.0</ele><time>2026-04-18T11:00:02Z</time></trkpt><trkpt lat="44.86931984000963" lon="9.557898844678833"><ele>196.0</ele><time>2026-04-18T11:00:03Z</time></trkpt><trkpt lat="44.86918421749289" lon="9.557857270286494"><ele>196.0</ele><time>2026-04-18T11:00:04Z</time></trkpt><trkpt lat="44.86905080208929" lon="9.55781595162244"><ele>193.25</ele><time>2026-04-18T11:00:05Z</time></trkpt><trkpt lat="44.868923762622195" lon="9.557757539649131"><ele>190.5</ele><time>2026-04-18T11:00:06Z</time></trkpt><trkpt lat="44.868800027618015" lon="9.557651090051461"><ele>187.75</ele><time>2026-04-18T11:00:07Z</time></trkpt><trkpt lat="44.8686912691837" lon="9.557495882031782"><ele>185.0</ele><time>2026-04-18T11:00:08Z</time></trkpt><trkpt lat="44.86860147483536" lon="9.557301972612166"><ele>185.0</ele><time>2026-04-18T11:00:09Z</time></trkpt><trkpt lat="44.86852656009535" lon="9.557082059462235"><ele>185.0</ele><time>2026-04-18T11:00:10Z</time></trkpt><trkpt lat="44.86844919407544" lon="9.556867942089994"><ele>185.0</ele><time>2026-04-18T11:00:11Z</time></trkpt><trkpt lat="44.86837841985321" lon="9.556687453249856"><ele>185.75</ele><time>2026-04-18T11:00:12Z</time></trkpt><trkpt lat="44.86830513660926" lon="9.556528403021224"><ele>186.5</ele><time>2026-04-18T11:00:13Z</time></trkpt><trkpt lat="44.86821140652579" lon="9.556395527558003"><ele>187.25</ele><time>2026-04-18T11:00:14Z</time></trkpt><trkpt lat="44.86809142546" lon="9.556280985842719"><ele>188.0</ele><time>2026-04-18T11:00:15Z</time></trkpt><trkpt lat="44.86794701381876" lon="9.556201594172629"><ele>187.33333333333331</ele><time>2026-04-18T11:00:16Z</time></trkpt><trkpt lat="44.867778529181194" lon="9.556149940589448"><ele>186.66666666666666</ele><time>2026-04-18T11:00:17Z</time></trkpt><trkpt lat="44.867593399912046" lon="9.556109969156442"><ele>186.0</ele><time>2026-04-18T11:00:18Z</time></trkpt><trkpt lat="44.86742981809445" lon="9.55607543197787"><ele>186.0</ele><time>2026-04-18T11:00:19Z</time></trkpt><trkpt lat="44.8672818595909" lon="9.556033720323526"><ele>186.0</ele><time>2026-04-18T11:00:20Z</time></trkpt><trkpt lat="44.86714201322163" lon="9.555942568567918"><ele>186.0</ele><time>2026-04-18T11:00:21Z</time></trkpt><trkpt lat="44.867010256970765" lon="9.555826406407668"><ele>186.0</ele><time>2026-04-18T11:00:22Z</time></trkpt><trkpt lat="44.8668992691322" lon="9.555694725286457"><ele>186.0</ele><time>2026-04-18T11:00:23Z</time></trkpt><trkpt lat="44.86677624552332" lon="9.555535050172779"><ele>186.0</ele><time>2026-04-18T11:00:24Z</time></trkpt><trkpt lat="44.86664819189681" lon="9.55536207163596"><ele>186.0</ele><time>2026-04-18T11:00:25Z</time></trkpt><trkpt lat="44.866520322297475" lon="9.555189341693733"><ele>186.0</ele><time>2026-04-18T11:00:26Z</time></trkpt><trkpt lat="44.86641192773734" lon="9.555042919307429"><ele>186.0</ele><time>2026-04-18T11:00:27Z</time></trkpt><trkpt lat="44.86630198982298" lon="9.554926920800918"><ele>186.0</ele><time>2026-04-18T11:00:28Z</time></trkpt><trkpt lat="44.86620813840326" lon="9.554803415183724"><ele>186.0</ele><time>2026-04-18T11:00:29Z</time></trkpt><trkpt lat="44.86610705868177" lon="9.554688430640361"><ele>186.0</ele><time>2026-04-18T11:00:30Z</time></trkpt><trkpt lat="44.86598186640006" lon="9.554614142867248"><ele>186.0</ele><time>2026-04-18T11:00:31Z</time></trkpt><trkpt lat="44.86582653099049" lon="9.5545896304494"><ele>189.0</ele><time>2026-04-18T11:00:32Z</time></trkpt><trkpt lat="44.86566402286695" lon="9.554622567676729"><ele>192.0</ele><time>2026-04-18T11:00:33Z</time></trkpt><trkpt lat="44.86547498722294" lon="9.554702788635515"><ele>195.0</ele><time>2026-04-18T11:00:34Z</time></trkpt><trkpt lat="44.86524831282759" lon="9.554792956240611"><ele>194.0</ele><time>2026-04-18T11:00:35Z</time></trkpt><trkpt lat="44.864983793090175" lon="9.554858961586786"><ele>193.0</ele><time>2026-04-18T11:00:36Z</time></trkpt><trkpt lat="44.86474034986843" lon="9.554931983074843"><ele>193.0</ele><time>2026-04-18T11:00:37Z</time></trkpt><trkpt lat="44.864528823185054" lon="9.554995431114085"><ele>193.0</ele><time>2026-04-18T11:00:38Z</time></trkpt><trkpt lat="44.86433820933894" lon="9.555055747600036"><ele>193.0</ele><time>2026-04-18T11:00:39Z</time></trkpt><trkpt lat="44.864163387174024" lon="9.555124251302681"><ele>191.33333333333331</ele><time>2026-04-18T11:00:40Z</time></trkpt><trkpt lat="44.86399788342785" lon="9.555168306246358"><ele>189.66666666666666</ele><time>2026-04-18T11:00:41Z</time></trkpt><trkpt lat="44.863842889613956" lon="9.555216006975703"><ele>188.0</ele><time>2026-04-18T11:00:42Z</time></trkpt><trkpt lat="44.86368526442023" lon="9.555227828801103"><ele>188.0</ele><time>2026-04-18T11:00:43Z</time></trkpt><trkpt lat="44.86353984766287" lon="9.555215063829117"><ele>188.0</ele><time>2026-04-18T11:00:44Z</time></trkpt><trkpt lat="44.86339978965103" lon="9.555156128484013"><ele>188.0</ele><time>2026-04-18T11:00:45Z</time></trkpt><trkpt lat="44.86326104101534" lon="9.555072505694666"><ele>188.0</ele><time>2026-04-18T11:00:46Z</time></trkpt><trkpt lat="44.86313790399987" lon="9.554967806374496"><ele>188.0</ele><time>2026-04-18T11:00:47Z</time></trkpt><trkpt lat="44.86301533078056" lon="9.554811498548581"><ele>188.0</ele><time>2026-04-18T11:00:48Z</time></trkpt><trkpt lat="44.86291464052982" lon="9.554608528007833"><ele>188.0</ele><time>2026-04-18T11:00:49Z</time></trkpt><trkpt lat="44.862815637762054" lon="9.554376510622793"><ele>189.0</ele><time>2026-04-18T11:00:50Z</time></trkpt><trkpt lat="44.86272932679444" lon="9.554174151158048"><ele>190.0</ele><time>2026-04-18T11:00:51Z</time></trkpt><trkpt lat="44.86263093326903" lon="9.554004820706737"><ele>191.0</ele><time>2026-04-18T11:00:52Z</time></trkpt><trkpt lat="44.862541434059054" lon="9.553851433029465"><ele>191.0</ele><time>2026-04-18T11:00:53Z</time></trkpt><trkpt lat="44.862431850357574" lon="9.553722564199681"><ele>191.0</ele><time>2026-04-18T11:00:54Z</time></trkpt><trkpt lat="44.86230114473954" lon="9.553610314568257"><ele>191.0</ele><time>2026-04-18T11:00:55Z</time></trkpt><trkpt lat="44.86216025717644" lon="9.553509958447057"><ele>188.25</ele><time>2026-04-18T11:00:56Z</time></trkpt><trkpt lat="44.86201641380798" lon="9.55341844262509"><ele>185.5</ele><time>2026-04-18T11:00:57Z</time></trkpt><trkpt lat="44.861883198181324" lon="9.55333787443617"><ele>182.75</ele><time>2026-04-18T11:00:58Z</time></trkpt><trkpt lat="44.86179112097634" lon="9.553201094009912"><ele>180.0</ele><time>2026-04-18T11:00:59Z</time></trkpt><trkpt lat="44.8617045488252" lon="9.553040723380853"><ele>181.25</ele><time>2026-04-18T11:01:00Z</time></trkpt><trkpt lat="44.86161279405413" lon="9.552871620915596"><ele>182.5</ele><time>2026-04-18T11:01:01Z</time></trkpt><trkpt lat="44.861536120240416" lon="9.552714970649712"><ele>183.75</ele><time>2026-04-18T11:01:02Z</time></trkpt><trkpt lat="44.86146709729645" lon="9.552565872950032"><ele>185.0</ele><time>2026-04-18T11:01:03Z</time></trkpt><trkpt lat="44.86140480943418" lon="9.552406958172355"><ele>185.0</ele><time>2026-04-18T11:01:04Z</time></trkpt><trkpt lat="44.861334469383344" lon="9.552245923145694"><ele>185.0</ele><time>2026-04-18T11:01:05Z</time></trkpt><trkpt lat="44.86126076708339" lon="9.552100253971933"><ele>185.0</ele><time>2026-04-18T11:01:06Z</time></trkpt><trkpt lat="44.861150962829974" lon="9.551976289123356"><ele>185.0</ele><time>2026-04-18T11:01:07Z</time></trkpt><trkpt lat="44.8610156892001" lon="9.551850204398361"><ele>185.66666666666666</ele><time>2026-04-18T11:01:08Z</time></trkpt><trkpt lat="44.86089326323079" lon="9.551700800486184"><ele>186.33333333333334</ele><time>2026-04-18T11:01:09Z</time></trkpt><trkpt lat="44.86075585505999" lon="9.551560329287108"><ele>187.0</ele><time>2026-04-18T11:01:10Z</time></trkpt><trkpt lat="44.86061861393051" lon="9.551461719922758"><ele>187.0</ele><time>2026-04-18T11:01:11Z</time></trkpt><trkpt lat="44.860498392728424" lon="9.551327284842044"><ele>187.0</ele><time>2026-04-18T11:01:12Z</time></trkpt><trkpt lat="44.86037304699444" lon="9.55118559291386"><ele>187.0</ele><time>2026-04-18T11:01:13Z</time></trkpt><trkpt lat="44.86025690282507" lon="9.551046974904555"><ele>189.33333333333334</ele><time>2026-04-18T11:01:14Z</time></trkpt><trkpt lat="44.86017372669831" lon="9.550882577966073"><ele>191.66666666666669</ele><time>2026-04-18T11:01:15Z</time></trkpt><trkpt lat="44.860066217810655" lon="9.55072588579151"><ele>194.0</ele><time>2026-04-18T11:01:16Z</time></trkpt><trkpt lat="44.85994181531022" lon="9.550560053224963"><ele>194.0</ele><time>2026-04-18T11:01:17Z</time></trkpt><trkpt lat="44.85980869936612" lon="9.550398837127169"><ele>194.0</ele><time>2026-04-18T11:01:18Z</time></trkpt><trkpt lat="44.85967976413702" lon="9.55026588991041"><ele>194.0</ele><time>2026-04-18T11:01:19Z</time></trkpt><trkpt lat="44.859557677816106" lon="9.5501469243424"><ele>196.33333333333334</ele><time>2026-04-18T11:01:20Z</time></trkpt><trkpt lat="44.85943660959761" lon="9.550029585897509"><ele>198.66666666666669</ele><time>2026-04-18T11:01:21Z</time></trkpt><trkpt lat="44.85930732792405" lon="9.549901404950624"><ele>201.0</ele><time>2026-04-18T11:01:22Z</time></trkpt><trkpt lat="44.859170860773006" lon="9.549763590787444"><ele>201.0</ele><time>2026-04-18T11:01:23Z</time></trkpt><trkpt lat="44.859033630276706" lon="9.549625005839163"><ele>201.0</ele><time>2026-04-18T11:01:24Z</time></trkpt><trkpt lat="44.858897706325585" lon="9.549490300049557"><ele>201.0</ele><time>2026-04-18T11:01:25Z</time></trkpt><trkpt lat="44.858772110051966" lon="9.549368369932111"><ele>200.75</ele><time>2026-04-18T11:01:26Z</time></trkpt><trkpt lat="44.858647247847415" lon="9.549274356203924"><ele>200.5</ele><time>2026-04-18T11:01:27Z</time></trkpt><trkpt lat="44.85853295459883" lon="9.549158859892447"><ele>200.25</ele><time>2026-04-18T11:01:28Z</time></trkpt><trkpt lat="44.8584286602887" lon="9.549056490086722"><ele>200.0</ele><time>2026-04-18T11:01:29Z</time></trkpt><trkpt lat="44.85833804611892" lon="9.54892429867648"><ele>200.0</ele><time>2026-04-18T11:01:30Z</time></trkpt><trkpt lat="44.85823890726484" lon="9.548807559055582"><ele>200.0</ele><time>2026-04-18T11:01:31Z</time></trkpt><trkpt lat="44.858133091865" lon="9.548698144948583"><ele>200.0</ele><time>2026-04-18T11:01:32Z</time></trkpt><trkpt lat="44.85801030357945" lon="9.548596948150733"><ele>200.0</ele><time>2026-04-18T11:01:33Z</time></trkpt><trkpt lat="44.85788154803135" lon="9.548513788764737"><ele>196.25</ele><time>2026-04-18T11:01:34Z</time></trkpt><trkpt lat="44.85773963622139" lon="9.548455617963324"><ele>192.5</ele><time>2026-04-18T11:01:35Z</time></trkpt><trkpt lat="44.85760148791468" lon="9.548397443048406"><ele>188.75</ele><time>2026-04-18T11:01:36Z</time></trkpt><trkpt lat="44.857478793189344" lon="9.5483171868686"><ele>185.0</ele><time>2026-04-18T11:01:37Z</time></trkpt><trkpt lat="44.85733495532377" lon="9.548246592011301"><ele>185.0</ele><time>2026-04-18T11:01:38Z</time></trkpt><trkpt lat="44.857184784067556" lon="9.548183614745888"><ele>185.0</ele><time>2026-04-18T11:01:39Z</time></trkpt><trkpt lat="44.857047763062994" lon="9.54811940725488"><ele>185.0</ele><time>2026-04-18T11:01:40Z</time></trkpt><trkpt lat="44.85690835487933" lon="9.548053189991053"><ele>185.0</ele><time>2026-04-18T11:01:41Z</time></trkpt><trkpt lat="44.85675877460882" lon="9.547984666794562"><ele>186.0</ele><time>2026-04-18T11:01:42Z</time></trkpt><trkpt lat="44.856610594649716" lon="9.54790820989276"><ele>187.0</ele><time>2026-04-18T11:01:43Z</time></trkpt><trkpt lat="44.85645928562913" lon="9.547832673397767"><ele>188.0</ele><time>2026-04-18T11:01:44Z</time></trkpt><trkpt lat="44.85631536918726" lon="9.54776056838372"><ele>188.25</ele><time>2026-04-18T11:01:45Z</time></trkpt><trkpt lat="44.856190269998685" lon="9.547681473598304"><ele>188.5</ele><time>2026-04-18T11:01:46Z</time></trkpt><trkpt lat="44.85607716738108" lon="9.547573234167107"><ele>188.75</ele><time>2026-04-18T11:01:47Z</time></trkpt><trkpt lat="44.85596023641921" lon="9.547427102329344"><ele>189.0</ele><time>2026-04-18T11:01:48Z</time></trkpt><trkpt lat="44.85582713957259" lon="9.547256899176036"><ele>189.0</ele><time>2026-04-18T11:01:49Z</time></trkpt><trkpt lat="44.85567406949913" lon="9.547067473281883"><ele>189.0</ele><time>2026-04-18T11:01:50Z</time></trkpt><trkpt lat="44.85551907248145" lon="9.546851365797842"><ele>189.0</ele><time>2026-04-18T11:01:51Z</time></trkpt><trkpt lat="44.85535324861352" lon="9.546645209203241"><ele>186.0</ele><time>2026-04-18T11:01:52Z</time></trkpt><trkpt lat="44.85518009765592" lon="9.546429943261428"><ele>183.0</ele><time>2026-04-18T11:01:53Z</time></trkpt><trkpt lat="44.85500091485707" lon="9.546207178433129"><ele>183.0</ele><time>2026-04-18T11:01:54Z</time></trkpt><trkpt lat="44.85482918814111" lon="9.545998793719559"><ele>183.0</ele><time>2026-04-18T11:01:55Z</time></trkpt><trkpt lat="44.85467466606694" lon="9.545803831175759"><ele>183.0</ele><time>2026-04-18T11:01:56Z</time></trkpt><trkpt lat="44.85452813347321" lon="9.545602509063453"><ele>185.0</ele><time>2026-04-18T11:01:57Z</time></trkpt><trkpt lat="44.85441038589931" lon="9.545349251673924"><ele>187.0</ele><time>2026-04-18T11:01:58Z</time></trkpt><trkpt lat="44.854289870189" lon="9.545121388126622"><ele>189.0</ele><time>2026-04-18T11:01:59Z</time></trkpt><trkpt lat="44.854166084848174" lon="9.544919838571612"><ele>189.0</ele><time>2026-04-18T11:02:00Z</time></trkpt><trkpt lat="44.85406836943531" lon="9.544725346163208"><ele>189.0</ele><time>2026-04-18T11:02:01Z</time></trkpt><trkpt lat="44.85399467443953" lon="9.544522905105223"><ele>189.0</ele><time>2026-04-18T11:02:02Z</time></trkpt><trkpt lat="44.85393609460223" lon="9.544287736336663"><ele>186.66666666666666</ele><time>2026-04-18T11:02:03Z</time></trkpt><trkpt lat="44.85389037409133" lon="9.54401262027424"><ele>184.33333333333331</ele><time>2026-04-18T11:02:04Z</time></trkpt><trkpt lat="44.853836054637306" lon="9.543725929051742"><ele>182.0</ele><time>2026-04-18T11:02:05Z</time></trkpt><trkpt lat="44.85380125094965" lon="9.543468162124501"><ele>181.33333333333331</ele><time>2026-04-18T11:02:06Z</time></trkpt><trkpt lat="44.85377039808912" lon="9.543249401325017"><ele>180.66666666666666</ele><time>2026-04-18T11:02:07Z</time></trkpt><trkpt lat="44.8537293990166" lon="9.543040389557088"><ele>180.0</ele><time>2026-04-18T11:02:08Z</time></trkpt><trkpt lat="44.85366780542221" lon="9.542822102851199"><ele>178.0</ele><time>2026-04-18T11:02:09Z</time></trkpt><trkpt lat="44.85355443952266" lon="9.542613115572093"><ele>176.0</ele><time>2026-04-18T11:02:10Z</time></trkpt><trkpt lat="44.853416701209404" lon="9.542417235904281"><ele>174.0</ele><time>2026-04-18T11:02:11Z</time></trkpt><trkpt lat="44.85325570399615" lon="9.542244716876967"><ele>175.66666666666666</ele><time>2026-04-18T11:02:12Z</time></trkpt><trkpt lat="44.853066829254736" lon="9.54211047155134"><ele>177.33333333333331</ele><time>2026-04-18T11:02:13Z</time></trkpt><trkpt lat="44.85287108346822" lon="9.541977641226637"><ele>179.0</ele><time>2026-04-18T11:02:14Z</time></trkpt><trkpt lat="44.852674657438996" lon="9.541841868667099"><ele>183.66666666666666</ele><time>2026-04-18T11:02:15Z</time></trkpt><trkpt lat="44.852487081871644" lon="9.541718532816887"><ele>188.33333333333331</ele><time>2026-04-18T11:02:16Z</time></trkpt><trkpt lat="44.85230778815938" lon="9.541605207639396"><ele>193.0</ele><time>2026-04-18T11:02:17Z</time></trkpt><trkpt lat="44.85213953534411" lon="9.541498405169854"><ele>193.0</ele><time>2026-04-18T11:02:18Z</time></trkpt><trkpt lat="44.85198201254421" lon="9.541399355929583"><ele>193.0</ele><time>2026-04-18T11:02:19Z</time></trkpt><trkpt lat="44.85183064308078" lon="9.541304821045571"><ele>193.0</ele><time>2026-04-18T11:02:20Z</time></trkpt><trkpt lat="44.85166592868046" lon="9.541201309069312"><ele>192.0</ele><time>2026-04-18T11:02:21Z</time></trkpt><trkpt lat="44.85149931566209" lon="9.541096720786001"><ele>191.0</ele><time>2026-04-18T11:02:22Z</time></trkpt><trkpt lat="44.85134313971176" lon="9.541000053287567"><ele>190.0</ele><time>2026-04-18T11:02:23Z</time></trkpt><trkpt lat="44.851177751065165" lon="9.540922070286975"><ele>190.0</ele><time>2026-04-18T11:02:24Z</time></trkpt><trkpt lat="44.85101206400613" lon="9.540874374051862"><ele>190.0</ele><time>2026-04-18T11:02:25Z</time></trkpt><trkpt lat="44.85082600624241" lon="9.540862359740732"><ele>190.0</ele><time>2026-04-18T11:02:26Z</time></trkpt><trkpt lat="44.850632489045545" lon="9.540844902957938"><ele>190.0</ele><time>2026-04-18T11:02:27Z</time></trkpt><trkpt lat="44.85042927510798" lon="9.540825162428234"><ele>190.0</ele><time>2026-04-18T11:02:28Z</time></trkpt><trkpt lat="44.8502363930286" lon="9.54079932203429"><ele>190.0</ele><time>2026-04-18T11:02:29Z</time></trkpt><trkpt lat="44.850067015500386" lon="9.540777013873921"><ele>190.0</ele><time>2026-04-18T11:02:30Z</time></trkpt><trkpt lat="44.84990527890508" lon="9.540758011510965"><ele>190.0</ele><time>2026-04-18T11:02:31Z</time></trkpt><trkpt lat="44.84975401115336" lon="9.540739679113953"><ele>190.0</ele><time>2026-04-18T11:02:32Z</time></trkpt><trkpt lat="44.84960916345818" lon="9.540721834942996"><ele>190.0</ele><time>2026-04-18T11:02:33Z</time></trkpt><trkpt lat="44.84945942119656" lon="9.540704293635951"><ele>190.0</ele><time>2026-04-18T11:02:34Z</time></trkpt><trkpt lat="44.84929286642637" lon="9.540687132530335"><ele>190.0</ele><time>2026-04-18T11:02:35Z</time></trkpt><trkpt lat="44.84911078166502" lon="9.540664781633833"><ele>191.0</ele><time>2026-04-18T11:02:36Z</time></trkpt><trkpt lat="44.84893571370161" lon="9.540641924486549"><ele>192.0</ele><time>2026-04-18T11:02:37Z</time></trkpt><trkpt lat="44.84877101172159" lon="9.54062571748286"><ele>193.0</ele><time>2026-04-18T11:02:38Z</time></trkpt><trkpt lat="44.84862026555653" lon="9.54058445378876"><ele>193.0</ele><time>2026-04-18T11:02:39Z</time></trkpt><trkpt lat="44.84846943890661" lon="9.540559939075122"><ele>193.0</ele><time>2026-04-18T11:02:40Z</time></trkpt><trkpt lat="44.84832816534239" lon="9.540511810567027"><ele>193.0</ele><time>2026-04-18T11:02:41Z</time></trkpt><trkpt lat="44.84820436719113" lon="9.540418011552585"><ele>193.0</ele><time>2026-04-18T11:02:42Z</time></trkpt><trkpt lat="44.84808948383496" lon="9.54028023049184"><ele>190.33333333333331</ele><time>2026-04-18T11:02:43Z</time></trkpt><trkpt lat="44.84796402444999" lon="9.540097628353715"><ele>187.66666666666666</ele><time>2026-04-18T11:02:44Z</time></trkpt><trkpt lat="44.847808419889795" lon="9.539891629184519"><ele>185.0</ele><time>2026-04-18T11:02:45Z</time></trkpt><trkpt lat="44.84765709716432" lon="9.539663645396484"><ele>186.33333333333331</ele><time>2026-04-18T11:02:46Z</time></trkpt><trkpt lat="44.847510198061734" lon="9.539449890102851"><ele>187.66666666666666</ele><time>2026-04-18T11:02:47Z</time></trkpt><trkpt lat="44.84736727182461" lon="9.53923302697503"><ele>189.0</ele><time>2026-04-18T11:02:48Z</time></trkpt><trkpt lat="44.847232846457686" lon="9.539030130112788"><ele>189.0</ele><time>2026-04-18T11:02:49Z</time></trkpt><trkpt lat="44.84711112213436" lon="9.538858022005988"><ele>189.0</ele><time>2026-04-18T11:02:50Z</time></trkpt><trkpt lat="44.846994074888705" lon="9.538705619562547"><ele>189.0</ele><time>2026-04-18T11:02:51Z</time></trkpt><trkpt lat="44.84685748900377" lon="9.538569983704388"><ele>188.66666666666666</ele><time>2026-04-18T11:02:52Z</time></trkpt><trkpt lat="44.84670107139118" lon="9.538451282682894"><ele>188.33333333333331</ele><time>2026-04-18T11:02:53Z</time></trkpt><trkpt lat="44.84652255334016" lon="9.538343877115349"><ele>188.0</ele><time>2026-04-18T11:02:54Z</time></trkpt><trkpt lat="44.846344335772095" lon="9.538248647380513"><ele>188.0</ele><time>2026-04-18T11:02:55Z</time></trkpt><trkpt lat="44.84618799573414" lon="9.538173689879727"><ele>188.0</ele><time>2026-04-18T11:02:56Z</time></trkpt><trkpt lat="44.846051362996704" lon="9.538063981595814"><ele>188.0</ele><time>2026-04-18T11:02:57Z</time></trkpt><trkpt lat="44.84592753365102" lon="9.537951864776797"><ele>189.33333333333331</ele><time>2026-04-18T11:02:58Z</time></trkpt><trkpt lat="44.84584209515587" lon="9.53779101028477"><ele>190.66666666666666</ele><time>2026-04-18T11:02:59Z</time></trkpt><trkpt lat="44.845761539269986" lon="9.537596346814928"><ele>192.0</ele><time>2026-04-18T11:03:00Z</time></trkpt><trkpt lat="44.84566408653238" lon="9.537391330677988"><ele>192.0</ele><time>2026-04-18T11:03:01Z</time></trkpt><trkpt lat="44.84558175032759" lon="9.537203965109537"><ele>192.0</ele><time>2026-04-18T11:03:02Z</time></trkpt><trkpt lat="44.845498178097785" lon="9.537052980854279"><ele>192.0</ele><time>2026-04-18T11:03:03Z</time></trkpt><trkpt lat="44.84539966534216" lon="9.536938574480232"><ele>192.0</ele><time>2026-04-18T11:03:04Z</time></trkpt><trkpt lat="44.845256737008704" lon="9.536829720987448"><ele>193.66666666666669</ele><time>2026-04-18T11:03:05Z</time></trkpt><trkpt lat="44.8450858651856" lon="9.536738698988948"><ele>195.33333333333334</ele><time>2026-04-18T11:03:06Z</time></trkpt><trkpt lat="44.84493031254163" lon="9.536673860195934"><ele>197.0</ele><time>2026-04-18T11:03:07Z</time></trkpt><trkpt lat="44.8447916119516" lon="9.536589547184343"><ele>197.0</ele><time>2026-04-18T11:03:08Z</time></trkpt><trkpt lat="44.844690530900145" lon="9.536420513462174"><ele>197.0</ele><time>2026-04-18T11:03:09Z</time></trkpt><trkpt lat="44.844607820322025" lon="9.536231366345497"><ele>197.0</ele><time>2026-04-18T11:03:10Z</time></trkpt><trkpt lat="44.84452025500586" lon="9.536073434095616"><ele>197.25</ele><time>2026-04-18T11:03:11Z</time></trkpt><trkpt lat="44.84439413643146" lon="9.535971791435808"><ele>197.5</ele><time>2026-04-18T11:03:12Z</time></trkpt><trkpt lat="44.84423842131856" lon="9.535917496636898"><ele>197.75</ele><time>2026-04-18T11:03:13Z</time></trkpt><trkpt lat="44.84410375878162" lon="9.535920133082234"><ele>198.0</ele><time>2026-04-18T11:03:14Z</time></trkpt><trkpt lat="44.843957675889044" lon="9.535956683721595"><ele>198.0</ele><time>2026-04-18T11:03:15Z</time></trkpt><trkpt lat="44.8438191211223" lon="9.535978923003286"><ele>198.0</ele><time>2026-04-18T11:03:16Z</time></trkpt><trkpt lat="44.84368699776072" lon="9.535936476825157"><ele>198.0</ele><time>2026-04-18T11:03:17Z</time></trkpt><trkpt lat="44.84355834986836" lon="9.535838970330081"><ele>198.0</ele><time>2026-04-18T11:03:18Z</time></trkpt><trkpt lat="44.84344339965697" lon="9.535700049015421"><ele>200.66666666666669</ele><time>2026-04-18T11:03:19Z</time></trkpt><trkpt lat="44.84337077475146" lon="9.535541206394432"><ele>203.33333333333334</ele><time>2026-04-18T11:03:20Z</time></trkpt><trkpt lat="44.84333923631594" lon="9.535342202733627"><ele>206.0</ele><time>2026-04-18T11:03:21Z</time></trkpt><trkpt lat="44.843328896072904" lon="9.535084202909871"><ele>206.0</ele><time>2026-04-18T11:03:22Z</time></trkpt><trkpt lat="44.843310532492296" lon="9.534808241157865"><ele>206.0</ele><time>2026-04-18T11:03:23Z</time></trkpt><trkpt lat="44.843279790671446" lon="9.534533689864482"><ele>206.0</ele><time>2026-04-18T11:03:24Z</time></trkpt><trkpt lat="44.84324628182625" lon="9.534241866973996"><ele>204.33333333333334</ele><time>2026-04-18T11:03:25Z</time></trkpt><trkpt lat="44.84321772598006" lon="9.533946585137004"><ele>202.66666666666669</ele><time>2026-04-18T11:03:26Z</time></trkpt><trkpt lat="44.843181262242354" lon="9.533669539835381"><ele>201.0</ele><time>2026-04-18T11:03:27Z</time></trkpt><trkpt lat="44.843137333157436" lon="9.533402775265031"><ele>199.66666666666669</ele><time>2026-04-18T11:03:28Z</time></trkpt><trkpt lat="44.843087588626155" lon="9.53316225641661"><ele>198.33333333333334</ele><time>2026-04-18T11:03:29Z</time></trkpt><trkpt lat="44.84303824361804" lon="9.532931675016128"><ele>197.0</ele><time>2026-04-18T11:03:30Z</time></trkpt><trkpt lat="44.84299034391435" lon="9.532720672482625"><ele>194.75</ele><time>2026-04-18T11:03:31Z</time></trkpt><trkpt lat="44.84293962310239" lon="9.53252087984214"><ele>192.5</ele><time>2026-04-18T11:03:32Z</time></trkpt><trkpt lat="44.842890681532225" lon="9.532312627388878"><ele>190.25</ele><time>2026-04-18T11:03:33Z</time></trkpt><trkpt lat="44.842847074327935" lon="9.53212811683006"><ele>188.0</ele><time>2026-04-18T11:03:34Z</time></trkpt><trkpt lat="44.84279609687903" lon="9.531969036768258"><ele>186.75</ele><time>2026-04-18T11:03:35Z</time></trkpt><trkpt lat="44.84274754799724" lon="9.531853440357626"><ele>185.5</ele><time>2026-04-18T11:03:36Z</time></trkpt><trkpt lat="44.842653576392436" lon="9.531752019579237"><ele>184.25</ele><time>2026-04-18T11:03:37Z</time></trkpt><trkpt lat="44.842528076784546" lon="9.531663087720643"><ele>183.0</ele><time>2026-04-18T11:03:38Z</time></trkpt><trkpt lat="44.84240648833551" lon="9.531585480633606"><ele>191.33333333333331</ele><time>2026-04-18T11:03:39Z</time></trkpt><trkpt lat="44.84220237554556" lon="9.531448177365895"><ele>199.66666666666666</ele><time>2026-04-18T11:03:40Z</time></trkpt><trkpt lat="44.84204828842473" lon="9.531356424377673"><ele>208.0</ele><time>2026-04-18T11:03:41Z</time></trkpt><trkpt lat="44.841918151669226" lon="9.53125216550584"><ele>208.75</ele><time>2026-04-18T11:03:42Z</time></trkpt><trkpt lat="44.84183265696849" lon="9.531099731940174"><ele>209.5</ele><time>2026-04-18T11:03:43Z</time></trkpt><trkpt lat="44.841746011398946" lon="9.530947668365942"><ele>210.25</ele><time>2026-04-18T11:03:44Z</time></trkpt><trkpt lat="44.841670649945016" lon="9.530783631903768"><ele>211.0</ele><time>2026-04-18T11:03:45Z</time></trkpt><trkpt lat="44.8415989498399" lon="9.530594716452361"><ele>211.0</ele><time>2026-04-18T11:03:46Z</time></trkpt><trkpt lat="44.84152512213244" lon="9.530392390360346"><ele>211.0</ele><time>2026-04-18T11:03:47Z</time></trkpt><trkpt lat="44.84146104998167" lon="9.530219293398615"><ele>211.0</ele><time>2026-04-18T11:03:48Z</time></trkpt><trkpt lat="44.84140267594983" lon="9.530063584396016"><ele>211.0</ele><time>2026-04-18T11:03:49Z</time></trkpt><trkpt lat="44.84133993326872" lon="9.529916490762995"><ele>208.75</ele><time>2026-04-18T11:03:50Z</time></trkpt><trkpt lat="44.841273358248856" lon="9.529773009926707"><ele>206.5</ele><time>2026-04-18T11:03:51Z</time></trkpt><trkpt lat="44.841196699274725" lon="9.52963342088438"><ele>204.25</ele><time>2026-04-18T11:03:52Z</time></trkpt><trkpt lat="44.84110812324339" lon="9.529484600047354"><ele>202.0</ele><time>2026-04-18T11:03:53Z</time></trkpt><trkpt lat="44.841002500322176" lon="9.529347334454544"><ele>203.5</ele><time>2026-04-18T11:03:54Z</time></trkpt><trkpt lat="44.840919171914905" lon="9.529177700469575"><ele>205.0</ele><time>2026-04-18T11:03:55Z</time></trkpt><trkpt lat="44.840829757400044" lon="9.529055293724099"><ele>206.5</ele><time>2026-04-18T11:03:56Z</time></trkpt><trkpt lat="44.84075547688118" lon="9.528934685871652"><ele>208.0</ele><time>2026-04-18T11:03:57Z</time></trkpt><trkpt lat="44.84066933865235" lon="9.528803227287629"><ele>206.33333333333331</ele><time>2026-04-18T11:03:58Z</time></trkpt><trkpt lat="44.84057822999584" lon="9.528659528419567"><ele>204.66666666666669</ele><time>2026-04-18T11:03:59Z</time></trkpt><trkpt lat="44.84047970306669" lon="9.528494122286872"><ele>203.0</ele><time>2026-04-18T11:04:00Z</time></trkpt><trkpt lat="44.84039718914319" lon="9.528290555400387"><ele>203.0</ele><time>2026-04-18T11:04:01Z</time></trkpt><trkpt lat="44.84029558259671" lon="9.528078423039162"><ele>203.0</ele><time>2026-04-18T11:04:02Z</time></trkpt><trkpt lat="44.84022976102218" lon="9.527886111809261"><ele>203.0</ele><time>2026-04-18T11:04:03Z</time></trkpt><trkpt lat="44.840157457294325" lon="9.527696896623254"><ele>204.0</ele><time>2026-04-18T11:04:04Z</time></trkpt><trkpt lat="44.84008278542667" lon="9.527512881518222"><ele>205.0</ele><time>2026-04-18T11:04:05Z</time></trkpt><trkpt lat="44.8399987448884" lon="9.52729860330724"><ele>206.0</ele><time>2026-04-18T11:04:06Z</time></trkpt><trkpt lat="44.839902667584454" lon="9.527059427990867"><ele>206.0</ele><time>2026-04-18T11:04:07Z</time></trkpt><trkpt lat="44.839824660995376" lon="9.526815041719622"><ele>206.0</ele><time>2026-04-18T11:04:08Z</time></trkpt><trkpt lat="44.83974358170522" lon="9.526595462685913"><ele>206.0</ele><time>2026-04-18T11:04:09Z</time></trkpt><trkpt lat="44.83966814052292" lon="9.52639315727463"><ele>203.33333333333334</ele><time>2026-04-18T11:04:10Z</time></trkpt><trkpt lat="44.83959196073321" lon="9.526190962668458"><ele>200.66666666666669</ele><time>2026-04-18T11:04:11Z</time></trkpt><trkpt lat="44.8395112564673" lon="9.525977186760834"><ele>198.0</ele><time>2026-04-18T11:04:12Z</time></trkpt><trkpt lat="44.83942246803572" lon="9.525750728794508"><ele>198.0</ele><time>2026-04-18T11:04:13Z</time></trkpt><trkpt lat="44.839339324484826" lon="9.525560330439662"><ele>198.0</ele><time>2026-04-18T11:04:14Z</time></trkpt><trkpt lat="44.83926090339192" lon="9.525406611061081"><ele>198.0</ele><time>2026-04-18T11:04:15Z</time></trkpt><trkpt lat="44.839189255330204" lon="9.525262179916426"><ele>198.0</ele><time>2026-04-18T11:04:16Z</time></trkpt><trkpt lat="44.83910868475365" lon="9.52510950778182"><ele>200.5</ele><time>2026-04-18T11:04:17Z</time></trkpt><trkpt lat="44.839043392200715" lon="9.524922905769163"><ele>203.0</ele><time>2026-04-18T11:04:18Z</time></trkpt><trkpt lat="44.839018159553866" lon="9.524711315956267"><ele>205.5</ele><time>2026-04-18T11:04:19Z</time></trkpt><trkpt lat="44.838976173952574" lon="9.524526135737636"><ele>208.0</ele><time>2026-04-18T11:04:20Z</time></trkpt><trkpt lat="44.83895667022861" lon="9.524358718076357"><ele>208.0</ele><time>2026-04-18T11:04:21Z</time></trkpt><trkpt lat="44.838929256602825" lon="9.524203986271507"><ele>208.0</ele><time>2026-04-18T11:04:22Z</time></trkpt><trkpt lat="44.838890558451205" lon="9.524040615012488"><ele>208.0</ele><time>2026-04-18T11:04:23Z</time></trkpt><trkpt lat="44.83883150289104" lon="9.523874850778512"><ele>208.0</ele><time>2026-04-18T11:04:24Z</time></trkpt><trkpt lat="44.83875614107829" lon="9.5236909357294"><ele>204.0</ele><time>2026-04-18T11:04:25Z</time></trkpt><trkpt lat="44.83867328395415" lon="9.52349366818961"><ele>200.0</ele><time>2026-04-18T11:04:26Z</time></trkpt><trkpt lat="44.83857602668531" lon="9.52332658083536"><ele>196.0</ele><time>2026-04-18T11:04:27Z</time></trkpt><trkpt lat="44.83847517602578" lon="9.523184086521782"><ele>198.33333333333331</ele><time>2026-04-18T11:04:28Z</time></trkpt><trkpt lat="44.83835900831782" lon="9.52304233776641"><ele>200.66666666666669</ele><time>2026-04-18T11:04:29Z</time></trkpt><trkpt lat="44.838212774715124" lon="9.522884957406012"><ele>203.0</ele><time>2026-04-18T11:04:30Z</time></trkpt><trkpt lat="44.83804324288067" lon="9.52271826293023"><ele>203.0</ele><time>2026-04-18T11:04:31Z</time></trkpt><trkpt lat="44.83788628721243" lon="9.522538886037731"><ele>203.0</ele><time>2026-04-18T11:04:32Z</time></trkpt><trkpt lat="44.837723470908685" lon="9.522369810964586"><ele>203.0</ele><time>2026-04-18T11:04:33Z</time></trkpt><trkpt lat="44.83756911147472" lon="9.522209517703622"><ele>203.0</ele><time>2026-04-18T11:04:34Z</time></trkpt><trkpt lat="44.83741269786272" lon="9.52204709139662"><ele>203.0</ele><time>2026-04-18T11:04:35Z</time></trkpt><trkpt lat="44.8372627746322" lon="9.521891405147286"><ele>203.0</ele><time>2026-04-18T11:04:36Z</time></trkpt><trkpt lat="44.837123251227816" lon="9.521750496892698"><ele>203.0</ele><time>2026-04-18T11:04:37Z</time></trkpt><trkpt lat="44.83698491862616" lon="9.521624955225766"><ele>203.0</ele><time>2026-04-18T11:04:38Z</time></trkpt><trkpt lat="44.83687104171291" lon="9.52145673058395"><ele>203.0</ele><time>2026-04-18T11:04:39Z</time></trkpt><trkpt lat="44.83675473593583" lon="9.521271817150971"><ele>204.66666666666669</ele><time>2026-04-18T11:04:40Z</time></trkpt><trkpt lat="44.83662821666215" lon="9.521081218465323"><ele>206.33333333333331</ele><time>2026-04-18T11:04:41Z</time></trkpt><trkpt lat="44.8364985490791" lon="9.52090599673711"><ele>208.0</ele><time>2026-04-18T11:04:42Z</time></trkpt><trkpt lat="44.83638198675142" lon="9.520736375260594"><ele>208.0</ele><time>2026-04-18T11:04:43Z</time></trkpt><trkpt lat="44.83626848340002" lon="9.520572946213429"><ele>208.0</ele><time>2026-04-18T11:04:44Z</time></trkpt><trkpt lat="44.83613375570259" lon="9.520422801476792"><ele>208.0</ele><time>2026-04-18T11:04:45Z</time></trkpt><trkpt lat="44.83598199803071" lon="9.52028969454485"><ele>206.66666666666666</ele><time>2026-04-18T11:04:46Z</time></trkpt><trkpt lat="44.8358150424082" lon="9.520186834518064"><ele>205.33333333333331</ele><time>2026-04-18T11:04:47Z</time></trkpt><trkpt lat="44.835633072702606" lon="9.520090091337547"><ele>204.0</ele><time>2026-04-18T11:04:48Z</time></trkpt><trkpt lat="44.83546429632331" lon="9.520004464201014"><ele>204.0</ele><time>2026-04-18T11:04:49Z</time></trkpt><trkpt lat="44.83531710504785" lon="9.519931864864391"><ele>204.0</ele><time>2026-04-18T11:04:50Z</time></trkpt><trkpt lat="44.835170717440704" lon="9.51989345746437"><ele>204.0</ele><time>2026-04-18T11:04:51Z</time></trkpt><trkpt lat="44.83502933881989" lon="9.519903287059664"><ele>204.0</ele><time>2026-04-18T11:04:52Z</time></trkpt><trkpt lat="44.83488572484492" lon="9.519984307601087"><ele>206.66666666666669</ele><time>2026-04-18T11:04:53Z</time></trkpt><trkpt lat="44.83474533348566" lon="9.520118781415775"><ele>209.33333333333334</ele><time>2026-04-18T11:04:54Z</time></trkpt><trkpt lat="44.83462449693975" lon="9.520267737686536"><ele>212.0</ele><time>2026-04-18T11:04:55Z</time></trkpt><trkpt lat="44.83451008368726" lon="9.520347573288836"><ele>212.0</ele><time>2026-04-18T11:04:56Z</time></trkpt><trkpt lat="44.83439194910999" lon="9.520348255686823"><ele>212.0</ele><time>2026-04-18T11:04:57Z</time></trkpt><trkpt lat="44.83427937288456" lon="9.520269794258546"><ele>212.0</ele><time>2026-04-18T11:04:58Z</time></trkpt><trkpt lat="44.83417112839941" lon="9.520138555806835"><ele>212.0</ele><time>2026-04-18T11:04:59Z</time></trkpt><trkpt lat="44.83402532231563" lon="9.520019480297915"><ele>210.33333333333334</ele><time>2026-04-18T11:05:00Z</time></trkpt><trkpt lat="44.83388189462008" lon="9.519870758173058"><ele>208.66666666666669</ele><time>2026-04-18T11:05:01Z</time></trkpt><trkpt lat="44.833735321963815" lon="9.519766124614877"><ele>207.0</ele><time>2026-04-18T11:05:02Z</time></trkpt><trkpt lat="44.833595695948944" lon="9.519687882554312"><ele>208.25</ele><time>2026-04-18T11:05:03Z</time></trkpt><trkpt lat="44.833467745484036" lon="9.519628438762302"><ele>209.5</ele><time>2026-04-18T11:05:04Z</time></trkpt><trkpt lat="44.83332626976455" lon="9.519584866706419"><ele>210.75</ele><time>2026-04-18T11:05:05Z</time></trkpt><trkpt lat="44.83315890899899" lon="9.519588232011754"><ele>212.0</ele><time>2026-04-18T11:05:06Z</time></trkpt><trkpt lat="44.832988505667295" lon="9.519636173523738"><ele>212.0</ele><time>2026-04-18T11:05:07Z</time></trkpt><trkpt lat="44.8328111466396" lon="9.519724010491727"><ele>212.0</ele><time>2026-04-18T11:05:08Z</time></trkpt><trkpt lat="44.832633654385546" lon="9.51982091895136"><ele>212.0</ele><time>2026-04-18T11:05:09Z</time></trkpt><trkpt lat="44.83246120441663" lon="9.519908981442876"><ele>211.0</ele><time>2026-04-18T11:05:10Z</time></trkpt><trkpt lat="44.83230842775946" lon="9.51998342866767"><ele>210.0</ele><time>2026-04-18T11:05:11Z</time></trkpt><trkpt lat="44.83214241221202" lon="9.520054383848935"><ele>209.0</ele><time>2026-04-18T11:05:12Z</time></trkpt><trkpt lat="44.83196716673762" lon="9.520124160545071"><ele>207.66666666666669</ele><time>2026-04-18T11:05:13Z</time></trkpt><trkpt lat="44.8318002012356" lon="9.520116641337854"><ele>206.33333333333331</ele><time>2026-04-18T11:05:14Z</time></trkpt><trkpt lat="44.83165151505249" lon="9.520095603825094"><ele>205.0</ele><time>2026-04-18T11:05:15Z</time></trkpt><trkpt lat="44.83152156608025" lon="9.520003121590682"><ele>205.0</ele><time>2026-04-18T11:05:16Z</time></trkpt><trkpt lat="44.8313797160844" lon="9.519864497466939"><ele>205.0</ele><time>2026-04-18T11:05:17Z</time></trkpt><trkpt lat="44.831250311060856" lon="9.519670653944493"><ele>205.0</ele><time>2026-04-18T11:05:18Z</time></trkpt><trkpt lat="44.83110492006486" lon="9.519487271011112"><ele>204.0</ele><time>2026-04-18T11:05:19Z</time></trkpt><trkpt lat="44.830976222246" lon="9.51928095822787"><ele>203.0</ele><time>2026-04-18T11:05:20Z</time></trkpt><trkpt lat="44.83085868633579" lon="9.519103466388746"><ele>202.0</ele><time>2026-04-18T11:05:21Z</time></trkpt><trkpt lat="44.83074509865282" lon="9.518941187835736"><ele>202.0</ele><time>2026-04-18T11:05:22Z</time></trkpt><trkpt lat="44.83063979472715" lon="9.518786116359966"><ele>202.0</ele><time>2026-04-18T11:05:23Z</time></trkpt><trkpt lat="44.830552309669415" lon="9.518626453053285"><ele>202.0</ele><time>2026-04-18T11:05:24Z</time></trkpt><trkpt lat="44.83051882904784" lon="9.51843733627975"><ele>202.0</ele><time>2026-04-18T11:05:25Z</time></trkpt><trkpt lat="44.83051592302529" lon="9.518261747813494"><ele>201.33333333333331</ele><time>2026-04-18T11:05:26Z</time></trkpt><trkpt lat="44.83057119134135" lon="9.518095786544201"><ele>200.66666666666669</ele><time>2026-04-18T11:05:27Z</time></trkpt><trkpt lat="44.83064285020453" lon="9.517892549355027"><ele>200.0</ele><time>2026-04-18T11:05:28Z</time></trkpt><trkpt lat="44.83072392139055" lon="9.517668614273887"><ele>201.25</ele><time>2026-04-18T11:05:29Z</time></trkpt><trkpt lat="44.83080791273268" lon="9.517477264987924"><ele>202.5</ele><time>2026-04-18T11:05:30Z</time></trkpt><trkpt lat="44.83087355185445" lon="9.517307368916445"><ele>203.75</ele><time>2026-04-18T11:05:31Z</time></trkpt><trkpt lat="44.830900647868546" lon="9.517129401363743"><ele>205.0</ele><time>2026-04-18T11:05:32Z</time></trkpt><trkpt lat="44.83088609287642" lon="9.516932219448272"><ele>205.0</ele><time>2026-04-18T11:05:33Z</time></trkpt><trkpt lat="44.83084935981925" lon="9.516729825758768"><ele>205.0</ele><time>2026-04-18T11:05:34Z</time></trkpt><trkpt lat="44.83081548078606" lon="9.516556515195871"><ele>205.0</ele><time>2026-04-18T11:05:35Z</time></trkpt><trkpt lat="44.83077267247317" lon="9.516399953037592"><ele>205.0</ele><time>2026-04-18T11:05:35.999Z</time></trkpt><trkpt lat="44.83070554449982" lon="9.516252363369558"><ele>203.4</ele><time>2026-04-18T11:05:36.999Z</time></trkpt><trkpt lat="44.83061883672142" lon="9.516157066371251"><ele>201.8</ele><time>2026-04-18T11:05:37.999Z</time></trkpt><trkpt lat="44.83054626434195" lon="9.516067182884933"><ele>200.2</ele><time>2026-04-18T11:05:38.999Z</time></trkpt><trkpt lat="44.83049049161439" lon="9.515967550988298"><ele>198.6</ele><time>2026-04-18T11:05:39.999Z</time></trkpt><trkpt lat="44.830408161512196" lon="9.51586422957066"><ele>197.0</ele><time>2026-04-18T11:05:40.999Z</time></trkpt><trkpt lat="44.830306717231046" lon="9.515731652565503"><ele>197.0</ele><time>2026-04-18T11:05:41.999Z</time></trkpt><trkpt lat="44.830203481582274" lon="9.51557879125795"><ele>197.0</ele><time>2026-04-18T11:05:42.999Z</time></trkpt><trkpt lat="44.83007465518405" lon="9.515423758039754"><ele>197.0</ele><time>2026-04-18T11:05:43.999Z</time></trkpt><trkpt lat="44.82992862589868" lon="9.515275131069743"><ele>196.0</ele><time>2026-04-18T11:05:45Z</time></trkpt><trkpt lat="44.82976571261616" lon="9.515131155137253"><ele>195.0</ele><time>2026-04-18T11:05:46Z</time></trkpt><trkpt lat="44.829589194754796" lon="9.51497293796631"><ele>194.0</ele><time>2026-04-18T11:05:47Z</time></trkpt><trkpt lat="44.8294160947025" lon="9.514813122422943"><ele>194.33333333333334</ele><time>2026-04-18T11:05:48Z</time></trkpt><trkpt lat="44.829232274744015" lon="9.514644446969664"><ele>194.66666666666669</ele><time>2026-04-18T11:05:49Z</time></trkpt><trkpt lat="44.829054468421916" lon="9.51448051706242"><ele>195.0</ele><time>2026-04-18T11:05:50Z</time></trkpt><trkpt lat="44.82890636491558" lon="9.51430164550037"><ele>195.0</ele><time>2026-04-18T11:05:51Z</time></trkpt><trkpt lat="44.8287598861709" lon="9.514135553669966"><ele>195.0</ele><time>2026-04-18T11:05:52Z</time></trkpt><trkpt lat="44.82861303164263" lon="9.513949428390623"><ele>195.0</ele><time>2026-04-18T11:05:53Z</time></trkpt><trkpt lat="44.828472693710395" lon="9.513732521774845"><ele>198.5</ele><time>2026-04-18T11:05:54Z</time></trkpt><trkpt lat="44.82834234074544" lon="9.513486920555517"><ele>202.0</ele><time>2026-04-18T11:05:55Z</time></trkpt><trkpt lat="44.82821866549147" lon="9.513203272922656"><ele>202.0</ele><time>2026-04-18T11:05:56Z</time></trkpt><trkpt lat="44.82810662302335" lon="9.512908176610063"><ele>202.0</ele><time>2026-04-18T11:05:57Z</time></trkpt><trkpt lat="44.828006854864796" lon="9.512627400889537"><ele>198.33333333333331</ele><time>2026-04-18T11:05:58Z</time></trkpt><trkpt lat="44.82790160527614" lon="9.512377393426293"><ele>194.66666666666666</ele><time>2026-04-18T11:05:59Z</time></trkpt><trkpt lat="44.827810579246055" lon="9.512131185721618"><ele>191.0</ele><time>2026-04-18T11:06:00Z</time></trkpt><trkpt lat="44.827698952198006" lon="9.511880912109246"><ele>190.33333333333331</ele><time>2026-04-18T11:06:01Z</time></trkpt><trkpt lat="44.827572197489694" lon="9.511634401311294"><ele>189.66666666666666</ele><time>2026-04-18T11:06:02Z</time></trkpt><trkpt lat="44.82742547183591" lon="9.511387376870484"><ele>189.0</ele><time>2026-04-18T11:06:03Z</time></trkpt><trkpt lat="44.82726862676789" lon="9.51113679870303"><ele>189.0</ele><time>2026-04-18T11:06:04Z</time></trkpt><trkpt lat="44.82710310513083" lon="9.510878821675231"><ele>189.0</ele><time>2026-04-18T11:06:05Z</time></trkpt><trkpt lat="44.826924501589275" lon="9.510600558624414"><ele>188.5</ele><time>2026-04-18T11:06:06Z</time></trkpt><trkpt lat="44.82674211804747" lon="9.51029835022852"><ele>188.0</ele><time>2026-04-18T11:06:07Z</time></trkpt><trkpt lat="44.82657601006149" lon="9.5099678733979"><ele>188.0</ele><time>2026-04-18T11:06:08Z</time></trkpt><trkpt lat="44.82640334057266" lon="9.509631312926658"><ele>188.0</ele><time>2026-04-18T11:06:09Z</time></trkpt><trkpt lat="44.82624001141857" lon="9.50929870182174"><ele>187.5</ele><time>2026-04-18T11:06:10Z</time></trkpt><trkpt lat="44.82608074345773" lon="9.508972027297329"><ele>187.0</ele><time>2026-04-18T11:06:11Z</time></trkpt><trkpt lat="44.82593618003856" lon="9.508678088309622"><ele>190.0</ele><time>2026-04-18T11:06:12Z</time></trkpt><trkpt lat="44.825786252492186" lon="9.508409007055798"><ele>193.0</ele><time>2026-04-18T11:06:13Z</time></trkpt><trkpt lat="44.825650407953596" lon="9.508136787726952"><ele>190.5</ele><time>2026-04-18T11:06:14Z</time></trkpt><trkpt lat="44.825513941423154" lon="9.507853175464124"><ele>188.0</ele><time>2026-04-18T11:06:15Z</time></trkpt><trkpt lat="44.82537932828727" lon="9.50756414807389"><ele>188.0</ele><time>2026-04-18T11:06:16Z</time></trkpt><trkpt lat="44.82524016862439" lon="9.507273860084583"><ele>188.0</ele><time>2026-04-18T11:06:17Z</time></trkpt><trkpt lat="44.82509808179882" lon="9.506973745996614"><ele>188.5</ele><time>2026-04-18T11:06:18Z</time></trkpt><trkpt lat="44.82495990820928" lon="9.506668611916517"><ele>189.0</ele><time>2026-04-18T11:06:19Z</time></trkpt><trkpt lat="44.82481909405637" lon="9.506364458439313"><ele>188.5</ele><time>2026-04-18T11:06:20Z</time></trkpt><trkpt lat="44.82467688335397" lon="9.506058653623098"><ele>188.0</ele><time>2026-04-18T11:06:21Z</time></trkpt><trkpt lat="44.82455337687552" lon="9.505753489839272"><ele>188.0</ele><time>2026-04-18T11:06:22Z</time></trkpt><trkpt lat="44.82441411023058" lon="9.505489663817853"><ele>188.0</ele><time>2026-04-18T11:06:23Z</time></trkpt><trkpt lat="44.824283696990356" lon="9.505211445640601"><ele>188.5</ele><time>2026-04-18T11:06:24Z</time></trkpt><trkpt lat="44.82414858307068" lon="9.504931697792454"><ele>189.0</ele><time>2026-04-18T11:06:25Z</time></trkpt><trkpt lat="44.824006465531" lon="9.504658858328304"><ele>188.5</ele><time>2026-04-18T11:06:26Z</time></trkpt><trkpt lat="44.82385676599325" lon="9.504392451689275"><ele>188.0</ele><time>2026-04-18T11:06:27Z</time></trkpt><trkpt lat="44.82371168793212" lon="9.504111539753199"><ele>188.0</ele><time>2026-04-18T11:06:28Z</time></trkpt><trkpt lat="44.82353625004127" lon="9.50384926748671"><ele>188.0</ele><time>2026-04-18T11:06:29Z</time></trkpt><trkpt lat="44.82335269106739" lon="9.503594063496"><ele>188.5</ele><time>2026-04-18T11:06:30Z</time></trkpt><trkpt lat="44.823164314562156" lon="9.503353461082215"><ele>189.0</ele><time>2026-04-18T11:06:31Z</time></trkpt><trkpt lat="44.82297471437435" lon="9.50312723710374"><ele>189.0</ele><time>2026-04-18T11:06:32Z</time></trkpt><trkpt lat="44.82279840525663" lon="9.502919286930783"><ele>189.0</ele><time>2026-04-18T11:06:33Z</time></trkpt><trkpt lat="44.8226288526266" lon="9.502719305789482"><ele>188.33333333333334</ele><time>2026-04-18T11:06:34Z</time></trkpt><trkpt lat="44.822433417894445" lon="9.502562200432557"><ele>187.66666666666669</ele><time>2026-04-18T11:06:35Z</time></trkpt><trkpt lat="44.822277851705635" lon="9.502384651801695"><ele>187.0</ele><time>2026-04-18T11:06:36Z</time></trkpt><trkpt lat="44.82213038647886" lon="9.502218976864446"><ele>186.66666666666669</ele><time>2026-04-18T11:06:37Z</time></trkpt><trkpt lat="44.82197760169796" lon="9.502043100487546"><ele>186.33333333333334</ele><time>2026-04-18T11:06:38Z</time></trkpt><trkpt lat="44.82183406984526" lon="9.50187655288485"><ele>186.0</ele><time>2026-04-18T11:06:39Z</time></trkpt><trkpt lat="44.821696051331216" lon="9.501693352411648"><ele>187.0</ele><time>2026-04-18T11:06:40Z</time></trkpt><trkpt lat="44.82157048737798" lon="9.501497392625204"><ele>188.0</ele><time>2026-04-18T11:06:41Z</time></trkpt><trkpt lat="44.8214437157948" lon="9.501283518875102"><ele>189.0</ele><time>2026-04-18T11:06:42Z</time></trkpt><trkpt lat="44.82132985220818" lon="9.50107457815369"><ele>189.0</ele><time>2026-04-18T11:06:43Z</time></trkpt><trkpt lat="44.82122567249635" lon="9.500859886869627"><ele>189.0</ele><time>2026-04-18T11:06:44Z</time></trkpt><trkpt lat="44.82113545546293" lon="9.500650022020501"><ele>189.0</ele><time>2026-04-18T11:06:45Z</time></trkpt><trkpt lat="44.82104529032982" lon="9.500421276752148"><ele>190.33333333333331</ele><time>2026-04-18T11:06:46Z</time></trkpt><trkpt lat="44.82095464671189" lon="9.500159650390163"><ele>191.66666666666666</ele><time>2026-04-18T11:06:47Z</time></trkpt><trkpt lat="44.82086822415651" lon="9.499870099367918"><ele>193.0</ele><time>2026-04-18T11:06:48Z</time></trkpt><trkpt lat="44.82078433111089" lon="9.499564764098764"><ele>193.0</ele><time>2026-04-18T11:06:49Z</time></trkpt><trkpt lat="44.82070148629018" lon="9.499254190048351"><ele>193.0</ele><time>2026-04-18T11:06:50Z</time></trkpt><trkpt lat="44.8206145573172" lon="9.498943511098906"><ele>192.5</ele><time>2026-04-18T11:06:51Z</time></trkpt><trkpt lat="44.82052436432304" lon="9.49862315399842"><ele>192.0</ele><time>2026-04-18T11:06:52Z</time></trkpt><trkpt lat="44.82043316983316" lon="9.498295312917113"><ele>192.0</ele><time>2026-04-18T11:06:53Z</time></trkpt><trkpt lat="44.82033449949933" lon="9.497965833312646"><ele>192.0</ele><time>2026-04-18T11:06:54Z</time></trkpt><trkpt lat="44.82023627037987" lon="9.497651441750945"><ele>195.0</ele><time>2026-04-18T11:06:55Z</time></trkpt><trkpt lat="44.82013435369423" lon="9.4973301967295"><ele>198.0</ele><time>2026-04-18T11:06:56Z</time></trkpt><trkpt lat="44.820031184508494" lon="9.496999978775243"><ele>198.0</ele><time>2026-04-18T11:06:57Z</time></trkpt><trkpt lat="44.819931537839246" lon="9.496668594133226"><ele>198.0</ele><time>2026-04-18T11:06:58Z</time></trkpt><trkpt lat="44.819830189495285" lon="9.496338264028797"><ele>195.5</ele><time>2026-04-18T11:06:59Z</time></trkpt><trkpt lat="44.819728620041296" lon="9.496010393420253"><ele>193.0</ele><time>2026-04-18T11:07:00Z</time></trkpt><trkpt lat="44.81963580316455" lon="9.495701031465412"><ele>191.5</ele><time>2026-04-18T11:07:01Z</time></trkpt><trkpt lat="44.81954304043132" lon="9.495378243837623"><ele>190.0</ele><time>2026-04-18T11:07:02Z</time></trkpt><trkpt lat="44.81944835958613" lon="9.495051331008979"><ele>190.0</ele><time>2026-04-18T11:07:03Z</time></trkpt><trkpt lat="44.819355084362286" lon="9.494722844172049"><ele>190.0</ele><time>2026-04-18T11:07:04Z</time></trkpt><trkpt lat="44.81926143223735" lon="9.494389248669114"><ele>192.0</ele><time>2026-04-18T11:07:05Z</time></trkpt><trkpt lat="44.81917686278686" lon="9.494055054709595"><ele>194.0</ele><time>2026-04-18T11:07:06Z</time></trkpt><trkpt lat="44.819108408695186" lon="9.493716245030523"><ele>194.0</ele><time>2026-04-18T11:07:07Z</time></trkpt><trkpt lat="44.81904468564693" lon="9.493360371485593"><ele>194.0</ele><time>2026-04-18T11:07:08Z</time></trkpt><trkpt lat="44.8189957265476" lon="9.492996823068655"><ele>194.0</ele><time>2026-04-18T11:07:09Z</time></trkpt><trkpt lat="44.8189593055592" lon="9.49263243548696"><ele>194.0</ele><time>2026-04-18T11:07:10Z</time></trkpt><trkpt lat="44.81893761377014" lon="9.492258737184969"><ele>194.0</ele><time>2026-04-18T11:07:11Z</time></trkpt><trkpt lat="44.81892237007832" lon="9.491885201415084"><ele>194.0</ele><time>2026-04-18T11:07:12Z</time></trkpt><trkpt lat="44.81891156150526" lon="9.491515292454448"><ele>194.5</ele><time>2026-04-18T11:07:13Z</time></trkpt><trkpt lat="44.818905249849934" lon="9.491169755725588"><ele>195.0</ele><time>2026-04-18T11:07:14Z</time></trkpt><trkpt lat="44.81889794481964" lon="9.49084173666938"><ele>195.0</ele><time>2026-04-18T11:07:15Z</time></trkpt><trkpt lat="44.81888732111163" lon="9.490499930852891"><ele>195.0</ele><time>2026-04-18T11:07:16Z</time></trkpt><trkpt lat="44.81887564375931" lon="9.490156256505978"><ele>195.0</ele><time>2026-04-18T11:07:17Z</time></trkpt><trkpt lat="44.818867424294005" lon="9.489814319606902"><ele>195.0</ele><time>2026-04-18T11:07:18Z</time></trkpt><trkpt lat="44.81886026831145" lon="9.489496630512354"><ele>195.0</ele><time>2026-04-18T11:07:19Z</time></trkpt><trkpt lat="44.818850645571835" lon="9.489178209027955"><ele>195.0</ele><time>2026-04-18T11:07:20Z</time></trkpt><trkpt lat="44.81884403093765" lon="9.488852253856626"><ele>194.5</ele><time>2026-04-18T11:07:21Z</time></trkpt><trkpt lat="44.81883756616717" lon="9.488519660366032"><ele>194.0</ele><time>2026-04-18T11:07:22Z</time></trkpt><trkpt lat="44.81883086124294" lon="9.488181385133464"><ele>195.0</ele><time>2026-04-18T11:07:23Z</time></trkpt><trkpt lat="44.818823035620426" lon="9.487840603085186"><ele>196.0</ele><time>2026-04-18T11:07:24Z</time></trkpt><trkpt lat="44.81881625339005" lon="9.48750815786783"><ele>196.0</ele><time>2026-04-18T11:07:24.999Z</time></trkpt><trkpt lat="44.81880731694274" lon="9.487198518973942"><ele>196.0</ele><time>2026-04-18T11:07:25.999Z</time></trkpt><trkpt lat="44.81879476962217" lon="9.486882870165461"><ele>196.0</ele><time>2026-04-18T11:07:26.999Z</time></trkpt><trkpt lat="44.818772860501916" lon="9.486591620068706"><ele>196.66666666666666</ele><time>2026-04-18T11:07:27.999Z</time></trkpt><trkpt lat="44.81873114760072" lon="9.486325806335945"><ele>197.33333333333331</ele><time>2026-04-18T11:07:28.999Z</time></trkpt><trkpt lat="44.818675921202875" lon="9.486051112866756"><ele>198.0</ele><time>2026-04-18T11:07:29.999Z</time></trkpt><trkpt lat="44.81860519640146" lon="9.485787417323404"><ele>198.33333333333331</ele><time>2026-04-18T11:07:30.999Z</time></trkpt><trkpt lat="44.81852660625735" lon="9.48553044828005"><ele>198.66666666666666</ele><time>2026-04-18T11:07:31.999Z</time></trkpt><trkpt lat="44.81843229463539" lon="9.485260997458353"><ele>199.0</ele><time>2026-04-18T11:07:32.999Z</time></trkpt><trkpt lat="44.818321270964546" lon="9.484971972876316"><ele>208.0</ele><time>2026-04-18T11:07:33.999Z</time></trkpt><trkpt lat="44.81820694859359" lon="9.484651894974224"><ele>217.0</ele><time>2026-04-18T11:07:34.999Z</time></trkpt><trkpt lat="44.81808752164283" lon="9.484298485541322"><ele>217.5</ele><time>2026-04-18T11:07:36.019Z</time></trkpt><trkpt lat="44.81798304074341" lon="9.483976789359312"><ele>218.0</ele><time>2026-04-18T11:07:37.021Z</time></trkpt><trkpt lat="44.8178839325745" lon="9.483667814076634"><ele>218.0</ele><time>2026-04-18T11:07:38.019Z</time></trkpt><trkpt lat="44.817780994388016" lon="9.483345204691997"><ele>218.0</ele><time>2026-04-18T11:07:39.019Z</time></trkpt><trkpt lat="44.8176760231054" lon="9.483017804697665"><ele>216.5</ele><time>2026-04-18T11:07:40.02Z</time></trkpt><trkpt lat="44.81757634119761" lon="9.482709119690881"><ele>215.0</ele><time>2026-04-18T11:07:41.019Z</time></trkpt><trkpt lat="44.81747850246375" lon="9.482404254616954"><ele>215.0</ele><time>2026-04-18T11:07:42.015Z</time></trkpt><trkpt lat="44.817361155345786" lon="9.482102081360223"><ele>215.0</ele><time>2026-04-18T11:07:43.016Z</time></trkpt><trkpt lat="44.817160852295174" lon="9.48177281768013"><ele>211.33333333333334</ele><time>2026-04-18T11:07:44.999Z</time></trkpt><trkpt lat="44.817065193665094" lon="9.481509849582404"><ele>207.66666666666669</ele><time>2026-04-18T11:07:45.999Z</time></trkpt><trkpt lat="44.81698809234723" lon="9.481234721990834"><ele>204.0</ele><time>2026-04-18T11:07:46.999Z</time></trkpt><trkpt lat="44.81691252262795" lon="9.480950627670545"><ele>205.5</ele><time>2026-04-18T11:07:47.999Z</time></trkpt><trkpt lat="44.81683994126166" lon="9.480639771143169"><ele>207.0</ele><time>2026-04-18T11:07:48.999Z</time></trkpt><trkpt lat="44.816775010440836" lon="9.480303182188834"><ele>207.0</ele><time>2026-04-18T11:07:49.999Z</time></trkpt><trkpt lat="44.81671921089387" lon="9.479946177466603"><ele>207.0</ele><time>2026-04-18T11:07:51Z</time></trkpt><trkpt lat="44.81667079801117" lon="9.479587091037919"><ele>208.0</ele><time>2026-04-18T11:07:52Z</time></trkpt><trkpt lat="44.81665960243202" lon="9.479220412257595"><ele>209.0</ele><time>2026-04-18T11:07:53Z</time></trkpt><trkpt lat="44.816647640554464" lon="9.478837674653867"><ele>209.5</ele><time>2026-04-18T11:07:54Z</time></trkpt><trkpt lat="44.816644633932114" lon="9.478464253125452"><ele>210.0</ele><time>2026-04-18T11:07:55Z</time></trkpt><trkpt lat="44.81666530332873" lon="9.478128498954954"><ele>210.33333333333331</ele><time>2026-04-18T11:07:56Z</time></trkpt><trkpt lat="44.81666668572574" lon="9.477842506028814"><ele>210.66666666666666</ele><time>2026-04-18T11:07:57Z</time></trkpt><trkpt lat="44.816659614033284" lon="9.47752289582528"><ele>211.0</ele><time>2026-04-18T11:07:58Z</time></trkpt><trkpt lat="44.81662961814664" lon="9.477187389702621"><ele>213.5</ele><time>2026-04-18T11:07:59Z</time></trkpt><trkpt lat="44.81663086915311" lon="9.476869109963976"><ele>216.0</ele><time>2026-04-18T11:08:00Z</time></trkpt><trkpt lat="44.81662578825625" lon="9.476537310529693"><ele>217.66666666666669</ele><time>2026-04-18T11:08:01Z</time></trkpt><trkpt lat="44.81663216464084" lon="9.476218033700224"><ele>219.33333333333334</ele><time>2026-04-18T11:08:02Z</time></trkpt><trkpt lat="44.81663310935577" lon="9.475918381961554"><ele>221.0</ele><time>2026-04-18T11:08:03Z</time></trkpt><trkpt lat="44.81663507042347" lon="9.47563080341391"><ele>222.33333333333334</ele><time>2026-04-18T11:08:04Z</time></trkpt><trkpt lat="44.81663689939701" lon="9.475343105221214"><ele>223.66666666666669</ele><time>2026-04-18T11:08:05Z</time></trkpt><trkpt lat="44.81664119847663" lon="9.475067008792033"><ele>225.0</ele><time>2026-04-18T11:08:06Z</time></trkpt><trkpt lat="44.81664256736821" lon="9.474773712713954"><ele>226.0</ele><time>2026-04-18T11:08:07Z</time></trkpt><trkpt lat="44.81664702263274" lon="9.474483797385949"><ele>227.0</ele><time>2026-04-18T11:08:08Z</time></trkpt><trkpt lat="44.81666285944461" lon="9.474240869201209"><ele>228.0</ele><time>2026-04-18T11:08:09Z</time></trkpt><trkpt lat="44.816670684348765" lon="9.47400869991724"><ele>228.0</ele><time>2026-04-18T11:08:10Z</time></trkpt><trkpt lat="44.81667653683708" lon="9.473784712002862"><ele>228.0</ele><time>2026-04-18T11:08:11Z</time></trkpt><trkpt lat="44.81668154083365" lon="9.473573511005437"><ele>228.0</ele><time>2026-04-18T11:08:12Z</time></trkpt><trkpt lat="44.81669701817231" lon="9.473381375141281"><ele>228.0</ele><time>2026-04-18T11:08:13Z</time></trkpt><trkpt lat="44.81671651653747" lon="9.473208610862041"><ele>228.0</ele><time>2026-04-18T11:08:14Z</time></trkpt><trkpt lat="44.816755052609736" lon="9.473044561108598"><ele>228.0</ele><time>2026-04-18T11:08:15Z</time></trkpt><trkpt lat="44.81681571346536" lon="9.472865488818304"><ele>228.0</ele><time>2026-04-18T11:08:16Z</time></trkpt><trkpt lat="44.81689355780272" lon="9.472659851202248"><ele>228.0</ele><time>2026-04-18T11:08:17Z</time></trkpt><trkpt lat="44.81698456199569" lon="9.472463625156514"><ele>229.0</ele><time>2026-04-18T11:08:18Z</time></trkpt><trkpt lat="44.81709565685013" lon="9.47227663422294"><ele>230.0</ele><time>2026-04-18T11:08:19Z</time></trkpt><trkpt lat="44.81723021676837" lon="9.472094675976852"><ele>231.0</ele><time>2026-04-18T11:08:20Z</time></trkpt><trkpt lat="44.81736022975067" lon="9.471935300231518"><ele>231.0</ele><time>2026-04-18T11:08:21Z</time></trkpt><trkpt lat="44.817466557276234" lon="9.471757619172337"><ele>231.0</ele><time>2026-04-18T11:08:22Z</time></trkpt><trkpt lat="44.81754872182262" lon="9.471538886305769"><ele>231.0</ele><time>2026-04-18T11:08:23Z</time></trkpt><trkpt lat="44.81759846698818" lon="9.471265578558953"><ele>230.66666666666669</ele><time>2026-04-18T11:08:24Z</time></trkpt><trkpt lat="44.81761848148052" lon="9.470974782824616"><ele>230.33333333333334</ele><time>2026-04-18T11:08:25Z</time></trkpt><trkpt lat="44.817606539336836" lon="9.47066577837883"><ele>230.0</ele><time>2026-04-18T11:08:26Z</time></trkpt><trkpt lat="44.81754734923634" lon="9.47035384937588"><ele>230.0</ele><time>2026-04-18T11:08:27Z</time></trkpt><trkpt lat="44.81753561116677" lon="9.470013619875527"><ele>230.0</ele><time>2026-04-18T11:08:28Z</time></trkpt><trkpt lat="44.81750070577001" lon="9.469646855279022"><ele>225.0</ele><time>2026-04-18T11:08:29Z</time></trkpt><trkpt lat="44.81732358661874" lon="9.469301807323546"><ele>220.0</ele><time>2026-04-18T11:08:30Z</time></trkpt><trkpt lat="44.81725476539024" lon="9.46895855646236"><ele>219.0</ele><time>2026-04-18T11:08:31Z</time></trkpt><trkpt lat="44.8171899172911" lon="9.468643892632365"><ele>218.0</ele><time>2026-04-18T11:08:32Z</time></trkpt><trkpt lat="44.81713064289966" lon="9.468344666123782"><ele>218.0</ele><time>2026-04-18T11:08:33Z</time></trkpt><trkpt lat="44.81707912735768" lon="9.468064452925454"><ele>218.0</ele><time>2026-04-18T11:08:34Z</time></trkpt><trkpt lat="44.81702287736469" lon="9.467776261625616"><ele>218.0</ele><time>2026-04-18T11:08:35Z</time></trkpt><trkpt lat="44.81695597890377" lon="9.467479425103202"><ele>217.5</ele><time>2026-04-18T11:08:36Z</time></trkpt><trkpt lat="44.81685866000444" lon="9.46717373437357"><ele>217.0</ele><time>2026-04-18T11:08:37Z</time></trkpt><trkpt lat="44.81674984264631" lon="9.466872641714096"><ele>222.5</ele><time>2026-04-18T11:08:38Z</time></trkpt><trkpt lat="44.81662594775026" lon="9.466580089458224"><ele>228.0</ele><time>2026-04-18T11:08:39Z</time></trkpt><trkpt lat="44.81651013399793" lon="9.466295203829057"><ele>225.0</ele><time>2026-04-18T11:08:40Z</time></trkpt><trkpt lat="44.81640193564641" lon="9.466047773753022"><ele>222.0</ele><time>2026-04-18T11:08:41Z</time></trkpt><trkpt lat="44.81629844955063" lon="9.465808283970421"><ele>219.0</ele><time>2026-04-18T11:08:42Z</time></trkpt><trkpt lat="44.816203587025306" lon="9.465554815583221"><ele>217.0</ele><time>2026-04-18T11:08:43Z</time></trkpt><trkpt lat="44.81612836734432" lon="9.465276488987099"><ele>215.0</ele><time>2026-04-18T11:08:44Z</time></trkpt><trkpt lat="44.81607561674477" lon="9.464970163935124"><ele>213.0</ele><time>2026-04-18T11:08:45Z</time></trkpt><trkpt lat="44.816044094803246" lon="9.464634805381156"><ele>212.0</ele><time>2026-04-18T11:08:46Z</time></trkpt><trkpt lat="44.816033702835426" lon="9.46429534517938"><ele>211.0</ele><time>2026-04-18T11:08:47Z</time></trkpt><trkpt lat="44.81600104213918" lon="9.463956497281382"><ele>218.0</ele><time>2026-04-18T11:08:48Z</time></trkpt><trkpt lat="44.81596051532698" lon="9.4636413060214"><ele>225.0</ele><time>2026-04-18T11:08:49Z</time></trkpt><trkpt lat="44.815922215395524" lon="9.463350088271806"><ele>232.0</ele><time>2026-04-18T11:08:50Z</time></trkpt><trkpt lat="44.81588061592564" lon="9.463077562093867"><ele>231.0</ele><time>2026-04-18T11:08:51Z</time></trkpt><trkpt lat="44.81584101280473" lon="9.462795052468165"><ele>230.0</ele><time>2026-04-18T11:08:52Z</time></trkpt><trkpt lat="44.815797304995364" lon="9.462503695898079"><ele>229.0</ele><time>2026-04-18T11:08:53Z</time></trkpt><trkpt lat="44.81574844437568" lon="9.462209795305261"><ele>227.5</ele><time>2026-04-18T11:08:54Z</time></trkpt><trkpt lat="44.81569796670316" lon="9.461896079035379"><ele>226.0</ele><time>2026-04-18T11:08:55Z</time></trkpt><trkpt lat="44.81565134935534" lon="9.461587193502101"><ele>226.0</ele><time>2026-04-18T11:08:56Z</time></trkpt><trkpt lat="44.81561557572604" lon="9.461308619238004"><ele>226.0</ele><time>2026-04-18T11:08:57Z</time></trkpt><trkpt lat="44.8155821764311" lon="9.461027459127292"><ele>226.0</ele><time>2026-04-18T11:08:58Z</time></trkpt><trkpt lat="44.81555718556199" lon="9.460747513954741"><ele>225.33333333333331</ele><time>2026-04-18T11:08:59Z</time></trkpt><trkpt lat="44.81553361976898" lon="9.460475535445672"><ele>224.66666666666669</ele><time>2026-04-18T11:09:00Z</time></trkpt><trkpt lat="44.81551123255888" lon="9.460195217067861"><ele>224.0</ele><time>2026-04-18T11:09:01Z</time></trkpt><trkpt lat="44.81548532376967" lon="9.459927948151824"><ele>223.75</ele><time>2026-04-18T11:09:02Z</time></trkpt><trkpt lat="44.81546631748443" lon="9.459674034983673"><ele>223.5</ele><time>2026-04-18T11:09:03Z</time></trkpt><trkpt lat="44.815448299716024" lon="9.45947757141946"><ele>223.25</ele><time>2026-04-18T11:09:04Z</time></trkpt><trkpt lat="44.81543391137227" lon="9.45930089886506"><ele>223.0</ele><time>2026-04-18T11:09:05Z</time></trkpt><trkpt lat="44.815415613376636" lon="9.45913248445776"><ele>222.99999999999997</ele><time>2026-04-18T11:09:06Z</time></trkpt><trkpt lat="44.815395719402" lon="9.458992782175827"><ele>223.0</ele><time>2026-04-18T11:09:07Z</time></trkpt><trkpt lat="44.81537228436243" lon="9.458868941565473"><ele>223.0</ele><time>2026-04-18T11:09:08Z</time></trkpt><trkpt lat="44.81534369723783" lon="9.458765594721912"><ele>223.0</ele><time>2026-04-18T11:09:09Z</time></trkpt><trkpt lat="44.81531489278646" lon="9.458667515915804"><ele>222.99999999999997</ele><time>2026-04-18T11:09:10Z</time></trkpt><trkpt lat="44.81529113467666" lon="9.45858277069951"><ele>223.0</ele><time>2026-04-18T11:09:11Z</time></trkpt><trkpt lat="44.81525425951929" lon="9.458447809831133"><ele>222.85714285714286</ele><time>2026-04-18T11:09:13Z</time></trkpt><trkpt lat="44.81522527371481" lon="9.458362876228817"><ele>222.71428571428572</ele><time>2026-04-18T11:09:15Z</time></trkpt><trkpt lat="44.8151945565431" lon="9.458280384104476"><ele>222.57142857142856</ele><time>2026-04-18T11:09:33.999Z</time></trkpt><trkpt lat="44.81516135590844" lon="9.458198715606294"><ele>222.42857142857144</ele><time>2026-04-18T11:09:34.999Z</time></trkpt><trkpt lat="44.815138077640725" lon="9.458083969861722"><ele>222.2857142857143</ele><time>2026-04-18T11:09:35.999Z</time></trkpt><trkpt lat="44.81510210850212" lon="9.45799525264537"><ele>222.14285714285714</ele><time>2026-04-18T11:09:36.999Z</time></trkpt><trkpt lat="44.815060649245545" lon="9.457898838996934"><ele>222.0</ele><time>2026-04-18T11:09:37.999Z</time></trkpt><trkpt lat="44.815015290597806" lon="9.457793357308594"><ele>222.66666666666666</ele><time>2026-04-18T11:09:38.999Z</time></trkpt><trkpt lat="44.81497507273155" lon="9.457702332104938"><ele>223.33333333333331</ele><time>2026-04-18T11:09:39.999Z</time></trkpt><trkpt lat="44.814931130566634" lon="9.457603521086362"><ele>224.0</ele><time>2026-04-18T11:09:40.999Z</time></trkpt><trkpt lat="44.81488863177306" lon="9.457508097378822"><ele>224.66666666666666</ele><time>2026-04-18T11:09:41.999Z</time></trkpt><trkpt lat="44.81484283822661" lon="9.45740574047616"><ele>225.33333333333331</ele><time>2026-04-18T11:09:42.999Z</time></trkpt><trkpt lat="44.814794351940584" lon="9.45729739198908"><ele>226.0</ele><time>2026-04-18T11:09:43.999Z</time></trkpt><trkpt lat="44.81474031917318" lon="9.45717664917609"><ele>222.75</ele><time>2026-04-18T11:09:44.999Z</time></trkpt><trkpt lat="44.81468168708426" lon="9.457045628680573"><ele>219.5</ele><time>2026-04-18T11:09:45.999Z</time></trkpt><trkpt lat="44.81462286761021" lon="9.456914189414954"><ele>216.25</ele><time>2026-04-18T11:09:46.999Z</time></trkpt><trkpt lat="44.81455604647612" lon="9.45676486947529"><ele>213.0</ele><time>2026-04-18T11:09:47.999Z</time></trkpt><trkpt lat="44.81447339715028" lon="9.456580179521445"><ele>213.0</ele><time>2026-04-18T11:09:48.999Z</time></trkpt><trkpt lat="44.81439832509177" lon="9.456412421890112"><ele>213.0</ele><time>2026-04-18T11:09:49.999Z</time></trkpt><trkpt lat="44.814330250980085" lon="9.45626119630451"><ele>213.0</ele><time>2026-04-18T11:09:50.999Z</time></trkpt><trkpt lat="44.81425694008649" lon="9.45609872804981"><ele>213.0</ele><time>2026-04-18T11:09:51.999Z</time></trkpt><trkpt lat="44.81417500323574" lon="9.455917143366936"><ele>213.5</ele><time>2026-04-18T11:09:52.999Z</time></trkpt><trkpt lat="44.81409462952795" lon="9.455735096402753"><ele>214.0</ele><time>2026-04-18T11:09:53.999Z</time></trkpt><trkpt lat="44.814016988783436" lon="9.455561782648017"><ele>214.5</ele><time>2026-04-18T11:09:54.999Z</time></trkpt><trkpt lat="44.813939438293524" lon="9.455388670358305"><ele>215.0</ele><time>2026-04-18T11:09:55.999Z</time></trkpt><trkpt lat="44.81385770115239" lon="9.455206212406594"><ele>215.0</ele><time>2026-04-18T11:09:57Z</time></trkpt><trkpt lat="44.81376931010408" lon="9.455008901252453"><ele>215.0</ele><time>2026-04-18T11:09:58Z</time></trkpt><trkpt lat="44.81367661802834" lon="9.454801989106143"><ele>215.0</ele><time>2026-04-18T11:09:59Z</time></trkpt><trkpt lat="44.813589053248585" lon="9.454606522410506"><ele>214.0</ele><time>2026-04-18T11:10:00Z</time></trkpt><trkpt lat="44.81351367667872" lon="9.454438262849516"><ele>213.0</ele><time>2026-04-18T11:10:01Z</time></trkpt><trkpt lat="44.81343862288645" lon="9.454270723839928"><ele>212.0</ele><time>2026-04-18T11:10:02Z</time></trkpt><trkpt lat="44.81335773724476" lon="9.454090689919038"><ele>211.0</ele><time>2026-04-18T11:10:03Z</time></trkpt><trkpt lat="44.8132707309408" lon="9.45389796574126"><ele>212.0</ele><time>2026-04-18T11:10:04Z</time></trkpt><trkpt lat="44.81317277906433" lon="9.453680996470482"><ele>213.0</ele><time>2026-04-18T11:10:05Z</time></trkpt><trkpt lat="44.8130721659391" lon="9.453458132371324"><ele>214.0</ele><time>2026-04-18T11:10:06Z</time></trkpt><trkpt lat="44.81297082753411" lon="9.453233662853261"><ele>214.0</ele><time>2026-04-18T11:10:07Z</time></trkpt><trkpt lat="44.8128793688741" lon="9.45303107663487"><ele>214.0</ele><time>2026-04-18T11:10:08Z</time></trkpt><trkpt lat="44.81279550459519" lon="9.452845312561324"><ele>214.0</ele><time>2026-04-18T11:10:09Z</time></trkpt><trkpt lat="44.812713198597244" lon="9.452662999185076"><ele>216.66666666666666</ele><time>2026-04-18T11:10:10Z</time></trkpt><trkpt lat="44.81263229540491" lon="9.452478491701443"><ele>219.33333333333331</ele><time>2026-04-18T11:10:11Z</time></trkpt><trkpt lat="44.81255720374051" lon="9.452284589310196"><ele>222.0</ele><time>2026-04-18T11:10:12Z</time></trkpt><trkpt lat="44.812493243548836" lon="9.45208015718411"><ele>222.0</ele><time>2026-04-18T11:10:13Z</time></trkpt><trkpt lat="44.812420638606895" lon="9.451866053457117"><ele>222.0</ele><time>2026-04-18T11:10:14Z</time></trkpt><trkpt lat="44.812395150825274" lon="9.451628194615543"><ele>222.0</ele><time>2026-04-18T11:10:15Z</time></trkpt><trkpt lat="44.81236838414099" lon="9.451378950347202"><ele>221.0</ele><time>2026-04-18T11:10:16Z</time></trkpt><trkpt lat="44.8123330962307" lon="9.451090813693794"><ele>220.0</ele><time>2026-04-18T11:10:17Z</time></trkpt><trkpt lat="44.81229694765453" lon="9.450798756214501"><ele>219.0</ele><time>2026-04-18T11:10:18Z</time></trkpt><trkpt lat="44.81225546484037" lon="9.450486199825058"><ele>219.0</ele><time>2026-04-18T11:10:19Z</time></trkpt><trkpt lat="44.81221523747178" lon="9.45016186683696"><ele>219.0</ele><time>2026-04-18T11:10:20Z</time></trkpt><trkpt lat="44.812176154766966" lon="9.449845435516849"><ele>217.0</ele><time>2026-04-18T11:10:21Z</time></trkpt><trkpt lat="44.812135631010015" lon="9.449526725442706"><ele>215.0</ele><time>2026-04-18T11:10:22Z</time></trkpt><trkpt lat="44.81209691852894" lon="9.44919177309074"><ele>215.0</ele><time>2026-04-18T11:10:23Z</time></trkpt><trkpt lat="44.812058036647414" lon="9.448848824879521"><ele>215.0</ele><time>2026-04-18T11:10:24Z</time></trkpt><trkpt lat="44.81201960276159" lon="9.44852040909302"><ele>214.66666666666669</ele><time>2026-04-18T11:10:25Z</time></trkpt><trkpt lat="44.81198185036516" lon="9.448209926956377"><ele>214.33333333333331</ele><time>2026-04-18T11:10:26Z</time></trkpt><trkpt lat="44.81194460864098" lon="9.447910627829163"><ele>214.0</ele><time>2026-04-18T11:10:27Z</time></trkpt><trkpt lat="44.81190301595001" lon="9.447569459191278"><ele>213.5</ele><time>2026-04-18T11:10:28Z</time></trkpt><trkpt lat="44.81185015200913" lon="9.447190500400621"><ele>213.0</ele><time>2026-04-18T11:10:29Z</time></trkpt><trkpt lat="44.81180266445591" lon="9.446791190619491"><ele>216.5</ele><time>2026-04-18T11:10:30Z</time></trkpt><trkpt lat="44.811754202654264" lon="9.446394457317671"><ele>220.0</ele><time>2026-04-18T11:10:31Z</time></trkpt><trkpt lat="44.81172723201267" lon="9.44615532404529"><ele>220.0</ele><time>2026-04-18T11:10:33Z</time></trkpt><trkpt lat="44.81169050276232" lon="9.445848220852909"><ele>220.0</ele><time>2026-04-18T11:10:34Z</time></trkpt><trkpt lat="44.81165479278894" lon="9.445523771936909"><ele>221.0</ele><time>2026-04-18T11:10:35Z</time></trkpt><trkpt lat="44.81161157445973" lon="9.44518552233866"><ele>222.0</ele><time>2026-04-18T11:10:36Z</time></trkpt><trkpt lat="44.811568170318175" lon="9.444834619011836"><ele>222.0</ele><time>2026-04-18T11:10:37Z</time></trkpt><trkpt lat="44.81152782646246" lon="9.444484090070214"><ele>222.0</ele><time>2026-04-18T11:10:38Z</time></trkpt><trkpt lat="44.811483930128084" lon="9.444127001262444"><ele>221.5</ele><time>2026-04-18T11:10:39Z</time></trkpt><trkpt lat="44.81144058421455" lon="9.443778136628257"><ele>221.0</ele><time>2026-04-18T11:10:40Z</time></trkpt><trkpt lat="44.81140188543966" lon="9.443453247319217"><ele>221.0</ele><time>2026-04-18T11:10:41Z</time></trkpt><trkpt lat="44.81136019336006" lon="9.443128278189109"><ele>221.0</ele><time>2026-04-18T11:10:42Z</time></trkpt><trkpt lat="44.811321908476" lon="9.442799927893443"><ele>221.0</ele><time>2026-04-18T11:10:43Z</time></trkpt><trkpt lat="44.81128462312558" lon="9.442458986469289"><ele>221.0</ele><time>2026-04-18T11:10:44Z</time></trkpt><trkpt lat="44.81124593706234" lon="9.442121511741057"><ele>220.0</ele><time>2026-04-18T11:10:45Z</time></trkpt><trkpt lat="44.81120683160911" lon="9.441785239631985"><ele>219.0</ele><time>2026-04-18T11:10:46Z</time></trkpt><trkpt lat="44.81116963861918" lon="9.441476751401865"><ele>218.33333333333331</ele><time>2026-04-18T11:10:47Z</time></trkpt><trkpt lat="44.81113259110581" lon="9.441181855555005"><ele>217.66666666666666</ele><time>2026-04-18T11:10:48Z</time></trkpt><trkpt lat="44.81108954907237" lon="9.440868136793648"><ele>217.0</ele><time>2026-04-18T11:10:49Z</time></trkpt><trkpt lat="44.81102631465874" lon="9.440554542177917"><ele>221.0</ele><time>2026-04-18T11:10:50Z</time></trkpt><trkpt lat="44.81094610959319" lon="9.440241558491925"><ele>225.0</ele><time>2026-04-18T11:10:51Z</time></trkpt><trkpt lat="44.81085604815516" lon="9.439964087233164"><ele>225.0</ele><time>2026-04-18T11:10:52Z</time></trkpt><trkpt lat="44.81075081939218" lon="9.439706793351348"><ele>225.0</ele><time>2026-04-18T11:10:53Z</time></trkpt><trkpt lat="44.810647280945936" lon="9.439441999734724"><ele>225.0</ele><time>2026-04-18T11:10:54Z</time></trkpt><trkpt lat="44.81045182172148" lon="9.439242120664098"><ele>223.0</ele><time>2026-04-18T11:10:55Z</time></trkpt><trkpt lat="44.81028776574797" lon="9.4389926823563"><ele>221.0</ele><time>2026-04-18T11:10:56Z</time></trkpt><trkpt lat="44.81012627939144" lon="9.43875399720347"><ele>225.0</ele><time>2026-04-18T11:10:57Z</time></trkpt><trkpt lat="44.80996270487313" lon="9.438521467964135"><ele>229.0</ele><time>2026-04-18T11:10:58Z</time></trkpt><trkpt lat="44.80980035608115" lon="9.438281483604557"><ele>229.0</ele><time>2026-04-18T11:10:59Z</time></trkpt><trkpt lat="44.809635900244416" lon="9.438034128592014"><ele>229.0</ele><time>2026-04-18T11:11:00Z</time></trkpt><trkpt lat="44.809476245817436" lon="9.437791336829982"><ele>230.0</ele><time>2026-04-18T11:11:01Z</time></trkpt><trkpt lat="44.80932461359838" lon="9.437569845273046"><ele>231.0</ele><time>2026-04-18T11:11:02Z</time></trkpt><trkpt lat="44.80918282613093" lon="9.437359895384134"><ele>232.0</ele><time>2026-04-18T11:11:03Z</time></trkpt><trkpt lat="44.80904971283612" lon="9.437142003038106"><ele>227.0</ele><time>2026-04-18T11:11:04Z</time></trkpt><trkpt lat="44.808924706104506" lon="9.436876834037426"><ele>222.0</ele><time>2026-04-18T11:11:05Z</time></trkpt><trkpt lat="44.80882290727404" lon="9.436575845804338"><ele>219.5</ele><time>2026-04-18T11:11:06Z</time></trkpt><trkpt lat="44.80872223383634" lon="9.43625463367396"><ele>217.0</ele><time>2026-04-18T11:11:07Z</time></trkpt><trkpt lat="44.80861010595369" lon="9.435921386587681"><ele>217.5</ele><time>2026-04-18T11:11:08Z</time></trkpt><trkpt lat="44.80849043193746" lon="9.435574710323992"><ele>218.0</ele><time>2026-04-18T11:11:09Z</time></trkpt><trkpt lat="44.80836452456147" lon="9.435217821428942"><ele>218.0</ele><time>2026-04-18T11:11:10Z</time></trkpt><trkpt lat="44.808246715690025" lon="9.43487912671768"><ele>218.0</ele><time>2026-04-18T11:11:11Z</time></trkpt><trkpt lat="44.80813635439122" lon="9.434568779547497"><ele>219.5</ele><time>2026-04-18T11:11:12Z</time></trkpt><trkpt lat="44.80803430150878" lon="9.434272550875454"><ele>221.0</ele><time>2026-04-18T11:11:13Z</time></trkpt><trkpt lat="44.807928103990605" lon="9.433971880405377"><ele>220.5</ele><time>2026-04-18T11:11:14Z</time></trkpt><trkpt lat="44.807824183858834" lon="9.4336688121677"><ele>220.0</ele><time>2026-04-18T11:11:15Z</time></trkpt><trkpt lat="44.80771463216724" lon="9.433365730875975"><ele>220.33333333333331</ele><time>2026-04-18T11:11:16Z</time></trkpt><trkpt lat="44.80761822917749" lon="9.433089116030365"><ele>220.66666666666669</ele><time>2026-04-18T11:11:17Z</time></trkpt><trkpt lat="44.80752543543378" lon="9.432825176273424"><ele>221.0</ele><time>2026-04-18T11:11:18Z</time></trkpt><trkpt lat="44.807433881324926" lon="9.432560253267521"><ele>222.33333333333334</ele><time>2026-04-18T11:11:18.999Z</time></trkpt><trkpt lat="44.807338722630746" lon="9.432286159632007"><ele>223.66666666666669</ele><time>2026-04-18T11:11:19.999Z</time></trkpt><trkpt lat="44.80723824228629" lon="9.431997138128128"><ele>225.0</ele><time>2026-04-18T11:11:20.999Z</time></trkpt><trkpt lat="44.8071264355238" lon="9.431708173937956"><ele>229.5</ele><time>2026-04-18T11:11:21.999Z</time></trkpt><trkpt lat="44.80699990367144" lon="9.431420807397204"><ele>234.0</ele><time>2026-04-18T11:11:22.999Z</time></trkpt><trkpt lat="44.80686439362955" lon="9.431133557743513"><ele>231.5</ele><time>2026-04-18T11:11:23.999Z</time></trkpt><trkpt lat="44.8067145525951" lon="9.430841178539977"><ele>229.0</ele><time>2026-04-18T11:11:24.999Z</time></trkpt><trkpt lat="44.80656079169986" lon="9.43055170725046"><ele>229.0</ele><time>2026-04-18T11:11:25.999Z</time></trkpt><trkpt lat="44.80639358538768" lon="9.430262525544151"><ele>229.0</ele><time>2026-04-18T11:11:26.999Z</time></trkpt><trkpt lat="44.80621455905897" lon="9.429981752072665"><ele>229.0</ele><time>2026-04-18T11:11:27.999Z</time></trkpt><trkpt lat="44.8060236053739" lon="9.429707591738884"><ele>229.0</ele><time>2026-04-18T11:11:28.999Z</time></trkpt><trkpt lat="44.805831349990584" lon="9.429451772236348"><ele>227.5</ele><time>2026-04-18T11:11:29.999Z</time></trkpt><trkpt lat="44.80564376241132" lon="9.42921342774522"><ele>226.0</ele><time>2026-04-18T11:11:30.999Z</time></trkpt><trkpt lat="44.80546001576973" lon="9.428979319358952"><ele>226.0</ele><time>2026-04-18T11:11:31.999Z</time></trkpt><trkpt lat="44.80527627798191" lon="9.428732645855247"><ele>226.0</ele><time>2026-04-18T11:11:32.999Z</time></trkpt><trkpt lat="44.80508502320829" lon="9.42849134874799"><ele>226.0</ele><time>2026-04-18T11:11:33.999Z</time></trkpt><trkpt lat="44.80489754454203" lon="9.428251732872155"><ele>226.0</ele><time>2026-04-18T11:11:34.999Z</time></trkpt><trkpt lat="44.8047089286669" lon="9.428005400087637"><ele>227.0</ele><time>2026-04-18T11:11:35.999Z</time></trkpt><trkpt lat="44.80453096290907" lon="9.427772468770318"><ele>228.0</ele><time>2026-04-18T11:11:36.999Z</time></trkpt><trkpt lat="44.80436417060549" lon="9.42755049419314"><ele>227.33333333333331</ele><time>2026-04-18T11:11:37.999Z</time></trkpt><trkpt lat="44.80420333045221" lon="9.427332067768946"><ele>226.66666666666666</ele><time>2026-04-18T11:11:38.999Z</time></trkpt><trkpt lat="44.80404672156419" lon="9.42712729813366"><ele>226.0</ele><time>2026-04-18T11:11:39.999Z</time></trkpt><trkpt lat="44.80389327886766" lon="9.426925375567558"><ele>226.66666666666666</ele><time>2026-04-18T11:11:40.999Z</time></trkpt><trkpt lat="44.80375052251807" lon="9.426740974555331"><ele>227.33333333333331</ele><time>2026-04-18T11:11:41.999Z</time></trkpt><trkpt lat="44.80361353605108" lon="9.426562403147404"><ele>228.0</ele><time>2026-04-18T11:11:42.999Z</time></trkpt><trkpt lat="44.80347408479919" lon="9.426387370133117"><ele>227.66666666666669</ele><time>2026-04-18T11:11:43.999Z</time></trkpt><trkpt lat="44.803327769266254" lon="9.426211631217193"><ele>227.33333333333334</ele><time>2026-04-18T11:11:44.999Z</time></trkpt><trkpt lat="44.8031740895612" lon="9.4260346233074"><ele>227.0</ele><time>2026-04-18T11:11:45.999Z</time></trkpt><trkpt lat="44.80300803141089" lon="9.425866741859922"><ele>227.0</ele><time>2026-04-18T11:11:46.999Z</time></trkpt><trkpt lat="44.80284587697285" lon="9.425708738469753"><ele>227.0</ele><time>2026-04-18T11:11:47.999Z</time></trkpt><trkpt lat="44.80268006025622" lon="9.42556593016488"><ele>227.0</ele><time>2026-04-18T11:11:48.999Z</time></trkpt><trkpt lat="44.80251770415477" lon="9.425431827183077"><ele>228.33333333333334</ele><time>2026-04-18T11:11:49.999Z</time></trkpt><trkpt lat="44.80234758979216" lon="9.42530986481631"><ele>229.66666666666669</ele><time>2026-04-18T11:11:50.999Z</time></trkpt><trkpt lat="44.80216847585805" lon="9.42518985025375"><ele>231.0</ele><time>2026-04-18T11:11:51.999Z</time></trkpt><trkpt lat="44.80198643374888" lon="9.42505952176606"><ele>227.5</ele><time>2026-04-18T11:11:52.999Z</time></trkpt><trkpt lat="44.8017963467672" lon="9.424924660733016"><ele>224.0</ele><time>2026-04-18T11:11:53.999Z</time></trkpt><trkpt lat="44.80157575242342" lon="9.4247775869116"><ele>225.5</ele><time>2026-04-18T11:11:54.999Z</time></trkpt><trkpt lat="44.80135428914228" lon="9.424626906694975"><ele>227.0</ele><time>2026-04-18T11:11:55.999Z</time></trkpt><trkpt lat="44.8011283215948" lon="9.424470655659023"><ele>228.0</ele><time>2026-04-18T11:11:56.999Z</time></trkpt><trkpt lat="44.800903899114225" lon="9.424306490477266"><ele>229.0</ele><time>2026-04-18T11:11:57.999Z</time></trkpt><trkpt lat="44.8007114489531" lon="9.424129289736454"><ele>229.0</ele><time>2026-04-18T11:11:58.999Z</time></trkpt><trkpt lat="44.80051572607092" lon="9.423991800615974"><ele>229.0</ele><time>2026-04-18T11:11:59.999Z</time></trkpt><trkpt lat="44.80032181191844" lon="9.423876229897141"><ele>229.0</ele><time>2026-04-18T11:12:00.999Z</time></trkpt><trkpt lat="44.80013543090898" lon="9.423737446917768"><ele>230.66666666666666</ele><time>2026-04-18T11:12:01.999Z</time></trkpt><trkpt lat="44.79994617218813" lon="9.423609359977085"><ele>232.33333333333331</ele><time>2026-04-18T11:12:03Z</time></trkpt><trkpt lat="44.799756695260676" lon="9.423502223974976"><ele>234.0</ele><time>2026-04-18T11:12:04Z</time></trkpt><trkpt lat="44.79955100354839" lon="9.423413382772377"><ele>234.0</ele><time>2026-04-18T11:12:05Z</time></trkpt><trkpt lat="44.799335650342286" lon="9.423344815793104"><ele>234.0</ele><time>2026-04-18T11:12:06Z</time></trkpt><trkpt lat="44.7991201749393" lon="9.423299527834196"><ele>234.0</ele><time>2026-04-18T11:12:07Z</time></trkpt><trkpt lat="44.7989117732529" lon="9.423268016434635"><ele>234.66666666666669</ele><time>2026-04-18T11:12:08Z</time></trkpt><trkpt lat="44.79868487379253" lon="9.423241985831371"><ele>235.33333333333334</ele><time>2026-04-18T11:12:09Z</time></trkpt><trkpt lat="44.79847098632008" lon="9.42321465671717"><ele>236.0</ele><time>2026-04-18T11:12:10Z</time></trkpt><trkpt lat="44.7982467921383" lon="9.4231872503931"><ele>237.66666666666669</ele><time>2026-04-18T11:12:11Z</time></trkpt><trkpt lat="44.79803020804438" lon="9.42314981452171"><ele>239.33333333333331</ele><time>2026-04-18T11:12:12Z</time></trkpt><trkpt lat="44.79780787413199" lon="9.423100882981911"><ele>241.0</ele><time>2026-04-18T11:12:13Z</time></trkpt><trkpt lat="44.79758176369282" lon="9.423051103015526"><ele>241.5</ele><time>2026-04-18T11:12:14Z</time></trkpt><trkpt lat="44.797352326849044" lon="9.422994930740915"><ele>242.0</ele><time>2026-04-18T11:12:15Z</time></trkpt><trkpt lat="44.797145063886006" lon="9.42290170758784"><ele>241.33333333333334</ele><time>2026-04-18T11:12:16Z</time></trkpt><trkpt lat="44.796957470098995" lon="9.42280946339632"><ele>240.66666666666669</ele><time>2026-04-18T11:12:17Z</time></trkpt><trkpt lat="44.796781136274085" lon="9.422695164236156"><ele>240.0</ele><time>2026-04-18T11:12:18Z</time></trkpt><trkpt lat="44.796588985696616" lon="9.422569850696494"><ele>240.0</ele><time>2026-04-18T11:12:19Z</time></trkpt><trkpt lat="44.79639917955038" lon="9.422408194015246"><ele>240.0</ele><time>2026-04-18T11:12:20Z</time></trkpt><trkpt lat="44.79622631996571" lon="9.42223453751314"><ele>240.0</ele><time>2026-04-18T11:12:21Z</time></trkpt><trkpt lat="44.79606138878385" lon="9.422044833192786"><ele>242.33333333333331</ele><time>2026-04-18T11:12:22Z</time></trkpt><trkpt lat="44.79589877038684" lon="9.42183669832616"><ele>244.66666666666666</ele><time>2026-04-18T11:12:23Z</time></trkpt><trkpt lat="44.79573559490705" lon="9.421613914336731"><ele>247.0</ele><time>2026-04-18T11:12:24Z</time></trkpt><trkpt lat="44.79556061250363" lon="9.42138213796535"><ele>244.5</ele><time>2026-04-18T11:12:25Z</time></trkpt><trkpt lat="44.79537606076988" lon="9.421143391067393"><ele>242.0</ele><time>2026-04-18T11:12:26Z</time></trkpt><trkpt lat="44.79519490207377" lon="9.42088957572168"><ele>259.5</ele><time>2026-04-18T11:12:27Z</time></trkpt><trkpt lat="44.79501147879636" lon="9.420616688399587"><ele>277.0</ele><time>2026-04-18T11:12:28Z</time></trkpt><trkpt lat="44.79482805045455" lon="9.420336210031484"><ele>279.0</ele><time>2026-04-18T11:12:29.019Z</time></trkpt><trkpt lat="44.79464774675062" lon="9.420062180490635"><ele>281.0</ele><time>2026-04-18T11:12:30.016Z</time></trkpt><trkpt lat="44.79446306026098" lon="9.419784861371035"><ele>302.5</ele><time>2026-04-18T11:12:31.014Z</time></trkpt><trkpt lat="44.79426895821434" lon="9.419533029257284"><ele>324.0</ele><time>2026-04-18T11:12:32.016Z</time></trkpt><trkpt lat="44.79408579358993" lon="9.419292083859137"><ele>366.0</ele><time>2026-04-18T11:12:33.017Z</time></trkpt><trkpt lat="44.79334428684786" lon="9.418457524323925"><ele>366.0</ele><time>2026-04-18T11:12:36.684Z</time></trkpt><trkpt lat="44.79315617370761" lon="9.41820953761259"><ele>366.0</ele><time>2026-04-18T11:12:37.684Z</time></trkpt><trkpt lat="44.792968061276675" lon="9.417961551417838"><ele>362.5</ele><time>2026-04-18T11:12:38.684Z</time></trkpt><trkpt lat="44.792779060992416" lon="9.417714628422763"><ele>359.0</ele><time>2026-04-18T11:12:39.684Z</time></trkpt><trkpt lat="44.792579158361626" lon="9.417484970359798"><ele>373.5</ele><time>2026-04-18T11:12:40.683Z</time></trkpt><trkpt lat="44.792390543792514" lon="9.417237324609387"><ele>388.0</ele><time>2026-04-18T11:12:41.684Z</time></trkpt><trkpt lat="44.792213441848745" lon="9.416972789458015"><ele>388.0</ele><time>2026-04-18T11:12:42.684Z</time></trkpt><trkpt lat="44.792013949782664" lon="9.416742867014678"><ele>388.0</ele><time>2026-04-18T11:12:43.682Z</time></trkpt><trkpt lat="44.791837147328174" lon="9.41647872508439"><ele>357.5</ele><time>2026-04-18T11:12:44.681Z</time></trkpt><trkpt lat="44.79164874861232" lon="9.416231886959775"><ele>327.0</ele><time>2026-04-18T11:12:45.679Z</time></trkpt><trkpt lat="44.7914588421216" lon="9.415983988115409"><ele>327.0</ele><time>2026-04-18T11:12:46.684Z</time></trkpt><trkpt lat="44.79125967844649" lon="9.415753890997578"><ele>327.0</ele><time>2026-04-18T11:12:47.682Z</time></trkpt><trkpt lat="44.791083108962745" lon="9.41548950900215"><ele>293.0</ele><time>2026-04-18T11:12:48.68Z</time></trkpt><trkpt lat="44.7909" lon="9.4152832"><ele>259.0</ele><time>2026-04-18T11:12:49.684Z</time></trkpt><trkpt lat="44.79002766781001" lon="9.414066988983576"><ele>247.5</ele><time>2026-04-18T11:12:52Z</time></trkpt><trkpt lat="44.789832064702814" lon="9.413811821832905"><ele>236.0</ele><time>2026-04-18T11:12:53Z</time></trkpt><trkpt lat="44.78963587014776" lon="9.41354952405393"><ele>236.0</ele><time>2026-04-18T11:12:54Z</time></trkpt><trkpt lat="44.78943333100301" lon="9.41329388622067"><ele>236.0</ele><time>2026-04-18T11:12:55Z</time></trkpt><trkpt lat="44.78923703817134" lon="9.413036960013828"><ele>236.5</ele><time>2026-04-18T11:12:56Z</time></trkpt><trkpt lat="44.78904487719884" lon="9.412779789041243"><ele>237.0</ele><time>2026-04-18T11:12:57Z</time></trkpt><trkpt lat="44.78884690904484" lon="9.412526355789703"><ele>237.0</ele><time>2026-04-18T11:12:58Z</time></trkpt><trkpt lat="44.788651065918486" lon="9.412269451385809"><ele>237.0</ele><time>2026-04-18T11:12:59Z</time></trkpt><trkpt lat="44.7884554143878" lon="9.412015315112543"><ele>237.5</ele><time>2026-04-18T11:13:00Z</time></trkpt><trkpt lat="44.78826126693862" lon="9.41176348340416"><ele>238.0</ele><time>2026-04-18T11:13:01Z</time></trkpt><trkpt lat="44.78806842946562" lon="9.411507676034086"><ele>237.5</ele><time>2026-04-18T11:13:02Z</time></trkpt><trkpt lat="44.78787463987071" lon="9.411252447955277"><ele>237.0</ele><time>2026-04-18T11:13:03Z</time></trkpt><trkpt lat="44.78765976809687" lon="9.410999610516258"><ele>237.0</ele><time>2026-04-18T11:13:04Z</time></trkpt><trkpt lat="44.78746480434013" lon="9.41073880390961"><ele>237.0</ele><time>2026-04-18T11:13:05Z</time></trkpt><trkpt lat="44.78726661223069" lon="9.410475806760159"><ele>237.0</ele><time>2026-04-18T11:13:06Z</time></trkpt><trkpt lat="44.78707519611189" lon="9.410229413219923"><ele>237.0</ele><time>2026-04-18T11:13:07Z</time></trkpt><trkpt lat="44.78690060203158" lon="9.410003467907925"><ele>240.0</ele><time>2026-04-18T11:13:08Z</time></trkpt><trkpt lat="44.78673525403172" lon="9.40978829073569"><ele>243.0</ele><time>2026-04-18T11:13:09Z</time></trkpt><trkpt lat="44.7865756855392" lon="9.409580352122532"><ele>246.0</ele><time>2026-04-18T11:13:10Z</time></trkpt><trkpt lat="44.7864185486065" lon="9.40937217677124"><ele>246.0</ele><time>2026-04-18T11:13:11Z</time></trkpt><trkpt lat="44.786271037491176" lon="9.409174060341138"><ele>246.0</ele><time>2026-04-18T11:13:12Z</time></trkpt><trkpt lat="44.78612070970505" lon="9.408980237027041"><ele>246.0</ele><time>2026-04-18T11:13:13Z</time></trkpt><trkpt lat="44.78595034032835" lon="9.408770330848542"><ele>246.0</ele><time>2026-04-18T11:13:14Z</time></trkpt><trkpt lat="44.78577735865869" lon="9.408545447889104"><ele>246.0</ele><time>2026-04-18T11:13:15Z</time></trkpt><trkpt lat="44.78559471342258" lon="9.408301349954812"><ele>246.0</ele><time>2026-04-18T11:13:16Z</time></trkpt><trkpt lat="44.78539083332413" lon="9.408031353234051"><ele>246.0</ele><time>2026-04-18T11:13:17Z</time></trkpt><trkpt lat="44.785193133372" lon="9.40776735315281"><ele>247.0</ele><time>2026-04-18T11:13:18Z</time></trkpt><trkpt lat="44.7849991406978" lon="9.407502650398358"><ele>248.0</ele><time>2026-04-18T11:13:19Z</time></trkpt><trkpt lat="44.784804734735545" lon="9.407233038857543"><ele>247.0</ele><time>2026-04-18T11:13:20Z</time></trkpt><trkpt lat="44.7846083070268" lon="9.406952373688314"><ele>246.0</ele><time>2026-04-18T11:13:20.999Z</time></trkpt><trkpt lat="44.784412115980956" lon="9.40666693657431"><ele>245.0</ele><time>2026-04-18T11:13:21.999Z</time></trkpt><trkpt lat="44.78421313751425" lon="9.406378208351207"><ele>244.0</ele><time>2026-04-18T11:13:22.999Z</time></trkpt><trkpt lat="44.78403023742765" lon="9.40611601085156"><ele>244.0</ele><time>2026-04-18T11:13:23.999Z</time></trkpt><trkpt lat="44.783859317487696" lon="9.40586743446223"><ele>244.0</ele><time>2026-04-18T11:13:24.999Z</time></trkpt><trkpt lat="44.78368470888277" lon="9.40562214802653"><ele>242.5</ele><time>2026-04-18T11:13:25.999Z</time></trkpt><trkpt lat="44.78350594091088" lon="9.40536754271957"><ele>241.0</ele><time>2026-04-18T11:13:26.999Z</time></trkpt><trkpt lat="44.78331243198637" lon="9.405098959568356"><ele>241.0</ele><time>2026-04-18T11:13:27.999Z</time></trkpt><trkpt lat="44.78310369517054" lon="9.404810438239"><ele>241.0</ele><time>2026-04-18T11:13:28.999Z</time></trkpt><trkpt lat="44.78290301599219" lon="9.404526981968733"><ele>241.0</ele><time>2026-04-18T11:13:29.999Z</time></trkpt><trkpt lat="44.78272771606337" lon="9.404267158726578"><ele>241.0</ele><time>2026-04-18T11:13:30.999Z</time></trkpt><trkpt lat="44.78255500002619" lon="9.404012491205622"><ele>242.5</ele><time>2026-04-18T11:13:31.999Z</time></trkpt><trkpt lat="44.78237712344053" lon="9.403756029916101"><ele>244.0</ele><time>2026-04-18T11:13:32.999Z</time></trkpt><trkpt lat="44.78219502622302" lon="9.403494756076151"><ele>244.0</ele><time>2026-04-18T11:13:33.999Z</time></trkpt><trkpt lat="44.78201290380179" lon="9.403237272366875"><ele>244.0</ele><time>2026-04-18T11:13:34.999Z</time></trkpt><trkpt lat="44.78183834707811" lon="9.402984341757856"><ele>245.5</ele><time>2026-04-18T11:13:35.999Z</time></trkpt><trkpt lat="44.781665927291805" lon="9.402733021698568"><ele>247.0</ele><time>2026-04-18T11:13:36.999Z</time></trkpt><trkpt lat="44.78148634121546" lon="9.402475462437748"><ele>247.0</ele><time>2026-04-18T11:13:37.999Z</time></trkpt><trkpt lat="44.781309596032806" lon="9.40222207718192"><ele>247.0</ele><time>2026-04-18T11:13:38.999Z</time></trkpt><trkpt lat="44.781148500086985" lon="9.40198535954911"><ele>247.5</ele><time>2026-04-18T11:13:39.999Z</time></trkpt><trkpt lat="44.780994921579584" lon="9.401756296020729"><ele>248.0</ele><time>2026-04-18T11:13:40.999Z</time></trkpt><trkpt lat="44.78083664589677" lon="9.401519470178071"><ele>251.5</ele><time>2026-04-18T11:13:41.999Z</time></trkpt><trkpt lat="44.78067675802527" lon="9.401277275476197"><ele>255.0</ele><time>2026-04-18T11:13:42.999Z</time></trkpt><trkpt lat="44.780527082709526" lon="9.401019200857597"><ele>255.0</ele><time>2026-04-18T11:13:43.999Z</time></trkpt><trkpt lat="44.78039485342818" lon="9.40075277797358"><ele>255.0</ele><time>2026-04-18T11:13:44.999Z</time></trkpt><trkpt lat="44.78027782211036" lon="9.400475752950983"><ele>253.5</ele><time>2026-04-18T11:13:45.999Z</time></trkpt><trkpt lat="44.78017102777959" lon="9.400187327882925"><ele>252.0</ele><time>2026-04-18T11:13:46.999Z</time></trkpt><trkpt lat="44.7800745822635" lon="9.399881981681846"><ele>254.5</ele><time>2026-04-18T11:13:47.999Z</time></trkpt><trkpt lat="44.77999141383752" lon="9.399565227443384"><ele>257.0</ele><time>2026-04-18T11:13:48.999Z</time></trkpt><trkpt lat="44.779921258827336" lon="9.39924049791945"><ele>257.0</ele><time>2026-04-18T11:13:49.999Z</time></trkpt><trkpt lat="44.77987001501589" lon="9.398912889887667"><ele>257.0</ele><time>2026-04-18T11:13:50.999Z</time></trkpt><trkpt lat="44.77985599750156" lon="9.398599017829678"><ele>258.0</ele><time>2026-04-18T11:13:51.999Z</time></trkpt><trkpt lat="44.779822752853406" lon="9.39830122417128"><ele>259.0</ele><time>2026-04-18T11:13:52.999Z</time></trkpt><trkpt lat="44.77980864207295" lon="9.397990871632482"><ele>260.0</ele><time>2026-04-18T11:13:53.999Z</time></trkpt><trkpt lat="44.77978976001982" lon="9.39767255000811"><ele>260.5</ele><time>2026-04-18T11:13:54.999Z</time></trkpt><trkpt lat="44.779759637959415" lon="9.397333543087914"><ele>261.0</ele><time>2026-04-18T11:13:55.999Z</time></trkpt><trkpt lat="44.779737491110396" lon="9.396964122957243"><ele>264.0</ele><time>2026-04-18T11:13:56.999Z</time></trkpt><trkpt lat="44.7796960562917" lon="9.396604997811163"><ele>267.0</ele><time>2026-04-18T11:13:57.999Z</time></trkpt><trkpt lat="44.779640002325046" lon="9.396310428113416"><ele>271.0</ele><time>2026-04-18T11:13:58.999Z</time></trkpt><trkpt lat="44.7795925346853" lon="9.396009137619657"><ele>275.0</ele><time>2026-04-18T11:13:59.999Z</time></trkpt><trkpt lat="44.77953581863107" lon="9.395672946706052"><ele>277.5</ele><time>2026-04-18T11:14:00.999Z</time></trkpt><trkpt lat="44.77945480915114" lon="9.39532568975597"><ele>280.0</ele><time>2026-04-18T11:14:01.999Z</time></trkpt><trkpt lat="44.779358642556915" lon="9.394958628672564"><ele>266.5</ele><time>2026-04-18T11:14:02.999Z</time></trkpt><trkpt lat="44.779247511044076" lon="9.39458458860755"><ele>253.0</ele><time>2026-04-18T11:14:03.999Z</time></trkpt><trkpt lat="44.77912702316768" lon="9.394222191220047"><ele>253.0</ele><time>2026-04-18T11:14:04.999Z</time></trkpt><trkpt lat="44.778992114891516" lon="9.39391115318535"><ele>253.0</ele><time>2026-04-18T11:14:05.999Z</time></trkpt><trkpt lat="44.778864390929" lon="9.39361360209627"><ele>258.5</ele><time>2026-04-18T11:14:06.999Z</time></trkpt><trkpt lat="44.778729068737434" lon="9.393323075350047"><ele>264.0</ele><time>2026-04-18T11:14:07.999Z</time></trkpt><trkpt lat="44.77859450870458" lon="9.39305774284553"><ele>261.0</ele><time>2026-04-18T11:14:09Z</time></trkpt><trkpt lat="44.778461892559434" lon="9.39281227008094"><ele>258.0</ele><time>2026-04-18T11:14:10Z</time></trkpt><trkpt lat="44.77832444886659" lon="9.392579530461786"><ele>255.0</ele><time>2026-04-18T11:14:11Z</time></trkpt><trkpt lat="44.77818233654537" lon="9.392333217806593"><ele>267.5</ele><time>2026-04-18T11:14:12Z</time></trkpt><trkpt lat="44.77800922767949" lon="9.392118439761717"><ele>280.0</ele><time>2026-04-18T11:14:13Z</time></trkpt><trkpt lat="44.7778502123503" lon="9.391882684893243"><ele>278.66666666666663</ele><time>2026-04-18T11:14:14Z</time></trkpt><trkpt lat="44.77768380037893" lon="9.391661530693305"><ele>277.3333333333333</ele><time>2026-04-18T11:14:15Z</time></trkpt><trkpt lat="44.77752287718032" lon="9.391465657076333"><ele>276.0</ele><time>2026-04-18T11:14:16Z</time></trkpt><trkpt lat="44.77736983587668" lon="9.3912888745373"><ele>276.0</ele><time>2026-04-18T11:14:17Z</time></trkpt><trkpt lat="44.77722751444153" lon="9.391140469384883"><ele>276.0</ele><time>2026-04-18T11:14:18Z</time></trkpt><trkpt lat="44.77711459739333" lon="9.391091451655011"><ele>276.0</ele><time>2026-04-18T11:14:20Z</time></trkpt><trkpt lat="44.7769994043526" lon="9.39097920101014"><ele>276.0</ele><time>2026-04-18T11:14:21Z</time></trkpt><trkpt lat="44.77689505658377" lon="9.390881323098338"><ele>274.8</ele><time>2026-04-18T11:14:22Z</time></trkpt><trkpt lat="44.77680452231305" lon="9.390777481670815"><ele>273.6</ele><time>2026-04-18T11:14:23Z</time></trkpt><trkpt lat="44.776736309477485" lon="9.390687463432878"><ele>272.4</ele><time>2026-04-18T11:14:24Z</time></trkpt><trkpt lat="44.77668503912219" lon="9.39059698113794"><ele>271.2</ele><time>2026-04-18T11:14:25Z</time></trkpt><trkpt lat="44.776652912701955" lon="9.390494623892021"><ele>270.0</ele><time>2026-04-18T11:14:26Z</time></trkpt><trkpt lat="44.77663974939002" lon="9.390371577730644"><ele>270.0</ele><time>2026-04-18T11:14:27Z</time></trkpt><trkpt lat="44.776630026372764" lon="9.390249823126272"><ele>270.0</ele><time>2026-04-18T11:14:28Z</time></trkpt><trkpt lat="44.77659693229799" lon="9.390135295126225"><ele>270.0</ele><time>2026-04-18T11:14:29Z</time></trkpt><trkpt lat="44.776525936670005" lon="9.390050996905781"><ele>270.0</ele><time>2026-04-18T11:14:30Z</time></trkpt><trkpt lat="44.776426346551915" lon="9.390009004288235"><ele>270.0</ele><time>2026-04-18T11:14:31Z</time></trkpt><trkpt lat="44.776306691355686" lon="9.389978564501938"><ele>270.0</ele><time>2026-04-18T11:14:32Z</time></trkpt><trkpt lat="44.776168054568934" lon="9.389927302227242"><ele>270.0</ele><time>2026-04-18T11:14:33Z</time></trkpt><trkpt lat="44.77606271272384" lon="9.389791475863491"><ele>270.0</ele><time>2026-04-18T11:14:34Z</time></trkpt><trkpt lat="44.77596226782633" lon="9.389660330184018"><ele>270.0</ele><time>2026-04-18T11:14:35Z</time></trkpt><trkpt lat="44.77585060240489" lon="9.38950647858983"><ele>269.6666666666667</ele><time>2026-04-18T11:14:36Z</time></trkpt><trkpt lat="44.77571824352745" lon="9.3893346450898"><ele>269.33333333333337</ele><time>2026-04-18T11:14:37Z</time></trkpt><trkpt lat="44.775617828186554" lon="9.389149108769653"><ele>269.0</ele><time>2026-04-18T11:14:38Z</time></trkpt><trkpt lat="44.775536483938154" lon="9.38899438828788"><ele>271.33333333333337</ele><time>2026-04-18T11:14:39Z</time></trkpt><trkpt lat="44.7754839311063" lon="9.388821547763289"><ele>273.6666666666667</ele><time>2026-04-18T11:14:40Z</time></trkpt><trkpt lat="44.77543128542401" lon="9.388608809668373"><ele>276.0</ele><time>2026-04-18T11:14:41Z</time></trkpt><trkpt lat="44.775351135387396" lon="9.388357299411856"><ele>276.0</ele><time>2026-04-18T11:14:42Z</time></trkpt><trkpt lat="44.775271159142925" lon="9.388092059579325"><ele>276.0</ele><time>2026-04-18T11:14:43Z</time></trkpt><trkpt lat="44.77519943531866" lon="9.387870266698348"><ele>276.0</ele><time>2026-04-18T11:14:44Z</time></trkpt><trkpt lat="44.77513850328037" lon="9.387688341296037"><ele>276.25</ele><time>2026-04-18T11:14:45Z</time></trkpt><trkpt lat="44.7750769145982" lon="9.387521304785942"><ele>276.5</ele><time>2026-04-18T11:14:46Z</time></trkpt><trkpt lat="44.775030792914386" lon="9.387362423466108"><ele>276.75</ele><time>2026-04-18T11:14:47Z</time></trkpt><trkpt lat="44.77495660826723" lon="9.387247784186641"><ele>277.0</ele><time>2026-04-18T11:14:48Z</time></trkpt><trkpt lat="44.7748887521546" lon="9.387144512852052"><ele>277.0</ele><time>2026-04-18T11:14:49Z</time></trkpt><trkpt lat="44.774803591507826" lon="9.387061118806818"><ele>277.0</ele><time>2026-04-18T11:14:50Z</time></trkpt><trkpt lat="44.77469484818465" lon="9.386995802840993"><ele>277.0</ele><time>2026-04-18T11:14:51Z</time></trkpt><trkpt lat="44.774571966759474" lon="9.386899199934913"><ele>277.0</ele><time>2026-04-18T11:14:52Z</time></trkpt><trkpt lat="44.77445301717065" lon="9.386881568517683"><ele>273.5</ele><time>2026-04-18T11:14:53Z</time></trkpt><trkpt lat="44.77434333184695" lon="9.386863359632642"><ele>270.0</ele><time>2026-04-18T11:14:54Z</time></trkpt><trkpt lat="44.774231702430264" lon="9.386854744303704"><ele>266.5</ele><time>2026-04-18T11:14:55Z</time></trkpt><trkpt lat="44.7741013948007" lon="9.386832006586019"><ele>263.0</ele><time>2026-04-18T11:14:56Z</time></trkpt><trkpt lat="44.77398135400413" lon="9.38683627012644"><ele>263.0</ele><time>2026-04-18T11:14:57Z</time></trkpt><trkpt lat="44.773856825543966" lon="9.386833193692812"><ele>263.0</ele><time>2026-04-18T11:14:58Z</time></trkpt><trkpt lat="44.77372472100324" lon="9.386813113740258"><ele>263.0</ele><time>2026-04-18T11:14:59Z</time></trkpt><trkpt lat="44.77360384178802" lon="9.386798057776417"><ele>263.0</ele><time>2026-04-18T11:15:00Z</time></trkpt><trkpt lat="44.773508234728446" lon="9.386783733030915"><ele>263.6666666666667</ele><time>2026-04-18T11:15:01Z</time></trkpt><trkpt lat="44.77342104979701" lon="9.386760805319636"><ele>264.33333333333337</ele><time>2026-04-18T11:15:02Z</time></trkpt><trkpt lat="44.77333045891422" lon="9.386735916338766"><ele>265.0</ele><time>2026-04-18T11:15:03Z</time></trkpt><trkpt lat="44.773240798165425" lon="9.386716360948403"><ele>265.6666666666667</ele><time>2026-04-18T11:15:04Z</time></trkpt><trkpt lat="44.773149481033954" lon="9.386697503077386"><ele>266.3333333333333</ele><time>2026-04-18T11:15:05Z</time></trkpt><trkpt lat="44.773067432636005" lon="9.386680068979723"><ele>267.0</ele><time>2026-04-18T11:15:06Z</time></trkpt><trkpt lat="44.77299781755528" lon="9.386660049587373"><ele>267.0</ele><time>2026-04-18T11:15:07Z</time></trkpt><trkpt lat="44.77289397424233" lon="9.38661981782991"><ele>267.0</ele><time>2026-04-18T11:15:09Z</time></trkpt><trkpt lat="44.77281442208261" lon="9.38659190889883"><ele>267.0</ele><time>2026-04-18T11:15:11Z</time></trkpt><trkpt lat="44.77274582922349" lon="9.386581152388638"><ele>267.0</ele><time>2026-04-18T11:15:13Z</time></trkpt><trkpt lat="44.77266614398285" lon="9.386560713584801"><ele>267.0</ele><time>2026-04-18T11:15:15Z</time></trkpt><trkpt lat="44.772550635615396" lon="9.386533709450273"><ele>267.6666666666667</ele><time>2026-04-18T11:15:17Z</time></trkpt><trkpt lat="44.77247943311944" lon="9.386537706690236"><ele>268.3333333333333</ele><time>2026-04-18T11:15:18Z</time></trkpt><trkpt lat="44.77240760319119" lon="9.386516086785651"><ele>269.0</ele><time>2026-04-18T11:15:19Z</time></trkpt><trkpt lat="44.77233282800626" lon="9.386502176915453"><ele>269.66666666666663</ele><time>2026-04-18T11:15:20Z</time></trkpt><trkpt lat="44.77225822617608" lon="9.38648601362771"><ele>270.3333333333333</ele><time>2026-04-18T11:15:21Z</time></trkpt><trkpt lat="44.77217452521495" lon="9.386461219961"><ele>271.0</ele><time>2026-04-18T11:15:22Z</time></trkpt><trkpt lat="44.772103740157725" lon="9.386443527561342"><ele>271.0</ele><time>2026-04-18T11:15:23Z</time></trkpt><trkpt lat="44.77200429318696" lon="9.386410507588893"><ele>271.0</ele><time>2026-04-18T11:15:25Z</time></trkpt><trkpt lat="44.77188579366247" lon="9.386384078377354"><ele>271.0</ele><time>2026-04-18T11:15:26.999Z</time></trkpt><trkpt lat="44.7718181194566" lon="9.386370971658824"><ele>271.0</ele><time>2026-04-18T11:15:27.999Z</time></trkpt><trkpt lat="44.77174991896361" lon="9.386357071103214"><ele>271.0</ele><time>2026-04-18T11:15:28.999Z</time></trkpt><trkpt lat="44.77168318663626" lon="9.386339451200138"><ele>271.0</ele><time>2026-04-18T11:15:29.999Z</time></trkpt><trkpt lat="44.77157557693808" lon="9.386313533880836"><ele>272.6</ele><time>2026-04-18T11:15:31.999Z</time></trkpt><trkpt lat="44.7714952750715" lon="9.386282584916135"><ele>274.20000000000005</ele><time>2026-04-18T11:15:33.999Z</time></trkpt><trkpt lat="44.771400978948314" lon="9.386253237881652"><ele>275.79999999999995</ele><time>2026-04-18T11:16:12.999Z</time></trkpt><trkpt lat="44.7712772276258" lon="9.386232247239457"><ele>277.4</ele><time>2026-04-18T11:16:15Z</time></trkpt><trkpt lat="44.77119654243105" lon="9.38621325469176"><ele>279.0</ele><time>2026-04-18T11:16:16Z</time></trkpt><trkpt lat="44.77111606168303" lon="9.386190950682996"><ele>279.0</ele><time>2026-04-18T11:16:17Z</time></trkpt><trkpt lat="44.771034252025146" lon="9.386172324578276"><ele>279.0</ele><time>2026-04-18T11:16:18Z</time></trkpt><trkpt lat="44.770957325256326" lon="9.38615685030607"><ele>279.0</ele><time>2026-04-18T11:16:19Z</time></trkpt><trkpt lat="44.77088158296225" lon="9.386129139875257"><ele>279.0</ele><time>2026-04-18T11:16:20Z</time></trkpt><trkpt lat="44.7707989608589" lon="9.386110704555376"><ele>279.0</ele><time>2026-04-18T11:16:21Z</time></trkpt><trkpt lat="44.77070624681854" lon="9.386083949533688"><ele>279.0</ele><time>2026-04-18T11:16:22Z</time></trkpt><trkpt lat="44.77059880495253" lon="9.386067289069075"><ele>279.8333333333333</ele><time>2026-04-18T11:16:23Z</time></trkpt><trkpt lat="44.77052419478164" lon="9.386033106524554"><ele>280.6666666666667</ele><time>2026-04-18T11:16:24Z</time></trkpt><trkpt lat="44.77044624197162" lon="9.38602473867711"><ele>281.5</ele><time>2026-04-18T11:16:25Z</time></trkpt><trkpt lat="44.77034198893535" lon="9.386013398267547"><ele>282.33333333333337</ele><time>2026-04-18T11:16:27Z</time></trkpt><trkpt lat="44.77026905675679" lon="9.386005762562739"><ele>283.1666666666667</ele><time>2026-04-18T11:16:29Z</time></trkpt><trkpt lat="44.77019451907977" lon="9.386010460106863"><ele>284.0</ele><time>2026-04-18T11:16:42Z</time></trkpt><trkpt lat="44.77010720170959" lon="9.386028634876544"><ele>284.0</ele><time>2026-04-18T11:16:48Z</time></trkpt><trkpt lat="44.77002644211919" lon="9.386029715614884"><ele>284.0</ele><time>2026-04-18T11:16:52Z</time></trkpt><trkpt lat="44.769946552176414" lon="9.38604132700441"><ele>284.0</ele><time>2026-04-18T11:16:58Z</time></trkpt><trkpt lat="44.7698796830991" lon="9.386063405375001"><ele>284.0</ele><time>2026-04-18T11:17:02Z</time></trkpt><trkpt lat="44.76995738024609" lon="9.386054861685302"><ele>284.0</ele><time>2026-04-18T11:17:22Z</time></trkpt><trkpt lat="44.770030090378874" lon="9.38602326361922"><ele>284.0</ele><time>2026-04-18T11:17:25Z</time></trkpt><trkpt lat="44.77009674129911" lon="9.386036499896717"><ele>284.0</ele><time>2026-04-18T11:17:29Z</time></trkpt><trkpt lat="44.770165882006815" lon="9.386035955124333"><ele>284.0</ele><time>2026-04-18T11:17:32.999Z</time></trkpt><trkpt lat="44.77024696797916" lon="9.386014830522138"><ele>284.0</ele><time>2026-04-18T11:17:35.999Z</time></trkpt><trkpt lat="44.770335263030724" lon="9.386019509410366"><ele>284.0</ele><time>2026-04-18T11:18:05.999Z</time></trkpt><trkpt lat="44.77042236037785" lon="9.386031424034575"><ele>284.0</ele><time>2026-04-18T11:18:07.999Z</time></trkpt><trkpt lat="44.770515462213325" lon="9.386050715538861"><ele>284.0</ele><time>2026-04-18T11:18:09.999Z</time></trkpt><trkpt lat="44.77058536337149" lon="9.386065908603282"><ele>284.0</ele><time>2026-04-18T11:18:11.999Z</time></trkpt><trkpt lat="44.77066208135334" lon="9.386082888582239"><ele>284.0</ele><time>2026-04-18T11:18:13.999Z</time></trkpt><trkpt lat="44.77073603731543" lon="9.386100556057931"><ele>284.0</ele><time>2026-04-18T11:18:15.999Z</time></trkpt><trkpt lat="44.77081871121339" lon="9.386120306127268"><ele>284.0</ele><time>2026-04-18T11:18:17.999Z</time></trkpt></trkseg><trkseg><trkpt lat="44.77085008290109" lon="9.386143516757885"><ele>284.0</ele><time>2026-04-18T13:22:09Z</time></trkpt><trkpt lat="44.77077967491445" lon="9.386124908932844"><ele>284.0</ele><time>2026-04-18T13:22:10Z</time></trkpt><trkpt lat="44.77070725527105" lon="9.386101942518154"><ele>284.0</ele><time>2026-04-18T13:22:11Z</time></trkpt><trkpt lat="44.770613503684075" lon="9.386085178711811"><ele>284.0</ele><time>2026-04-18T13:22:12Z</time></trkpt><trkpt lat="44.77054271851179" lon="9.386057099336186"><ele>284.0</ele><time>2026-04-18T13:22:13Z</time></trkpt><trkpt lat="44.77045336742398" lon="9.386026673027674"><ele>284.0</ele><time>2026-04-18T13:22:15Z</time></trkpt><trkpt lat="44.770361979116466" lon="9.386005051421124"><ele>284.0</ele><time>2026-04-18T13:22:20Z</time></trkpt><trkpt lat="44.77025765761896" lon="9.386006324858705"><ele>284.0</ele><time>2026-04-18T13:22:21Z</time></trkpt><trkpt lat="44.770185066524526" lon="9.386025426361853"><ele>284.0</ele><time>2026-04-18T13:22:22Z</time></trkpt><trkpt lat="44.770098930520376" lon="9.386033576809862"><ele>284.0</ele><time>2026-04-18T13:22:24Z</time></trkpt><trkpt lat="44.769963436612464" lon="9.38603996572536"><ele>284.0</ele><time>2026-04-18T13:22:26Z</time></trkpt><trkpt lat="44.76985277079623" lon="9.386081315108777"><ele>284.0</ele><time>2026-04-18T13:22:28Z</time></trkpt><trkpt lat="44.76978983369203" lon="9.386111391599886"><ele>284.0</ele><time>2026-04-18T13:22:29Z</time></trkpt><trkpt lat="44.76972018654773" lon="9.386147732359566"><ele>284.0</ele><time>2026-04-18T13:22:30Z</time></trkpt><trkpt lat="44.76960053490054" lon="9.38619894571466"><ele>284.0</ele><time>2026-04-18T13:22:32Z</time></trkpt><trkpt lat="44.76951265218676" lon="9.38625201954497"><ele>284.0</ele><time>2026-04-18T13:22:34Z</time></trkpt><trkpt lat="44.769393777195205" lon="9.386347461786132"><ele>283.5</ele><time>2026-04-18T13:22:36Z</time></trkpt><trkpt lat="44.769337586586914" lon="9.38641113619559"><ele>283.0</ele><time>2026-04-18T13:22:37Z</time></trkpt><trkpt lat="44.769286578027945" lon="9.386477969007625"><ele>282.5</ele><time>2026-04-18T13:22:38Z</time></trkpt><trkpt lat="44.769246556730344" lon="9.38662725994828"><ele>282.0</ele><time>2026-04-18T13:22:40Z</time></trkpt><trkpt lat="44.76920026976179" lon="9.386744533847564"><ele>281.5</ele><time>2026-04-18T13:22:41Z</time></trkpt><trkpt lat="44.76916635915649" lon="9.386851820792494"><ele>281.0</ele><time>2026-04-18T13:22:43Z</time></trkpt><trkpt lat="44.76912555584132" lon="9.386937020831382"><ele>281.0</ele><time>2026-04-18T13:22:44Z</time></trkpt><trkpt lat="44.76910496837671" lon="9.387063558104236"><ele>281.0</ele><time>2026-04-18T13:22:45Z</time></trkpt><trkpt lat="44.76905162747814" lon="9.387256322682939"><ele>281.0</ele><time>2026-04-18T13:22:47Z</time></trkpt><trkpt lat="44.76899631647625" lon="9.387407604065654"><ele>281.0</ele><time>2026-04-18T13:22:48Z</time></trkpt><trkpt lat="44.76896162932768" lon="9.38751058719209"><ele>281.0</ele><time>2026-04-18T13:22:49Z</time></trkpt><trkpt lat="44.768838081093925" lon="9.387524481508802"><ele>280.0</ele><time>2026-04-18T13:22:51Z</time></trkpt><trkpt lat="44.76875215033029" lon="9.387495901657505"><ele>279.0</ele><time>2026-04-18T13:22:52Z</time></trkpt><trkpt lat="44.76865136390175" lon="9.387470461577633"><ele>278.0</ele><time>2026-04-18T13:22:53Z</time></trkpt><trkpt lat="44.7685563121345" lon="9.387477166134637"><ele>277.0</ele><time>2026-04-18T13:22:54Z</time></trkpt><trkpt lat="44.76847985135576" lon="9.387475839208886"><ele>276.0</ele><time>2026-04-18T13:22:55Z</time></trkpt><trkpt lat="44.76840741119406" lon="9.387484886911277"><ele>275.0</ele><time>2026-04-18T13:22:56Z</time></trkpt><trkpt lat="44.768318505941146" lon="9.387510251026917"><ele>275.0</ele><time>2026-04-18T13:22:57Z</time></trkpt><trkpt lat="44.768241452577215" lon="9.387531735473571"><ele>275.0</ele><time>2026-04-18T13:22:58Z</time></trkpt><trkpt lat="44.76817423148732" lon="9.387544602574259"><ele>275.0</ele><time>2026-04-18T13:22:59Z</time></trkpt><trkpt lat="44.7680612735381" lon="9.387581821355093"><ele>275.0</ele><time>2026-04-18T13:23:01Z</time></trkpt><trkpt lat="44.76799247805463" lon="9.387619868270768"><ele>275.0</ele><time>2026-04-18T13:23:02Z</time></trkpt><trkpt lat="44.76791390988925" lon="9.387671359969998"><ele>275.0</ele><time>2026-04-18T13:23:03Z</time></trkpt><trkpt lat="44.767826087504226" lon="9.387724548146661"><ele>275.0</ele><time>2026-04-18T13:23:04Z</time></trkpt><trkpt lat="44.76774950015348" lon="9.387771049862254"><ele>275.0</ele><time>2026-04-18T13:23:05Z</time></trkpt><trkpt lat="44.76769009254782" lon="9.387829003655108"><ele>275.0</ele><time>2026-04-18T13:23:06Z</time></trkpt><trkpt lat="44.76763845274263" lon="9.387916547832681"><ele>275.0</ele><time>2026-04-18T13:23:07Z</time></trkpt><trkpt lat="44.76758381113635" lon="9.388017540077104"><ele>275.0</ele><time>2026-04-18T13:23:08Z</time></trkpt><trkpt lat="44.76752079511299" lon="9.388130059853767"><ele>275.0</ele><time>2026-04-18T13:23:09Z</time></trkpt><trkpt lat="44.76745792289013" lon="9.388222325798578"><ele>274.1666666666667</ele><time>2026-04-18T13:23:10Z</time></trkpt><trkpt lat="44.76740435715461" lon="9.38829992362253"><ele>273.33333333333337</ele><time>2026-04-18T13:23:11Z</time></trkpt><trkpt lat="44.76735428593511" lon="9.388378420170966"><ele>272.5</ele><time>2026-04-18T13:23:12Z</time></trkpt><trkpt lat="44.767303971892446" lon="9.388457402951438"><ele>271.6666666666667</ele><time>2026-04-18T13:23:13Z</time></trkpt><trkpt lat="44.76722564319558" lon="9.388559312872092"><ele>270.8333333333333</ele><time>2026-04-18T13:23:15Z</time></trkpt><trkpt lat="44.767144270750954" lon="9.38859948011841"><ele>270.0</ele><time>2026-04-18T13:23:17Z</time></trkpt><trkpt lat="44.76704033982395" lon="9.388587887378005"><ele>270.0</ele><time>2026-04-18T13:23:19Z</time></trkpt><trkpt lat="44.76697975762314" lon="9.388560896161378"><ele>270.0</ele><time>2026-04-18T13:23:20Z</time></trkpt><trkpt lat="44.76688488125225" lon="9.388503023514433"><ele>270.0</ele><time>2026-04-18T13:23:22Z</time></trkpt><trkpt lat="44.7668116804383" lon="9.388460781501047"><ele>270.0</ele><time>2026-04-18T13:23:23.999Z</time></trkpt><trkpt lat="44.76674656404917" lon="9.388413785765556"><ele>270.0</ele><time>2026-04-18T13:23:26.999Z</time></trkpt><trkpt lat="44.76668010353234" lon="9.38844677906653"><ele>270.0</ele><time>2026-04-18T13:23:46.999Z</time></trkpt><trkpt lat="44.76657094073898" lon="9.388409817529858"><ele>270.1428571428571</ele><time>2026-04-18T13:23:48.999Z</time></trkpt><trkpt lat="44.7664924812576" lon="9.388341267929054"><ele>270.2857142857143</ele><time>2026-04-18T13:23:49.999Z</time></trkpt><trkpt lat="44.76642396814078" lon="9.38831474224039"><ele>270.42857142857144</ele><time>2026-04-18T13:23:50.999Z</time></trkpt><trkpt lat="44.76635908168696" lon="9.3882872325804"><ele>270.57142857142856</ele><time>2026-04-18T13:23:51.999Z</time></trkpt><trkpt lat="44.766296120335646" lon="9.388245578087632"><ele>270.7142857142857</ele><time>2026-04-18T13:23:52.999Z</time></trkpt><trkpt lat="44.76623380176131" lon="9.388174243455166"><ele>270.85714285714283</ele><time>2026-04-18T13:23:53.999Z</time></trkpt><trkpt lat="44.76619570634387" lon="9.388097783227662"><ele>271.0</ele><time>2026-04-18T13:23:54.999Z</time></trkpt><trkpt lat="44.76617057851013" lon="9.387999933492768"><ele>272.5</ele><time>2026-04-18T13:23:55.999Z</time></trkpt><trkpt lat="44.766138942088354" lon="9.387888710167038"><ele>274.0</ele><time>2026-04-18T13:23:56.999Z</time></trkpt><trkpt lat="44.76614456719538" lon="9.387788488503524"><ele>275.5</ele><time>2026-04-18T13:23:57.999Z</time></trkpt><trkpt lat="44.76613441183276" lon="9.38768398739382"><ele>277.0</ele><time>2026-04-18T13:23:58.999Z</time></trkpt><trkpt lat="44.76614797548268" lon="9.3875574726369"><ele>278.5</ele><time>2026-04-18T13:23:59.999Z</time></trkpt><trkpt lat="44.76613593284054" lon="9.387409007165486"><ele>280.0</ele><time>2026-04-18T13:24:00.999Z</time></trkpt><trkpt lat="44.76612766148452" lon="9.387280051780017"><ele>280.3333333333333</ele><time>2026-04-18T13:24:01.999Z</time></trkpt><trkpt lat="44.76611988592979" lon="9.387155041462544"><ele>280.66666666666663</ele><time>2026-04-18T13:24:02.999Z</time></trkpt><trkpt lat="44.76610926644644" lon="9.387012749473982"><ele>281.0</ele><time>2026-04-18T13:24:03.999Z</time></trkpt><trkpt lat="44.76609295359488" lon="9.386878029221743"><ele>281.3333333333333</ele><time>2026-04-18T13:24:04.999Z</time></trkpt><trkpt lat="44.766065470009664" lon="9.386769736640904"><ele>281.6666666666667</ele><time>2026-04-18T13:24:05.999Z</time></trkpt><trkpt lat="44.76603976004869" lon="9.386681880098557"><ele>282.0</ele><time>2026-04-18T13:24:06.999Z</time></trkpt><trkpt lat="44.765974910537466" lon="9.38660911516543"><ele>280.0</ele><time>2026-04-18T13:24:07.999Z</time></trkpt><trkpt lat="44.76591891572423" lon="9.386547907996519"><ele>278.0</ele><time>2026-04-18T13:24:08.999Z</time></trkpt><trkpt lat="44.76584278123948" lon="9.386503976663437"><ele>276.0</ele><time>2026-04-18T13:24:09.999Z</time></trkpt><trkpt lat="44.76575026754704" lon="9.386465589210662"><ele>274.0</ele><time>2026-04-18T13:24:10.999Z</time></trkpt><trkpt lat="44.76564987947196" lon="9.386430134855063"><ele>272.0</ele><time>2026-04-18T13:24:11.999Z</time></trkpt><trkpt lat="44.76556062992532" lon="9.386399289203606"><ele>270.0</ele><time>2026-04-18T13:24:12.999Z</time></trkpt><trkpt lat="44.76544007853523" lon="9.386358527176078"><ele>269.8333333333333</ele><time>2026-04-18T13:24:14.999Z</time></trkpt><trkpt lat="44.76537221419879" lon="9.386336158474453"><ele>269.6666666666667</ele><time>2026-04-18T13:24:15.999Z</time></trkpt><trkpt lat="44.76529276260119" lon="9.386320000262728"><ele>269.5</ele><time>2026-04-18T13:24:16.999Z</time></trkpt><trkpt lat="44.76520200723345" lon="9.386298698299742"><ele>269.33333333333337</ele><time>2026-04-18T13:24:17.999Z</time></trkpt><trkpt lat="44.76510490029274" lon="9.386264720846844"><ele>269.1666666666667</ele><time>2026-04-18T13:24:18.999Z</time></trkpt><trkpt lat="44.76502255730309" lon="9.386239111028862"><ele>269.0</ele><time>2026-04-18T13:24:19.999Z</time></trkpt><trkpt lat="44.76495654745054" lon="9.386191931214244"><ele>269.0</ele><time>2026-04-18T13:24:20.999Z</time></trkpt><trkpt lat="44.76486724630837" lon="9.386159863600417"><ele>269.0</ele><time>2026-04-18T13:24:21.999Z</time></trkpt><trkpt lat="44.764773067513524" lon="9.386147786616977"><ele>269.0</ele><time>2026-04-18T13:24:22.999Z</time></trkpt><trkpt lat="44.76469949686451" lon="9.386102402017498"><ele>269.0</ele><time>2026-04-18T13:24:23.999Z</time></trkpt><trkpt lat="44.764629043305085" lon="9.386098465070058"><ele>269.0</ele><time>2026-04-18T13:24:24.999Z</time></trkpt><trkpt lat="44.76456539404782" lon="9.386080109830262"><ele>269.0</ele><time>2026-04-18T13:24:25.999Z</time></trkpt><trkpt lat="44.7644381562533" lon="9.386035090764793"><ele>268.4</ele><time>2026-04-18T13:24:27.999Z</time></trkpt><trkpt lat="44.76435798521052" lon="9.385997200460984"><ele>267.79999999999995</ele><time>2026-04-18T13:24:29.999Z</time></trkpt><trkpt lat="44.764276005352585" lon="9.385976844749953"><ele>267.20000000000005</ele><time>2026-04-18T13:25:19.999Z</time></trkpt><trkpt lat="44.76418695755673" lon="9.385968460449089"><ele>266.6</ele><time>2026-04-18T13:25:22.999Z</time></trkpt><trkpt lat="44.76417788161383" lon="9.386158715730643"><ele>266.0</ele><time>2026-04-18T13:25:25.999Z</time></trkpt><trkpt lat="44.764261733876204" lon="9.386284161322326"><ele>265.5</ele><time>2026-04-18T13:25:27.999Z</time></trkpt><trkpt lat="44.76431828886824" lon="9.386392236703285"><ele>265.0</ele><time>2026-04-18T13:25:28.999Z</time></trkpt><trkpt lat="44.764363423986" lon="9.38648336818962"><ele>264.5</ele><time>2026-04-18T13:25:29.999Z</time></trkpt><trkpt lat="44.764398759815116" lon="9.386572962831613"><ele>264.0</ele><time>2026-04-18T13:25:30.999Z</time></trkpt><trkpt lat="44.764436328346996" lon="9.38667040299116"><ele>263.5</ele><time>2026-04-18T13:25:31.999Z</time></trkpt><trkpt lat="44.76447788005804" lon="9.38677066037189"><ele>263.0</ele><time>2026-04-18T13:25:32.999Z</time></trkpt><trkpt lat="44.76452623230045" lon="9.386878173160847"><ele>263.0</ele><time>2026-04-18T13:25:33.999Z</time></trkpt><trkpt lat="44.764571723315946" lon="9.386970868293378"><ele>263.0</ele><time>2026-04-18T13:25:34.999Z</time></trkpt><trkpt lat="44.764618744894236" lon="9.38705868844114"><ele>263.0</ele><time>2026-04-18T13:25:35.999Z</time></trkpt><trkpt lat="44.76467674812298" lon="9.387163847696836"><ele>263.0</ele><time>2026-04-18T13:25:36.999Z</time></trkpt><trkpt lat="44.76472897474781" lon="9.387275328527583"><ele>263.0</ele><time>2026-04-18T13:25:37.999Z</time></trkpt><trkpt lat="44.764773348396545" lon="9.387372551151696"><ele>263.0</ele><time>2026-04-18T13:25:38.999Z</time></trkpt><trkpt lat="44.764823790913574" lon="9.387472564311814"><ele>261.8</ele><time>2026-04-18T13:25:39.999Z</time></trkpt><trkpt lat="44.76488543683016" lon="9.387595153933365"><ele>260.6</ele><time>2026-04-18T13:25:40.999Z</time></trkpt><trkpt lat="44.764945689247185" lon="9.387721979718304"><ele>259.4</ele><time>2026-04-18T13:25:41.999Z</time></trkpt><trkpt lat="44.7649960309284" lon="9.38782962882519"><ele>258.2</ele><time>2026-04-18T13:25:42.999Z</time></trkpt><trkpt lat="44.765049521744494" lon="9.387936396862138"><ele>257.0</ele><time>2026-04-18T13:25:43.999Z</time></trkpt><trkpt lat="44.765102759949485" lon="9.388044755186735"><ele>256.83333333333337</ele><time>2026-04-18T13:25:44.999Z</time></trkpt><trkpt lat="44.7651547415196" lon="9.388152029297354"><ele>256.6666666666667</ele><time>2026-04-18T13:25:45.999Z</time></trkpt><trkpt lat="44.76519935340408" lon="9.388244559252634"><ele>256.5</ele><time>2026-04-18T13:25:46.999Z</time></trkpt><trkpt lat="44.76525009903269" lon="9.388345257349279"><ele>256.3333333333333</ele><time>2026-04-18T13:25:47.999Z</time></trkpt><trkpt lat="44.76530330034101" lon="9.38845054252832"><ele>256.16666666666663</ele><time>2026-04-18T13:25:48.999Z</time></trkpt><trkpt lat="44.76535763937331" lon="9.38855693478203"><ele>256.0</ele><time>2026-04-18T13:25:49.999Z</time></trkpt><trkpt lat="44.76541043795816" lon="9.388641679431577"><ele>256.16666666666663</ele><time>2026-04-18T13:25:50.999Z</time></trkpt><trkpt lat="44.76546917851869" lon="9.38872008563452"><ele>256.3333333333333</ele><time>2026-04-18T13:25:51.999Z</time></trkpt><trkpt lat="44.76553272332338" lon="9.388793772232908"><ele>256.5</ele><time>2026-04-18T13:25:52.999Z</time></trkpt><trkpt lat="44.76560347859284" lon="9.388866794392156"><ele>256.6666666666667</ele><time>2026-04-18T13:25:53.999Z</time></trkpt><trkpt lat="44.7656799758135" lon="9.388939487980855"><ele>256.83333333333337</ele><time>2026-04-18T13:25:54.999Z</time></trkpt><trkpt lat="44.765759500292184" lon="9.389004100005605"><ele>257.0</ele><time>2026-04-18T13:25:55.999Z</time></trkpt><trkpt lat="44.76584989522117" lon="9.389067933838524"><ele>257.0</ele><time>2026-04-18T13:25:56.999Z</time></trkpt><trkpt lat="44.765948338530364" lon="9.389122112374402"><ele>257.0</ele><time>2026-04-18T13:25:57.999Z</time></trkpt><trkpt lat="44.7660351269747" lon="9.389162867643272"><ele>257.0</ele><time>2026-04-18T13:25:58.999Z</time></trkpt><trkpt lat="44.7661222328057" lon="9.389193845200161"><ele>257.0</ele><time>2026-04-18T13:25:59.999Z</time></trkpt><trkpt lat="44.76621399084186" lon="9.389216555172693"><ele>257.0</ele><time>2026-04-18T13:26:00.999Z</time></trkpt><trkpt lat="44.76629353993333" lon="9.389229874906842"><ele>257.2857142857143</ele><time>2026-04-18T13:26:01.999Z</time></trkpt><trkpt lat="44.76636402334829" lon="9.389233122661384"><ele>257.57142857142856</ele><time>2026-04-18T13:26:02.999Z</time></trkpt><trkpt lat="44.76643674126894" lon="9.389231069502713"><ele>257.8571428571429</ele><time>2026-04-18T13:26:03.999Z</time></trkpt><trkpt lat="44.76651602176982" lon="9.389229598285297"><ele>258.1428571428571</ele><time>2026-04-18T13:26:04.999Z</time></trkpt><trkpt lat="44.76658429697611" lon="9.389218900956406"><ele>258.42857142857144</ele><time>2026-04-18T13:26:05.999Z</time></trkpt><trkpt lat="44.76665657756099" lon="9.389201964364412"><ele>258.7142857142857</ele><time>2026-04-18T13:26:06.999Z</time></trkpt><trkpt lat="44.766733130011254" lon="9.389181216096532"><ele>259.0</ele><time>2026-04-18T13:26:07.999Z</time></trkpt><trkpt lat="44.76679827730962" lon="9.389161488123667"><ele>259.0</ele><time>2026-04-18T13:26:08.999Z</time></trkpt><trkpt lat="44.76689155854139" lon="9.38912840152324"><ele>259.0</ele><time>2026-04-18T13:26:10.999Z</time></trkpt><trkpt lat="44.76696018590554" lon="9.389088777748448"><ele>259.0</ele><time>2026-04-18T13:26:13.999Z</time></trkpt><trkpt lat="44.767063411196496" lon="9.389070223756674"><ele>259.0</ele><time>2026-04-18T13:26:21Z</time></trkpt><trkpt lat="44.76717346907841" lon="9.389043888527246"><ele>259.0</ele><time>2026-04-18T13:26:23Z</time></trkpt><trkpt lat="44.76730183668254" lon="9.389002408284084"><ele>259.0</ele><time>2026-04-18T13:26:25Z</time></trkpt><trkpt lat="44.76737052599305" lon="9.388979927640149"><ele>259.0</ele><time>2026-04-18T13:26:26Z</time></trkpt><trkpt lat="44.76743416335266" lon="9.388958207274127"><ele>259.0</ele><time>2026-04-18T13:26:27Z</time></trkpt><trkpt lat="44.767496968878056" lon="9.388935827737148"><ele>259.0</ele><time>2026-04-18T13:26:28Z</time></trkpt><trkpt lat="44.76756837966615" lon="9.38891377708064"><ele>259.0</ele><time>2026-04-18T13:26:29Z</time></trkpt><trkpt lat="44.76765359934888" lon="9.38888866229871"><ele>259.0</ele><time>2026-04-18T13:26:30Z</time></trkpt><trkpt lat="44.76775110782573" lon="9.388859127986137"><ele>259.59999999999997</ele><time>2026-04-18T13:26:31Z</time></trkpt><trkpt lat="44.76784443351923" lon="9.388831654016554"><ele>260.2</ele><time>2026-04-18T13:26:32Z</time></trkpt><trkpt lat="44.76794473154393" lon="9.38879840670804"><ele>260.79999999999995</ele><time>2026-04-18T13:26:33Z</time></trkpt><trkpt lat="44.76805171743947" lon="9.388788035846973"><ele>261.4</ele><time>2026-04-18T13:26:34Z</time></trkpt><trkpt lat="44.768170784725946" lon="9.388753078717022"><ele>262.0</ele><time>2026-04-18T13:26:35Z</time></trkpt><trkpt lat="44.76830592263891" lon="9.388713185950026"><ele>262.0</ele><time>2026-04-18T13:26:36Z</time></trkpt><trkpt lat="44.768430236758206" lon="9.388676488389379"><ele>262.0</ele><time>2026-04-18T13:26:37Z</time></trkpt><trkpt lat="44.76854536514118" lon="9.388642502437715"><ele>262.0</ele><time>2026-04-18T13:26:38Z</time></trkpt><trkpt lat="44.768649347692026" lon="9.388611825512847"><ele>262.0</ele><time>2026-04-18T13:26:39Z</time></trkpt><trkpt lat="44.768743968864925" lon="9.388585254091085"><ele>262.0</ele><time>2026-04-18T13:26:40Z</time></trkpt><trkpt lat="44.76883204768506" lon="9.388560519893236"><ele>262.3333333333333</ele><time>2026-04-18T13:26:41Z</time></trkpt><trkpt lat="44.768921842231514" lon="9.388536558990692"><ele>262.66666666666663</ele><time>2026-04-18T13:26:42Z</time></trkpt><trkpt lat="44.769003146817184" lon="9.388499754027686"><ele>263.0</ele><time>2026-04-18T13:26:43Z</time></trkpt><trkpt lat="44.76910663120356" lon="9.38848909651519"><ele>263.3333333333333</ele><time>2026-04-18T13:26:45Z</time></trkpt><trkpt lat="44.76917145597077" lon="9.388491704738755"><ele>263.6666666666667</ele><time>2026-04-18T13:26:47Z</time></trkpt><trkpt lat="44.769240019095434" lon="9.38855752057162"><ele>264.0</ele><time>2026-04-18T13:26:50Z</time></trkpt><trkpt lat="44.7692629136329" lon="9.388656546807507"><ele>264.0</ele><time>2026-04-18T13:26:52Z</time></trkpt><trkpt lat="44.769205752836655" lon="9.388758634361201"><ele>264.0</ele><time>2026-04-18T13:26:54Z</time></trkpt><trkpt lat="44.76909428263216" lon="9.388797244403216"><ele>264.0</ele><time>2026-04-18T13:26:56Z</time></trkpt><trkpt lat="44.768961506919" lon="9.388810256957095"><ele>264.0</ele><time>2026-04-18T13:26:58Z</time></trkpt><trkpt lat="44.768889217330184" lon="9.388816289619893"><ele>264.0</ele><time>2026-04-18T13:26:59Z</time></trkpt><trkpt lat="44.76880231258076" lon="9.388825829700812"><ele>264.0</ele><time>2026-04-18T13:27:00Z</time></trkpt><trkpt lat="44.76871128611118" lon="9.388836636357919"><ele>264.0</ele><time>2026-04-18T13:27:01Z</time></trkpt><trkpt lat="44.768623108940815" lon="9.388853458452457"><ele>264.0</ele><time>2026-04-18T13:27:02Z</time></trkpt><trkpt lat="44.76853373916062" lon="9.38888120404423"><ele>264.0</ele><time>2026-04-18T13:27:03Z</time></trkpt><trkpt lat="44.768440654466616" lon="9.388911061338884"><ele>264.0</ele><time>2026-04-18T13:27:04Z</time></trkpt><trkpt lat="44.76835327563669" lon="9.388960327688483"><ele>263.3333333333333</ele><time>2026-04-18T13:27:05Z</time></trkpt><trkpt lat="44.76826922016031" lon="9.389026115746889"><ele>262.6666666666667</ele><time>2026-04-18T13:27:06Z</time></trkpt><trkpt lat="44.768194586330594" lon="9.389099884696895"><ele>262.0</ele><time>2026-04-18T13:27:07Z</time></trkpt><trkpt lat="44.76813069986749" lon="9.389163195184796"><ele>261.33333333333337</ele><time>2026-04-18T13:27:08Z</time></trkpt><trkpt lat="44.76807453163212" lon="9.389217996894907"><ele>260.6666666666667</ele><time>2026-04-18T13:27:09Z</time></trkpt><trkpt lat="44.76800909831799" lon="9.389273256862833"><ele>260.0</ele><time>2026-04-18T13:27:10Z</time></trkpt><trkpt lat="44.76793621336273" lon="9.389341725676621"><ele>260.0</ele><time>2026-04-18T13:27:11Z</time></trkpt><trkpt lat="44.76785871319284" lon="9.389415935863585"><ele>260.0</ele><time>2026-04-18T13:27:12Z</time></trkpt><trkpt lat="44.767781271742656" lon="9.389474078979193"><ele>260.0</ele><time>2026-04-18T13:27:13Z</time></trkpt><trkpt lat="44.767717317667426" lon="9.389521133403568"><ele>260.0</ele><time>2026-04-18T13:27:14Z</time></trkpt><trkpt lat="44.767626915875994" lon="9.389559116808133"><ele>260.0</ele><time>2026-04-18T13:27:16Z</time></trkpt><trkpt lat="44.767546950176595" lon="9.389592984377831"><ele>260.0</ele><time>2026-04-18T13:27:18Z</time></trkpt><trkpt lat="44.767483857986804" lon="9.389626203130176"><ele>259.83333333333337</ele><time>2026-04-18T13:27:20Z</time></trkpt><trkpt lat="44.767411016931895" lon="9.389626929181325"><ele>259.6666666666667</ele><time>2026-04-18T13:27:24Z</time></trkpt><trkpt lat="44.76732689934238" lon="9.38965169117642"><ele>259.5</ele><time>2026-04-18T13:27:56Z</time></trkpt><trkpt lat="44.76722303553448" lon="9.389655268019315"><ele>259.3333333333333</ele><time>2026-04-18T13:27:58Z</time></trkpt><trkpt lat="44.767139866436345" lon="9.389632677698945"><ele>259.16666666666663</ele><time>2026-04-18T13:28:00Z</time></trkpt><trkpt lat="44.76705418199821" lon="9.389645670320844"><ele>259.0</ele><time>2026-04-18T13:28:03Z</time></trkpt><trkpt lat="44.76706180028829" lon="9.38973491346432"><ele>259.0</ele><time>2026-04-18T13:28:06.999Z</time></trkpt><trkpt lat="44.76710429913437" lon="9.389648062875604"><ele>259.0</ele><time>2026-04-18T13:28:08.999Z</time></trkpt><trkpt lat="44.76719355235078" lon="9.389660857316722"><ele>259.0</ele><time>2026-04-18T13:28:11.999Z</time></trkpt><trkpt lat="44.7672711762119" lon="9.389668616016193"><ele>259.0</ele><time>2026-04-18T13:28:13.999Z</time></trkpt><trkpt lat="44.76735808359894" lon="9.389653576437164"><ele>259.0</ele><time>2026-04-18T13:28:15.999Z</time></trkpt><trkpt lat="44.7673804004397" lon="9.389979357463877"><ele>259.0</ele><time>2026-04-18T13:28:24.999Z</time></trkpt><trkpt lat="44.76735986942241" lon="9.390076517844854"><ele>259.0</ele><time>2026-04-18T13:28:27Z</time></trkpt><trkpt lat="44.76743839706162" lon="9.39010332520506"><ele>259.0</ele><time>2026-04-18T13:28:30Z</time></trkpt><trkpt lat="44.767472707546766" lon="9.390008792286007"><ele>259.0</ele><time>2026-04-18T13:28:33Z</time></trkpt><trkpt lat="44.767433084990806" lon="9.389904191232732"><ele>259.0</ele><time>2026-04-18T13:28:36Z</time></trkpt><trkpt lat="44.767427723263665" lon="9.389812137748049"><ele>259.0</ele><time>2026-04-18T13:39:01Z</time></trkpt><trkpt lat="44.767408730877094" lon="9.389726592834746"><ele>259.0</ele><time>2026-04-18T13:39:04Z</time></trkpt><trkpt lat="44.7674060577268" lon="9.38963334236315"><ele>259.0</ele><time>2026-04-18T13:39:07Z</time></trkpt><trkpt lat="44.7675117807291" lon="9.389595199757581"><ele>259.0</ele><time>2026-04-18T13:39:30Z</time></trkpt><trkpt lat="44.767586768321046" lon="9.389626056409133"><ele>259.0</ele><time>2026-04-18T13:39:31Z</time></trkpt><trkpt lat="44.767660501212376" lon="9.389596274575252"><ele>259.0</ele><time>2026-04-18T13:39:32Z</time></trkpt><trkpt lat="44.76772606532443" lon="9.389555424441768"><ele>259.0</ele><time>2026-04-18T13:39:33Z</time></trkpt><trkpt lat="44.767790859255136" lon="9.389508337964296"><ele>259.0</ele><time>2026-04-18T13:39:34Z</time></trkpt><trkpt lat="44.767872276856785" lon="9.389441567624129"><ele>259.16666666666663</ele><time>2026-04-18T13:39:35Z</time></trkpt><trkpt lat="44.767931751467124" lon="9.38939242183826"><ele>259.3333333333333</ele><time>2026-04-18T13:39:36Z</time></trkpt><trkpt lat="44.767985471876294" lon="9.389345120136563"><ele>259.5</ele><time>2026-04-18T13:39:37Z</time></trkpt><trkpt lat="44.768044837843725" lon="9.389288216861301"><ele>259.6666666666667</ele><time>2026-04-18T13:39:38Z</time></trkpt><trkpt lat="44.76811105550147" lon="9.38922532933732"><ele>259.83333333333337</ele><time>2026-04-18T13:39:39Z</time></trkpt><trkpt lat="44.76821445406176" lon="9.389133423022688"><ele>260.0</ele><time>2026-04-18T13:39:41Z</time></trkpt><trkpt lat="44.76827725369266" lon="9.389078333054925"><ele>260.0</ele><time>2026-04-18T13:39:42Z</time></trkpt><trkpt lat="44.76834009966556" lon="9.389025269032295"><ele>260.0</ele><time>2026-04-18T13:39:43Z</time></trkpt><trkpt lat="44.768407738905395" lon="9.388976065542286"><ele>260.0</ele><time>2026-04-18T13:39:44Z</time></trkpt><trkpt lat="44.76848555083087" lon="9.388933133744663"><ele>260.0</ele><time>2026-04-18T13:39:45Z</time></trkpt><trkpt lat="44.768561805627144" lon="9.388904191993078"><ele>260.0</ele><time>2026-04-18T13:39:46Z</time></trkpt><trkpt lat="44.76865546995391" lon="9.388887503393224"><ele>260.0</ele><time>2026-04-18T13:39:47Z</time></trkpt><trkpt lat="44.76875538954961" lon="9.388874998358167"><ele>260.1666666666667</ele><time>2026-04-18T13:39:48Z</time></trkpt><trkpt lat="44.76885392614124" lon="9.388864907011994"><ele>260.33333333333337</ele><time>2026-04-18T13:39:49Z</time></trkpt><trkpt lat="44.76893424551978" lon="9.388858793172174"><ele>260.5</ele><time>2026-04-18T13:39:50Z</time></trkpt><trkpt lat="44.769012600579615" lon="9.388839140025798"><ele>260.6666666666667</ele><time>2026-04-18T13:39:51Z</time></trkpt><trkpt lat="44.76909898778174" lon="9.388833793276621"><ele>260.8333333333333</ele><time>2026-04-18T13:39:52Z</time></trkpt><trkpt lat="44.76918279068801" lon="9.388818277956116"><ele>261.0</ele><time>2026-04-18T13:39:53Z</time></trkpt><trkpt lat="44.76927945550771" lon="9.38876019832683"><ele>261.75</ele><time>2026-04-18T13:39:55Z</time></trkpt><trkpt lat="44.76930700335508" lon="9.38861009602139"><ele>262.5</ele><time>2026-04-18T13:39:57Z</time></trkpt><trkpt lat="44.76931039157138" lon="9.388498846422413"><ele>263.25</ele><time>2026-04-18T13:40:00Z</time></trkpt><trkpt lat="44.76914557765029" lon="9.38843171524551"><ele>264.0</ele><time>2026-04-18T13:40:04Z</time></trkpt><trkpt lat="44.769018291515216" lon="9.388472326551764"><ele>264.0</ele><time>2026-04-18T13:40:05Z</time></trkpt><trkpt lat="44.76891170448965" lon="9.388502243564089"><ele>264.0</ele><time>2026-04-18T13:40:06Z</time></trkpt><trkpt lat="44.76881462212833" lon="9.388526476734954"><ele>264.0</ele><time>2026-04-18T13:40:07Z</time></trkpt><trkpt lat="44.76872761991744" lon="9.388548531142929"><ele>264.0</ele><time>2026-04-18T13:40:08Z</time></trkpt><trkpt lat="44.76864082873151" lon="9.388574875586585"><ele>264.0</ele><time>2026-04-18T13:40:09Z</time></trkpt><trkpt lat="44.76854915648907" lon="9.38860255159443"><ele>263.59999999999997</ele><time>2026-04-18T13:40:10Z</time></trkpt><trkpt lat="44.768454922550426" lon="9.388631652013597"><ele>263.2</ele><time>2026-04-18T13:40:11Z</time></trkpt><trkpt lat="44.76835726031859" lon="9.388662435959397"><ele>262.79999999999995</ele><time>2026-04-18T13:40:12Z</time></trkpt><trkpt lat="44.768266750393806" lon="9.388690157929965"><ele>262.4</ele><time>2026-04-18T13:40:13Z</time></trkpt><trkpt lat="44.76818335682591" lon="9.388714381244448"><ele>262.0</ele><time>2026-04-18T13:40:14Z</time></trkpt><trkpt lat="44.76810337897843" lon="9.388736792163744"><ele>262.0</ele><time>2026-04-18T13:40:15Z</time></trkpt><trkpt lat="44.768037713871415" lon="9.388754265884799"><ele>262.0</ele><time>2026-04-18T13:40:16Z</time></trkpt><trkpt lat="44.767928985004666" lon="9.388785581696697"><ele>262.0</ele><time>2026-04-18T13:40:18Z</time></trkpt><trkpt lat="44.76783815523182" lon="9.38881469231014"><ele>262.0</ele><time>2026-04-18T13:40:20Z</time></trkpt><trkpt lat="44.767771045271125" lon="9.388837995660218"><ele>262.0</ele><time>2026-04-18T13:40:22Z</time></trkpt><trkpt lat="44.767694573877286" lon="9.388864969505885"><ele>262.0</ele><time>2026-04-18T13:40:25Z</time></trkpt><trkpt lat="44.76757856356753" lon="9.38887783539881"><ele>261.4</ele><time>2026-04-18T13:43:46Z</time></trkpt><trkpt lat="44.7674816142459" lon="9.38890607466813"><ele>260.79999999999995</ele><time>2026-04-18T13:43:47Z</time></trkpt><trkpt lat="44.76738087207962" lon="9.388935553693077"><ele>260.2</ele><time>2026-04-18T13:43:48Z</time></trkpt><trkpt lat="44.76729241190851" lon="9.388961172499359"><ele>259.59999999999997</ele><time>2026-04-18T13:43:49Z</time></trkpt><trkpt lat="44.7671966135953" lon="9.388989339875968"><ele>259.0</ele><time>2026-04-18T13:43:50Z</time></trkpt><trkpt lat="44.76709037855468" lon="9.389022285427236"><ele>259.0</ele><time>2026-04-18T13:43:51Z</time></trkpt><trkpt lat="44.76698354666959" lon="9.38905217602006"><ele>259.0</ele><time>2026-04-18T13:43:52Z</time></trkpt><trkpt lat="44.76684907180736" lon="9.389090379276405"><ele>259.0</ele><time>2026-04-18T13:43:53Z</time></trkpt><trkpt lat="44.76670121173948" lon="9.389130744462175"><ele>259.0</ele><time>2026-04-18T13:43:54Z</time></trkpt><trkpt lat="44.76654896687922" lon="9.389165903603113"><ele>259.0</ele><time>2026-04-18T13:43:55Z</time></trkpt><trkpt lat="44.7664200849845" lon="9.389175703606622"><ele>259.0</ele><time>2026-04-18T13:43:56Z</time></trkpt><trkpt lat="44.76627760259213" lon="9.389162748613186"><ele>259.0</ele><time>2026-04-18T13:43:57Z</time></trkpt><trkpt lat="44.76613072418179" lon="9.389130389301695"><ele>259.0</ele><time>2026-04-18T13:43:58Z</time></trkpt><trkpt lat="44.76598287945571" lon="9.389079132775809"><ele>258.3333333333333</ele><time>2026-04-18T13:43:59Z</time></trkpt><trkpt lat="44.76583798145782" lon="9.3889945152896"><ele>257.6666666666667</ele><time>2026-04-18T13:44:00Z</time></trkpt><trkpt lat="44.76567077639348" lon="9.388862744592867"><ele>257.0</ele><time>2026-04-18T13:44:01Z</time></trkpt><trkpt lat="44.76551722159335" lon="9.388695703053004"><ele>257.0</ele><time>2026-04-18T13:44:02Z</time></trkpt><trkpt lat="44.76545581130114" lon="9.388605311315372"><ele>257.0</ele><time>2026-04-18T13:44:03Z</time></trkpt><trkpt lat="44.765345753345365" lon="9.388420036894855"><ele>257.0</ele><time>2026-04-18T13:44:04Z</time></trkpt><trkpt lat="44.765242253752305" lon="9.388221246461553"><ele>257.0</ele><time>2026-04-18T13:44:05Z</time></trkpt><trkpt lat="44.76513680037412" lon="9.388007506391087"><ele>257.0</ele><time>2026-04-18T13:44:06Z</time></trkpt><trkpt lat="44.76501880153756" lon="9.387762097817353"><ele>257.0</ele><time>2026-04-18T13:44:07Z</time></trkpt><trkpt lat="44.7648907528335" lon="9.387497262016128"><ele>257.0</ele><time>2026-04-18T13:44:08Z</time></trkpt><trkpt lat="44.76476493114855" lon="9.387241394441615"><ele>259.0</ele><time>2026-04-18T13:44:09Z</time></trkpt><trkpt lat="44.76466678963345" lon="9.387042376737835"><ele>261.0</ele><time>2026-04-18T13:44:10Z</time></trkpt><trkpt lat="44.764577423898736" lon="9.386859868573204"><ele>263.0</ele><time>2026-04-18T13:44:11Z</time></trkpt><trkpt lat="44.764492512160984" lon="9.38668645564061"><ele>263.0</ele><time>2026-04-18T13:44:12Z</time></trkpt><trkpt lat="44.76439580906517" lon="9.386487494703378"><ele>263.0</ele><time>2026-04-18T13:44:13Z</time></trkpt><trkpt lat="44.7642982283207" lon="9.386285868734022"><ele>263.0</ele><time>2026-04-18T13:44:14Z</time></trkpt><trkpt lat="44.764182893939676" lon="9.386085186660349"><ele>264.0</ele><time>2026-04-18T13:44:15Z</time></trkpt><trkpt lat="44.764078710869015" lon="9.38586339260693"><ele>265.0</ele><time>2026-04-18T13:44:16Z</time></trkpt><trkpt lat="44.76396262446195" lon="9.385641247906587"><ele>266.0</ele><time>2026-04-18T13:44:17Z</time></trkpt><trkpt lat="44.763842679295706" lon="9.385415667972357"><ele>271.0</ele><time>2026-04-18T13:44:18Z</time></trkpt><trkpt lat="44.76374270695049" lon="9.385211946484846"><ele>276.0</ele><time>2026-04-18T13:44:19Z</time></trkpt><trkpt lat="44.763647267533685" lon="9.385005415216154"><ele>281.0</ele><time>2026-04-18T13:44:20Z</time></trkpt><trkpt lat="44.76353951311308" lon="9.38477359876812"><ele>276.6666666666667</ele><time>2026-04-18T13:44:21Z</time></trkpt><trkpt lat="44.7634170744719" lon="9.384519432497589"><ele>272.3333333333333</ele><time>2026-04-18T13:44:22Z</time></trkpt><trkpt lat="44.76330566979779" lon="9.384242468761988"><ele>268.0</ele><time>2026-04-18T13:44:23Z</time></trkpt><trkpt lat="44.763179231971236" lon="9.384021238218414"><ele>270.66666666666663</ele><time>2026-04-18T13:44:24Z</time></trkpt><trkpt lat="44.76306465181147" lon="9.383811689015124"><ele>273.3333333333333</ele><time>2026-04-18T13:44:25Z</time></trkpt><trkpt lat="44.76292335599222" lon="9.383625981688608"><ele>276.0</ele><time>2026-04-18T13:44:26Z</time></trkpt><trkpt lat="44.76276501880403" lon="9.383448155072236"><ele>272.6666666666667</ele><time>2026-04-18T13:44:27Z</time></trkpt><trkpt lat="44.76258594314126" lon="9.383290333337284"><ele>269.33333333333337</ele><time>2026-04-18T13:44:28Z</time></trkpt><trkpt lat="44.76239439051141" lon="9.383149463178915"><ele>266.0</ele><time>2026-04-18T13:44:29Z</time></trkpt><trkpt lat="44.76218074326136" lon="9.382995944829526"><ele>266.0</ele><time>2026-04-18T13:44:30Z</time></trkpt><trkpt lat="44.7619756159316" lon="9.382892375635898"><ele>266.0</ele><time>2026-04-18T13:44:31Z</time></trkpt><trkpt lat="44.76179646107139" lon="9.38276609096012"><ele>266.0</ele><time>2026-04-18T13:44:32Z</time></trkpt><trkpt lat="44.761613096294305" lon="9.382640916578348"><ele>265.0</ele><time>2026-04-18T13:44:33Z</time></trkpt><trkpt lat="44.761427105728444" lon="9.382511101693195"><ele>264.0</ele><time>2026-04-18T13:44:34Z</time></trkpt><trkpt lat="44.76125562118923" lon="9.382361619155454"><ele>263.0</ele><time>2026-04-18T13:44:35Z</time></trkpt><trkpt lat="44.76109696799567" lon="9.382252642227119"><ele>264.6666666666667</ele><time>2026-04-18T13:44:36Z</time></trkpt><trkpt lat="44.760938150794104" lon="9.382143742103198"><ele>266.3333333333333</ele><time>2026-04-18T13:44:37Z</time></trkpt><trkpt lat="44.76077346230767" lon="9.382030816106672"><ele>268.0</ele><time>2026-04-18T13:44:38Z</time></trkpt><trkpt lat="44.76059896941362" lon="9.38191403634501"><ele>268.0</ele><time>2026-04-18T13:44:39Z</time></trkpt><trkpt lat="44.760414411149796" lon="9.381819145760396"><ele>268.0</ele><time>2026-04-18T13:44:40Z</time></trkpt><trkpt lat="44.7602252637875" lon="9.381727632159762"><ele>268.0</ele><time>2026-04-18T13:44:41Z</time></trkpt><trkpt lat="44.76005548719011" lon="9.381541950472133"><ele>267.3333333333333</ele><time>2026-04-18T13:44:42Z</time></trkpt><trkpt lat="44.75982735627282" lon="9.381628871217828"><ele>266.6666666666667</ele><time>2026-04-18T13:44:43Z</time></trkpt><trkpt lat="44.75963972403975" lon="9.381623633811609"><ele>266.0</ele><time>2026-04-18T13:44:44Z</time></trkpt><trkpt lat="44.75945927574752" lon="9.381649188368774"><ele>266.0</ele><time>2026-04-18T13:44:45Z</time></trkpt><trkpt lat="44.75928006490736" lon="9.38168699933534"><ele>266.0</ele><time>2026-04-18T13:44:46Z</time></trkpt><trkpt lat="44.75909552535014" lon="9.381725934419832"><ele>266.0</ele><time>2026-04-18T13:44:47Z</time></trkpt><trkpt lat="44.75891558360568" lon="9.381755946484244"><ele>266.0</ele><time>2026-04-18T13:44:48Z</time></trkpt><trkpt lat="44.758739328623015" lon="9.381784740095972"><ele>266.0</ele><time>2026-04-18T13:44:49Z</time></trkpt><trkpt lat="44.75856600903166" lon="9.381815689545562"><ele>266.0</ele><time>2026-04-18T13:44:50Z</time></trkpt><trkpt lat="44.758395295793214" lon="9.381848525142985"><ele>266.33333333333337</ele><time>2026-04-18T13:44:51Z</time></trkpt><trkpt lat="44.758231646210604" lon="9.381878440563593"><ele>266.6666666666667</ele><time>2026-04-18T13:44:52Z</time></trkpt><trkpt lat="44.758067351595294" lon="9.381904741202852"><ele>267.0</ele><time>2026-04-18T13:44:53Z</time></trkpt><trkpt lat="44.75789162861826" lon="9.381936825352039"><ele>267.0</ele><time>2026-04-18T13:44:54Z</time></trkpt><trkpt lat="44.75770629651389" lon="9.381959913076788"><ele>267.0</ele><time>2026-04-18T13:44:55Z</time></trkpt><trkpt lat="44.7575107011141" lon="9.381998227417666"><ele>267.0</ele><time>2026-04-18T13:44:56Z</time></trkpt><trkpt lat="44.75733623712981" lon="9.382025721104569"><ele>267.6666666666667</ele><time>2026-04-18T13:44:57Z</time></trkpt><trkpt lat="44.757180824737546" lon="9.382049585803438"><ele>268.33333333333337</ele><time>2026-04-18T13:44:58Z</time></trkpt><trkpt lat="44.75702938714334" lon="9.382073688887271"><ele>269.0</ele><time>2026-04-18T13:44:59Z</time></trkpt><trkpt lat="44.75686444954039" lon="9.382087915248757"><ele>269.6666666666667</ele><time>2026-04-18T13:45:00Z</time></trkpt><trkpt lat="44.75668791041622" lon="9.382087087091524"><ele>270.3333333333333</ele><time>2026-04-18T13:45:01Z</time></trkpt><trkpt lat="44.75650429068945" lon="9.382032315568038"><ele>271.0</ele><time>2026-04-18T13:45:02Z</time></trkpt><trkpt lat="44.75634368190555" lon="9.381972075671188"><ele>271.0</ele><time>2026-04-18T13:45:03Z</time></trkpt><trkpt lat="44.756176990135565" lon="9.381894860718443"><ele>271.0</ele><time>2026-04-18T13:45:04Z</time></trkpt><trkpt lat="44.756012298290706" lon="9.381784519505514"><ele>271.0</ele><time>2026-04-18T13:45:05Z</time></trkpt><trkpt lat="44.7558569708244" lon="9.38165132153537"><ele>270.66666666666663</ele><time>2026-04-18T13:45:06Z</time></trkpt><trkpt lat="44.755717105944626" lon="9.381527348982832"><ele>270.3333333333333</ele><time>2026-04-18T13:45:07Z</time></trkpt><trkpt lat="44.75558080597978" lon="9.381429168807013"><ele>270.0</ele><time>2026-04-18T13:45:08Z</time></trkpt><trkpt lat="44.75544637724912" lon="9.38130085595769"><ele>270.3333333333333</ele><time>2026-04-18T13:45:09Z</time></trkpt><trkpt lat="44.75530502060576" lon="9.381172022851665"><ele>270.66666666666663</ele><time>2026-04-18T13:45:10Z</time></trkpt><trkpt lat="44.755158476786285" lon="9.381035643554394"><ele>271.0</ele><time>2026-04-18T13:45:11Z</time></trkpt><trkpt lat="44.75500870264961" lon="9.380894452737792"><ele>271.0</ele><time>2026-04-18T13:45:12Z</time></trkpt><trkpt lat="44.75484978543124" lon="9.380745949791157"><ele>271.0</ele><time>2026-04-18T13:45:13Z</time></trkpt><trkpt lat="44.75468442047263" lon="9.380595024445208"><ele>271.0</ele><time>2026-04-18T13:45:14Z</time></trkpt><trkpt lat="44.7545239440088" lon="9.38045034834527"><ele>271.0</ele><time>2026-04-18T13:45:15Z</time></trkpt><trkpt lat="44.754383613113966" lon="9.380324755385006"><ele>271.0</ele><time>2026-04-18T13:45:16Z</time></trkpt><trkpt lat="44.75425549040399" lon="9.380211264966228"><ele>271.0</ele><time>2026-04-18T13:45:17Z</time></trkpt><trkpt lat="44.7541233529368" lon="9.380112887509839"><ele>271.0</ele><time>2026-04-18T13:45:18Z</time></trkpt><trkpt lat="44.75397365000628" lon="9.380016000830345"><ele>271.0</ele><time>2026-04-18T13:45:19Z</time></trkpt><trkpt lat="44.753806715763744" lon="9.379934546895681"><ele>271.0</ele><time>2026-04-18T13:45:20Z</time></trkpt><trkpt lat="44.75362806905278" lon="9.379888171402387"><ele>268.66666666666663</ele><time>2026-04-18T13:45:21Z</time></trkpt><trkpt lat="44.75344424200467" lon="9.379867558356429"><ele>266.3333333333333</ele><time>2026-04-18T13:45:22Z</time></trkpt><trkpt lat="44.753249748567534" lon="9.379862693056099"><ele>264.0</ele><time>2026-04-18T13:45:23Z</time></trkpt><trkpt lat="44.753053551492606" lon="9.37985958665714"><ele>264.0</ele><time>2026-04-18T13:45:24Z</time></trkpt><trkpt lat="44.75286135134802" lon="9.379843043483733"><ele>264.0</ele><time>2026-04-18T13:45:25Z</time></trkpt><trkpt lat="44.75267802547798" lon="9.379825404589356"><ele>264.0</ele><time>2026-04-18T13:45:26Z</time></trkpt><trkpt lat="44.75249556111951" lon="9.379811696926595"><ele>264.3333333333333</ele><time>2026-04-18T13:45:27Z</time></trkpt><trkpt lat="44.7523035502427" lon="9.379794745445743"><ele>264.66666666666663</ele><time>2026-04-18T13:45:28Z</time></trkpt><trkpt lat="44.752097217467806" lon="9.379775150874448"><ele>265.0</ele><time>2026-04-18T13:45:29Z</time></trkpt><trkpt lat="44.75187258788632" lon="9.379754330346554"><ele>265.0</ele><time>2026-04-18T13:45:30Z</time></trkpt><trkpt lat="44.751652223303516" lon="9.37973420948304"><ele>265.0</ele><time>2026-04-18T13:45:31Z</time></trkpt><trkpt lat="44.75145988802551" lon="9.37971868567089"><ele>265.0</ele><time>2026-04-18T13:45:32Z</time></trkpt><trkpt lat="44.75127989874847" lon="9.379700735484725"><ele>264.66666666666663</ele><time>2026-04-18T13:45:33Z</time></trkpt><trkpt lat="44.751093781988594" lon="9.379682816988234"><ele>264.3333333333333</ele><time>2026-04-18T13:45:34Z</time></trkpt><trkpt lat="44.75090220999141" lon="9.379666879180522"><ele>264.0</ele><time>2026-04-18T13:45:35Z</time></trkpt><trkpt lat="44.75071207600119" lon="9.379651739706107"><ele>265.0</ele><time>2026-04-18T13:45:36Z</time></trkpt><trkpt lat="44.75053847299847" lon="9.379637618731401"><ele>266.0</ele><time>2026-04-18T13:45:37Z</time></trkpt><trkpt lat="44.75037393841066" lon="9.379627205647298"><ele>267.0</ele><time>2026-04-18T13:45:38Z</time></trkpt><trkpt lat="44.75020210698832" lon="9.379638301370662"><ele>267.0</ele><time>2026-04-18T13:45:39Z</time></trkpt><trkpt lat="44.75002843965503" lon="9.379682609712514"><ele>267.0</ele><time>2026-04-18T13:45:40Z</time></trkpt><trkpt lat="44.74987005677324" lon="9.379758004206492"><ele>267.0</ele><time>2026-04-18T13:45:41Z</time></trkpt><trkpt lat="44.74970712155605" lon="9.379848217711341"><ele>268.0</ele><time>2026-04-18T13:45:42Z</time></trkpt><trkpt lat="44.749542492076685" lon="9.379967599840661"><ele>269.0</ele><time>2026-04-18T13:45:43Z</time></trkpt><trkpt lat="44.74937645993235" lon="9.380130050355378"><ele>270.0</ele><time>2026-04-18T13:45:44Z</time></trkpt><trkpt lat="44.74921932481414" lon="9.380316299743665"><ele>272.0</ele><time>2026-04-18T13:45:45Z</time></trkpt><trkpt lat="44.749084778664965" lon="9.380512371428853"><ele>274.0</ele><time>2026-04-18T13:45:46Z</time></trkpt><trkpt lat="44.74899333883403" lon="9.380712909618955"><ele>276.0</ele><time>2026-04-18T13:45:47Z</time></trkpt><trkpt lat="44.74891004190727" lon="9.380925491568709"><ele>279.0</ele><time>2026-04-18T13:45:48Z</time></trkpt><trkpt lat="44.7488328470828" lon="9.381155847388953"><ele>282.0</ele><time>2026-04-18T13:45:49Z</time></trkpt><trkpt lat="44.74877939278988" lon="9.381398248740052"><ele>285.0</ele><time>2026-04-18T13:45:50Z</time></trkpt><trkpt lat="44.74874226651657" lon="9.381661349728674"><ele>289.6666666666667</ele><time>2026-04-18T13:45:51Z</time></trkpt><trkpt lat="44.748718888834425" lon="9.381917134664333"><ele>294.33333333333337</ele><time>2026-04-18T13:45:52Z</time></trkpt><trkpt lat="44.748720057807034" lon="9.38213934346168"><ele>299.0</ele><time>2026-04-18T13:45:53Z</time></trkpt><trkpt lat="44.7487332724855" lon="9.382391299450667"><ele>301.33333333333337</ele><time>2026-04-18T13:45:54Z</time></trkpt><trkpt lat="44.74876890518656" lon="9.382666590496786"><ele>303.6666666666667</ele><time>2026-04-18T13:45:55Z</time></trkpt><trkpt lat="44.748817010379646" lon="9.38293181496893"><ele>306.0</ele><time>2026-04-18T13:45:56Z</time></trkpt><trkpt lat="44.74886563184761" lon="9.383166796172663"><ele>306.3333333333333</ele><time>2026-04-18T13:45:57Z</time></trkpt><trkpt lat="44.74891088535378" lon="9.383413266023304"><ele>306.66666666666663</ele><time>2026-04-18T13:45:58Z</time></trkpt><trkpt lat="44.74894464770211" lon="9.383667327943883"><ele>307.0</ele><time>2026-04-18T13:45:59Z</time></trkpt><trkpt lat="44.74896716885567" lon="9.38393804542763"><ele>307.66666666666663</ele><time>2026-04-18T13:46:00Z</time></trkpt><trkpt lat="44.74897238277206" lon="9.384211075092125"><ele>308.3333333333333</ele><time>2026-04-18T13:46:01Z</time></trkpt><trkpt lat="44.74897019175853" lon="9.384461059117994"><ele>309.0</ele><time>2026-04-18T13:46:02Z</time></trkpt><trkpt lat="44.748966255352514" lon="9.384702990282053"><ele>309.0</ele><time>2026-04-18T13:46:03Z</time></trkpt><trkpt lat="44.74896484937845" lon="9.384955517196667"><ele>309.0</ele><time>2026-04-18T13:46:04Z</time></trkpt><trkpt lat="44.74897094872986" lon="9.385213369853036"><ele>309.0</ele><time>2026-04-18T13:46:05Z</time></trkpt><trkpt lat="44.748975218415026" lon="9.385457230519611"><ele>311.6666666666667</ele><time>2026-04-18T13:46:06Z</time></trkpt><trkpt lat="44.74897960691417" lon="9.38571428754771"><ele>314.33333333333337</ele><time>2026-04-18T13:46:07Z</time></trkpt><trkpt lat="44.74896412383802" lon="9.385983044778213"><ele>317.0</ele><time>2026-04-18T13:46:08Z</time></trkpt><trkpt lat="44.74894989895" lon="9.386252298651742"><ele>321.6666666666667</ele><time>2026-04-18T13:46:09Z</time></trkpt><trkpt lat="44.74893918372442" lon="9.386504431355734"><ele>326.3333333333333</ele><time>2026-04-18T13:46:10Z</time></trkpt><trkpt lat="44.748898922444994" lon="9.386750981554405"><ele>331.0</ele><time>2026-04-18T13:46:11Z</time></trkpt><trkpt lat="44.74885344944944" lon="9.387004062317947"><ele>336.3333333333333</ele><time>2026-04-18T13:46:12Z</time></trkpt><trkpt lat="44.74879084868577" lon="9.387262260592184"><ele>341.6666666666667</ele><time>2026-04-18T13:46:13Z</time></trkpt><trkpt lat="44.748720484889596" lon="9.387508787150178"><ele>347.0</ele><time>2026-04-18T13:46:14Z</time></trkpt><trkpt lat="44.74864269681412" lon="9.387740752448202"><ele>347.0</ele><time>2026-04-18T13:46:15Z</time></trkpt><trkpt lat="44.74854949885584" lon="9.387976079217854"><ele>347.0</ele><time>2026-04-18T13:46:16Z</time></trkpt><trkpt lat="44.748445892355385" lon="9.388215762416179"><ele>347.0</ele><time>2026-04-18T13:46:17Z</time></trkpt><trkpt lat="44.74834619167588" lon="9.38843511418287"><ele>343.6666666666667</ele><time>2026-04-18T13:46:18Z</time></trkpt><trkpt lat="44.74825403268251" lon="9.388647546243293"><ele>340.3333333333333</ele><time>2026-04-18T13:46:19Z</time></trkpt><trkpt lat="44.74815885524557" lon="9.388867557226702"><ele>337.0</ele><time>2026-04-18T13:46:20Z</time></trkpt><trkpt lat="44.74804791523977" lon="9.389078522614165"><ele>337.0</ele><time>2026-04-18T13:46:21Z</time></trkpt><trkpt lat="44.74794422788309" lon="9.389258766822444"><ele>337.0</ele><time>2026-04-18T13:46:22Z</time></trkpt><trkpt lat="44.747826405908796" lon="9.389429913107783"><ele>337.0</ele><time>2026-04-18T13:46:23Z</time></trkpt><trkpt lat="44.747686004257964" lon="9.389599981174593"><ele>332.66666666666663</ele><time>2026-04-18T13:46:24Z</time></trkpt><trkpt lat="44.74754786101695" lon="9.38976096302246"><ele>328.3333333333333</ele><time>2026-04-18T13:46:25Z</time></trkpt><trkpt lat="44.74740138432549" lon="9.38986971356851"><ele>324.0</ele><time>2026-04-18T13:46:26Z</time></trkpt><trkpt lat="44.7472461824188" lon="9.389946746963357"><ele>324.0</ele><time>2026-04-18T13:46:27Z</time></trkpt><trkpt lat="44.74707743805991" lon="9.390027214246391"><ele>324.0</ele><time>2026-04-18T13:46:28Z</time></trkpt><trkpt lat="44.746892072678776" lon="9.390087517528839"><ele>324.0</ele><time>2026-04-18T13:46:29Z</time></trkpt><trkpt lat="44.74670059042186" lon="9.39011400151685"><ele>318.0</ele><time>2026-04-18T13:46:30Z</time></trkpt><trkpt lat="44.7465206902671" lon="9.390116287881945"><ele>312.0</ele><time>2026-04-18T13:46:31Z</time></trkpt><trkpt lat="44.746338336379786" lon="9.390087312751065"><ele>306.0</ele><time>2026-04-18T13:46:32Z</time></trkpt><trkpt lat="44.74614920214632" lon="9.39003566138324"><ele>311.3333333333333</ele><time>2026-04-18T13:46:33Z</time></trkpt><trkpt lat="44.745977413499375" lon="9.389971491332883"><ele>316.66666666666663</ele><time>2026-04-18T13:46:34Z</time></trkpt><trkpt lat="44.74582003208076" lon="9.389916689140955"><ele>322.0</ele><time>2026-04-18T13:46:35Z</time></trkpt><trkpt lat="44.745648862210295" lon="9.389819672149988"><ele>322.0</ele><time>2026-04-18T13:46:36Z</time></trkpt><trkpt lat="44.745475980114996" lon="9.389688430964913"><ele>322.0</ele><time>2026-04-18T13:46:37Z</time></trkpt><trkpt lat="44.74531844636638" lon="9.389570400203851"><ele>322.0</ele><time>2026-04-18T13:46:38Z</time></trkpt><trkpt lat="44.74516146431284" lon="9.38946721454511"><ele>319.3333333333333</ele><time>2026-04-18T13:46:39Z</time></trkpt><trkpt lat="44.74500472759058" lon="9.38933857062546"><ele>316.6666666666667</ele><time>2026-04-18T13:46:40Z</time></trkpt><trkpt lat="44.744839345468435" lon="9.389221882431556"><ele>314.0</ele><time>2026-04-18T13:46:41Z</time></trkpt><trkpt lat="44.74467294424868" lon="9.389116397337782"><ele>314.0</ele><time>2026-04-18T13:46:42Z</time></trkpt><trkpt lat="44.744500943877625" lon="9.389037344834671"><ele>314.0</ele><time>2026-04-18T13:46:43Z</time></trkpt><trkpt lat="44.74433510709155" lon="9.388989815247198"><ele>314.0</ele><time>2026-04-18T13:46:44Z</time></trkpt><trkpt lat="44.74418398420955" lon="9.38896864217441"><ele>319.33333333333337</ele><time>2026-04-18T13:46:45Z</time></trkpt><trkpt lat="44.74402616599996" lon="9.388960778018387"><ele>324.6666666666667</ele><time>2026-04-18T13:46:46Z</time></trkpt><trkpt lat="44.74384497112076" lon="9.388965315958435"><ele>330.0</ele><time>2026-04-18T13:46:47Z</time></trkpt><trkpt lat="44.74366874004037" lon="9.388985575979815"><ele>334.25</ele><time>2026-04-18T13:46:48Z</time></trkpt><trkpt lat="44.74349123123002" lon="9.389013659402941"><ele>338.5</ele><time>2026-04-18T13:46:49Z</time></trkpt><trkpt lat="44.74335130592386" lon="9.388986810970717"><ele>342.75</ele><time>2026-04-18T13:46:50Z</time></trkpt><trkpt lat="44.74323980562234" lon="9.388961261617125"><ele>347.0</ele><time>2026-04-18T13:46:51Z</time></trkpt><trkpt lat="44.743142511492614" lon="9.388940107436772"><ele>347.0</ele><time>2026-04-18T13:46:52Z</time></trkpt><trkpt lat="44.74305538770452" lon="9.388890411430477"><ele>347.0</ele><time>2026-04-18T13:46:53Z</time></trkpt><trkpt lat="44.74296924809705" lon="9.388840564246317"><ele>347.0</ele><time>2026-04-18T13:46:54Z</time></trkpt><trkpt lat="44.74289806599076" lon="9.388788437560835"><ele>347.0</ele><time>2026-04-18T13:46:55Z</time></trkpt><trkpt lat="44.74283432408283" lon="9.388750459699738"><ele>347.0</ele><time>2026-04-18T13:46:56Z</time></trkpt><trkpt lat="44.742767932250246" lon="9.388716155395704"><ele>347.0</ele><time>2026-04-18T13:46:58Z</time></trkpt><trkpt lat="44.74269960321773" lon="9.38866338061678"><ele>344.20000000000005</ele><time>2026-04-18T13:49:20Z</time></trkpt><trkpt lat="44.74260049295801" lon="9.388627259906112"><ele>341.4</ele><time>2026-04-18T13:49:22Z</time></trkpt><trkpt lat="44.74250729998577" lon="9.388571861436363"><ele>338.6</ele><time>2026-04-18T13:49:23Z</time></trkpt><trkpt lat="44.742408722384994" lon="9.388507337117668"><ele>335.79999999999995</ele><time>2026-04-18T13:49:24Z</time></trkpt><trkpt lat="44.74228837581354" lon="9.388429600964784"><ele>333.0</ele><time>2026-04-18T13:49:25Z</time></trkpt><trkpt lat="44.7421692734236" lon="9.388358894937921"><ele>333.0</ele><time>2026-04-18T13:49:26.001Z</time></trkpt><trkpt lat="44.742046356474766" lon="9.388291057597884"><ele>333.0</ele><time>2026-04-18T13:49:27.001Z</time></trkpt><trkpt lat="44.74191239001428" lon="9.388215527231601"><ele>333.0</ele><time>2026-04-18T13:49:28.016Z</time></trkpt><trkpt lat="44.7417644097102" lon="9.388118119345272"><ele>333.0</ele><time>2026-04-18T13:49:29.016Z</time></trkpt><trkpt lat="44.7416022412451" lon="9.388021958585005"><ele>344.5</ele><time>2026-04-18T13:49:30.016Z</time></trkpt><trkpt lat="44.741431850402535" lon="9.387922006341604"><ele>356.0</ele><time>2026-04-18T13:49:31.019Z</time></trkpt><trkpt lat="44.74033945244247" lon="9.387278091171185"><ele>342.6666666666667</ele><time>2026-04-18T13:49:37Z</time></trkpt><trkpt lat="44.74016918930718" lon="9.387195907070815"><ele>329.3333333333333</ele><time>2026-04-18T13:49:38Z</time></trkpt><trkpt lat="44.739952607610796" lon="9.387172018803923"><ele>316.0</ele><time>2026-04-18T13:49:39Z</time></trkpt><trkpt lat="44.73977387083199" lon="9.387178647060372"><ele>316.0</ele><time>2026-04-18T13:49:40Z</time></trkpt><trkpt lat="44.739582581194604" lon="9.38721494086116"><ele>316.0</ele><time>2026-04-18T13:49:41Z</time></trkpt><trkpt lat="44.73940354811523" lon="9.387280877898919"><ele>316.0</ele><time>2026-04-18T13:49:42Z</time></trkpt><trkpt lat="44.73921403785475" lon="9.387359146617733"><ele>320.0</ele><time>2026-04-18T13:49:43Z</time></trkpt><trkpt lat="44.739059232711796" lon="9.387457561408489"><ele>324.0</ele><time>2026-04-18T13:49:44Z</time></trkpt><trkpt lat="44.73891950459318" lon="9.387579023430648"><ele>328.0</ele><time>2026-04-18T13:49:45Z</time></trkpt><trkpt lat="44.73878573949634" lon="9.387733554099963"><ele>328.0</ele><time>2026-04-18T13:49:46Z</time></trkpt><trkpt lat="44.73865034301472" lon="9.387910609549396"><ele>328.0</ele><time>2026-04-18T13:49:47Z</time></trkpt><trkpt lat="44.738519268210666" lon="9.38809883097746"><ele>328.0</ele><time>2026-04-18T13:49:48Z</time></trkpt><trkpt lat="44.73836581002712" lon="9.388265138939829"><ele>327.3333333333333</ele><time>2026-04-18T13:49:49Z</time></trkpt><trkpt lat="44.73821868226362" lon="9.388444310032682"><ele>326.6666666666667</ele><time>2026-04-18T13:49:50Z</time></trkpt><trkpt lat="44.73806153081241" lon="9.38862750209485"><ele>326.0</ele><time>2026-04-18T13:49:51Z</time></trkpt><trkpt lat="44.73789318526501" lon="9.388810071476579"><ele>328.33333333333337</ele><time>2026-04-18T13:49:52Z</time></trkpt><trkpt lat="44.737714939042085" lon="9.388988272172409"><ele>330.6666666666667</ele><time>2026-04-18T13:49:53Z</time></trkpt><trkpt lat="44.7375488379847" lon="9.389173476350022"><ele>333.0</ele><time>2026-04-18T13:49:54Z</time></trkpt><trkpt lat="44.737362828139155" lon="9.38934258254972"><ele>333.0</ele><time>2026-04-18T13:49:55Z</time></trkpt><trkpt lat="44.737175440201185" lon="9.389446847952414"><ele>333.0</ele><time>2026-04-18T13:49:56Z</time></trkpt><trkpt lat="44.73700177151933" lon="9.389529346185556"><ele>333.0</ele><time>2026-04-18T13:49:57Z</time></trkpt><trkpt lat="44.73681641060321" lon="9.389599157068618"><ele>330.0</ele><time>2026-04-18T13:49:58Z</time></trkpt><trkpt lat="44.73662270800222" lon="9.389637382211495"><ele>327.0</ele><time>2026-04-18T13:49:59Z</time></trkpt><trkpt lat="44.73641108765642" lon="9.389656389856409"><ele>324.0</ele><time>2026-04-18T13:50:00Z</time></trkpt><trkpt lat="44.73617837349331" lon="9.389665487643107"><ele>322.6666666666667</ele><time>2026-04-18T13:50:01Z</time></trkpt><trkpt lat="44.73594401893491" lon="9.389671567330078"><ele>321.33333333333337</ele><time>2026-04-18T13:50:02Z</time></trkpt><trkpt lat="44.73574590034456" lon="9.389673716119862"><ele>320.0</ele><time>2026-04-18T13:50:03Z</time></trkpt><trkpt lat="44.7355711857528" lon="9.389675144152793"><ele>323.33333333333337</ele><time>2026-04-18T13:50:04Z</time></trkpt><trkpt lat="44.7353867761102" lon="9.389686770573869"><ele>326.6666666666667</ele><time>2026-04-18T13:50:05Z</time></trkpt><trkpt lat="44.735201969157735" lon="9.389599210790935"><ele>330.0</ele><time>2026-04-18T13:50:06Z</time></trkpt><trkpt lat="44.73502482166736" lon="9.389526717945627"><ele>330.0</ele><time>2026-04-18T13:50:07Z</time></trkpt><trkpt lat="44.73484457155118" lon="9.38946767327798"><ele>330.0</ele><time>2026-04-18T13:50:08Z</time></trkpt><trkpt lat="44.73468919573015" lon="9.389372610468047"><ele>330.0</ele><time>2026-04-18T13:50:09Z</time></trkpt><trkpt lat="44.73456139137004" lon="9.389247621581852"><ele>330.0</ele><time>2026-04-18T13:50:10Z</time></trkpt><trkpt lat="44.73443195960839" lon="9.389184928051252"><ele>330.0</ele><time>2026-04-18T13:50:11Z</time></trkpt><trkpt lat="44.734296251371575" lon="9.389117153838827"><ele>330.0</ele><time>2026-04-18T13:50:12Z</time></trkpt><trkpt lat="44.73413706309864" lon="9.38908401949541"><ele>330.0</ele><time>2026-04-18T13:50:13Z</time></trkpt><trkpt lat="44.733960540940295" lon="9.389073982474116"><ele>335.0</ele><time>2026-04-18T13:50:14Z</time></trkpt><trkpt lat="44.7337902659792" lon="9.389074305082842"><ele>340.0</ele><time>2026-04-18T13:50:15Z</time></trkpt><trkpt lat="44.73364050497852" lon="9.38909906994364"><ele>345.0</ele><time>2026-04-18T13:50:16Z</time></trkpt><trkpt lat="44.733483383239054" lon="9.389141515350676"><ele>345.75</ele><time>2026-04-18T13:50:17Z</time></trkpt><trkpt lat="44.73333529729682" lon="9.389119949544098"><ele>346.5</ele><time>2026-04-18T13:50:18Z</time></trkpt><trkpt lat="44.73320200307706" lon="9.389059090016975"><ele>347.25</ele><time>2026-04-18T13:50:19Z</time></trkpt><trkpt lat="44.733050206462735" lon="9.38902145537154"><ele>348.0</ele><time>2026-04-18T13:50:20Z</time></trkpt><trkpt lat="44.7328913046866" lon="9.389011797279608"><ele>348.0</ele><time>2026-04-18T13:50:21Z</time></trkpt><trkpt lat="44.732739499831936" lon="9.389016425596811"><ele>348.0</ele><time>2026-04-18T13:50:22Z</time></trkpt><trkpt lat="44.7326062186617" lon="9.389021462426504"><ele>348.0</ele><time>2026-04-18T13:50:23Z</time></trkpt><trkpt lat="44.73249059940486" lon="9.389001730148797"><ele>348.0</ele><time>2026-04-18T13:50:24Z</time></trkpt><trkpt lat="44.73239539262651" lon="9.388936880753818"><ele>340.5</ele><time>2026-04-18T13:50:25Z</time></trkpt><trkpt lat="44.73232778725068" lon="9.388837288346767"><ele>333.0</ele><time>2026-04-18T13:50:26Z</time></trkpt><trkpt lat="44.732268599028764" lon="9.388695265298333"><ele>325.5</ele><time>2026-04-18T13:50:27Z</time></trkpt><trkpt lat="44.73217169994616" lon="9.388584496703618"><ele>318.0</ele><time>2026-04-18T13:50:28Z</time></trkpt><trkpt lat="44.732030365929944" lon="9.388523070010995"><ele>318.0</ele><time>2026-04-18T13:50:29Z</time></trkpt><trkpt lat="44.731895580621114" lon="9.388463479832687"><ele>318.0</ele><time>2026-04-18T13:50:30Z</time></trkpt><trkpt lat="44.73177704882097" lon="9.388388476040312"><ele>318.0</ele><time>2026-04-18T13:50:31Z</time></trkpt><trkpt lat="44.731637613152806" lon="9.388384076468274"><ele>318.0</ele><time>2026-04-18T13:50:32Z</time></trkpt><trkpt lat="44.731490089877035" lon="9.38841367955436"><ele>323.75</ele><time>2026-04-18T13:50:33Z</time></trkpt><trkpt lat="44.73134304256152" lon="9.388475505547616"><ele>329.5</ele><time>2026-04-18T13:50:34Z</time></trkpt><trkpt lat="44.7311878881289" lon="9.388475019493029"><ele>335.25</ele><time>2026-04-18T13:50:35Z</time></trkpt><trkpt lat="44.73105933719948" lon="9.388443879896824"><ele>341.0</ele><time>2026-04-18T13:50:36Z</time></trkpt><trkpt lat="44.73097025310154" lon="9.388359387804856"><ele>345.75</ele><time>2026-04-18T13:50:37Z</time></trkpt><trkpt lat="44.73093735696613" lon="9.388243587518607"><ele>350.5</ele><time>2026-04-18T13:50:38Z</time></trkpt><trkpt lat="44.73087339783812" lon="9.388130275233962"><ele>355.25</ele><time>2026-04-18T13:50:39Z</time></trkpt><trkpt lat="44.7307668095981" lon="9.388052834982728"><ele>360.0</ele><time>2026-04-18T13:50:40Z</time></trkpt><trkpt lat="44.73062090945144" lon="9.38806854989713"><ele>360.0</ele><time>2026-04-18T13:50:41Z</time></trkpt><trkpt lat="44.73049072709054" lon="9.38806979552713"><ele>360.0</ele><time>2026-04-18T13:50:42Z</time></trkpt><trkpt lat="44.73036069727711" lon="9.388025275086608"><ele>360.0</ele><time>2026-04-18T13:50:43Z</time></trkpt><trkpt lat="44.73023132101136" lon="9.387897865098148"><ele>360.0</ele><time>2026-04-18T13:50:44Z</time></trkpt><trkpt lat="44.730076380123585" lon="9.387793237048168"><ele>354.0</ele><time>2026-04-18T13:50:45Z</time></trkpt><trkpt lat="44.729923811160454" lon="9.387764605317788"><ele>348.0</ele><time>2026-04-18T13:50:46Z</time></trkpt><trkpt lat="44.72979733880104" lon="9.387678745815387"><ele>342.0</ele><time>2026-04-18T13:50:47Z</time></trkpt><trkpt lat="44.72971187586131" lon="9.387552446591686"><ele>336.0</ele><time>2026-04-18T13:50:48Z</time></trkpt><trkpt lat="44.72959570002157" lon="9.387410864634042"><ele>336.0</ele><time>2026-04-18T13:50:49Z</time></trkpt><trkpt lat="44.729467358105076" lon="9.387344127744624"><ele>336.0</ele><time>2026-04-18T13:50:50Z</time></trkpt><trkpt lat="44.729338542386095" lon="9.387293371384569"><ele>336.0</ele><time>2026-04-18T13:50:51Z</time></trkpt><trkpt lat="44.729193265041076" lon="9.387319516194403"><ele>336.0</ele><time>2026-04-18T13:50:52Z</time></trkpt><trkpt lat="44.729042577206464" lon="9.38735357348437"><ele>332.8</ele><time>2026-04-18T13:50:53Z</time></trkpt><trkpt lat="44.728919218385364" lon="9.38727346607015"><ele>329.6</ele><time>2026-04-18T13:50:54Z</time></trkpt><trkpt lat="44.72882614346759" lon="9.387186572715702"><ele>326.4</ele><time>2026-04-18T13:50:55Z</time></trkpt><trkpt lat="44.72877554015137" lon="9.3870745612367"><ele>323.2</ele><time>2026-04-18T13:50:56Z</time></trkpt><trkpt lat="44.72875684253926" lon="9.38693348008879"><ele>320.0</ele><time>2026-04-18T13:50:57Z</time></trkpt><trkpt lat="44.72870447245532" lon="9.386780933479589"><ele>320.0</ele><time>2026-04-18T13:50:58Z</time></trkpt><trkpt lat="44.72863113138823" lon="9.386649539871835"><ele>320.0</ele><time>2026-04-18T13:50:59Z</time></trkpt><trkpt lat="44.72850486213056" lon="9.386634802681742"><ele>320.0</ele><time>2026-04-18T13:51:00Z</time></trkpt><trkpt lat="44.72838072812099" lon="9.386625300410696"><ele>320.0</ele><time>2026-04-18T13:51:01Z</time></trkpt><trkpt lat="44.728226174137355" lon="9.386599676364742"><ele>323.25</ele><time>2026-04-18T13:51:02Z</time></trkpt><trkpt lat="44.72807481490417" lon="9.386556991115327"><ele>326.5</ele><time>2026-04-18T13:51:03Z</time></trkpt><trkpt lat="44.72794320726785" lon="9.386507647478696"><ele>329.75</ele><time>2026-04-18T13:51:04Z</time></trkpt><trkpt lat="44.72781189126982" lon="9.386445374223491"><ele>333.0</ele><time>2026-04-18T13:51:05Z</time></trkpt><trkpt lat="44.72769284697179" lon="9.386343645307207"><ele>333.0</ele><time>2026-04-18T13:51:06Z</time></trkpt><trkpt lat="44.72757765248917" lon="9.386256166004973"><ele>333.0</ele><time>2026-04-18T13:51:07Z</time></trkpt><trkpt lat="44.72745469411146" lon="9.386159294549447"><ele>333.0</ele><time>2026-04-18T13:51:08Z</time></trkpt><trkpt lat="44.72732739161884" lon="9.38605022568579"><ele>333.0</ele><time>2026-04-18T13:51:09Z</time></trkpt><trkpt lat="44.72721242631" lon="9.385958482910906"><ele>333.0</ele><time>2026-04-18T13:51:10Z</time></trkpt><trkpt lat="44.72711398384744" lon="9.385867888981087"><ele>333.0</ele><time>2026-04-18T13:51:11Z</time></trkpt><trkpt lat="44.72700266633005" lon="9.38579085148122"><ele>333.0</ele><time>2026-04-18T13:51:12Z</time></trkpt><trkpt lat="44.72691925410303" lon="9.38566200680917"><ele>333.0</ele><time>2026-04-18T13:51:13Z</time></trkpt><trkpt lat="44.72683367539008" lon="9.385511420756256"><ele>329.0</ele><time>2026-04-18T13:51:14Z</time></trkpt><trkpt lat="44.72672614090079" lon="9.385402944824467"><ele>325.0</ele><time>2026-04-18T13:51:15Z</time></trkpt><trkpt lat="44.72659621423739" lon="9.385335888760654"><ele>321.0</ele><time>2026-04-18T13:51:16Z</time></trkpt><trkpt lat="44.72646291356173" lon="9.385293479753964"><ele>317.0</ele><time>2026-04-18T13:51:17Z</time></trkpt><trkpt lat="44.72635245057608" lon="9.385240620765803"><ele>317.0</ele><time>2026-04-18T13:51:18Z</time></trkpt><trkpt lat="44.72627073786102" lon="9.385195878636637"><ele>317.0</ele><time>2026-04-18T13:51:19Z</time></trkpt><trkpt lat="44.726195104924486" lon="9.385220611801667"><ele>317.0</ele><time>2026-04-18T13:51:20Z</time></trkpt><trkpt lat="44.72614924281746" lon="9.385325343580785"><ele>317.0</ele><time>2026-04-18T13:51:21Z</time></trkpt><trkpt lat="44.726144470370606" lon="9.385461739860178"><ele>317.0</ele><time>2026-04-18T13:51:22Z</time></trkpt><trkpt lat="44.72618377208623" lon="9.385607596930607"><ele>327.0</ele><time>2026-04-18T13:51:22.999Z</time></trkpt><trkpt lat="44.72624171309443" lon="9.385776933292284"><ele>337.0</ele><time>2026-04-18T13:51:23.999Z</time></trkpt><trkpt lat="44.72627783981017" lon="9.38597175862184"><ele>347.0</ele><time>2026-04-18T13:51:24.999Z</time></trkpt><trkpt lat="44.72631673233612" lon="9.386173665213606"><ele>357.0</ele><time>2026-04-18T13:51:25.999Z</time></trkpt><trkpt lat="44.72634794318746" lon="9.386342155934697"><ele>361.75</ele><time>2026-04-18T13:51:26.999Z</time></trkpt><trkpt lat="44.72638809747046" lon="9.386519261733877"><ele>366.5</ele><time>2026-04-18T13:51:27.999Z</time></trkpt><trkpt lat="44.726431101825405" lon="9.386708678986823"><ele>371.25</ele><time>2026-04-18T13:51:28.999Z</time></trkpt><trkpt lat="44.726414476048966" lon="9.386908793435632"><ele>376.0</ele><time>2026-04-18T13:51:29.999Z</time></trkpt><trkpt lat="44.72637323100384" lon="9.387096108709166"><ele>380.75</ele><time>2026-04-18T13:51:30.999Z</time></trkpt><trkpt lat="44.72632070627116" lon="9.387279103169849"><ele>385.5</ele><time>2026-04-18T13:51:32Z</time></trkpt><trkpt lat="44.726252250565786" lon="9.387456488551942"><ele>390.25</ele><time>2026-04-18T13:51:33Z</time></trkpt><trkpt lat="44.72616621174216" lon="9.387647255562038"><ele>395.0</ele><time>2026-04-18T13:51:34Z</time></trkpt><trkpt lat="44.72606318418071" lon="9.38786368952258"><ele>386.3333333333333</ele><time>2026-04-18T13:51:35Z</time></trkpt><trkpt lat="44.72594210822461" lon="9.388104212198874"><ele>377.66666666666663</ele><time>2026-04-18T13:51:36Z</time></trkpt><trkpt lat="44.72581043215754" lon="9.388300540704302"><ele>369.0</ele><time>2026-04-18T13:51:37Z</time></trkpt><trkpt lat="44.72566371060694" lon="9.388465415549026"><ele>369.0</ele><time>2026-04-18T13:51:38Z</time></trkpt><trkpt lat="44.72548964438012" lon="9.388641349948873"><ele>369.0</ele><time>2026-04-18T13:51:39Z</time></trkpt><trkpt lat="44.72532004384157" lon="9.388787236979194"><ele>369.0</ele><time>2026-04-18T13:51:40Z</time></trkpt><trkpt lat="44.725173448030134" lon="9.388889942617405"><ele>366.0</ele><time>2026-04-18T13:51:41Z</time></trkpt><trkpt lat="44.72505245694993" lon="9.3889791013765"><ele>363.0</ele><time>2026-04-18T13:51:42Z</time></trkpt><trkpt lat="44.72497239302891" lon="9.389103476915686"><ele>360.0</ele><time>2026-04-18T13:51:43Z</time></trkpt><trkpt lat="44.72489270543683" lon="9.389247040069066"><ele>357.0</ele><time>2026-04-18T13:51:44Z</time></trkpt><trkpt lat="44.724826571311944" lon="9.389455688181279"><ele>357.0</ele><time>2026-04-18T13:51:45Z</time></trkpt><trkpt lat="44.72477914022457" lon="9.389657745859019"><ele>357.0</ele><time>2026-04-18T13:51:46Z</time></trkpt><trkpt lat="44.724737850617004" lon="9.389825691185912"><ele>357.0</ele><time>2026-04-18T13:51:47Z</time></trkpt><trkpt lat="44.72470705525242" lon="9.389989517517442"><ele>357.0</ele><time>2026-04-18T13:51:48Z</time></trkpt><trkpt lat="44.724713007854895" lon="9.390158535172768"><ele>357.5</ele><time>2026-04-18T13:51:49Z</time></trkpt><trkpt lat="44.72476863298463" lon="9.390319748559136"><ele>358.0</ele><time>2026-04-18T13:51:50Z</time></trkpt><trkpt lat="44.72489028367758" lon="9.390429919638548"><ele>358.5</ele><time>2026-04-18T13:51:51Z</time></trkpt><trkpt lat="44.72494080476893" lon="9.39055013040069"><ele>359.0</ele><time>2026-04-18T13:51:52Z</time></trkpt><trkpt lat="44.724941411706844" lon="9.390688055539579"><ele>359.75</ele><time>2026-04-18T13:51:53Z</time></trkpt><trkpt lat="44.724879721817096" lon="9.390841234613628"><ele>360.5</ele><time>2026-04-18T13:51:54Z</time></trkpt><trkpt lat="44.72484190405218" lon="9.391039481154383"><ele>361.25</ele><time>2026-04-18T13:51:55Z</time></trkpt><trkpt lat="44.724791328014135" lon="9.391270356702469"><ele>362.0</ele><time>2026-04-18T13:51:56Z</time></trkpt><trkpt lat="44.72474320477811" lon="9.391496022415653"><ele>362.0</ele><time>2026-04-18T13:51:57Z</time></trkpt><trkpt lat="44.72469105738598" lon="9.391693056778662"><ele>362.0</ele><time>2026-04-18T13:51:58Z</time></trkpt><trkpt lat="44.72461804809904" lon="9.391903106749567"><ele>362.0</ele><time>2026-04-18T13:51:59Z</time></trkpt><trkpt lat="44.7245811206044" lon="9.392115500221571"><ele>366.25</ele><time>2026-04-18T13:52:00Z</time></trkpt><trkpt lat="44.72453065659825" lon="9.392297470564037"><ele>370.5</ele><time>2026-04-18T13:52:01Z</time></trkpt><trkpt lat="44.724444576556124" lon="9.392464026899377"><ele>374.75</ele><time>2026-04-18T13:52:02Z</time></trkpt><trkpt lat="44.72434892246559" lon="9.392646042502758"><ele>379.0</ele><time>2026-04-18T13:52:03Z</time></trkpt><trkpt lat="44.724242373282785" lon="9.392829065744122"><ele>374.66666666666663</ele><time>2026-04-18T13:52:04Z</time></trkpt><trkpt lat="44.724139825831784" lon="9.393019165305066"><ele>370.3333333333333</ele><time>2026-04-18T13:52:05Z</time></trkpt><trkpt lat="44.72403509825745" lon="9.39318896841859"><ele>366.0</ele><time>2026-04-18T13:52:06Z</time></trkpt><trkpt lat="44.7239405816183" lon="9.393354847170851"><ele>366.0</ele><time>2026-04-18T13:52:07Z</time></trkpt><trkpt lat="44.723856599026554" lon="9.393514906961386"><ele>366.0</ele><time>2026-04-18T13:52:08Z</time></trkpt><trkpt lat="44.72374462105759" lon="9.393626254146659"><ele>366.0</ele><time>2026-04-18T13:52:09Z</time></trkpt><trkpt lat="44.72362688888233" lon="9.393703428278782"><ele>366.0</ele><time>2026-04-18T13:52:10Z</time></trkpt><trkpt lat="44.72348941785352" lon="9.393780016962252"><ele>366.5</ele><time>2026-04-18T13:52:11Z</time></trkpt><trkpt lat="44.72335369097083" lon="9.393861266733495"><ele>367.0</ele><time>2026-04-18T13:52:12Z</time></trkpt><trkpt lat="44.72322141070218" lon="9.39391243043661"><ele>367.5</ele><time>2026-04-18T13:52:13Z</time></trkpt><trkpt lat="44.72308172496563" lon="9.393959490572822"><ele>368.0</ele><time>2026-04-18T13:52:14Z</time></trkpt><trkpt lat="44.72293558547619" lon="9.394023261010538"><ele>368.0</ele><time>2026-04-18T13:52:15Z</time></trkpt><trkpt lat="44.72280555519359" lon="9.394086835897067"><ele>368.0</ele><time>2026-04-18T13:52:16Z</time></trkpt><trkpt lat="44.722703375335264" lon="9.3941508210024"><ele>368.0</ele><time>2026-04-18T13:52:17Z</time></trkpt><trkpt lat="44.722630765119334" lon="9.394243394924358"><ele>368.0</ele><time>2026-04-18T13:52:18Z</time></trkpt><trkpt lat="44.72260181364299" lon="9.394360531094213"><ele>368.0</ele><time>2026-04-18T13:52:19Z</time></trkpt><trkpt lat="44.7225856670706" lon="9.39450478038049"><ele>362.4</ele><time>2026-04-18T13:52:20Z</time></trkpt><trkpt lat="44.72253273027399" lon="9.394596871564891"><ele>356.79999999999995</ele><time>2026-04-18T13:52:21Z</time></trkpt><trkpt lat="44.722432215006705" lon="9.394588645074778"><ele>351.2</ele><time>2026-04-18T13:52:22Z</time></trkpt><trkpt lat="44.722358383068546" lon="9.394517242396457"><ele>345.6</ele><time>2026-04-18T13:52:23Z</time></trkpt><trkpt lat="44.72229800693487" lon="9.394398909746243"><ele>340.0</ele><time>2026-04-18T13:52:24Z</time></trkpt><trkpt lat="44.72220780747142" lon="9.394268875894427"><ele>340.0</ele><time>2026-04-18T13:52:25Z</time></trkpt><trkpt lat="44.7221192916955" lon="9.394117853652968"><ele>340.0</ele><time>2026-04-18T13:52:26Z</time></trkpt><trkpt lat="44.72201428276019" lon="9.393995645160357"><ele>340.0</ele><time>2026-04-18T13:52:27Z</time></trkpt><trkpt lat="44.72191466054522" lon="9.393899505767688"><ele>340.0</ele><time>2026-04-18T13:52:28Z</time></trkpt><trkpt lat="44.72180300372627" lon="9.393825912517709"><ele>339.25</ele><time>2026-04-18T13:52:29Z</time></trkpt><trkpt lat="44.7216856374253" lon="9.393795904931684"><ele>338.5</ele><time>2026-04-18T13:52:30Z</time></trkpt><trkpt lat="44.72157108444345" lon="9.393824432293265"><ele>337.75</ele><time>2026-04-18T13:52:31Z</time></trkpt><trkpt lat="44.72146914592873" lon="9.393907328113185"><ele>337.0</ele><time>2026-04-18T13:52:32Z</time></trkpt><trkpt lat="44.72139241697762" lon="9.394030016448918"><ele>337.0</ele><time>2026-04-18T13:52:33Z</time></trkpt><trkpt lat="44.72136610511976" lon="9.394199658953747"><ele>337.0</ele><time>2026-04-18T13:52:34Z</time></trkpt><trkpt lat="44.721357456671214" lon="9.394372126332053"><ele>337.0</ele><time>2026-04-18T13:52:35Z</time></trkpt><trkpt lat="44.721332301668" lon="9.394520708555351"><ele>337.0</ele><time>2026-04-18T13:52:36Z</time></trkpt><trkpt lat="44.72124541582817" lon="9.394603793699826"><ele>339.40000000000003</ele><time>2026-04-18T13:52:37Z</time></trkpt><trkpt lat="44.721165687109924" lon="9.39469081010874"><ele>341.8</ele><time>2026-04-18T13:52:38Z</time></trkpt><trkpt lat="44.721089782539664" lon="9.394797398202403"><ele>344.2</ele><time>2026-04-18T13:52:39Z</time></trkpt><trkpt lat="44.72099754630977" lon="9.394867894381353"><ele>346.6</ele><time>2026-04-18T13:52:40Z</time></trkpt><trkpt lat="44.720920195244304" lon="9.394950491759454"><ele>349.0</ele><time>2026-04-18T13:52:41Z</time></trkpt><trkpt lat="44.72083589569527" lon="9.395017292141386"><ele>349.0</ele><time>2026-04-18T13:52:42Z</time></trkpt><trkpt lat="44.72075179633282" lon="9.39502753386347"><ele>349.0</ele><time>2026-04-18T13:52:43Z</time></trkpt><trkpt lat="44.720663194979416" lon="9.395050219266729"><ele>349.0</ele><time>2026-04-18T13:52:44Z</time></trkpt><trkpt lat="44.72056285956817" lon="9.395015933828631"><ele>349.0</ele><time>2026-04-18T13:52:45Z</time></trkpt><trkpt lat="44.72048580849368" lon="9.39493375645247"><ele>349.0</ele><time>2026-04-18T13:52:46Z</time></trkpt><trkpt lat="44.72044991098308" lon="9.39480720048088"><ele>343.0</ele><time>2026-04-18T13:52:47Z</time></trkpt><trkpt lat="44.72047974686687" lon="9.394647358236847"><ele>337.0</ele><time>2026-04-18T13:52:48Z</time></trkpt><trkpt lat="44.7204870851715" lon="9.39446289225288"><ele>331.0</ele><time>2026-04-18T13:52:49Z</time></trkpt><trkpt lat="44.7204869633933" lon="9.39426719705573"><ele>325.0</ele><time>2026-04-18T13:52:50Z</time></trkpt><trkpt lat="44.72050693630173" lon="9.394111961690557"><ele>325.0</ele><time>2026-04-18T13:52:51Z</time></trkpt><trkpt lat="44.72057083422764" lon="9.393989545300817"><ele>325.0</ele><time>2026-04-18T13:52:52Z</time></trkpt><trkpt lat="44.72062846520807" lon="9.393837535391489"><ele>325.0</ele><time>2026-04-18T13:52:53Z</time></trkpt><trkpt lat="44.72071679835393" lon="9.393686523694635"><ele>325.0</ele><time>2026-04-18T13:52:54Z</time></trkpt><trkpt lat="44.72079203610191" lon="9.393544802013395"><ele>325.4</ele><time>2026-04-18T13:52:55Z</time></trkpt><trkpt lat="44.720842415187455" lon="9.393420961900638"><ele>325.8</ele><time>2026-04-18T13:52:56Z</time></trkpt><trkpt lat="44.72085413034995" lon="9.393275489668083"><ele>326.20000000000005</ele><time>2026-04-18T13:52:57Z</time></trkpt><trkpt lat="44.720825321798614" lon="9.393124304123953"><ele>326.6</ele><time>2026-04-18T13:52:58Z</time></trkpt><trkpt lat="44.72074986957354" lon="9.392974912479778"><ele>327.0</ele><time>2026-04-18T13:52:59Z</time></trkpt><trkpt lat="44.72063863984636" lon="9.39284107520761"><ele>325.75</ele><time>2026-04-18T13:53:00Z</time></trkpt><trkpt lat="44.72051770928023" lon="9.392706260165426"><ele>324.5</ele><time>2026-04-18T13:53:01Z</time></trkpt><trkpt lat="44.720466676381946" lon="9.392547518697532"><ele>323.25</ele><time>2026-04-18T13:53:02Z</time></trkpt><trkpt lat="44.7204128668955" lon="9.392376789486619"><ele>322.0</ele><time>2026-04-18T13:53:03Z</time></trkpt><trkpt lat="44.720340942372765" lon="9.392193699067729"><ele>318.75</ele><time>2026-04-18T13:53:04Z</time></trkpt><trkpt lat="44.72029698767606" lon="9.392007247442477"><ele>315.5</ele><time>2026-04-18T13:53:05Z</time></trkpt><trkpt lat="44.72028929582812" lon="9.391841750261586"><ele>312.25</ele><time>2026-04-18T13:53:06Z</time></trkpt><trkpt lat="44.72028099031641" lon="9.39167982167331"><ele>309.0</ele><time>2026-04-18T13:53:07Z</time></trkpt><trkpt lat="44.72026463633752" lon="9.391513134596098"><ele>309.0</ele><time>2026-04-18T13:53:08Z</time></trkpt><trkpt lat="44.72025965486394" lon="9.391343062489254"><ele>309.0</ele><time>2026-04-18T13:53:09Z</time></trkpt><trkpt lat="44.72024625586514" lon="9.391170684719203"><ele>309.0</ele><time>2026-04-18T13:53:10Z</time></trkpt><trkpt lat="44.720229532067954" lon="9.390981972382626"><ele>309.0</ele><time>2026-04-18T13:53:11Z</time></trkpt><trkpt lat="44.720207528454274" lon="9.39077113568157"><ele>311.5</ele><time>2026-04-18T13:53:12Z</time></trkpt><trkpt lat="44.720193308893286" lon="9.39057085620466"><ele>314.0</ele><time>2026-04-18T13:53:13Z</time></trkpt><trkpt lat="44.720173624196576" lon="9.390396256867698"><ele>316.5</ele><time>2026-04-18T13:53:13.999Z</time></trkpt><trkpt lat="44.72012332356921" lon="9.390241282021343"><ele>319.0</ele><time>2026-04-18T13:53:14.999Z</time></trkpt><trkpt lat="44.720024168055424" lon="9.390104081327557"><ele>319.0</ele><time>2026-04-18T13:53:15.999Z</time></trkpt><trkpt lat="44.719893040581795" lon="9.390026236531158"><ele>319.0</ele><time>2026-04-18T13:53:16.999Z</time></trkpt><trkpt lat="44.71974450650973" lon="9.389988306048247"><ele>319.0</ele><time>2026-04-18T13:53:17.999Z</time></trkpt><trkpt lat="44.719588517993806" lon="9.389963334607444"><ele>319.0</ele><time>2026-04-18T13:53:18.999Z</time></trkpt><trkpt lat="44.71944732269113" lon="9.3899490851376"><ele>319.0</ele><time>2026-04-18T13:53:19.999Z</time></trkpt><trkpt lat="44.719318578171375" lon="9.389949884700775"><ele>319.0</ele><time>2026-04-18T13:53:20.999Z</time></trkpt><trkpt lat="44.71919319253899" lon="9.389970725800223"><ele>319.0</ele><time>2026-04-18T13:53:21.999Z</time></trkpt><trkpt lat="44.719055183015534" lon="9.390021824720263"><ele>320.3333333333333</ele><time>2026-04-18T13:53:22.999Z</time></trkpt><trkpt lat="44.71889825996654" lon="9.390133200280403"><ele>321.6666666666667</ele><time>2026-04-18T13:53:23.999Z</time></trkpt><trkpt lat="44.71874549854488" lon="9.390216070692723"><ele>323.0</ele><time>2026-04-18T13:53:24.999Z</time></trkpt><trkpt lat="44.718590238360804" lon="9.390231663642666"><ele>323.6666666666667</ele><time>2026-04-18T13:53:25.999Z</time></trkpt><trkpt lat="44.71842274749003" lon="9.390228053944538"><ele>324.3333333333333</ele><time>2026-04-18T13:53:26.999Z</time></trkpt><trkpt lat="44.71827532711886" lon="9.390208270159203"><ele>325.0</ele><time>2026-04-18T13:53:27.999Z</time></trkpt><trkpt lat="44.71812947794485" lon="9.390194599954865"><ele>325.0</ele><time>2026-04-18T13:53:28.999Z</time></trkpt><trkpt lat="44.71797285005678" lon="9.390169911961486"><ele>325.0</ele><time>2026-04-18T13:53:29.999Z</time></trkpt><trkpt lat="44.717807565577765" lon="9.390129519483194"><ele>325.0</ele><time>2026-04-18T13:53:30.999Z</time></trkpt><trkpt lat="44.71764437290139" lon="9.390147715940303"><ele>327.3333333333333</ele><time>2026-04-18T13:53:31.999Z</time></trkpt><trkpt lat="44.71749179898974" lon="9.390145746618225"><ele>329.6666666666667</ele><time>2026-04-18T13:53:32.999Z</time></trkpt><trkpt lat="44.71733843990934" lon="9.390083806892424"><ele>332.0</ele><time>2026-04-18T13:53:33.999Z</time></trkpt><trkpt lat="44.71717355451771" lon="9.389982434231696"><ele>332.0</ele><time>2026-04-18T13:53:34.999Z</time></trkpt><trkpt lat="44.71697729311363" lon="9.38990226721601"><ele>332.0</ele><time>2026-04-18T13:53:35.999Z</time></trkpt><trkpt lat="44.71681392358308" lon="9.389809229474027"><ele>332.0</ele><time>2026-04-18T13:53:36.999Z</time></trkpt><trkpt lat="44.71666881573497" lon="9.389693117871879"><ele>325.33333333333337</ele><time>2026-04-18T13:53:38Z</time></trkpt><trkpt lat="44.71651980078267" lon="9.389561336433315"><ele>318.6666666666667</ele><time>2026-04-18T13:53:39Z</time></trkpt><trkpt lat="44.71637839801489" lon="9.389434093202118"><ele>312.0</ele><time>2026-04-18T13:53:40Z</time></trkpt><trkpt lat="44.71624313822866" lon="9.389311320286355"><ele>312.0</ele><time>2026-04-18T13:53:41Z</time></trkpt><trkpt lat="44.716125406865956" lon="9.389197118688582"><ele>312.0</ele><time>2026-04-18T13:53:42Z</time></trkpt><trkpt lat="44.71603171418481" lon="9.389068351157405"><ele>312.0</ele><time>2026-04-18T13:53:43Z</time></trkpt><trkpt lat="44.715980517120414" lon="9.388890150878902"><ele>312.0</ele><time>2026-04-18T13:53:44Z</time></trkpt><trkpt lat="44.715909748732805" lon="9.388657711379537"><ele>311.6666666666667</ele><time>2026-04-18T13:53:45Z</time></trkpt><trkpt lat="44.7158208499481" lon="9.38838510618023"><ele>311.33333333333337</ele><time>2026-04-18T13:53:46Z</time></trkpt><trkpt lat="44.71571609107436" lon="9.388107745701726"><ele>311.0</ele><time>2026-04-18T13:53:47Z</time></trkpt><trkpt lat="44.715623879900384" lon="9.387895219012966"><ele>311.0</ele><time>2026-04-18T13:53:48Z</time></trkpt><trkpt lat="44.71553455920436" lon="9.387747236901342"><ele>311.0</ele><time>2026-04-18T13:53:49Z</time></trkpt><trkpt lat="44.715403827796344" lon="9.387624974158603"><ele>311.0</ele><time>2026-04-18T13:53:50Z</time></trkpt><trkpt lat="44.715298850435595" lon="9.387478140062061"><ele>311.0</ele><time>2026-04-18T13:53:51Z</time></trkpt><trkpt lat="44.715230987834545" lon="9.387321504398523"><ele>316.0</ele><time>2026-04-18T13:53:52Z</time></trkpt><trkpt lat="44.71520258730249" lon="9.387130400849845"><ele>321.0</ele><time>2026-04-18T13:53:53Z</time></trkpt><trkpt lat="44.71514094874897" lon="9.386909545712415"><ele>326.0</ele><time>2026-04-18T13:53:54Z</time></trkpt><trkpt lat="44.7150099304743" lon="9.38667663104544"><ele>326.0</ele><time>2026-04-18T13:53:55Z</time></trkpt><trkpt lat="44.714929004177" lon="9.38638823734396"><ele>326.0</ele><time>2026-04-18T13:53:56Z</time></trkpt><trkpt lat="44.7148164244292" lon="9.386122084655444"><ele>326.0</ele><time>2026-04-18T13:53:57Z</time></trkpt><trkpt lat="44.71469664117447" lon="9.385826680117868"><ele>322.33333333333337</ele><time>2026-04-18T13:53:58Z</time></trkpt><trkpt lat="44.714614307316396" lon="9.385557184268373"><ele>318.6666666666667</ele><time>2026-04-18T13:53:59Z</time></trkpt><trkpt lat="44.71453510521134" lon="9.38533070115327"><ele>315.0</ele><time>2026-04-18T13:54:00Z</time></trkpt><trkpt lat="44.71447627882691" lon="9.385158592121073"><ele>313.25</ele><time>2026-04-18T13:54:01Z</time></trkpt><trkpt lat="44.71444071929294" lon="9.38500411067493"><ele>311.5</ele><time>2026-04-18T13:54:02Z</time></trkpt><trkpt lat="44.714442301150406" lon="9.384828686616098"><ele>309.75</ele><time>2026-04-18T13:54:03Z</time></trkpt><trkpt lat="44.71445249846496" lon="9.38458465697335"><ele>308.0</ele><time>2026-04-18T13:54:04Z</time></trkpt><trkpt lat="44.714453576637" lon="9.384313689217619"><ele>308.0</ele><time>2026-04-18T13:54:05Z</time></trkpt><trkpt lat="44.71448002106904" lon="9.38406142934333"><ele>308.0</ele><time>2026-04-18T13:54:06Z</time></trkpt><trkpt lat="44.714522412026085" lon="9.383858495108138"><ele>308.0</ele><time>2026-04-18T13:54:07Z</time></trkpt><trkpt lat="44.714527215884786" lon="9.383683658430721"><ele>309.0</ele><time>2026-04-18T13:54:08Z</time></trkpt><trkpt lat="44.71453479060426" lon="9.38351111590953"><ele>310.0</ele><time>2026-04-18T13:54:09Z</time></trkpt><trkpt lat="44.714488416987564" lon="9.383332387029942"><ele>311.0</ele><time>2026-04-18T13:54:10Z</time></trkpt><trkpt lat="44.71440397560059" lon="9.383165998032977"><ele>312.0</ele><time>2026-04-18T13:54:11Z</time></trkpt><trkpt lat="44.714275166018446" lon="9.382979134600614"><ele>313.6666666666667</ele><time>2026-04-18T13:54:12Z</time></trkpt><trkpt lat="44.71413542134165" lon="9.382786862375527"><ele>315.33333333333337</ele><time>2026-04-18T13:54:13Z</time></trkpt><trkpt lat="44.71402733526759" lon="9.382613372254477"><ele>317.0</ele><time>2026-04-18T13:54:14Z</time></trkpt><trkpt lat="44.71395220523288" lon="9.382462168664333"><ele>317.0</ele><time>2026-04-18T13:54:15Z</time></trkpt><trkpt lat="44.713920128416575" lon="9.382310234429461"><ele>317.0</ele><time>2026-04-18T13:54:16Z</time></trkpt><trkpt lat="44.7139115724714" lon="9.38217328851456"><ele>317.0</ele><time>2026-04-18T13:54:17Z</time></trkpt><trkpt lat="44.713910447695866" lon="9.382074832439962"><ele>317.0</ele><time>2026-04-18T13:54:18Z</time></trkpt><trkpt lat="44.71390675850863" lon="9.381962816285652"><ele>317.0</ele><time>2026-04-18T13:54:20Z</time></trkpt><trkpt lat="44.71381148880196" lon="9.381843667421197"><ele>316.5</ele><time>2026-04-18T13:54:23Z</time></trkpt><trkpt lat="44.713894635036915" lon="9.381817217458037"><ele>316.0</ele><time>2026-04-18T13:54:24Z</time></trkpt><trkpt lat="44.71388713518067" lon="9.381727147908284"><ele>315.5</ele><time>2026-04-18T13:54:27Z</time></trkpt><trkpt lat="44.713797593599985" lon="9.381729989112914"><ele>315.0</ele><time>2026-04-18T13:54:35Z</time></trkpt><trkpt lat="44.71385119751904" lon="9.381634638045727"><ele>314.5</ele><time>2026-04-18T13:57:56Z</time></trkpt><trkpt lat="44.71387841016798" lon="9.381509285968052"><ele>314.0</ele><time>2026-04-18T13:57:58Z</time></trkpt><trkpt lat="44.713864818982564" lon="9.38141759104779"><ele>314.0</ele><time>2026-04-18T13:57:59Z</time></trkpt><trkpt lat="44.71385154163365" lon="9.381318454235668"><ele>314.0</ele><time>2026-04-18T13:58:00Z</time></trkpt><trkpt lat="44.71384331676091" lon="9.38120105716562"><ele>314.0</ele><time>2026-04-18T13:58:02Z</time></trkpt><trkpt lat="44.71377850867241" lon="9.381083551408329"><ele>314.0</ele><time>2026-04-18T13:58:15Z</time></trkpt><trkpt lat="44.7137285280903" lon="9.380997799142413"><ele>314.0</ele><time>2026-04-18T13:58:16Z</time></trkpt><trkpt lat="44.71365671412927" lon="9.380886048563232"><ele>314.0</ele><time>2026-04-18T13:58:17Z</time></trkpt><trkpt lat="44.71358088798348" lon="9.380774043362791"><ele>315.25</ele><time>2026-04-18T13:58:18Z</time></trkpt><trkpt lat="44.71350394450532" lon="9.3806548127451"><ele>316.5</ele><time>2026-04-18T13:58:19Z</time></trkpt><trkpt lat="44.71343777059247" lon="9.380540857901106"><ele>317.75</ele><time>2026-04-18T13:58:20Z</time></trkpt><trkpt lat="44.713359379736296" lon="9.380430254072614"><ele>319.0</ele><time>2026-04-18T13:58:21Z</time></trkpt><trkpt lat="44.71326978174555" lon="9.380298548990236"><ele>319.0</ele><time>2026-04-18T13:58:22Z</time></trkpt><trkpt lat="44.713165131518736" lon="9.38020074491331"><ele>319.0</ele><time>2026-04-18T13:58:23Z</time></trkpt><trkpt lat="44.71306652332403" lon="9.380147313410053"><ele>319.0</ele><time>2026-04-18T13:58:24Z</time></trkpt><trkpt lat="44.71296158409017" lon="9.380121781967906"><ele>319.0</ele><time>2026-04-18T13:58:25Z</time></trkpt><trkpt lat="44.71283735485361" lon="9.380099777784288"><ele>319.75</ele><time>2026-04-18T13:58:26Z</time></trkpt><trkpt lat="44.71271825813326" lon="9.380111501135874"><ele>320.5</ele><time>2026-04-18T13:58:27Z</time></trkpt><trkpt lat="44.71256694746127" lon="9.380069354989342"><ele>321.25</ele><time>2026-04-18T13:58:28Z</time></trkpt><trkpt lat="44.71243212597798" lon="9.380051245134204"><ele>322.0</ele><time>2026-04-18T13:58:29Z</time></trkpt><trkpt lat="44.71231535205276" lon="9.380035353155723"><ele>322.0</ele><time>2026-04-18T13:58:30Z</time></trkpt><trkpt lat="44.71219094344833" lon="9.380017101100968"><ele>322.0</ele><time>2026-04-18T13:58:31Z</time></trkpt><trkpt lat="44.71205196171108" lon="9.379993634109448"><ele>322.0</ele><time>2026-04-18T13:58:32Z</time></trkpt><trkpt lat="44.71191589038004" lon="9.379974005783506"><ele>322.0</ele><time>2026-04-18T13:58:33Z</time></trkpt><trkpt lat="44.71179764462534" lon="9.37994906802853"><ele>321.0</ele><time>2026-04-18T13:58:34Z</time></trkpt><trkpt lat="44.71168731601381" lon="9.379895289777776"><ele>320.0</ele><time>2026-04-18T13:58:35Z</time></trkpt><trkpt lat="44.711585461740775" lon="9.379797558839051"><ele>319.0</ele><time>2026-04-18T13:58:36Z</time></trkpt><trkpt lat="44.71150420086917" lon="9.379644104457235"><ele>318.0</ele><time>2026-04-18T13:58:37Z</time></trkpt><trkpt lat="44.711421544785345" lon="9.379460405610489"><ele>316.3333333333333</ele><time>2026-04-18T13:58:38Z</time></trkpt><trkpt lat="44.71132495970049" lon="9.379255353414296"><ele>314.66666666666663</ele><time>2026-04-18T13:58:39Z</time></trkpt><trkpt lat="44.71122484040234" lon="9.379065514836183"><ele>313.0</ele><time>2026-04-18T13:58:40Z</time></trkpt><trkpt lat="44.71112447944775" lon="9.3788548139608"><ele>314.0</ele><time>2026-04-18T13:58:41Z</time></trkpt><trkpt lat="44.71102335530893" lon="9.378648004262185"><ele>315.0</ele><time>2026-04-18T13:58:42Z</time></trkpt><trkpt lat="44.71093272039535" lon="9.378463425095271"><ele>316.0</ele><time>2026-04-18T13:58:43Z</time></trkpt><trkpt lat="44.71085127591236" lon="9.378287633213308"><ele>316.0</ele><time>2026-04-18T13:58:44Z</time></trkpt><trkpt lat="44.710767086450566" lon="9.378107138478756"><ele>316.0</ele><time>2026-04-18T13:58:45Z</time></trkpt><trkpt lat="44.71068234400796" lon="9.377923843551045"><ele>316.0</ele><time>2026-04-18T13:58:46Z</time></trkpt><trkpt lat="44.71060731378197" lon="9.377758181294503"><ele>316.0</ele><time>2026-04-18T13:58:47Z</time></trkpt><trkpt lat="44.710531570112266" lon="9.37760077637196"><ele>318.0</ele><time>2026-04-18T13:58:48Z</time></trkpt><trkpt lat="44.71043668679851" lon="9.377479287324812"><ele>320.0</ele><time>2026-04-18T13:58:49Z</time></trkpt><trkpt lat="44.71030868499765" lon="9.377432541246097"><ele>322.0</ele><time>2026-04-18T13:58:50Z</time></trkpt><trkpt lat="44.710156263512985" lon="9.377436413079147"><ele>324.0</ele><time>2026-04-18T13:58:51Z</time></trkpt><trkpt lat="44.710007080233886" lon="9.3774868777845"><ele>326.3333333333333</ele><time>2026-04-18T13:58:52Z</time></trkpt><trkpt lat="44.70986674827068" lon="9.377589682364894"><ele>328.66666666666663</ele><time>2026-04-18T13:58:53Z</time></trkpt><trkpt lat="44.70974529879325" lon="9.377722521425927"><ele>331.0</ele><time>2026-04-18T13:58:54Z</time></trkpt><trkpt lat="44.709628654231906" lon="9.37787135966959"><ele>331.0</ele><time>2026-04-18T13:58:55Z</time></trkpt><trkpt lat="44.70948132758108" lon="9.377953305110195"><ele>331.0</ele><time>2026-04-18T13:58:56Z</time></trkpt><trkpt lat="44.70933425112506" lon="9.378014680892845"><ele>331.0</ele><time>2026-04-18T13:58:57Z</time></trkpt><trkpt lat="44.70919616504941" lon="9.378064470947015"><ele>332.0</ele><time>2026-04-18T13:58:58Z</time></trkpt><trkpt lat="44.70907753616505" lon="9.378121986822176"><ele>333.0</ele><time>2026-04-18T13:58:59Z</time></trkpt><trkpt lat="44.708970647334006" lon="9.378115160477424"><ele>334.0</ele><time>2026-04-18T13:59:00Z</time></trkpt><trkpt lat="44.708866845456626" lon="9.378080308619214"><ele>335.0</ele><time>2026-04-18T13:59:01Z</time></trkpt><trkpt lat="44.70876432521264" lon="9.378049108738729"><ele>336.0</ele><time>2026-04-18T13:59:01.999Z</time></trkpt><trkpt lat="44.70868656372203" lon="9.378009401926167"><ele>336.0</ele><time>2026-04-18T13:59:02.999Z</time></trkpt><trkpt lat="44.70861668809766" lon="9.377974411035284"><ele>336.0</ele><time>2026-04-18T13:59:03.999Z</time></trkpt><trkpt lat="44.708539113953556" lon="9.37794177943935"><ele>336.0</ele><time>2026-04-18T13:59:04.999Z</time></trkpt><trkpt lat="44.708451038930455" lon="9.377909565537317"><ele>336.0</ele><time>2026-04-18T13:59:05.999Z</time></trkpt><trkpt lat="44.70835192237311" lon="9.377855867912148"><ele>336.0</ele><time>2026-04-18T13:59:06.999Z</time></trkpt><trkpt lat="44.70824701059539" lon="9.377777928639118"><ele>335.8</ele><time>2026-04-18T13:59:07.999Z</time></trkpt><trkpt lat="44.708160624426895" lon="9.377663034994741"><ele>335.6</ele><time>2026-04-18T13:59:08.999Z</time></trkpt><trkpt lat="44.70811329184171" lon="9.377490017502256"><ele>335.4</ele><time>2026-04-18T13:59:09.999Z</time></trkpt><trkpt lat="44.708092698582455" lon="9.37734101947545"><ele>335.2</ele><time>2026-04-18T13:59:10.999Z</time></trkpt><trkpt lat="44.70807673143638" lon="9.377215215210446"><ele>335.0</ele><time>2026-04-18T13:59:11.999Z</time></trkpt><trkpt lat="44.7080598425261" lon="9.377106917106865"><ele>336.6666666666667</ele><time>2026-04-18T13:59:12.999Z</time></trkpt><trkpt lat="44.708032878412475" lon="9.377022826960493"><ele>338.33333333333337</ele><time>2026-04-18T13:59:13.999Z</time></trkpt><trkpt lat="44.70798738044112" lon="9.376948825113136"><ele>340.0</ele><time>2026-04-18T13:59:16.999Z</time></trkpt><trkpt lat="44.70790057980678" lon="9.376855636972726"><ele>341.6666666666667</ele><time>2026-04-18T13:59:44.999Z</time></trkpt><trkpt lat="44.707828423106804" lon="9.376841102992723"><ele>343.3333333333333</ele><time>2026-04-18T13:59:45.999Z</time></trkpt><trkpt lat="44.7077277232132" lon="9.376803423155845"><ele>345.0</ele><time>2026-04-18T13:59:46.999Z</time></trkpt><trkpt lat="44.70762013396276" lon="9.376846677707"><ele>345.0</ele><time>2026-04-18T13:59:47.999Z</time></trkpt><trkpt lat="44.70750779609141" lon="9.376862028688302"><ele>345.0</ele><time>2026-04-18T13:59:48.999Z</time></trkpt><trkpt lat="44.70741472315831" lon="9.3768657543458"><ele>345.0</ele><time>2026-04-18T13:59:49.999Z</time></trkpt><trkpt lat="44.707339772723216" lon="9.376856984689672"><ele>345.0</ele><time>2026-04-18T13:59:50.999Z</time></trkpt><trkpt lat="44.70720710446455" lon="9.376882097391169"><ele>345.0</ele><time>2026-04-18T13:59:52.999Z</time></trkpt><trkpt lat="44.7071294736605" lon="9.376929294063162"><ele>345.0</ele><time>2026-04-18T13:59:53.999Z</time></trkpt><trkpt lat="44.70704181492506" lon="9.377013998055965"><ele>345.0</ele><time>2026-04-18T13:59:54.999Z</time></trkpt><trkpt lat="44.70694842533654" lon="9.377142193404072"><ele>345.0</ele><time>2026-04-18T13:59:56Z</time></trkpt><trkpt lat="44.706874719058575" lon="9.377259191838956"><ele>345.0</ele><time>2026-04-18T13:59:57Z</time></trkpt><trkpt lat="44.70679358010676" lon="9.37733250717602"><ele>345.0</ele><time>2026-04-18T13:59:58Z</time></trkpt><trkpt lat="44.70669452993866" lon="9.377346710522389"><ele>345.8</ele><time>2026-04-18T13:59:59Z</time></trkpt><trkpt lat="44.70659454297138" lon="9.377309972671046"><ele>346.6</ele><time>2026-04-18T14:00:00Z</time></trkpt><trkpt lat="44.706494210989334" lon="9.377226772878302"><ele>347.4</ele><time>2026-04-18T14:00:01Z</time></trkpt><trkpt lat="44.70639477977865" lon="9.377128230118773"><ele>348.2</ele><time>2026-04-18T14:00:02Z</time></trkpt><trkpt lat="44.7063088269221" lon="9.377049205701626"><ele>349.0</ele><time>2026-04-18T14:00:03Z</time></trkpt><trkpt lat="44.70621068455425" lon="9.376963180413684"><ele>349.0</ele><time>2026-04-18T14:00:04Z</time></trkpt><trkpt lat="44.706098833409165" lon="9.37685776081311"><ele>349.0</ele><time>2026-04-18T14:00:05Z</time></trkpt><trkpt lat="44.705992405640686" lon="9.376752239230216"><ele>349.0</ele><time>2026-04-18T14:00:06Z</time></trkpt><trkpt lat="44.70589498541417" lon="9.376635712655435"><ele>349.0</ele><time>2026-04-18T14:00:07Z</time></trkpt><trkpt lat="44.70580278071576" lon="9.37649344023666"><ele>350.0</ele><time>2026-04-18T14:00:08Z</time></trkpt><trkpt lat="44.70573427038335" lon="9.376323217506043"><ele>351.0</ele><time>2026-04-18T14:00:09Z</time></trkpt><trkpt lat="44.70567487185595" lon="9.376129290980332"><ele>352.0</ele><time>2026-04-18T14:00:10Z</time></trkpt><trkpt lat="44.70562049259111" lon="9.375965363549563"><ele>353.0</ele><time>2026-04-18T14:00:11Z</time></trkpt><trkpt lat="44.705571626440204" lon="9.375818674987771"><ele>353.0</ele><time>2026-04-18T14:00:12Z</time></trkpt><trkpt lat="44.705536692601676" lon="9.375655228961898"><ele>353.0</ele><time>2026-04-18T14:00:13Z</time></trkpt><trkpt lat="44.7055317381994" lon="9.375478489077715"><ele>353.0</ele><time>2026-04-18T14:00:14Z</time></trkpt><trkpt lat="44.70556562066781" lon="9.3752939339197"><ele>353.0</ele><time>2026-04-18T14:00:15Z</time></trkpt><trkpt lat="44.70561799838394" lon="9.375105433852001"><ele>354.0</ele><time>2026-04-18T14:00:16Z</time></trkpt><trkpt lat="44.70566533719797" lon="9.374942891617161"><ele>355.0</ele><time>2026-04-18T14:00:17Z</time></trkpt><trkpt lat="44.70570960979122" lon="9.374794095721128"><ele>356.0</ele><time>2026-04-18T14:00:18Z</time></trkpt><trkpt lat="44.70575266475585" lon="9.374631546514392"><ele>357.0</ele><time>2026-04-18T14:00:19Z</time></trkpt><trkpt lat="44.70579553520872" lon="9.374462067402845"><ele>358.0</ele><time>2026-04-18T14:00:20Z</time></trkpt><trkpt lat="44.7058322775778" lon="9.374286333070891"><ele>359.0</ele><time>2026-04-18T14:00:21Z</time></trkpt><trkpt lat="44.70584500249966" lon="9.374103276090267"><ele>360.0</ele><time>2026-04-18T14:00:22Z</time></trkpt><trkpt lat="44.705824368854636" lon="9.373939781085788"><ele>361.0</ele><time>2026-04-18T14:00:23Z</time></trkpt><trkpt lat="44.705772137167436" lon="9.373807270245758"><ele>365.5</ele><time>2026-04-18T14:00:24Z</time></trkpt><trkpt lat="44.705691642333164" lon="9.373701719081252"><ele>370.0</ele><time>2026-04-18T14:00:25Z</time></trkpt><trkpt lat="44.70560939485072" lon="9.373549443379982"><ele>374.5</ele><time>2026-04-18T14:00:26Z</time></trkpt><trkpt lat="44.70549491304625" lon="9.373396273329206"><ele>379.0</ele><time>2026-04-18T14:00:27Z</time></trkpt><trkpt lat="44.705395574449916" lon="9.373227213595882"><ele>379.0</ele><time>2026-04-18T14:00:28Z</time></trkpt><trkpt lat="44.70530367476681" lon="9.373092196911049"><ele>379.0</ele><time>2026-04-18T14:00:29Z</time></trkpt><trkpt lat="44.7051953321764" lon="9.373020179413663"><ele>379.0</ele><time>2026-04-18T14:00:30Z</time></trkpt><trkpt lat="44.70506893320438" lon="9.37299161962688"><ele>379.0</ele><time>2026-04-18T14:00:31Z</time></trkpt><trkpt lat="44.70492566718113" lon="9.372958700711864"><ele>382.25</ele><time>2026-04-18T14:00:32Z</time></trkpt><trkpt lat="44.70478301811764" lon="9.37289090142459"><ele>385.5</ele><time>2026-04-18T14:00:33Z</time></trkpt><trkpt lat="44.70466784737619" lon="9.372808958648454"><ele>388.75</ele><time>2026-04-18T14:00:34Z</time></trkpt><trkpt lat="44.70455837209975" lon="9.372782322400479"><ele>392.0</ele><time>2026-04-18T14:00:35Z</time></trkpt><trkpt lat="44.704448753491505" lon="9.372802834791843"><ele>390.5</ele><time>2026-04-18T14:00:36Z</time></trkpt><trkpt lat="44.704329148505295" lon="9.37284579337253"><ele>389.0</ele><time>2026-04-18T14:00:37Z</time></trkpt><trkpt lat="44.70419999350226" lon="9.372867768888526"><ele>387.5</ele><time>2026-04-18T14:00:38Z</time></trkpt><trkpt lat="44.70407434274448" lon="9.372818417376726"><ele>386.0</ele><time>2026-04-18T14:00:39Z</time></trkpt><trkpt lat="44.70396644902253" lon="9.372742269318481"><ele>386.0</ele><time>2026-04-18T14:00:40Z</time></trkpt><trkpt lat="44.7038449255887" lon="9.372647898820277"><ele>386.0</ele><time>2026-04-18T14:00:41Z</time></trkpt><trkpt lat="44.70372065309485" lon="9.372533256467982"><ele>386.0</ele><time>2026-04-18T14:00:42Z</time></trkpt><trkpt lat="44.7036195176318" lon="9.372380206633117"><ele>386.0</ele><time>2026-04-18T14:00:43Z</time></trkpt><trkpt lat="44.70352983141041" lon="9.372215497441927"><ele>386.66666666666663</ele><time>2026-04-18T14:00:44Z</time></trkpt><trkpt lat="44.703424728777904" lon="9.372057435416945"><ele>387.33333333333337</ele><time>2026-04-18T14:00:45Z</time></trkpt><trkpt lat="44.70333586033673" lon="9.371873166525779"><ele>388.0</ele><time>2026-04-18T14:00:46Z</time></trkpt><trkpt lat="44.70323375467096" lon="9.371700354124103"><ele>388.0</ele><time>2026-04-18T14:00:47Z</time></trkpt><trkpt lat="44.703123219937616" lon="9.371567725686603"><ele>388.0</ele><time>2026-04-18T14:00:48Z</time></trkpt><trkpt lat="44.70300476230893" lon="9.371493218959305"><ele>388.0</ele><time>2026-04-18T14:00:49Z</time></trkpt><trkpt lat="44.702871882179274" lon="9.371449319783554"><ele>388.0</ele><time>2026-04-18T14:00:50Z</time></trkpt><trkpt lat="44.70272659037705" lon="9.371401744042423"><ele>392.0</ele><time>2026-04-18T14:00:51Z</time></trkpt><trkpt lat="44.70257771740645" lon="9.371344782721446"><ele>396.0</ele><time>2026-04-18T14:00:52Z</time></trkpt><trkpt lat="44.7024175285278" lon="9.371276539032195"><ele>400.0</ele><time>2026-04-18T14:00:53Z</time></trkpt><trkpt lat="44.70224969853898" lon="9.371213790454586"><ele>400.0</ele><time>2026-04-18T14:00:54Z</time></trkpt><trkpt lat="44.70210665849389" lon="9.37116047360445"><ele>400.0</ele><time>2026-04-18T14:00:55Z</time></trkpt><trkpt lat="44.701988220274885" lon="9.371083292492433"><ele>400.0</ele><time>2026-04-18T14:00:56Z</time></trkpt><trkpt lat="44.701887791668995" lon="9.370943063152065"><ele>400.0</ele><time>2026-04-18T14:00:57Z</time></trkpt><trkpt lat="44.70181231279671" lon="9.370787039455248"><ele>397.0</ele><time>2026-04-18T14:00:58Z</time></trkpt><trkpt lat="44.70177391111584" lon="9.370629471921761"><ele>394.0</ele><time>2026-04-18T14:00:59Z</time></trkpt><trkpt lat="44.70177976870914" lon="9.370454689371277"><ele>391.0</ele><time>2026-04-18T14:01:00Z</time></trkpt><trkpt lat="44.701824511248844" lon="9.370271811387642"><ele>388.0</ele><time>2026-04-18T14:01:01Z</time></trkpt><trkpt lat="44.7018933926864" lon="9.370117638357794"><ele>392.75</ele><time>2026-04-18T14:01:01.999Z</time></trkpt><trkpt lat="44.701931912972576" lon="9.369980804914812"><ele>397.5</ele><time>2026-04-18T14:01:02.999Z</time></trkpt><trkpt lat="44.701938974083944" lon="9.36983071978321"><ele>402.25</ele><time>2026-04-18T14:01:03.999Z</time></trkpt><trkpt lat="44.701849701339825" lon="9.36968170355289"><ele>407.0</ele><time>2026-04-18T14:01:04.999Z</time></trkpt><trkpt lat="44.701763208201776" lon="9.36951935064557"><ele>407.0</ele><time>2026-04-18T14:01:05.999Z</time></trkpt><trkpt lat="44.70172351351622" lon="9.369311032982893"><ele>407.0</ele><time>2026-04-18T14:01:06.999Z</time></trkpt><trkpt lat="44.70168943791421" lon="9.369115025956184"><ele>407.0</ele><time>2026-04-18T14:01:07.999Z</time></trkpt><trkpt lat="44.70165413250775" lon="9.368955615374471"><ele>407.0</ele><time>2026-04-18T14:01:08.999Z</time></trkpt><trkpt lat="44.701571756634195" lon="9.368815632934533"><ele>414.3333333333333</ele><time>2026-04-18T14:01:09.999Z</time></trkpt><trkpt lat="44.70145697699609" lon="9.368686094222161"><ele>421.66666666666663</ele><time>2026-04-18T14:01:10.999Z</time></trkpt><trkpt lat="44.701353921977585" lon="9.36853514137419"><ele>429.0</ele><time>2026-04-18T14:01:11.999Z</time></trkpt><trkpt lat="44.70130097888103" lon="9.368313110739301"><ele>429.0</ele><time>2026-04-18T14:01:12.999Z</time></trkpt><trkpt lat="44.70121862770376" lon="9.368109680964528"><ele>429.0</ele><time>2026-04-18T14:01:13.999Z</time></trkpt><trkpt lat="44.70114243829714" lon="9.367933895456119"><ele>429.0</ele><time>2026-04-18T14:01:14.999Z</time></trkpt><trkpt lat="44.701022068245464" lon="9.367785032580935"><ele>424.33333333333337</ele><time>2026-04-18T14:01:15.999Z</time></trkpt><trkpt lat="44.70086925774817" lon="9.367649071343985"><ele>419.6666666666667</ele><time>2026-04-18T14:01:16.999Z</time></trkpt><trkpt lat="44.700749252662476" lon="9.367507699436787"><ele>415.0</ele><time>2026-04-18T14:01:17.999Z</time></trkpt><trkpt lat="44.70062634390317" lon="9.367404427390735"><ele>415.0</ele><time>2026-04-18T14:01:18.999Z</time></trkpt><trkpt lat="44.700528117619946" lon="9.367280530619361"><ele>415.0</ele><time>2026-04-18T14:01:19.999Z</time></trkpt><trkpt lat="44.70046958148146" lon="9.367131238938855"><ele>415.0</ele><time>2026-04-18T14:01:20.999Z</time></trkpt><trkpt lat="44.700453429689084" lon="9.366963200694363"><ele>415.0</ele><time>2026-04-18T14:01:21.999Z</time></trkpt><trkpt lat="44.700479756125084" lon="9.366774483382603"><ele>420.0</ele><time>2026-04-18T14:01:22.999Z</time></trkpt><trkpt lat="44.70052973824385" lon="9.366608856336027"><ele>425.0</ele><time>2026-04-18T14:01:23.999Z</time></trkpt><trkpt lat="44.70053405605223" lon="9.36646979814785"><ele>430.0</ele><time>2026-04-18T14:01:24.999Z</time></trkpt><trkpt lat="44.70048889309331" lon="9.366336538042797"><ele>435.0</ele><time>2026-04-18T14:01:25.999Z</time></trkpt><trkpt lat="44.70039594443295" lon="9.366216460002404"><ele>436.5</ele><time>2026-04-18T14:01:26.999Z</time></trkpt><trkpt lat="44.70029111889613" lon="9.366145934347069"><ele>438.0</ele><time>2026-04-18T14:01:27.999Z</time></trkpt><trkpt lat="44.700167929794006" lon="9.366141906015585"><ele>439.5</ele><time>2026-04-18T14:01:28.999Z</time></trkpt><trkpt lat="44.70001663378557" lon="9.366183833422307"><ele>441.0</ele><time>2026-04-18T14:01:29.999Z</time></trkpt><trkpt lat="44.69984603594624" lon="9.366213974539646"><ele>441.0</ele><time>2026-04-18T14:01:30.999Z</time></trkpt><trkpt lat="44.69966664232588" lon="9.366281740427953"><ele>441.0</ele><time>2026-04-18T14:01:31.999Z</time></trkpt><trkpt lat="44.699518121740645" lon="9.366317123687136"><ele>441.0</ele><time>2026-04-18T14:01:32.999Z</time></trkpt><trkpt lat="44.69939047257401" lon="9.366348333367617"><ele>436.5</ele><time>2026-04-18T14:01:33.999Z</time></trkpt><trkpt lat="44.69928315833527" lon="9.366324259166309"><ele>432.0</ele><time>2026-04-18T14:01:34.999Z</time></trkpt><trkpt lat="44.69920122480809" lon="9.366195260917456"><ele>427.5</ele><time>2026-04-18T14:01:35.999Z</time></trkpt><trkpt lat="44.69908302594801" lon="9.366107136849738"><ele>423.0</ele><time>2026-04-18T14:01:36.999Z</time></trkpt><trkpt lat="44.69896170990676" lon="9.366038273556896"><ele>423.0</ele><time>2026-04-18T14:01:37.999Z</time></trkpt><trkpt lat="44.698878016736295" lon="9.365957253557825"><ele>423.0</ele><time>2026-04-18T14:01:38.999Z</time></trkpt><trkpt lat="44.69885309950366" lon="9.365835421366663"><ele>423.0</ele><time>2026-04-18T14:01:39.999Z</time></trkpt><trkpt lat="44.698870240466476" lon="9.3656981781876"><ele>423.0</ele><time>2026-04-18T14:01:40.999Z</time></trkpt><trkpt lat="44.69888726084127" lon="9.365549186091256"><ele>423.0</ele><time>2026-04-18T14:01:41.999Z</time></trkpt><trkpt lat="44.698848315687954" lon="9.365387764388837"><ele>421.5</ele><time>2026-04-18T14:01:42.999Z</time></trkpt><trkpt lat="44.69877384613226" lon="9.36521428392271"><ele>420.0</ele><time>2026-04-18T14:01:43.999Z</time></trkpt><trkpt lat="44.69870175062737" lon="9.365053059601049"><ele>418.5</ele><time>2026-04-18T14:01:44.999Z</time></trkpt><trkpt lat="44.698631382604944" lon="9.364916415464448"><ele>417.0</ele><time>2026-04-18T14:01:45.999Z</time></trkpt><trkpt lat="44.698538816259315" lon="9.364828391585515"><ele>417.0</ele><time>2026-04-18T14:01:46.999Z</time></trkpt><trkpt lat="44.698415698867976" lon="9.364793977286123"><ele>417.0</ele><time>2026-04-18T14:01:47.999Z</time></trkpt><trkpt lat="44.69830260164759" lon="9.364799602581824"><ele>417.0</ele><time>2026-04-18T14:01:48.999Z</time></trkpt><trkpt lat="44.698205667301934" lon="9.364766955355922"><ele>417.0</ele><time>2026-04-18T14:01:49.999Z</time></trkpt><trkpt lat="44.69810366824856" lon="9.364684540236846"><ele>428.25</ele><time>2026-04-18T14:01:50.999Z</time></trkpt><trkpt lat="44.698009533345825" lon="9.364558173037363"><ele>439.5</ele><time>2026-04-18T14:01:51.999Z</time></trkpt><trkpt lat="44.69793109306891" lon="9.364388651784019"><ele>450.75</ele><time>2026-04-18T14:01:52.999Z</time></trkpt><trkpt lat="44.69786736361998" lon="9.36422544063602"><ele>462.0</ele><time>2026-04-18T14:01:53.999Z</time></trkpt><trkpt lat="44.69780955627894" lon="9.364098315603574"><ele>455.25</ele><time>2026-04-18T14:01:54.999Z</time></trkpt><trkpt lat="44.69772259058661" lon="9.364030662291027"><ele>448.5</ele><time>2026-04-18T14:01:55.999Z</time></trkpt><trkpt lat="44.69758981484781" lon="9.364018720955483"><ele>441.75</ele><time>2026-04-18T14:01:56.999Z</time></trkpt><trkpt lat="44.697420214124946" lon="9.364029787328478"><ele>435.0</ele><time>2026-04-18T14:01:57.999Z</time></trkpt><trkpt lat="44.697249730603616" lon="9.363983663893757"><ele>435.0</ele><time>2026-04-18T14:01:58.999Z</time></trkpt><trkpt lat="44.69710500470445" lon="9.36393425374519"><ele>435.0</ele><time>2026-04-18T14:01:59.999Z</time></trkpt><trkpt lat="44.696975363046036" lon="9.363957114133092"><ele>435.0</ele><time>2026-04-18T14:02:00.999Z</time></trkpt><trkpt lat="44.69684382888363" lon="9.364021481031925"><ele>435.0</ele><time>2026-04-18T14:02:02Z</time></trkpt><trkpt lat="44.6967014180843" lon="9.364058477033822"><ele>438.0</ele><time>2026-04-18T14:02:03Z</time></trkpt><trkpt lat="44.69654333662151" lon="9.364031428949652"><ele>441.0</ele><time>2026-04-18T14:02:04Z</time></trkpt><trkpt lat="44.69636833055191" lon="9.36398939806151"><ele>444.0</ele><time>2026-04-18T14:02:05Z</time></trkpt><trkpt lat="44.6962014318191" lon="9.363975014019918"><ele>442.5</ele><time>2026-04-18T14:02:06Z</time></trkpt><trkpt lat="44.696070756010634" lon="9.363951299230857"><ele>441.0</ele><time>2026-04-18T14:02:07Z</time></trkpt><trkpt lat="44.695946290498334" lon="9.363910728346205"><ele>439.5</ele><time>2026-04-18T14:02:08Z</time></trkpt><trkpt lat="44.695813855674196" lon="9.363835327569262"><ele>438.0</ele><time>2026-04-18T14:02:09Z</time></trkpt><trkpt lat="44.69566639421803" lon="9.363797589977137"><ele>440.66666666666663</ele><time>2026-04-18T14:02:10Z</time></trkpt><trkpt lat="44.69549053527955" lon="9.363805753731393"><ele>443.3333333333333</ele><time>2026-04-18T14:02:11Z</time></trkpt><trkpt lat="44.6952900679185" lon="9.36385654754367"><ele>446.0</ele><time>2026-04-18T14:02:12Z</time></trkpt><trkpt lat="44.69508515854117" lon="9.363899376172641"><ele>446.0</ele><time>2026-04-18T14:02:13Z</time></trkpt><trkpt lat="44.694908750587985" lon="9.3639376306485"><ele>446.0</ele><time>2026-04-18T14:02:14Z</time></trkpt><trkpt lat="44.69475679289402" lon="9.363962577865173"><ele>446.0</ele><time>2026-04-18T14:02:15Z</time></trkpt><trkpt lat="44.694617940366086" lon="9.363990994145034"><ele>445.99999999999994</ele><time>2026-04-18T14:02:16Z</time></trkpt><trkpt lat="44.69449713684336" lon="9.36399140213679"><ele>446.0</ele><time>2026-04-18T14:02:17Z</time></trkpt><trkpt lat="44.694395313942984" lon="9.364004612328383"><ele>446.0</ele><time>2026-04-18T14:02:18Z</time></trkpt><trkpt lat="44.694308732901185" lon="9.363983599230279"><ele>446.0</ele><time>2026-04-18T14:02:19Z</time></trkpt><trkpt lat="44.69427839853068" lon="9.363902040103103"><ele>445.99999999999994</ele><time>2026-04-18T14:02:20Z</time></trkpt><trkpt lat="44.69428707316404" lon="9.363813552640703"><ele>446.0</ele><time>2026-04-18T14:02:21Z</time></trkpt><trkpt lat="44.69433725091901" lon="9.363742642261494"><ele>442.0</ele><time>2026-04-18T14:02:22Z</time></trkpt><trkpt lat="44.69442061436185" lon="9.363693538901503"><ele>438.0</ele><time>2026-04-18T14:02:23Z</time></trkpt><trkpt lat="44.69451214965809" lon="9.363643827446264"><ele>434.0</ele><time>2026-04-18T14:02:24Z</time></trkpt><trkpt lat="44.69459396286534" lon="9.363556246262908"><ele>430.0</ele><time>2026-04-18T14:02:25Z</time></trkpt><trkpt lat="44.69464924323046" lon="9.363456594319333"><ele>426.0</ele><time>2026-04-18T14:02:26Z</time></trkpt><trkpt lat="44.69464393762801" lon="9.363327447599147"><ele>431.8333333333333</ele><time>2026-04-18T14:02:27Z</time></trkpt><trkpt lat="44.69463636016404" lon="9.363223993801101"><ele>437.66666666666663</ele><time>2026-04-18T14:02:28Z</time></trkpt><trkpt lat="44.694620469567255" lon="9.36313447618584"><ele>443.5</ele><time>2026-04-18T14:02:29Z</time></trkpt><trkpt lat="44.6945998495661" lon="9.363009881158277"><ele>449.3333333333333</ele><time>2026-04-18T14:02:31Z</time></trkpt><trkpt lat="44.694615258877114" lon="9.362880534348148"><ele>455.16666666666663</ele><time>2026-04-18T14:02:34Z</time></trkpt><trkpt lat="44.69463842203613" lon="9.362795371857452"><ele>461.0</ele><time>2026-04-18T14:02:36Z</time></trkpt><trkpt lat="44.69466846481495" lon="9.362713890879375"><ele>460.99999999999994</ele><time>2026-04-18T14:02:38Z</time></trkpt><trkpt lat="44.69472442708937" lon="9.362625182453828"><ele>461.0</ele><time>2026-04-18T14:02:41Z</time></trkpt><trkpt lat="44.694766828839974" lon="9.362542188173801"><ele>461.0</ele><time>2026-04-18T14:02:44Z</time></trkpt><trkpt lat="44.694707636195844" lon="9.362573943700566"><ele>461.0</ele><time>2026-04-18T14:04:37Z</time></trkpt><trkpt lat="44.694656616560664" lon="9.362684816325963"><ele>460.99999999999994</ele><time>2026-04-18T14:04:39Z</time></trkpt><trkpt lat="44.69461544982435" lon="9.362778352031434"><ele>461.0</ele><time>2026-04-18T14:04:41Z</time></trkpt><trkpt lat="44.69458425536964" lon="9.362921364336636"><ele>461.0</ele><time>2026-04-18T14:04:43Z</time></trkpt><trkpt lat="44.69458269369269" lon="9.363010082709001"><ele>461.00000000000006</ele><time>2026-04-18T14:04:44Z</time></trkpt><trkpt lat="44.69459220726158" lon="9.363100806455304"><ele>461.0</ele><time>2026-04-18T14:04:45Z</time></trkpt><trkpt lat="44.694602547693684" lon="9.36319427290989"><ele>461.0</ele><time>2026-04-18T14:04:46Z</time></trkpt><trkpt lat="44.6946116399412" lon="9.363288197712343"><ele>461.00000000000006</ele><time>2026-04-18T14:04:47Z</time></trkpt><trkpt lat="44.69462174249823" lon="9.363384298218568"><ele>461.0</ele><time>2026-04-18T14:04:48Z</time></trkpt><trkpt lat="44.69461664967463" lon="9.363481948247141"><ele>461.0</ele><time>2026-04-18T14:04:49Z</time></trkpt><trkpt lat="44.694583152300375" lon="9.363559312819508"><ele>462.49999999999994</ele><time>2026-04-18T14:04:50Z</time></trkpt><trkpt lat="44.69451598398016" lon="9.363600487637521"><ele>464.0</ele><time>2026-04-18T14:04:51Z</time></trkpt><trkpt lat="44.694437868257694" lon="9.363639171757988"><ele>465.5</ele><time>2026-04-18T14:04:52Z</time></trkpt><trkpt lat="44.694359336037145" lon="9.363680949641031"><ele>467.0</ele><time>2026-04-18T14:04:53Z</time></trkpt><trkpt lat="44.69429955875894" lon="9.363732212237016"><ele>468.49999999999994</ele><time>2026-04-18T14:04:54Z</time></trkpt><trkpt lat="44.694264708984306" lon="9.363825731285557"><ele>470.0</ele><time>2026-04-18T14:04:55Z</time></trkpt><trkpt lat="44.69425105339019" lon="9.363923687153372"><ele>465.99999999999994</ele><time>2026-04-18T14:04:56Z</time></trkpt><trkpt lat="44.694283810947454" lon="9.364019294043397"><ele>462.0</ele><time>2026-04-18T14:04:57Z</time></trkpt><trkpt lat="44.694378439713596" lon="9.364043192079471"><ele>458.0</ele><time>2026-04-18T14:04:58Z</time></trkpt><trkpt lat="44.694459400352486" lon="9.364043292189322"><ele>454.0</ele><time>2026-04-18T14:04:59Z</time></trkpt><trkpt lat="44.6945458239097" lon="9.364023025146698"><ele>449.99999999999994</ele><time>2026-04-18T14:05:00Z</time></trkpt><trkpt lat="44.69462644003853" lon="9.36400166461918"><ele>446.0</ele><time>2026-04-18T14:05:01Z</time></trkpt><trkpt lat="44.694695624212116" lon="9.363988551419732"><ele>445.99999999999994</ele><time>2026-04-18T14:05:02Z</time></trkpt><trkpt lat="44.69478077060983" lon="9.36397891619903"><ele>446.0</ele><time>2026-04-18T14:05:03Z</time></trkpt><trkpt lat="44.6948733702187" lon="9.363964388328123"><ele>446.0</ele><time>2026-04-18T14:05:04Z</time></trkpt><trkpt lat="44.69495336218756" lon="9.36394794610903"><ele>446.0</ele><time>2026-04-18T14:05:05Z</time></trkpt><trkpt lat="44.69503076244634" lon="9.363935481465992"><ele>445.99999999999994</ele><time>2026-04-18T14:05:06Z</time></trkpt><trkpt lat="44.695117041454914" lon="9.363919484965944"><ele>446.0</ele><time>2026-04-18T14:05:07Z</time></trkpt><trkpt lat="44.69520586384512" lon="9.363905258031602"><ele>444.4</ele><time>2026-04-18T14:05:08Z</time></trkpt><trkpt lat="44.69530295295068" lon="9.36388396202791"><ele>442.8</ele><time>2026-04-18T14:05:09Z</time></trkpt><trkpt lat="44.69541126799154" lon="9.363868769119462"><ele>441.19999999999993</ele><time>2026-04-18T14:05:10Z</time></trkpt><trkpt lat="44.69550989834581" lon="9.363852008629738"><ele>439.59999999999997</ele><time>2026-04-18T14:05:11Z</time></trkpt><trkpt lat="44.69559812293235" lon="9.363841975508702"><ele>438.0</ele><time>2026-04-18T14:05:12Z</time></trkpt><trkpt lat="44.69567201735022" lon="9.363839443249985"><ele>438.0</ele><time>2026-04-18T14:05:12.999Z</time></trkpt><trkpt lat="44.69574367930507" lon="9.363854942166862"><ele>438.0</ele><time>2026-04-18T14:05:13.999Z</time></trkpt><trkpt lat="44.69582711265863" lon="9.363894890968274"><ele>438.0</ele><time>2026-04-18T14:05:14.999Z</time></trkpt><trkpt lat="44.695898910256574" lon="9.363949209391544"><ele>438.0</ele><time>2026-04-18T14:05:15.999Z</time></trkpt><trkpt lat="44.69597657124856" lon="9.363989762452723"><ele>438.0</ele><time>2026-04-18T14:05:16.999Z</time></trkpt><trkpt lat="44.69604946625571" lon="9.363990418610765"><ele>438.0</ele><time>2026-04-18T14:05:17.999Z</time></trkpt><trkpt lat="44.69629428110081" lon="9.364050772043111"><ele>439.5</ele><time>2026-04-18T14:05:18.999Z</time></trkpt><trkpt lat="44.696402807362816" lon="9.364058365913069"><ele>441.0</ele><time>2026-04-18T14:05:19.999Z</time></trkpt><trkpt lat="44.696536033858294" lon="9.364076546792544"><ele>442.5</ele><time>2026-04-18T14:05:20.999Z</time></trkpt><trkpt lat="44.69667791258104" lon="9.364095811399991"><ele>444.0</ele><time>2026-04-18T14:05:21.999Z</time></trkpt><trkpt lat="44.69679723334015" lon="9.364107520540431"><ele>444.0</ele><time>2026-04-18T14:05:22.999Z</time></trkpt><trkpt lat="44.696914005782546" lon="9.364094524227731"><ele>444.0</ele><time>2026-04-18T14:05:23.999Z</time></trkpt><trkpt lat="44.69703418962095" lon="9.364034802562308"><ele>444.0</ele><time>2026-04-18T14:05:24.999Z</time></trkpt><trkpt lat="44.697147251210374" lon="9.36397098098173"><ele>444.0</ele><time>2026-04-18T14:05:25.999Z</time></trkpt><trkpt lat="44.69725723438328" lon="9.364041357069057"><ele>441.75</ele><time>2026-04-18T14:05:26.999Z</time></trkpt><trkpt lat="44.697393428142696" lon="9.364058072878835"><ele>439.5</ele><time>2026-04-18T14:05:27.999Z</time></trkpt><trkpt lat="44.69753812562085" lon="9.364058275697847"><ele>437.25</ele><time>2026-04-18T14:05:28.999Z</time></trkpt><trkpt lat="44.697656417528755" lon="9.364066773637587"><ele>435.0</ele><time>2026-04-18T14:05:29.999Z</time></trkpt><trkpt lat="44.697761954630344" lon="9.364070590908945"><ele>440.4</ele><time>2026-04-18T14:05:30.999Z</time></trkpt><trkpt lat="44.69783344537527" lon="9.364152669047822"><ele>445.8</ele><time>2026-04-18T14:05:31.999Z</time></trkpt><trkpt lat="44.69785127060209" lon="9.364269099137976"><ele>451.20000000000005</ele><time>2026-04-18T14:05:32.999Z</time></trkpt><trkpt lat="44.697911084942874" lon="9.364416727457764"><ele>456.6</ele><time>2026-04-18T14:05:33.999Z</time></trkpt><trkpt lat="44.69798401368645" lon="9.364578397848927"><ele>462.0</ele><time>2026-04-18T14:05:34.999Z</time></trkpt><trkpt lat="44.69807000291267" lon="9.364688484833888"><ele>450.75</ele><time>2026-04-18T14:05:35.999Z</time></trkpt><trkpt lat="44.69815823717067" lon="9.364794139251742"><ele>439.5</ele><time>2026-04-18T14:05:36.999Z</time></trkpt><trkpt lat="44.69827430699475" lon="9.364863513374425"><ele>428.25</ele><time>2026-04-18T14:05:37.999Z</time></trkpt><trkpt lat="44.6984006207641" lon="9.36488221194708"><ele>417.0</ele><time>2026-04-18T14:05:38.999Z</time></trkpt><trkpt lat="44.69851013308859" lon="9.36487153556814"><ele>428.0</ele><time>2026-04-18T14:05:39.999Z</time></trkpt><trkpt lat="44.698608468637005" lon="9.364903383136966"><ele>439.0</ele><time>2026-04-18T14:05:40.999Z</time></trkpt><trkpt lat="44.698653437732716" lon="9.365021446897874"><ele>450.0</ele><time>2026-04-18T14:05:41.999Z</time></trkpt><trkpt lat="44.69871711822688" lon="9.365193304692623"><ele>461.0</ele><time>2026-04-18T14:05:42.999Z</time></trkpt><trkpt lat="44.69879510434574" lon="9.365343997097272"><ele>461.0</ele><time>2026-04-18T14:05:43.999Z</time></trkpt><trkpt lat="44.69884773678568" lon="9.365490355894067"><ele>461.0</ele><time>2026-04-18T14:05:44.999Z</time></trkpt><trkpt lat="44.69885694879252" lon="9.365639373746488"><ele>461.0</ele><time>2026-04-18T14:05:45.999Z</time></trkpt><trkpt lat="44.698833643122164" lon="9.365768884366899"><ele>461.0</ele><time>2026-04-18T14:05:46.999Z</time></trkpt><trkpt lat="44.698840507682604" lon="9.36589642685245"><ele>461.0</ele><time>2026-04-18T14:05:47.999Z</time></trkpt><trkpt lat="44.69885623572196" lon="9.366022313525626"><ele>453.4</ele><time>2026-04-18T14:05:48.999Z</time></trkpt><trkpt lat="44.698965831576835" lon="9.366101591937479"><ele>445.8</ele><time>2026-04-18T14:05:49.999Z</time></trkpt><trkpt lat="44.69906477530368" lon="9.36614975636209"><ele>438.2</ele><time>2026-04-18T14:05:50.999Z</time></trkpt><trkpt lat="44.699168395614386" lon="9.366199766983824"><ele>430.59999999999997</ele><time>2026-04-18T14:05:51.999Z</time></trkpt><trkpt lat="44.69924425837694" lon="9.366313056104731"><ele>423.0</ele><time>2026-04-18T14:05:52.999Z</time></trkpt><trkpt lat="44.69933414802201" lon="9.366357574157876"><ele>427.5</ele><time>2026-04-18T14:05:53.999Z</time></trkpt><trkpt lat="44.699434572200204" lon="9.366407177878433"><ele>432.0</ele><time>2026-04-18T14:05:54.999Z</time></trkpt><trkpt lat="44.69957284428263" lon="9.366351980359374"><ele>436.5</ele><time>2026-04-18T14:05:55.999Z</time></trkpt><trkpt lat="44.69971360395844" lon="9.366297185416942"><ele>441.0</ele><time>2026-04-18T14:05:56.999Z</time></trkpt><trkpt lat="44.69984952010548" lon="9.366242062534349"><ele>441.0</ele><time>2026-04-18T14:05:57.999Z</time></trkpt><trkpt lat="44.69998570342144" lon="9.366202378681319"><ele>441.0</ele><time>2026-04-18T14:05:58.999Z</time></trkpt><trkpt lat="44.70010014539022" lon="9.366179721497591"><ele>441.0</ele><time>2026-04-18T14:05:59.999Z</time></trkpt><trkpt lat="44.700200188400956" lon="9.366172109940301"><ele>441.0</ele><time>2026-04-18T14:06:00.999Z</time></trkpt><trkpt lat="44.70029609596889" lon="9.366171223939919"><ele>440.0</ele><time>2026-04-18T14:06:01.999Z</time></trkpt><trkpt lat="44.70037415959542" lon="9.366228823361821"><ele>439.0</ele><time>2026-04-18T14:06:02.999Z</time></trkpt><trkpt lat="44.700430762899465" lon="9.366328036742829"><ele>438.0</ele><time>2026-04-18T14:06:03.999Z</time></trkpt><trkpt lat="44.70049657260274" lon="9.366416094945066"><ele>437.0</ele><time>2026-04-18T14:06:04.999Z</time></trkpt><trkpt lat="44.70052571577068" lon="9.366529838041727"><ele>436.0</ele><time>2026-04-18T14:06:05.999Z</time></trkpt><trkpt lat="44.70048143562198" lon="9.366646184317585"><ele>435.0</ele><time>2026-04-18T14:06:06.999Z</time></trkpt><trkpt lat="44.700441471489015" lon="9.366778240258261"><ele>435.0</ele><time>2026-04-18T14:06:07.999Z</time></trkpt><trkpt lat="44.70042255738525" lon="9.366941936692053"><ele>435.0</ele><time>2026-04-18T14:06:08.999Z</time></trkpt><trkpt lat="44.700430520096226" lon="9.367121359595885"><ele>435.0</ele><time>2026-04-18T14:06:09.999Z</time></trkpt><trkpt lat="44.700482495508076" lon="9.367278197946444"><ele>435.0</ele><time>2026-04-18T14:06:10.999Z</time></trkpt><trkpt lat="44.70056026621714" lon="9.367384685800642"><ele>430.0</ele><time>2026-04-18T14:06:11.999Z</time></trkpt><trkpt lat="44.70065537798482" lon="9.36747783069818"><ele>425.0</ele><time>2026-04-18T14:06:12.999Z</time></trkpt><trkpt lat="44.7007723018885" lon="9.367585238307575"><ele>420.0</ele><time>2026-04-18T14:06:14Z</time></trkpt><trkpt lat="44.70090526429878" lon="9.367703427111731"><ele>415.0</ele><time>2026-04-18T14:06:15Z</time></trkpt><trkpt lat="44.70101722892598" lon="9.36781219794233"><ele>418.5</ele><time>2026-04-18T14:06:16Z</time></trkpt><trkpt lat="44.70111716650998" lon="9.367921770442992"><ele>422.0</ele><time>2026-04-18T14:06:17Z</time></trkpt><trkpt lat="44.70118803635888" lon="9.368093527033796"><ele>425.5</ele><time>2026-04-18T14:06:18Z</time></trkpt><trkpt lat="44.70125625840226" lon="9.36828801058091"><ele>429.0</ele><time>2026-04-18T14:06:19Z</time></trkpt><trkpt lat="44.701319616304914" lon="9.368459116293442"><ele>429.0</ele><time>2026-04-18T14:06:20Z</time></trkpt><trkpt lat="44.70137591560854" lon="9.368621164412325"><ele>429.0</ele><time>2026-04-18T14:06:21Z</time></trkpt><trkpt lat="44.701462736234404" lon="9.36874551209173"><ele>429.0</ele><time>2026-04-18T14:06:22Z</time></trkpt><trkpt lat="44.70156445505769" lon="9.368842866595887"><ele>429.0</ele><time>2026-04-18T14:06:23Z</time></trkpt><trkpt lat="44.70163374756853" lon="9.368954242423207"><ele>423.5</ele><time>2026-04-18T14:06:24Z</time></trkpt><trkpt lat="44.70166274626318" lon="9.369088079002958"><ele>418.0</ele><time>2026-04-18T14:06:25Z</time></trkpt><trkpt lat="44.701687835423236" lon="9.369272185536445"><ele>412.5</ele><time>2026-04-18T14:06:26Z</time></trkpt><trkpt lat="44.701729940338836" lon="9.369455678408231"><ele>407.0</ele><time>2026-04-18T14:06:27Z</time></trkpt><trkpt lat="44.70177738843705" lon="9.369618939006289"><ele>408.8</ele><time>2026-04-18T14:06:28Z</time></trkpt><trkpt lat="44.70185096624696" lon="9.369754014782496"><ele>410.6</ele><time>2026-04-18T14:06:29Z</time></trkpt><trkpt lat="44.70191896442049" lon="9.369874657558125"><ele>412.40000000000003</ele><time>2026-04-18T14:06:30Z</time></trkpt><trkpt lat="44.70193863233388" lon="9.369996111087836"><ele>414.20000000000005</ele><time>2026-04-18T14:06:31Z</time></trkpt><trkpt lat="44.70188005309409" lon="9.370120244427222"><ele>416.0</ele><time>2026-04-18T14:06:32Z</time></trkpt><trkpt lat="44.701793918035136" lon="9.370256717397382"><ele>409.0</ele><time>2026-04-18T14:06:33Z</time></trkpt><trkpt lat="44.701754328925816" lon="9.370442309386497"><ele>402.0</ele><time>2026-04-18T14:06:34Z</time></trkpt><trkpt lat="44.70173806505439" lon="9.370606653880998"><ele>395.0</ele><time>2026-04-18T14:06:35Z</time></trkpt><trkpt lat="44.70176310658477" lon="9.370759378976437"><ele>388.0</ele><time>2026-04-18T14:06:36Z</time></trkpt><trkpt lat="44.70182756675061" lon="9.370903426196783"><ele>391.0</ele><time>2026-04-18T14:06:37Z</time></trkpt><trkpt lat="44.70192701041797" lon="9.371035563654088"><ele>394.0</ele><time>2026-04-18T14:06:38Z</time></trkpt><trkpt lat="44.702055737001615" lon="9.371154633841053"><ele>397.0</ele><time>2026-04-18T14:06:39Z</time></trkpt><trkpt lat="44.70219028112649" lon="9.37122824534207"><ele>400.0</ele><time>2026-04-18T14:06:40Z</time></trkpt><trkpt lat="44.70231379459523" lon="9.371261464644464"><ele>400.0</ele><time>2026-04-18T14:06:41Z</time></trkpt><trkpt lat="44.70242652004161" lon="9.371293977926959"><ele>400.0</ele><time>2026-04-18T14:06:42Z</time></trkpt><trkpt lat="44.70254728745628" lon="9.371341712688823"><ele>400.0</ele><time>2026-04-18T14:06:43Z</time></trkpt><trkpt lat="44.70268397089638" lon="9.371395703506282"><ele>400.0</ele><time>2026-04-18T14:06:44Z</time></trkpt><trkpt lat="44.70282884305663" lon="9.371457005073287"><ele>397.0</ele><time>2026-04-18T14:06:45Z</time></trkpt><trkpt lat="44.70296804711853" lon="9.37151371560348"><ele>394.0</ele><time>2026-04-18T14:06:46Z</time></trkpt><trkpt lat="44.703088744363875" lon="9.371564212325934"><ele>391.0</ele><time>2026-04-18T14:06:47Z</time></trkpt><trkpt lat="44.70318780836828" lon="9.371669188008166"><ele>388.0</ele><time>2026-04-18T14:06:48Z</time></trkpt><trkpt lat="44.7032746086641" lon="9.371815406993361"><ele>388.0</ele><time>2026-04-18T14:06:49Z</time></trkpt><trkpt lat="44.70337139968633" lon="9.37199391291838"><ele>388.0</ele><time>2026-04-18T14:06:50Z</time></trkpt><trkpt lat="44.70347278784021" lon="9.37216621895335"><ele>388.0</ele><time>2026-04-18T14:06:51Z</time></trkpt><trkpt lat="44.70355422079863" lon="9.372334819005433"><ele>387.5</ele><time>2026-04-18T14:06:52Z</time></trkpt><trkpt lat="44.70363602873944" lon="9.372486457475796"><ele>387.0</ele><time>2026-04-18T14:06:53Z</time></trkpt><trkpt lat="44.70373973904956" lon="9.372622911754776"><ele>386.5</ele><time>2026-04-18T14:06:54Z</time></trkpt><trkpt lat="44.70386789567432" lon="9.37273567732978"><ele>386.0</ele><time>2026-04-18T14:06:55Z</time></trkpt><trkpt lat="44.70400046942254" lon="9.372819834010084"><ele>386.0</ele><time>2026-04-18T14:06:56Z</time></trkpt><trkpt lat="44.70412023409084" lon="9.372878473966963"><ele>386.0</ele><time>2026-04-18T14:06:57Z</time></trkpt><trkpt lat="44.70424444194571" lon="9.37289951534356"><ele>386.0</ele><time>2026-04-18T14:06:58Z</time></trkpt><trkpt lat="44.70438303728108" lon="9.372871546641012"><ele>386.0</ele><time>2026-04-18T14:06:59Z</time></trkpt><trkpt lat="44.704512947168986" lon="9.37282913126308"><ele>387.5</ele><time>2026-04-18T14:07:00Z</time></trkpt><trkpt lat="44.70462839622472" lon="9.372806956777582"><ele>389.0</ele><time>2026-04-18T14:07:01Z</time></trkpt><trkpt lat="44.70472783068872" lon="9.372859468494733"><ele>390.5</ele><time>2026-04-18T14:07:02Z</time></trkpt><trkpt lat="44.70483273827862" lon="9.3729568850475"><ele>392.0</ele><time>2026-04-18T14:07:03Z</time></trkpt><trkpt lat="44.70495959691967" lon="9.373011749937893"><ele>388.75</ele><time>2026-04-18T14:07:04Z</time></trkpt><trkpt lat="44.70509318448969" lon="9.373048295529511"><ele>385.5</ele><time>2026-04-18T14:07:05Z</time></trkpt><trkpt lat="44.7052127844056" lon="9.373051384769893"><ele>382.25</ele><time>2026-04-18T14:07:06Z</time></trkpt><trkpt lat="44.70530339656506" lon="9.373135139790385"><ele>379.0</ele><time>2026-04-18T14:07:07Z</time></trkpt><trkpt lat="44.70537425960622" lon="9.373244604516387"><ele>379.0</ele><time>2026-04-18T14:07:08Z</time></trkpt><trkpt lat="44.70546709260405" lon="9.373376578527388"><ele>379.0</ele><time>2026-04-18T14:07:09Z</time></trkpt><trkpt lat="44.70555415670674" lon="9.373523369458685"><ele>379.0</ele><time>2026-04-18T14:07:10Z</time></trkpt><trkpt lat="44.705626592763664" lon="9.373637819169472"><ele>379.0</ele><time>2026-04-18T14:07:11Z</time></trkpt><trkpt lat="44.705689893641406" lon="9.373737262285106"><ele>379.0</ele><time>2026-04-18T14:07:12Z</time></trkpt><trkpt lat="44.70575315556735" lon="9.373826200387143"><ele>379.0</ele><time>2026-04-18T14:07:13Z</time></trkpt><trkpt lat="44.7058107368193" lon="9.373940113477085"><ele>379.0</ele><time>2026-04-18T14:07:14Z</time></trkpt><trkpt lat="44.7058419685907" lon="9.37407742858668"><ele>379.0</ele><time>2026-04-18T14:07:15Z</time></trkpt><trkpt lat="44.70581290535185" lon="9.374216496033052"><ele>379.0</ele><time>2026-04-18T14:07:16Z</time></trkpt><trkpt lat="44.70580283640513" lon="9.374349027603873"><ele>374.5</ele><time>2026-04-18T14:07:17Z</time></trkpt><trkpt lat="44.70576541727482" lon="9.37449202778831"><ele>370.0</ele><time>2026-04-18T14:07:18Z</time></trkpt><trkpt lat="44.70572254067658" lon="9.37466048536041"><ele>365.5</ele><time>2026-04-18T14:07:19Z</time></trkpt><trkpt lat="44.70566542756323" lon="9.374863724123822"><ele>361.0</ele><time>2026-04-18T14:07:20Z</time></trkpt><trkpt lat="44.705615917002916" lon="9.37504963359302"><ele>360.0</ele><time>2026-04-18T14:07:21Z</time></trkpt><trkpt lat="44.70556964268109" lon="9.375215594501382"><ele>359.0</ele><time>2026-04-18T14:07:21.999Z</time></trkpt><trkpt lat="44.705527205524106" lon="9.375398012388985"><ele>358.0</ele><time>2026-04-18T14:07:22.999Z</time></trkpt><trkpt lat="44.70550363614547" lon="9.37557099140089"><ele>357.0</ele><time>2026-04-18T14:07:23.999Z</time></trkpt><trkpt lat="44.70550863145782" lon="9.37572689806031"><ele>356.0</ele><time>2026-04-18T14:07:24.999Z</time></trkpt><trkpt lat="44.705550889993276" lon="9.375889739952447"><ele>355.0</ele><time>2026-04-18T14:07:25.999Z</time></trkpt><trkpt lat="44.70562241121907" lon="9.376074417731095"><ele>354.0</ele><time>2026-04-18T14:07:26.999Z</time></trkpt><trkpt lat="44.705705212321675" lon="9.376266062162216"><ele>353.0</ele><time>2026-04-18T14:07:27.999Z</time></trkpt><trkpt lat="44.70577164830017" lon="9.376433672469574"><ele>352.0</ele><time>2026-04-18T14:07:28.999Z</time></trkpt><trkpt lat="44.705836335809884" lon="9.37658000560559"><ele>351.0</ele><time>2026-04-18T14:07:29.999Z</time></trkpt><trkpt lat="44.70591834516904" lon="9.376710154916871"><ele>350.0</ele><time>2026-04-18T14:07:30.999Z</time></trkpt><trkpt lat="44.70603059605437" lon="9.376831735077916"><ele>349.0</ele><time>2026-04-18T14:07:31.999Z</time></trkpt><trkpt lat="44.70614808154759" lon="9.376945023431013"><ele>349.0</ele><time>2026-04-18T14:07:32.999Z</time></trkpt><trkpt lat="44.706263861541764" lon="9.37705461186759"><ele>349.0</ele><time>2026-04-18T14:07:33.999Z</time></trkpt><trkpt lat="44.70638850660807" lon="9.3771719768708"><ele>349.0</ele><time>2026-04-18T14:07:34.999Z</time></trkpt><trkpt lat="44.7064973734174" lon="9.377263553392853"><ele>349.0</ele><time>2026-04-18T14:07:35.999Z</time></trkpt><trkpt lat="44.7065858382487" lon="9.37732959336384"><ele>348.2</ele><time>2026-04-18T14:07:36.999Z</time></trkpt><trkpt lat="44.70668790707713" lon="9.377382546092594"><ele>347.4</ele><time>2026-04-18T14:07:37.999Z</time></trkpt><trkpt lat="44.70677657711226" lon="9.377386114062828"><ele>346.6</ele><time>2026-04-18T14:07:38.999Z</time></trkpt><trkpt lat="44.70687752847098" lon="9.37731761639286"><ele>345.8</ele><time>2026-04-18T14:07:39.999Z</time></trkpt><trkpt lat="44.706948587742914" lon="9.377188541248103"><ele>345.0</ele><time>2026-04-18T14:07:40.999Z</time></trkpt><trkpt lat="44.70704690179822" lon="9.377070965082156"><ele>345.0</ele><time>2026-04-18T14:07:41.999Z</time></trkpt><trkpt lat="44.7071318265432" lon="9.376972802552654"><ele>345.0</ele><time>2026-04-18T14:07:42.999Z</time></trkpt><trkpt lat="44.707216886073184" lon="9.376918594282886"><ele>345.0</ele><time>2026-04-18T14:07:43.999Z</time></trkpt><trkpt lat="44.70731670127107" lon="9.376903514635464"><ele>345.0</ele><time>2026-04-18T14:07:44.999Z</time></trkpt><trkpt lat="44.707457936468344" lon="9.37689133748087"><ele>345.0</ele><time>2026-04-18T14:07:45.999Z</time></trkpt><trkpt lat="44.707598107362976" lon="9.376873769800932"><ele>345.0</ele><time>2026-04-18T14:07:46.999Z</time></trkpt><trkpt lat="44.70771384797939" lon="9.376835768451532"><ele>345.0</ele><time>2026-04-18T14:07:47.999Z</time></trkpt><trkpt lat="44.70781964932854" lon="9.376836119566452"><ele>345.0</ele><time>2026-04-18T14:07:48.999Z</time></trkpt><trkpt lat="44.70790867810429" lon="9.376911425367993"><ele>345.0</ele><time>2026-04-18T14:07:49.999Z</time></trkpt><trkpt lat="44.707986243447365" lon="9.376990117838865"><ele>345.0</ele><time>2026-04-18T14:07:50.999Z</time></trkpt><trkpt lat="44.70802773778702" lon="9.377128991169773"><ele>342.5</ele><time>2026-04-18T14:07:51.999Z</time></trkpt><trkpt lat="44.70806303011817" lon="9.377304334602083"><ele>340.0</ele><time>2026-04-18T14:07:52.999Z</time></trkpt><trkpt lat="44.708093997837835" lon="9.377492363582133"><ele>337.5</ele><time>2026-04-18T14:07:53.999Z</time></trkpt><trkpt lat="44.70813654717248" lon="9.377642008189534"><ele>335.0</ele><time>2026-04-18T14:07:54.999Z</time></trkpt><trkpt lat="44.70821134464794" lon="9.377769736527487"><ele>335.0</ele><time>2026-04-18T14:07:55.999Z</time></trkpt><trkpt lat="44.70831928365789" lon="9.377869826334608"><ele>335.0</ele><time>2026-04-18T14:07:56.999Z</time></trkpt><trkpt lat="44.708446582342305" lon="9.377933835590161"><ele>335.0</ele><time>2026-04-18T14:07:57.999Z</time></trkpt><trkpt lat="44.7085972750841" lon="9.377998883012891"><ele>335.0</ele><time>2026-04-18T14:07:58.999Z</time></trkpt><trkpt lat="44.70875497611506" lon="9.378063332582084"><ele>331.25</ele><time>2026-04-18T14:07:59.999Z</time></trkpt><trkpt lat="44.70887744010893" lon="9.378114352621951"><ele>327.5</ele><time>2026-04-18T14:08:00.999Z</time></trkpt><trkpt lat="44.70898883634887" lon="9.378149186499114"><ele>323.75</ele><time>2026-04-18T14:08:01.999Z</time></trkpt><trkpt lat="44.70910334454913" lon="9.378132738745615"><ele>320.0</ele><time>2026-04-18T14:08:02.999Z</time></trkpt><trkpt lat="44.70923718998191" lon="9.378084917315963"><ele>320.0</ele><time>2026-04-18T14:08:03.999Z</time></trkpt><trkpt lat="44.70936483480567" lon="9.378050755083818"><ele>320.0</ele><time>2026-04-18T14:08:04.999Z</time></trkpt><trkpt lat="44.70950459364106" lon="9.377986429362199"><ele>320.0</ele><time>2026-04-18T14:08:05.999Z</time></trkpt><trkpt lat="44.709644366160916" lon="9.377865910940555"><ele>320.0</ele><time>2026-04-18T14:08:06.999Z</time></trkpt><trkpt lat="44.709771748144455" lon="9.377740713722178"><ele>321.0</ele><time>2026-04-18T14:08:07.999Z</time></trkpt><trkpt lat="44.709884753396445" lon="9.377618087545725"><ele>322.0</ele><time>2026-04-18T14:08:08.999Z</time></trkpt><trkpt lat="44.71000600781014" lon="9.377547139407973"><ele>323.0</ele><time>2026-04-18T14:08:09.999Z</time></trkpt><trkpt lat="44.710126386743894" lon="9.377483889712545"><ele>324.0</ele><time>2026-04-18T14:08:10.999Z</time></trkpt><trkpt lat="44.71025397288678" lon="9.377485019140334"><ele>324.0</ele><time>2026-04-18T14:08:11.999Z</time></trkpt><trkpt lat="44.71038786776352" lon="9.377526031780924"><ele>324.0</ele><time>2026-04-18T14:08:12.999Z</time></trkpt><trkpt lat="44.71050082399943" lon="9.377606077963769"><ele>324.0</ele><time>2026-04-18T14:08:13.999Z</time></trkpt><trkpt lat="44.71058577729816" lon="9.377725265961205"><ele>324.0</ele><time>2026-04-18T14:08:14.999Z</time></trkpt><trkpt lat="44.710649218490445" lon="9.377870375441855"><ele>322.0</ele><time>2026-04-18T14:08:15.999Z</time></trkpt><trkpt lat="44.71070736812511" lon="9.378027445192284"><ele>320.0</ele><time>2026-04-18T14:08:16.999Z</time></trkpt><trkpt lat="44.71077885803077" lon="9.378178893346256"><ele>318.0</ele><time>2026-04-18T14:08:17.999Z</time></trkpt><trkpt lat="44.710853583543624" lon="9.378335467054969"><ele>316.0</ele><time>2026-04-18T14:08:18.999Z</time></trkpt><trkpt lat="44.71092285251371" lon="9.378486524365709"><ele>316.0</ele><time>2026-04-18T14:08:20Z</time></trkpt><trkpt lat="44.71098419108534" lon="9.378621598105987"><ele>316.0</ele><time>2026-04-18T14:08:21Z</time></trkpt><trkpt lat="44.71105144736244" lon="9.378758613531014"><ele>316.0</ele><time>2026-04-18T14:08:22Z</time></trkpt><trkpt lat="44.71111968986411" lon="9.378896093478252"><ele>316.0</ele><time>2026-04-18T14:08:23Z</time></trkpt><trkpt lat="44.711185594089095" lon="9.379032538343704"><ele>315.40000000000003</ele><time>2026-04-18T14:08:24Z</time></trkpt><trkpt lat="44.71124794093061" lon="9.379165671216104"><ele>314.8</ele><time>2026-04-18T14:08:25Z</time></trkpt><trkpt lat="44.71130731492244" lon="9.37929394339643"><ele>314.20000000000005</ele><time>2026-04-18T14:08:26Z</time></trkpt><trkpt lat="44.71137137650593" lon="9.3794174145007"><ele>313.6</ele><time>2026-04-18T14:08:27Z</time></trkpt><trkpt lat="44.711430987376964" lon="9.379548039503405"><ele>313.0</ele><time>2026-04-18T14:08:28Z</time></trkpt><trkpt lat="44.71149139603124" lon="9.379676588987865"><ele>313.8333333333333</ele><time>2026-04-18T14:08:29Z</time></trkpt><trkpt lat="44.71154197269602" lon="9.379776486734134"><ele>314.66666666666663</ele><time>2026-04-18T14:08:30Z</time></trkpt><trkpt lat="44.711600094409796" lon="9.379857977893401"><ele>315.5</ele><time>2026-04-18T14:08:31Z</time></trkpt><trkpt lat="44.71166642504578" lon="9.379926464737203"><ele>316.3333333333333</ele><time>2026-04-18T14:08:32Z</time></trkpt><trkpt lat="44.71173332740839" lon="9.379964288516064"><ele>317.1666666666667</ele><time>2026-04-18T14:08:33Z</time></trkpt><trkpt lat="44.71180728770034" lon="9.379997049833896"><ele>318.0</ele><time>2026-04-18T14:08:34Z</time></trkpt><trkpt lat="44.7118885125572" lon="9.380017194272433"><ele>318.8</ele><time>2026-04-18T14:08:35Z</time></trkpt><trkpt lat="44.711979456010766" lon="9.380017558625472"><ele>319.6</ele><time>2026-04-18T14:08:37Z</time></trkpt><trkpt lat="44.71204323528854" lon="9.38001256288082"><ele>320.40000000000003</ele><time>2026-04-18T14:08:42Z</time></trkpt><trkpt lat="44.71210732428191" lon="9.3799934800794"><ele>321.20000000000005</ele><time>2026-04-18T14:11:05Z</time></trkpt><trkpt lat="44.712124857461426" lon="9.380134481482157"><ele>322.0</ele><time>2026-04-18T14:11:08Z</time></trkpt><trkpt lat="44.71209208470245" lon="9.380311867730684"><ele>322.0</ele><time>2026-04-18T14:11:10Z</time></trkpt><trkpt lat="44.712055338577294" lon="9.380434525697638"><ele>322.0</ele><time>2026-04-18T14:11:11Z</time></trkpt><trkpt lat="44.71202126112795" lon="9.380547367669834"><ele>322.0</ele><time>2026-04-18T14:11:12Z</time></trkpt><trkpt lat="44.711971688299194" lon="9.380648060191291"><ele>322.0</ele><time>2026-04-18T14:11:13Z</time></trkpt><trkpt lat="44.71190763852626" lon="9.380741516036704"><ele>322.0</ele><time>2026-04-18T14:11:14Z</time></trkpt><trkpt lat="44.71184801744794" lon="9.380834215014804"><ele>322.5</ele><time>2026-04-18T14:11:15Z</time></trkpt><trkpt lat="44.71177824471528" lon="9.380904624282286"><ele>323.0</ele><time>2026-04-18T14:11:16Z</time></trkpt><trkpt lat="44.71168448140709" lon="9.380985444951106"><ele>323.5</ele><time>2026-04-18T14:11:17Z</time></trkpt><trkpt lat="44.71156860406895" lon="9.38106688397892"><ele>324.0</ele><time>2026-04-18T14:11:18Z</time></trkpt><trkpt lat="44.711453652318" lon="9.381141127086506"><ele>324.0</ele><time>2026-04-18T14:11:19Z</time></trkpt><trkpt lat="44.71136103027463" lon="9.381216014923375"><ele>324.0</ele><time>2026-04-18T14:11:20Z</time></trkpt><trkpt lat="44.71126859181909" lon="9.381283559617888"><ele>324.0</ele><time>2026-04-18T14:11:21Z</time></trkpt><trkpt lat="44.711173729196354" lon="9.381357456649136"><ele>324.0</ele><time>2026-04-18T14:11:22Z</time></trkpt><trkpt lat="44.711075006272154" lon="9.381425160545039"><ele>324.0</ele><time>2026-04-18T14:11:23Z</time></trkpt><trkpt lat="44.71098768086411" lon="9.381492635424864"><ele>324.0</ele><time>2026-04-18T14:11:24Z</time></trkpt><trkpt lat="44.71089503385168" lon="9.381560421412017"><ele>324.0</ele><time>2026-04-18T14:11:25Z</time></trkpt><trkpt lat="44.71079399540313" lon="9.3816302769499"><ele>324.0</ele><time>2026-04-18T14:11:26Z</time></trkpt><trkpt lat="44.71068620476508" lon="9.381708696316236"><ele>324.0</ele><time>2026-04-18T14:11:27Z</time></trkpt><trkpt lat="44.710572036426626" lon="9.381799675386985"><ele>324.0</ele><time>2026-04-18T14:11:28Z</time></trkpt><trkpt lat="44.7104394750482" lon="9.381889801994227"><ele>324.0</ele><time>2026-04-18T14:11:29Z</time></trkpt><trkpt lat="44.710325295097036" lon="9.381981945007286"><ele>324.0</ele><time>2026-04-18T14:11:30Z</time></trkpt><trkpt lat="44.71022119218285" lon="9.382059508937536"><ele>324.0</ele><time>2026-04-18T14:11:30.999Z</time></trkpt><trkpt lat="44.71013927988336" lon="9.382128018976324"><ele>325.2857142857143</ele><time>2026-04-18T14:11:31.999Z</time></trkpt><trkpt lat="44.71005792703481" lon="9.382183783973739"><ele>326.57142857142856</ele><time>2026-04-18T14:11:32.999Z</time></trkpt><trkpt lat="44.70998663135096" lon="9.382234426620593"><ele>327.8571428571429</ele><time>2026-04-18T14:11:33.999Z</time></trkpt><trkpt lat="44.709920419648384" lon="9.382262761396987"><ele>329.1428571428571</ele><time>2026-04-18T14:11:34.999Z</time></trkpt><trkpt lat="44.70985281167259" lon="9.382272677296049"><ele>330.4285714285714</ele><time>2026-04-18T14:11:35.999Z</time></trkpt><trkpt lat="44.709787495837375" lon="9.382283610256467"><ele>331.7142857142857</ele><time>2026-04-18T14:11:36.999Z</time></trkpt><trkpt lat="44.709722012157776" lon="9.382289997106346"><ele>333.0</ele><time>2026-04-18T14:11:37.999Z</time></trkpt><trkpt lat="44.7096109337647" lon="9.382297533221108"><ele>333.0</ele><time>2026-04-18T14:11:39.999Z</time></trkpt><trkpt lat="44.709505494410614" lon="9.38230412953709"><ele>333.0</ele><time>2026-04-18T14:11:41.999Z</time></trkpt><trkpt lat="44.709411911742265" lon="9.382313792527064"><ele>333.0</ele><time>2026-04-18T14:11:43.999Z</time></trkpt><trkpt lat="44.70930148640145" lon="9.382325644954431"><ele>333.0</ele><time>2026-04-18T14:11:45.999Z</time></trkpt><trkpt lat="44.70923564557599" lon="9.382336702212053"><ele>333.0</ele><time>2026-04-18T14:11:46.999Z</time></trkpt><trkpt lat="44.70913209712795" lon="9.382349747902834"><ele>333.0</ele><time>2026-04-18T14:11:48.999Z</time></trkpt><trkpt lat="44.70906852662952" lon="9.382362433404127"><ele>333.0</ele><time>2026-04-18T14:12:04.999Z</time></trkpt><trkpt lat="44.70914111391145" lon="9.382352430178424"><ele>333.0</ele><time>2026-04-18T14:12:09.999Z</time></trkpt><trkpt lat="44.70933850823826" lon="9.382367095776376"><ele>333.0</ele><time>2026-04-18T14:12:11.999Z</time></trkpt><trkpt lat="44.70942345158888" lon="9.382351851517807"><ele>333.0</ele><time>2026-04-18T14:12:12.999Z</time></trkpt><trkpt lat="44.709498654043486" lon="9.382348459083575"><ele>333.0</ele><time>2026-04-18T14:12:13.999Z</time></trkpt><trkpt lat="44.70957791291991" lon="9.382344345305524"><ele>333.0</ele><time>2026-04-18T14:12:14.999Z</time></trkpt><trkpt lat="44.70968938522536" lon="9.382336196280702"><ele>333.0</ele><time>2026-04-18T14:12:15.999Z</time></trkpt><trkpt lat="44.709809173849884" lon="9.382324217366723"><ele>333.0</ele><time>2026-04-18T14:12:16.999Z</time></trkpt><trkpt lat="44.709909023885665" lon="9.382303090996357"><ele>333.0</ele><time>2026-04-18T14:12:17.999Z</time></trkpt><trkpt lat="44.70999201179523" lon="9.382263411574094"><ele>333.0</ele><time>2026-04-18T14:12:18.999Z</time></trkpt><trkpt lat="44.71008634450985" lon="9.382208342586011"><ele>333.0</ele><time>2026-04-18T14:12:19.999Z</time></trkpt><trkpt lat="44.710178543661115" lon="9.38214203888587"><ele>333.0</ele><time>2026-04-18T14:12:20.999Z</time></trkpt><trkpt lat="44.71028414098084" lon="9.382059603542972"><ele>333.0</ele><time>2026-04-18T14:12:21.999Z</time></trkpt><trkpt lat="44.710399692174846" lon="9.381977210965228"><ele>331.2</ele><time>2026-04-18T14:12:22.999Z</time></trkpt><trkpt lat="44.71050129655935" lon="9.381904656246375"><ele>329.4</ele><time>2026-04-18T14:12:23.999Z</time></trkpt><trkpt lat="44.71059388734354" lon="9.381836910999782"><ele>327.59999999999997</ele><time>2026-04-18T14:12:24.999Z</time></trkpt><trkpt lat="44.71068333832834" lon="9.381768942234038"><ele>325.79999999999995</ele><time>2026-04-18T14:12:25.999Z</time></trkpt><trkpt lat="44.710763924120336" lon="9.3817055532893"><ele>324.0</ele><time>2026-04-18T14:12:26.999Z</time></trkpt><trkpt lat="44.71084127454204" lon="9.38164988880586"><ele>324.0</ele><time>2026-04-18T14:12:27.999Z</time></trkpt><trkpt lat="44.71092136855666" lon="9.381590480384576"><ele>324.0</ele><time>2026-04-18T14:12:28.999Z</time></trkpt><trkpt lat="44.71101255609267" lon="9.381523940032283"><ele>324.0</ele><time>2026-04-18T14:12:29.999Z</time></trkpt><trkpt lat="44.71110218598983" lon="9.381458416108554"><ele>324.0</ele><time>2026-04-18T14:12:30.999Z</time></trkpt><trkpt lat="44.71119164291499" lon="9.381395446527028"><ele>324.0</ele><time>2026-04-18T14:12:32Z</time></trkpt><trkpt lat="44.71129190053456" lon="9.381332037505643"><ele>324.0</ele><time>2026-04-18T14:12:33Z</time></trkpt><trkpt lat="44.7113952489836" lon="9.381253345209643"><ele>324.0</ele><time>2026-04-18T14:12:34Z</time></trkpt><trkpt lat="44.71149770816115" lon="9.38117385636278"><ele>324.0</ele><time>2026-04-18T14:12:35Z</time></trkpt><trkpt lat="44.71159012147506" lon="9.38110770655476"><ele>324.0</ele><time>2026-04-18T14:12:36Z</time></trkpt><trkpt lat="44.71167679998124" lon="9.38103861288808"><ele>324.0</ele><time>2026-04-18T14:12:37Z</time></trkpt><trkpt lat="44.71177269841916" lon="9.380969725454719"><ele>324.0</ele><time>2026-04-18T14:12:38Z</time></trkpt><trkpt lat="44.71186269741159" lon="9.380890100488614"><ele>324.0</ele><time>2026-04-18T14:12:39Z</time></trkpt><trkpt lat="44.71194608060334" lon="9.380785694770209"><ele>324.0</ele><time>2026-04-18T14:12:40Z</time></trkpt><trkpt lat="44.71200969926314" lon="9.380668153249863"><ele>324.0</ele><time>2026-04-18T14:12:41Z</time></trkpt><trkpt lat="44.712049822362985" lon="9.380562633887054"><ele>324.0</ele><time>2026-04-18T14:12:42Z</time></trkpt><trkpt lat="44.71208601036812" lon="9.38046930499716"><ele>323.6666666666667</ele><time>2026-04-18T14:12:43Z</time></trkpt><trkpt lat="44.712115829589486" lon="9.38038500489548"><ele>323.3333333333333</ele><time>2026-04-18T14:12:44Z</time></trkpt><trkpt lat="44.71213661302202" lon="9.380300466209691"><ele>323.0</ele><time>2026-04-18T14:12:45Z</time></trkpt><trkpt lat="44.712169301232585" lon="9.38017089189334"><ele>322.66666666666663</ele><time>2026-04-18T14:12:47Z</time></trkpt><trkpt lat="44.712173520809976" lon="9.380068773125883"><ele>322.3333333333333</ele><time>2026-04-18T14:13:00Z</time></trkpt><trkpt lat="44.71211716848203" lon="9.379983170011721"><ele>322.0</ele><time>2026-04-18T14:13:02Z</time></trkpt><trkpt lat="44.712036183541706" lon="9.37996651225853"><ele>322.0</ele><time>2026-04-18T14:13:03Z</time></trkpt><trkpt lat="44.711932596710774" lon="9.379957349810324"><ele>322.0</ele><time>2026-04-18T14:13:04Z</time></trkpt><trkpt lat="44.71183570185827" lon="9.37994361457582"><ele>322.0</ele><time>2026-04-18T14:13:05Z</time></trkpt><trkpt lat="44.71173210013947" lon="9.379912135091935"><ele>322.0</ele><time>2026-04-18T14:13:06Z</time></trkpt><trkpt lat="44.71163499338147" lon="9.379833209306279"><ele>322.0</ele><time>2026-04-18T14:13:07Z</time></trkpt><trkpt lat="44.711554571636846" lon="9.379736837960072"><ele>319.75</ele><time>2026-04-18T14:13:08Z</time></trkpt><trkpt lat="44.71147459740266" lon="9.379605434328823"><ele>317.5</ele><time>2026-04-18T14:13:09Z</time></trkpt><trkpt lat="44.711395841977414" lon="9.379437830358356"><ele>315.25</ele><time>2026-04-18T14:13:10Z</time></trkpt><trkpt lat="44.711314015398386" lon="9.379245299035029"><ele>313.0</ele><time>2026-04-18T14:13:11Z</time></trkpt><trkpt lat="44.7112154883405" lon="9.379036089819754"><ele>313.0</ele><time>2026-04-18T14:13:12Z</time></trkpt><trkpt lat="44.71112676279355" lon="9.378855343561826"><ele>313.0</ele><time>2026-04-18T14:13:13Z</time></trkpt><trkpt lat="44.71105003071207" lon="9.378701223016707"><ele>313.0</ele><time>2026-04-18T14:13:14Z</time></trkpt><trkpt lat="44.71097834837065" lon="9.378552521472464"><ele>313.0</ele><time>2026-04-18T14:13:15Z</time></trkpt><trkpt lat="44.71090497159864" lon="9.378399554330388"><ele>313.75</ele><time>2026-04-18T14:13:16Z</time></trkpt><trkpt lat="44.71082855662709" lon="9.378240888128808"><ele>314.5</ele><time>2026-04-18T14:13:17Z</time></trkpt><trkpt lat="44.710751256366656" lon="9.378074019310626"><ele>315.25</ele><time>2026-04-18T14:13:18Z</time></trkpt><trkpt lat="44.71068353630236" lon="9.377924400113331"><ele>316.0</ele><time>2026-04-18T14:13:19Z</time></trkpt><trkpt lat="44.710622071725126" lon="9.377786498020964"><ele>318.0</ele><time>2026-04-18T14:13:20Z</time></trkpt><trkpt lat="44.71055317721551" lon="9.377649853536163"><ele>320.0</ele><time>2026-04-18T14:13:21Z</time></trkpt><trkpt lat="44.710467761305885" lon="9.377532951427147"><ele>322.0</ele><time>2026-04-18T14:13:22Z</time></trkpt><trkpt lat="44.7103635176099" lon="9.377469679378233"><ele>324.0</ele><time>2026-04-18T14:13:23Z</time></trkpt><trkpt lat="44.7102459068715" lon="9.37744646687154"><ele>325.4</ele><time>2026-04-18T14:13:24Z</time></trkpt><trkpt lat="44.71012013631338" lon="9.377454574497392"><ele>326.79999999999995</ele><time>2026-04-18T14:13:25Z</time></trkpt><trkpt lat="44.71000937715733" lon="9.377491983206237"><ele>328.20000000000005</ele><time>2026-04-18T14:13:26Z</time></trkpt><trkpt lat="44.7099157497619" lon="9.37755374766004"><ele>329.6</ele><time>2026-04-18T14:13:27Z</time></trkpt><trkpt lat="44.70984019323802" lon="9.377628465813883"><ele>331.0</ele><time>2026-04-18T14:13:28Z</time></trkpt><trkpt lat="44.70975914536923" lon="9.377719252137608"><ele>331.0</ele><time>2026-04-18T14:13:29Z</time></trkpt><trkpt lat="44.709667745461765" lon="9.377810627557658"><ele>331.0</ele><time>2026-04-18T14:13:30Z</time></trkpt><trkpt lat="44.709570022889366" lon="9.37789866817191"><ele>331.0</ele><time>2026-04-18T14:13:31Z</time></trkpt><trkpt lat="44.709461069990915" lon="9.377968665312626"><ele>331.0</ele><time>2026-04-18T14:13:32Z</time></trkpt><trkpt lat="44.70934951859857" lon="9.378017115348266"><ele>328.25</ele><time>2026-04-18T14:13:33Z</time></trkpt><trkpt lat="44.709234015422695" lon="9.378057699036445"><ele>325.5</ele><time>2026-04-18T14:13:34Z</time></trkpt><trkpt lat="44.709120038152044" lon="9.378100187781483"><ele>322.75</ele><time>2026-04-18T14:13:35Z</time></trkpt><trkpt lat="44.70901549192315" lon="9.37812343839994"><ele>320.0</ele><time>2026-04-18T14:13:36Z</time></trkpt><trkpt lat="44.70890238343448" lon="9.378106347235686"><ele>320.0</ele><time>2026-04-18T14:13:37Z</time></trkpt><trkpt lat="44.70877509233902" lon="9.378053866539865"><ele>320.0</ele><time>2026-04-18T14:13:37.999Z</time></trkpt><trkpt lat="44.70863468913656" lon="9.377986627623129"><ele>320.0</ele><time>2026-04-18T14:13:38.999Z</time></trkpt><trkpt lat="44.70848743963937" lon="9.377923113082666"><ele>320.0</ele><time>2026-04-18T14:13:39.999Z</time></trkpt><trkpt lat="44.708363516364514" lon="9.377871444325482"><ele>323.75</ele><time>2026-04-18T14:13:40.999Z</time></trkpt><trkpt lat="44.7082504583069" lon="9.377784767376244"><ele>327.5</ele><time>2026-04-18T14:13:41.999Z</time></trkpt><trkpt lat="44.70816638790908" lon="9.37765870369261"><ele>331.25</ele><time>2026-04-18T14:13:42.999Z</time></trkpt><trkpt lat="44.708116480013594" lon="9.377496596212248"><ele>335.0</ele><time>2026-04-18T14:13:43.999Z</time></trkpt><trkpt lat="44.708094304990944" lon="9.377349761195731"><ele>335.0</ele><time>2026-04-18T14:13:44.999Z</time></trkpt><trkpt lat="44.70808065204335" lon="9.377228492196698"><ele>335.0</ele><time>2026-04-18T14:13:45.999Z</time></trkpt><trkpt lat="44.70805882129419" lon="9.377115675522443"><ele>335.0</ele><time>2026-04-18T14:13:46.999Z</time></trkpt><trkpt lat="44.70801465375753" lon="9.377016187204015"><ele>335.0</ele><time>2026-04-18T14:13:47.999Z</time></trkpt><trkpt lat="44.70798018544445" lon="9.376928988742067"><ele>335.0</ele><time>2026-04-18T14:13:48.999Z</time></trkpt><trkpt lat="44.707906098905305" lon="9.376857643648368"><ele>335.0</ele><time>2026-04-18T14:13:50.999Z</time></trkpt><trkpt lat="44.70783327363493" lon="9.376819641039205"><ele>337.0</ele><time>2026-04-18T14:14:56Z</time></trkpt><trkpt lat="44.70776517485916" lon="9.376806070289145"><ele>339.0</ele><time>2026-04-18T14:14:57Z</time></trkpt><trkpt lat="44.70767235900827" lon="9.376812221801572"><ele>341.0</ele><time>2026-04-18T14:14:58Z</time></trkpt><trkpt lat="44.707566741527096" lon="9.376831134573985"><ele>343.0</ele><time>2026-04-18T14:14:59Z</time></trkpt><trkpt lat="44.70745638068411" lon="9.376844682332973"><ele>345.0</ele><time>2026-04-18T14:15:00Z</time></trkpt><trkpt lat="44.70734440182304" lon="9.376874276602425"><ele>345.0</ele><time>2026-04-18T14:15:01Z</time></trkpt><trkpt lat="44.70723400750393" lon="9.376889445326372"><ele>345.0</ele><time>2026-04-18T14:15:02Z</time></trkpt><trkpt lat="44.70712478016168" lon="9.376938352517062"><ele>345.0</ele><time>2026-04-18T14:15:03Z</time></trkpt><trkpt lat="44.707041720903995" lon="9.377017829336914"><ele>345.0</ele><time>2026-04-18T14:15:04Z</time></trkpt><trkpt lat="44.70695106938572" lon="9.37714752216403"><ele>343.8</ele><time>2026-04-18T14:15:05Z</time></trkpt><trkpt lat="44.70686342939" lon="9.377283808003362"><ele>342.6</ele><time>2026-04-18T14:15:06Z</time></trkpt><trkpt lat="44.70677249272606" lon="9.377347786289771"><ele>341.4</ele><time>2026-04-18T14:15:07Z</time></trkpt><trkpt lat="44.70666984431227" lon="9.377354184252717"><ele>340.2</ele><time>2026-04-18T14:15:08Z</time></trkpt><trkpt lat="44.706569280198615" lon="9.377305916640315"><ele>339.0</ele><time>2026-04-18T14:15:09Z</time></trkpt><trkpt lat="44.70646548930775" lon="9.377212851610446"><ele>340.75</ele><time>2026-04-18T14:15:10Z</time></trkpt><trkpt lat="44.70634864551019" lon="9.37710198563007"><ele>342.5</ele><time>2026-04-18T14:15:11Z</time></trkpt><trkpt lat="44.70623107148233" lon="9.37699346112198"><ele>344.25</ele><time>2026-04-18T14:15:12Z</time></trkpt><trkpt lat="44.7061098665566" lon="9.3768745954627"><ele>346.0</ele><time>2026-04-18T14:15:13Z</time></trkpt><trkpt lat="44.70598749359596" lon="9.376741577046719"><ele>346.0</ele><time>2026-04-18T14:15:14Z</time></trkpt><trkpt lat="44.705869120833796" lon="9.376593900075259"><ele>346.0</ele><time>2026-04-18T14:15:15Z</time></trkpt><trkpt lat="44.705769108294064" lon="9.37642166057442"><ele>346.0</ele><time>2026-04-18T14:15:16Z</time></trkpt><trkpt lat="44.70570921396348" lon="9.376246164300875"><ele>347.75</ele><time>2026-04-18T14:15:17Z</time></trkpt><trkpt lat="44.70565319253812" lon="9.376073710359979"><ele>349.5</ele><time>2026-04-18T14:15:18Z</time></trkpt><trkpt lat="44.70558937872334" lon="9.375891356106077"><ele>351.25</ele><time>2026-04-18T14:15:19Z</time></trkpt><trkpt lat="44.70554544004819" lon="9.375722951796575"><ele>353.0</ele><time>2026-04-18T14:15:20Z</time></trkpt><trkpt lat="44.70552848212761" lon="9.375556432724292"><ele>354.0</ele><time>2026-04-18T14:15:21Z</time></trkpt><trkpt lat="44.70554373024337" lon="9.37538761838912"><ele>355.0</ele><time>2026-04-18T14:15:22Z</time></trkpt><trkpt lat="44.705588819186765" lon="9.37520566682626"><ele>356.0</ele><time>2026-04-18T14:15:23Z</time></trkpt><trkpt lat="44.705646007284614" lon="9.375003421731469"><ele>357.0</ele><time>2026-04-18T14:15:24Z</time></trkpt><trkpt lat="44.705707356186636" lon="9.374777141369954"><ele>358.0</ele><time>2026-04-18T14:15:25Z</time></trkpt><trkpt lat="44.705760633310064" lon="9.374576430009709"><ele>359.0</ele><time>2026-04-18T14:15:26Z</time></trkpt><trkpt lat="44.70581995957743" lon="9.374381648541315"><ele>360.0</ele><time>2026-04-18T14:15:27Z</time></trkpt><trkpt lat="44.70584350164792" lon="9.374184235224611"><ele>361.0</ele><time>2026-04-18T14:15:28Z</time></trkpt><trkpt lat="44.70584204728015" lon="9.374016983315716"><ele>361.0</ele><time>2026-04-18T14:15:29Z</time></trkpt><trkpt lat="44.705798394837615" lon="9.373861928316261"><ele>361.0</ele><time>2026-04-18T14:15:30Z</time></trkpt><trkpt lat="44.70571057822682" lon="9.373710870261165"><ele>361.0</ele><time>2026-04-18T14:15:31Z</time></trkpt><trkpt lat="44.705594761056446" lon="9.37354882509215"><ele>361.0</ele><time>2026-04-18T14:15:32Z</time></trkpt><trkpt lat="44.705478765390026" lon="9.373367784450524"><ele>365.5</ele><time>2026-04-18T14:15:33Z</time></trkpt><trkpt lat="44.70538359145641" lon="9.373210451742953"><ele>370.0</ele><time>2026-04-18T14:15:34Z</time></trkpt><trkpt lat="44.70529984423834" lon="9.373087501653162"><ele>374.5</ele><time>2026-04-18T14:15:35Z</time></trkpt><trkpt lat="44.70519565322321" lon="9.373016599007936"><ele>379.0</ele><time>2026-04-18T14:15:36Z</time></trkpt><trkpt lat="44.705052924452055" lon="9.372987216962693"><ele>383.3333333333333</ele><time>2026-04-18T14:15:37Z</time></trkpt><trkpt lat="44.70488851135285" lon="9.372948253828081"><ele>387.66666666666663</ele><time>2026-04-18T14:15:38Z</time></trkpt><trkpt lat="44.704742757833046" lon="9.372849019629232"><ele>392.0</ele><time>2026-04-18T14:15:39Z</time></trkpt><trkpt lat="44.70462740527298" lon="9.372776811762906"><ele>392.0</ele><time>2026-04-18T14:15:40Z</time></trkpt><trkpt lat="44.70449258101291" lon="9.372779278192638"><ele>392.0</ele><time>2026-04-18T14:15:41Z</time></trkpt><trkpt lat="44.70433772846646" lon="9.372826599011328"><ele>392.0</ele><time>2026-04-18T14:15:42Z</time></trkpt><trkpt lat="44.704197458774246" lon="9.37285572590714"><ele>392.0</ele><time>2026-04-18T14:15:43Z</time></trkpt><trkpt lat="44.704077162209686" lon="9.372820882993459"><ele>390.5</ele><time>2026-04-18T14:15:44Z</time></trkpt><trkpt lat="44.70395533162942" lon="9.372733140470686"><ele>389.0</ele><time>2026-04-18T14:15:44.999Z</time></trkpt><trkpt lat="44.70381875104737" lon="9.37263471320643"><ele>387.5</ele><time>2026-04-18T14:15:45.999Z</time></trkpt><trkpt lat="44.70370810620475" lon="9.372527087642489"><ele>386.0</ele><time>2026-04-18T14:15:46.999Z</time></trkpt><trkpt lat="44.703616487505926" lon="9.372390514927098"><ele>386.66666666666663</ele><time>2026-04-18T14:15:47.999Z</time></trkpt><trkpt lat="44.70352133163664" lon="9.372222651879774"><ele>387.33333333333337</ele><time>2026-04-18T14:15:48.999Z</time></trkpt><trkpt lat="44.70342032728904" lon="9.372037221144632"><ele>388.0</ele><time>2026-04-18T14:15:49.999Z</time></trkpt><trkpt lat="44.703336596316404" lon="9.371863854923562"><ele>388.0</ele><time>2026-04-18T14:15:50.999Z</time></trkpt><trkpt lat="44.70325155707286" lon="9.371710386802713"><ele>388.0</ele><time>2026-04-18T14:15:51.999Z</time></trkpt><trkpt lat="44.703139575014916" lon="9.371576875690556"><ele>388.0</ele><time>2026-04-18T14:15:52.999Z</time></trkpt><trkpt lat="44.703011856887784" lon="9.371490514799026"><ele>388.0</ele><time>2026-04-18T14:15:53.999Z</time></trkpt><trkpt lat="44.70286797565975" lon="9.37145520134025"><ele>392.0</ele><time>2026-04-18T14:15:54.999Z</time></trkpt><trkpt lat="44.702697551592294" lon="9.371359687072744"><ele>396.0</ele><time>2026-04-18T14:15:55.999Z</time></trkpt><trkpt lat="44.70253555788171" lon="9.371304622532149"><ele>400.0</ele><time>2026-04-18T14:15:56.999Z</time></trkpt><trkpt lat="44.70237887338495" lon="9.371240238353641"><ele>400.0</ele><time>2026-04-18T14:15:57.999Z</time></trkpt><trkpt lat="44.7022495782129" lon="9.371194835645893"><ele>400.0</ele><time>2026-04-18T14:15:58.999Z</time></trkpt><trkpt lat="44.70212966060925" lon="9.371158874051462"><ele>400.0</ele><time>2026-04-18T14:15:59.999Z</time></trkpt><trkpt lat="44.70202056638016" lon="9.371079531394761"><ele>400.0</ele><time>2026-04-18T14:16:00.999Z</time></trkpt><trkpt lat="44.7019201461519" lon="9.371029341497085"><ele>397.0</ele><time>2026-04-18T14:16:01.999Z</time></trkpt><trkpt lat="44.70183608996476" lon="9.370896757248422"><ele>394.0</ele><time>2026-04-18T14:16:02.999Z</time></trkpt><trkpt lat="44.70177106315522" lon="9.370766446901937"><ele>391.0</ele><time>2026-04-18T14:16:03.999Z</time></trkpt><trkpt lat="44.701736318152456" lon="9.370620046840667"><ele>388.0</ele><time>2026-04-18T14:16:04.999Z</time></trkpt><trkpt lat="44.701775815479124" lon="9.370457023242057"><ele>388.0</ele><time>2026-04-18T14:16:05.999Z</time></trkpt><trkpt lat="44.701806017430194" lon="9.370303423308588"><ele>388.0</ele><time>2026-04-18T14:16:06.999Z</time></trkpt><trkpt lat="44.70188470411833" lon="9.37015123427751"><ele>388.0</ele><time>2026-04-18T14:16:07.999Z</time></trkpt><trkpt lat="44.7019384170442" lon="9.370007523525361"><ele>388.0</ele><time>2026-04-18T14:16:08.999Z</time></trkpt><trkpt lat="44.701959689431234" lon="9.36986591026315"><ele>388.0</ele><time>2026-04-18T14:16:09.999Z</time></trkpt><trkpt lat="44.70188660302178" lon="9.36969704845531"><ele>388.0</ele><time>2026-04-18T14:16:10.999Z</time></trkpt><trkpt lat="44.70179218978179" lon="9.369533154101545"><ele>388.0</ele><time>2026-04-18T14:16:11.999Z</time></trkpt><trkpt lat="44.70173545586653" lon="9.369363482694682"><ele>388.0</ele><time>2026-04-18T14:16:12.999Z</time></trkpt><trkpt lat="44.701710004017116" lon="9.369191488662661"><ele>392.75</ele><time>2026-04-18T14:16:13.999Z</time></trkpt><trkpt lat="44.70166836892936" lon="9.369007075545028"><ele>397.5</ele><time>2026-04-18T14:16:14.999Z</time></trkpt><trkpt lat="44.70162485011146" lon="9.368835323613924"><ele>402.25</ele><time>2026-04-18T14:16:15.999Z</time></trkpt><trkpt lat="44.70153444279994" lon="9.368719201101973"><ele>407.0</ele><time>2026-04-18T14:16:16.999Z</time></trkpt><trkpt lat="44.70141786641407" lon="9.368617237062187"><ele>412.5</ele><time>2026-04-18T14:16:17.999Z</time></trkpt><trkpt lat="44.701340626659565" lon="9.368458809351573"><ele>418.0</ele><time>2026-04-18T14:16:18.999Z</time></trkpt><trkpt lat="44.701284965136026" lon="9.368265069501996"><ele>423.5</ele><time>2026-04-18T14:16:19.999Z</time></trkpt><trkpt lat="44.701205479162496" lon="9.368092055099837"><ele>429.0</ele><time>2026-04-18T14:16:20.999Z</time></trkpt><trkpt lat="44.70115524019027" lon="9.367944080075171"><ele>425.5</ele><time>2026-04-18T14:16:21.999Z</time></trkpt><trkpt lat="44.70107688155959" lon="9.367815304765456"><ele>422.0</ele><time>2026-04-18T14:16:22.999Z</time></trkpt><trkpt lat="44.70095817220538" lon="9.36769824686713"><ele>418.5</ele><time>2026-04-18T14:16:23.999Z</time></trkpt><trkpt lat="44.70083336377049" lon="9.367586956185251"><ele>415.0</ele><time>2026-04-18T14:16:24.999Z</time></trkpt><trkpt lat="44.700735880465615" lon="9.367491234806767"><ele>415.0</ele><time>2026-04-18T14:16:25.999Z</time></trkpt><trkpt lat="44.70065520715945" lon="9.367404610032077"><ele>415.0</ele><time>2026-04-18T14:16:26.999Z</time></trkpt><trkpt lat="44.700579073934136" lon="9.367333224071379"><ele>415.0</ele><time>2026-04-18T14:16:27.999Z</time></trkpt><trkpt lat="44.70050424144998" lon="9.367249602402307"><ele>415.0</ele><time>2026-04-18T14:16:28.999Z</time></trkpt><trkpt lat="44.70044567586429" lon="9.367119959741467"><ele>415.0</ele><time>2026-04-18T14:16:29.999Z</time></trkpt><trkpt lat="44.700441040875" lon="9.36694083375677"><ele>419.0</ele><time>2026-04-18T14:16:30.999Z</time></trkpt><trkpt lat="44.70047130039168" lon="9.366779747345474"><ele>423.0</ele><time>2026-04-18T14:16:31.999Z</time></trkpt><trkpt lat="44.7005167812653" lon="9.36663660631668"><ele>427.0</ele><time>2026-04-18T14:16:32.999Z</time></trkpt><trkpt lat="44.700535695484106" lon="9.366505318449033"><ele>431.0</ele><time>2026-04-18T14:16:33.999Z</time></trkpt><trkpt lat="44.70051893315402" lon="9.366390298709845"><ele>435.0</ele><time>2026-04-18T14:16:34.999Z</time></trkpt><trkpt lat="44.700468853462276" lon="9.366269742915836"><ele>436.5</ele><time>2026-04-18T14:16:35.999Z</time></trkpt><trkpt lat="44.700379235666134" lon="9.366162819192056"><ele>438.0</ele><time>2026-04-18T14:16:36.999Z</time></trkpt><trkpt lat="44.70028461028276" lon="9.366096102902343"><ele>439.5</ele><time>2026-04-18T14:16:37.999Z</time></trkpt><trkpt lat="44.70017045762526" lon="9.36608333746297"><ele>441.0</ele><time>2026-04-18T14:16:38.999Z</time></trkpt><trkpt lat="44.70003715977775" lon="9.366120134847687"><ele>441.0</ele><time>2026-04-18T14:16:39.999Z</time></trkpt><trkpt lat="44.69987287842485" lon="9.36618567986098"><ele>441.0</ele><time>2026-04-18T14:16:40.999Z</time></trkpt><trkpt lat="44.69970336105404" lon="9.366228439492906"><ele>441.0</ele><time>2026-04-18T14:16:41.999Z</time></trkpt><trkpt lat="44.69955414080685" lon="9.366300826109978"><ele>441.0</ele><time>2026-04-18T14:16:42.999Z</time></trkpt><trkpt lat="44.699435738941546" lon="9.366335430621083"><ele>441.0</ele><time>2026-04-18T14:16:44Z</time></trkpt><trkpt lat="44.69931573820368" lon="9.36633501930688"><ele>441.0</ele><time>2026-04-18T14:16:45Z</time></trkpt><trkpt lat="44.69921419263504" lon="9.366269113792402"><ele>441.0</ele><time>2026-04-18T14:16:46Z</time></trkpt><trkpt lat="44.69913728815831" lon="9.366135201503788"><ele>437.4</ele><time>2026-04-18T14:16:47Z</time></trkpt><trkpt lat="44.69902953134187" lon="9.366059997833467"><ele>433.8</ele><time>2026-04-18T14:16:48Z</time></trkpt><trkpt lat="44.6989266580852" lon="9.365998540481634"><ele>430.2</ele><time>2026-04-18T14:16:49Z</time></trkpt><trkpt lat="44.698859484268326" lon="9.365923080688349"><ele>426.59999999999997</ele><time>2026-04-18T14:16:50Z</time></trkpt><trkpt lat="44.698835168029575" lon="9.365805445309233"><ele>423.0</ele><time>2026-04-18T14:16:51Z</time></trkpt><trkpt lat="44.698880824372154" lon="9.365676440646453"><ele>423.0</ele><time>2026-04-18T14:16:52Z</time></trkpt><trkpt lat="44.698877283565324" lon="9.365550496354178"><ele>423.0</ele><time>2026-04-18T14:16:53Z</time></trkpt><trkpt lat="44.69884811221379" lon="9.365400827390257"><ele>423.0</ele><time>2026-04-18T14:16:54Z</time></trkpt><trkpt lat="44.6987798872889" lon="9.365231919791018"><ele>423.0</ele><time>2026-04-18T14:16:55Z</time></trkpt><trkpt lat="44.6987122209909" lon="9.365071602507683"><ele>421.5</ele><time>2026-04-18T14:16:56Z</time></trkpt><trkpt lat="44.69865448947156" lon="9.364943221943163"><ele>420.0</ele><time>2026-04-18T14:16:57Z</time></trkpt><trkpt lat="44.69857459146431" lon="9.364851279358327"><ele>418.5</ele><time>2026-04-18T14:16:58Z</time></trkpt><trkpt lat="44.698463151976796" lon="9.364794236247953"><ele>417.0</ele><time>2026-04-18T14:16:59Z</time></trkpt><trkpt lat="44.69833805584635" lon="9.364787849072135"><ele>417.0</ele><time>2026-04-18T14:17:00Z</time></trkpt><trkpt lat="44.698234445915425" lon="9.364790257266728"><ele>417.0</ele><time>2026-04-18T14:17:01Z</time></trkpt><trkpt lat="44.69814271618525" lon="9.364746911207359"><ele>417.0</ele><time>2026-04-18T14:17:02Z</time></trkpt><trkpt lat="44.698042451395" lon="9.364643845072559"><ele>417.0</ele><time>2026-04-18T14:17:03Z</time></trkpt><trkpt lat="44.69797781244932" lon="9.364478443703792"><ele>420.6</ele><time>2026-04-18T14:17:04Z</time></trkpt><trkpt lat="44.69789705311765" lon="9.364328501933365"><ele>424.20000000000005</ele><time>2026-04-18T14:17:05Z</time></trkpt><trkpt lat="44.697849968272656" lon="9.36419055965421"><ele>427.8</ele><time>2026-04-18T14:17:06Z</time></trkpt><trkpt lat="44.697799607214186" lon="9.364092378085253"><ele>431.4</ele><time>2026-04-18T14:17:07Z</time></trkpt><trkpt lat="44.697726027990704" lon="9.364012282966325"><ele>435.0</ele><time>2026-04-18T14:17:08Z</time></trkpt><trkpt lat="44.69759064623555" lon="9.36402343280215"><ele>435.0</ele><time>2026-04-18T14:17:09Z</time></trkpt><trkpt lat="44.697442858611986" lon="9.36402990858856"><ele>435.0</ele><time>2026-04-18T14:17:10Z</time></trkpt><trkpt lat="44.697315502178185" lon="9.364014827961412"><ele>435.0</ele><time>2026-04-18T14:17:11Z</time></trkpt><trkpt lat="44.69721590058573" lon="9.363982929950808"><ele>435.0</ele><time>2026-04-18T14:17:12Z</time></trkpt><trkpt lat="44.69710995131406" lon="9.363944280921608"><ele>435.0</ele><time>2026-04-18T14:17:13Z</time></trkpt><trkpt lat="44.69698007243742" lon="9.363964204924363"><ele>435.0</ele><time>2026-04-18T14:17:14Z</time></trkpt><trkpt lat="44.69685506202067" lon="9.364030436167287"><ele>435.0</ele><time>2026-04-18T14:17:15Z</time></trkpt><trkpt lat="44.696740940399074" lon="9.36405559464741"><ele>435.0</ele><time>2026-04-18T14:17:16Z</time></trkpt><trkpt lat="44.69661148630339" lon="9.364044394122807"><ele>437.25</ele><time>2026-04-18T14:17:17Z</time></trkpt><trkpt lat="44.69648349193253" lon="9.36401166844534"><ele>439.5</ele><time>2026-04-18T14:17:18Z</time></trkpt><trkpt lat="44.69634288478148" lon="9.363989961656038"><ele>441.75</ele><time>2026-04-18T14:17:19Z</time></trkpt><trkpt lat="44.69622062781778" lon="9.363982662697566"><ele>444.0</ele><time>2026-04-18T14:17:20Z</time></trkpt><trkpt lat="44.69612014668742" lon="9.363960593405299"><ele>442.79999999999995</ele><time>2026-04-18T14:17:21Z</time></trkpt><trkpt lat="44.69603549412209" lon="9.363938741158144"><ele>441.59999999999997</ele><time>2026-04-18T14:17:22Z</time></trkpt><trkpt lat="44.695950525183534" lon="9.36390375936556"><ele>440.4</ele><time>2026-04-18T14:17:23Z</time></trkpt><trkpt lat="44.69586108646823" lon="9.363856836731536"><ele>439.2</ele><time>2026-04-18T14:17:24Z</time></trkpt><trkpt lat="44.695767623089445" lon="9.363804860914444"><ele>438.0</ele><time>2026-04-18T14:17:25Z</time></trkpt><trkpt lat="44.69564783901027" lon="9.363796513751646"><ele>439.59999999999997</ele><time>2026-04-18T14:17:26Z</time></trkpt><trkpt lat="44.6955119136447" lon="9.363816169789068"><ele>441.19999999999993</ele><time>2026-04-18T14:17:27Z</time></trkpt><trkpt lat="44.695391170718345" lon="9.36383788603594"><ele>442.8</ele><time>2026-04-18T14:17:28Z</time></trkpt><trkpt lat="44.695296651231295" lon="9.36384958154583"><ele>444.4</ele><time>2026-04-18T14:17:29Z</time></trkpt><trkpt lat="44.695215576159555" lon="9.363863030556365"><ele>446.0</ele><time>2026-04-18T14:17:30Z</time></trkpt><trkpt lat="44.695137374251324" lon="9.363870812508639"><ele>445.99999999999994</ele><time>2026-04-18T14:17:31Z</time></trkpt><trkpt lat="44.6950574226918" lon="9.363886007813921"><ele>446.0</ele><time>2026-04-18T14:17:32Z</time></trkpt><trkpt lat="44.69497890266503" lon="9.363903568835092"><ele>446.0</ele><time>2026-04-18T14:17:33Z</time></trkpt><trkpt lat="44.694898971445795" lon="9.363919997965038"><ele>446.0</ele><time>2026-04-18T14:17:34Z</time></trkpt><trkpt lat="44.69481932812023" lon="9.363934025467724"><ele>445.99999999999994</ele><time>2026-04-18T14:17:35Z</time></trkpt><trkpt lat="44.69473826958657" lon="9.363951885649888"><ele>446.0</ele><time>2026-04-18T14:17:36Z</time></trkpt><trkpt lat="44.69466624566882" lon="9.363966087143156"><ele>445.99999999999994</ele><time>2026-04-18T14:17:37Z</time></trkpt><trkpt lat="44.69455957704089" lon="9.363983104664124"><ele>446.0</ele><time>2026-04-18T14:17:39Z</time></trkpt><trkpt lat="44.69447123781055" lon="9.36399398730486"><ele>446.0</ele><time>2026-04-18T14:17:41Z</time></trkpt><trkpt lat="44.69439251266401" lon="9.36400612300806"><ele>446.0</ele><time>2026-04-18T14:17:44Z</time></trkpt><trkpt lat="44.694313975967745" lon="9.363959769963104"><ele>445.99999999999994</ele><time>2026-04-18T14:17:55.999Z</time></trkpt><trkpt lat="44.694303874808874" lon="9.363845414516012"><ele>446.0</ele><time>2026-04-18T14:17:57.999Z</time></trkpt><trkpt lat="44.69434704573052" lon="9.363780504312631"><ele>446.0</ele><time>2026-04-18T14:18:01.999Z</time></trkpt><trkpt lat="44.69440633938941" lon="9.363727805540998"><ele>446.0</ele><time>2026-04-18T14:24:13.999Z</time></trkpt><trkpt lat="44.69435627663713" lon="9.36378790662208"><ele>446.0</ele><time>2026-04-18T14:30:03Z</time></trkpt><trkpt lat="44.69442039475076" lon="9.363712438738002"><ele>446.0</ele><time>2026-04-18T14:31:32Z</time></trkpt><trkpt lat="44.69444245965402" lon="9.363808650303177"><ele>446.0</ele><time>2026-04-18T14:37:30.999Z</time></trkpt><trkpt lat="44.69437635118094" lon="9.363842191076897"><ele>446.0</ele><time>2026-04-18T14:37:44Z</time></trkpt><trkpt lat="44.694371708083374" lon="9.363941973722747"><ele>446.0</ele><time>2026-04-18T14:37:50Z</time></trkpt><trkpt lat="44.694427257829645" lon="9.36399192412409"><ele>445.99999999999994</ele><time>2026-04-18T14:37:56Z</time></trkpt><trkpt lat="44.69451527925222" lon="9.363984047608348"><ele>446.0</ele><time>2026-04-18T14:38:02Z</time></trkpt><trkpt lat="44.69458407076836" lon="9.363916051780539"><ele>446.0</ele><time>2026-04-18T14:38:09Z</time></trkpt><trkpt lat="44.694606432661416" lon="9.363833122619578"><ele>446.0</ele><time>2026-04-18T14:38:18Z</time></trkpt><trkpt lat="44.6945589525151" lon="9.363900973261838"><ele>445.99999999999994</ele><time>2026-04-18T14:38:55Z</time></trkpt><trkpt lat="44.694478372500086" lon="9.363956164835217"><ele>446.0</ele><time>2026-04-18T14:39:02.999Z</time></trkpt><trkpt lat="44.69440543264746" lon="9.363973438214286"><ele>440.0</ele><time>2026-04-18T14:39:06.999Z</time></trkpt><trkpt lat="44.69437215126281" lon="9.363888287377085"><ele>440.0</ele><time>2026-04-18T14:39:13.999Z</time></trkpt><trkpt lat="44.69434836798043" lon="9.363787156359853"><ele>426.0</ele><time>2026-04-18T14:39:23.999Z</time></trkpt><trkpt lat="44.694382371820566" lon="9.363702168129695"><ele>426.0</ele><time>2026-04-18T14:39:29.999Z</time></trkpt><trkpt lat="44.6943666058659" lon="9.36379782506523"><ele>426.0</ele><time>2026-04-18T14:53:56.999Z</time></trkpt></trkseg><trkseg><trkpt lat="44.694426663170624" lon="9.363692751359352"><ele>469.99999999999994</ele><time>2026-04-18T15:27:17Z</time></trkpt><trkpt lat="44.694510641519706" lon="9.363651898734295"><ele>470.0</ele><time>2026-04-18T15:27:43.999Z</time></trkpt><trkpt lat="44.694599315024796" lon="9.363563193903142"><ele>470.0</ele><time>2026-04-18T15:27:45.999Z</time></trkpt><trkpt lat="44.69463625689036" lon="9.363488835648798"><ele>470.0</ele><time>2026-04-18T15:27:47.999Z</time></trkpt><trkpt lat="44.6946592121823" lon="9.363405037100165"><ele>469.99999999999994</ele><time>2026-04-18T15:27:49.999Z</time></trkpt><trkpt lat="44.69463273460153" lon="9.36325818734279"><ele>470.0</ele><time>2026-04-18T15:27:51.999Z</time></trkpt><trkpt lat="44.69461156791508" lon="9.363154720357661"><ele>469.99999999999994</ele><time>2026-04-18T15:27:53.999Z</time></trkpt><trkpt lat="44.69459457801405" lon="9.363043570265884"><ele>470.0</ele><time>2026-04-18T15:30:07.999Z</time></trkpt><trkpt lat="44.694593631722206" lon="9.362928557157778"><ele>470.0</ele><time>2026-04-18T15:30:10.999Z</time></trkpt><trkpt lat="44.694609941272276" lon="9.362842489762773"><ele>470.0</ele><time>2026-04-18T15:30:14.999Z</time></trkpt><trkpt lat="44.69463754603377" lon="9.362742789018867"><ele>469.99999999999994</ele><time>2026-04-18T15:30:17.999Z</time></trkpt><trkpt lat="44.69468350921327" lon="9.362661814320434"><ele>470.0</ele><time>2026-04-18T15:30:22.999Z</time></trkpt><trkpt lat="44.69474025130385" lon="9.362571336541778"><ele>468.49999999999994</ele><time>2026-04-18T15:30:26.999Z</time></trkpt><trkpt lat="44.69479637679309" lon="9.362467584906096"><ele>467.0</ele><time>2026-04-18T15:30:28.999Z</time></trkpt><trkpt lat="44.69483878855453" lon="9.362391488928152"><ele>465.5</ele><time>2026-04-18T15:30:30.999Z</time></trkpt><trkpt lat="44.694889328981475" lon="9.362318541460048"><ele>464.0</ele><time>2026-04-18T15:30:32.999Z</time></trkpt><trkpt lat="44.694944969174706" lon="9.362261078227732"><ele>462.49999999999994</ele><time>2026-04-18T15:30:34.999Z</time></trkpt><trkpt lat="44.69500087294896" lon="9.362213770033868"><ele>461.0</ele><time>2026-04-18T15:30:36.999Z</time></trkpt><trkpt lat="44.69507414049331" lon="9.36215965982996"><ele>458.3333333333333</ele><time>2026-04-18T15:30:38.999Z</time></trkpt><trkpt lat="44.6951492587815" lon="9.362124564327422"><ele>455.66666666666663</ele><time>2026-04-18T15:30:40.999Z</time></trkpt><trkpt lat="44.695218795751956" lon="9.3620996186822"><ele>453.0</ele><time>2026-04-18T15:30:42.999Z</time></trkpt><trkpt lat="44.69528564436489" lon="9.362067382208279"><ele>450.33333333333337</ele><time>2026-04-18T15:30:45Z</time></trkpt><trkpt lat="44.69535443010067" lon="9.361988395311222"><ele>447.6666666666667</ele><time>2026-04-18T15:30:47Z</time></trkpt><trkpt lat="44.69539323672706" lon="9.36182350135344"><ele>445.0</ele><time>2026-04-18T15:30:49Z</time></trkpt><trkpt lat="44.6953988355262" lon="9.361725313680726"><ele>450.50000000000006</ele><time>2026-04-18T15:30:50Z</time></trkpt><trkpt lat="44.69540006710643" lon="9.361621178213166"><ele>456.0</ele><time>2026-04-18T15:30:51Z</time></trkpt><trkpt lat="44.695373709291424" lon="9.3615100027146"><ele>461.5</ele><time>2026-04-18T15:30:52Z</time></trkpt><trkpt lat="44.695350343599095" lon="9.361394187823052"><ele>467.0</ele><time>2026-04-18T15:30:53Z</time></trkpt><trkpt lat="44.69532805780075" lon="9.361287423959475"><ele>472.50000000000006</ele><time>2026-04-18T15:30:54Z</time></trkpt><trkpt lat="44.695309225863944" lon="9.361178852913914"><ele>478.0</ele><time>2026-04-18T15:30:55Z</time></trkpt><trkpt lat="44.695310092652406" lon="9.361049583235888"><ele>478.0</ele><time>2026-04-18T15:30:56Z</time></trkpt><trkpt lat="44.69531785848421" lon="9.360910491442382"><ele>477.99999999999994</ele><time>2026-04-18T15:30:57Z</time></trkpt><trkpt lat="44.69533773624009" lon="9.360777143965526"><ele>477.99999999999994</ele><time>2026-04-18T15:30:58Z</time></trkpt><trkpt lat="44.69536665664189" lon="9.360640393738928"><ele>478.0</ele><time>2026-04-18T15:30:59Z</time></trkpt><trkpt lat="44.69540761528746" lon="9.36048820984195"><ele>478.0</ele><time>2026-04-18T15:31:00Z</time></trkpt><trkpt lat="44.69545272098521" lon="9.36032290170393"><ele>478.4</ele><time>2026-04-18T15:31:01Z</time></trkpt><trkpt lat="44.695496416979175" lon="9.360179515007285"><ele>478.79999999999995</ele><time>2026-04-18T15:31:02Z</time></trkpt><trkpt lat="44.695537790573795" lon="9.360046919136023"><ele>479.2</ele><time>2026-04-18T15:31:03Z</time></trkpt><trkpt lat="44.695569847751536" lon="9.359901361966052"><ele>479.6</ele><time>2026-04-18T15:31:04Z</time></trkpt><trkpt lat="44.69559181343212" lon="9.35974873184617"><ele>480.0</ele><time>2026-04-18T15:31:05Z</time></trkpt><trkpt lat="44.695599325505725" lon="9.359614483082728"><ele>480.3333333333333</ele><time>2026-04-18T15:31:06Z</time></trkpt><trkpt lat="44.69559498299065" lon="9.359491440887785"><ele>480.66666666666663</ele><time>2026-04-18T15:31:07Z</time></trkpt><trkpt lat="44.69557307487123" lon="9.359379462352704"><ele>481.0</ele><time>2026-04-18T15:31:08Z</time></trkpt><trkpt lat="44.695522412999686" lon="9.35927338941442"><ele>481.3333333333333</ele><time>2026-04-18T15:31:09Z</time></trkpt><trkpt lat="44.69545797444954" lon="9.35917930556219"><ele>481.66666666666663</ele><time>2026-04-18T15:31:10Z</time></trkpt><trkpt lat="44.69538277666965" lon="9.359120052276637"><ele>482.0</ele><time>2026-04-18T15:31:11Z</time></trkpt><trkpt lat="44.69529989013094" lon="9.359093166133952"><ele>480.20000000000005</ele><time>2026-04-18T15:31:12Z</time></trkpt><trkpt lat="44.695212882943196" lon="9.359104324427546"><ele>478.40000000000003</ele><time>2026-04-18T15:31:13Z</time></trkpt><trkpt lat="44.69512345373397" lon="9.35913648904928"><ele>476.59999999999997</ele><time>2026-04-18T15:31:14Z</time></trkpt><trkpt lat="44.69502148148153" lon="9.359170953536903"><ele>474.79999999999995</ele><time>2026-04-18T15:31:15Z</time></trkpt><trkpt lat="44.69490745493378" lon="9.35920529391609"><ele>473.0</ele><time>2026-04-18T15:31:16Z</time></trkpt><trkpt lat="44.69479065273266" lon="9.359246144922215"><ele>473.0</ele><time>2026-04-18T15:31:17Z</time></trkpt><trkpt lat="44.69469130784334" lon="9.359274536160166"><ele>472.99999999999994</ele><time>2026-04-18T15:31:18Z</time></trkpt><trkpt lat="44.69460236789034" lon="9.359295841224915"><ele>472.99999999999994</ele><time>2026-04-18T15:31:19Z</time></trkpt><trkpt lat="44.69451518223591" lon="9.359301359764837"><ele>473.0</ele><time>2026-04-18T15:31:20Z</time></trkpt><trkpt lat="44.6944300990812" lon="9.359252538449814"><ele>473.0</ele><time>2026-04-18T15:31:21Z</time></trkpt><trkpt lat="44.694377072227084" lon="9.359153184034133"><ele>471.79999999999995</ele><time>2026-04-18T15:31:22Z</time></trkpt><trkpt lat="44.694324651471405" lon="9.359046087853395"><ele>470.59999999999997</ele><time>2026-04-18T15:31:23Z</time></trkpt><trkpt lat="44.69426352135149" lon="9.35894230861932"><ele>469.40000000000003</ele><time>2026-04-18T15:31:24Z</time></trkpt><trkpt lat="44.69419165149152" lon="9.358828855597872"><ele>468.20000000000005</ele><time>2026-04-18T15:31:25Z</time></trkpt><trkpt lat="44.69412413570551" lon="9.358723125489787"><ele>467.0</ele><time>2026-04-18T15:31:26Z</time></trkpt><trkpt lat="44.6940695568395" lon="9.358630936437724"><ele>466.99999999999994</ele><time>2026-04-18T15:31:27Z</time></trkpt><trkpt lat="44.69401712422583" lon="9.3585460339401"><ele>467.0</ele><time>2026-04-18T15:31:28Z</time></trkpt><trkpt lat="44.69396640551144" lon="9.358459569707843"><ele>467.0</ele><time>2026-04-18T15:31:29Z</time></trkpt><trkpt lat="44.69393130227644" lon="9.35835336513136"><ele>467.0</ele><time>2026-04-18T15:31:30Z</time></trkpt><trkpt lat="44.69393109578218" lon="9.358240271487203"><ele>466.99999999999994</ele><time>2026-04-18T15:31:31Z</time></trkpt><trkpt lat="44.69396244327139" lon="9.358122687524803"><ele>467.0</ele><time>2026-04-18T15:31:32Z</time></trkpt><trkpt lat="44.69402193205778" lon="9.358001578711344"><ele>470.8</ele><time>2026-04-18T15:31:33Z</time></trkpt><trkpt lat="44.69409711114559" lon="9.357878473915267"><ele>474.6</ele><time>2026-04-18T15:31:34Z</time></trkpt><trkpt lat="44.69417551058227" lon="9.357783211009561"><ele>478.40000000000003</ele><time>2026-04-18T15:31:35Z</time></trkpt><trkpt lat="44.69427542042028" lon="9.35772723519197"><ele>482.20000000000005</ele><time>2026-04-18T15:31:36Z</time></trkpt><trkpt lat="44.69436457659653" lon="9.357636500543036"><ele>486.0</ele><time>2026-04-18T15:31:37Z</time></trkpt><trkpt lat="44.6944666712768" lon="9.357567359320106"><ele>486.0</ele><time>2026-04-18T15:31:38Z</time></trkpt><trkpt lat="44.6945633177844" lon="9.357495018605892"><ele>486.0</ele><time>2026-04-18T15:31:38.999Z</time></trkpt><trkpt lat="44.694643688857646" lon="9.357388329461461"><ele>486.0</ele><time>2026-04-18T15:31:39.999Z</time></trkpt><trkpt lat="44.69469673045908" lon="9.357235951790909"><ele>486.0</ele><time>2026-04-18T15:31:40.999Z</time></trkpt><trkpt lat="44.69474422415342" lon="9.357047833230036"><ele>481.66666666666663</ele><time>2026-04-18T15:31:41.999Z</time></trkpt><trkpt lat="44.6947941836666" lon="9.356863389288886"><ele>477.3333333333333</ele><time>2026-04-18T15:31:42.999Z</time></trkpt><trkpt lat="44.69484191615042" lon="9.356663266658328"><ele>473.0</ele><time>2026-04-18T15:31:43.999Z</time></trkpt><trkpt lat="44.69488542993309" lon="9.356446657336027"><ele>472.25</ele><time>2026-04-18T15:31:44.999Z</time></trkpt><trkpt lat="44.694923488675975" lon="9.356250860915168"><ele>471.5</ele><time>2026-04-18T15:31:45.999Z</time></trkpt><trkpt lat="44.6949517446914" lon="9.356087373601524"><ele>470.75</ele><time>2026-04-18T15:31:46.999Z</time></trkpt><trkpt lat="44.69493326404473" lon="9.35594868908075"><ele>470.0</ele><time>2026-04-18T15:31:47.999Z</time></trkpt><trkpt lat="44.69488012624133" lon="9.355840200139655"><ele>470.0</ele><time>2026-04-18T15:31:48.999Z</time></trkpt><trkpt lat="44.694811130462135" lon="9.35575109738567"><ele>470.0</ele><time>2026-04-18T15:31:49.999Z</time></trkpt><trkpt lat="44.69475520113052" lon="9.355634396268066"><ele>470.0</ele><time>2026-04-18T15:31:50.999Z</time></trkpt><trkpt lat="44.69474163275598" lon="9.355493600921786"><ele>470.0</ele><time>2026-04-18T15:31:51.999Z</time></trkpt><trkpt lat="44.69476624112236" lon="9.355342113670057"><ele>470.0</ele><time>2026-04-18T15:31:52.999Z</time></trkpt><trkpt lat="44.694799999289714" lon="9.355166454000056"><ele>469.25</ele><time>2026-04-18T15:31:53.999Z</time></trkpt><trkpt lat="44.694836991187216" lon="9.354961146899585"><ele>468.5</ele><time>2026-04-18T15:31:54.999Z</time></trkpt><trkpt lat="44.69486802900308" lon="9.354780480420576"><ele>467.75</ele><time>2026-04-18T15:31:55.999Z</time></trkpt><trkpt lat="44.694888064325895" lon="9.354620304290734"><ele>467.0</ele><time>2026-04-18T15:31:56.999Z</time></trkpt><trkpt lat="44.694861138792874" lon="9.354480102711952"><ele>469.75</ele><time>2026-04-18T15:31:57.999Z</time></trkpt><trkpt lat="44.69479766543906" lon="9.354343838918554"><ele>472.5</ele><time>2026-04-18T15:31:58.999Z</time></trkpt><trkpt lat="44.69472375348059" lon="9.35420028381168"><ele>475.25</ele><time>2026-04-18T15:31:59.999Z</time></trkpt><trkpt lat="44.69468132066441" lon="9.354023191894578"><ele>478.0</ele><time>2026-04-18T15:32:00.999Z</time></trkpt><trkpt lat="44.694683026329415" lon="9.35383995409214"><ele>483.0</ele><time>2026-04-18T15:32:01.999Z</time></trkpt><trkpt lat="44.69470608771176" lon="9.35369577130848"><ele>487.99999999999994</ele><time>2026-04-18T15:32:02.999Z</time></trkpt><trkpt lat="44.69470275063619" lon="9.353568811269382"><ele>492.99999999999994</ele><time>2026-04-18T15:32:03.999Z</time></trkpt><trkpt lat="44.69464767646326" lon="9.353455846281223"><ele>498.0</ele><time>2026-04-18T15:32:04.999Z</time></trkpt><trkpt lat="44.69455703044641" lon="9.35339808398347"><ele>503.0</ele><time>2026-04-18T15:32:05.999Z</time></trkpt><trkpt lat="44.694450043354216" lon="9.353392037119402"><ele>495.0</ele><time>2026-04-18T15:32:06.999Z</time></trkpt><trkpt lat="44.69434120670613" lon="9.353438735419806"><ele>486.99999999999994</ele><time>2026-04-18T15:32:07.999Z</time></trkpt><trkpt lat="44.69422399563353" lon="9.353472850484657"><ele>478.99999999999994</ele><time>2026-04-18T15:32:08.999Z</time></trkpt><trkpt lat="44.694125777220634" lon="9.353472729638009"><ele>471.0</ele><time>2026-04-18T15:32:09.999Z</time></trkpt><trkpt lat="44.694044482703305" lon="9.353485482837737"><ele>463.0</ele><time>2026-04-18T15:32:10.999Z</time></trkpt><trkpt lat="44.69397506232542" lon="9.35347125465049"><ele>463.0</ele><time>2026-04-18T15:32:11.999Z</time></trkpt><trkpt lat="44.693921404779026" lon="9.353416160293884"><ele>462.99999999999994</ele><time>2026-04-18T15:32:12.999Z</time></trkpt><trkpt lat="44.693846234644354" lon="9.353285096427614"><ele>462.99999999999994</ele><time>2026-04-18T15:32:13.999Z</time></trkpt><trkpt lat="44.693760163263704" lon="9.353199971779476"><ele>463.0</ele><time>2026-04-18T15:32:14.999Z</time></trkpt><trkpt lat="44.6936662861596" lon="9.35320358099583"><ele>463.0</ele><time>2026-04-18T15:32:15.999Z</time></trkpt><trkpt lat="44.693564980497186" lon="9.353205937953733"><ele>459.6666666666667</ele><time>2026-04-18T15:32:16.999Z</time></trkpt><trkpt lat="44.69348020055152" lon="9.353232007128117"><ele>456.33333333333337</ele><time>2026-04-18T15:32:17.999Z</time></trkpt><trkpt lat="44.69339356727998" lon="9.353193166582487"><ele>453.0</ele><time>2026-04-18T15:32:18.999Z</time></trkpt><trkpt lat="44.69332607440091" lon="9.353111159531604"><ele>449.66666666666663</ele><time>2026-04-18T15:32:19.999Z</time></trkpt><trkpt lat="44.693291954177134" lon="9.353005674113621"><ele>446.3333333333333</ele><time>2026-04-18T15:32:20.999Z</time></trkpt><trkpt lat="44.69328792190675" lon="9.352873189245205"><ele>443.0</ele><time>2026-04-18T15:32:21.999Z</time></trkpt><trkpt lat="44.693319524293926" lon="9.352714020439402"><ele>443.0</ele><time>2026-04-18T15:32:22.999Z</time></trkpt><trkpt lat="44.69335441761895" lon="9.35257468488623"><ele>443.0</ele><time>2026-04-18T15:32:23.999Z</time></trkpt><trkpt lat="44.69335798330016" lon="9.352415257258025"><ele>443.0</ele><time>2026-04-18T15:32:24.999Z</time></trkpt><trkpt lat="44.69332213502988" lon="9.352253466529683"><ele>443.0</ele><time>2026-04-18T15:32:25.999Z</time></trkpt><trkpt lat="44.69325171946759" lon="9.352094977845782"><ele>449.0</ele><time>2026-04-18T15:32:26.999Z</time></trkpt><trkpt lat="44.69316204901228" lon="9.351921016529245"><ele>455.0</ele><time>2026-04-18T15:32:27.999Z</time></trkpt><trkpt lat="44.69308323414634" lon="9.351764597640539"><ele>461.0</ele><time>2026-04-18T15:32:28.999Z</time></trkpt><trkpt lat="44.69300850750767" lon="9.351618610424085"><ele>467.0</ele><time>2026-04-18T15:32:29.999Z</time></trkpt><trkpt lat="44.69294897317438" lon="9.351469773743569"><ele>471.0</ele><time>2026-04-18T15:32:30.999Z</time></trkpt><trkpt lat="44.69292441576467" lon="9.351309389321312"><ele>475.0</ele><time>2026-04-18T15:32:31.999Z</time></trkpt><trkpt lat="44.69289958137775" lon="9.351153264928511"><ele>479.0</ele><time>2026-04-18T15:32:32.999Z</time></trkpt><trkpt lat="44.69283000366379" lon="9.351014551599024"><ele>483.0</ele><time>2026-04-18T15:32:33.999Z</time></trkpt><trkpt lat="44.69272578483542" lon="9.350890016089018"><ele>479.25</ele><time>2026-04-18T15:32:34.999Z</time></trkpt><trkpt lat="44.692632495275284" lon="9.35078522375924"><ele>475.5</ele><time>2026-04-18T15:32:35.999Z</time></trkpt><trkpt lat="44.692553846253226" lon="9.350686573704309"><ele>471.75</ele><time>2026-04-18T15:32:36.999Z</time></trkpt><trkpt lat="44.69247708632513" lon="9.350569040787"><ele>468.0</ele><time>2026-04-18T15:32:37.999Z</time></trkpt><trkpt lat="44.69241016241099" lon="9.350417180645175"><ele>468.0</ele><time>2026-04-18T15:32:38.999Z</time></trkpt><trkpt lat="44.692368640075586" lon="9.350262080810683"><ele>467.99999999999994</ele><time>2026-04-18T15:32:39.999Z</time></trkpt><trkpt lat="44.692314418033064" lon="9.350136518129974"><ele>467.99999999999994</ele><time>2026-04-18T15:32:40.999Z</time></trkpt><trkpt lat="44.69223309045353" lon="9.350031965950503"><ele>468.0</ele><time>2026-04-18T15:32:41.999Z</time></trkpt><trkpt lat="44.692140878445436" lon="9.34993823820773"><ele>468.0</ele><time>2026-04-18T15:32:42.999Z</time></trkpt><trkpt lat="44.692074968364274" lon="9.349838809210517"><ele>472.0</ele><time>2026-04-18T15:32:43.999Z</time></trkpt><trkpt lat="44.69203269544137" lon="9.349698847561283"><ele>475.99999999999994</ele><time>2026-04-18T15:32:45Z</time></trkpt><trkpt lat="44.69200838877243" lon="9.349555709797093"><ele>479.99999999999994</ele><time>2026-04-18T15:32:46Z</time></trkpt><trkpt lat="44.69196008154079" lon="9.34945617859375"><ele>484.0</ele><time>2026-04-18T15:32:47Z</time></trkpt><trkpt lat="44.69186963913448" lon="9.349388061311398"><ele>488.0</ele><time>2026-04-18T15:32:48Z</time></trkpt><trkpt lat="44.69177675661369" lon="9.349351121369148"><ele>476.59999999999997</ele><time>2026-04-18T15:32:49Z</time></trkpt><trkpt lat="44.6916974529645" lon="9.349304636394438"><ele>465.19999999999993</ele><time>2026-04-18T15:32:50Z</time></trkpt><trkpt lat="44.691623795336795" lon="9.349226078932457"><ele>453.8</ele><time>2026-04-18T15:32:51Z</time></trkpt><trkpt lat="44.69156296623753" lon="9.349124806440642"><ele>442.4</ele><time>2026-04-18T15:32:52Z</time></trkpt><trkpt lat="44.69153842939289" lon="9.349009114914402"><ele>431.0</ele><time>2026-04-18T15:32:53Z</time></trkpt><trkpt lat="44.69154894151725" lon="9.348879561168836"><ele>431.8</ele><time>2026-04-18T15:32:54Z</time></trkpt><trkpt lat="44.69159902678568" lon="9.348749090598883"><ele>432.6</ele><time>2026-04-18T15:32:55Z</time></trkpt><trkpt lat="44.691677453512575" lon="9.348622702406567"><ele>433.4</ele><time>2026-04-18T15:32:56Z</time></trkpt><trkpt lat="44.69174505710882" lon="9.348479200254411"><ele>434.2</ele><time>2026-04-18T15:32:57Z</time></trkpt><trkpt lat="44.6917837845797" lon="9.348347911067112"><ele>435.0</ele><time>2026-04-18T15:32:58Z</time></trkpt><trkpt lat="44.6918141090552" lon="9.348223305570423"><ele>435.0</ele><time>2026-04-18T15:32:59Z</time></trkpt><trkpt lat="44.6918402878616" lon="9.348105671661566"><ele>435.0</ele><time>2026-04-18T15:33:00Z</time></trkpt><trkpt lat="44.69185669524526" lon="9.347994939804362"><ele>435.0</ele><time>2026-04-18T15:33:01Z</time></trkpt><trkpt lat="44.69184782018246" lon="9.347872078683292"><ele>435.0</ele><time>2026-04-18T15:33:02Z</time></trkpt><trkpt lat="44.69179680882418" lon="9.347770056521039"><ele>435.0</ele><time>2026-04-18T15:33:03Z</time></trkpt><trkpt lat="44.691714194064" lon="9.347707178148497"><ele>435.0</ele><time>2026-04-18T15:33:04Z</time></trkpt><trkpt lat="44.69162905560436" lon="9.34764813378836"><ele>436.1666666666667</ele><time>2026-04-18T15:33:05Z</time></trkpt><trkpt lat="44.691561976099244" lon="9.347539462736668"><ele>437.33333333333337</ele><time>2026-04-18T15:33:06Z</time></trkpt><trkpt lat="44.69152317473861" lon="9.347426230714401"><ele>438.5</ele><time>2026-04-18T15:33:07Z</time></trkpt><trkpt lat="44.69149376741243" lon="9.347328098016995"><ele>439.6666666666667</ele><time>2026-04-18T15:33:08Z</time></trkpt><trkpt lat="44.691465246963496" lon="9.347232910659297"><ele>440.83333333333337</ele><time>2026-04-18T15:33:09Z</time></trkpt><trkpt lat="44.691457719677175" lon="9.347129669284579"><ele>442.0</ele><time>2026-04-18T15:33:10Z</time></trkpt><trkpt lat="44.69146862700169" lon="9.347035020899167"><ele>442.50000000000006</ele><time>2026-04-18T15:33:11Z</time></trkpt><trkpt lat="44.691493540566206" lon="9.346943593229543"><ele>443.0</ele><time>2026-04-18T15:33:12Z</time></trkpt><trkpt lat="44.6915374221715" lon="9.346852804769537"><ele>443.5</ele><time>2026-04-18T15:33:13Z</time></trkpt><trkpt lat="44.691581995777206" lon="9.346753212751791"><ele>444.0</ele><time>2026-04-18T15:33:14Z</time></trkpt><trkpt lat="44.69160594984693" lon="9.346649976481999"><ele>444.50000000000006</ele><time>2026-04-18T15:33:15Z</time></trkpt><trkpt lat="44.69160598501446" lon="9.346550301337693"><ele>445.0</ele><time>2026-04-18T15:33:16Z</time></trkpt><trkpt lat="44.691577678737" lon="9.34644558465879"><ele>446.8</ele><time>2026-04-18T15:33:17Z</time></trkpt><trkpt lat="44.69151936708851" lon="9.346359499733028"><ele>448.6</ele><time>2026-04-18T15:33:18Z</time></trkpt><trkpt lat="44.69144225459679" lon="9.346296365638427"><ele>450.4</ele><time>2026-04-18T15:33:19Z</time></trkpt><trkpt lat="44.6913591275787" lon="9.346226020091246"><ele>452.2</ele><time>2026-04-18T15:33:20Z</time></trkpt><trkpt lat="44.6912835750464" lon="9.346141310437783"><ele>454.0</ele><time>2026-04-18T15:33:21Z</time></trkpt><trkpt lat="44.691228893281874" lon="9.34605337811777"><ele>454.0</ele><time>2026-04-18T15:33:22Z</time></trkpt><trkpt lat="44.69117938562604" lon="9.345945433578065"><ele>454.0</ele><time>2026-04-18T15:33:23Z</time></trkpt><trkpt lat="44.6911493423607" lon="9.345809838087112"><ele>454.0</ele><time>2026-04-18T15:33:24Z</time></trkpt><trkpt lat="44.691148560660146" lon="9.345661202505841"><ele>454.0</ele><time>2026-04-18T15:33:25Z</time></trkpt><trkpt lat="44.69115877324163" lon="9.345533840351285"><ele>454.0</ele><time>2026-04-18T15:33:26Z</time></trkpt><trkpt lat="44.69116659197454" lon="9.345399689699107"><ele>452.50000000000006</ele><time>2026-04-18T15:33:27Z</time></trkpt><trkpt lat="44.69117093238183" lon="9.34526310658249"><ele>451.0</ele><time>2026-04-18T15:33:28Z</time></trkpt><trkpt lat="44.69117836784321" lon="9.345139666485819"><ele>449.5</ele><time>2026-04-18T15:33:29Z</time></trkpt><trkpt lat="44.69119016092114" lon="9.345018351910502"><ele>448.0</ele><time>2026-04-18T15:33:30Z</time></trkpt><trkpt lat="44.69121965312854" lon="9.344918293576642"><ele>446.50000000000006</ele><time>2026-04-18T15:33:31Z</time></trkpt><trkpt lat="44.69126988973615" lon="9.344829632305126"><ele>445.0</ele><time>2026-04-18T15:33:32Z</time></trkpt><trkpt lat="44.691355022727784" lon="9.344754005534398"><ele>445.0</ele><time>2026-04-18T15:33:33Z</time></trkpt><trkpt lat="44.691456906824065" lon="9.34471699676995"><ele>445.0</ele><time>2026-04-18T15:33:34Z</time></trkpt><trkpt lat="44.69156267237597" lon="9.344670733395555"><ele>445.0</ele><time>2026-04-18T15:33:35Z</time></trkpt><trkpt lat="44.69165939187484" lon="9.344589409125351"><ele>445.0</ele><time>2026-04-18T15:33:36Z</time></trkpt><trkpt lat="44.69175113291158" lon="9.344488979570809"><ele>445.0</ele><time>2026-04-18T15:33:37Z</time></trkpt><trkpt lat="44.69185297684243" lon="9.344376414684492"><ele>444.75</ele><time>2026-04-18T15:33:38Z</time></trkpt><trkpt lat="44.69196781249063" lon="9.34426203027609"><ele>444.5</ele><time>2026-04-18T15:33:39Z</time></trkpt><trkpt lat="44.692091721496176" lon="9.344157911825494"><ele>444.25</ele><time>2026-04-18T15:33:40Z</time></trkpt><trkpt lat="44.69221064898482" lon="9.344096887965474"><ele>444.0</ele><time>2026-04-18T15:33:41Z</time></trkpt><trkpt lat="44.692300536705716" lon="9.34397901663504"><ele>434.75</ele><time>2026-04-18T15:33:42Z</time></trkpt><trkpt lat="44.69239460384572" lon="9.343859308899335"><ele>425.5</ele><time>2026-04-18T15:33:43Z</time></trkpt><trkpt lat="44.692494408623695" lon="9.343730077449116"><ele>416.25</ele><time>2026-04-18T15:33:44Z</time></trkpt><trkpt lat="44.69258268138385" lon="9.343613546726495"><ele>407.0</ele><time>2026-04-18T15:33:45Z</time></trkpt><trkpt lat="44.69266299430092" lon="9.34350387295474"><ele>407.0</ele><time>2026-04-18T15:33:46Z</time></trkpt><trkpt lat="44.69272876719625" lon="9.343392965171018"><ele>407.0</ele><time>2026-04-18T15:33:47Z</time></trkpt><trkpt lat="44.69277974829811" lon="9.343257805165393"><ele>407.0</ele><time>2026-04-18T15:33:48Z</time></trkpt><trkpt lat="44.692808115913465" lon="9.343095539821492"><ele>407.0</ele><time>2026-04-18T15:33:49Z</time></trkpt><trkpt lat="44.69283779326889" lon="9.342936427990626"><ele>407.0</ele><time>2026-04-18T15:33:50Z</time></trkpt><trkpt lat="44.692873861490206" lon="9.342799996036376"><ele>410.40000000000003</ele><time>2026-04-18T15:33:51Z</time></trkpt><trkpt lat="44.69294033971122" lon="9.3426971169351"><ele>413.8</ele><time>2026-04-18T15:33:52Z</time></trkpt><trkpt lat="44.69299455854494" lon="9.34259458030745"><ele>417.2</ele><time>2026-04-18T15:33:53Z</time></trkpt><trkpt lat="44.693038373460695" lon="9.342492371590783"><ele>420.6</ele><time>2026-04-18T15:33:54Z</time></trkpt><trkpt lat="44.69310206021756" lon="9.342385870288227"><ele>424.0</ele><time>2026-04-18T15:33:55Z</time></trkpt><trkpt lat="44.69317694759704" lon="9.34225454706412"><ele>421.6</ele><time>2026-04-18T15:33:56Z</time></trkpt><trkpt lat="44.693251510302865" lon="9.342139221930733"><ele>419.2</ele><time>2026-04-18T15:33:57Z</time></trkpt><trkpt lat="44.69332647461983" lon="9.342050179711272"><ele>416.8</ele><time>2026-04-18T15:33:58Z</time></trkpt><trkpt lat="44.69338878431957" lon="9.341972571421847"><ele>414.40000000000003</ele><time>2026-04-18T15:33:59Z</time></trkpt><trkpt lat="44.69343089827019" lon="9.3418753635164"><ele>412.0</ele><time>2026-04-18T15:34:00Z</time></trkpt><trkpt lat="44.693442216888734" lon="9.341745371009115"><ele>412.00000000000006</ele><time>2026-04-18T15:34:01Z</time></trkpt><trkpt lat="44.69342920353409" lon="9.341609826645447"><ele>412.0</ele><time>2026-04-18T15:34:02Z</time></trkpt><trkpt lat="44.6934224632807" lon="9.341486847471307"><ele>412.0</ele><time>2026-04-18T15:34:03Z</time></trkpt><trkpt lat="44.693413611856634" lon="9.341383217839773"><ele>412.0</ele><time>2026-04-18T15:34:04Z</time></trkpt><trkpt lat="44.69337406282274" lon="9.341285126108534"><ele>412.00000000000006</ele><time>2026-04-18T15:34:05Z</time></trkpt><trkpt lat="44.693301540851294" lon="9.341212390192837"><ele>412.0</ele><time>2026-04-18T15:34:06Z</time></trkpt><trkpt lat="44.69321307917472" lon="9.341176954984514"><ele>417.40000000000003</ele><time>2026-04-18T15:34:07Z</time></trkpt><trkpt lat="44.693111770149976" lon="9.341151867742468"><ele>422.8</ele><time>2026-04-18T15:34:08Z</time></trkpt><trkpt lat="44.69300397346093" lon="9.341133584702598"><ele>428.2</ele><time>2026-04-18T15:34:09Z</time></trkpt><trkpt lat="44.69288737046836" lon="9.341135488321424"><ele>433.6</ele><time>2026-04-18T15:34:10Z</time></trkpt><trkpt lat="44.69278330012972" lon="9.341155558886792"><ele>439.0</ele><time>2026-04-18T15:34:11Z</time></trkpt><trkpt lat="44.692679472735584" lon="9.341204674088543"><ele>439.0</ele><time>2026-04-18T15:34:12Z</time></trkpt><trkpt lat="44.692579507717426" lon="9.341298067778986"><ele>439.0</ele><time>2026-04-18T15:34:13Z</time></trkpt><trkpt lat="44.6925008938388" lon="9.34142944543925"><ele>439.0</ele><time>2026-04-18T15:34:14Z</time></trkpt><trkpt lat="44.692427136012846" lon="9.341584500494616"><ele>439.0</ele><time>2026-04-18T15:34:15Z</time></trkpt><trkpt lat="44.69235429196732" lon="9.341712908053099"><ele>434.6666666666667</ele><time>2026-04-18T15:34:16Z</time></trkpt><trkpt lat="44.6922832720332" lon="9.341811940702243"><ele>430.33333333333337</ele><time>2026-04-18T15:34:17Z</time></trkpt><trkpt lat="44.69222192960515" lon="9.341890057557727"><ele>426.0</ele><time>2026-04-18T15:34:18Z</time></trkpt><trkpt lat="44.692165331300764" lon="9.341965507848537"><ele>421.66666666666663</ele><time>2026-04-18T15:34:19Z</time></trkpt><trkpt lat="44.69211458478582" lon="9.342050691117304"><ele>417.3333333333333</ele><time>2026-04-18T15:34:20Z</time></trkpt><trkpt lat="44.69206734538673" lon="9.342127418781471"><ele>413.0</ele><time>2026-04-18T15:34:21Z</time></trkpt><trkpt lat="44.69200258709845" lon="9.342207720791116"><ele>410.66666666666663</ele><time>2026-04-18T15:34:22Z</time></trkpt><trkpt lat="44.69192575499072" lon="9.342261700636277"><ele>408.3333333333333</ele><time>2026-04-18T15:34:23Z</time></trkpt><trkpt lat="44.69185657622518" lon="9.34229586889549"><ele>406.0</ele><time>2026-04-18T15:34:24Z</time></trkpt><trkpt lat="44.691783551536055" lon="9.342330252698327"><ele>403.66666666666663</ele><time>2026-04-18T15:34:25Z</time></trkpt><trkpt lat="44.69170263257576" lon="9.342357352959256"><ele>401.3333333333333</ele><time>2026-04-18T15:34:26Z</time></trkpt><trkpt lat="44.69163594889341" lon="9.342351773426033"><ele>399.0</ele><time>2026-04-18T15:34:27Z</time></trkpt><trkpt lat="44.69157618784204" lon="9.342315436227048"><ele>399.0</ele><time>2026-04-18T15:34:28Z</time></trkpt><trkpt lat="44.69152445453533" lon="9.342245507164785"><ele>399.0</ele><time>2026-04-18T15:34:29Z</time></trkpt><trkpt lat="44.69149394779735" lon="9.342146843974183"><ele>399.0</ele><time>2026-04-18T15:34:30Z</time></trkpt><trkpt lat="44.691490470234505" lon="9.342031633877959"><ele>399.0</ele><time>2026-04-18T15:34:31Z</time></trkpt><trkpt lat="44.69151790636168" lon="9.341905799650636"><ele>399.0</ele><time>2026-04-18T15:34:32Z</time></trkpt><trkpt lat="44.69154924644502" lon="9.34176558452957"><ele>399.0</ele><time>2026-04-18T15:34:33Z</time></trkpt><trkpt lat="44.69155405701583" lon="9.341631766063456"><ele>402.0</ele><time>2026-04-18T15:34:34Z</time></trkpt><trkpt lat="44.69154237011233" lon="9.341516019598176"><ele>405.0</ele><time>2026-04-18T15:34:35Z</time></trkpt><trkpt lat="44.69152024618446" lon="9.341390906761491"><ele>408.0</ele><time>2026-04-18T15:34:36Z</time></trkpt><trkpt lat="44.69148717924273" lon="9.341248225635058"><ele>411.0</ele><time>2026-04-18T15:34:37Z</time></trkpt><trkpt lat="44.69145814200585" lon="9.341128515680106"><ele>414.0</ele><time>2026-04-18T15:34:38Z</time></trkpt><trkpt lat="44.69143768007986" lon="9.341025601771308"><ele>417.0</ele><time>2026-04-18T15:34:39Z</time></trkpt><trkpt lat="44.691422352137046" lon="9.340937500197487"><ele>417.8333333333333</ele><time>2026-04-18T15:34:40Z</time></trkpt><trkpt lat="44.69141843122143" lon="9.340840034091428"><ele>418.66666666666663</ele><time>2026-04-18T15:34:41Z</time></trkpt><trkpt lat="44.69143655545058" lon="9.340719037046743"><ele>419.5</ele><time>2026-04-18T15:34:42Z</time></trkpt><trkpt lat="44.69146389739433" lon="9.340586120924995"><ele>420.3333333333333</ele><time>2026-04-18T15:34:43Z</time></trkpt><trkpt lat="44.69149672538534" lon="9.340457060729008"><ele>421.16666666666663</ele><time>2026-04-18T15:34:44Z</time></trkpt><trkpt lat="44.691518635706736" lon="9.34036347734425"><ele>422.0</ele><time>2026-04-18T15:34:45Z</time></trkpt><trkpt lat="44.691539695057934" lon="9.340275151409985"><ele>422.20000000000005</ele><time>2026-04-18T15:34:46Z</time></trkpt><trkpt lat="44.691564261108525" lon="9.340180987280274"><ele>422.4</ele><time>2026-04-18T15:34:47Z</time></trkpt><trkpt lat="44.691584530352095" lon="9.340083812093678"><ele>422.6</ele><time>2026-04-18T15:34:48Z</time></trkpt><trkpt lat="44.691598699416566" lon="9.339926139194846"><ele>422.79999999999995</ele><time>2026-04-18T15:34:50Z</time></trkpt><trkpt lat="44.69157295058796" lon="9.339771281259694"><ele>423.0</ele><time>2026-04-18T15:34:52Z</time></trkpt><trkpt lat="44.69150757787734" lon="9.33964834057614"><ele>422.59999999999997</ele><time>2026-04-18T15:34:54Z</time></trkpt><trkpt lat="44.69143304100133" lon="9.339515785255209"><ele>422.2</ele><time>2026-04-18T15:34:56Z</time></trkpt><trkpt lat="44.691428855335936" lon="9.339347767119989"><ele>421.8</ele><time>2026-04-18T15:34:58Z</time></trkpt><trkpt lat="44.691464255422446" lon="9.339246790958937"><ele>421.4</ele><time>2026-04-18T15:34:59Z</time></trkpt><trkpt lat="44.69151826084623" lon="9.3391381549679"><ele>421.0</ele><time>2026-04-18T15:35:00Z</time></trkpt><trkpt lat="44.691579481710264" lon="9.339029757948168"><ele>421.0</ele><time>2026-04-18T15:35:01Z</time></trkpt><trkpt lat="44.691633883967405" lon="9.338937219834117"><ele>421.0</ele><time>2026-04-18T15:35:02Z</time></trkpt><trkpt lat="44.69169826519543" lon="9.338825877515749"><ele>421.0</ele><time>2026-04-18T15:35:03Z</time></trkpt><trkpt lat="44.69177083578065" lon="9.338698452378521"><ele>421.0</ele><time>2026-04-18T15:35:04Z</time></trkpt><trkpt lat="44.691818836625785" lon="9.338586117765727"><ele>421.0</ele><time>2026-04-18T15:35:05Z</time></trkpt><trkpt lat="44.69183029235918" lon="9.338467237110704"><ele>420.8</ele><time>2026-04-18T15:35:06Z</time></trkpt><trkpt lat="44.691809083503934" lon="9.338328514196522"><ele>420.6</ele><time>2026-04-18T15:35:07Z</time></trkpt><trkpt lat="44.691751631061216" lon="9.338188421233728"><ele>420.4</ele><time>2026-04-18T15:35:08Z</time></trkpt><trkpt lat="44.69168715783089" lon="9.33808957007096"><ele>420.2</ele><time>2026-04-18T15:35:09Z</time></trkpt><trkpt lat="44.69161009039508" lon="9.337982774370857"><ele>420.0</ele><time>2026-04-18T15:35:10Z</time></trkpt><trkpt lat="44.69148431230493" lon="9.3379344663088"><ele>420.0</ele><time>2026-04-18T15:35:11Z</time></trkpt><trkpt lat="44.69138141785156" lon="9.33790018007033"><ele>420.0</ele><time>2026-04-18T15:35:12Z</time></trkpt><trkpt lat="44.691288820563415" lon="9.337873909841976"><ele>420.0</ele><time>2026-04-18T15:35:13Z</time></trkpt><trkpt lat="44.69120958905003" lon="9.337854843550843"><ele>420.0</ele><time>2026-04-18T15:35:14Z</time></trkpt><trkpt lat="44.69114230377179" lon="9.337835874109134"><ele>420.0</ele><time>2026-04-18T15:35:15Z</time></trkpt><trkpt lat="44.69105725994931" lon="9.337808139416406"><ele>420.0</ele><time>2026-04-18T15:35:16Z</time></trkpt><trkpt lat="44.69097071578306" lon="9.337770816848717"><ele>420.0</ele><time>2026-04-18T15:35:17Z</time></trkpt><trkpt lat="44.6908994416995" lon="9.337716664500693"><ele>420.0</ele><time>2026-04-18T15:35:18Z</time></trkpt><trkpt lat="44.690808761700545" lon="9.337624496976561"><ele>420.0</ele><time>2026-04-18T15:35:19Z</time></trkpt><trkpt lat="44.69072055902187" lon="9.337507442464679"><ele>420.0</ele><time>2026-04-18T15:35:20Z</time></trkpt><trkpt lat="44.690653413279975" lon="9.337405891547329"><ele>420.0</ele><time>2026-04-18T15:35:21Z</time></trkpt><trkpt lat="44.6905918423056" lon="9.337308691065221"><ele>420.75</ele><time>2026-04-18T15:35:22Z</time></trkpt><trkpt lat="44.69052864716191" lon="9.337185362535443"><ele>421.5</ele><time>2026-04-18T15:35:23Z</time></trkpt><trkpt lat="44.69050535164788" lon="9.337041646251794"><ele>422.25</ele><time>2026-04-18T15:35:24Z</time></trkpt><trkpt lat="44.69054085684029" lon="9.336888056268412"><ele>423.0</ele><time>2026-04-18T15:35:25Z</time></trkpt><trkpt lat="44.69055331703301" lon="9.33669132041759"><ele>423.0</ele><time>2026-04-18T15:35:26Z</time></trkpt><trkpt lat="44.69057462743866" lon="9.33650534197693"><ele>423.0</ele><time>2026-04-18T15:35:27Z</time></trkpt><trkpt lat="44.69057914906711" lon="9.336338402248494"><ele>423.0</ele><time>2026-04-18T15:35:28Z</time></trkpt><trkpt lat="44.6905755135395" lon="9.33618349441931"><ele>423.0</ele><time>2026-04-18T15:35:29Z</time></trkpt><trkpt lat="44.69057453892912" lon="9.336020598184255"><ele>422.75</ele><time>2026-04-18T15:35:30Z</time></trkpt><trkpt lat="44.69057468647903" lon="9.335822573219893"><ele>422.5</ele><time>2026-04-18T15:35:31Z</time></trkpt><trkpt lat="44.690576491640904" lon="9.335645249757283"><ele>422.25</ele><time>2026-04-18T15:35:32Z</time></trkpt><trkpt lat="44.69057611648353" lon="9.335476942674376"><ele>422.0</ele><time>2026-04-18T15:35:33Z</time></trkpt><trkpt lat="44.69057156084177" lon="9.335318040949703"><ele>422.0</ele><time>2026-04-18T15:35:34Z</time></trkpt><trkpt lat="44.690562496847576" lon="9.33517519494976"><ele>422.0</ele><time>2026-04-18T15:35:35Z</time></trkpt><trkpt lat="44.69053145099146" lon="9.33503919531683"><ele>422.0</ele><time>2026-04-18T15:35:36Z</time></trkpt><trkpt lat="44.690471242583335" lon="9.334892311236922"><ele>422.0</ele><time>2026-04-18T15:35:37Z</time></trkpt><trkpt lat="44.69040025382366" lon="9.33476784711194"><ele>422.0</ele><time>2026-04-18T15:35:38Z</time></trkpt><trkpt lat="44.690329984670626" lon="9.334655121895588"><ele>417.0</ele><time>2026-04-18T15:35:39Z</time></trkpt><trkpt lat="44.69025140633246" lon="9.334524141470833"><ele>412.0</ele><time>2026-04-18T15:35:40Z</time></trkpt><trkpt lat="44.69019943580048" lon="9.334401440093973"><ele>407.0</ele><time>2026-04-18T15:35:41Z</time></trkpt><trkpt lat="44.69017087234747" lon="9.33427106489838"><ele>402.0</ele><time>2026-04-18T15:35:42Z</time></trkpt><trkpt lat="44.690165050443255" lon="9.334129484193067"><ele>397.0</ele><time>2026-04-18T15:35:43Z</time></trkpt><trkpt lat="44.69016923074868" lon="9.334006680295534"><ele>397.00000000000006</ele><time>2026-04-18T15:35:44Z</time></trkpt><trkpt lat="44.69016666547483" lon="9.333892846638136"><ele>397.0</ele><time>2026-04-18T15:35:45Z</time></trkpt><trkpt lat="44.69016117528638" lon="9.333785307969118"><ele>397.0</ele><time>2026-04-18T15:35:46Z</time></trkpt><trkpt lat="44.69015273675333" lon="9.333667833234367"><ele>397.0</ele><time>2026-04-18T15:35:47Z</time></trkpt><trkpt lat="44.69014396936542" lon="9.333525895419253"><ele>397.00000000000006</ele><time>2026-04-18T15:35:48Z</time></trkpt><trkpt lat="44.690130492365896" lon="9.333389514255643"><ele>397.0</ele><time>2026-04-18T15:35:49Z</time></trkpt><trkpt lat="44.69011950761988" lon="9.333269919408455"><ele>397.0</ele><time>2026-04-18T15:35:50Z</time></trkpt><trkpt lat="44.69011980657325" lon="9.3331562589556"><ele>397.0</ele><time>2026-04-18T15:35:51Z</time></trkpt><trkpt lat="44.69015246188411" lon="9.333039378929955"><ele>397.0</ele><time>2026-04-18T15:35:52Z</time></trkpt><trkpt lat="44.6902274115318" lon="9.33293661599719"><ele>397.0</ele><time>2026-04-18T15:35:53Z</time></trkpt><trkpt lat="44.690332758711804" lon="9.332841093295928"><ele>397.0</ele><time>2026-04-18T15:35:54Z</time></trkpt><trkpt lat="44.69043711551315" lon="9.332783586667006"><ele>397.0</ele><time>2026-04-18T15:35:55Z</time></trkpt><trkpt lat="44.69053831192719" lon="9.332759543585457"><ele>397.0</ele><time>2026-04-18T15:35:56Z</time></trkpt><trkpt lat="44.690636225117856" lon="9.332758061458229"><ele>397.0</ele><time>2026-04-18T15:35:57Z</time></trkpt><trkpt lat="44.690729845533504" lon="9.332753056083574"><ele>397.0</ele><time>2026-04-18T15:35:58Z</time></trkpt><trkpt lat="44.690821952752174" lon="9.332745233182182"><ele>397.0</ele><time>2026-04-18T15:35:59Z</time></trkpt><trkpt lat="44.69089731438863" lon="9.332736468833774"><ele>397.00000000000006</ele><time>2026-04-18T15:36:00Z</time></trkpt><trkpt lat="44.69096607221244" lon="9.332712440191031"><ele>397.0</ele><time>2026-04-18T15:36:01Z</time></trkpt><trkpt lat="44.6910255362295" lon="9.332649318217399"><ele>397.0</ele><time>2026-04-18T15:36:02Z</time></trkpt><trkpt lat="44.691048842548696" lon="9.332470704345932"><ele>397.0</ele><time>2026-04-18T15:36:04Z</time></trkpt><trkpt lat="44.69103751643008" lon="9.332359614655909"><ele>397.00000000000006</ele><time>2026-04-18T15:36:05Z</time></trkpt><trkpt lat="44.690988688445145" lon="9.332289881488709"><ele>397.0</ele><time>2026-04-18T15:36:06Z</time></trkpt><trkpt lat="44.690907424927246" lon="9.332245930093105"><ele>397.00000000000006</ele><time>2026-04-18T15:36:07Z</time></trkpt><trkpt lat="44.690807500210155" lon="9.332226023353977"><ele>397.0</ele><time>2026-04-18T15:36:08Z</time></trkpt><trkpt lat="44.69071131512347" lon="9.33220259714431"><ele>397.0</ele><time>2026-04-18T15:36:09Z</time></trkpt><trkpt lat="44.69062940755325" lon="9.332150341704114"><ele>397.0</ele><time>2026-04-18T15:36:10Z</time></trkpt><trkpt lat="44.69056990899703" lon="9.332084165313432"><ele>397.00000000000006</ele><time>2026-04-18T15:36:11Z</time></trkpt><trkpt lat="44.69052709976983" lon="9.332009317061939"><ele>397.0</ele><time>2026-04-18T15:36:12Z</time></trkpt><trkpt lat="44.69048322464426" lon="9.331931312235703"><ele>398.40000000000003</ele><time>2026-04-18T15:36:13Z</time></trkpt><trkpt lat="44.69044174081117" lon="9.331861525869817"><ele>399.8</ele><time>2026-04-18T15:36:14Z</time></trkpt><trkpt lat="44.69037775945131" lon="9.331747049173021"><ele>401.2</ele><time>2026-04-18T15:36:16Z</time></trkpt><trkpt lat="44.69031488469909" lon="9.331642331029938"><ele>402.6</ele><time>2026-04-18T15:36:18Z</time></trkpt><trkpt lat="44.69026629737889" lon="9.33153782584772"><ele>404.0</ele><time>2026-04-18T15:36:20Z</time></trkpt><trkpt lat="44.69023202744065" lon="9.33140144028258"><ele>398.2</ele><time>2026-04-18T15:36:22Z</time></trkpt><trkpt lat="44.690208569985714" lon="9.331305850869422"><ele>392.4</ele><time>2026-04-18T15:36:23Z</time></trkpt><trkpt lat="44.690188178021415" lon="9.331188666203152"><ele>386.6</ele><time>2026-04-18T15:36:24Z</time></trkpt><trkpt lat="44.690179363288294" lon="9.331045347254074"><ele>380.8</ele><time>2026-04-18T15:36:25Z</time></trkpt><trkpt lat="44.690183816167504" lon="9.330887791981532"><ele>375.0</ele><time>2026-04-18T15:36:26Z</time></trkpt><trkpt lat="44.69020070091445" lon="9.330736290373968"><ele>375.0</ele><time>2026-04-18T15:36:27Z</time></trkpt><trkpt lat="44.69022106366011" lon="9.330570057283456"><ele>375.0</ele><time>2026-04-18T15:36:28Z</time></trkpt><trkpt lat="44.690229562974345" lon="9.33040322181133"><ele>375.0</ele><time>2026-04-18T15:36:29Z</time></trkpt><trkpt lat="44.69023269087345" lon="9.33024273286442"><ele>375.0</ele><time>2026-04-18T15:36:30Z</time></trkpt><trkpt lat="44.69024068603741" lon="9.330098225075"><ele>375.0</ele><time>2026-04-18T15:36:31Z</time></trkpt><trkpt lat="44.690241064688" lon="9.329966710744447"><ele>375.0</ele><time>2026-04-18T15:36:32Z</time></trkpt><trkpt lat="44.69021617332103" lon="9.329845622127285"><ele>375.0</ele><time>2026-04-18T15:36:33Z</time></trkpt><trkpt lat="44.69015931047356" lon="9.329734652276048"><ele>375.0</ele><time>2026-04-18T15:36:34Z</time></trkpt><trkpt lat="44.690073198654986" lon="9.329630421695475"><ele>375.0</ele><time>2026-04-18T15:36:35Z</time></trkpt><trkpt lat="44.68996906600163" lon="9.329551987443503"><ele>375.0</ele><time>2026-04-18T15:36:36Z</time></trkpt><trkpt lat="44.68985835632173" lon="9.329483616480388"><ele>375.0</ele><time>2026-04-18T15:36:37Z</time></trkpt><trkpt lat="44.689728808497264" lon="9.329402428009933"><ele>375.0</ele><time>2026-04-18T15:36:38Z</time></trkpt><trkpt lat="44.68959053365014" lon="9.329314801415284"><ele>375.0</ele><time>2026-04-18T15:36:39Z</time></trkpt><trkpt lat="44.68947034792336" lon="9.329239838545366"><ele>373.2</ele><time>2026-04-18T15:36:40Z</time></trkpt><trkpt lat="44.68936171797486" lon="9.329171361080938"><ele>371.4</ele><time>2026-04-18T15:36:41Z</time></trkpt><trkpt lat="44.68926018029482" lon="9.329107223980522"><ele>369.6</ele><time>2026-04-18T15:36:42Z</time></trkpt><trkpt lat="44.68916073543493" lon="9.329045009494454"><ele>367.8</ele><time>2026-04-18T15:36:43Z</time></trkpt><trkpt lat="44.689088347838705" lon="9.32900292911421"><ele>366.0</ele><time>2026-04-18T15:36:44Z</time></trkpt><trkpt lat="44.689027852002425" lon="9.328963838058785"><ele>367.4</ele><time>2026-04-18T15:36:45Z</time></trkpt><trkpt lat="44.68893627938163" lon="9.328863233523146"><ele>368.8</ele><time>2026-04-18T15:36:47Z</time></trkpt><trkpt lat="44.688898598179854" lon="9.328721046962862"><ele>370.2</ele><time>2026-04-18T15:36:49Z</time></trkpt><trkpt lat="44.688921290786304" lon="9.328624566411404"><ele>371.59999999999997</ele><time>2026-04-18T15:36:51Z</time></trkpt><trkpt lat="44.688932042632196" lon="9.32849557698102"><ele>373.0</ele><time>2026-04-18T15:36:54Z</time></trkpt><trkpt lat="44.68897178228416" lon="9.328391739630623"><ele>373.0</ele><time>2026-04-18T15:36:56Z</time></trkpt><trkpt lat="44.688993702840385" lon="9.328292986574349"><ele>373.0</ele><time>2026-04-18T15:36:59Z</time></trkpt><trkpt lat="44.68900625290184" lon="9.328200383293508"><ele>373.0</ele><time>2026-04-18T15:37:02Z</time></trkpt><trkpt lat="44.6890371104546" lon="9.328104204733037"><ele>373.0</ele><time>2026-04-18T15:37:05Z</time></trkpt><trkpt lat="44.68905974973365" lon="9.32800265754845"><ele>373.0</ele><time>2026-04-18T15:37:50Z</time></trkpt><trkpt lat="44.689075203465634" lon="9.32789270393274"><ele>373.0</ele><time>2026-04-18T15:38:13Z</time></trkpt><trkpt lat="44.68909441318437" lon="9.327755959370284"><ele>373.8333333333333</ele><time>2026-04-18T15:38:15Z</time></trkpt><trkpt lat="44.68909632215905" lon="9.327662701565993"><ele>374.66666666666663</ele><time>2026-04-18T15:38:16Z</time></trkpt><trkpt lat="44.689100708926354" lon="9.327568059673856"><ele>375.5</ele><time>2026-04-18T15:38:17Z</time></trkpt><trkpt lat="44.68911320042107" lon="9.327455021362363"><ele>376.3333333333333</ele><time>2026-04-18T15:38:19Z</time></trkpt><trkpt lat="44.68912349743381" lon="9.327344663444146"><ele>377.1666666666667</ele><time>2026-04-18T15:38:21Z</time></trkpt><trkpt lat="44.689139760656566" lon="9.32720873319006"><ele>378.0</ele><time>2026-04-18T15:38:23Z</time></trkpt><trkpt lat="44.6891553405668" lon="9.327065702694652"><ele>379.1666666666667</ele><time>2026-04-18T15:38:25Z</time></trkpt><trkpt lat="44.68917197734154" lon="9.326888759013906"><ele>380.33333333333337</ele><time>2026-04-18T15:38:27Z</time></trkpt><trkpt lat="44.689185497028426" lon="9.326784200795297"><ele>381.5</ele><time>2026-04-18T15:38:28Z</time></trkpt><trkpt lat="44.689201328509256" lon="9.326694583534092"><ele>382.6666666666667</ele><time>2026-04-18T15:38:29Z</time></trkpt><trkpt lat="44.68921887230572" lon="9.326601343952076"><ele>383.83333333333337</ele><time>2026-04-18T15:38:30Z</time></trkpt><trkpt lat="44.68923687342422" lon="9.326498625314317"><ele>385.0</ele><time>2026-04-18T15:38:31Z</time></trkpt><trkpt lat="44.68925441620372" lon="9.326394457789846"><ele>385.6666666666667</ele><time>2026-04-18T15:38:32Z</time></trkpt><trkpt lat="44.689271374923884" lon="9.326293606526724"><ele>386.33333333333337</ele><time>2026-04-18T15:38:33Z</time></trkpt><trkpt lat="44.68928759700077" lon="9.326183467722855"><ele>387.0</ele><time>2026-04-18T15:38:34Z</time></trkpt><trkpt lat="44.68930654977122" lon="9.326069435390142"><ele>387.66666666666663</ele><time>2026-04-18T15:38:35Z</time></trkpt><trkpt lat="44.689316664480465" lon="9.325941823760518"><ele>388.3333333333333</ele><time>2026-04-18T15:38:36Z</time></trkpt><trkpt lat="44.68932223936834" lon="9.325825563772122"><ele>389.0</ele><time>2026-04-18T15:38:37Z</time></trkpt><trkpt lat="44.6893250404349" lon="9.325724823583895"><ele>388.99999999999994</ele><time>2026-04-18T15:38:38Z</time></trkpt><trkpt lat="44.689331124057425" lon="9.32561188302204"><ele>389.0</ele><time>2026-04-18T15:38:39Z</time></trkpt><trkpt lat="44.68933754951012" lon="9.325488074990767"><ele>389.0</ele><time>2026-04-18T15:38:40Z</time></trkpt><trkpt lat="44.68934721977481" lon="9.325360491982343"><ele>389.0</ele><time>2026-04-18T15:38:41Z</time></trkpt><trkpt lat="44.68934458480094" lon="9.32522649311157"><ele>388.99999999999994</ele><time>2026-04-18T15:38:42Z</time></trkpt><trkpt lat="44.689344435098405" lon="9.325117536376279"><ele>389.0</ele><time>2026-04-18T15:38:43Z</time></trkpt><trkpt lat="44.68934336562963" lon="9.325005048789805"><ele>389.49999999999994</ele><time>2026-04-18T15:38:44Z</time></trkpt><trkpt lat="44.68934019720015" lon="9.324899517858254"><ele>390.0</ele><time>2026-04-18T15:38:45Z</time></trkpt><trkpt lat="44.68933367406659" lon="9.32480296371999"><ele>390.5</ele><time>2026-04-18T15:38:46Z</time></trkpt><trkpt lat="44.68932932469107" lon="9.324700026049523"><ele>391.0</ele><time>2026-04-18T15:38:47.001Z</time></trkpt><trkpt lat="44.689325719505774" lon="9.324584477682768"><ele>391.49999999999994</ele><time>2026-04-18T15:38:48.001Z</time></trkpt><trkpt lat="44.6893189351801" lon="9.324466470054434"><ele>392.0</ele><time>2026-04-18T15:38:49.001Z</time></trkpt><trkpt lat="44.68931454442972" lon="9.324331339188243"><ele>391.8</ele><time>2026-04-18T15:38:50.001Z</time></trkpt><trkpt lat="44.68931008321882" lon="9.324190214857833"><ele>391.6</ele><time>2026-04-18T15:38:51.001Z</time></trkpt><trkpt lat="44.689306315158476" lon="9.324075978066466"><ele>391.40000000000003</ele><time>2026-04-18T15:38:52.001Z</time></trkpt><trkpt lat="44.68929732807874" lon="9.323958688901312"><ele>391.20000000000005</ele><time>2026-04-18T15:38:53.001Z</time></trkpt><trkpt lat="44.68927288998065" lon="9.323837610246862"><ele>391.0</ele><time>2026-04-18T15:38:54.001Z</time></trkpt><trkpt lat="44.68922422114365" lon="9.323713189728034"><ele>391.00000000000006</ele><time>2026-04-18T15:38:55.001Z</time></trkpt><trkpt lat="44.68916613751887" lon="9.323595605406467"><ele>391.0</ele><time>2026-04-18T15:38:56.001Z</time></trkpt><trkpt lat="44.689113570720615" lon="9.323512105798923"><ele>391.0</ele><time>2026-04-18T15:38:57.001Z</time></trkpt><trkpt lat="44.689065401845006" lon="9.323423386384004"><ele>391.0</ele><time>2026-04-18T15:38:58.001Z</time></trkpt><trkpt lat="44.689012713357975" lon="9.323321130537268"><ele>391.00000000000006</ele><time>2026-04-18T15:38:59.001Z</time></trkpt><trkpt lat="44.688954040607584" lon="9.323226470051788"><ele>391.0</ele><time>2026-04-18T15:39:00.001Z</time></trkpt><trkpt lat="44.68888166892967" lon="9.323151589118085"><ele>391.0</ele><time>2026-04-18T15:39:01.001Z</time></trkpt><trkpt lat="44.68877163102383" lon="9.323085387534821"><ele>391.0</ele><time>2026-04-18T15:39:02.001Z</time></trkpt><trkpt lat="44.68863763127261" lon="9.32304292602129"><ele>391.0</ele><time>2026-04-18T15:39:03.001Z</time></trkpt><trkpt lat="44.68851772783477" lon="9.323004079196084"><ele>391.0</ele><time>2026-04-18T15:39:04.001Z</time></trkpt><trkpt lat="44.68842168973178" lon="9.322959450939026"><ele>393.6</ele><time>2026-04-18T15:39:05.001Z</time></trkpt><trkpt lat="44.6883390547159" lon="9.32289757127965"><ele>396.20000000000005</ele><time>2026-04-18T15:39:06.001Z</time></trkpt><trkpt lat="44.68825814763376" lon="9.322800501928882"><ele>398.79999999999995</ele><time>2026-04-18T15:39:07.001Z</time></trkpt><trkpt lat="44.68821457724004" lon="9.322688195732615"><ele>401.4</ele><time>2026-04-18T15:39:08Z</time></trkpt><trkpt lat="44.68820758176413" lon="9.322572473937331"><ele>404.0</ele><time>2026-04-18T15:39:09Z</time></trkpt><trkpt lat="44.68821038887454" lon="9.322424767771075"><ele>403.99999999999994</ele><time>2026-04-18T15:39:10Z</time></trkpt><trkpt lat="44.68821243962863" lon="9.322250710458224"><ele>404.0</ele><time>2026-04-18T15:39:11Z</time></trkpt><trkpt lat="44.68820977565629" lon="9.322135453536408"><ele>404.0</ele><time>2026-04-18T15:39:12Z</time></trkpt><trkpt lat="44.688193995724205" lon="9.322042208411876"><ele>404.0</ele><time>2026-04-18T15:39:13Z</time></trkpt><trkpt lat="44.68816101358933" lon="9.321943832023365"><ele>403.99999999999994</ele><time>2026-04-18T15:39:14Z</time></trkpt><trkpt lat="44.688121993607275" lon="9.321848225936904"><ele>404.0</ele><time>2026-04-18T15:39:15Z</time></trkpt><trkpt lat="44.68808851322856" lon="9.321758549669877"><ele>404.0</ele><time>2026-04-18T15:39:16Z</time></trkpt><trkpt lat="44.68805821135411" lon="9.321594073308008"><ele>404.0</ele><time>2026-04-18T15:39:18Z</time></trkpt><trkpt lat="44.68805394495357" lon="9.321468203558416"><ele>404.0</ele><time>2026-04-18T15:39:19Z</time></trkpt><trkpt lat="44.68805614956796" lon="9.321317937438144"><ele>404.0</ele><time>2026-04-18T15:39:20Z</time></trkpt><trkpt lat="44.688058879295895" lon="9.321149527454303"><ele>404.0</ele><time>2026-04-18T15:39:21Z</time></trkpt><trkpt lat="44.68806688428026" lon="9.320990730026478"><ele>403.0</ele><time>2026-04-18T15:39:22Z</time></trkpt><trkpt lat="44.688076369578035" lon="9.320829178835178"><ele>402.0</ele><time>2026-04-18T15:39:23Z</time></trkpt><trkpt lat="44.68808425328241" lon="9.320669766268539"><ele>401.0</ele><time>2026-04-18T15:39:24Z</time></trkpt><trkpt lat="44.68809314761028" lon="9.320491628474201"><ele>400.0</ele><time>2026-04-18T15:39:25Z</time></trkpt><trkpt lat="44.68809951564679" lon="9.320343467461857"><ele>398.8</ele><time>2026-04-18T15:39:26Z</time></trkpt><trkpt lat="44.68810379388851" lon="9.32020750565016"><ele>397.6</ele><time>2026-04-18T15:39:27Z</time></trkpt><trkpt lat="44.68810986350696" lon="9.32007008971466"><ele>396.4</ele><time>2026-04-18T15:39:28Z</time></trkpt><trkpt lat="44.6881150145339" lon="9.319953473366523"><ele>395.2</ele><time>2026-04-18T15:39:29Z</time></trkpt><trkpt lat="44.68811818999954" lon="9.319852527443969"><ele>394.0</ele><time>2026-04-18T15:39:30Z</time></trkpt><trkpt lat="44.68812325453805" lon="9.319691053362357"><ele>392.79999999999995</ele><time>2026-04-18T15:39:32Z</time></trkpt><trkpt lat="44.688101644172185" lon="9.319518647433755"><ele>391.59999999999997</ele><time>2026-04-18T15:39:34Z</time></trkpt><trkpt lat="44.68805931321113" lon="9.319422420485218"><ele>390.4</ele><time>2026-04-18T15:39:35Z</time></trkpt><trkpt lat="44.687993806471354" lon="9.319332448014825"><ele>389.2</ele><time>2026-04-18T15:39:36Z</time></trkpt><trkpt lat="44.687907942414235" lon="9.319249631936911"><ele>388.0</ele><time>2026-04-18T15:39:37Z</time></trkpt><trkpt lat="44.68782472645851" lon="9.31920651929761"><ele>394.2</ele><time>2026-04-18T15:39:38Z</time></trkpt><trkpt lat="44.687748647057184" lon="9.319199900838223"><ele>400.4</ele><time>2026-04-18T15:39:39Z</time></trkpt><trkpt lat="44.68767345151868" lon="9.319232802709609"><ele>406.59999999999997</ele><time>2026-04-18T15:39:40Z</time></trkpt><trkpt lat="44.68758985628656" lon="9.319314197677347"><ele>412.79999999999995</ele><time>2026-04-18T15:39:41Z</time></trkpt><trkpt lat="44.68749688646077" lon="9.319399871802148"><ele>419.0</ele><time>2026-04-18T15:39:42Z</time></trkpt><trkpt lat="44.68742256162204" lon="9.319458201849413"><ele>418.99999999999994</ele><time>2026-04-18T15:39:43Z</time></trkpt><trkpt lat="44.68735840665072" lon="9.319496826251221"><ele>419.0</ele><time>2026-04-18T15:39:44Z</time></trkpt><trkpt lat="44.68724345783292" lon="9.31951238523329"><ele>419.0</ele><time>2026-04-18T15:39:46Z</time></trkpt><trkpt lat="44.68717802670727" lon="9.319481437997794"><ele>419.0</ele><time>2026-04-18T15:39:47Z</time></trkpt><trkpt lat="44.68711394581658" lon="9.319402576992001"><ele>418.99999999999994</ele><time>2026-04-18T15:39:48Z</time></trkpt><trkpt lat="44.68706401670501" lon="9.319291990706233"><ele>419.0</ele><time>2026-04-18T15:39:49Z</time></trkpt><trkpt lat="44.68701967787152" lon="9.319151046899545"><ele>419.0</ele><time>2026-04-18T15:39:50Z</time></trkpt><trkpt lat="44.68696897543651" lon="9.318990835434079"><ele>419.0</ele><time>2026-04-18T15:39:51Z</time></trkpt><trkpt lat="44.68692002490045" lon="9.318852110327308"><ele>419.0</ele><time>2026-04-18T15:39:52Z</time></trkpt><trkpt lat="44.68687328524603" lon="9.31870975554486"><ele>419.0</ele><time>2026-04-18T15:39:53Z</time></trkpt><trkpt lat="44.686846867728846" lon="9.318544924724396"><ele>416.75</ele><time>2026-04-18T15:39:54Z</time></trkpt><trkpt lat="44.68685916263813" lon="9.318399174988917"><ele>414.5</ele><time>2026-04-18T15:39:55Z</time></trkpt><trkpt lat="44.686894043291815" lon="9.318240283162611"><ele>412.25</ele><time>2026-04-18T15:39:56Z</time></trkpt><trkpt lat="44.68694721612979" lon="9.31807640911803"><ele>410.0</ele><time>2026-04-18T15:39:57Z</time></trkpt><trkpt lat="44.68702021221824" lon="9.31794048049085"><ele>410.0</ele><time>2026-04-18T15:39:58Z</time></trkpt><trkpt lat="44.687105479041456" lon="9.317844269620124"><ele>410.0</ele><time>2026-04-18T15:39:59Z</time></trkpt><trkpt lat="44.68718227961363" lon="9.317716697600424"><ele>410.0</ele><time>2026-04-18T15:40:00Z</time></trkpt><trkpt lat="44.68724440901674" lon="9.317612470040771"><ele>410.0</ele><time>2026-04-18T15:40:01Z</time></trkpt><trkpt lat="44.68728995313546" lon="9.31749602129497"><ele>410.0</ele><time>2026-04-18T15:40:02Z</time></trkpt><trkpt lat="44.68731325353061" lon="9.317387051284676"><ele>410.0</ele><time>2026-04-18T15:40:03Z</time></trkpt><trkpt lat="44.68730869206883" lon="9.317276194723151"><ele>410.0</ele><time>2026-04-18T15:40:04Z</time></trkpt><trkpt lat="44.687286822841514" lon="9.317160338264008"><ele>410.0</ele><time>2026-04-18T15:40:05Z</time></trkpt><trkpt lat="44.68725317132229" lon="9.31704705109206"><ele>410.0</ele><time>2026-04-18T15:40:06Z</time></trkpt><trkpt lat="44.68723585409058" lon="9.316952093964572"><ele>410.0</ele><time>2026-04-18T15:40:07Z</time></trkpt><trkpt lat="44.68724664242852" lon="9.316749356435631"><ele>412.4</ele><time>2026-04-18T15:40:09Z</time></trkpt><trkpt lat="44.68727024488229" lon="9.316613539690895"><ele>414.8</ele><time>2026-04-18T15:40:10Z</time></trkpt><trkpt lat="44.687291368112" lon="9.316457475979023"><ele>417.20000000000005</ele><time>2026-04-18T15:40:11Z</time></trkpt><trkpt lat="44.68731265275008" lon="9.316303745558066"><ele>419.6</ele><time>2026-04-18T15:40:12Z</time></trkpt><trkpt lat="44.68732822962381" lon="9.316181692117611"><ele>422.0</ele><time>2026-04-18T15:40:13Z</time></trkpt><trkpt lat="44.68734779817707" lon="9.316058381478149"><ele>423.66666666666663</ele><time>2026-04-18T15:40:14Z</time></trkpt><trkpt lat="44.68737091490946" lon="9.315910179576537"><ele>425.3333333333333</ele><time>2026-04-18T15:40:15Z</time></trkpt><trkpt lat="44.687389522159" lon="9.315776110397259"><ele>427.0</ele><time>2026-04-18T15:40:16Z</time></trkpt><trkpt lat="44.687394512338" lon="9.315674512254803"><ele>428.66666666666663</ele><time>2026-04-18T15:40:17Z</time></trkpt><trkpt lat="44.68738473428079" lon="9.315571193687925"><ele>430.3333333333333</ele><time>2026-04-18T15:40:18Z</time></trkpt><trkpt lat="44.68736140145513" lon="9.315457658142575"><ele>432.0</ele><time>2026-04-18T15:40:19Z</time></trkpt><trkpt lat="44.68734379159941" lon="9.31536427065135"><ele>434.1666666666667</ele><time>2026-04-18T15:40:20Z</time></trkpt><trkpt lat="44.687356575190215" lon="9.31526846694024"><ele>436.33333333333337</ele><time>2026-04-18T15:40:21Z</time></trkpt><trkpt lat="44.68740049701031" lon="9.315177529346187"><ele>438.5</ele><time>2026-04-18T15:40:22Z</time></trkpt><trkpt lat="44.68746656801945" lon="9.315090206616482"><ele>440.6666666666667</ele><time>2026-04-18T15:40:23Z</time></trkpt><trkpt lat="44.687527772653006" lon="9.314978835744531"><ele>442.83333333333337</ele><time>2026-04-18T15:40:24Z</time></trkpt><trkpt lat="44.68757872935086" lon="9.314846593009532"><ele>445.0</ele><time>2026-04-18T15:40:25Z</time></trkpt><trkpt lat="44.687616737492476" lon="9.314737047824158"><ele>446.6666666666667</ele><time>2026-04-18T15:40:26Z</time></trkpt><trkpt lat="44.68765808075615" lon="9.314629316204703"><ele>448.33333333333337</ele><time>2026-04-18T15:40:27Z</time></trkpt><trkpt lat="44.68768750031246" lon="9.314545720311674"><ele>450.0</ele><time>2026-04-18T15:40:28Z</time></trkpt><trkpt lat="44.687712391681" lon="9.31443773994115"><ele>451.66666666666663</ele><time>2026-04-18T15:40:29Z</time></trkpt><trkpt lat="44.68772883295016" lon="9.314301565550593"><ele>453.3333333333333</ele><time>2026-04-18T15:40:30Z</time></trkpt><trkpt lat="44.687737379678154" lon="9.314194738371052"><ele>455.0</ele><time>2026-04-18T15:40:31Z</time></trkpt><trkpt lat="44.68774298313418" lon="9.314090101138923"><ele>454.99999999999994</ele><time>2026-04-18T15:40:32Z</time></trkpt><trkpt lat="44.68774103919487" lon="9.313972726582236"><ele>455.0</ele><time>2026-04-18T15:40:33Z</time></trkpt><trkpt lat="44.68773429564997" lon="9.313855659614942"><ele>455.0</ele><time>2026-04-18T15:40:34Z</time></trkpt><trkpt lat="44.68771097247727" lon="9.313753065743992"><ele>455.0</ele><time>2026-04-18T15:40:35Z</time></trkpt><trkpt lat="44.6876699603818" lon="9.313671177391718"><ele>454.99999999999994</ele><time>2026-04-18T15:40:36Z</time></trkpt><trkpt lat="44.687609114757066" lon="9.313600050102274"><ele>455.0</ele><time>2026-04-18T15:40:37Z</time></trkpt><trkpt lat="44.687530386701596" lon="9.313534475904389"><ele>452.4</ele><time>2026-04-18T15:40:38Z</time></trkpt><trkpt lat="44.68743395564955" lon="9.313478911834467"><ele>449.8</ele><time>2026-04-18T15:40:39Z</time></trkpt><trkpt lat="44.6873453510551" lon="9.313437603315116"><ele>447.20000000000005</ele><time>2026-04-18T15:40:40Z</time></trkpt><trkpt lat="44.6872686011356" lon="9.313357377357558"><ele>444.6</ele><time>2026-04-18T15:40:41Z</time></trkpt><trkpt lat="44.687218812064394" lon="9.31323118546423"><ele>442.0</ele><time>2026-04-18T15:40:42Z</time></trkpt><trkpt lat="44.68718513305697" lon="9.313082008332522"><ele>438.8</ele><time>2026-04-18T15:40:43Z</time></trkpt><trkpt lat="44.687149740066765" lon="9.312923948942187"><ele>435.6</ele><time>2026-04-18T15:40:44Z</time></trkpt><trkpt lat="44.687103350030924" lon="9.312758515311922"><ele>432.40000000000003</ele><time>2026-04-18T15:40:45Z</time></trkpt><trkpt lat="44.68706399961556" lon="9.312617716132364"><ele>429.20000000000005</ele><time>2026-04-18T15:40:46Z</time></trkpt><trkpt lat="44.68702920091988" lon="9.312501881255756"><ele>426.0</ele><time>2026-04-18T15:40:47Z</time></trkpt><trkpt lat="44.68699300496951" lon="9.312387651653122"><ele>426.0</ele><time>2026-04-18T15:40:48Z</time></trkpt><trkpt lat="44.686950239482385" lon="9.312275329743095"><ele>426.0</ele><time>2026-04-18T15:40:49Z</time></trkpt><trkpt lat="44.686908311429484" lon="9.312177097800484"><ele>426.0</ele><time>2026-04-18T15:40:50Z</time></trkpt><trkpt lat="44.686878666186146" lon="9.31209450613965"><ele>426.0</ele><time>2026-04-18T15:40:51Z</time></trkpt><trkpt lat="44.68683563173564" lon="9.311991730559996"><ele>426.0</ele><time>2026-04-18T15:40:53.001Z</time></trkpt><trkpt lat="44.68674698052587" lon="9.311846182686113"><ele>433.5</ele><time>2026-04-18T15:40:55.001Z</time></trkpt><trkpt lat="44.6866794387481" lon="9.3117499954504"><ele>441.0</ele><time>2026-04-18T15:40:56.001Z</time></trkpt><trkpt lat="44.686584398987094" lon="9.31165766354378"><ele>448.5</ele><time>2026-04-18T15:40:57.001Z</time></trkpt><trkpt lat="44.68646269700196" lon="9.311568059489211"><ele>456.0</ele><time>2026-04-18T15:40:58.001Z</time></trkpt><trkpt lat="44.68634766287219" lon="9.31146970116083"><ele>454.0</ele><time>2026-04-18T15:40:59.001Z</time></trkpt><trkpt lat="44.68627845731482" lon="9.311348586290261"><ele>452.0</ele><time>2026-04-18T15:41:00.001Z</time></trkpt><trkpt lat="44.686236278598706" lon="9.311200606374918"><ele>450.0</ele><time>2026-04-18T15:41:01.001Z</time></trkpt><trkpt lat="44.68623950401773" lon="9.311012851845698"><ele>448.0</ele><time>2026-04-18T15:41:02.001Z</time></trkpt><trkpt lat="44.686259413411406" lon="9.310806880888887"><ele>448.0</ele><time>2026-04-18T15:41:03.001Z</time></trkpt><trkpt lat="44.68630977901281" lon="9.31058530499848"><ele>448.0</ele><time>2026-04-18T15:41:04.001Z</time></trkpt><trkpt lat="44.68635838243787" lon="9.31042167393842"><ele>448.0</ele><time>2026-04-18T15:41:05.001Z</time></trkpt><trkpt lat="44.68642429154435" lon="9.310295097840093"><ele>448.0</ele><time>2026-04-18T15:41:06.001Z</time></trkpt><trkpt lat="44.68652008444377" lon="9.310215980396551"><ele>452.4</ele><time>2026-04-18T15:41:07.001Z</time></trkpt><trkpt lat="44.68663670134076" lon="9.310196022671617"><ele>456.79999999999995</ele><time>2026-04-18T15:41:08.001Z</time></trkpt><trkpt lat="44.68673601784761" lon="9.31017771714508"><ele>461.2</ele><time>2026-04-18T15:41:09.001Z</time></trkpt><trkpt lat="44.686817303770745" lon="9.310109486840238"><ele>465.6</ele><time>2026-04-18T15:41:10.001Z</time></trkpt><trkpt lat="44.68689287514433" lon="9.310007912279733"><ele>470.0</ele><time>2026-04-18T15:41:11.001Z</time></trkpt><trkpt lat="44.68695552782267" lon="9.309888848933875"><ele>469.6</ele><time>2026-04-18T15:41:12.001Z</time></trkpt><trkpt lat="44.68699630777027" lon="9.309749372894812"><ele>469.2</ele><time>2026-04-18T15:41:13.001Z</time></trkpt><trkpt lat="44.687001794043056" lon="9.309608661324866"><ele>468.79999999999995</ele><time>2026-04-18T15:41:14Z</time></trkpt><trkpt lat="44.68699625152026" lon="9.309468055638783"><ele>468.4</ele><time>2026-04-18T15:41:15Z</time></trkpt><trkpt lat="44.686960802788676" lon="9.309339001425958"><ele>468.0</ele><time>2026-04-18T15:41:16Z</time></trkpt><trkpt lat="44.686914175497805" lon="9.309243938417184"><ele>468.0</ele><time>2026-04-18T15:41:17Z</time></trkpt><trkpt lat="44.68686381924326" lon="9.309162353303078"><ele>467.99999999999994</ele><time>2026-04-18T15:41:18Z</time></trkpt><trkpt lat="44.686805031517366" lon="9.309071024301778"><ele>467.99999999999994</ele><time>2026-04-18T15:41:19Z</time></trkpt><trkpt lat="44.68672377671825" lon="9.309013209298167"><ele>468.0</ele><time>2026-04-18T15:41:20Z</time></trkpt><trkpt lat="44.686625831737516" lon="9.308979558253286"><ele>468.0</ele><time>2026-04-18T15:41:21Z</time></trkpt><trkpt lat="44.686524815918126" lon="9.308946654349002"><ele>464.79999999999995</ele><time>2026-04-18T15:41:22Z</time></trkpt><trkpt lat="44.68641643276564" lon="9.3089054699687"><ele>461.59999999999997</ele><time>2026-04-18T15:41:23Z</time></trkpt><trkpt lat="44.68629840562007" lon="9.30885575858915"><ele>458.40000000000003</ele><time>2026-04-18T15:41:24Z</time></trkpt><trkpt lat="44.68620103437806" lon="9.308818661268528"><ele>455.20000000000005</ele><time>2026-04-18T15:41:25Z</time></trkpt><trkpt lat="44.686096132404245" lon="9.308809962130567"><ele>452.0</ele><time>2026-04-18T15:41:26Z</time></trkpt><trkpt lat="44.685961426272094" lon="9.308834762115216"><ele>452.0</ele><time>2026-04-18T15:41:27Z</time></trkpt><trkpt lat="44.68585114884032" lon="9.308865040356686"><ele>452.00000000000006</ele><time>2026-04-18T15:41:28Z</time></trkpt><trkpt lat="44.68576003237426" lon="9.308879309216717"><ele>452.00000000000006</ele><time>2026-04-18T15:41:29Z</time></trkpt><trkpt lat="44.68566709344664" lon="9.30886075058028"><ele>452.0</ele><time>2026-04-18T15:41:30Z</time></trkpt><trkpt lat="44.68555372990785" lon="9.308847341476264"><ele>452.0</ele><time>2026-04-18T15:41:31Z</time></trkpt><trkpt lat="44.68541517159783" lon="9.308830390206047"><ele>452.0</ele><time>2026-04-18T15:41:32Z</time></trkpt><trkpt lat="44.68529465156252" lon="9.308827081069587"><ele>452.00000000000006</ele><time>2026-04-18T15:41:33Z</time></trkpt><trkpt lat="44.685195387552554" lon="9.308854078941671"><ele>452.00000000000006</ele><time>2026-04-18T15:41:34Z</time></trkpt><trkpt lat="44.68510441692493" lon="9.308861932799305"><ele>452.0</ele><time>2026-04-18T15:41:35Z</time></trkpt><trkpt lat="44.685025447550075" lon="9.308868813753818"><ele>452.0</ele><time>2026-04-18T15:41:36Z</time></trkpt><trkpt lat="44.68494152823249" lon="9.308880788401622"><ele>459.6</ele><time>2026-04-18T15:41:37Z</time></trkpt><trkpt lat="44.684852033983546" lon="9.308922615094595"><ele>467.20000000000005</ele><time>2026-04-18T15:41:38Z</time></trkpt><trkpt lat="44.68478875778216" lon="9.308970515644127"><ele>474.8</ele><time>2026-04-18T15:41:39Z</time></trkpt><trkpt lat="44.6846724131572" lon="9.309055280823818"><ele>482.4</ele><time>2026-04-18T15:41:41Z</time></trkpt><trkpt lat="44.68459259627792" lon="9.30909753251409"><ele>490.0</ele><time>2026-04-18T15:41:42Z</time></trkpt><trkpt lat="44.68449314975386" lon="9.309123220031672"><ele>490.2</ele><time>2026-04-18T15:41:43Z</time></trkpt><trkpt lat="44.68436940304445" lon="9.309117766335547"><ele>490.4</ele><time>2026-04-18T15:41:44Z</time></trkpt><trkpt lat="44.68426173761946" lon="9.309109270596926"><ele>490.6</ele><time>2026-04-18T15:41:45Z</time></trkpt><trkpt lat="44.68416861917547" lon="9.309106827190732"><ele>490.8</ele><time>2026-04-18T15:41:46Z</time></trkpt><trkpt lat="44.684072765182115" lon="9.309089284510353"><ele>491.0</ele><time>2026-04-18T15:41:47Z</time></trkpt><trkpt lat="44.683996820676356" lon="9.309051837336405"><ele>490.99999999999994</ele><time>2026-04-18T15:41:48Z</time></trkpt><trkpt lat="44.68394381303056" lon="9.308986880962033"><ele>491.0</ele><time>2026-04-18T15:41:49Z</time></trkpt><trkpt lat="44.68389588145747" lon="9.30889941377036"><ele>491.0</ele><time>2026-04-18T15:41:50Z</time></trkpt><trkpt lat="44.683855903557834" lon="9.308783577532454"><ele>491.0</ele><time>2026-04-18T15:41:51Z</time></trkpt><trkpt lat="44.68380235768455" lon="9.308665090513077"><ele>490.99999999999994</ele><time>2026-04-18T15:41:52Z</time></trkpt><trkpt lat="44.6837377380083" lon="9.308575632646065"><ele>491.0</ele><time>2026-04-18T15:41:53Z</time></trkpt><trkpt lat="44.68366988399299" lon="9.308507773200498"><ele>490.6</ele><time>2026-04-18T15:41:54Z</time></trkpt><trkpt lat="44.683582075379" lon="9.308452194470874"><ele>490.20000000000005</ele><time>2026-04-18T15:41:55Z</time></trkpt><trkpt lat="44.68350243124132" lon="9.308405476401735"><ele>489.79999999999995</ele><time>2026-04-18T15:41:56Z</time></trkpt><trkpt lat="44.68344185390885" lon="9.308364300880346"><ele>489.4</ele><time>2026-04-18T15:41:57Z</time></trkpt><trkpt lat="44.68335008805996" lon="9.30828528925723"><ele>489.0</ele><time>2026-04-18T15:41:59Z</time></trkpt><trkpt lat="44.68331252258294" lon="9.30814427862566"><ele>487.6</ele><time>2026-04-18T15:42:01Z</time></trkpt><trkpt lat="44.68332899676187" lon="9.308057496191816"><ele>486.2</ele><time>2026-04-18T15:42:02Z</time></trkpt><trkpt lat="44.683378365710766" lon="9.307966631451734"><ele>484.80000000000007</ele><time>2026-04-18T15:42:03Z</time></trkpt><trkpt lat="44.68346740100971" lon="9.307840267876514"><ele>483.40000000000003</ele><time>2026-04-18T15:42:04Z</time></trkpt><trkpt lat="44.68354498041289" lon="9.307724758684422"><ele>482.0</ele><time>2026-04-18T15:42:05Z</time></trkpt><trkpt lat="44.68361666370085" lon="9.307604430776923"><ele>482.0</ele><time>2026-04-18T15:42:06Z</time></trkpt><trkpt lat="44.68367481831134" lon="9.307463187808457"><ele>482.0</ele><time>2026-04-18T15:42:07Z</time></trkpt><trkpt lat="44.68371737474809" lon="9.307306690387597"><ele>482.0</ele><time>2026-04-18T15:42:08Z</time></trkpt><trkpt lat="44.68374825574204" lon="9.307129236931418"><ele>482.0</ele><time>2026-04-18T15:42:09Z</time></trkpt><trkpt lat="44.68377981922353" lon="9.306918273186993"><ele>481.8</ele><time>2026-04-18T15:42:10Z</time></trkpt><trkpt lat="44.683812530197876" lon="9.306764655274206"><ele>481.6</ele><time>2026-04-18T15:42:11Z</time></trkpt><trkpt lat="44.6838273934281" lon="9.306636488723878"><ele>481.40000000000003</ele><time>2026-04-18T15:42:12Z</time></trkpt><trkpt lat="44.68381166581074" lon="9.306489732897163"><ele>481.20000000000005</ele><time>2026-04-18T15:42:13Z</time></trkpt><trkpt lat="44.6837675222894" lon="9.30632781969951"><ele>481.0</ele><time>2026-04-18T15:42:14Z</time></trkpt><trkpt lat="44.683717294810926" lon="9.306146794557856"><ele>478.20000000000005</ele><time>2026-04-18T15:42:15Z</time></trkpt><trkpt lat="44.68368979128515" lon="9.3060204486503"><ele>475.40000000000003</ele><time>2026-04-18T15:42:16Z</time></trkpt><trkpt lat="44.68363572159354" lon="9.30593770337428"><ele>472.6</ele><time>2026-04-18T15:42:17Z</time></trkpt><trkpt lat="44.68354347788706" lon="9.305885980258557"><ele>469.8</ele><time>2026-04-18T15:42:18Z</time></trkpt><trkpt lat="44.68341765230408" lon="9.305855272153162"><ele>467.0</ele><time>2026-04-18T15:42:19Z</time></trkpt><trkpt lat="44.683282176175986" lon="9.305789180058968"><ele>471.40000000000003</ele><time>2026-04-18T15:42:20Z</time></trkpt><trkpt lat="44.683187013534024" lon="9.305692171672474"><ele>475.80000000000007</ele><time>2026-04-18T15:42:21Z</time></trkpt><trkpt lat="44.68312536669164" lon="9.305602111153835"><ele>480.2</ele><time>2026-04-18T15:42:22Z</time></trkpt><trkpt lat="44.68309948326209" lon="9.305481148862714"><ele>484.6</ele><time>2026-04-18T15:42:23Z</time></trkpt><trkpt lat="44.68310902825099" lon="9.305330579905277"><ele>489.0</ele><time>2026-04-18T15:42:24Z</time></trkpt><trkpt lat="44.68311893759284" lon="9.30516894411089"><ele>489.0</ele><time>2026-04-18T15:42:25Z</time></trkpt><trkpt lat="44.68309016731183" lon="9.305027605208123"><ele>489.0</ele><time>2026-04-18T15:42:26Z</time></trkpt><trkpt lat="44.68303660497159" lon="9.304877023022106"><ele>489.0</ele><time>2026-04-18T15:42:27Z</time></trkpt><trkpt lat="44.682958509178626" lon="9.304704435361819"><ele>489.0</ele><time>2026-04-18T15:42:28Z</time></trkpt><trkpt lat="44.68288721310301" lon="9.304531415982819"><ele>489.4</ele><time>2026-04-18T15:42:29Z</time></trkpt><trkpt lat="44.68282950672615" lon="9.30438192018281"><ele>489.79999999999995</ele><time>2026-04-18T15:42:30Z</time></trkpt><trkpt lat="44.68278361475021" lon="9.304247988198007"><ele>490.20000000000005</ele><time>2026-04-18T15:42:31Z</time></trkpt><trkpt lat="44.682730708690016" lon="9.30412504776164"><ele>490.6</ele><time>2026-04-18T15:42:32Z</time></trkpt><trkpt lat="44.6826676545398" lon="9.30402312606676"><ele>491.0</ele><time>2026-04-18T15:42:33Z</time></trkpt><trkpt lat="44.6825920084811" lon="9.303948338534664"><ele>493.5</ele><time>2026-04-18T15:42:34Z</time></trkpt><trkpt lat="44.68249268440821" lon="9.30389982048099"><ele>496.0</ele><time>2026-04-18T15:42:35Z</time></trkpt><trkpt lat="44.68237330254803" lon="9.30390631004862"><ele>498.5</ele><time>2026-04-18T15:42:36Z</time></trkpt><trkpt lat="44.68223011481163" lon="9.303948362969619"><ele>501.0</ele><time>2026-04-18T15:42:37Z</time></trkpt><trkpt lat="44.682058047989685" lon="9.3040012292541"><ele>502.66666666666663</ele><time>2026-04-18T15:42:38Z</time></trkpt><trkpt lat="44.681857925528995" lon="9.304049915243912"><ele>504.3333333333333</ele><time>2026-04-18T15:42:39Z</time></trkpt><trkpt lat="44.681663613123625" lon="9.304094781987839"><ele>506.0</ele><time>2026-04-18T15:42:40Z</time></trkpt><trkpt lat="44.68149854344396" lon="9.30413188050487"><ele>506.0</ele><time>2026-04-18T15:42:41Z</time></trkpt><trkpt lat="44.681349207474874" lon="9.304168202958449"><ele>506.0</ele><time>2026-04-18T15:42:42Z</time></trkpt><trkpt lat="44.68120887153844" lon="9.304185459028535"><ele>506.0</ele><time>2026-04-18T15:42:43Z</time></trkpt><trkpt lat="44.68108646158004" lon="9.304163828208367"><ele>506.0</ele><time>2026-04-18T15:42:44Z</time></trkpt><trkpt lat="44.680968345158455" lon="9.304090354809588"><ele>505.0</ele><time>2026-04-18T15:42:45Z</time></trkpt><trkpt lat="44.680869731384504" lon="9.303963723574233"><ele>504.0</ele><time>2026-04-18T15:42:46Z</time></trkpt><trkpt lat="44.680785846389966" lon="9.30383477531127"><ele>503.0</ele><time>2026-04-18T15:42:47Z</time></trkpt><trkpt lat="44.680702670701876" lon="9.303740963678955"><ele>502.0</ele><time>2026-04-18T15:42:48Z</time></trkpt><trkpt lat="44.68064121302574" lon="9.303671128708585"><ele>501.0</ele><time>2026-04-18T15:42:49Z</time></trkpt><trkpt lat="44.68031646569884" lon="9.303460591405162"><ele>504.4</ele><time>2026-04-18T15:42:50Z</time></trkpt><trkpt lat="44.68023696293949" lon="9.303350234568134"><ele>507.8</ele><time>2026-04-18T15:42:51Z</time></trkpt><trkpt lat="44.680158510411566" lon="9.303269781171098"><ele>511.19999999999993</ele><time>2026-04-18T15:42:52Z</time></trkpt><trkpt lat="44.68006867168415" lon="9.30322880776411"><ele>514.6</ele><time>2026-04-18T15:42:53Z</time></trkpt><trkpt lat="44.67995906225597" lon="9.303244660427964"><ele>518.0</ele><time>2026-04-18T15:42:54Z</time></trkpt><trkpt lat="44.679838845231764" lon="9.303323867841973"><ele>518.0</ele><time>2026-04-18T15:42:55Z</time></trkpt><trkpt lat="44.679699300638894" lon="9.30344607500543"><ele>518.0</ele><time>2026-04-18T15:42:56Z</time></trkpt><trkpt lat="44.67956184035624" lon="9.303586483719933"><ele>518.0</ele><time>2026-04-18T15:42:57Z</time></trkpt><trkpt lat="44.67942455064409" lon="9.30370520346764"><ele>515.5</ele><time>2026-04-18T15:42:58Z</time></trkpt><trkpt lat="44.67929384354799" lon="9.303776526956751"><ele>513.0</ele><time>2026-04-18T15:42:59.001Z</time></trkpt><trkpt lat="44.679146462108875" lon="9.303804923656768"><ele>510.5</ele><time>2026-04-18T15:43:00.001Z</time></trkpt><trkpt lat="44.678997532205045" lon="9.303811157301329"><ele>508.0</ele><time>2026-04-18T15:43:01.001Z</time></trkpt><trkpt lat="44.678869585272835" lon="9.303826406954915"><ele>508.0</ele><time>2026-04-18T15:43:02.001Z</time></trkpt><trkpt lat="44.678731471951686" lon="9.303868160620517"><ele>508.0</ele><time>2026-04-18T15:43:03.001Z</time></trkpt><trkpt lat="44.678622260567714" lon="9.303926997915383"><ele>508.0</ele><time>2026-04-18T15:43:04.001Z</time></trkpt><trkpt lat="44.67853287815392" lon="9.303989414533003"><ele>508.0</ele><time>2026-04-18T15:43:05.001Z</time></trkpt><trkpt lat="44.67844675635903" lon="9.304074708657607"><ele>511.0</ele><time>2026-04-18T15:43:06.001Z</time></trkpt><trkpt lat="44.67835318636208" lon="9.304214124528169"><ele>514.0</ele><time>2026-04-18T15:43:07.001Z</time></trkpt><trkpt lat="44.67828356780856" lon="9.304392774807571"><ele>517.0</ele><time>2026-04-18T15:43:08.001Z</time></trkpt><trkpt lat="44.67823300342059" lon="9.30457063977205"><ele>520.0</ele><time>2026-04-18T15:43:09.001Z</time></trkpt><trkpt lat="44.67818229565253" lon="9.304704881932897"><ele>520.0</ele><time>2026-04-18T15:43:10.001Z</time></trkpt><trkpt lat="44.67807594141522" lon="9.304737084900198"><ele>520.0</ele><time>2026-04-18T15:43:11.001Z</time></trkpt><trkpt lat="44.677960723289694" lon="9.30474772498395"><ele>520.0</ele><time>2026-04-18T15:43:12.001Z</time></trkpt><trkpt lat="44.677857940597924" lon="9.304811998614538"><ele>520.0</ele><time>2026-04-18T15:43:13.001Z</time></trkpt><trkpt lat="44.6777577898985" lon="9.304907082524247"><ele>522.75</ele><time>2026-04-18T15:43:14.001Z</time></trkpt><trkpt lat="44.677677461563846" lon="9.305055087367142"><ele>525.5</ele><time>2026-04-18T15:43:15Z</time></trkpt><trkpt lat="44.677578197690366" lon="9.305132292115815"><ele>528.25</ele><time>2026-04-18T15:43:16Z</time></trkpt><trkpt lat="44.677462107521755" lon="9.305151485479678"><ele>531.0</ele><time>2026-04-18T15:43:17Z</time></trkpt><trkpt lat="44.67730659084873" lon="9.305173229676738"><ele>531.0</ele><time>2026-04-18T15:43:18Z</time></trkpt><trkpt lat="44.67712237413052" lon="9.305203224717738"><ele>531.0</ele><time>2026-04-18T15:43:19Z</time></trkpt><trkpt lat="44.676914652065065" lon="9.305242516849315"><ele>531.0</ele><time>2026-04-18T15:43:20Z</time></trkpt><trkpt lat="44.67673196255692" lon="9.30527286669162"><ele>530.75</ele><time>2026-04-18T15:43:21Z</time></trkpt><trkpt lat="44.676577763813576" lon="9.30529681490057"><ele>530.5</ele><time>2026-04-18T15:43:22Z</time></trkpt><trkpt lat="44.67643107229524" lon="9.305317439774711"><ele>530.25</ele><time>2026-04-18T15:43:23Z</time></trkpt><trkpt lat="44.676304969035925" lon="9.305329913484773"><ele>530.0</ele><time>2026-04-18T15:43:24Z</time></trkpt><trkpt lat="44.676175025274354" lon="9.305357563110244"><ele>532.0</ele><time>2026-04-18T15:43:25Z</time></trkpt><trkpt lat="44.676040462678756" lon="9.30542361144591"><ele>534.0</ele><time>2026-04-18T15:43:26Z</time></trkpt><trkpt lat="44.67591481748174" lon="9.30553848292386"><ele>536.0</ele><time>2026-04-18T15:43:27Z</time></trkpt><trkpt lat="44.67581257798028" lon="9.305692761371215"><ele>538.0</ele><time>2026-04-18T15:43:28Z</time></trkpt><trkpt lat="44.675729115663074" lon="9.305875109461299"><ele>538.0</ele><time>2026-04-18T15:43:29Z</time></trkpt><trkpt lat="44.675663943030195" lon="9.306073725523188"><ele>538.0</ele><time>2026-04-18T15:43:30Z</time></trkpt><trkpt lat="44.675616724831755" lon="9.306243868832746"><ele>538.0</ele><time>2026-04-18T15:43:31Z</time></trkpt><trkpt lat="44.67559849645762" lon="9.306400430305446"><ele>538.0</ele><time>2026-04-18T15:43:32Z</time></trkpt><trkpt lat="44.675606598655015" lon="9.306572931015404"><ele>540.8</ele><time>2026-04-18T15:43:33Z</time></trkpt><trkpt lat="44.67561979524778" lon="9.306760043220972"><ele>543.5999999999999</ele><time>2026-04-18T15:43:34Z</time></trkpt><trkpt lat="44.6756219293227" lon="9.306887780597735"><ele>546.4000000000001</ele><time>2026-04-18T15:43:35Z</time></trkpt><trkpt lat="44.67558415766229" lon="9.30697628429171"><ele>549.2</ele><time>2026-04-18T15:43:36Z</time></trkpt><trkpt lat="44.67550970347638" lon="9.307042249516076"><ele>552.0</ele><time>2026-04-18T15:43:37Z</time></trkpt><trkpt lat="44.6754031673714" lon="9.30708797907522"><ele>552.0</ele><time>2026-04-18T15:43:38Z</time></trkpt><trkpt lat="44.67530772544847" lon="9.307159912834619"><ele>552.0</ele><time>2026-04-18T15:43:39Z</time></trkpt><trkpt lat="44.67524850972622" lon="9.307263687168815"><ele>552.0</ele><time>2026-04-18T15:43:40Z</time></trkpt><trkpt lat="44.675222155381825" lon="9.307397251654724"><ele>552.0</ele><time>2026-04-18T15:43:41Z</time></trkpt><trkpt lat="44.6752185023292" lon="9.3075591891636"><ele>552.0</ele><time>2026-04-18T15:43:42Z</time></trkpt><trkpt lat="44.675232063361626" lon="9.307749960092"><ele>554.6666666666666</ele><time>2026-04-18T15:43:43Z</time></trkpt><trkpt lat="44.675271485621955" lon="9.307952825467579"><ele>557.3333333333333</ele><time>2026-04-18T15:43:44Z</time></trkpt><trkpt lat="44.675330055264084" lon="9.308170251030988"><ele>560.0</ele><time>2026-04-18T15:43:45Z</time></trkpt><trkpt lat="44.67539327100393" lon="9.308376304749288"><ele>560.4</ele><time>2026-04-18T15:43:46Z</time></trkpt><trkpt lat="44.67544841547036" lon="9.308538536211026"><ele>560.8</ele><time>2026-04-18T15:43:47Z</time></trkpt><trkpt lat="44.675494711119946" lon="9.308658857659788"><ele>561.2</ele><time>2026-04-18T15:43:48Z</time></trkpt><trkpt lat="44.67550706933654" lon="9.308772857933645"><ele>561.6</ele><time>2026-04-18T15:43:49Z</time></trkpt><trkpt lat="44.67546187603043" lon="9.308871320377992"><ele>562.0</ele><time>2026-04-18T15:43:50Z</time></trkpt><trkpt lat="44.67535719950412" lon="9.308931257563323"><ele>558.75</ele><time>2026-04-18T15:43:51Z</time></trkpt><trkpt lat="44.675249907198086" lon="9.309040560162373"><ele>555.5</ele><time>2026-04-18T15:43:52Z</time></trkpt><trkpt lat="44.675114021109906" lon="9.309135109336292"><ele>552.25</ele><time>2026-04-18T15:43:53Z</time></trkpt><trkpt lat="44.67498591440358" lon="9.309237127556138"><ele>549.0</ele><time>2026-04-18T15:43:54Z</time></trkpt><trkpt lat="44.67488815583963" lon="9.309305584178707"><ele>549.0</ele><time>2026-04-18T15:43:55Z</time></trkpt><trkpt lat="44.67480226756493" lon="9.309318230343104"><ele>549.0</ele><time>2026-04-18T15:43:56Z</time></trkpt><trkpt lat="44.674720872337375" lon="9.309249020510675"><ele>549.0</ele><time>2026-04-18T15:43:57Z</time></trkpt><trkpt lat="44.67466546864732" lon="9.309099912716267"><ele>549.0</ele><time>2026-04-18T15:43:58Z</time></trkpt><trkpt lat="44.674567908469044" lon="9.308990186249698"><ele>549.0</ele><time>2026-04-18T15:43:59Z</time></trkpt><trkpt lat="44.67449081458875" lon="9.308921221316359"><ele>551.0</ele><time>2026-04-18T15:44:00Z</time></trkpt><trkpt lat="44.6743944820473" lon="9.308925481304327"><ele>553.0</ele><time>2026-04-18T15:44:01Z</time></trkpt><trkpt lat="44.67428176352978" lon="9.3089717896801"><ele>555.0</ele><time>2026-04-18T15:44:02Z</time></trkpt><trkpt lat="44.67415068562389" lon="9.309018161696208"><ele>557.0</ele><time>2026-04-18T15:44:03Z</time></trkpt><trkpt lat="44.67401554400604" lon="9.309014163059068"><ele>557.0</ele><time>2026-04-18T15:44:04Z</time></trkpt><trkpt lat="44.67389883196495" lon="9.308917999894417"><ele>557.0</ele><time>2026-04-18T15:44:05Z</time></trkpt><trkpt lat="44.67378835634232" lon="9.308782414930704"><ele>557.0</ele><time>2026-04-18T15:44:06Z</time></trkpt><trkpt lat="44.6736723347476" lon="9.308662616312503"><ele>557.0</ele><time>2026-04-18T15:44:07Z</time></trkpt><trkpt lat="44.67357303977279" lon="9.308548777269321"><ele>551.8000000000001</ele><time>2026-04-18T15:44:08Z</time></trkpt><trkpt lat="44.67347380127079" lon="9.308481277025026"><ele>546.6</ele><time>2026-04-18T15:44:09Z</time></trkpt><trkpt lat="44.67337586708127" lon="9.308428740133332"><ele>541.4000000000001</ele><time>2026-04-18T15:44:10Z</time></trkpt><trkpt lat="44.67329225665021" lon="9.308411309399707"><ele>536.2</ele><time>2026-04-18T15:44:11Z</time></trkpt><trkpt lat="44.67320434838668" lon="9.308439874755145"><ele>531.0</ele><time>2026-04-18T15:44:12Z</time></trkpt><trkpt lat="44.673116501947305" lon="9.3085209068344"><ele>531.0</ele><time>2026-04-18T15:44:13Z</time></trkpt><trkpt lat="44.673044021159164" lon="9.308641720539535"><ele>531.0</ele><time>2026-04-18T15:44:14Z</time></trkpt><trkpt lat="44.6729684258598" lon="9.30879364429493"><ele>531.0</ele><time>2026-04-18T15:44:15Z</time></trkpt><trkpt lat="44.67289122247237" lon="9.308969542679682"><ele>531.0</ele><time>2026-04-18T15:44:16Z</time></trkpt><trkpt lat="44.67280410651893" lon="9.309142780041535"><ele>533.5</ele><time>2026-04-18T15:44:17Z</time></trkpt><trkpt lat="44.672696037166816" lon="9.30924330937001"><ele>536.0</ele><time>2026-04-18T15:44:18Z</time></trkpt><trkpt lat="44.67258126792161" lon="9.309332315271604"><ele>538.5</ele><time>2026-04-18T15:44:19Z</time></trkpt><trkpt lat="44.67245110701966" lon="9.309440577629516"><ele>541.0</ele><time>2026-04-18T15:44:20Z</time></trkpt><trkpt lat="44.67232859850439" lon="9.309525099016287"><ele>541.0</ele><time>2026-04-18T15:44:21Z</time></trkpt><trkpt lat="44.67221987656686" lon="9.309601266504393"><ele>541.0</ele><time>2026-04-18T15:44:22Z</time></trkpt><trkpt lat="44.67212222186032" lon="9.309662746515345"><ele>541.0</ele><time>2026-04-18T15:44:23Z</time></trkpt><trkpt lat="44.67201679579147" lon="9.309668671498137"><ele>541.0</ele><time>2026-04-18T15:44:24Z</time></trkpt><trkpt lat="44.671891844016386" lon="9.309642541199517"><ele>538.0</ele><time>2026-04-18T15:44:25Z</time></trkpt><trkpt lat="44.67174958830062" lon="9.309630331366458"><ele>535.0</ele><time>2026-04-18T15:44:26Z</time></trkpt><trkpt lat="44.6716216083517" lon="9.309646946104007"><ele>532.0</ele><time>2026-04-18T15:44:27Z</time></trkpt><trkpt lat="44.67151540061346" lon="9.309660129278784"><ele>529.0</ele><time>2026-04-18T15:44:28Z</time></trkpt><trkpt lat="44.67141331135988" lon="9.309623577839291"><ele>529.0</ele><time>2026-04-18T15:44:29Z</time></trkpt><trkpt lat="44.67131030526468" lon="9.309504487657012"><ele>529.0</ele><time>2026-04-18T15:44:30Z</time></trkpt><trkpt lat="44.671214047223685" lon="9.3094319331122"><ele>529.0</ele><time>2026-04-18T15:44:31Z</time></trkpt><trkpt lat="44.67112692287381" lon="9.30936330333744"><ele>529.0</ele><time>2026-04-18T15:44:32Z</time></trkpt><trkpt lat="44.671040164492126" lon="9.309358334073863"><ele>529.0</ele><time>2026-04-18T15:44:33Z</time></trkpt><trkpt lat="44.67095521406283" lon="9.309405927524248"><ele>529.75</ele><time>2026-04-18T15:44:34Z</time></trkpt><trkpt lat="44.67086101968374" lon="9.309501571651671"><ele>530.5</ele><time>2026-04-18T15:44:35Z</time></trkpt><trkpt lat="44.67074046989336" lon="9.309590110530143"><ele>531.25</ele><time>2026-04-18T15:44:36Z</time></trkpt><trkpt lat="44.670582988382705" lon="9.30962039513857"><ele>532.0</ele><time>2026-04-18T15:44:37Z</time></trkpt><trkpt lat="44.6704095288962" lon="9.30958583341052"><ele>532.0</ele><time>2026-04-18T15:44:38Z</time></trkpt><trkpt lat="44.67027981967232" lon="9.309548025159716"><ele>532.0</ele><time>2026-04-18T15:44:39Z</time></trkpt><trkpt lat="44.67018041476195" lon="9.309471230744212"><ele>532.0</ele><time>2026-04-18T15:44:40Z</time></trkpt><trkpt lat="44.67008598064382" lon="9.309421204567565"><ele>532.0</ele><time>2026-04-18T15:44:41Z</time></trkpt><trkpt lat="44.66999029874554" lon="9.309385114906453"><ele>532.0</ele><time>2026-04-18T15:44:42Z</time></trkpt><trkpt lat="44.66987575704731" lon="9.309416835105042"><ele>530.25</ele><time>2026-04-18T15:44:43Z</time></trkpt><trkpt lat="44.66978529649395" lon="9.309503271468124"><ele>528.5</ele><time>2026-04-18T15:44:44Z</time></trkpt><trkpt lat="44.669706062353356" lon="9.309635752244251"><ele>526.75</ele><time>2026-04-18T15:44:45Z</time></trkpt><trkpt lat="44.669642985769975" lon="9.309809818894736"><ele>525.0</ele><time>2026-04-18T15:44:46Z</time></trkpt><trkpt lat="44.66962176991568" lon="9.309980660700536"><ele>532.25</ele><time>2026-04-18T15:44:47Z</time></trkpt><trkpt lat="44.66964431850729" lon="9.310156453551391"><ele>539.5</ele><time>2026-04-18T15:44:48Z</time></trkpt><trkpt lat="44.669685485076684" lon="9.310357988432038"><ele>546.75</ele><time>2026-04-18T15:44:49Z</time></trkpt><trkpt lat="44.66969991388702" lon="9.310525125680048"><ele>554.0</ele><time>2026-04-18T15:44:50Z</time></trkpt><trkpt lat="44.6697007535587" lon="9.310659486184809"><ele>551.0</ele><time>2026-04-18T15:44:51Z</time></trkpt><trkpt lat="44.6696484231031" lon="9.310750840218597"><ele>548.0</ele><time>2026-04-18T15:44:52Z</time></trkpt><trkpt lat="44.669575495435865" lon="9.310820400587943"><ele>545.0</ele><time>2026-04-18T15:44:53Z</time></trkpt><trkpt lat="44.66944536560452" lon="9.310804160577192"><ele>542.0</ele><time>2026-04-18T15:44:54Z</time></trkpt><trkpt lat="44.669308122546056" lon="9.310848808527453"><ele>539.0</ele><time>2026-04-18T15:44:55Z</time></trkpt><trkpt lat="44.66919536785423" lon="9.310857212242157"><ele>539.0</ele><time>2026-04-18T15:44:56Z</time></trkpt><trkpt lat="44.669107053278864" lon="9.310905488771311"><ele>539.0</ele><time>2026-04-18T15:44:57Z</time></trkpt><trkpt lat="44.66902936273007" lon="9.31100668383273"><ele>539.0</ele><time>2026-04-18T15:44:58Z</time></trkpt><trkpt lat="44.66896593902385" lon="9.311157002306837"><ele>539.0</ele><time>2026-04-18T15:44:59Z</time></trkpt><trkpt lat="44.66892907956951" lon="9.311347469959307"><ele>544.0</ele><time>2026-04-18T15:45:00Z</time></trkpt><trkpt lat="44.668916765488206" lon="9.311532579720446"><ele>549.0</ele><time>2026-04-18T15:45:00.999Z</time></trkpt><trkpt lat="44.668883174386366" lon="9.311676665539883"><ele>554.0</ele><time>2026-04-18T15:45:01.999Z</time></trkpt><trkpt lat="44.66887719505719" lon="9.311805354091533"><ele>559.0</ele><time>2026-04-18T15:45:02.999Z</time></trkpt><trkpt lat="44.6688439938179" lon="9.311919527102182"><ele>564.0</ele><time>2026-04-18T15:45:03.999Z</time></trkpt><trkpt lat="44.66876580999755" lon="9.312004353455553"><ele>564.0</ele><time>2026-04-18T15:45:05Z</time></trkpt><trkpt lat="44.66867242703328" lon="9.312083591240034"><ele>564.0</ele><time>2026-04-18T15:45:06Z</time></trkpt><trkpt lat="44.66854421948034" lon="9.312099429057414"><ele>564.0</ele><time>2026-04-18T15:45:07Z</time></trkpt><trkpt lat="44.66840301416654" lon="9.312099338781588"><ele>564.0</ele><time>2026-04-18T15:45:08Z</time></trkpt><trkpt lat="44.6682893490407" lon="9.31206588525792"><ele>560.0</ele><time>2026-04-18T15:45:09Z</time></trkpt><trkpt lat="44.6682017683936" lon="9.312015867755845"><ele>556.0</ele><time>2026-04-18T15:45:10Z</time></trkpt><trkpt lat="44.668118791980724" lon="9.311945412254193"><ele>552.0</ele><time>2026-04-18T15:45:11Z</time></trkpt><trkpt lat="44.66803048445783" lon="9.311834669202748"><ele>548.0</ele><time>2026-04-18T15:45:12Z</time></trkpt><trkpt lat="44.66794582122781" lon="9.311735553521356"><ele>544.0</ele><time>2026-04-18T15:45:13Z</time></trkpt><trkpt lat="44.66786473008146" lon="9.311675060410218"><ele>544.0</ele><time>2026-04-18T15:45:14Z</time></trkpt><trkpt lat="44.66778137665981" lon="9.311688603237442"><ele>544.0</ele><time>2026-04-18T15:45:15Z</time></trkpt><trkpt lat="44.667704254441084" lon="9.311748682969638"><ele>544.0</ele><time>2026-04-18T15:45:16Z</time></trkpt><trkpt lat="44.667641517371166" lon="9.311859518868728"><ele>544.0</ele><time>2026-04-18T15:45:17Z</time></trkpt><trkpt lat="44.66758803505048" lon="9.312003249748898"><ele>544.0</ele><time>2026-04-18T15:45:18Z</time></trkpt><trkpt lat="44.6675186210467" lon="9.312177004573362"><ele>547.5</ele><time>2026-04-18T15:45:19Z</time></trkpt><trkpt lat="44.66743831855493" lon="9.31235110766194"><ele>551.0</ele><time>2026-04-18T15:45:20Z</time></trkpt><trkpt lat="44.667364808324365" lon="9.312518581252018"><ele>554.5</ele><time>2026-04-18T15:45:21Z</time></trkpt><trkpt lat="44.66729997109788" lon="9.312651469683887"><ele>558.0</ele><time>2026-04-18T15:45:22Z</time></trkpt><trkpt lat="44.66722630522768" lon="9.31276278102159"><ele>558.0</ele><time>2026-04-18T15:45:23Z</time></trkpt><trkpt lat="44.667124350047764" lon="9.312829696031713"><ele>558.0</ele><time>2026-04-18T15:45:24Z</time></trkpt><trkpt lat="44.66697222891054" lon="9.312883146926698"><ele>558.0</ele><time>2026-04-18T15:45:25Z</time></trkpt><trkpt lat="44.66679550477379" lon="9.312919344001799"><ele>558.0</ele><time>2026-04-18T15:45:26Z</time></trkpt><trkpt lat="44.66666629984982" lon="9.312951027709738"><ele>554.1999999999999</ele><time>2026-04-18T15:45:27Z</time></trkpt><trkpt lat="44.666563722008284" lon="9.312987764320342"><ele>550.4</ele><time>2026-04-18T15:45:28Z</time></trkpt><trkpt lat="44.66646478413182" lon="9.313015941386302"><ele>546.5999999999999</ele><time>2026-04-18T15:45:29Z</time></trkpt><trkpt lat="44.66638129627893" lon="9.313046992161393"><ele>542.8</ele><time>2026-04-18T15:45:30Z</time></trkpt><trkpt lat="44.6663006025871" lon="9.313048441200563"><ele>539.0</ele><time>2026-04-18T15:45:31Z</time></trkpt><trkpt lat="44.66622514779696" lon="9.312999337935613"><ele>539.0</ele><time>2026-04-18T15:45:32Z</time></trkpt><trkpt lat="44.666162747365156" lon="9.312887588736297"><ele>539.0</ele><time>2026-04-18T15:45:33Z</time></trkpt><trkpt lat="44.66612334726338" lon="9.312732607048554"><ele>539.0</ele><time>2026-04-18T15:45:34Z</time></trkpt><trkpt lat="44.66606681363155" lon="9.312635379868716"><ele>539.0</ele><time>2026-04-18T15:45:35Z</time></trkpt><trkpt lat="44.66598123530732" lon="9.312565844609649"><ele>539.0</ele><time>2026-04-18T15:45:36Z</time></trkpt><trkpt lat="44.66588001739738" lon="9.312498309862388"><ele>539.0</ele><time>2026-04-18T15:45:37Z</time></trkpt><trkpt lat="44.66577761606344" lon="9.312448226128941"><ele>539.0</ele><time>2026-04-18T15:45:38Z</time></trkpt><trkpt lat="44.66570054523372" lon="9.312388381923439"><ele>539.0</ele><time>2026-04-18T15:45:39Z</time></trkpt><trkpt lat="44.66563215095824" lon="9.31230442533565"><ele>539.0</ele><time>2026-04-18T15:45:40Z</time></trkpt><trkpt lat="44.66556979698136" lon="9.312180748570537"><ele>539.0</ele><time>2026-04-18T15:45:41Z</time></trkpt><trkpt lat="44.66551670048226" lon="9.312024941475888"><ele>539.0</ele><time>2026-04-18T15:45:42Z</time></trkpt><trkpt lat="44.665475988395" lon="9.311891937232259"><ele>539.0</ele><time>2026-04-18T15:45:43Z</time></trkpt><trkpt lat="44.66541473814887" lon="9.311768412427966"><ele>539.0</ele><time>2026-04-18T15:45:44Z</time></trkpt><trkpt lat="44.665330627268226" lon="9.31163238959495"><ele>539.0</ele><time>2026-04-18T15:45:45Z</time></trkpt><trkpt lat="44.66524528408473" lon="9.311507225577408"><ele>540.6</ele><time>2026-04-18T15:45:46Z</time></trkpt><trkpt lat="44.66516881475528" lon="9.311417228866118"><ele>542.2</ele><time>2026-04-18T15:45:47Z</time></trkpt><trkpt lat="44.66509823385289" lon="9.311337940586599"><ele>543.8000000000001</ele><time>2026-04-18T15:45:48Z</time></trkpt><trkpt lat="44.66501773553776" lon="9.311268965174222"><ele>545.4</ele><time>2026-04-18T15:45:49Z</time></trkpt><trkpt lat="44.66493707295447" lon="9.311219523334165"><ele>547.0</ele><time>2026-04-18T15:45:50Z</time></trkpt><trkpt lat="44.66485136733468" lon="9.311188133667354"><ele>547.0</ele><time>2026-04-18T15:45:51Z</time></trkpt><trkpt lat="44.66475603322391" lon="9.311158728567314"><ele>547.0</ele><time>2026-04-18T15:45:52Z</time></trkpt><trkpt lat="44.664650983587116" lon="9.311153937567804"><ele>547.0</ele><time>2026-04-18T15:45:53Z</time></trkpt><trkpt lat="44.66454062486311" lon="9.311179714161643"><ele>547.0</ele><time>2026-04-18T15:45:54Z</time></trkpt><trkpt lat="44.66441731020758" lon="9.31121026863815"><ele>547.0</ele><time>2026-04-18T15:45:55Z</time></trkpt><trkpt lat="44.664297365140634" lon="9.311236844296978"><ele>545.5</ele><time>2026-04-18T15:45:56Z</time></trkpt><trkpt lat="44.6641846292077" lon="9.311263917199824"><ele>544.0</ele><time>2026-04-18T15:45:57Z</time></trkpt><trkpt lat="44.664070289848105" lon="9.311307057780471"><ele>542.5</ele><time>2026-04-18T15:45:58Z</time></trkpt><trkpt lat="44.66396555032571" lon="9.311389763635095"><ele>541.0</ele><time>2026-04-18T15:45:59Z</time></trkpt><trkpt lat="44.66386158560368" lon="9.311515729732925"><ele>541.0</ele><time>2026-04-18T15:46:00Z</time></trkpt><trkpt lat="44.66376079874917" lon="9.311666789064757"><ele>541.0</ele><time>2026-04-18T15:46:01Z</time></trkpt><trkpt lat="44.66363743366694" lon="9.311786771139689"><ele>541.0</ele><time>2026-04-18T15:46:02Z</time></trkpt><trkpt lat="44.66348752166928" lon="9.311894127371879"><ele>541.0</ele><time>2026-04-18T15:46:03Z</time></trkpt><trkpt lat="44.66333654520457" lon="9.311984638011724"><ele>541.0</ele><time>2026-04-18T15:46:04Z</time></trkpt><trkpt lat="44.66320348081208" lon="9.312072266168858"><ele>541.0</ele><time>2026-04-18T15:46:05Z</time></trkpt><trkpt lat="44.663071686532305" lon="9.312176320868067"><ele>540.75</ele><time>2026-04-18T15:46:06Z</time></trkpt><trkpt lat="44.662942820311855" lon="9.312302244391681"><ele>540.5</ele><time>2026-04-18T15:46:07Z</time></trkpt><trkpt lat="44.66282722535267" lon="9.312396526219185"><ele>540.25</ele><time>2026-04-18T15:46:08Z</time></trkpt><trkpt lat="44.66273827306645" lon="9.312486686177447"><ele>540.0</ele><time>2026-04-18T15:46:09Z</time></trkpt><trkpt lat="44.66265916395277" lon="9.312582526091546"><ele>540.0</ele><time>2026-04-18T15:46:10Z</time></trkpt><trkpt lat="44.66258492522158" lon="9.312679111076108"><ele>540.0</ele><time>2026-04-18T15:46:11Z</time></trkpt><trkpt lat="44.66251541458952" lon="9.312823143165765"><ele>540.0</ele><time>2026-04-18T15:46:12Z</time></trkpt><trkpt lat="44.66245240729917" lon="9.313011073007234"><ele>540.0</ele><time>2026-04-18T15:46:13Z</time></trkpt><trkpt lat="44.662373566504705" lon="9.313172146969006"><ele>545.25</ele><time>2026-04-18T15:46:14Z</time></trkpt><trkpt lat="44.662263317559685" lon="9.313298011345994"><ele>550.5</ele><time>2026-04-18T15:46:15Z</time></trkpt><trkpt lat="44.66214351027237" lon="9.313397975992649"><ele>555.75</ele><time>2026-04-18T15:46:16Z</time></trkpt><trkpt lat="44.662012595626315" lon="9.31343248398849"><ele>561.0</ele><time>2026-04-18T15:46:17Z</time></trkpt><trkpt lat="44.661911826198164" lon="9.313429083713636"><ele>561.0</ele><time>2026-04-18T15:46:18Z</time></trkpt><trkpt lat="44.661823322387114" lon="9.313393346106281"><ele>561.0</ele><time>2026-04-18T15:46:19Z</time></trkpt><trkpt lat="44.66181742807821" lon="9.313281405522146"><ele>561.0</ele><time>2026-04-18T15:46:22Z</time></trkpt><trkpt lat="44.661791016861294" lon="9.313173477266561"><ele>561.0</ele><time>2026-04-18T15:46:23Z</time></trkpt><trkpt lat="44.66174361756849" lon="9.313025763123486"><ele>561.0</ele><time>2026-04-18T15:46:24Z</time></trkpt><trkpt lat="44.66168265831869" lon="9.312849627435561"><ele>556.0</ele><time>2026-04-18T15:46:25Z</time></trkpt><trkpt lat="44.66162110134283" lon="9.312672985080265"><ele>551.0</ele><time>2026-04-18T15:46:26Z</time></trkpt><trkpt lat="44.66154957609139" lon="9.312490047369247"><ele>546.0</ele><time>2026-04-18T15:46:27Z</time></trkpt><trkpt lat="44.66147675245123" lon="9.312281408280278"><ele>543.0</ele><time>2026-04-18T15:46:28Z</time></trkpt><trkpt lat="44.66139993096042" lon="9.312052057856391"><ele>540.0</ele><time>2026-04-18T15:46:29Z</time></trkpt><trkpt lat="44.66132976025843" lon="9.311848406842449"><ele>537.0</ele><time>2026-04-18T15:46:30Z</time></trkpt><trkpt lat="44.661268857195644" lon="9.311659478788139"><ele>537.0</ele><time>2026-04-18T15:46:31Z</time></trkpt><trkpt lat="44.661209157553216" lon="9.311438788613364"><ele>537.0</ele><time>2026-04-18T15:46:32Z</time></trkpt><trkpt lat="44.6611691877243" lon="9.311212576265763"><ele>537.0</ele><time>2026-04-18T15:46:33Z</time></trkpt><trkpt lat="44.66114159621384" lon="9.311015391228034"><ele>536.25</ele><time>2026-04-18T15:46:34Z</time></trkpt><trkpt lat="44.66112817198494" lon="9.310820153057332"><ele>535.5</ele><time>2026-04-18T15:46:35Z</time></trkpt><trkpt lat="44.661115225431566" lon="9.3106377050637"><ele>534.75</ele><time>2026-04-18T15:46:36Z</time></trkpt><trkpt lat="44.66108889681018" lon="9.310463580551383"><ele>534.0</ele><time>2026-04-18T15:46:37Z</time></trkpt><trkpt lat="44.661056984913934" lon="9.31031133183418"><ele>534.0</ele><time>2026-04-18T15:46:38Z</time></trkpt><trkpt lat="44.661019496577524" lon="9.310162629642328"><ele>534.0</ele><time>2026-04-18T15:46:39Z</time></trkpt><trkpt lat="44.660974418432" lon="9.310027382829725"><ele>534.0</ele><time>2026-04-18T15:46:40Z</time></trkpt><trkpt lat="44.66092024197208" lon="9.309918533753576"><ele>534.0</ele><time>2026-04-18T15:46:41Z</time></trkpt><trkpt lat="44.66083622157485" lon="9.309843119911402"><ele>534.0</ele><time>2026-04-18T15:46:41.999Z</time></trkpt><trkpt lat="44.660733667844575" lon="9.309847596931549"><ele>534.0</ele><time>2026-04-18T15:46:42.999Z</time></trkpt><trkpt lat="44.66062811540502" lon="9.309985676382732"><ele>534.0</ele><time>2026-04-18T15:46:43.999Z</time></trkpt><trkpt lat="44.66056089072642" lon="9.31011652365734"><ele>534.0</ele><time>2026-04-18T15:46:44.999Z</time></trkpt><trkpt lat="44.66051493765608" lon="9.310291445245062"><ele>534.0</ele><time>2026-04-18T15:46:45.999Z</time></trkpt><trkpt lat="44.660473057082385" lon="9.310475509741964"><ele>534.0</ele><time>2026-04-18T15:46:46.999Z</time></trkpt><trkpt lat="44.660416703501795" lon="9.310600095408265"><ele>534.0</ele><time>2026-04-18T15:46:47.999Z</time></trkpt><trkpt lat="44.66033858251407" lon="9.31066590047679"><ele>534.0</ele><time>2026-04-18T15:46:48.999Z</time></trkpt><trkpt lat="44.66022664956089" lon="9.310715386975103"><ele>534.0</ele><time>2026-04-18T15:46:49.999Z</time></trkpt><trkpt lat="44.66010147494135" lon="9.310802519287796"><ele>534.0</ele><time>2026-04-18T15:46:50.999Z</time></trkpt><trkpt lat="44.659964736948" lon="9.310919459401834"><ele>534.0</ele><time>2026-04-18T15:46:51.999Z</time></trkpt><trkpt lat="44.65981396080217" lon="9.311084070497"><ele>534.0</ele><time>2026-04-18T15:46:52.999Z</time></trkpt><trkpt lat="44.65964968011813" lon="9.31127769958494"><ele>534.0</ele><time>2026-04-18T15:46:53.999Z</time></trkpt><trkpt lat="44.659500447744314" lon="9.311440742043757"><ele>534.0</ele><time>2026-04-18T15:46:54.999Z</time></trkpt><trkpt lat="44.65935018390459" lon="9.31154830174372"><ele>534.0</ele><time>2026-04-18T15:46:55.999Z</time></trkpt><trkpt lat="44.65919420263347" lon="9.311616031382895"><ele>534.0</ele><time>2026-04-18T15:46:56.999Z</time></trkpt><trkpt lat="44.65905041401441" lon="9.311712967817455"><ele>534.0</ele><time>2026-04-18T15:46:57.999Z</time></trkpt><trkpt lat="44.65889815541267" lon="9.311787958601341"><ele>534.0</ele><time>2026-04-18T15:46:58.999Z</time></trkpt><trkpt lat="44.65874507793214" lon="9.31189247506703"><ele>528.0</ele><time>2026-04-18T15:46:59.999Z</time></trkpt><trkpt lat="44.658590089216304" lon="9.312008306727737"><ele>522.0</ele><time>2026-04-18T15:47:00.999Z</time></trkpt><trkpt lat="44.65843198354068" lon="9.312111362169894"><ele>516.0</ele><time>2026-04-18T15:47:01.999Z</time></trkpt><trkpt lat="44.65829748066044" lon="9.312208468927215"><ele>523.0</ele><time>2026-04-18T15:47:02.999Z</time></trkpt><trkpt lat="44.658165007062905" lon="9.312305644157913"><ele>530.0</ele><time>2026-04-18T15:47:03.999Z</time></trkpt><trkpt lat="44.65802007987587" lon="9.31240506987572"><ele>537.0</ele><time>2026-04-18T15:47:04.999Z</time></trkpt><trkpt lat="44.6578761526944" lon="9.312507731067996"><ele>534.0</ele><time>2026-04-18T15:47:05.999Z</time></trkpt><trkpt lat="44.65773030729817" lon="9.312597239420944"><ele>531.0</ele><time>2026-04-18T15:47:06.999Z</time></trkpt><trkpt lat="44.65758847490792" lon="9.312654693161843"><ele>528.0</ele><time>2026-04-18T15:47:07.999Z</time></trkpt><trkpt lat="44.657458724921995" lon="9.31270096288945"><ele>525.0</ele><time>2026-04-18T15:47:08.999Z</time></trkpt><trkpt lat="44.65734629708684" lon="9.31274378929248"><ele>525.0</ele><time>2026-04-18T15:47:09.999Z</time></trkpt><trkpt lat="44.65725752693891" lon="9.312801918179822"><ele>525.0</ele><time>2026-04-18T15:47:11Z</time></trkpt><trkpt lat="44.65717453986905" lon="9.312856199815167"><ele>525.0</ele><time>2026-04-18T15:47:12Z</time></trkpt><trkpt lat="44.6570973371519" lon="9.312896857537167"><ele>525.0</ele><time>2026-04-18T15:47:13Z</time></trkpt><trkpt lat="44.65700353715011" lon="9.312914673548015"><ele>525.0</ele><time>2026-04-18T15:47:14Z</time></trkpt><trkpt lat="44.65692109793556" lon="9.312945743019228"><ele>525.6</ele><time>2026-04-18T15:47:15Z</time></trkpt><trkpt lat="44.65684308720027" lon="9.312904810936573"><ele>526.2</ele><time>2026-04-18T15:47:16Z</time></trkpt><trkpt lat="44.656763218429134" lon="9.312809401320976"><ele>526.8</ele><time>2026-04-18T15:47:17Z</time></trkpt><trkpt lat="44.6566836811189" lon="9.312700542237373"><ele>527.4</ele><time>2026-04-18T15:47:18Z</time></trkpt><trkpt lat="44.65659956370732" lon="9.312571416614983"><ele>528.0</ele><time>2026-04-18T15:47:19Z</time></trkpt><trkpt lat="44.65650030625371" lon="9.312442783234992"><ele>528.0</ele><time>2026-04-18T15:47:20Z</time></trkpt><trkpt lat="44.65642259599759" lon="9.31234729320592"><ele>528.0</ele><time>2026-04-18T15:47:21Z</time></trkpt><trkpt lat="44.65636048257452" lon="9.312268464936091"><ele>528.0</ele><time>2026-04-18T15:47:22Z</time></trkpt><trkpt lat="44.65630029322521" lon="9.312200601416137"><ele>528.0</ele><time>2026-04-18T15:47:23Z</time></trkpt><trkpt lat="44.656228643584726" lon="9.312172188812676"><ele>528.0</ele><time>2026-04-18T15:47:24Z</time></trkpt><trkpt lat="44.656142509206425" lon="9.312171945156145"><ele>528.0</ele><time>2026-04-18T15:47:25Z</time></trkpt><trkpt lat="44.656053258280345" lon="9.312225947605992"><ele>528.0</ele><time>2026-04-18T15:47:26Z</time></trkpt><trkpt lat="44.655957484382476" lon="9.312322113801494"><ele>528.0</ele><time>2026-04-18T15:47:27Z</time></trkpt><trkpt lat="44.65584558871257" lon="9.312430073813886"><ele>528.0</ele><time>2026-04-18T15:47:28Z</time></trkpt><trkpt lat="44.655742175684566" lon="9.312494809172552"><ele>528.0</ele><time>2026-04-18T15:47:29Z</time></trkpt><trkpt lat="44.655649424771" lon="9.312524278365641"><ele>528.0</ele><time>2026-04-18T15:47:30Z</time></trkpt><trkpt lat="44.65555847108987" lon="9.312516286348195"><ele>528.0</ele><time>2026-04-18T15:47:31Z</time></trkpt><trkpt lat="44.65546524582043" lon="9.312503947117504"><ele>528.0</ele><time>2026-04-18T15:47:32Z</time></trkpt><trkpt lat="44.65535631801868" lon="9.31249422195094"><ele>528.0</ele><time>2026-04-18T15:47:33Z</time></trkpt><trkpt lat="44.655242910097066" lon="9.312462566686623"><ele>528.0</ele><time>2026-04-18T15:47:34Z</time></trkpt><trkpt lat="44.65512387891223" lon="9.312369194685775"><ele>527.6</ele><time>2026-04-18T15:47:35Z</time></trkpt><trkpt lat="44.65500074598598" lon="9.312292972641517"><ele>527.1999999999999</ele><time>2026-04-18T15:47:36Z</time></trkpt><trkpt lat="44.65491590259724" lon="9.31221688622753"><ele>526.8</ele><time>2026-04-18T15:47:37Z</time></trkpt><trkpt lat="44.654828969431286" lon="9.31216999095724"><ele>526.4</ele><time>2026-04-18T15:47:38Z</time></trkpt><trkpt lat="44.654741895974055" lon="9.31216321658104"><ele>526.0</ele><time>2026-04-18T15:47:39Z</time></trkpt><trkpt lat="44.65466571593699" lon="9.312205500253434"><ele>526.0</ele><time>2026-04-18T15:47:40Z</time></trkpt><trkpt lat="44.65458466764338" lon="9.312263987927096"><ele>526.0</ele><time>2026-04-18T15:47:41Z</time></trkpt><trkpt lat="44.65451603422451" lon="9.312355413881097"><ele>526.0</ele><time>2026-04-18T15:47:42Z</time></trkpt><trkpt lat="44.65444723078781" lon="9.312456610126269"><ele>526.0</ele><time>2026-04-18T15:47:43Z</time></trkpt><trkpt lat="44.65438136420917" lon="9.31258203981923"><ele>526.0</ele><time>2026-04-18T15:47:44Z</time></trkpt><trkpt lat="44.65432495577594" lon="9.312728706539922"><ele>524.5</ele><time>2026-04-18T15:47:45Z</time></trkpt><trkpt lat="44.65426782541143" lon="9.31289135908158"><ele>523.0</ele><time>2026-04-18T15:47:46Z</time></trkpt><trkpt lat="44.65418460521286" lon="9.313037611062995"><ele>521.5</ele><time>2026-04-18T15:47:47Z</time></trkpt><trkpt lat="44.654080153113114" lon="9.313137801076142"><ele>520.0</ele><time>2026-04-18T15:47:48Z</time></trkpt><trkpt lat="44.65399001388079" lon="9.31322188229943"><ele>520.0</ele><time>2026-04-18T15:47:49Z</time></trkpt><trkpt lat="44.653929428841984" lon="9.313329673573339"><ele>520.0</ele><time>2026-04-18T15:47:50Z</time></trkpt><trkpt lat="44.6539111084769" lon="9.313452267381734"><ele>520.0</ele><time>2026-04-18T15:47:51Z</time></trkpt><trkpt lat="44.65394041630939" lon="9.31357438849517"><ele>520.0</ele><time>2026-04-18T15:47:52Z</time></trkpt><trkpt lat="44.6540075010574" lon="9.313702294756425"><ele>520.0</ele><time>2026-04-18T15:47:53Z</time></trkpt><trkpt lat="44.654108662409264" lon="9.313847485401546"><ele>518.5</ele><time>2026-04-18T15:47:54Z</time></trkpt><trkpt lat="44.654214708491196" lon="9.313987155300271"><ele>517.0</ele><time>2026-04-18T15:47:55Z</time></trkpt><trkpt lat="44.654312774999" lon="9.314120617089335"><ele>515.5</ele><time>2026-04-18T15:47:56Z</time></trkpt><trkpt lat="44.65437975847906" lon="9.314254583226061"><ele>514.0</ele><time>2026-04-18T15:47:57Z</time></trkpt><trkpt lat="44.65442612906462" lon="9.314376789591336"><ele>514.0</ele><time>2026-04-18T15:47:58Z</time></trkpt><trkpt lat="44.6544434035943" lon="9.314510567011583"><ele>514.0</ele><time>2026-04-18T15:47:59Z</time></trkpt><trkpt lat="44.65443456241716" lon="9.31464493285882"><ele>514.0</ele><time>2026-04-18T15:48:00Z</time></trkpt><trkpt lat="44.654399521903656" lon="9.314762452893428"><ele>514.0</ele><time>2026-04-18T15:48:01Z</time></trkpt><trkpt lat="44.65435676059827" lon="9.314867917807993"><ele>514.0</ele><time>2026-04-18T15:48:02Z</time></trkpt><trkpt lat="44.65427635869944" lon="9.314940840896432"><ele>514.4</ele><time>2026-04-18T15:48:03Z</time></trkpt><trkpt lat="44.65417064430556" lon="9.31495690367469"><ele>514.8</ele><time>2026-04-18T15:48:04Z</time></trkpt><trkpt lat="44.65406859830922" lon="9.315005496149016"><ele>515.2</ele><time>2026-04-18T15:48:05Z</time></trkpt><trkpt lat="44.6539674201246" lon="9.315017519772232"><ele>515.6</ele><time>2026-04-18T15:48:06Z</time></trkpt><trkpt lat="44.65387719750462" lon="9.315032599748271"><ele>516.0</ele><time>2026-04-18T15:48:07Z</time></trkpt><trkpt lat="44.65378180316368" lon="9.315054449125064"><ele>516.0</ele><time>2026-04-18T15:48:08Z</time></trkpt><trkpt lat="44.653686354888194" lon="9.315081514975368"><ele>516.0</ele><time>2026-04-18T15:48:09Z</time></trkpt><trkpt lat="44.65359967943535" lon="9.31511801172509"><ele>516.0</ele><time>2026-04-18T15:48:10Z</time></trkpt><trkpt lat="44.653527258249106" lon="9.315184566412517"><ele>516.0</ele><time>2026-04-18T15:48:11Z</time></trkpt><trkpt lat="44.653470119751766" lon="9.315290486823276"><ele>516.0</ele><time>2026-04-18T15:48:12Z</time></trkpt><trkpt lat="44.65342484147143" lon="9.315430941327687"><ele>515.2</ele><time>2026-04-18T15:48:13Z</time></trkpt><trkpt lat="44.65338944683966" lon="9.315576799753025"><ele>514.4000000000001</ele><time>2026-04-18T15:48:14Z</time></trkpt><trkpt lat="44.653341236634354" lon="9.315696133039216"><ele>513.6</ele><time>2026-04-18T15:48:15Z</time></trkpt><trkpt lat="44.65325178456213" lon="9.31576611464463"><ele>512.8000000000001</ele><time>2026-04-18T15:48:16Z</time></trkpt><trkpt lat="44.653147541489965" lon="9.31580413081629"><ele>512.0</ele><time>2026-04-18T15:48:17Z</time></trkpt><trkpt lat="44.65302484367036" lon="9.315841386473199"><ele>512.0</ele><time>2026-04-18T15:48:18Z</time></trkpt><trkpt lat="44.65289163388996" lon="9.315836394745718"><ele>512.0</ele><time>2026-04-18T15:48:19Z</time></trkpt><trkpt lat="44.65277959291831" lon="9.315823152964644"><ele>512.0</ele><time>2026-04-18T15:48:20Z</time></trkpt><trkpt lat="44.652681131131025" lon="9.315835173550614"><ele>512.0</ele><time>2026-04-18T15:48:21Z</time></trkpt><trkpt lat="44.65259584032574" lon="9.315889257453001"><ele>512.0</ele><time>2026-04-18T15:48:22Z</time></trkpt><trkpt lat="44.65252461813657" lon="9.315978129741833"><ele>512.25</ele><time>2026-04-18T15:48:23Z</time></trkpt><trkpt lat="44.65247332441431" lon="9.316100461610603"><ele>512.5</ele><time>2026-04-18T15:48:24Z</time></trkpt><trkpt lat="44.65242024872822" lon="9.316256236955068"><ele>512.75</ele><time>2026-04-18T15:48:25Z</time></trkpt><trkpt lat="44.65235566064344" lon="9.316400621395367"><ele>513.0</ele><time>2026-04-18T15:48:26Z</time></trkpt><trkpt lat="44.6522592489785" lon="9.316488543897803"><ele>513.0</ele><time>2026-04-18T15:48:27Z</time></trkpt><trkpt lat="44.65213569003089" lon="9.316502361117815"><ele>513.0</ele><time>2026-04-18T15:48:28Z</time></trkpt><trkpt lat="44.65202914930513" lon="9.316545935567834"><ele>513.0</ele><time>2026-04-18T15:48:29Z</time></trkpt><trkpt lat="44.651940480213966" lon="9.316578132446447"><ele>513.0</ele><time>2026-04-18T15:48:30Z</time></trkpt><trkpt lat="44.651865167990614" lon="9.316651440865092"><ele>513.0</ele><time>2026-04-18T15:48:31Z</time></trkpt><trkpt lat="44.65181049917651" lon="9.316767527825307"><ele>508.0</ele><time>2026-04-18T15:48:32Z</time></trkpt><trkpt lat="44.65177337813943" lon="9.316915225170696"><ele>502.99999999999994</ele><time>2026-04-18T15:48:33Z</time></trkpt><trkpt lat="44.65174097145746" lon="9.317035785804471"><ele>497.99999999999994</ele><time>2026-04-18T15:48:33.999Z</time></trkpt><trkpt lat="44.651673792292954" lon="9.317117726844133"><ele>493.0</ele><time>2026-04-18T15:48:34.999Z</time></trkpt><trkpt lat="44.65158316927189" lon="9.317138702882868"><ele>488.0</ele><time>2026-04-18T15:48:35.999Z</time></trkpt><trkpt lat="44.65149098454806" lon="9.317156019062486"><ele>488.0</ele><time>2026-04-18T15:48:36.999Z</time></trkpt><trkpt lat="44.651425850232854" lon="9.317217803043071"><ele>487.99999999999994</ele><time>2026-04-18T15:48:37.999Z</time></trkpt><trkpt lat="44.651382385460096" lon="9.317321237648772"><ele>487.99999999999994</ele><time>2026-04-18T15:48:38.999Z</time></trkpt><trkpt lat="44.651354022865" lon="9.317453050925504"><ele>488.0</ele><time>2026-04-18T15:48:39.999Z</time></trkpt><trkpt lat="44.65135856976836" lon="9.31760470365613"><ele>488.0</ele><time>2026-04-18T15:48:40.999Z</time></trkpt><trkpt lat="44.65136777128161" lon="9.317777026519284"><ele>489.79999999999995</ele><time>2026-04-18T15:48:41.999Z</time></trkpt><trkpt lat="44.651335190398186" lon="9.317921598384716"><ele>491.59999999999997</ele><time>2026-04-18T15:48:42.999Z</time></trkpt><trkpt lat="44.65128880691253" lon="9.318049549317761"><ele>493.40000000000003</ele><time>2026-04-18T15:48:43.999Z</time></trkpt><trkpt lat="44.65125894417176" lon="9.318185113236332"><ele>495.20000000000005</ele><time>2026-04-18T15:48:44.999Z</time></trkpt><trkpt lat="44.65122136591644" lon="9.318298667304271"><ele>497.0</ele><time>2026-04-18T15:48:45.999Z</time></trkpt><trkpt lat="44.65120190596297" lon="9.318412523996265"><ele>500.0</ele><time>2026-04-18T15:48:46.999Z</time></trkpt><trkpt lat="44.65120121453358" lon="9.31853338454645"><ele>503.00000000000006</ele><time>2026-04-18T15:48:47.999Z</time></trkpt><trkpt lat="44.65121278195272" lon="9.318679225533032"><ele>506.00000000000006</ele><time>2026-04-18T15:48:48.999Z</time></trkpt><trkpt lat="44.65122715978829" lon="9.318843798570121"><ele>509.0</ele><time>2026-04-18T15:48:49.999Z</time></trkpt><trkpt lat="44.65123278921636" lon="9.318995243151802"><ele>512.0</ele><time>2026-04-18T15:48:50.999Z</time></trkpt><trkpt lat="44.65124303506944" lon="9.319162927586142"><ele>512.0</ele><time>2026-04-18T15:48:51.999Z</time></trkpt><trkpt lat="44.65125674793012" lon="9.319321565830087"><ele>512.0</ele><time>2026-04-18T15:48:52.999Z</time></trkpt><trkpt lat="44.65126502433043" lon="9.31945694568317"><ele>512.0</ele><time>2026-04-18T15:48:53.999Z</time></trkpt><trkpt lat="44.65128416914441" lon="9.3195875175799"><ele>512.0</ele><time>2026-04-18T15:48:54.999Z</time></trkpt><trkpt lat="44.65131384752346" lon="9.319725470309917"><ele>512.0</ele><time>2026-04-18T15:48:55.999Z</time></trkpt><trkpt lat="44.65135252842047" lon="9.319849674297611"><ele>509.16666666666663</ele><time>2026-04-18T15:48:56.999Z</time></trkpt><trkpt lat="44.65138121718772" lon="9.31995898820743"><ele>506.3333333333333</ele><time>2026-04-18T15:48:57.999Z</time></trkpt><trkpt lat="44.651382349668616" lon="9.320068261854175"><ele>503.5</ele><time>2026-04-18T15:48:58.999Z</time></trkpt><trkpt lat="44.65133172830125" lon="9.320175243601476"><ele>500.66666666666663</ele><time>2026-04-18T15:48:59.999Z</time></trkpt><trkpt lat="44.651252396224876" lon="9.320265341797374"><ele>497.8333333333333</ele><time>2026-04-18T15:49:00.999Z</time></trkpt><trkpt lat="44.65119884994102" lon="9.320343202854566"><ele>495.0</ele><time>2026-04-18T15:49:01.999Z</time></trkpt><trkpt lat="44.651181546877694" lon="9.320444854758348"><ele>495.0</ele><time>2026-04-18T15:49:02.999Z</time></trkpt><trkpt lat="44.65118226285685" lon="9.320558676365735"><ele>495.0</ele><time>2026-04-18T15:49:03.999Z</time></trkpt><trkpt lat="44.65123409656312" lon="9.320647422980349"><ele>495.0</ele><time>2026-04-18T15:49:04.999Z</time></trkpt><trkpt lat="44.6513099323738" lon="9.320708646757371"><ele>495.0</ele><time>2026-04-18T15:49:05.999Z</time></trkpt><trkpt lat="44.651400115248606" lon="9.320729345693508"><ele>495.0</ele><time>2026-04-18T15:49:06.999Z</time></trkpt><trkpt lat="44.65148944552572" lon="9.320791223862738"><ele>495.0</ele><time>2026-04-18T15:49:07.999Z</time></trkpt><trkpt lat="44.651563403137025" lon="9.32088294816714"><ele>492.1666666666667</ele><time>2026-04-18T15:49:08.999Z</time></trkpt><trkpt lat="44.651606587416644" lon="9.320984977940455"><ele>489.33333333333337</ele><time>2026-04-18T15:49:09.999Z</time></trkpt><trkpt lat="44.65161081641338" lon="9.321100489935015"><ele>486.5</ele><time>2026-04-18T15:49:10.999Z</time></trkpt><trkpt lat="44.651574897574385" lon="9.32121573004953"><ele>483.6666666666667</ele><time>2026-04-18T15:49:11.999Z</time></trkpt><trkpt lat="44.651520619064954" lon="9.32133238966429"><ele>480.83333333333337</ele><time>2026-04-18T15:49:12.999Z</time></trkpt><trkpt lat="44.651480476273186" lon="9.32144493896257"><ele>478.0</ele><time>2026-04-18T15:49:13.999Z</time></trkpt><trkpt lat="44.65144571181367" lon="9.32154381513998"><ele>478.0</ele><time>2026-04-18T15:49:14.999Z</time></trkpt><trkpt lat="44.65140970763301" lon="9.321625854700352"><ele>477.99999999999994</ele><time>2026-04-18T15:49:15.999Z</time></trkpt><trkpt lat="44.651332184584" lon="9.321717940579774"><ele>477.99999999999994</ele><time>2026-04-18T15:49:18Z</time></trkpt><trkpt lat="44.65119885167044" lon="9.321750667010098"><ele>478.0</ele><time>2026-04-18T15:49:20Z</time></trkpt><trkpt lat="44.651168561818146" lon="9.321599553952407"><ele>478.0</ele><time>2026-04-18T15:49:21Z</time></trkpt><trkpt lat="44.651124125133066" lon="9.32150661045509"><ele>476.2</ele><time>2026-04-18T15:49:22Z</time></trkpt><trkpt lat="44.651054104619156" lon="9.321375944418898"><ele>474.4</ele><time>2026-04-18T15:49:24Z</time></trkpt><trkpt lat="44.650957271031295" lon="9.321271430217488"><ele>472.59999999999997</ele><time>2026-04-18T15:49:26Z</time></trkpt><trkpt lat="44.65088769576963" lon="9.321255295188996"><ele>470.79999999999995</ele><time>2026-04-18T15:49:27Z</time></trkpt><trkpt lat="44.65080384766336" lon="9.321244812313209"><ele>469.0</ele><time>2026-04-18T15:49:28Z</time></trkpt><trkpt lat="44.650708856344785" lon="9.321210743661357"><ele>469.00000000000006</ele><time>2026-04-18T15:49:29Z</time></trkpt><trkpt lat="44.65061323255806" lon="9.321155811993934"><ele>469.0</ele><time>2026-04-18T15:49:30Z</time></trkpt><trkpt lat="44.650534140313916" lon="9.321100829863536"><ele>469.0</ele><time>2026-04-18T15:49:31Z</time></trkpt><trkpt lat="44.65045778503349" lon="9.321048487560539"><ele>469.0</ele><time>2026-04-18T15:49:32Z</time></trkpt><trkpt lat="44.65039189983691" lon="9.320985114612796"><ele>469.00000000000006</ele><time>2026-04-18T15:49:33Z</time></trkpt><trkpt lat="44.65034636514409" lon="9.320886184630488"><ele>469.0</ele><time>2026-04-18T15:49:34Z</time></trkpt><trkpt lat="44.650317385282" lon="9.32074497641614"><ele>469.0</ele><time>2026-04-18T15:49:35Z</time></trkpt><trkpt lat="44.65029953428187" lon="9.320632913412156"><ele>469.0</ele><time>2026-04-18T15:49:36Z</time></trkpt><trkpt lat="44.65024367051174" lon="9.320480282970584"><ele>469.0</ele><time>2026-04-18T15:49:38Z</time></trkpt><trkpt lat="44.65017518036878" lon="9.320425735218514"><ele>469.0</ele><time>2026-04-18T15:49:39Z</time></trkpt><trkpt lat="44.650087305351306" lon="9.320417101046614"><ele>469.0</ele><time>2026-04-18T15:49:40Z</time></trkpt><trkpt lat="44.64998846315988" lon="9.320451963341963"><ele>466.33333333333337</ele><time>2026-04-18T15:49:41Z</time></trkpt><trkpt lat="44.64985911608181" lon="9.320535448894503"><ele>463.66666666666663</ele><time>2026-04-18T15:49:42Z</time></trkpt><trkpt lat="44.6497030609698" lon="9.320636892275065"><ele>461.0</ele><time>2026-04-18T15:49:43Z</time></trkpt><trkpt lat="44.64957617530361" lon="9.320718421085797"><ele>461.0</ele><time>2026-04-18T15:49:44Z</time></trkpt><trkpt lat="44.649467601402414" lon="9.320788886562164"><ele>461.0</ele><time>2026-04-18T15:49:45Z</time></trkpt><trkpt lat="44.64937131784478" lon="9.32086985634823"><ele>461.0</ele><time>2026-04-18T15:49:46Z</time></trkpt><trkpt lat="44.64928634972943" lon="9.32099917591267"><ele>461.0</ele><time>2026-04-18T15:49:47Z</time></trkpt><trkpt lat="44.64920730113412" lon="9.321162562833933"><ele>461.66666666666663</ele><time>2026-04-18T15:49:48Z</time></trkpt><trkpt lat="44.649114742310914" lon="9.321357410495656"><ele>462.33333333333337</ele><time>2026-04-18T15:49:49Z</time></trkpt><trkpt lat="44.64901183306106" lon="9.32155873422523"><ele>463.0</ele><time>2026-04-18T15:49:50Z</time></trkpt><trkpt lat="44.64891847152454" lon="9.321737158316857"><ele>463.0</ele><time>2026-04-18T15:49:51Z</time></trkpt><trkpt lat="44.64882714551184" lon="9.321908613058527"><ele>463.0</ele><time>2026-04-18T15:49:52Z</time></trkpt><trkpt lat="44.64873808656851" lon="9.322093942684077"><ele>463.0</ele><time>2026-04-18T15:49:53Z</time></trkpt><trkpt lat="44.64865070005626" lon="9.322314654307572"><ele>456.6666666666667</ele><time>2026-04-18T15:49:54Z</time></trkpt><trkpt lat="44.64857243082316" lon="9.322566851865849"><ele>450.33333333333337</ele><time>2026-04-18T15:49:55Z</time></trkpt><trkpt lat="44.64851044908002" lon="9.322789603795185"><ele>444.0</ele><time>2026-04-18T15:49:56Z</time></trkpt><trkpt lat="44.64844877067682" lon="9.323005233519384"><ele>444.33333333333337</ele><time>2026-04-18T15:49:57Z</time></trkpt><trkpt lat="44.64838487367131" lon="9.323230686058386"><ele>444.6666666666667</ele><time>2026-04-18T15:49:58Z</time></trkpt><trkpt lat="44.64831598409238" lon="9.323460899869714"><ele>445.0</ele><time>2026-04-18T15:49:59Z</time></trkpt><trkpt lat="44.648246762426325" lon="9.323698665952028"><ele>448.0</ele><time>2026-04-18T15:50:00Z</time></trkpt><trkpt lat="44.64817090367233" lon="9.323956916780954"><ele>451.0</ele><time>2026-04-18T15:50:01Z</time></trkpt><trkpt lat="44.64809519698667" lon="9.324211234883046"><ele>454.0</ele><time>2026-04-18T15:50:02Z</time></trkpt><trkpt lat="44.64802157785869" lon="9.324456315284774"><ele>454.0</ele><time>2026-04-18T15:50:03Z</time></trkpt><trkpt lat="44.64795100089786" lon="9.324676586778768"><ele>454.0</ele><time>2026-04-18T15:50:04Z</time></trkpt><trkpt lat="44.64788578365063" lon="9.324893126912492"><ele>454.0</ele><time>2026-04-18T15:50:05Z</time></trkpt><trkpt lat="44.647816771380676" lon="9.32511613956443"><ele>453.0</ele><time>2026-04-18T15:50:06Z</time></trkpt><trkpt lat="44.64775269049303" lon="9.325316145993266"><ele>452.0</ele><time>2026-04-18T15:50:07Z</time></trkpt><trkpt lat="44.647660299830044" lon="9.325629039795048"><ele>451.0</ele><time>2026-04-18T15:50:08Z</time></trkpt><trkpt lat="44.64759008555036" lon="9.325846943587143"><ele>450.5</ele><time>2026-04-18T15:50:09Z</time></trkpt><trkpt lat="44.64751433416134" lon="9.326040104096377"><ele>450.0</ele><time>2026-04-18T15:50:10Z</time></trkpt><trkpt lat="44.64743853876973" lon="9.326208042466382"><ele>449.5</ele><time>2026-04-18T15:50:11Z</time></trkpt><trkpt lat="44.64736116384522" lon="9.326362217031946"><ele>449.0</ele><time>2026-04-18T15:50:12Z</time></trkpt><trkpt lat="44.64727892228698" lon="9.32651002581823"><ele>449.0</ele><time>2026-04-18T15:50:13Z</time></trkpt><trkpt lat="44.64718166342556" lon="9.326666511157194"><ele>449.0</ele><time>2026-04-18T15:50:14Z</time></trkpt><trkpt lat="44.64708771352098" lon="9.326804550912046"><ele>449.0</ele><time>2026-04-18T15:50:15Z</time></trkpt><trkpt lat="44.64699010063034" lon="9.32693499029909"><ele>449.0</ele><time>2026-04-18T15:50:16Z</time></trkpt><trkpt lat="44.64688330125534" lon="9.327071277980087"><ele>450.0</ele><time>2026-04-18T15:50:17Z</time></trkpt><trkpt lat="44.64675882205128" lon="9.327209254143284"><ele>451.0</ele><time>2026-04-18T15:50:18Z</time></trkpt><trkpt lat="44.64661419009787" lon="9.327335245821573"><ele>452.0</ele><time>2026-04-18T15:50:19Z</time></trkpt><trkpt lat="44.64645578619807" lon="9.327457715209492"><ele>452.0</ele><time>2026-04-18T15:50:20Z</time></trkpt><trkpt lat="44.6463000239943" lon="9.327563297839518"><ele>452.0</ele><time>2026-04-18T15:50:21Z</time></trkpt><trkpt lat="44.646167638960456" lon="9.327660001405889"><ele>452.0</ele><time>2026-04-18T15:50:22Z</time></trkpt><trkpt lat="44.64601469925318" lon="9.32778174016276"><ele>452.3333333333333</ele><time>2026-04-18T15:50:23Z</time></trkpt><trkpt lat="44.64585346884899" lon="9.327899826954187"><ele>452.66666666666663</ele><time>2026-04-18T15:50:24Z</time></trkpt><trkpt lat="44.645704125949756" lon="9.328009020757111"><ele>453.0</ele><time>2026-04-18T15:50:25Z</time></trkpt><trkpt lat="44.645556821663206" lon="9.328114513563422"><ele>453.0</ele><time>2026-04-18T15:50:26Z</time></trkpt><trkpt lat="44.64538659189321" lon="9.32822429064113"><ele>453.0</ele><time>2026-04-18T15:50:27Z</time></trkpt><trkpt lat="44.645236456915974" lon="9.3283179057041"><ele>453.0</ele><time>2026-04-18T15:50:28Z</time></trkpt><trkpt lat="44.645067072365286" lon="9.32840488168534"><ele>457.66666666666663</ele><time>2026-04-18T15:50:29Z</time></trkpt><trkpt lat="44.644883870078715" lon="9.328483660378815"><ele>462.3333333333333</ele><time>2026-04-18T15:50:30Z</time></trkpt><trkpt lat="44.64469725461027" lon="9.328542391114336"><ele>467.0</ele><time>2026-04-18T15:50:31Z</time></trkpt><trkpt lat="44.644511318757615" lon="9.328589791266177"><ele>467.66666666666663</ele><time>2026-04-18T15:50:31.999Z</time></trkpt><trkpt lat="44.644321235272905" lon="9.328648977061626"><ele>468.33333333333337</ele><time>2026-04-18T15:50:32.999Z</time></trkpt><trkpt lat="44.64412182224466" lon="9.328714185942815"><ele>469.0</ele><time>2026-04-18T15:50:33.999Z</time></trkpt><trkpt lat="44.64391905272218" lon="9.32877575367831"><ele>469.0</ele><time>2026-04-18T15:50:34.999Z</time></trkpt><trkpt lat="44.643702908560584" lon="9.328839153384164"><ele>469.0</ele><time>2026-04-18T15:50:35.999Z</time></trkpt><trkpt lat="44.64348593626788" lon="9.328901120661465"><ele>469.0</ele><time>2026-04-18T15:50:36.999Z</time></trkpt><trkpt lat="44.64325936294793" lon="9.32896390926899"><ele>465.0</ele><time>2026-04-18T15:50:37.999Z</time></trkpt><trkpt lat="44.643021948798584" lon="9.32902616221734"><ele>461.0</ele><time>2026-04-18T15:50:38.999Z</time></trkpt><trkpt lat="44.64277663076579" lon="9.329082372958226"><ele>461.0</ele><time>2026-04-18T15:50:39.999Z</time></trkpt><trkpt lat="44.64255015385093" lon="9.329128645085868"><ele>461.0</ele><time>2026-04-18T15:50:40.999Z</time></trkpt><trkpt lat="44.64233179112032" lon="9.32918323563981"><ele>461.0</ele><time>2026-04-18T15:50:41.999Z</time></trkpt><trkpt lat="44.64212096732132" lon="9.329241695618956"><ele>461.0</ele><time>2026-04-18T15:50:42.999Z</time></trkpt><trkpt lat="44.64192548577112" lon="9.329291168015992"><ele>461.0</ele><time>2026-04-18T15:50:43.999Z</time></trkpt><trkpt lat="44.64172148366427" lon="9.329344744776092"><ele>462.0</ele><time>2026-04-18T15:50:44.999Z</time></trkpt><trkpt lat="44.641511610180906" lon="9.329403615171637"><ele>463.0</ele><time>2026-04-18T15:50:45.999Z</time></trkpt><trkpt lat="44.64130261292562" lon="9.329458170812924"><ele>464.0</ele><time>2026-04-18T15:50:46.999Z</time></trkpt><trkpt lat="44.64111040723813" lon="9.329505309423764"><ele>465.3333333333333</ele><time>2026-04-18T15:50:47.999Z</time></trkpt><trkpt lat="44.64092910922437" lon="9.329550005192786"><ele>466.66666666666663</ele><time>2026-04-18T15:50:48.999Z</time></trkpt><trkpt lat="44.64075082548068" lon="9.329597052034446"><ele>468.0</ele><time>2026-04-18T15:50:49.999Z</time></trkpt><trkpt lat="44.640556253974914" lon="9.329651587289854"><ele>468.0</ele><time>2026-04-18T15:50:50.999Z</time></trkpt><trkpt lat="44.64036077489959" lon="9.329705958634355"><ele>468.0</ele><time>2026-04-18T15:50:51.999Z</time></trkpt><trkpt lat="44.640183868105815" lon="9.329753860463322"><ele>468.0</ele><time>2026-04-18T15:50:52.999Z</time></trkpt><trkpt lat="44.640014562098315" lon="9.329803430415687"><ele>465.0</ele><time>2026-04-18T15:50:53.999Z</time></trkpt><trkpt lat="44.63983941377944" lon="9.329853052388447"><ele>462.0</ele><time>2026-04-18T15:50:54.999Z</time></trkpt><trkpt lat="44.63966018380606" lon="9.32989691028257"><ele>459.0</ele><time>2026-04-18T15:50:55.999Z</time></trkpt><trkpt lat="44.63948865098123" lon="9.329943002061338"><ele>459.5</ele><time>2026-04-18T15:50:56.999Z</time></trkpt><trkpt lat="44.63934560838419" lon="9.329979183338526"><ele>460.0</ele><time>2026-04-18T15:50:57.999Z</time></trkpt><trkpt lat="44.639201724384556" lon="9.330013687246895"><ele>460.5</ele><time>2026-04-18T15:50:58.999Z</time></trkpt><trkpt lat="44.63904827230695" lon="9.330032474912608"><ele>461.0</ele><time>2026-04-18T15:50:59.999Z</time></trkpt><trkpt lat="44.63889703218083" lon="9.329999251207045"><ele>461.0</ele><time>2026-04-18T15:51:00.999Z</time></trkpt><trkpt lat="44.638746995085064" lon="9.329972237320119"><ele>461.0</ele><time>2026-04-18T15:51:01.999Z</time></trkpt><trkpt lat="44.63857731003378" lon="9.329921411136102"><ele>461.0</ele><time>2026-04-18T15:51:02.999Z</time></trkpt><trkpt lat="44.638419000502076" lon="9.329852510980785"><ele>460.66666666666663</ele><time>2026-04-18T15:51:03.999Z</time></trkpt><trkpt lat="44.638255620490874" lon="9.32974980499075"><ele>460.33333333333337</ele><time>2026-04-18T15:51:04.999Z</time></trkpt><trkpt lat="44.638087693641" lon="9.329629350314121"><ele>460.0</ele><time>2026-04-18T15:51:05.999Z</time></trkpt><trkpt lat="44.637907636818674" lon="9.329497316478284"><ele>462.6666666666667</ele><time>2026-04-18T15:51:06.999Z</time></trkpt><trkpt lat="44.637726873859485" lon="9.3293644701435"><ele>465.33333333333337</ele><time>2026-04-18T15:51:07.999Z</time></trkpt><trkpt lat="44.63754306178171" lon="9.329230034102055"><ele>468.0</ele><time>2026-04-18T15:51:08.999Z</time></trkpt><trkpt lat="44.637377849728885" lon="9.329109622773629"><ele>468.0</ele><time>2026-04-18T15:51:09.999Z</time></trkpt><trkpt lat="44.63722434978237" lon="9.328998017049383"><ele>468.0</ele><time>2026-04-18T15:51:10.999Z</time></trkpt><trkpt lat="44.63706896509106" lon="9.328909379103681"><ele>468.0</ele><time>2026-04-18T15:51:11.999Z</time></trkpt><trkpt lat="44.636917591653656" lon="9.328790590813943"><ele>466.33333333333337</ele><time>2026-04-18T15:51:12.999Z</time></trkpt><trkpt lat="44.63678370472308" lon="9.328689588345464"><ele>464.6666666666667</ele><time>2026-04-18T15:51:13.999Z</time></trkpt><trkpt lat="44.63664203559173" lon="9.328594522428634"><ele>463.0</ele><time>2026-04-18T15:51:14.999Z</time></trkpt><trkpt lat="44.63649076334765" lon="9.328523019379194"><ele>463.0</ele><time>2026-04-18T15:51:15.999Z</time></trkpt><trkpt lat="44.63632237220122" lon="9.328474979195562"><ele>463.0</ele><time>2026-04-18T15:51:16.999Z</time></trkpt><trkpt lat="44.63615141967616" lon="9.328449284448984"><ele>463.0</ele><time>2026-04-18T15:51:17.999Z</time></trkpt><trkpt lat="44.63597554277211" lon="9.328440157904376"><ele>464.33333333333337</ele><time>2026-04-18T15:51:18.999Z</time></trkpt><trkpt lat="44.63580258403882" lon="9.32846081613257"><ele>465.66666666666663</ele><time>2026-04-18T15:51:19.999Z</time></trkpt><trkpt lat="44.63564340314041" lon="9.328538134811552"><ele>467.0</ele><time>2026-04-18T15:51:20.999Z</time></trkpt><trkpt lat="44.6354867158647" lon="9.328600675828161"><ele>467.0</ele><time>2026-04-18T15:51:21.999Z</time></trkpt><trkpt lat="44.635327526151485" lon="9.328689775564069"><ele>467.0</ele><time>2026-04-18T15:51:23Z</time></trkpt><trkpt lat="44.63517118771429" lon="9.328805967560575"><ele>467.0</ele><time>2026-04-18T15:51:24Z</time></trkpt><trkpt lat="44.635002099738486" lon="9.328926148315901"><ele>467.66666666666663</ele><time>2026-04-18T15:51:25Z</time></trkpt><trkpt lat="44.63482040379963" lon="9.329054850991035"><ele>468.33333333333337</ele><time>2026-04-18T15:51:26Z</time></trkpt><trkpt lat="44.63463318032173" lon="9.329176498219297"><ele>469.0</ele><time>2026-04-18T15:51:27Z</time></trkpt><trkpt lat="44.6344590006842" lon="9.329289704662871"><ele>469.0</ele><time>2026-04-18T15:51:28Z</time></trkpt><trkpt lat="44.634276041306705" lon="9.32941929757661"><ele>469.0</ele><time>2026-04-18T15:51:29Z</time></trkpt><trkpt lat="44.6340889798757" lon="9.32955655110156"><ele>469.0</ele><time>2026-04-18T15:51:30Z</time></trkpt><trkpt lat="44.633883312564066" lon="9.329674486190866"><ele>470.0</ele><time>2026-04-18T15:51:31Z</time></trkpt><trkpt lat="44.63368504229391" lon="9.329809520985892"><ele>471.0</ele><time>2026-04-18T15:51:32Z</time></trkpt><trkpt lat="44.633506021440205" lon="9.329931445707842"><ele>472.0</ele><time>2026-04-18T15:51:33Z</time></trkpt><trkpt lat="44.63334402999675" lon="9.330041712170155"><ele>472.0</ele><time>2026-04-18T15:51:34Z</time></trkpt><trkpt lat="44.6332000897127" lon="9.330138181444855"><ele>472.0</ele><time>2026-04-18T15:51:35Z</time></trkpt><trkpt lat="44.633070148578604" lon="9.330250680050126"><ele>472.0</ele><time>2026-04-18T15:51:36Z</time></trkpt><trkpt lat="44.632938965014574" lon="9.33033917966493"><ele>472.0</ele><time>2026-04-18T15:51:37Z</time></trkpt><trkpt lat="44.63280936949103" lon="9.330431996943206"><ele>472.0</ele><time>2026-04-18T15:51:38Z</time></trkpt><trkpt lat="44.632676170795904" lon="9.33056202636503"><ele>472.0</ele><time>2026-04-18T15:51:39Z</time></trkpt><trkpt lat="44.632530683198375" lon="9.33071612977542"><ele>473.33333333333337</ele><time>2026-04-18T15:51:40Z</time></trkpt><trkpt lat="44.632359574741386" lon="9.330884867007963"><ele>474.66666666666663</ele><time>2026-04-18T15:51:41Z</time></trkpt><trkpt lat="44.632172025170625" lon="9.331075075328352"><ele>476.0</ele><time>2026-04-18T15:51:42Z</time></trkpt><trkpt lat="44.63200556508168" lon="9.331248047239788"><ele>477.3333333333333</ele><time>2026-04-18T15:51:43Z</time></trkpt><trkpt lat="44.6318484289989" lon="9.331376724091545"><ele>478.66666666666663</ele><time>2026-04-18T15:51:44Z</time></trkpt><trkpt lat="44.63171370146115" lon="9.331510011731158"><ele>480.0</ele><time>2026-04-18T15:51:45Z</time></trkpt><trkpt lat="44.63157649556314" lon="9.331645586103917"><ele>480.0</ele><time>2026-04-18T15:51:46Z</time></trkpt><trkpt lat="44.63144011352565" lon="9.33180035631638"><ele>480.0</ele><time>2026-04-18T15:51:47Z</time></trkpt><trkpt lat="44.63129372727963" lon="9.331931029880856"><ele>480.0</ele><time>2026-04-18T15:51:48Z</time></trkpt><trkpt lat="44.63113418708145" lon="9.3320601784066"><ele>481.66666666666663</ele><time>2026-04-18T15:51:49Z</time></trkpt><trkpt lat="44.630958075471014" lon="9.33216501322262"><ele>483.3333333333333</ele><time>2026-04-18T15:51:50Z</time></trkpt><trkpt lat="44.630814606822284" lon="9.332282791579722"><ele>485.0</ele><time>2026-04-18T15:51:51Z</time></trkpt><trkpt lat="44.630666495754134" lon="9.332379179659139"><ele>485.0</ele><time>2026-04-18T15:51:52Z</time></trkpt><trkpt lat="44.630514997914595" lon="9.33248588424269"><ele>485.0</ele><time>2026-04-18T15:51:53Z</time></trkpt><trkpt lat="44.63037476453139" lon="9.3325866247557"><ele>485.0</ele><time>2026-04-18T15:51:54Z</time></trkpt><trkpt lat="44.630237547137185" lon="9.33268185003654"><ele>480.3333333333333</ele><time>2026-04-18T15:51:55Z</time></trkpt><trkpt lat="44.6300872132551" lon="9.332774585785732"><ele>475.66666666666663</ele><time>2026-04-18T15:51:56Z</time></trkpt><trkpt lat="44.629931876099256" lon="9.33285819169402"><ele>471.0</ele><time>2026-04-18T15:51:57Z</time></trkpt><trkpt lat="44.62976539929116" lon="9.332928530114343"><ele>471.0</ele><time>2026-04-18T15:51:58Z</time></trkpt><trkpt lat="44.62959370034346" lon="9.332985115004753"><ele>471.0</ele><time>2026-04-18T15:51:59Z</time></trkpt><trkpt lat="44.62943438971312" lon="9.33302438978468"><ele>471.0</ele><time>2026-04-18T15:52:00Z</time></trkpt><trkpt lat="44.62926634049974" lon="9.333045826554624"><ele>471.33333333333337</ele><time>2026-04-18T15:52:01Z</time></trkpt><trkpt lat="44.62909661785888" lon="9.33305197398246"><ele>471.6666666666667</ele><time>2026-04-18T15:52:02Z</time></trkpt><trkpt lat="44.62893225439929" lon="9.333053339579557"><ele>472.0</ele><time>2026-04-18T15:52:03Z</time></trkpt><trkpt lat="44.628757403896884" lon="9.333047316916653"><ele>472.33333333333337</ele><time>2026-04-18T15:52:04Z</time></trkpt><trkpt lat="44.628579507773864" lon="9.333038183003934"><ele>472.66666666666663</ele><time>2026-04-18T15:52:05Z</time></trkpt><trkpt lat="44.62838426641125" lon="9.333027998976087"><ele>473.0</ele><time>2026-04-18T15:52:06Z</time></trkpt><trkpt lat="44.62817759057936" lon="9.3330152836936"><ele>473.0</ele><time>2026-04-18T15:52:07Z</time></trkpt><trkpt lat="44.62796137701749" lon="9.333000019245398"><ele>473.0</ele><time>2026-04-18T15:52:08Z</time></trkpt><trkpt lat="44.62775330583463" lon="9.332953101303731"><ele>473.0</ele><time>2026-04-18T15:52:09Z</time></trkpt><trkpt lat="44.6275809340054" lon="9.332959890616417"><ele>473.0</ele><time>2026-04-18T15:52:10Z</time></trkpt><trkpt lat="44.6274160417248" lon="9.332933944568344"><ele>473.0</ele><time>2026-04-18T15:52:11Z</time></trkpt><trkpt lat="44.62723877385918" lon="9.332896311506525"><ele>473.0</ele><time>2026-04-18T15:52:12Z</time></trkpt><trkpt lat="44.627062281783516" lon="9.3328578514835"><ele>475.0</ele><time>2026-04-18T15:52:13Z</time></trkpt><trkpt lat="44.62688751184783" lon="9.332815639246638"><ele>477.0</ele><time>2026-04-18T15:52:14Z</time></trkpt><trkpt lat="44.62669759730149" lon="9.332763259220483"><ele>479.0</ele><time>2026-04-18T15:52:15Z</time></trkpt><trkpt lat="44.626505324118526" lon="9.332704893838402"><ele>479.0</ele><time>2026-04-18T15:52:16Z</time></trkpt><trkpt lat="44.626304598174926" lon="9.332635586060762"><ele>479.0</ele><time>2026-04-18T15:52:17Z</time></trkpt><trkpt lat="44.62610140815542" lon="9.332549513608274"><ele>479.0</ele><time>2026-04-18T15:52:18Z</time></trkpt><trkpt lat="44.625888776043574" lon="9.332454672707941"><ele>476.5</ele><time>2026-04-18T15:52:19Z</time></trkpt><trkpt lat="44.62567541751564" lon="9.332347652559008"><ele>474.0</ele><time>2026-04-18T15:52:20Z</time></trkpt><trkpt lat="44.62545611602974" lon="9.332227381679742"><ele>477.0</ele><time>2026-04-18T15:52:21Z</time></trkpt><trkpt lat="44.625233559741964" lon="9.332093724991955"><ele>480.0</ele><time>2026-04-18T15:52:22Z</time></trkpt><trkpt lat="44.624999676324535" lon="9.331960698091395"><ele>480.0</ele><time>2026-04-18T15:52:23Z</time></trkpt><trkpt lat="44.624756338311585" lon="9.331824373123604"><ele>480.0</ele><time>2026-04-18T15:52:24Z</time></trkpt><trkpt lat="44.62452385261111" lon="9.33169104504848"><ele>479.66666666666663</ele><time>2026-04-18T15:52:25Z</time></trkpt><trkpt lat="44.6243242419077" lon="9.331576103706032"><ele>479.3333333333333</ele><time>2026-04-18T15:52:26Z</time></trkpt><trkpt lat="44.62414759303855" lon="9.331477217761428"><ele>479.0</ele><time>2026-04-18T15:52:27Z</time></trkpt><trkpt lat="44.62398161898875" lon="9.331381905920251"><ele>479.0</ele><time>2026-04-18T15:52:28Z</time></trkpt><trkpt lat="44.62381448746394" lon="9.331286410544958"><ele>479.0</ele><time>2026-04-18T15:52:29Z</time></trkpt><trkpt lat="44.62362772710464" lon="9.33118399099684"><ele>479.0</ele><time>2026-04-18T15:52:30Z</time></trkpt><trkpt lat="44.623431338058865" lon="9.33107210011461"><ele>478.66666666666663</ele><time>2026-04-18T15:52:31Z</time></trkpt><trkpt lat="44.623240376666494" lon="9.330962940405486"><ele>478.33333333333337</ele><time>2026-04-18T15:52:32Z</time></trkpt><trkpt lat="44.62306741032405" lon="9.330866971837354"><ele>478.0</ele><time>2026-04-18T15:52:33Z</time></trkpt><trkpt lat="44.62290303131496" lon="9.330759695801232"><ele>478.33333333333337</ele><time>2026-04-18T15:52:33.999Z</time></trkpt><trkpt lat="44.622730491126255" lon="9.33063165252078"><ele>478.66666666666663</ele><time>2026-04-18T15:52:34.999Z</time></trkpt><trkpt lat="44.622554523279646" lon="9.330476749556734"><ele>479.0</ele><time>2026-04-18T15:52:35.999Z</time></trkpt><trkpt lat="44.622378981148714" lon="9.330308930886481"><ele>480.0</ele><time>2026-04-18T15:52:36.999Z</time></trkpt><trkpt lat="44.62221496372847" lon="9.330124227205543"><ele>481.0</ele><time>2026-04-18T15:52:37.999Z</time></trkpt><trkpt lat="44.62206990643986" lon="9.329948990181094"><ele>482.0</ele><time>2026-04-18T15:52:38.999Z</time></trkpt><trkpt lat="44.62193220346804" lon="9.329759895300118"><ele>483.3333333333333</ele><time>2026-04-18T15:52:39.999Z</time></trkpt><trkpt lat="44.62180829036377" lon="9.329528937759607"><ele>484.66666666666663</ele><time>2026-04-18T15:52:40.999Z</time></trkpt><trkpt lat="44.62167074871854" lon="9.329292265266186"><ele>486.0</ele><time>2026-04-18T15:52:41.999Z</time></trkpt><trkpt lat="44.62155046319584" lon="9.329049221833616"><ele>487.33333333333337</ele><time>2026-04-18T15:52:42.999Z</time></trkpt><trkpt lat="44.62144281668308" lon="9.328802248843804"><ele>488.6666666666667</ele><time>2026-04-18T15:52:43.999Z</time></trkpt><trkpt lat="44.62133262499657" lon="9.328534380903498"><ele>490.0</ele><time>2026-04-18T15:52:44.999Z</time></trkpt><trkpt lat="44.621204614423895" lon="9.328263182981729"><ele>486.5</ele><time>2026-04-18T15:52:45.999Z</time></trkpt><trkpt lat="44.62108476621166" lon="9.32796914598744"><ele>483.0</ele><time>2026-04-18T15:52:46.999Z</time></trkpt><trkpt lat="44.6209610784956" lon="9.327669299847091"><ele>483.0</ele><time>2026-04-18T15:52:47.999Z</time></trkpt><trkpt lat="44.620837059686615" lon="9.327361718359995"><ele>483.0</ele><time>2026-04-18T15:52:48.999Z</time></trkpt><trkpt lat="44.62071632900525" lon="9.32706561627557"><ele>483.33333333333337</ele><time>2026-04-18T15:52:49.999Z</time></trkpt><trkpt lat="44.620599482895344" lon="9.32680031184092"><ele>483.6666666666667</ele><time>2026-04-18T15:52:50.999Z</time></trkpt><trkpt lat="44.6204759293404" lon="9.326564635805639"><ele>484.0</ele><time>2026-04-18T15:52:51.999Z</time></trkpt><trkpt lat="44.62033154796504" lon="9.326328853574628"><ele>486.0</ele><time>2026-04-18T15:52:52.999Z</time></trkpt><trkpt lat="44.6201705027664" lon="9.326094283424094"><ele>488.0</ele><time>2026-04-18T15:52:53.999Z</time></trkpt><trkpt lat="44.62000123368171" lon="9.325868192165755"><ele>488.0</ele><time>2026-04-18T15:52:54.999Z</time></trkpt><trkpt lat="44.619827912875245" lon="9.32564020675621"><ele>488.0</ele><time>2026-04-18T15:52:55.999Z</time></trkpt><trkpt lat="44.619648040727974" lon="9.325399843410459"><ele>490.0</ele><time>2026-04-18T15:52:56.999Z</time></trkpt><trkpt lat="44.61946318522549" lon="9.32515262919731"><ele>492.0</ele><time>2026-04-18T15:52:57.999Z</time></trkpt><trkpt lat="44.619275389020885" lon="9.32490005430379"><ele>498.0</ele><time>2026-04-18T15:52:58.999Z</time></trkpt><trkpt lat="44.619084389871055" lon="9.324641508414498"><ele>504.0</ele><time>2026-04-18T15:52:59.999Z</time></trkpt><trkpt lat="44.618887115738126" lon="9.324376256150524"><ele>504.0</ele><time>2026-04-18T15:53:00.999Z</time></trkpt><trkpt lat="44.618686879683366" lon="9.324110719489505"><ele>504.0</ele><time>2026-04-18T15:53:01.999Z</time></trkpt><trkpt lat="44.61848378973638" lon="9.323838888903852"><ele>501.5</ele><time>2026-04-18T15:53:02.999Z</time></trkpt><trkpt lat="44.61827836231992" lon="9.323567600209492"><ele>499.0</ele><time>2026-04-18T15:53:03.999Z</time></trkpt><trkpt lat="44.61808334363029" lon="9.323307891926833"><ele>499.0</ele><time>2026-04-18T15:53:04.999Z</time></trkpt><trkpt lat="44.617906435361846" lon="9.323069606917143"><ele>499.0</ele><time>2026-04-18T15:53:05.999Z</time></trkpt><trkpt lat="44.617742273912654" lon="9.32284695676436"><ele>496.0</ele><time>2026-04-18T15:53:06.999Z</time></trkpt><trkpt lat="44.61758694762494" lon="9.322633618614379"><ele>493.0</ele><time>2026-04-18T15:53:07.999Z</time></trkpt><trkpt lat="44.617438067894675" lon="9.322431943793138"><ele>490.0</ele><time>2026-04-18T15:53:08.999Z</time></trkpt><trkpt lat="44.617305985119586" lon="9.322253391291392"><ele>490.0</ele><time>2026-04-18T15:53:09.999Z</time></trkpt><trkpt lat="44.61718601499596" lon="9.322108531955145"><ele>490.0</ele><time>2026-04-18T15:53:10.999Z</time></trkpt><trkpt lat="44.61706222515743" lon="9.321990956198787"><ele>490.0</ele><time>2026-04-18T15:53:11.999Z</time></trkpt><trkpt lat="44.61691763290046" lon="9.321893574820447"><ele>494.0</ele><time>2026-04-18T15:53:12.999Z</time></trkpt><trkpt lat="44.61674448006629" lon="9.321814227708245"><ele>498.0</ele><time>2026-04-18T15:53:13.999Z</time></trkpt><trkpt lat="44.61655608935627" lon="9.321769257048143"><ele>502.0</ele><time>2026-04-18T15:53:14.999Z</time></trkpt><trkpt lat="44.61635711565805" lon="9.321755616027753"><ele>504.33333333333337</ele><time>2026-04-18T15:53:15.999Z</time></trkpt><trkpt lat="44.616142633988176" lon="9.32177117446603"><ele>506.66666666666663</ele><time>2026-04-18T15:53:16.999Z</time></trkpt><trkpt lat="44.61591386162145" lon="9.321791056094025"><ele>509.0</ele><time>2026-04-18T15:53:17.999Z</time></trkpt><trkpt lat="44.61569518999556" lon="9.321809566044358"><ele>509.0</ele><time>2026-04-18T15:53:18.999Z</time></trkpt><trkpt lat="44.61550519097677" lon="9.321815108053904"><ele>509.0</ele><time>2026-04-18T15:53:19.999Z</time></trkpt><trkpt lat="44.61532927600267" lon="9.321811167682013"><ele>509.0</ele><time>2026-04-18T15:53:20.999Z</time></trkpt><trkpt lat="44.615165420362786" lon="9.321742620114536"><ele>509.66666666666663</ele><time>2026-04-18T15:53:21.999Z</time></trkpt><trkpt lat="44.61502571334894" lon="9.321659576313722"><ele>510.33333333333337</ele><time>2026-04-18T15:53:22.999Z</time></trkpt><trkpt lat="44.61489854298148" lon="9.321544320280463"><ele>511.0</ele><time>2026-04-18T15:53:23.999Z</time></trkpt><trkpt lat="44.614774579519384" lon="9.321432396489618"><ele>508.75</ele><time>2026-04-18T15:53:24.999Z</time></trkpt><trkpt lat="44.61467163840742" lon="9.321351960307421"><ele>506.5</ele><time>2026-04-18T15:53:25.999Z</time></trkpt><trkpt lat="44.61457477650195" lon="9.321339822102148"><ele>504.25</ele><time>2026-04-18T15:53:26.999Z</time></trkpt><trkpt lat="44.61442915416813" lon="9.321359941970288"><ele>502.0</ele><time>2026-04-18T15:53:27.999Z</time></trkpt><trkpt lat="44.61425511926254" lon="9.321399714607857"><ele>508.33333333333337</ele><time>2026-04-18T15:53:29Z</time></trkpt><trkpt lat="44.6140605457909" lon="9.321453948555426"><ele>514.6666666666666</ele><time>2026-04-18T15:53:30Z</time></trkpt><trkpt lat="44.61385240837735" lon="9.321508683951809"><ele>521.0</ele><time>2026-04-18T15:53:31Z</time></trkpt><trkpt lat="44.61367616895042" lon="9.321543520021088"><ele>520.0</ele><time>2026-04-18T15:53:32Z</time></trkpt><trkpt lat="44.61351603017265" lon="9.321561297043614"><ele>519.0</ele><time>2026-04-18T15:53:33Z</time></trkpt><trkpt lat="44.61338032701371" lon="9.321613715855635"><ele>518.0</ele><time>2026-04-18T15:53:34Z</time></trkpt><trkpt lat="44.613265419674256" lon="9.32164400461401"><ele>517.0</ele><time>2026-04-18T15:53:35Z</time></trkpt><trkpt lat="44.613162793078374" lon="9.321645467914903"><ele>517.0</ele><time>2026-04-18T15:53:36Z</time></trkpt><trkpt lat="44.61307264765129" lon="9.321588001004729"><ele>517.0</ele><time>2026-04-18T15:53:37Z</time></trkpt><trkpt lat="44.613020916811216" lon="9.32147564998832"><ele>517.0</ele><time>2026-04-18T15:53:38Z</time></trkpt><trkpt lat="44.61298356909789" lon="9.321318280722465"><ele>517.0</ele><time>2026-04-18T15:53:39Z</time></trkpt><trkpt lat="44.61295801138947" lon="9.3211255873375"><ele>514.0</ele><time>2026-04-18T15:53:40Z</time></trkpt><trkpt lat="44.612931436044704" lon="9.320922039033526"><ele>511.0</ele><time>2026-04-18T15:53:41Z</time></trkpt><trkpt lat="44.612894236920084" lon="9.320748575645656"><ele>508.0</ele><time>2026-04-18T15:53:42Z</time></trkpt><trkpt lat="44.612833849945304" lon="9.320597075418224"><ele>505.0</ele><time>2026-04-18T15:53:43Z</time></trkpt><trkpt lat="44.6127442741907" lon="9.32046527543155"><ele>505.0</ele><time>2026-04-18T15:53:44Z</time></trkpt><trkpt lat="44.612610972012774" lon="9.320340160792753"><ele>505.0</ele><time>2026-04-18T15:53:45Z</time></trkpt><trkpt lat="44.61245418048305" lon="9.320203795070919"><ele>505.0</ele><time>2026-04-18T15:53:46Z</time></trkpt><trkpt lat="44.61231255323897" lon="9.320089886780044"><ele>505.0</ele><time>2026-04-18T15:53:47Z</time></trkpt><trkpt lat="44.61219206682463" lon="9.319979352699477"><ele>505.0</ele><time>2026-04-18T15:53:48Z</time></trkpt><trkpt lat="44.61209544349957" lon="9.319899826348362"><ele>505.0</ele><time>2026-04-18T15:53:49Z</time></trkpt><trkpt lat="44.61204694969235" lon="9.319838367812624"><ele>505.0</ele><time>2026-04-18T15:53:50Z</time></trkpt><trkpt lat="44.61202405165561" lon="9.319739089828206"><ele>505.0</ele><time>2026-04-18T15:53:51Z</time></trkpt><trkpt lat="44.61200549374975" lon="9.319588393517845"><ele>505.0</ele><time>2026-04-18T15:53:52Z</time></trkpt><trkpt lat="44.61185835160132" lon="9.319407161605442"><ele>505.0</ele><time>2026-04-18T15:53:53Z</time></trkpt><trkpt lat="44.611873220380936" lon="9.319209267153989"><ele>505.0</ele><time>2026-04-18T15:53:54Z</time></trkpt><trkpt lat="44.61188169839158" lon="9.3190472624771"><ele>505.0</ele><time>2026-04-18T15:53:55Z</time></trkpt><trkpt lat="44.61187506128602" lon="9.318924067958648"><ele>505.0</ele><time>2026-04-18T15:53:56Z</time></trkpt><trkpt lat="44.61182948582939" lon="9.31881413378357"><ele>505.0</ele><time>2026-04-18T15:53:57Z</time></trkpt><trkpt lat="44.611736150186324" lon="9.318699439392265"><ele>505.0</ele><time>2026-04-18T15:53:58Z</time></trkpt><trkpt lat="44.611594732330644" lon="9.318607438194643"><ele>514.3333333333334</ele><time>2026-04-18T15:53:59Z</time></trkpt><trkpt lat="44.611447301058384" lon="9.318473341742886"><ele>523.6666666666666</ele><time>2026-04-18T15:54:00Z</time></trkpt><trkpt lat="44.61129420729778" lon="9.31833197173072"><ele>533.0</ele><time>2026-04-18T15:54:01Z</time></trkpt><trkpt lat="44.611158090695184" lon="9.318214022102378"><ele>527.75</ele><time>2026-04-18T15:54:02Z</time></trkpt><trkpt lat="44.61102246097208" lon="9.318123478766633"><ele>522.5</ele><time>2026-04-18T15:54:03Z</time></trkpt><trkpt lat="44.61089360076306" lon="9.318068343587443"><ele>517.25</ele><time>2026-04-18T15:54:04Z</time></trkpt><trkpt lat="44.61079430724244" lon="9.318012312231486"><ele>512.0</ele><time>2026-04-18T15:54:05Z</time></trkpt><trkpt lat="44.61073867007868" lon="9.317898947819675"><ele>512.0</ele><time>2026-04-18T15:54:06Z</time></trkpt><trkpt lat="44.61071683903402" lon="9.317749290657398"><ele>512.0</ele><time>2026-04-18T15:54:07Z</time></trkpt><trkpt lat="44.610735616447464" lon="9.31754442729102"><ele>512.0</ele><time>2026-04-18T15:54:08Z</time></trkpt><trkpt lat="44.610753251778384" lon="9.317323474999581"><ele>512.0</ele><time>2026-04-18T15:54:09Z</time></trkpt><trkpt lat="44.610755434744235" lon="9.317078430515577"><ele>513.25</ele><time>2026-04-18T15:54:10Z</time></trkpt><trkpt lat="44.61073630617382" lon="9.316877326239442"><ele>514.5</ele><time>2026-04-18T15:54:11Z</time></trkpt><trkpt lat="44.61072631717714" lon="9.316692214220135"><ele>515.75</ele><time>2026-04-18T15:54:12Z</time></trkpt><trkpt lat="44.610764411941744" lon="9.316507488954324"><ele>517.0</ele><time>2026-04-18T15:54:13Z</time></trkpt><trkpt lat="44.610834499505486" lon="9.31634683122273"><ele>517.25</ele><time>2026-04-18T15:54:14Z</time></trkpt><trkpt lat="44.61085658101878" lon="9.316173511882589"><ele>517.5</ele><time>2026-04-18T15:54:15Z</time></trkpt><trkpt lat="44.61084462463547" lon="9.315956424461023"><ele>517.75</ele><time>2026-04-18T15:54:16Z</time></trkpt><trkpt lat="44.610817311881235" lon="9.315743527054478"><ele>518.0</ele><time>2026-04-18T15:54:17Z</time></trkpt><trkpt lat="44.610763616288814" lon="9.315515538317413"><ele>518.3333333333333</ele><time>2026-04-18T15:54:18Z</time></trkpt><trkpt lat="44.61069523401267" lon="9.315258961955985"><ele>518.6666666666666</ele><time>2026-04-18T15:54:19Z</time></trkpt><trkpt lat="44.61062215272799" lon="9.314983462723204"><ele>519.0</ele><time>2026-04-18T15:54:20Z</time></trkpt><trkpt lat="44.610561730700226" lon="9.314755229299326"><ele>521.6666666666666</ele><time>2026-04-18T15:54:21Z</time></trkpt><trkpt lat="44.61051373937328" lon="9.314543222005247"><ele>524.3333333333333</ele><time>2026-04-18T15:54:22Z</time></trkpt><trkpt lat="44.610482166610055" lon="9.31432352619208"><ele>527.0</ele><time>2026-04-18T15:54:23Z</time></trkpt><trkpt lat="44.61048509074103" lon="9.314077630238177"><ele>527.0</ele><time>2026-04-18T15:54:24Z</time></trkpt><trkpt lat="44.61050097686914" lon="9.313834851316582"><ele>527.0</ele><time>2026-04-18T15:54:25Z</time></trkpt><trkpt lat="44.61050635982881" lon="9.31357848016598"><ele>527.0</ele><time>2026-04-18T15:54:26Z</time></trkpt><trkpt lat="44.61049400017849" lon="9.313349778245785"><ele>527.0</ele><time>2026-04-18T15:54:27Z</time></trkpt><trkpt lat="44.61045660012203" lon="9.313123817723277"><ele>527.0</ele><time>2026-04-18T15:54:28Z</time></trkpt><trkpt lat="44.61039901888271" lon="9.312869619980916"><ele>527.0</ele><time>2026-04-18T15:54:29Z</time></trkpt><trkpt lat="44.610328512156556" lon="9.31259833027093"><ele>521.6666666666666</ele><time>2026-04-18T15:54:30Z</time></trkpt><trkpt lat="44.6102463857228" lon="9.312369610716658"><ele>516.3333333333334</ele><time>2026-04-18T15:54:31Z</time></trkpt><trkpt lat="44.61017337062493" lon="9.312176246238076"><ele>511.0</ele><time>2026-04-18T15:54:32Z</time></trkpt><trkpt lat="44.61012949729686" lon="9.311977165313214"><ele>511.0</ele><time>2026-04-18T15:54:33Z</time></trkpt><trkpt lat="44.61011932930332" lon="9.3117999716328"><ele>511.0</ele><time>2026-04-18T15:54:34Z</time></trkpt><trkpt lat="44.610138748570456" lon="9.31163046310719"><ele>511.0</ele><time>2026-04-18T15:54:35Z</time></trkpt><trkpt lat="44.610205102398695" lon="9.311453810077532"><ele>511.0</ele><time>2026-04-18T15:54:36Z</time></trkpt><trkpt lat="44.61030197910425" lon="9.311291759262437"><ele>517.6666666666667</ele><time>2026-04-18T15:54:36.999Z</time></trkpt><trkpt lat="44.610435693189" lon="9.311080069212963"><ele>524.3333333333334</ele><time>2026-04-18T15:54:37.999Z</time></trkpt><trkpt lat="44.61056664232796" lon="9.310849437445537"><ele>531.0</ele><time>2026-04-18T15:54:38.999Z</time></trkpt><trkpt lat="44.61069757523918" lon="9.310643150968852"><ele>525.6666666666666</ele><time>2026-04-18T15:54:39.999Z</time></trkpt><trkpt lat="44.610817645943484" lon="9.310472048998239"><ele>520.3333333333333</ele><time>2026-04-18T15:54:40.999Z</time></trkpt><trkpt lat="44.61092210059976" lon="9.310313627353443"><ele>515.0</ele><time>2026-04-18T15:54:41.999Z</time></trkpt><trkpt lat="44.611010329037796" lon="9.31017156338915"><ele>515.0</ele><time>2026-04-18T15:54:42.999Z</time></trkpt><trkpt lat="44.61108939157324" lon="9.310041123378737"><ele>515.0</ele><time>2026-04-18T15:54:43.999Z</time></trkpt><trkpt lat="44.61114794671812" lon="9.309883854595338"><ele>515.0</ele><time>2026-04-18T15:54:44.999Z</time></trkpt><trkpt lat="44.61117233486367" lon="9.30967725289807"><ele>515.0</ele><time>2026-04-18T15:54:45.999Z</time></trkpt><trkpt lat="44.61118248628908" lon="9.309422069007242"><ele>519.0</ele><time>2026-04-18T15:54:46.999Z</time></trkpt><trkpt lat="44.61121328677283" lon="9.309184246874644"><ele>523.0</ele><time>2026-04-18T15:54:47.999Z</time></trkpt><trkpt lat="44.61125987034978" lon="9.30900034460142"><ele>527.0</ele><time>2026-04-18T15:54:48.999Z</time></trkpt><trkpt lat="44.61128967400351" lon="9.308874596637285"><ele>531.0</ele><time>2026-04-18T15:54:49.999Z</time></trkpt><trkpt lat="44.611272827361645" lon="9.308763509796785"><ele>531.0</ele><time>2026-04-18T15:54:50.999Z</time></trkpt><trkpt lat="44.61120818669863" lon="9.308644000732818"><ele>531.0</ele><time>2026-04-18T15:54:51.999Z</time></trkpt><trkpt lat="44.61110193003015" lon="9.308504415806977"><ele>531.0</ele><time>2026-04-18T15:54:52.999Z</time></trkpt><trkpt lat="44.61098814030286" lon="9.30831815135833"><ele>531.0</ele><time>2026-04-18T15:54:53.999Z</time></trkpt><trkpt lat="44.610886490735275" lon="9.308137022820322"><ele>529.0</ele><time>2026-04-18T15:54:54.999Z</time></trkpt><trkpt lat="44.61077636565463" lon="9.307960321842014"><ele>527.0</ele><time>2026-04-18T15:54:55.999Z</time></trkpt><trkpt lat="44.61068424400128" lon="9.307798693344639"><ele>525.0</ele><time>2026-04-18T15:54:56.999Z</time></trkpt><trkpt lat="44.61060993522099" lon="9.307650409242775"><ele>523.0</ele><time>2026-04-18T15:54:57.999Z</time></trkpt><trkpt lat="44.61060373443081" lon="9.307473213104842"><ele>523.0</ele><time>2026-04-18T15:54:58.999Z</time></trkpt><trkpt lat="44.61061446202255" lon="9.30728938400679"><ele>523.0</ele><time>2026-04-18T15:54:59.999Z</time></trkpt><trkpt lat="44.61060953675092" lon="9.307116733516802"><ele>523.0</ele><time>2026-04-18T15:55:00.999Z</time></trkpt><trkpt lat="44.610586349829426" lon="9.306977831478319"><ele>523.0</ele><time>2026-04-18T15:55:01.999Z</time></trkpt><trkpt lat="44.61050425596829" lon="9.30686171460612"><ele>526.0</ele><time>2026-04-18T15:55:02.999Z</time></trkpt><trkpt lat="44.61038185890097" lon="9.306774177236834"><ele>529.0</ele><time>2026-04-18T15:55:03.999Z</time></trkpt><trkpt lat="44.61023525435352" lon="9.306699516726122"><ele>532.0</ele><time>2026-04-18T15:55:04.999Z</time></trkpt><trkpt lat="44.61009249928884" lon="9.306640017256024"><ele>535.0</ele><time>2026-04-18T15:55:05.999Z</time></trkpt><trkpt lat="44.60995781500795" lon="9.30663899115385"><ele>535.0</ele><time>2026-04-18T15:55:06.999Z</time></trkpt><trkpt lat="44.60979169321549" lon="9.306686645496683"><ele>535.0</ele><time>2026-04-18T15:55:07.999Z</time></trkpt><trkpt lat="44.60960187293004" lon="9.306729364400677"><ele>535.0</ele><time>2026-04-18T15:55:08.999Z</time></trkpt><trkpt lat="44.609414231232165" lon="9.30676468374393"><ele>533.3333333333334</ele><time>2026-04-18T15:55:09.999Z</time></trkpt><trkpt lat="44.60922888265035" lon="9.306809059302472"><ele>531.6666666666666</ele><time>2026-04-18T15:55:10.999Z</time></trkpt><trkpt lat="44.60904527184638" lon="9.306872927219473"><ele>530.0</ele><time>2026-04-18T15:55:11.999Z</time></trkpt><trkpt lat="44.60888018130996" lon="9.306948528796713"><ele>530.0</ele><time>2026-04-18T15:55:12.999Z</time></trkpt><trkpt lat="44.60873773618096" lon="9.307006623205188"><ele>530.0</ele><time>2026-04-18T15:55:13.999Z</time></trkpt><trkpt lat="44.60860098389061" lon="9.307048741874732"><ele>530.0</ele><time>2026-04-18T15:55:14.999Z</time></trkpt><trkpt lat="44.608464408831026" lon="9.307030796300223"><ele>530.0</ele><time>2026-04-18T15:55:15.999Z</time></trkpt><trkpt lat="44.60829853224552" lon="9.306992958592494"><ele>529.3333333333333</ele><time>2026-04-18T15:55:16.999Z</time></trkpt><trkpt lat="44.60810589341175" lon="9.306974596409255"><ele>528.6666666666666</ele><time>2026-04-18T15:55:17.999Z</time></trkpt><trkpt lat="44.60791231303469" lon="9.306942211254661"><ele>528.0</ele><time>2026-04-18T15:55:18.999Z</time></trkpt><trkpt lat="44.60775249948083" lon="9.306952839104664"><ele>527.5</ele><time>2026-04-18T15:55:19.999Z</time></trkpt><trkpt lat="44.60760716461242" lon="9.306958903762496"><ele>527.0</ele><time>2026-04-18T15:55:20.999Z</time></trkpt><trkpt lat="44.60747799843395" lon="9.306937186310172"><ele>526.5</ele><time>2026-04-18T15:55:21.999Z</time></trkpt><trkpt lat="44.60736631465066" lon="9.306844752187086"><ele>526.0</ele><time>2026-04-18T15:55:22.999Z</time></trkpt><trkpt lat="44.607239237484855" lon="9.306712743511603"><ele>526.0</ele><time>2026-04-18T15:55:23.999Z</time></trkpt><trkpt lat="44.60709295487926" lon="9.306568744719412"><ele>526.0</ele><time>2026-04-18T15:55:24.999Z</time></trkpt><trkpt lat="44.60697900723109" lon="9.306419524331755"><ele>526.0</ele><time>2026-04-18T15:55:25.999Z</time></trkpt><trkpt lat="44.606894118481314" lon="9.3062623685463"><ele>526.3333333333334</ele><time>2026-04-18T15:55:26.999Z</time></trkpt><trkpt lat="44.606862160237455" lon="9.306050328959646"><ele>526.6666666666666</ele><time>2026-04-18T15:55:27.999Z</time></trkpt><trkpt lat="44.60680018331376" lon="9.305801235317547"><ele>527.0</ele><time>2026-04-18T15:55:28.999Z</time></trkpt><trkpt lat="44.6067505770307" lon="9.30553095774886"><ele>527.0</ele><time>2026-04-18T15:55:29.999Z</time></trkpt><trkpt lat="44.606725181348075" lon="9.305292035955624"><ele>527.0</ele><time>2026-04-18T15:55:30.999Z</time></trkpt><trkpt lat="44.60670442088559" lon="9.305079311265306"><ele>527.0</ele><time>2026-04-18T15:55:31.999Z</time></trkpt><trkpt lat="44.60668603334596" lon="9.30488876407387"><ele>525.0</ele><time>2026-04-18T15:55:32.999Z</time></trkpt><trkpt lat="44.60667555654475" lon="9.30471189614851"><ele>523.0</ele><time>2026-04-18T15:55:33.999Z</time></trkpt><trkpt lat="44.60670559413816" lon="9.304541511792848"><ele>521.0</ele><time>2026-04-18T15:55:35Z</time></trkpt><trkpt lat="44.60677708289679" lon="9.304375651121559"><ele>519.0</ele><time>2026-04-18T15:55:36Z</time></trkpt><trkpt lat="44.6068725428208" lon="9.304273309052869"><ele>522.5</ele><time>2026-04-18T15:55:37Z</time></trkpt><trkpt lat="44.607000460251776" lon="9.304294350971483"><ele>526.0</ele><time>2026-04-18T15:55:38Z</time></trkpt><trkpt lat="44.60713066923388" lon="9.30430546337741"><ele>529.5</ele><time>2026-04-18T15:55:39Z</time></trkpt><trkpt lat="44.60727377582288" lon="9.30427645391338"><ele>533.0</ele><time>2026-04-18T15:55:40Z</time></trkpt><trkpt lat="44.60742581037942" lon="9.304221903916819"><ele>533.0</ele><time>2026-04-18T15:55:41Z</time></trkpt><trkpt lat="44.607570083365864" lon="9.304125649349961"><ele>533.0</ele><time>2026-04-18T15:55:42Z</time></trkpt><trkpt lat="44.60770431471895" lon="9.304007117231684"><ele>533.0</ele><time>2026-04-18T15:55:43Z</time></trkpt><trkpt lat="44.60784351341241" lon="9.303872238031243"><ele>533.3333333333333</ele><time>2026-04-18T15:55:44Z</time></trkpt><trkpt lat="44.60798045709308" lon="9.303731442268136"><ele>533.6666666666666</ele><time>2026-04-18T15:55:45Z</time></trkpt><trkpt lat="44.60810436441819" lon="9.303586617250746"><ele>534.0</ele><time>2026-04-18T15:55:46Z</time></trkpt><trkpt lat="44.60821910981695" lon="9.303402380039891"><ele>534.0</ele><time>2026-04-18T15:55:47Z</time></trkpt><trkpt lat="44.60830696564555" lon="9.30318584036069"><ele>534.0</ele><time>2026-04-18T15:55:48Z</time></trkpt><trkpt lat="44.60839080238487" lon="9.30296213811201"><ele>534.0</ele><time>2026-04-18T15:55:49Z</time></trkpt><trkpt lat="44.608457804047035" lon="9.302769849234803"><ele>533.5</ele><time>2026-04-18T15:55:50Z</time></trkpt><trkpt lat="44.60851297895058" lon="9.302614421694567"><ele>533.0</ele><time>2026-04-18T15:55:51Z</time></trkpt><trkpt lat="44.6085249022292" lon="9.302451287459363"><ele>532.5</ele><time>2026-04-18T15:55:52Z</time></trkpt><trkpt lat="44.60848721965248" lon="9.30223908700643"><ele>532.0</ele><time>2026-04-18T15:55:53Z</time></trkpt><trkpt lat="44.60844560768859" lon="9.30196286457869"><ele>532.3333333333334</ele><time>2026-04-18T15:55:54Z</time></trkpt><trkpt lat="44.608424223490225" lon="9.301669136545565"><ele>532.6666666666666</ele><time>2026-04-18T15:55:55Z</time></trkpt><trkpt lat="44.60837075565681" lon="9.301372673503307"><ele>533.0</ele><time>2026-04-18T15:55:56Z</time></trkpt><trkpt lat="44.60834031390949" lon="9.301065595210348"><ele>533.0</ele><time>2026-04-18T15:55:57Z</time></trkpt><trkpt lat="44.608348993931976" lon="9.300747797673791"><ele>533.0</ele><time>2026-04-18T15:55:58Z</time></trkpt><trkpt lat="44.60834821361394" lon="9.300465714871489"><ele>533.0</ele><time>2026-04-18T15:55:59Z</time></trkpt><trkpt lat="44.6083291998866" lon="9.300202337716591"><ele>535.6666666666666</ele><time>2026-04-18T15:56:00Z</time></trkpt><trkpt lat="44.608305064384986" lon="9.299922836178075"><ele>538.3333333333334</ele><time>2026-04-18T15:56:01Z</time></trkpt><trkpt lat="44.608271572364835" lon="9.299634498644643"><ele>541.0</ele><time>2026-04-18T15:56:02Z</time></trkpt><trkpt lat="44.6082289011552" lon="9.299345119110315"><ele>543.0</ele><time>2026-04-18T15:56:03Z</time></trkpt><trkpt lat="44.60819035745744" lon="9.299084906492014"><ele>545.0</ele><time>2026-04-18T15:56:04Z</time></trkpt><trkpt lat="44.60815777900592" lon="9.298841076488264"><ele>547.0</ele><time>2026-04-18T15:56:05Z</time></trkpt><trkpt lat="44.60812412368376" lon="9.298619412807804"><ele>548.5</ele><time>2026-04-18T15:56:06Z</time></trkpt><trkpt lat="44.60810057073677" lon="9.298421947548926"><ele>550.0</ele><time>2026-04-18T15:56:07Z</time></trkpt><trkpt lat="44.6080681199198" lon="9.29825284033832"><ele>551.5</ele><time>2026-04-18T15:56:08Z</time></trkpt><trkpt lat="44.6079921586465" lon="9.298114412625331"><ele>553.0</ele><time>2026-04-18T15:56:09Z</time></trkpt><trkpt lat="44.60788118004786" lon="9.298011427647907"><ele>548.25</ele><time>2026-04-18T15:56:10Z</time></trkpt><trkpt lat="44.60774382380054" lon="9.297956007758534"><ele>543.5</ele><time>2026-04-18T15:56:11Z</time></trkpt><trkpt lat="44.60758598700464" lon="9.29790153129985"><ele>538.75</ele><time>2026-04-18T15:56:12Z</time></trkpt><trkpt lat="44.60747043260312" lon="9.297798457179988"><ele>534.0</ele><time>2026-04-18T15:56:13Z</time></trkpt><trkpt lat="44.607374075056015" lon="9.297666551688357"><ele>534.0</ele><time>2026-04-18T15:56:14Z</time></trkpt><trkpt lat="44.60727830302016" lon="9.297471190126277"><ele>534.0</ele><time>2026-04-18T15:56:15Z</time></trkpt><trkpt lat="44.607147619377805" lon="9.297250205652501"><ele>534.0</ele><time>2026-04-18T15:56:16Z</time></trkpt><trkpt lat="44.607043436108036" lon="9.29704548887633"><ele>531.3333333333334</ele><time>2026-04-18T15:56:17Z</time></trkpt><trkpt lat="44.60695565534569" lon="9.2968749313605"><ele>528.6666666666667</ele><time>2026-04-18T15:56:18Z</time></trkpt><trkpt lat="44.60688858412496" lon="9.296689454378328"><ele>526.0</ele><time>2026-04-18T15:56:19Z</time></trkpt><trkpt lat="44.60686800218014" lon="9.296477321456907"><ele>527.0</ele><time>2026-04-18T15:56:20Z</time></trkpt><trkpt lat="44.60684186770647" lon="9.29627746480571"><ele>528.0</ele><time>2026-04-18T15:56:21Z</time></trkpt><trkpt lat="44.60681103305092" lon="9.296099595660348"><ele>529.0</ele><time>2026-04-18T15:56:22Z</time></trkpt><trkpt lat="44.6067161327764" lon="9.295903295129891"><ele>530.0</ele><time>2026-04-18T15:56:23Z</time></trkpt><trkpt lat="44.60660265369572" lon="9.295674993224244"><ele>529.5</ele><time>2026-04-18T15:56:24Z</time></trkpt><trkpt lat="44.60646507299798" lon="9.295412120614344"><ele>529.0</ele><time>2026-04-18T15:56:25Z</time></trkpt><trkpt lat="44.60633643084111" lon="9.295158783742231"><ele>529.0</ele><time>2026-04-18T15:56:26Z</time></trkpt><trkpt lat="44.60621969506214" lon="9.294905437752575"><ele>529.0</ele><time>2026-04-18T15:56:27Z</time></trkpt><trkpt lat="44.60610100736737" lon="9.294677488750889"><ele>529.0</ele><time>2026-04-18T15:56:28Z</time></trkpt><trkpt lat="44.60598240426197" lon="9.294446505131026"><ele>527.3333333333334</ele><time>2026-04-18T15:56:29Z</time></trkpt><trkpt lat="44.6058679889369" lon="9.29421260619678"><ele>525.6666666666666</ele><time>2026-04-18T15:56:30Z</time></trkpt><trkpt lat="44.60576054996807" lon="9.293995093971006"><ele>524.0</ele><time>2026-04-18T15:56:31Z</time></trkpt><trkpt lat="44.605648452267445" lon="9.293759864941883"><ele>524.0</ele><time>2026-04-18T15:56:32Z</time></trkpt><trkpt lat="44.60553458220962" lon="9.293536140469442"><ele>524.0</ele><time>2026-04-18T15:56:33Z</time></trkpt><trkpt lat="44.60543502742736" lon="9.293331057304844"><ele>524.0</ele><time>2026-04-18T15:56:34Z</time></trkpt><trkpt lat="44.60536024896835" lon="9.293140770696306"><ele>524.25</ele><time>2026-04-18T15:56:35Z</time></trkpt><trkpt lat="44.60528344260431" lon="9.292983004252005"><ele>524.5</ele><time>2026-04-18T15:56:36Z</time></trkpt><trkpt lat="44.60521150777298" lon="9.292835244296906"><ele>524.75</ele><time>2026-04-18T15:56:37Z</time></trkpt><trkpt lat="44.60515007877859" lon="9.292709064285338"><ele>525.0</ele><time>2026-04-18T15:56:38Z</time></trkpt><trkpt lat="44.605074236759386" lon="9.292592533349033"><ele>525.0</ele><time>2026-04-18T15:56:39Z</time></trkpt><trkpt lat="44.605008940574436" lon="9.292454419816902"><ele>525.0</ele><time>2026-04-18T15:56:40Z</time></trkpt><trkpt lat="44.60493471785205" lon="9.292279684826783"><ele>525.0</ele><time>2026-04-18T15:56:41Z</time></trkpt><trkpt lat="44.60484902389005" lon="9.292097817486498"><ele>525.0</ele><time>2026-04-18T15:56:41.999Z</time></trkpt><trkpt lat="44.604753621601056" lon="9.291956437578163"><ele>525.0</ele><time>2026-04-18T15:56:42.999Z</time></trkpt><trkpt lat="44.604646455523884" lon="9.291847044126133"><ele>525.0</ele><time>2026-04-18T15:56:43.999Z</time></trkpt><trkpt lat="44.60451032622768" lon="9.291780613598046"><ele>525.0</ele><time>2026-04-18T15:56:44.999Z</time></trkpt><trkpt lat="44.604371289487894" lon="9.291706459623477"><ele>525.0</ele><time>2026-04-18T15:56:45.999Z</time></trkpt><trkpt lat="44.60422815703751" lon="9.291615438839004"><ele>525.0</ele><time>2026-04-18T15:56:46.999Z</time></trkpt><trkpt lat="44.60406917286862" lon="9.291537638075368"><ele>525.0</ele><time>2026-04-18T15:56:47.999Z</time></trkpt><trkpt lat="44.60389070419599" lon="9.291447693055812"><ele>525.0</ele><time>2026-04-18T15:56:48.999Z</time></trkpt><trkpt lat="44.60371209242838" lon="9.291381363025955"><ele>524.0</ele><time>2026-04-18T15:56:49.999Z</time></trkpt><trkpt lat="44.60354460826693" lon="9.291273008390538"><ele>523.0</ele><time>2026-04-18T15:56:50.999Z</time></trkpt><trkpt lat="44.60336889148589" lon="9.291184358764214"><ele>522.0</ele><time>2026-04-18T15:56:51.999Z</time></trkpt><trkpt lat="44.60318136522059" lon="9.291090061209392"><ele>522.0</ele><time>2026-04-18T15:56:52.999Z</time></trkpt><trkpt lat="44.60297406590604" lon="9.290986390357698"><ele>522.0</ele><time>2026-04-18T15:56:53.999Z</time></trkpt><trkpt lat="44.60275593202958" lon="9.290876492483404"><ele>525.0</ele><time>2026-04-18T15:56:54.999Z</time></trkpt><trkpt lat="44.60256659409236" lon="9.290781513708504"><ele>528.0</ele><time>2026-04-18T15:56:55.999Z</time></trkpt><trkpt lat="44.60238979719558" lon="9.290692685253383"><ele>531.0</ele><time>2026-04-18T15:56:56.999Z</time></trkpt><trkpt lat="44.602217670982064" lon="9.290604968839943"><ele>531.0</ele><time>2026-04-18T15:56:57.999Z</time></trkpt><trkpt lat="44.60204608571632" lon="9.29051752808988"><ele>531.0</ele><time>2026-04-18T15:56:58.999Z</time></trkpt><trkpt lat="44.601878807338146" lon="9.290455612578349"><ele>531.0</ele><time>2026-04-18T15:56:59.999Z</time></trkpt><trkpt lat="44.601711938388334" lon="9.290364793687528"><ele>531.0</ele><time>2026-04-18T15:57:00.999Z</time></trkpt><trkpt lat="44.60156397618943" lon="9.29030671404571"><ele>531.0</ele><time>2026-04-18T15:57:01.999Z</time></trkpt><trkpt lat="44.60141801854828" lon="9.290282887656355"><ele>531.0</ele><time>2026-04-18T15:57:02.999Z</time></trkpt><trkpt lat="44.60125015635415" lon="9.290290034726686"><ele>531.0</ele><time>2026-04-18T15:57:03.999Z</time></trkpt><trkpt lat="44.6010719866933" lon="9.290344739060336"><ele>531.0</ele><time>2026-04-18T15:57:04.999Z</time></trkpt><trkpt lat="44.60088272100492" lon="9.29042857018493"><ele>531.0</ele><time>2026-04-18T15:57:05.999Z</time></trkpt><trkpt lat="44.600714821558114" lon="9.290500021535893"><ele>531.0</ele><time>2026-04-18T15:57:06.999Z</time></trkpt><trkpt lat="44.60057503762107" lon="9.290563155766725"><ele>531.0</ele><time>2026-04-18T15:57:07.999Z</time></trkpt><trkpt lat="44.60044412620001" lon="9.290659563792326"><ele>531.0</ele><time>2026-04-18T15:57:08.999Z</time></trkpt><trkpt lat="44.60031680303111" lon="9.290804968261641"><ele>531.3333333333334</ele><time>2026-04-18T15:57:09.999Z</time></trkpt><trkpt lat="44.600202909118956" lon="9.290998354529467"><ele>531.6666666666667</ele><time>2026-04-18T15:57:10.999Z</time></trkpt><trkpt lat="44.60008247928633" lon="9.2912325071415"><ele>532.0</ele><time>2026-04-18T15:57:11.999Z</time></trkpt><trkpt lat="44.59995982527359" lon="9.291494936284593"><ele>536.0</ele><time>2026-04-18T15:57:12.999Z</time></trkpt><trkpt lat="44.599900556230175" lon="9.291605447956265"><ele>540.0</ele><time>2026-04-18T15:57:13.999Z</time></trkpt><trkpt lat="44.59979797120637" lon="9.29185826597605"><ele>544.0</ele><time>2026-04-18T15:57:14.999Z</time></trkpt><trkpt lat="44.599694249916645" lon="9.292131540117015"><ele>541.0</ele><time>2026-04-18T15:57:15.999Z</time></trkpt><trkpt lat="44.599604341354286" lon="9.292404200391267"><ele>538.0</ele><time>2026-04-18T15:57:16.999Z</time></trkpt><trkpt lat="44.599529435165394" lon="9.292627672515417"><ele>535.0</ele><time>2026-04-18T15:57:17.999Z</time></trkpt><trkpt lat="44.59943414900157" lon="9.292768752324532"><ele>535.0</ele><time>2026-04-18T15:57:18.999Z</time></trkpt><trkpt lat="44.59932788439229" lon="9.29286295177315"><ele>535.0</ele><time>2026-04-18T15:57:19.999Z</time></trkpt><trkpt lat="44.599201525822465" lon="9.292941922303259"><ele>535.0</ele><time>2026-04-18T15:57:20.999Z</time></trkpt><trkpt lat="44.599026839293586" lon="9.293041743597588"><ele>538.6666666666667</ele><time>2026-04-18T15:57:21.999Z</time></trkpt><trkpt lat="44.59882231068596" lon="9.293153594152322"><ele>542.3333333333334</ele><time>2026-04-18T15:57:22.999Z</time></trkpt><trkpt lat="44.598622214639114" lon="9.293268437057511"><ele>546.0</ele><time>2026-04-18T15:57:23.999Z</time></trkpt><trkpt lat="44.598414356391515" lon="9.293387733190755"><ele>546.0</ele><time>2026-04-18T15:57:24.999Z</time></trkpt><trkpt lat="44.59822347012939" lon="9.293499278507541"><ele>546.0</ele><time>2026-04-18T15:57:25.999Z</time></trkpt><trkpt lat="44.59806491489808" lon="9.293578705015868"><ele>546.0</ele><time>2026-04-18T15:57:26.999Z</time></trkpt><trkpt lat="44.597909627820485" lon="9.29361794230749"><ele>545.3333333333334</ele><time>2026-04-18T15:57:27.999Z</time></trkpt><trkpt lat="44.59775350154409" lon="9.293632400910981"><ele>544.6666666666667</ele><time>2026-04-18T15:57:28.999Z</time></trkpt><trkpt lat="44.597604656667144" lon="9.293609985101202"><ele>544.0</ele><time>2026-04-18T15:57:29.999Z</time></trkpt><trkpt lat="44.59746535337378" lon="9.29353417282626"><ele>544.0</ele><time>2026-04-18T15:57:30.999Z</time></trkpt><trkpt lat="44.59730003734386" lon="9.293422792214113"><ele>544.0</ele><time>2026-04-18T15:57:31.999Z</time></trkpt><trkpt lat="44.59709835245965" lon="9.293301927422126"><ele>544.0</ele><time>2026-04-18T15:57:32.999Z</time></trkpt><trkpt lat="44.59688063108936" lon="9.293181886565145"><ele>547.5</ele><time>2026-04-18T15:57:33.999Z</time></trkpt><trkpt lat="44.59666019265235" lon="9.293100116803116"><ele>551.0</ele><time>2026-04-18T15:57:34.999Z</time></trkpt><trkpt lat="44.59641686122847" lon="9.29303769981615"><ele>543.5</ele><time>2026-04-18T15:57:35.999Z</time></trkpt><trkpt lat="44.5961652784828" lon="9.292956311020609"><ele>536.0</ele><time>2026-04-18T15:57:36.999Z</time></trkpt><trkpt lat="44.5959087264171" lon="9.29288191913983"><ele>536.0</ele><time>2026-04-18T15:57:37.999Z</time></trkpt><trkpt lat="44.595679575221325" lon="9.292817661584927"><ele>536.0</ele><time>2026-04-18T15:57:38.999Z</time></trkpt><trkpt lat="44.595473443443694" lon="9.292754210280988"><ele>536.0</ele><time>2026-04-18T15:57:39.999Z</time></trkpt><trkpt lat="44.595286821181084" lon="9.292699475252695"><ele>540.75</ele><time>2026-04-18T15:57:41Z</time></trkpt><trkpt lat="44.595132671522386" lon="9.292648575232297"><ele>545.5</ele><time>2026-04-18T15:57:42Z</time></trkpt><trkpt lat="44.59504787809146" lon="9.292488644119082"><ele>550.25</ele><time>2026-04-18T15:57:43Z</time></trkpt><trkpt lat="44.59497155193334" lon="9.29240696467599"><ele>555.0</ele><time>2026-04-18T15:57:44Z</time></trkpt><trkpt lat="44.594865419470466" lon="9.292331982967548"><ele>554.75</ele><time>2026-04-18T15:57:45Z</time></trkpt><trkpt lat="44.5947200193815" lon="9.29224066731382"><ele>554.5</ele><time>2026-04-18T15:57:46Z</time></trkpt><trkpt lat="44.59461049757688" lon="9.292186757354406"><ele>554.25</ele><time>2026-04-18T15:57:47Z</time></trkpt><trkpt lat="44.59450941338137" lon="9.292170378552052"><ele>554.0</ele><time>2026-04-18T15:57:48Z</time></trkpt><trkpt lat="44.59436022581319" lon="9.292152764244559"><ele>554.0</ele><time>2026-04-18T15:57:49Z</time></trkpt><trkpt lat="44.594249134377286" lon="9.292006499769045"><ele>554.0</ele><time>2026-04-18T15:57:50Z</time></trkpt><trkpt lat="44.59415333778074" lon="9.291837121788975"><ele>554.0</ele><time>2026-04-18T15:57:51Z</time></trkpt><trkpt lat="44.5940861104904" lon="9.291660442616486"><ele>554.0</ele><time>2026-04-18T15:57:52Z</time></trkpt><trkpt lat="44.59403168622039" lon="9.291449155831938"><ele>549.0</ele><time>2026-04-18T15:57:53Z</time></trkpt><trkpt lat="44.59396319793982" lon="9.291188515734634"><ele>544.0</ele><time>2026-04-18T15:57:54Z</time></trkpt><trkpt lat="44.59388325512035" lon="9.290918394241022"><ele>539.0</ele><time>2026-04-18T15:57:55Z</time></trkpt><trkpt lat="44.59379531386973" lon="9.290682202033679"><ele>538.3333333333333</ele><time>2026-04-18T15:57:56Z</time></trkpt><trkpt lat="44.593690525943586" lon="9.290471248258303"><ele>537.6666666666666</ele><time>2026-04-18T15:57:57Z</time></trkpt><trkpt lat="44.593568526360265" lon="9.290249395268532"><ele>537.0</ele><time>2026-04-18T15:57:58Z</time></trkpt><trkpt lat="44.59342058045906" lon="9.29002276209118"><ele>540.3333333333334</ele><time>2026-04-18T15:57:59Z</time></trkpt><trkpt lat="44.593300862022645" lon="9.28977701974376"><ele>543.6666666666667</ele><time>2026-04-18T15:58:00Z</time></trkpt><trkpt lat="44.59319534785447" lon="9.28956133356728"><ele>547.0</ele><time>2026-04-18T15:58:01Z</time></trkpt><trkpt lat="44.59310250750914" lon="9.289359169747994"><ele>547.0</ele><time>2026-04-18T15:58:02Z</time></trkpt><trkpt lat="44.593014250644146" lon="9.289171952403452"><ele>547.0</ele><time>2026-04-18T15:58:03Z</time></trkpt><trkpt lat="44.59293762816602" lon="9.289011109948765"><ele>547.0</ele><time>2026-04-18T15:58:04Z</time></trkpt><trkpt lat="44.592863713428684" lon="9.288868769749508"><ele>547.0</ele><time>2026-04-18T15:58:05Z</time></trkpt><trkpt lat="44.592776859846886" lon="9.288745124913648"><ele>545.6666666666667</ele><time>2026-04-18T15:58:06Z</time></trkpt><trkpt lat="44.59265159822445" lon="9.288681081487706"><ele>544.3333333333334</ele><time>2026-04-18T15:58:07Z</time></trkpt><trkpt lat="44.5925113617394" lon="9.288616138527788"><ele>543.0</ele><time>2026-04-18T15:58:08Z</time></trkpt><trkpt lat="44.59233626236992" lon="9.288659756308004"><ele>543.0</ele><time>2026-04-18T15:58:09Z</time></trkpt><trkpt lat="44.59216977758973" lon="9.288719277429955"><ele>543.0</ele><time>2026-04-18T15:58:10Z</time></trkpt><trkpt lat="44.59199912099786" lon="9.28875541439213"><ele>543.0</ele><time>2026-04-18T15:58:11Z</time></trkpt><trkpt lat="44.591856810431096" lon="9.288772872950934"><ele>545.3333333333334</ele><time>2026-04-18T15:58:12Z</time></trkpt><trkpt lat="44.591723639240385" lon="9.288740810654327"><ele>547.6666666666667</ele><time>2026-04-18T15:58:13Z</time></trkpt><trkpt lat="44.59158449598139" lon="9.288664723228687"><ele>550.0</ele><time>2026-04-18T15:58:14Z</time></trkpt><trkpt lat="44.591418603446435" lon="9.288564716678515"><ele>550.0</ele><time>2026-04-18T15:58:15Z</time></trkpt><trkpt lat="44.591250181851386" lon="9.288471376202459"><ele>550.0</ele><time>2026-04-18T15:58:16Z</time></trkpt><trkpt lat="44.59111921688187" lon="9.288389084501068"><ele>550.0</ele><time>2026-04-18T15:58:17Z</time></trkpt><trkpt lat="44.591007634738" lon="9.288285707681633"><ele>551.0</ele><time>2026-04-18T15:58:18Z</time></trkpt><trkpt lat="44.590934445860285" lon="9.288133487607697"><ele>552.0</ele><time>2026-04-18T15:58:19Z</time></trkpt><trkpt lat="44.59085840532185" lon="9.287920627344116"><ele>553.0</ele><time>2026-04-18T15:58:20Z</time></trkpt><trkpt lat="44.59077065519344" lon="9.287665237812922"><ele>553.0</ele><time>2026-04-18T15:58:21Z</time></trkpt><trkpt lat="44.59069651255983" lon="9.287378958922037"><ele>553.0</ele><time>2026-04-18T15:58:22Z</time></trkpt><trkpt lat="44.59061779813967" lon="9.287107229208928"><ele>553.0</ele><time>2026-04-18T15:58:23Z</time></trkpt><trkpt lat="44.59054048249411" lon="9.286860649273939"><ele>551.0</ele><time>2026-04-18T15:58:24Z</time></trkpt><trkpt lat="44.59047207784323" lon="9.286646304207236"><ele>549.0</ele><time>2026-04-18T15:58:25Z</time></trkpt><trkpt lat="44.59040186113809" lon="9.286447389518157"><ele>547.0</ele><time>2026-04-18T15:58:26Z</time></trkpt><trkpt lat="44.59035230041969" lon="9.286269981684283"><ele>550.0</ele><time>2026-04-18T15:58:27Z</time></trkpt><trkpt lat="44.59028868185735" lon="9.286104082513635"><ele>553.0</ele><time>2026-04-18T15:58:28Z</time></trkpt><trkpt lat="44.5902223328535" lon="9.285946673319623"><ele>556.0</ele><time>2026-04-18T15:58:29Z</time></trkpt><trkpt lat="44.59011818248952" lon="9.285799565168091"><ele>559.0</ele><time>2026-04-18T15:58:30Z</time></trkpt><trkpt lat="44.58997717818307" lon="9.285674326674368"><ele>555.0</ele><time>2026-04-18T15:58:31Z</time></trkpt><trkpt lat="44.58983337914173" lon="9.285557008443032"><ele>551.0</ele><time>2026-04-18T15:58:32Z</time></trkpt><trkpt lat="44.58972664284636" lon="9.285404520071507"><ele>547.0</ele><time>2026-04-18T15:58:33Z</time></trkpt><trkpt lat="44.589657064851124" lon="9.285185906422807"><ele>547.0</ele><time>2026-04-18T15:58:34Z</time></trkpt><trkpt lat="44.589567146739526" lon="9.28494416843221"><ele>547.0</ele><time>2026-04-18T15:58:35Z</time></trkpt><trkpt lat="44.58947923860415" lon="9.284678214738749"><ele>547.0</ele><time>2026-04-18T15:58:36Z</time></trkpt><trkpt lat="44.58939083439357" lon="9.284449627193272"><ele>552.25</ele><time>2026-04-18T15:58:37Z</time></trkpt><trkpt lat="44.589294090272645" lon="9.284255882784347"><ele>557.5</ele><time>2026-04-18T15:58:38Z</time></trkpt><trkpt lat="44.5892466178581" lon="9.284070439829922"><ele>562.75</ele><time>2026-04-18T15:58:39Z</time></trkpt><trkpt lat="44.589244098441604" lon="9.283877081506422"><ele>568.0</ele><time>2026-04-18T15:58:40Z</time></trkpt><trkpt lat="44.58926574525661" lon="9.28366935728189"><ele>568.0</ele><time>2026-04-18T15:58:41Z</time></trkpt><trkpt lat="44.58929966981768" lon="9.283441583777398"><ele>568.0</ele><time>2026-04-18T15:58:42Z</time></trkpt><trkpt lat="44.589288528440214" lon="9.28322456643493"><ele>568.0</ele><time>2026-04-18T15:58:43Z</time></trkpt><trkpt lat="44.589250997526584" lon="9.28301286245991"><ele>565.3333333333334</ele><time>2026-04-18T15:58:44Z</time></trkpt><trkpt lat="44.58918756185057" lon="9.282784521273744"><ele>562.6666666666666</ele><time>2026-04-18T15:58:45Z</time></trkpt><trkpt lat="44.58911768201353" lon="9.282576054445023"><ele>560.0</ele><time>2026-04-18T15:58:45.999Z</time></trkpt><trkpt lat="44.58905393864387" lon="9.282393763538336"><ele>559.0</ele><time>2026-04-18T15:58:46.999Z</time></trkpt><trkpt lat="44.589000580644466" lon="9.28223923259615"><ele>558.0</ele><time>2026-04-18T15:58:47.999Z</time></trkpt><trkpt lat="44.58895203405432" lon="9.282116693905845"><ele>557.0</ele><time>2026-04-18T15:58:48.999Z</time></trkpt><trkpt lat="44.58890453066246" lon="9.282026654084792"><ele>556.0</ele><time>2026-04-18T15:58:49.999Z</time></trkpt><trkpt lat="44.588855849979566" lon="9.281959417997523"><ele>555.0</ele><time>2026-04-18T15:58:50.999Z</time></trkpt><trkpt lat="44.58881399316541" lon="9.281877431685777"><ele>554.0</ele><time>2026-04-18T15:58:51.999Z</time></trkpt><trkpt lat="44.58874514486565" lon="9.281831656809992"><ele>555.5</ele><time>2026-04-18T15:58:53.999Z</time></trkpt><trkpt lat="44.58861522868831" lon="9.281724790175035"><ele>557.0</ele><time>2026-04-18T16:02:07Z</time></trkpt><trkpt lat="44.588495387779275" lon="9.281717065162299"><ele>558.5</ele><time>2026-04-18T16:02:08Z</time></trkpt><trkpt lat="44.58838033921414" lon="9.281752270811975"><ele>560.0</ele><time>2026-04-18T16:02:09Z</time></trkpt><trkpt lat="44.588263499737" lon="9.281825346785189"><ele>560.0</ele><time>2026-04-18T16:02:10Z</time></trkpt><trkpt lat="44.588147738019586" lon="9.281902437945778"><ele>560.0</ele><time>2026-04-18T16:02:11Z</time></trkpt><trkpt lat="44.588032688734614" lon="9.28197464876498"><ele>560.0</ele><time>2026-04-18T16:02:12Z</time></trkpt><trkpt lat="44.587921218338785" lon="9.282039753123666"><ele>560.0</ele><time>2026-04-18T16:02:13Z</time></trkpt><trkpt lat="44.58783443723143" lon="9.282067633474265"><ele>560.0</ele><time>2026-04-18T16:02:14Z</time></trkpt><trkpt lat="44.587746139116696" lon="9.282054953347437"><ele>560.0</ele><time>2026-04-18T16:02:15Z</time></trkpt><trkpt lat="44.587641458995584" lon="9.282016656450063"><ele>560.0</ele><time>2026-04-18T16:02:16Z</time></trkpt><trkpt lat="44.587528704151374" lon="9.281937710237454"><ele>560.0</ele><time>2026-04-18T16:02:17Z</time></trkpt><trkpt lat="44.587382269790034" lon="9.281815342698607"><ele>560.0</ele><time>2026-04-18T16:02:18Z</time></trkpt><trkpt lat="44.58725518199975" lon="9.281697380287673"><ele>560.0</ele><time>2026-04-18T16:02:19Z</time></trkpt><trkpt lat="44.58714928516718" lon="9.281580583921919"><ele>560.0</ele><time>2026-04-18T16:02:20Z</time></trkpt><trkpt lat="44.58705052737573" lon="9.281453020633805"><ele>560.0</ele><time>2026-04-18T16:02:21Z</time></trkpt><trkpt lat="44.58694196505033" lon="9.28130831370769"><ele>560.6666666666666</ele><time>2026-04-18T16:02:22Z</time></trkpt><trkpt lat="44.586849802081424" lon="9.281158835834416"><ele>561.3333333333334</ele><time>2026-04-18T16:02:23Z</time></trkpt><trkpt lat="44.586765764610284" lon="9.28098195929465"><ele>562.0</ele><time>2026-04-18T16:02:24Z</time></trkpt><trkpt lat="44.58668850377951" lon="9.280782726447963"><ele>558.3333333333334</ele><time>2026-04-18T16:02:25Z</time></trkpt><trkpt lat="44.58661075910732" lon="9.280578446644196"><ele>554.6666666666666</ele><time>2026-04-18T16:02:26Z</time></trkpt><trkpt lat="44.58652852242405" lon="9.280359983149646"><ele>551.0</ele><time>2026-04-18T16:02:27Z</time></trkpt><trkpt lat="44.58643750800357" lon="9.280121335904262"><ele>551.0</ele><time>2026-04-18T16:02:28Z</time></trkpt><trkpt lat="44.58632507808196" lon="9.279876647468404"><ele>551.0</ele><time>2026-04-18T16:02:29Z</time></trkpt><trkpt lat="44.58623919169906" lon="9.279583650043318"><ele>551.0</ele><time>2026-04-18T16:02:30Z</time></trkpt><trkpt lat="44.58616751090054" lon="9.279314084132203"><ele>555.3333333333333</ele><time>2026-04-18T16:02:31Z</time></trkpt><trkpt lat="44.586108407033834" lon="9.279066710929818"><ele>559.6666666666666</ele><time>2026-04-18T16:02:32Z</time></trkpt><trkpt lat="44.5860397034312" lon="9.278820735182165"><ele>564.0</ele><time>2026-04-18T16:02:33Z</time></trkpt><trkpt lat="44.58594856608658" lon="9.27861218488304"><ele>564.0</ele><time>2026-04-18T16:02:34Z</time></trkpt><trkpt lat="44.58586471012255" lon="9.27840429136658"><ele>564.0</ele><time>2026-04-18T16:02:35Z</time></trkpt><trkpt lat="44.58571285848418" lon="9.278046162620049"><ele>562.0</ele><time>2026-04-18T16:02:36Z</time></trkpt><trkpt lat="44.58558652963899" lon="9.277800581537486"><ele>560.0</ele><time>2026-04-18T16:02:37Z</time></trkpt><trkpt lat="44.585475618917556" lon="9.277591059857848"><ele>558.0</ele><time>2026-04-18T16:02:38Z</time></trkpt><trkpt lat="44.58537978002931" lon="9.277401174237848"><ele>563.0</ele><time>2026-04-18T16:02:39Z</time></trkpt><trkpt lat="44.58530756049498" lon="9.277227764695843"><ele>568.0</ele><time>2026-04-18T16:02:40Z</time></trkpt><trkpt lat="44.58527198872252" lon="9.27703835632921"><ele>573.0</ele><time>2026-04-18T16:02:41Z</time></trkpt><trkpt lat="44.585256452029775" lon="9.2768033598435"><ele>573.0</ele><time>2026-04-18T16:02:42Z</time></trkpt><trkpt lat="44.585261204511355" lon="9.276522070201148"><ele>573.0</ele><time>2026-04-18T16:02:43Z</time></trkpt><trkpt lat="44.58525693864651" lon="9.276288408044524"><ele>573.0</ele><time>2026-04-18T16:02:44Z</time></trkpt><trkpt lat="44.58527366033567" lon="9.276088752127853"><ele>573.75</ele><time>2026-04-18T16:02:45Z</time></trkpt><trkpt lat="44.58526170909031" lon="9.275924027477584"><ele>574.5</ele><time>2026-04-18T16:02:46Z</time></trkpt><trkpt lat="44.585242313182746" lon="9.275746455404564"><ele>575.25</ele><time>2026-04-18T16:02:47Z</time></trkpt><trkpt lat="44.58520697624524" lon="9.275560280055698"><ele>576.0</ele><time>2026-04-18T16:02:48Z</time></trkpt><trkpt lat="44.58514511603484" lon="9.275360643784245"><ele>573.3333333333334</ele><time>2026-04-18T16:02:49Z</time></trkpt><trkpt lat="44.58506715386619" lon="9.27515645110218"><ele>570.6666666666667</ele><time>2026-04-18T16:02:50Z</time></trkpt><trkpt lat="44.58498483064634" lon="9.274949588310678"><ele>568.0</ele><time>2026-04-18T16:02:51Z</time></trkpt><trkpt lat="44.58490177546428" lon="9.274721622399971"><ele>566.6666666666667</ele><time>2026-04-18T16:02:52Z</time></trkpt><trkpt lat="44.58480459400229" lon="9.274512997419109"><ele>565.3333333333334</ele><time>2026-04-18T16:02:53Z</time></trkpt><trkpt lat="44.584733509051446" lon="9.274287728789483"><ele>564.0</ele><time>2026-04-18T16:02:54Z</time></trkpt><trkpt lat="44.5846472836985" lon="9.274055078770196"><ele>563.0</ele><time>2026-04-18T16:02:55Z</time></trkpt><trkpt lat="44.58456221376275" lon="9.273816920595072"><ele>562.0</ele><time>2026-04-18T16:02:56Z</time></trkpt><trkpt lat="44.58447016074695" lon="9.273598346760638"><ele>561.0</ele><time>2026-04-18T16:02:57Z</time></trkpt><trkpt lat="44.584364927431395" lon="9.273381262986824"><ele>563.6666666666666</ele><time>2026-04-18T16:02:57.999Z</time></trkpt><trkpt lat="44.58422151697482" lon="9.273173997797327"><ele>566.3333333333333</ele><time>2026-04-18T16:02:58.999Z</time></trkpt><trkpt lat="44.58409943339374" lon="9.272962817571372"><ele>569.0</ele><time>2026-04-18T16:02:59.999Z</time></trkpt><trkpt lat="44.583982932526965" lon="9.27276304374825"><ele>569.0</ele><time>2026-04-18T16:03:00.999Z</time></trkpt><trkpt lat="44.583880774853135" lon="9.272541653811802"><ele>569.0</ele><time>2026-04-18T16:03:01.999Z</time></trkpt><trkpt lat="44.58376758116825" lon="9.272346922246216"><ele>569.0</ele><time>2026-04-18T16:03:02.999Z</time></trkpt><trkpt lat="44.58366433068699" lon="9.272171318516914"><ele>569.75</ele><time>2026-04-18T16:03:03.999Z</time></trkpt><trkpt lat="44.58356851173192" lon="9.272017176677748"><ele>570.5</ele><time>2026-04-18T16:03:04.999Z</time></trkpt><trkpt lat="44.583469073365386" lon="9.271881701212921"><ele>571.25</ele><time>2026-04-18T16:03:05.999Z</time></trkpt><trkpt lat="44.583340239869706" lon="9.27176334423668"><ele>572.0</ele><time>2026-04-18T16:03:06.999Z</time></trkpt><trkpt lat="44.58318329167267" lon="9.271630022248072"><ele>572.0</ele><time>2026-04-18T16:03:07.999Z</time></trkpt><trkpt lat="44.583001491301886" lon="9.271498063968304"><ele>572.0</ele><time>2026-04-18T16:03:08.999Z</time></trkpt><trkpt lat="44.58277767384879" lon="9.271349889556728"><ele>570.0</ele><time>2026-04-18T16:03:09.999Z</time></trkpt><trkpt lat="44.58256310144178" lon="9.271196606803363"><ele>568.0</ele><time>2026-04-18T16:03:10.999Z</time></trkpt><trkpt lat="44.58233390588951" lon="9.27104376181126"><ele>568.0</ele><time>2026-04-18T16:03:11.999Z</time></trkpt><trkpt lat="44.58210635842473" lon="9.270878017491096"><ele>568.0</ele><time>2026-04-18T16:03:12.999Z</time></trkpt><trkpt lat="44.58189774705647" lon="9.270737869482645"><ele>567.6666666666667</ele><time>2026-04-18T16:03:13.999Z</time></trkpt><trkpt lat="44.58171012083624" lon="9.270614549167187"><ele>567.3333333333334</ele><time>2026-04-18T16:03:14.999Z</time></trkpt><trkpt lat="44.58152950079841" lon="9.270492238313064"><ele>567.0</ele><time>2026-04-18T16:03:15.999Z</time></trkpt><trkpt lat="44.58135493955941" lon="9.270376339062869"><ele>569.0</ele><time>2026-04-18T16:03:16.999Z</time></trkpt><trkpt lat="44.58118019638561" lon="9.270265480046245"><ele>571.0</ele><time>2026-04-18T16:03:17.999Z</time></trkpt><trkpt lat="44.58098187532696" lon="9.270198539668847"><ele>573.0</ele><time>2026-04-18T16:03:18.999Z</time></trkpt><trkpt lat="44.58076210472315" lon="9.27015854756163"><ele>573.0</ele><time>2026-04-18T16:03:19.999Z</time></trkpt><trkpt lat="44.58052215541237" lon="9.270124946559452"><ele>573.0</ele><time>2026-04-18T16:03:20.999Z</time></trkpt><trkpt lat="44.58028688627987" lon="9.270092106779797"><ele>574.5</ele><time>2026-04-18T16:03:21.999Z</time></trkpt><trkpt lat="44.58004086175983" lon="9.27005870512173"><ele>576.0</ele><time>2026-04-18T16:03:22.999Z</time></trkpt><trkpt lat="44.57979443511025" lon="9.270029312191816"><ele>576.0</ele><time>2026-04-18T16:03:23.999Z</time></trkpt><trkpt lat="44.57955691135017" lon="9.27001081231343"><ele>576.0</ele><time>2026-04-18T16:03:24.999Z</time></trkpt><trkpt lat="44.579345876224785" lon="9.269989904678521"><ele>576.0</ele><time>2026-04-18T16:03:25.999Z</time></trkpt><trkpt lat="44.57914332622104" lon="9.269970529106184"><ele>576.0</ele><time>2026-04-18T16:03:26.999Z</time></trkpt><trkpt lat="44.57897420246767" lon="9.269959991547099"><ele>576.0</ele><time>2026-04-18T16:03:27.999Z</time></trkpt><trkpt lat="44.57880262913443" lon="9.269982289811315"><ele>576.0</ele><time>2026-04-18T16:03:28.999Z</time></trkpt><trkpt lat="44.57861700706075" lon="9.270039279511597"><ele>575.6666666666666</ele><time>2026-04-18T16:03:29.999Z</time></trkpt><trkpt lat="44.57841615563403" lon="9.270113362574198"><ele>575.3333333333333</ele><time>2026-04-18T16:03:30.999Z</time></trkpt><trkpt lat="44.57821201972587" lon="9.270172948623253"><ele>575.0</ele><time>2026-04-18T16:03:31.999Z</time></trkpt><trkpt lat="44.57801801518637" lon="9.270229470691234"><ele>575.0</ele><time>2026-04-18T16:03:32.999Z</time></trkpt><trkpt lat="44.57781813258497" lon="9.270272057308771"><ele>575.0</ele><time>2026-04-18T16:03:33.999Z</time></trkpt><trkpt lat="44.57763501886558" lon="9.270283631858966"><ele>575.0</ele><time>2026-04-18T16:03:34.999Z</time></trkpt><trkpt lat="44.577469415206906" lon="9.27027065383028"><ele>575.0</ele><time>2026-04-18T16:03:35.999Z</time></trkpt><trkpt lat="44.57732192269745" lon="9.270248293756115"><ele>575.0</ele><time>2026-04-18T16:03:36.999Z</time></trkpt><trkpt lat="44.5771720527185" lon="9.270226148878217"><ele>575.0</ele><time>2026-04-18T16:03:37.999Z</time></trkpt><trkpt lat="44.57702592909934" lon="9.270200689669275"><ele>575.0</ele><time>2026-04-18T16:03:38.999Z</time></trkpt><trkpt lat="44.57689671426351" lon="9.27018561121214"><ele>575.6666666666666</ele><time>2026-04-18T16:03:39.999Z</time></trkpt><trkpt lat="44.57676400090537" lon="9.270205058605494"><ele>576.3333333333334</ele><time>2026-04-18T16:03:40.999Z</time></trkpt><trkpt lat="44.57660390222398" lon="9.270222683282686"><ele>577.0</ele><time>2026-04-18T16:03:41.999Z</time></trkpt><trkpt lat="44.57641811720952" lon="9.270247788875128"><ele>577.0</ele><time>2026-04-18T16:03:42.999Z</time></trkpt><trkpt lat="44.57625493646984" lon="9.270369770104077"><ele>577.0</ele><time>2026-04-18T16:03:43.999Z</time></trkpt><trkpt lat="44.57610968815002" lon="9.270419109503976"><ele>577.0</ele><time>2026-04-18T16:03:44.999Z</time></trkpt><trkpt lat="44.57597028152007" lon="9.270457144405759"><ele>577.5</ele><time>2026-04-18T16:03:45.999Z</time></trkpt><trkpt lat="44.57584619750815" lon="9.27048714423413"><ele>578.0</ele><time>2026-04-18T16:03:46.999Z</time></trkpt><trkpt lat="44.5757259614858" lon="9.27049422408951"><ele>578.5</ele><time>2026-04-18T16:03:47.999Z</time></trkpt><trkpt lat="44.575614539922256" lon="9.270538438395088"><ele>579.0</ele><time>2026-04-18T16:03:48.999Z</time></trkpt><trkpt lat="44.57552103084348" lon="9.27061599402048"><ele>579.4</ele><time>2026-04-18T16:03:49.999Z</time></trkpt><trkpt lat="44.575436666073294" lon="9.270709774593998"><ele>579.8</ele><time>2026-04-18T16:03:50.999Z</time></trkpt><trkpt lat="44.57536185649216" lon="9.27080939419508"><ele>580.2</ele><time>2026-04-18T16:03:51.999Z</time></trkpt><trkpt lat="44.57528708498362" lon="9.270909503556702"><ele>580.6</ele><time>2026-04-18T16:03:52.999Z</time></trkpt><trkpt lat="44.575213157110376" lon="9.271029573317907"><ele>581.0</ele><time>2026-04-18T16:03:53.999Z</time></trkpt><trkpt lat="44.57513291879082" lon="9.27117522391031"><ele>581.0</ele><time>2026-04-18T16:03:54.999Z</time></trkpt><trkpt lat="44.57504638470261" lon="9.27133687302527"><ele>581.0</ele><time>2026-04-18T16:03:55.999Z</time></trkpt><trkpt lat="44.574959382198536" lon="9.27149937981211"><ele>581.0</ele><time>2026-04-18T16:03:56.999Z</time></trkpt><trkpt lat="44.5748683441515" lon="9.271678819053898"><ele>581.0</ele><time>2026-04-18T16:03:57.999Z</time></trkpt><trkpt lat="44.574777351177396" lon="9.271886500207442"><ele>583.0</ele><time>2026-04-18T16:03:59Z</time></trkpt><trkpt lat="44.57470206138293" lon="9.272140418410753"><ele>585.0</ele><time>2026-04-18T16:04:00Z</time></trkpt><trkpt lat="44.574627161207864" lon="9.27240784849027"><ele>587.0</ele><time>2026-04-18T16:04:01Z</time></trkpt><trkpt lat="44.57454120942269" lon="9.272658842421388"><ele>587.0</ele><time>2026-04-18T16:04:02Z</time></trkpt><trkpt lat="44.574470196436465" lon="9.272881449784704"><ele>587.0</ele><time>2026-04-18T16:04:03Z</time></trkpt><trkpt lat="44.57438584368306" lon="9.273076662897964"><ele>587.0</ele><time>2026-04-18T16:04:04Z</time></trkpt><trkpt lat="44.574276423938514" lon="9.273234500225174"><ele>587.0</ele><time>2026-04-18T16:04:05Z</time></trkpt><trkpt lat="44.57412301493115" lon="9.273376536657361"><ele>587.0</ele><time>2026-04-18T16:04:06Z</time></trkpt><trkpt lat="44.573955880989764" lon="9.273537977496535"><ele>587.0</ele><time>2026-04-18T16:04:07Z</time></trkpt><trkpt lat="44.57378979407887" lon="9.273749749827912"><ele>586.0</ele><time>2026-04-18T16:04:08Z</time></trkpt><trkpt lat="44.57361795638701" lon="9.273956912455429"><ele>585.0</ele><time>2026-04-18T16:04:09Z</time></trkpt><trkpt lat="44.57343793282159" lon="9.274158591665445"><ele>585.0</ele><time>2026-04-18T16:04:10Z</time></trkpt><trkpt lat="44.57325423099226" lon="9.274376569740618"><ele>585.0</ele><time>2026-04-18T16:04:11Z</time></trkpt><trkpt lat="44.5730806837295" lon="9.274579261020328"><ele>585.0</ele><time>2026-04-18T16:04:12Z</time></trkpt><trkpt lat="44.572891519880834" lon="9.274758791147551"><ele>585.0</ele><time>2026-04-18T16:04:13Z</time></trkpt><trkpt lat="44.57268419603117" lon="9.27494083287002"><ele>585.6666666666666</ele><time>2026-04-18T16:04:14Z</time></trkpt><trkpt lat="44.572497496591154" lon="9.275093722533157"><ele>586.3333333333333</ele><time>2026-04-18T16:04:15Z</time></trkpt><trkpt lat="44.57232459266326" lon="9.275225933749066"><ele>587.0</ele><time>2026-04-18T16:04:16Z</time></trkpt><trkpt lat="44.57215019193974" lon="9.275335958481145"><ele>587.6666666666666</ele><time>2026-04-18T16:04:17Z</time></trkpt><trkpt lat="44.57198389726922" lon="9.275427306916542"><ele>588.3333333333334</ele><time>2026-04-18T16:04:18Z</time></trkpt><trkpt lat="44.57182753124372" lon="9.275530872892299"><ele>589.0</ele><time>2026-04-18T16:04:19Z</time></trkpt><trkpt lat="44.57167438195808" lon="9.275673942440653"><ele>589.0</ele><time>2026-04-18T16:04:20Z</time></trkpt><trkpt lat="44.571534450588935" lon="9.27582604803967"><ele>589.0</ele><time>2026-04-18T16:04:21Z</time></trkpt><trkpt lat="44.571422929073364" lon="9.275964001401722"><ele>589.0</ele><time>2026-04-18T16:04:22Z</time></trkpt><trkpt lat="44.57132790885303" lon="9.276081641462087"><ele>589.0</ele><time>2026-04-18T16:04:23Z</time></trkpt><trkpt lat="44.571225653740214" lon="9.276166027271424"><ele>589.0</ele><time>2026-04-18T16:04:24Z</time></trkpt><trkpt lat="44.571115872606654" lon="9.276180365951042"><ele>589.0</ele><time>2026-04-18T16:04:25Z</time></trkpt><trkpt lat="44.57099094800285" lon="9.276139630817095"><ele>589.0</ele><time>2026-04-18T16:04:26Z</time></trkpt><trkpt lat="44.570867806546815" lon="9.276022447042184"><ele>589.0</ele><time>2026-04-18T16:04:27Z</time></trkpt><trkpt lat="44.570717800520654" lon="9.275907908689208"><ele>589.0</ele><time>2026-04-18T16:04:28Z</time></trkpt><trkpt lat="44.57060069435121" lon="9.275810913487325"><ele>589.0</ele><time>2026-04-18T16:04:29Z</time></trkpt><trkpt lat="44.57046605275394" lon="9.275763616553913"><ele>589.0</ele><time>2026-04-18T16:04:30Z</time></trkpt><trkpt lat="44.570304384850495" lon="9.27575123246367"><ele>587.3333333333334</ele><time>2026-04-18T16:04:31Z</time></trkpt><trkpt lat="44.57012601719803" lon="9.275759840951466"><ele>585.6666666666666</ele><time>2026-04-18T16:04:32Z</time></trkpt><trkpt lat="44.569953204725934" lon="9.275782142763022"><ele>584.0</ele><time>2026-04-18T16:04:33Z</time></trkpt><trkpt lat="44.56979351963265" lon="9.275825609600798"><ele>584.0</ele><time>2026-04-18T16:04:34Z</time></trkpt><trkpt lat="44.56963778790425" lon="9.275908617631027"><ele>584.0</ele><time>2026-04-18T16:04:35Z</time></trkpt><trkpt lat="44.569481333977464" lon="9.276035727371681"><ele>584.0</ele><time>2026-04-18T16:04:36Z</time></trkpt><trkpt lat="44.56935355819281" lon="9.276192726791724"><ele>583.3333333333333</ele><time>2026-04-18T16:04:37Z</time></trkpt><trkpt lat="44.56926068933772" lon="9.276359360839276"><ele>582.6666666666666</ele><time>2026-04-18T16:04:38Z</time></trkpt><trkpt lat="44.569182674130374" lon="9.276558252161323"><ele>582.0</ele><time>2026-04-18T16:04:39Z</time></trkpt><trkpt lat="44.569125332010664" lon="9.276787827054903"><ele>582.0</ele><time>2026-04-18T16:04:40Z</time></trkpt><trkpt lat="44.569074201620055" lon="9.277020931321442"><ele>582.0</ele><time>2026-04-18T16:04:41Z</time></trkpt><trkpt lat="44.56899817541257" lon="9.277219380927704"><ele>582.0</ele><time>2026-04-18T16:04:42Z</time></trkpt><trkpt lat="44.568891223386196" lon="9.27737992735361"><ele>582.0</ele><time>2026-04-18T16:04:43Z</time></trkpt><trkpt lat="44.56874712271666" lon="9.277529736857213"><ele>582.0</ele><time>2026-04-18T16:04:44Z</time></trkpt><trkpt lat="44.56856572370203" lon="9.277682206838675"><ele>582.0</ele><time>2026-04-18T16:04:45Z</time></trkpt><trkpt lat="44.568373407990805" lon="9.277879706085265"><ele>582.0</ele><time>2026-04-18T16:04:46Z</time></trkpt><trkpt lat="44.568183353529676" lon="9.27809103921865"><ele>582.0</ele><time>2026-04-18T16:04:47Z</time></trkpt><trkpt lat="44.56799251737592" lon="9.278300204970403"><ele>583.3333333333334</ele><time>2026-04-18T16:04:48Z</time></trkpt><trkpt lat="44.56781507736869" lon="9.278493625819712"><ele>584.6666666666667</ele><time>2026-04-18T16:04:49Z</time></trkpt><trkpt lat="44.567623238678124" lon="9.278655015380469"><ele>586.0</ele><time>2026-04-18T16:04:50Z</time></trkpt><trkpt lat="44.567427682326816" lon="9.2788327071752"><ele>586.6666666666667</ele><time>2026-04-18T16:04:51Z</time></trkpt><trkpt lat="44.56722594229605" lon="9.278991172567176"><ele>587.3333333333334</ele><time>2026-04-18T16:04:52Z</time></trkpt><trkpt lat="44.56704564750057" lon="9.279126559099753"><ele>588.0</ele><time>2026-04-18T16:04:53Z</time></trkpt><trkpt lat="44.566870999311575" lon="9.279284752815752"><ele>588.0</ele><time>2026-04-18T16:04:54Z</time></trkpt><trkpt lat="44.56668744290511" lon="9.279411882312331"><ele>588.0</ele><time>2026-04-18T16:04:55Z</time></trkpt><trkpt lat="44.56653892870521" lon="9.279530445484188"><ele>588.0</ele><time>2026-04-18T16:04:56Z</time></trkpt><trkpt lat="44.56641572180431" lon="9.279639885458725"><ele>588.0</ele><time>2026-04-18T16:04:57Z</time></trkpt><trkpt lat="44.56629870647034" lon="9.279752634354416"><ele>588.0</ele><time>2026-04-18T16:04:58Z</time></trkpt><trkpt lat="44.56622440741025" lon="9.279908364259503"><ele>588.0</ele><time>2026-04-18T16:04:58.999Z</time></trkpt><trkpt lat="44.56615898574269" lon="9.2801262116201"><ele>588.0</ele><time>2026-04-18T16:04:59.999Z</time></trkpt><trkpt lat="44.566057366606515" lon="9.280349811748993"><ele>588.3333333333334</ele><time>2026-04-18T16:05:00.999Z</time></trkpt><trkpt lat="44.56596799645016" lon="9.28056898601846"><ele>588.6666666666667</ele><time>2026-04-18T16:05:01.999Z</time></trkpt><trkpt lat="44.565904589941894" lon="9.280756823879164"><ele>589.0</ele><time>2026-04-18T16:05:02.999Z</time></trkpt><trkpt lat="44.56583345981593" lon="9.28090966708876"><ele>590.0</ele><time>2026-04-18T16:05:03.999Z</time></trkpt><trkpt lat="44.56574523011884" lon="9.281003581114636"><ele>591.0</ele><time>2026-04-18T16:05:04.999Z</time></trkpt><trkpt lat="44.56565616221377" lon="9.281091603552044"><ele>592.0</ele><time>2026-04-18T16:05:05.999Z</time></trkpt><trkpt lat="44.56556505044133" lon="9.28115626734655"><ele>593.0</ele><time>2026-04-18T16:05:06.999Z</time></trkpt><trkpt lat="44.565479845144345" lon="9.281159039547882"><ele>594.0</ele><time>2026-04-18T16:05:07.999Z</time></trkpt><trkpt lat="44.56540775044892" lon="9.281097901657223"><ele>593.25</ele><time>2026-04-18T16:05:08.999Z</time></trkpt><trkpt lat="44.56531274792349" lon="9.28099587271373"><ele>592.5</ele><time>2026-04-18T16:05:09.999Z</time></trkpt><trkpt lat="44.565197834671785" lon="9.280890564089601"><ele>591.75</ele><time>2026-04-18T16:05:10.999Z</time></trkpt><trkpt lat="44.56509280866883" lon="9.280798768560269"><ele>591.0</ele><time>2026-04-18T16:05:11.999Z</time></trkpt><trkpt lat="44.56498531375186" lon="9.280729449543449"><ele>591.0</ele><time>2026-04-18T16:05:12.999Z</time></trkpt><trkpt lat="44.564880079340796" lon="9.280725025588596"><ele>591.0</ele><time>2026-04-18T16:05:13.999Z</time></trkpt><trkpt lat="44.56479610440631" lon="9.280778992873726"><ele>591.0</ele><time>2026-04-18T16:05:14.999Z</time></trkpt><trkpt lat="44.564704437125584" lon="9.280887751535595"><ele>591.0</ele><time>2026-04-18T16:05:15.999Z</time></trkpt><trkpt lat="44.564590930530905" lon="9.281041347799242"><ele>590.6666666666666</ele><time>2026-04-18T16:05:16.999Z</time></trkpt><trkpt lat="44.564457194300346" lon="9.281214964992563"><ele>590.3333333333333</ele><time>2026-04-18T16:05:17.999Z</time></trkpt><trkpt lat="44.564308937893976" lon="9.281407919894269"><ele>590.0</ele><time>2026-04-18T16:05:18.999Z</time></trkpt><trkpt lat="44.56414643617439" lon="9.281573043841872"><ele>590.0</ele><time>2026-04-18T16:05:19.999Z</time></trkpt><trkpt lat="44.56398529662948" lon="9.281730035081262"><ele>590.0</ele><time>2026-04-18T16:05:20.999Z</time></trkpt><trkpt lat="44.56380821695635" lon="9.28190390292054"><ele>590.0</ele><time>2026-04-18T16:05:21.999Z</time></trkpt><trkpt lat="44.56361764277357" lon="9.282085017135977"><ele>589.5</ele><time>2026-04-18T16:05:22.999Z</time></trkpt><trkpt lat="44.56342680916037" lon="9.282239158738777"><ele>589.0</ele><time>2026-04-18T16:05:23.999Z</time></trkpt><trkpt lat="44.56322916136185" lon="9.28242651942064"><ele>589.0</ele><time>2026-04-18T16:05:24.999Z</time></trkpt><trkpt lat="44.56302265443786" lon="9.282622278232017"><ele>589.0</ele><time>2026-04-18T16:05:25.999Z</time></trkpt><trkpt lat="44.56281296389219" lon="9.282821054750777"><ele>590.0</ele><time>2026-04-18T16:05:26.999Z</time></trkpt><trkpt lat="44.56261427476239" lon="9.283032588995914"><ele>591.0</ele><time>2026-04-18T16:05:27.999Z</time></trkpt><trkpt lat="44.562417414449634" lon="9.283193945783552"><ele>591.0</ele><time>2026-04-18T16:05:28.999Z</time></trkpt><trkpt lat="44.56220438083005" lon="9.283348893081097"><ele>591.0</ele><time>2026-04-18T16:05:29.999Z</time></trkpt><trkpt lat="44.562018585729916" lon="9.283471944943836"><ele>591.0</ele><time>2026-04-18T16:05:30.999Z</time></trkpt><trkpt lat="44.56183744142287" lon="9.283570729940964"><ele>599.0</ele><time>2026-04-18T16:05:31.999Z</time></trkpt><trkpt lat="44.56164266572144" lon="9.283642912198212"><ele>607.0</ele><time>2026-04-18T16:05:32.999Z</time></trkpt><trkpt lat="44.56143355360101" lon="9.283690993147232"><ele>615.0</ele><time>2026-04-18T16:05:33.999Z</time></trkpt><trkpt lat="44.561210330953905" lon="9.28372502404423"><ele>619.3333333333334</ele><time>2026-04-18T16:05:34.999Z</time></trkpt><trkpt lat="44.561004296399524" lon="9.283760088704723"><ele>623.6666666666667</ele><time>2026-04-18T16:05:35.999Z</time></trkpt><trkpt lat="44.56082623071044" lon="9.283778814440844"><ele>628.0</ele><time>2026-04-18T16:05:36.999Z</time></trkpt><trkpt lat="44.56065933474532" lon="9.28379842137278"><ele>628.0</ele><time>2026-04-18T16:05:37.999Z</time></trkpt><trkpt lat="44.56047383020924" lon="9.283809641657376"><ele>628.0</ele><time>2026-04-18T16:05:38.999Z</time></trkpt><trkpt lat="44.5602782276737" lon="9.283799445512784"><ele>628.0</ele><time>2026-04-18T16:05:39.999Z</time></trkpt><trkpt lat="44.56008875785669" lon="9.283789255020693"><ele>628.0</ele><time>2026-04-18T16:05:40.999Z</time></trkpt><trkpt lat="44.559919833845015" lon="9.283768709229564"><ele>628.0</ele><time>2026-04-18T16:05:41.999Z</time></trkpt><trkpt lat="44.55976964850654" lon="9.283755355918407"><ele>628.0</ele><time>2026-04-18T16:05:42.999Z</time></trkpt><trkpt lat="44.559647938274296" lon="9.28373847989219"><ele>628.0</ele><time>2026-04-18T16:05:43.999Z</time></trkpt><trkpt lat="44.55954119607753" lon="9.283699175314341"><ele>621.25</ele><time>2026-04-18T16:05:44.999Z</time></trkpt><trkpt lat="44.5594426145248" lon="9.283616077220001"><ele>614.5</ele><time>2026-04-18T16:05:45.999Z</time></trkpt><trkpt lat="44.55935082744442" lon="9.283490295063391"><ele>607.75</ele><time>2026-04-18T16:05:46.999Z</time></trkpt><trkpt lat="44.559298305575574" lon="9.28334263956358"><ele>601.0</ele><time>2026-04-18T16:05:47.999Z</time></trkpt><trkpt lat="44.55928545575413" lon="9.283174746747843"><ele>604.0</ele><time>2026-04-18T16:05:48.999Z</time></trkpt><trkpt lat="44.55929661866244" lon="9.28301787197919"><ele>607.0</ele><time>2026-04-18T16:05:49.999Z</time></trkpt><trkpt lat="44.559239991083835" lon="9.282886322587437"><ele>610.0</ele><time>2026-04-18T16:05:50.999Z</time></trkpt><trkpt lat="44.559227274299516" lon="9.282702008985193"><ele>613.0</ele><time>2026-04-18T16:05:51.999Z</time></trkpt><trkpt lat="44.55917590092468" lon="9.282525342913612"><ele>613.0</ele><time>2026-04-18T16:05:52.999Z</time></trkpt><trkpt lat="44.559119066324804" lon="9.282361752796447"><ele>613.0</ele><time>2026-04-18T16:05:53.999Z</time></trkpt><trkpt lat="44.55905272125178" lon="9.282223912267543"><ele>613.0</ele><time>2026-04-18T16:05:54.999Z</time></trkpt><trkpt lat="44.55896475976307" lon="9.282105139543962"><ele>613.0</ele><time>2026-04-18T16:05:55.999Z</time></trkpt><trkpt lat="44.558844304697764" lon="9.28199744215975"><ele>611.25</ele><time>2026-04-18T16:05:56.999Z</time></trkpt><trkpt lat="44.55870050618089" lon="9.281920119657746"><ele>609.5</ele><time>2026-04-18T16:05:57.999Z</time></trkpt><trkpt lat="44.55855094391327" lon="9.281889707542755"><ele>607.75</ele><time>2026-04-18T16:05:58.999Z</time></trkpt><trkpt lat="44.55841757299275" lon="9.281901249738288"><ele>606.0</ele><time>2026-04-18T16:05:59.999Z</time></trkpt><trkpt lat="44.558279687170526" lon="9.281954948741848"><ele>606.0</ele><time>2026-04-18T16:06:00.999Z</time></trkpt><trkpt lat="44.55812239804208" lon="9.282055076495473"><ele>606.0</ele><time>2026-04-18T16:06:01.999Z</time></trkpt><trkpt lat="44.557945877911905" lon="9.282169937376958"><ele>606.0</ele><time>2026-04-18T16:06:02.999Z</time></trkpt><trkpt lat="44.55777189767778" lon="9.282289983726528"><ele>604.25</ele><time>2026-04-18T16:06:03.999Z</time></trkpt><trkpt lat="44.557627210633036" lon="9.282393260133746"><ele>602.5</ele><time>2026-04-18T16:06:05Z</time></trkpt><trkpt lat="44.557511527393736" lon="9.282473865012621"><ele>600.75</ele><time>2026-04-18T16:06:06Z</time></trkpt><trkpt lat="44.55741604303305" lon="9.282542927860758"><ele>599.0</ele><time>2026-04-18T16:06:07Z</time></trkpt><trkpt lat="44.557320408773215" lon="9.282599104067723"><ele>599.0</ele><time>2026-04-18T16:06:08Z</time></trkpt><trkpt lat="44.55722663396536" lon="9.282654772562255"><ele>599.0</ele><time>2026-04-18T16:06:09Z</time></trkpt><trkpt lat="44.557118334884926" lon="9.282725001111165"><ele>599.0</ele><time>2026-04-18T16:06:10Z</time></trkpt><trkpt lat="44.55699319823271" lon="9.282808538758582"><ele>599.0</ele><time>2026-04-18T16:06:11Z</time></trkpt><trkpt lat="44.556843373743106" lon="9.282899629696914"><ele>599.3333333333333</ele><time>2026-04-18T16:06:12Z</time></trkpt><trkpt lat="44.556668112568985" lon="9.28301044772299"><ele>599.6666666666666</ele><time>2026-04-18T16:06:13Z</time></trkpt><trkpt lat="44.55646003050131" lon="9.283145828018286"><ele>600.0</ele><time>2026-04-18T16:06:14Z</time></trkpt><trkpt lat="44.5562965054325" lon="9.28326054920222"><ele>601.75</ele><time>2026-04-18T16:06:15Z</time></trkpt><trkpt lat="44.55614606026263" lon="9.283348366334968"><ele>603.5</ele><time>2026-04-18T16:06:16Z</time></trkpt><trkpt lat="44.556017646499654" lon="9.28342347824628"><ele>605.25</ele><time>2026-04-18T16:06:17Z</time></trkpt><trkpt lat="44.55590362471946" lon="9.283488282862782"><ele>607.0</ele><time>2026-04-18T16:06:18Z</time></trkpt><trkpt lat="44.555802222764605" lon="9.28353835146929"><ele>607.0</ele><time>2026-04-18T16:06:19Z</time></trkpt><trkpt lat="44.555697594971335" lon="9.283552760329894"><ele>607.0</ele><time>2026-04-18T16:06:20Z</time></trkpt><trkpt lat="44.55559201923676" lon="9.28350007882565"><ele>607.0</ele><time>2026-04-18T16:06:21Z</time></trkpt><trkpt lat="44.55548408734807" lon="9.28345131646596"><ele>607.0</ele><time>2026-04-18T16:06:22Z</time></trkpt><trkpt lat="44.55540868750403" lon="9.283317902382658"><ele>605.3333333333334</ele><time>2026-04-18T16:06:23Z</time></trkpt><trkpt lat="44.5553279295657" lon="9.283155277545484"><ele>603.6666666666666</ele><time>2026-04-18T16:06:24Z</time></trkpt><trkpt lat="44.55527242426382" lon="9.282936263833326"><ele>602.0</ele><time>2026-04-18T16:06:25Z</time></trkpt><trkpt lat="44.55520077952581" lon="9.282722817575952"><ele>602.0</ele><time>2026-04-18T16:06:26Z</time></trkpt><trkpt lat="44.55513508408076" lon="9.28250822503703"><ele>602.0</ele><time>2026-04-18T16:06:27Z</time></trkpt><trkpt lat="44.55503733906859" lon="9.282294376636832"><ele>602.0</ele><time>2026-04-18T16:06:28Z</time></trkpt><trkpt lat="44.554909798954746" lon="9.28209214339004"><ele>609.3333333333333</ele><time>2026-04-18T16:06:29Z</time></trkpt><trkpt lat="44.55477490476439" lon="9.281900764900398"><ele>616.6666666666666</ele><time>2026-04-18T16:06:30Z</time></trkpt><trkpt lat="44.554655948097015" lon="9.281741791615469"><ele>624.0</ele><time>2026-04-18T16:06:31Z</time></trkpt><trkpt lat="44.55454801746119" lon="9.281601464649235"><ele>624.6666666666666</ele><time>2026-04-18T16:06:32Z</time></trkpt><trkpt lat="44.55444823090235" lon="9.281431417107003"><ele>625.3333333333333</ele><time>2026-04-18T16:06:33Z</time></trkpt><trkpt lat="44.55436842512004" lon="9.281248799562261"><ele>626.0</ele><time>2026-04-18T16:06:34Z</time></trkpt><trkpt lat="44.55428038065901" lon="9.281074703998504"><ele>626.0</ele><time>2026-04-18T16:06:35Z</time></trkpt><trkpt lat="44.55417410225005" lon="9.280899454685331"><ele>626.0</ele><time>2026-04-18T16:06:36Z</time></trkpt><trkpt lat="44.55398166077106" lon="9.280834259937553"><ele>626.0</ele><time>2026-04-18T16:06:37Z</time></trkpt><trkpt lat="44.55377812242457" lon="9.28072668697961"><ele>623.6666666666666</ele><time>2026-04-18T16:06:38Z</time></trkpt><trkpt lat="44.55357224021776" lon="9.280611780944175"><ele>621.3333333333334</ele><time>2026-04-18T16:06:39Z</time></trkpt><trkpt lat="44.553395181440656" lon="9.280507152726221"><ele>619.0</ele><time>2026-04-18T16:06:40Z</time></trkpt><trkpt lat="44.55322528436025" lon="9.280400451588166"><ele>619.0</ele><time>2026-04-18T16:06:41Z</time></trkpt><trkpt lat="44.55304358837468" lon="9.280289758117124"><ele>619.0</ele><time>2026-04-18T16:06:42Z</time></trkpt><trkpt lat="44.55285542581978" lon="9.280171264118264"><ele>619.0</ele><time>2026-04-18T16:06:43Z</time></trkpt><trkpt lat="44.55267397865519" lon="9.280035182157333"><ele>619.0</ele><time>2026-04-18T16:06:44Z</time></trkpt><trkpt lat="44.55249975846474" lon="9.279885031305414"><ele>619.0</ele><time>2026-04-18T16:06:45Z</time></trkpt><trkpt lat="44.552351535545576" lon="9.279748711028791"><ele>619.0</ele><time>2026-04-18T16:06:46Z</time></trkpt><trkpt lat="44.55220957363899" lon="9.279646537303654"><ele>619.0</ele><time>2026-04-18T16:06:47Z</time></trkpt><trkpt lat="44.55206793069894" lon="9.279540211565353"><ele>619.0</ele><time>2026-04-18T16:06:48Z</time></trkpt><trkpt lat="44.551914028666374" lon="9.279418631494881"><ele>619.0</ele><time>2026-04-18T16:06:49Z</time></trkpt><trkpt lat="44.5517641932782" lon="9.279300217183023"><ele>618.0</ele><time>2026-04-18T16:06:50Z</time></trkpt><trkpt lat="44.55164043749743" lon="9.279187369657867"><ele>617.0</ele><time>2026-04-18T16:06:51Z</time></trkpt><trkpt lat="44.55153692908041" lon="9.279059428263649"><ele>616.0</ele><time>2026-04-18T16:06:52Z</time></trkpt><trkpt lat="44.55144864232847" lon="9.278889742481372"><ele>615.0</ele><time>2026-04-18T16:06:53Z</time></trkpt><trkpt lat="44.551413238681" lon="9.27868457843703"><ele>615.0</ele><time>2026-04-18T16:06:54Z</time></trkpt><trkpt lat="44.55138637064148" lon="9.27848081032596"><ele>615.0</ele><time>2026-04-18T16:06:55Z</time></trkpt><trkpt lat="44.55141861019892" lon="9.278240425888027"><ele>615.0</ele><time>2026-04-18T16:06:56Z</time></trkpt><trkpt lat="44.55142525440568" lon="9.277962565509757"><ele>617.0</ele><time>2026-04-18T16:06:57Z</time></trkpt><trkpt lat="44.5514540132291" lon="9.277679766890987"><ele>619.0</ele><time>2026-04-18T16:06:58Z</time></trkpt><trkpt lat="44.55147234499576" lon="9.277397789557206"><ele>621.0</ele><time>2026-04-18T16:06:59Z</time></trkpt><trkpt lat="44.55149541774721" lon="9.277138239292865"><ele>621.0</ele><time>2026-04-18T16:07:00Z</time></trkpt><trkpt lat="44.55153936383244" lon="9.276874219962087"><ele>621.0</ele><time>2026-04-18T16:07:01Z</time></trkpt><trkpt lat="44.55160302308538" lon="9.276601588061508"><ele>621.0</ele><time>2026-04-18T16:07:02Z</time></trkpt><trkpt lat="44.55167519089907" lon="9.276321214398672"><ele>619.6666666666666</ele><time>2026-04-18T16:07:03Z</time></trkpt><trkpt lat="44.551744582282" lon="9.276041795800001"><ele>618.3333333333333</ele><time>2026-04-18T16:07:04Z</time></trkpt><trkpt lat="44.551796584572024" lon="9.27579337586133"><ele>617.0</ele><time>2026-04-18T16:07:05Z</time></trkpt><trkpt lat="44.55184329678401" lon="9.275584025182113"><ele>617.0</ele><time>2026-04-18T16:07:06Z</time></trkpt><trkpt lat="44.5518849539778" lon="9.275402886447177"><ele>617.0</ele><time>2026-04-18T16:07:07Z</time></trkpt><trkpt lat="44.55191529703337" lon="9.275255737203752"><ele>617.0</ele><time>2026-04-18T16:07:07.999Z</time></trkpt><trkpt lat="44.55191277636492" lon="9.275111103515842"><ele>617.0</ele><time>2026-04-18T16:07:08.999Z</time></trkpt><trkpt lat="44.551858235643344" lon="9.274970376745856"><ele>617.0</ele><time>2026-04-18T16:07:09.999Z</time></trkpt><trkpt lat="44.551779754543276" lon="9.274802618280786"><ele>617.0</ele><time>2026-04-18T16:07:10.999Z</time></trkpt><trkpt lat="44.55166164269384" lon="9.274668297651175"><ele>617.0</ele><time>2026-04-18T16:07:11.999Z</time></trkpt><trkpt lat="44.55155124907788" lon="9.274527986007554"><ele>617.0</ele><time>2026-04-18T16:07:12.999Z</time></trkpt><trkpt lat="44.55148307265567" lon="9.274369983025128"><ele>620.5</ele><time>2026-04-18T16:07:13.999Z</time></trkpt><trkpt lat="44.55144692945858" lon="9.274193271909619"><ele>624.0</ele><time>2026-04-18T16:07:14.999Z</time></trkpt><trkpt lat="44.55142997814436" lon="9.273989777153037"><ele>627.5</ele><time>2026-04-18T16:07:15.999Z</time></trkpt><trkpt lat="44.551382277722205" lon="9.2737705646823"><ele>631.0</ele><time>2026-04-18T16:07:16.999Z</time></trkpt><trkpt lat="44.55129536478844" lon="9.273550187472296"><ele>633.0</ele><time>2026-04-18T16:07:17.999Z</time></trkpt><trkpt lat="44.55117271402428" lon="9.273308409150633"><ele>635.0</ele><time>2026-04-18T16:07:18.999Z</time></trkpt><trkpt lat="44.55103258615732" lon="9.273071947582856"><ele>637.0</ele><time>2026-04-18T16:07:19.999Z</time></trkpt><trkpt lat="44.55088651746216" lon="9.272843843251568"><ele>637.0</ele><time>2026-04-18T16:07:20.999Z</time></trkpt><trkpt lat="44.55076292750847" lon="9.272631040895824"><ele>637.0</ele><time>2026-04-18T16:07:21.999Z</time></trkpt><trkpt lat="44.55065831738125" lon="9.272437716623882"><ele>637.0</ele><time>2026-04-18T16:07:22.999Z</time></trkpt><trkpt lat="44.55055211359411" lon="9.27226594002541"><ele>636.3333333333334</ele><time>2026-04-18T16:07:23.999Z</time></trkpt><trkpt lat="44.550431020560644" lon="9.272126995706705"><ele>635.6666666666666</ele><time>2026-04-18T16:07:24.999Z</time></trkpt><trkpt lat="44.55027082841905" lon="9.271995064685346"><ele>635.0</ele><time>2026-04-18T16:07:25.999Z</time></trkpt><trkpt lat="44.55007529121543" lon="9.271866785099501"><ele>635.0</ele><time>2026-04-18T16:07:26.999Z</time></trkpt><trkpt lat="44.54986170210321" lon="9.271722048429496"><ele>635.0</ele><time>2026-04-18T16:07:27.999Z</time></trkpt><trkpt lat="44.54965997072937" lon="9.27157070270217"><ele>634.5</ele><time>2026-04-18T16:07:28.999Z</time></trkpt><trkpt lat="44.54944556030663" lon="9.271419136864978"><ele>634.0</ele><time>2026-04-18T16:07:29.999Z</time></trkpt><trkpt lat="44.54922521514423" lon="9.271272788302271"><ele>634.0</ele><time>2026-04-18T16:07:30.999Z</time></trkpt><trkpt lat="44.54899454639462" lon="9.271151300706737"><ele>634.0</ele><time>2026-04-18T16:07:31.999Z</time></trkpt><trkpt lat="44.54877164030256" lon="9.271050202742858"><ele>628.3333333333334</ele><time>2026-04-18T16:07:32.999Z</time></trkpt><trkpt lat="44.54856699124025" lon="9.270965232735685"><ele>622.6666666666666</ele><time>2026-04-18T16:07:33.999Z</time></trkpt><trkpt lat="44.54837879453565" lon="9.270876749440198"><ele>617.0</ele><time>2026-04-18T16:07:34.999Z</time></trkpt><trkpt lat="44.54821209620833" lon="9.270785256353106"><ele>617.0</ele><time>2026-04-18T16:07:35.999Z</time></trkpt><trkpt lat="44.54805857628627" lon="9.270675900330309"><ele>617.0</ele><time>2026-04-18T16:07:36.999Z</time></trkpt><trkpt lat="44.54791815839381" lon="9.270570076110978"><ele>617.0</ele><time>2026-04-18T16:07:37.999Z</time></trkpt><trkpt lat="44.54777952035999" lon="9.270441850807497"><ele>616.3333333333333</ele><time>2026-04-18T16:07:38.999Z</time></trkpt><trkpt lat="44.54765568031323" lon="9.270270420027884"><ele>615.6666666666666</ele><time>2026-04-18T16:07:39.999Z</time></trkpt><trkpt lat="44.547537572739" lon="9.270053869558264"><ele>615.0</ele><time>2026-04-18T16:07:40.999Z</time></trkpt><trkpt lat="44.54743010918314" lon="9.269814540323598"><ele>618.6666666666666</ele><time>2026-04-18T16:07:41.999Z</time></trkpt><trkpt lat="44.54735444328766" lon="9.269573974893934"><ele>622.3333333333333</ele><time>2026-04-18T16:07:42.999Z</time></trkpt><trkpt lat="44.54728385241958" lon="9.269327406045774"><ele>626.0</ele><time>2026-04-18T16:07:43.999Z</time></trkpt><trkpt lat="44.547218462802604" lon="9.269104144842705"><ele>624.5</ele><time>2026-04-18T16:07:44.999Z</time></trkpt><trkpt lat="44.547150232975255" lon="9.268914359059325"><ele>623.0</ele><time>2026-04-18T16:07:45.999Z</time></trkpt><trkpt lat="44.54708033973088" lon="9.26873800274764"><ele>621.5</ele><time>2026-04-18T16:07:46.999Z</time></trkpt><trkpt lat="44.54698572708405" lon="9.268571025053884"><ele>620.0</ele><time>2026-04-18T16:07:47.999Z</time></trkpt><trkpt lat="44.54685783422352" lon="9.268404937883297"><ele>620.0</ele><time>2026-04-18T16:07:48.999Z</time></trkpt><trkpt lat="44.54670032823827" lon="9.268229303804846"><ele>620.0</ele><time>2026-04-18T16:07:49.999Z</time></trkpt><trkpt lat="44.54653009768776" lon="9.268028872487607"><ele>620.0</ele><time>2026-04-18T16:07:50.999Z</time></trkpt><trkpt lat="44.54635771491173" lon="9.267813132222363"><ele>618.0</ele><time>2026-04-18T16:07:51.999Z</time></trkpt><trkpt lat="44.54621064594885" lon="9.267622229784363"><ele>616.0</ele><time>2026-04-18T16:07:52.999Z</time></trkpt><trkpt lat="44.54608733473662" lon="9.26746720764045"><ele>614.0</ele><time>2026-04-18T16:07:53.999Z</time></trkpt><trkpt lat="44.54598482646063" lon="9.26732932186625"><ele>616.0</ele><time>2026-04-18T16:07:54.999Z</time></trkpt><trkpt lat="44.54591196689051" lon="9.267167040378641"><ele>618.0</ele><time>2026-04-18T16:07:55.999Z</time></trkpt><trkpt lat="44.54587103807029" lon="9.266973802175906"><ele>620.0</ele><time>2026-04-18T16:07:56.999Z</time></trkpt><trkpt lat="44.54584684213322" lon="9.266721148872069"><ele>620.0</ele><time>2026-04-18T16:07:57.999Z</time></trkpt><trkpt lat="44.54583230436715" lon="9.266468444038951"><ele>620.0</ele><time>2026-04-18T16:07:58.999Z</time></trkpt><trkpt lat="44.545805392451086" lon="9.266213251889619"><ele>620.0</ele><time>2026-04-18T16:07:59.999Z</time></trkpt><trkpt lat="44.54575399651851" lon="9.265941632461612"><ele>623.0</ele><time>2026-04-18T16:08:00.999Z</time></trkpt><trkpt lat="44.54567653085685" lon="9.265647182157949"><ele>626.0</ele><time>2026-04-18T16:08:01.999Z</time></trkpt><trkpt lat="44.54559552591476" lon="9.265329202752904"><ele>624.3333333333333</ele><time>2026-04-18T16:08:02.999Z</time></trkpt><trkpt lat="44.54552256857532" lon="9.265042039298736"><ele>622.6666666666666</ele><time>2026-04-18T16:08:03.999Z</time></trkpt><trkpt lat="44.54545811572264" lon="9.264773345416298"><ele>621.0</ele><time>2026-04-18T16:08:04.999Z</time></trkpt><trkpt lat="44.545372009936564" lon="9.264494142497453"><ele>621.0</ele><time>2026-04-18T16:08:05.999Z</time></trkpt><trkpt lat="44.545286472753304" lon="9.26418830720611"><ele>621.0</ele><time>2026-04-18T16:08:06.999Z</time></trkpt><trkpt lat="44.54518416237955" lon="9.263896165431825"><ele>625.3333333333334</ele><time>2026-04-18T16:08:07.999Z</time></trkpt><trkpt lat="44.545095846793856" lon="9.2636379292357"><ele>629.6666666666667</ele><time>2026-04-18T16:08:08.999Z</time></trkpt><trkpt lat="44.545010580946226" lon="9.263388034595154"><ele>634.0</ele><time>2026-04-18T16:08:09.999Z</time></trkpt><trkpt lat="44.544915968934674" lon="9.263111545380562"><ele>639.0</ele><time>2026-04-18T16:08:11Z</time></trkpt><trkpt lat="44.544835231713265" lon="9.262878218640395"><ele>644.0</ele><time>2026-04-18T16:08:12Z</time></trkpt><trkpt lat="44.54475981503578" lon="9.26266034242012"><ele>649.0</ele><time>2026-04-18T16:08:13Z</time></trkpt><trkpt lat="44.544688664040095" lon="9.26245427259835"><ele>649.0</ele><time>2026-04-18T16:08:14Z</time></trkpt><trkpt lat="44.54461093286553" lon="9.262273362327885"><ele>649.0</ele><time>2026-04-18T16:08:15Z</time></trkpt><trkpt lat="44.544570441922104" lon="9.262155953013096"><ele>649.0</ele><time>2026-04-18T16:08:16Z</time></trkpt><trkpt lat="44.54454009150241" lon="9.262043194052312"><ele>649.0</ele><time>2026-04-18T16:08:17Z</time></trkpt><trkpt lat="44.54452185706081" lon="9.261941556094092"><ele>649.0</ele><time>2026-04-18T16:08:18Z</time></trkpt><trkpt lat="44.54449113388717" lon="9.261832382511255"><ele>644.0</ele><time>2026-04-18T16:08:19Z</time></trkpt><trkpt lat="44.544467818346895" lon="9.261733846856476"><ele>639.0</ele><time>2026-04-18T16:08:20Z</time></trkpt><trkpt lat="44.54444982821152" lon="9.26162496273082"><ele>634.0</ele><time>2026-04-18T16:08:22Z</time></trkpt><trkpt lat="44.544434316629825" lon="9.261509655986938"><ele>629.0</ele><time>2026-04-18T16:09:02Z</time></trkpt><trkpt lat="44.54439636644412" lon="9.261325021024582"><ele>624.0</ele><time>2026-04-18T16:09:04Z</time></trkpt><trkpt lat="44.544375272147676" lon="9.261221369560136"><ele>624.0</ele><time>2026-04-18T16:09:05Z</time></trkpt><trkpt lat="44.54435012860677" lon="9.261099280597618"><ele>624.0</ele><time>2026-04-18T16:09:06Z</time></trkpt><trkpt lat="44.544320402143775" lon="9.260965203521625"><ele>624.0</ele><time>2026-04-18T16:09:07Z</time></trkpt><trkpt lat="44.54427634374877" lon="9.260855996421903"><ele>624.0</ele><time>2026-04-18T16:09:08Z</time></trkpt><trkpt lat="44.54424549257063" lon="9.260727169537708"><ele>624.0</ele><time>2026-04-18T16:09:09Z</time></trkpt><trkpt lat="44.54421187712492" lon="9.260581040035376"><ele>625.6</ele><time>2026-04-18T16:09:10Z</time></trkpt><trkpt lat="44.54415761348159" lon="9.260481726792534"><ele>627.2</ele><time>2026-04-18T16:09:11Z</time></trkpt><trkpt lat="44.54407461298126" lon="9.26044306910429"><ele>628.8000000000001</ele><time>2026-04-18T16:09:12Z</time></trkpt><trkpt lat="44.543980227740136" lon="9.260405712218297"><ele>630.4</ele><time>2026-04-18T16:09:13Z</time></trkpt><trkpt lat="44.54386998877426" lon="9.260337012161855"><ele>632.0</ele><time>2026-04-18T16:09:13.999Z</time></trkpt><trkpt lat="44.54375306713777" lon="9.260287792207011"><ele>629.5</ele><time>2026-04-18T16:09:14.999Z</time></trkpt><trkpt lat="44.54362891375349" lon="9.26023552798177"><ele>627.0</ele><time>2026-04-18T16:09:15.999Z</time></trkpt><trkpt lat="44.54350206993968" lon="9.260182967210397"><ele>624.5</ele><time>2026-04-18T16:09:16.999Z</time></trkpt><trkpt lat="44.543366376852624" lon="9.26012799041519"><ele>622.0</ele><time>2026-04-18T16:09:17.999Z</time></trkpt><trkpt lat="44.54321767536561" lon="9.260090665656787"><ele>622.0</ele><time>2026-04-18T16:09:18.999Z</time></trkpt><trkpt lat="44.54306918948578" lon="9.260003508906925"><ele>622.0</ele><time>2026-04-18T16:09:19.999Z</time></trkpt><trkpt lat="44.54289670633834" lon="9.259928807620145"><ele>622.0</ele><time>2026-04-18T16:09:20.999Z</time></trkpt><trkpt lat="44.54273869616664" lon="9.25986037960654"><ele>622.5</ele><time>2026-04-18T16:09:21.999Z</time></trkpt><trkpt lat="44.542604236362536" lon="9.259804902516954"><ele>623.0</ele><time>2026-04-18T16:09:22.999Z</time></trkpt><trkpt lat="44.54246817008811" lon="9.259768484190204"><ele>623.5</ele><time>2026-04-18T16:09:23.999Z</time></trkpt><trkpt lat="44.54233445609547" lon="9.259719000261454"><ele>624.0</ele><time>2026-04-18T16:09:24.999Z</time></trkpt><trkpt lat="44.542193683023676" lon="9.25971581016943"><ele>624.0</ele><time>2026-04-18T16:09:25.999Z</time></trkpt><trkpt lat="44.54206095930314" lon="9.259766346503959"><ele>624.0</ele><time>2026-04-18T16:09:26.999Z</time></trkpt><trkpt lat="44.54193284995432" lon="9.259873412827668"><ele>624.0</ele><time>2026-04-18T16:09:27.999Z</time></trkpt><trkpt lat="44.541819480767906" lon="9.260045950456856"><ele>625.0</ele><time>2026-04-18T16:09:28.999Z</time></trkpt><trkpt lat="44.541703370133106" lon="9.260220486915799"><ele>626.0</ele><time>2026-04-18T16:09:29.999Z</time></trkpt><trkpt lat="44.54158225517588" lon="9.260405050163534"><ele>627.0</ele><time>2026-04-18T16:09:30.999Z</time></trkpt><trkpt lat="44.541453096529494" lon="9.260556755964748"><ele>626.0</ele><time>2026-04-18T16:09:31.999Z</time></trkpt><trkpt lat="44.541296577083884" lon="9.26069410583176"><ele>625.0</ele><time>2026-04-18T16:09:32.999Z</time></trkpt><trkpt lat="44.54112871324238" lon="9.260789584183168"><ele>624.0</ele><time>2026-04-18T16:09:33.999Z</time></trkpt><trkpt lat="44.540952300097004" lon="9.26085108622556"><ele>626.6666666666666</ele><time>2026-04-18T16:09:34.999Z</time></trkpt><trkpt lat="44.540747626776835" lon="9.260885086915103"><ele>629.3333333333333</ele><time>2026-04-18T16:09:35.999Z</time></trkpt><trkpt lat="44.54053974153675" lon="9.260898284185146"><ele>632.0</ele><time>2026-04-18T16:09:36.999Z</time></trkpt><trkpt lat="44.5403287703051" lon="9.260906610148767"><ele>635.3333333333333</ele><time>2026-04-18T16:09:37.999Z</time></trkpt><trkpt lat="44.540139896918824" lon="9.260917194031968"><ele>638.6666666666666</ele><time>2026-04-18T16:09:38.999Z</time></trkpt><trkpt lat="44.53995899575786" lon="9.260936814106786"><ele>642.0</ele><time>2026-04-18T16:09:39.999Z</time></trkpt><trkpt lat="44.5397970531371" lon="9.260919818176708"><ele>642.0</ele><time>2026-04-18T16:09:40.999Z</time></trkpt><trkpt lat="44.539659045433055" lon="9.260938882195584"><ele>642.0</ele><time>2026-04-18T16:09:41.999Z</time></trkpt><trkpt lat="44.539533312408665" lon="9.26092891989723"><ele>642.0</ele><time>2026-04-18T16:09:42.999Z</time></trkpt><trkpt lat="44.53941245976787" lon="9.260925391351725"><ele>642.0</ele><time>2026-04-18T16:09:43.999Z</time></trkpt><trkpt lat="44.53931212345673" lon="9.260928148682202"><ele>643.2</ele><time>2026-04-18T16:09:44.999Z</time></trkpt><trkpt lat="44.53923866665304" lon="9.260919879289965"><ele>644.4000000000001</ele><time>2026-04-18T16:09:45.999Z</time></trkpt><trkpt lat="44.539173325018524" lon="9.260921074124711"><ele>645.5999999999999</ele><time>2026-04-18T16:09:46.999Z</time></trkpt><trkpt lat="44.53894773906522" lon="9.260920379770589"><ele>646.8</ele><time>2026-04-18T16:09:49.999Z</time></trkpt><trkpt lat="44.538872810765206" lon="9.260914286493417"><ele>648.0</ele><time>2026-04-18T16:13:11Z</time></trkpt><trkpt lat="44.53877541577333" lon="9.260928583796904"><ele>645.75</ele><time>2026-04-18T16:13:12Z</time></trkpt><trkpt lat="44.53867719243623" lon="9.260937046350548"><ele>643.5</ele><time>2026-04-18T16:13:13Z</time></trkpt><trkpt lat="44.53854114576273" lon="9.260948555681043"><ele>641.25</ele><time>2026-04-18T16:13:14Z</time></trkpt><trkpt lat="44.538402311864616" lon="9.260968272676589"><ele>639.0</ele><time>2026-04-18T16:13:15Z</time></trkpt><trkpt lat="44.538243338456" lon="9.260972806564244"><ele>639.0</ele><time>2026-04-18T16:13:16Z</time></trkpt><trkpt lat="44.538075817771" lon="9.260975719896251"><ele>639.0</ele><time>2026-04-18T16:13:17Z</time></trkpt><trkpt lat="44.53790421808473" lon="9.260980482170654"><ele>639.0</ele><time>2026-04-18T16:13:18Z</time></trkpt><trkpt lat="44.53771651428947" lon="9.260988740447104"><ele>638.0</ele><time>2026-04-18T16:13:19Z</time></trkpt><trkpt lat="44.537533842705784" lon="9.260990655381512"><ele>637.0</ele><time>2026-04-18T16:13:20Z</time></trkpt><trkpt lat="44.537371873899616" lon="9.260988587000083"><ele>636.0</ele><time>2026-04-18T16:13:21Z</time></trkpt><trkpt lat="44.53720288948659" lon="9.261000055406186"><ele>637.0</ele><time>2026-04-18T16:13:22Z</time></trkpt><trkpt lat="44.53701708471234" lon="9.26099890782053"><ele>638.0</ele><time>2026-04-18T16:13:23Z</time></trkpt><trkpt lat="44.53681249191727" lon="9.261036654445835"><ele>639.0</ele><time>2026-04-18T16:13:24Z</time></trkpt><trkpt lat="44.53660258164079" lon="9.261068999390396"><ele>639.0</ele><time>2026-04-18T16:13:25Z</time></trkpt><trkpt lat="44.53640816160901" lon="9.26110272931201"><ele>639.0</ele><time>2026-04-18T16:13:26Z</time></trkpt><trkpt lat="44.53623472680378" lon="9.261128451286657"><ele>639.0</ele><time>2026-04-18T16:13:26.999Z</time></trkpt><trkpt lat="44.536049842714355" lon="9.261157286965952"><ele>645.6666666666666</ele><time>2026-04-18T16:13:27.999Z</time></trkpt><trkpt lat="44.535868945506294" lon="9.261159350545464"><ele>652.3333333333333</ele><time>2026-04-18T16:13:28.999Z</time></trkpt><trkpt lat="44.5357227186138" lon="9.261138991135267"><ele>659.0</ele><time>2026-04-18T16:13:29.999Z</time></trkpt><trkpt lat="44.53558978944154" lon="9.26113290079275"><ele>659.0</ele><time>2026-04-18T16:13:30.999Z</time></trkpt><trkpt lat="44.53544945714403" lon="9.261194305343162"><ele>659.0</ele><time>2026-04-18T16:13:31.999Z</time></trkpt><trkpt lat="44.53529810175955" lon="9.26127981854811"><ele>659.0</ele><time>2026-04-18T16:13:32.999Z</time></trkpt><trkpt lat="44.53514699739052" lon="9.261413667899724"><ele>652.0</ele><time>2026-04-18T16:13:33.999Z</time></trkpt><trkpt lat="44.53500837486789" lon="9.261536651283942"><ele>645.0</ele><time>2026-04-18T16:13:34.999Z</time></trkpt><trkpt lat="44.53487865320961" lon="9.261649719127156"><ele>638.0</ele><time>2026-04-18T16:13:35.999Z</time></trkpt><trkpt lat="44.53474385892486" lon="9.261757684403955"><ele>638.0</ele><time>2026-04-18T16:13:36.999Z</time></trkpt><trkpt lat="44.534584768849506" lon="9.261839798795743"><ele>638.0</ele><time>2026-04-18T16:13:37.999Z</time></trkpt><trkpt lat="44.53443344600453" lon="9.26189938806902"><ele>638.0</ele><time>2026-04-18T16:13:38.999Z</time></trkpt><trkpt lat="44.53429476947063" lon="9.261943538522788"><ele>638.0</ele><time>2026-04-18T16:13:39.999Z</time></trkpt><trkpt lat="44.53416840386692" lon="9.261956781544841"><ele>638.0</ele><time>2026-04-18T16:13:40.999Z</time></trkpt><trkpt lat="44.53405573307002" lon="9.261934723700742"><ele>638.0</ele><time>2026-04-18T16:13:41.999Z</time></trkpt><trkpt lat="44.5339702783772" lon="9.261865422243089"><ele>638.0</ele><time>2026-04-18T16:13:42.999Z</time></trkpt><trkpt lat="44.533910920049166" lon="9.261747712421087"><ele>638.0</ele><time>2026-04-18T16:13:43.999Z</time></trkpt><trkpt lat="44.533866134855614" lon="9.261576421243529"><ele>642.3333333333333</ele><time>2026-04-18T16:13:44.999Z</time></trkpt><trkpt lat="44.5338507591367" lon="9.261378890016577"><ele>646.6666666666666</ele><time>2026-04-18T16:13:45.999Z</time></trkpt><trkpt lat="44.53384452017253" lon="9.26114049342364"><ele>651.0</ele><time>2026-04-18T16:13:46.999Z</time></trkpt><trkpt lat="44.533851612664904" lon="9.260890448911896"><ele>651.0</ele><time>2026-04-18T16:13:47.999Z</time></trkpt><trkpt lat="44.53385781767354" lon="9.26063293922454"><ele>651.0</ele><time>2026-04-18T16:13:48.999Z</time></trkpt><trkpt lat="44.53384991963969" lon="9.260356034848195"><ele>651.0</ele><time>2026-04-18T16:13:49.999Z</time></trkpt><trkpt lat="44.53383176629679" lon="9.260046274954677"><ele>653.6666666666666</ele><time>2026-04-18T16:13:50.999Z</time></trkpt><trkpt lat="44.53382655424912" lon="9.259734586081134"><ele>656.3333333333333</ele><time>2026-04-18T16:13:51.999Z</time></trkpt><trkpt lat="44.533843931419625" lon="9.259464458733513"><ele>659.0</ele><time>2026-04-18T16:13:52.999Z</time></trkpt><trkpt lat="44.53387439169794" lon="9.25920688325769"><ele>659.6666666666666</ele><time>2026-04-18T16:13:53.999Z</time></trkpt><trkpt lat="44.5338824352203" lon="9.25892468205627"><ele>660.3333333333334</ele><time>2026-04-18T16:13:54.999Z</time></trkpt><trkpt lat="44.53386545218032" lon="9.258631671490683"><ele>661.0</ele><time>2026-04-18T16:13:55.999Z</time></trkpt><trkpt lat="44.533845565761936" lon="9.258377787121526"><ele>661.0</ele><time>2026-04-18T16:13:56.999Z</time></trkpt><trkpt lat="44.53382835829175" lon="9.258155799578205"><ele>661.0</ele><time>2026-04-18T16:13:57.999Z</time></trkpt><trkpt lat="44.533834164959025" lon="9.257913351028131"><ele>661.0</ele><time>2026-04-18T16:13:58.999Z</time></trkpt><trkpt lat="44.533866819803265" lon="9.257651460761918"><ele>660.3333333333334</ele><time>2026-04-18T16:13:59.999Z</time></trkpt><trkpt lat="44.5339034265535" lon="9.257382429770905"><ele>659.6666666666666</ele><time>2026-04-18T16:14:00.999Z</time></trkpt><trkpt lat="44.53392991414604" lon="9.25707837098484"><ele>659.0</ele><time>2026-04-18T16:14:01.999Z</time></trkpt><trkpt lat="44.53395563022859" lon="9.256785843874166"><ele>659.0</ele><time>2026-04-18T16:14:02.999Z</time></trkpt><trkpt lat="44.53397869096348" lon="9.256522320369443"><ele>659.0</ele><time>2026-04-18T16:14:03.999Z</time></trkpt><trkpt lat="44.53399367305288" lon="9.256299288432038"><ele>659.0</ele><time>2026-04-18T16:14:04.999Z</time></trkpt><trkpt lat="44.534019573156726" lon="9.256108083189108"><ele>659.0</ele><time>2026-04-18T16:14:05.999Z</time></trkpt><trkpt lat="44.53404602358121" lon="9.25595286758687"><ele>659.0</ele><time>2026-04-18T16:14:06.999Z</time></trkpt><trkpt lat="44.534036875598204" lon="9.255805932775594"><ele>659.0</ele><time>2026-04-18T16:14:07.999Z</time></trkpt><trkpt lat="44.53398723825742" lon="9.255643713435369"><ele>659.0</ele><time>2026-04-18T16:14:08.999Z</time></trkpt><trkpt lat="44.53391229540315" lon="9.25546157363014"><ele>662.3333333333333</ele><time>2026-04-18T16:14:09.999Z</time></trkpt><trkpt lat="44.53378315616123" lon="9.255229884815872"><ele>665.6666666666666</ele><time>2026-04-18T16:14:10.999Z</time></trkpt><trkpt lat="44.53366984622083" lon="9.25505444120223"><ele>669.0</ele><time>2026-04-18T16:14:11.999Z</time></trkpt><trkpt lat="44.53353434235719" lon="9.254900666667574"><ele>667.6666666666666</ele><time>2026-04-18T16:14:12.999Z</time></trkpt><trkpt lat="44.53337741997036" lon="9.254748616436176"><ele>666.3333333333333</ele><time>2026-04-18T16:14:13.999Z</time></trkpt><trkpt lat="44.53321950433318" lon="9.254595552795802"><ele>665.0</ele><time>2026-04-18T16:14:14.999Z</time></trkpt><trkpt lat="44.53307354238365" lon="9.25445437576885"><ele>665.0</ele><time>2026-04-18T16:14:15.999Z</time></trkpt><trkpt lat="44.5329559043829" lon="9.254341797207339"><ele>665.0</ele><time>2026-04-18T16:14:16.999Z</time></trkpt><trkpt lat="44.532839597863564" lon="9.254245214852393"><ele>665.0</ele><time>2026-04-18T16:14:17.999Z</time></trkpt><trkpt lat="44.532696655196176" lon="9.254201571996479"><ele>665.0</ele><time>2026-04-18T16:14:18.999Z</time></trkpt><trkpt lat="44.532533267832726" lon="9.25417642603548"><ele>664.3333333333333</ele><time>2026-04-18T16:14:19.999Z</time></trkpt><trkpt lat="44.53234434961717" lon="9.254167716645771"><ele>663.6666666666666</ele><time>2026-04-18T16:14:20.999Z</time></trkpt><trkpt lat="44.53218773340515" lon="9.254166956197146"><ele>663.0</ele><time>2026-04-18T16:14:21.999Z</time></trkpt><trkpt lat="44.53204451555334" lon="9.254192057559568"><ele>663.0</ele><time>2026-04-18T16:14:22.999Z</time></trkpt><trkpt lat="44.53190667418734" lon="9.254255504120964"><ele>663.0</ele><time>2026-04-18T16:14:23.999Z</time></trkpt><trkpt lat="44.53175895714656" lon="9.254351799473897"><ele>663.0</ele><time>2026-04-18T16:14:24.999Z</time></trkpt><trkpt lat="44.531614051659346" lon="9.254469949104633"><ele>663.0</ele><time>2026-04-18T16:14:25.999Z</time></trkpt><trkpt lat="44.53146525745953" lon="9.254617532568933"><ele>663.0</ele><time>2026-04-18T16:14:26.999Z</time></trkpt><trkpt lat="44.53131846262143" lon="9.254801767592177"><ele>663.0</ele><time>2026-04-18T16:14:27.999Z</time></trkpt><trkpt lat="44.53117436517677" lon="9.255011069700416"><ele>664.3333333333334</ele><time>2026-04-18T16:14:29Z</time></trkpt><trkpt lat="44.53103335185804" lon="9.255247118482123"><ele>665.6666666666667</ele><time>2026-04-18T16:14:30Z</time></trkpt><trkpt lat="44.53091234031949" lon="9.255463176482705"><ele>667.0</ele><time>2026-04-18T16:14:31Z</time></trkpt><trkpt lat="44.53080702104814" lon="9.255659479963903"><ele>661.0</ele><time>2026-04-18T16:14:32Z</time></trkpt><trkpt lat="44.53071028241345" lon="9.255856567825878"><ele>655.0</ele><time>2026-04-18T16:14:33Z</time></trkpt><trkpt lat="44.53062908537032" lon="9.25607099106098"><ele>649.0</ele><time>2026-04-18T16:14:34Z</time></trkpt><trkpt lat="44.53055697328331" lon="9.256281998034536"><ele>647.3333333333334</ele><time>2026-04-18T16:14:35Z</time></trkpt><trkpt lat="44.53049438102875" lon="9.256488440624711"><ele>645.6666666666666</ele><time>2026-04-18T16:14:36Z</time></trkpt><trkpt lat="44.530451663057924" lon="9.25668711328756"><ele>644.0</ele><time>2026-04-18T16:14:37Z</time></trkpt><trkpt lat="44.53042763810493" lon="9.256917642017251"><ele>644.0</ele><time>2026-04-18T16:14:38Z</time></trkpt><trkpt lat="44.53041321857477" lon="9.257185501211222"><ele>644.0</ele><time>2026-04-18T16:14:39Z</time></trkpt><trkpt lat="44.530394981377626" lon="9.257468772132404"><ele>644.0</ele><time>2026-04-18T16:14:40Z</time></trkpt><trkpt lat="44.5303889830921" lon="9.257709786668386"><ele>644.6666666666666</ele><time>2026-04-18T16:14:41Z</time></trkpt><trkpt lat="44.530383469578204" lon="9.2579472794279"><ele>645.3333333333334</ele><time>2026-04-18T16:14:42Z</time></trkpt><trkpt lat="44.53039978652953" lon="9.258204587487828"><ele>646.0</ele><time>2026-04-18T16:14:43Z</time></trkpt><trkpt lat="44.53041004556457" lon="9.258436920071759"><ele>646.0</ele><time>2026-04-18T16:14:44Z</time></trkpt><trkpt lat="44.53042216371533" lon="9.258678200641056"><ele>646.0</ele><time>2026-04-18T16:14:45Z</time></trkpt><trkpt lat="44.53043122061083" lon="9.25890164936131"><ele>646.0</ele><time>2026-04-18T16:14:46Z</time></trkpt><trkpt lat="44.530438507892754" lon="9.259098797869221"><ele>646.25</ele><time>2026-04-18T16:14:47Z</time></trkpt><trkpt lat="44.53044355725005" lon="9.259304233649845"><ele>646.5</ele><time>2026-04-18T16:14:48Z</time></trkpt><trkpt lat="44.530446041913784" lon="9.259519897950295"><ele>646.75</ele><time>2026-04-18T16:14:49Z</time></trkpt><trkpt lat="44.53043167757672" lon="9.259705888040562"><ele>647.0</ele><time>2026-04-18T16:14:50Z</time></trkpt><trkpt lat="44.53038463864965" lon="9.259901699862102"><ele>647.25</ele><time>2026-04-18T16:14:51Z</time></trkpt><trkpt lat="44.530299585149734" lon="9.260095652918885"><ele>647.5</ele><time>2026-04-18T16:14:52Z</time></trkpt><trkpt lat="44.53019171347793" lon="9.260244393731575"><ele>647.75</ele><time>2026-04-18T16:14:53Z</time></trkpt><trkpt lat="44.530079246162046" lon="9.260340577854842"><ele>648.0</ele><time>2026-04-18T16:14:54Z</time></trkpt><trkpt lat="44.529942482541905" lon="9.260411112203935"><ele>648.0</ele><time>2026-04-18T16:14:55Z</time></trkpt><trkpt lat="44.529792495409595" lon="9.260446611735913"><ele>648.0</ele><time>2026-04-18T16:14:56Z</time></trkpt><trkpt lat="44.52964062845555" lon="9.260437697341022"><ele>648.0</ele><time>2026-04-18T16:14:57Z</time></trkpt><trkpt lat="44.529508463822786" lon="9.260407929851123"><ele>648.0</ele><time>2026-04-18T16:14:58Z</time></trkpt><trkpt lat="44.5293800480971" lon="9.260339452580332"><ele>652.0</ele><time>2026-04-18T16:14:59Z</time></trkpt><trkpt lat="44.5292515397826" lon="9.260239921043365"><ele>656.0</ele><time>2026-04-18T16:15:00Z</time></trkpt><trkpt lat="44.5291137972807" lon="9.260171304207402"><ele>660.0</ele><time>2026-04-18T16:15:01Z</time></trkpt><trkpt lat="44.528994247539615" lon="9.260137851935317"><ele>664.0</ele><time>2026-04-18T16:15:02Z</time></trkpt><trkpt lat="44.528850002118936" lon="9.260111865631727"><ele>661.0</ele><time>2026-04-18T16:15:03Z</time></trkpt><trkpt lat="44.52871397309034" lon="9.26009724900297"><ele>658.0</ele><time>2026-04-18T16:15:04Z</time></trkpt><trkpt lat="44.52859505486593" lon="9.260064748431311"><ele>655.0</ele><time>2026-04-18T16:15:05Z</time></trkpt><trkpt lat="44.528482067938434" lon="9.259985323882157"><ele>652.0</ele><time>2026-04-18T16:15:06Z</time></trkpt><trkpt lat="44.52837208486498" lon="9.259870627457113"><ele>662.3333333333334</ele><time>2026-04-18T16:15:07Z</time></trkpt><trkpt lat="44.52824712641093" lon="9.25973659236631"><ele>672.6666666666666</ele><time>2026-04-18T16:15:08Z</time></trkpt><trkpt lat="44.52810662737246" lon="9.259576094196772"><ele>683.0</ele><time>2026-04-18T16:15:09Z</time></trkpt><trkpt lat="44.52797389160287" lon="9.259412335116446"><ele>674.6666666666666</ele><time>2026-04-18T16:15:10Z</time></trkpt><trkpt lat="44.52782467943876" lon="9.259254367751167"><ele>666.3333333333334</ele><time>2026-04-18T16:15:11Z</time></trkpt><trkpt lat="44.527653445257116" lon="9.259109679001599"><ele>658.0</ele><time>2026-04-18T16:15:12Z</time></trkpt><trkpt lat="44.52749427022338" lon="9.258995102144953"><ele>667.0</ele><time>2026-04-18T16:15:13Z</time></trkpt><trkpt lat="44.52733991381125" lon="9.25890901543622"><ele>676.0</ele><time>2026-04-18T16:15:14Z</time></trkpt><trkpt lat="44.52719668393216" lon="9.25880795080546"><ele>685.0</ele><time>2026-04-18T16:15:15Z</time></trkpt><trkpt lat="44.52706827229519" lon="9.258700819233816"><ele>678.25</ele><time>2026-04-18T16:15:16Z</time></trkpt><trkpt lat="44.5269559957319" lon="9.258590731776225"><ele>671.5</ele><time>2026-04-18T16:15:17Z</time></trkpt><trkpt lat="44.526853294005875" lon="9.25847932485987"><ele>664.75</ele><time>2026-04-18T16:15:18Z</time></trkpt><trkpt lat="44.52678098918409" lon="9.25834700620777"><ele>658.0</ele><time>2026-04-18T16:15:19Z</time></trkpt><trkpt lat="44.526713189289474" lon="9.258193408329651"><ele>661.0</ele><time>2026-04-18T16:15:20Z</time></trkpt><trkpt lat="44.52664641409648" lon="9.258015859187593"><ele>664.0</ele><time>2026-04-18T16:15:21Z</time></trkpt><trkpt lat="44.526584274217704" lon="9.257829402269474"><ele>667.0</ele><time>2026-04-18T16:15:22Z</time></trkpt><trkpt lat="44.52652257373455" lon="9.257629923351278"><ele>670.0</ele><time>2026-04-18T16:15:23Z</time></trkpt><trkpt lat="44.52648326842016" lon="9.257406870358908"><ele>669.0</ele><time>2026-04-18T16:15:24Z</time></trkpt><trkpt lat="44.52646150984603" lon="9.257166023175733"><ele>668.0</ele><time>2026-04-18T16:15:25Z</time></trkpt><trkpt lat="44.526398521095366" lon="9.256991819745133"><ele>667.0</ele><time>2026-04-18T16:15:26Z</time></trkpt><trkpt lat="44.52643308132708" lon="9.256777072656702"><ele>667.0</ele><time>2026-04-18T16:15:27Z</time></trkpt><trkpt lat="44.526479649459056" lon="9.256576550652214"><ele>667.0</ele><time>2026-04-18T16:15:28Z</time></trkpt><trkpt lat="44.52654475940174" lon="9.256383241375865"><ele>667.0</ele><time>2026-04-18T16:15:29Z</time></trkpt><trkpt lat="44.52663914743573" lon="9.256171826874093"><ele>664.6666666666667</ele><time>2026-04-18T16:15:30Z</time></trkpt><trkpt lat="44.52674529747995" lon="9.255940176090663"><ele>662.3333333333334</ele><time>2026-04-18T16:15:31Z</time></trkpt><trkpt lat="44.52685946105921" lon="9.25568742432112"><ele>660.0</ele><time>2026-04-18T16:15:32Z</time></trkpt><trkpt lat="44.52698045662934" lon="9.25541954690387"><ele>667.0</ele><time>2026-04-18T16:15:33Z</time></trkpt><trkpt lat="44.52710812699553" lon="9.255127701249323"><ele>674.0</ele><time>2026-04-18T16:15:33.999Z</time></trkpt><trkpt lat="44.52726536211651" lon="9.254842667241327"><ele>665.5</ele><time>2026-04-18T16:15:34.999Z</time></trkpt><trkpt lat="44.52742340212186" lon="9.25455483484353"><ele>657.0</ele><time>2026-04-18T16:15:35.999Z</time></trkpt><trkpt lat="44.527583736889" lon="9.254253446794179"><ele>657.0</ele><time>2026-04-18T16:15:36.999Z</time></trkpt><trkpt lat="44.527727512019084" lon="9.253990385651846"><ele>657.0</ele><time>2026-04-18T16:15:37.999Z</time></trkpt><trkpt lat="44.52786062508205" lon="9.25374800035717"><ele>663.3333333333334</ele><time>2026-04-18T16:15:38.999Z</time></trkpt><trkpt lat="44.527974381688715" lon="9.253534923695517"><ele>669.6666666666667</ele><time>2026-04-18T16:15:39.999Z</time></trkpt><trkpt lat="44.528092391681255" lon="9.253357078242262"><ele>676.0</ele><time>2026-04-18T16:15:40.999Z</time></trkpt><trkpt lat="44.528173374126055" lon="9.25317492411025"><ele>675.0</ele><time>2026-04-18T16:15:41.999Z</time></trkpt><trkpt lat="44.52826047701584" lon="9.253026149778988"><ele>674.0</ele><time>2026-04-18T16:15:42.999Z</time></trkpt><trkpt lat="44.52832133309659" lon="9.252877480987962"><ele>673.0</ele><time>2026-04-18T16:15:43.999Z</time></trkpt><trkpt lat="44.528347219477894" lon="9.252712398764107"><ele>672.0</ele><time>2026-04-18T16:15:44.999Z</time></trkpt><trkpt lat="44.528351149197235" lon="9.252503053712644"><ele>672.6666666666666</ele><time>2026-04-18T16:15:45.999Z</time></trkpt><trkpt lat="44.52835380184471" lon="9.252277569068251"><ele>673.3333333333333</ele><time>2026-04-18T16:15:46.999Z</time></trkpt><trkpt lat="44.52834474911324" lon="9.252089753858034"><ele>674.0</ele><time>2026-04-18T16:15:47.999Z</time></trkpt><trkpt lat="44.528285948417604" lon="9.251888990933148"><ele>674.0</ele><time>2026-04-18T16:15:48.999Z</time></trkpt><trkpt lat="44.528227485039906" lon="9.251664676069385"><ele>674.0</ele><time>2026-04-18T16:15:49.999Z</time></trkpt><trkpt lat="44.528154547153314" lon="9.251485587354747"><ele>674.0</ele><time>2026-04-18T16:15:50.999Z</time></trkpt><trkpt lat="44.52807743449724" lon="9.251339089196597"><ele>674.0</ele><time>2026-04-18T16:15:51.999Z</time></trkpt><trkpt lat="44.52797101426412" lon="9.251227643448303"><ele>669.5</ele><time>2026-04-18T16:15:52.999Z</time></trkpt><trkpt lat="44.52786011359847" lon="9.251096857237972"><ele>665.0</ele><time>2026-04-18T16:15:53.999Z</time></trkpt><trkpt lat="44.52775600598985" lon="9.251003485421975"><ele>660.5</ele><time>2026-04-18T16:15:54.999Z</time></trkpt><trkpt lat="44.52764283153652" lon="9.25091029340767"><ele>656.0</ele><time>2026-04-18T16:15:55.999Z</time></trkpt><trkpt lat="44.52752674728087" lon="9.250822339759035"><ele>656.0</ele><time>2026-04-18T16:15:56.999Z</time></trkpt><trkpt lat="44.52742939498664" lon="9.250708169652334"><ele>656.0</ele><time>2026-04-18T16:15:57.999Z</time></trkpt><trkpt lat="44.52732381108592" lon="9.250570935993627"><ele>656.0</ele><time>2026-04-18T16:15:58.999Z</time></trkpt><trkpt lat="44.52722774953001" lon="9.250415242616503"><ele>656.0</ele><time>2026-04-18T16:15:59.999Z</time></trkpt><trkpt lat="44.527147894151824" lon="9.250293787340041"><ele>656.5999999999999</ele><time>2026-04-18T16:16:00.999Z</time></trkpt><trkpt lat="44.52706888507192" lon="9.250177240906671"><ele>657.2</ele><time>2026-04-18T16:16:01.999Z</time></trkpt><trkpt lat="44.5269904321292" lon="9.250070627894933"><ele>657.8</ele><time>2026-04-18T16:16:02.999Z</time></trkpt><trkpt lat="44.52691661495795" lon="9.249966872385523"><ele>658.4000000000001</ele><time>2026-04-18T16:16:03.999Z</time></trkpt><trkpt lat="44.52683176572997" lon="9.249846711502887"><ele>659.0</ele><time>2026-04-18T16:16:04.999Z</time></trkpt><trkpt lat="44.526740881999245" lon="9.249718129219442"><ele>660.2</ele><time>2026-04-18T16:16:05.999Z</time></trkpt><trkpt lat="44.52665661296177" lon="9.249592096349046"><ele>661.4000000000001</ele><time>2026-04-18T16:16:06.999Z</time></trkpt><trkpt lat="44.52658814927756" lon="9.249487570646572"><ele>662.6</ele><time>2026-04-18T16:16:07.999Z</time></trkpt><trkpt lat="44.526513183949895" lon="9.249374963471913"><ele>663.8</ele><time>2026-04-18T16:16:08.999Z</time></trkpt><trkpt lat="44.52644022261704" lon="9.249262033732224"><ele>665.0</ele><time>2026-04-18T16:16:09.999Z</time></trkpt><trkpt lat="44.52637942995964" lon="9.249163539135635"><ele>665.0</ele><time>2026-04-18T16:16:10.999Z</time></trkpt><trkpt lat="44.526328973808326" lon="9.249067567210574"><ele>665.0</ele><time>2026-04-18T16:16:11.999Z</time></trkpt><trkpt lat="44.52627564031228" lon="9.248964554034165"><ele>665.0</ele><time>2026-04-18T16:16:12.999Z</time></trkpt><trkpt lat="44.5262174230657" lon="9.248858946274241"><ele>665.0</ele><time>2026-04-18T16:16:13.999Z</time></trkpt><trkpt lat="44.526168530908556" lon="9.248756728054968"><ele>665.0</ele><time>2026-04-18T16:16:14.999Z</time></trkpt><trkpt lat="44.52612719154145" lon="9.24867024201392"><ele>665.0</ele><time>2026-04-18T16:16:15.999Z</time></trkpt><trkpt lat="44.526086644747295" lon="9.24859634990056"><ele>664.7142857142857</ele><time>2026-04-18T16:16:16.999Z</time></trkpt><trkpt lat="44.52605553773307" lon="9.24851849309879"><ele>664.4285714285714</ele><time>2026-04-18T16:16:17.999Z</time></trkpt><trkpt lat="44.52602179534989" lon="9.248442706826266"><ele>664.1428571428571</ele><time>2026-04-18T16:16:18.999Z</time></trkpt><trkpt lat="44.52598840186788" lon="9.248363879318482"><ele>663.8571428571429</ele><time>2026-04-18T16:16:19.999Z</time></trkpt><trkpt lat="44.52593960357354" lon="9.248259405301374"><ele>663.5714285714286</ele><time>2026-04-18T16:16:21.999Z</time></trkpt><trkpt lat="44.52588771586284" lon="9.248180876797678"><ele>663.2857142857142</ele><time>2026-04-18T16:16:25.999Z</time></trkpt><trkpt lat="44.52586049004056" lon="9.248099918201731"><ele>663.0</ele><time>2026-04-18T16:16:53Z</time></trkpt><trkpt lat="44.52585687967684" lon="9.24819792880257"><ele>663.0</ele><time>2026-04-18T16:17:41.999Z</time></trkpt><trkpt lat="44.52587067150575" lon="9.248109129757935"><ele>667.0</ele><time>2026-04-18T16:17:59.822Z</time></trkpt></trkseg><trkseg><trkpt lat="44.52587192033405" lon="9.248097076353572"><ele>667.0</ele><time>2026-04-18T16:29:03.149Z</time></trkpt><trkpt lat="44.52582094969513" lon="9.247993163776908"><ele>667.0</ele><time>2026-04-18T16:29:14Z</time></trkpt><trkpt lat="44.525745435337" lon="9.247804378732972"><ele>667.0</ele><time>2026-04-18T16:29:16Z</time></trkpt><trkpt lat="44.52568185775166" lon="9.247697074857008"><ele>667.0</ele><time>2026-04-18T16:29:17Z</time></trkpt><trkpt lat="44.525605043314044" lon="9.247568168731647"><ele>667.0</ele><time>2026-04-18T16:29:18Z</time></trkpt><trkpt lat="44.52551148390313" lon="9.247417489662963"><ele>667.0</ele><time>2026-04-18T16:29:19Z</time></trkpt><trkpt lat="44.52542475812297" lon="9.24726407987708"><ele>667.0</ele><time>2026-04-18T16:29:20Z</time></trkpt><trkpt lat="44.52533060749965" lon="9.247085869955436"><ele>667.0</ele><time>2026-04-18T16:29:21Z</time></trkpt><trkpt lat="44.52523485958584" lon="9.2468992397375"><ele>665.8</ele><time>2026-04-18T16:29:22Z</time></trkpt><trkpt lat="44.5252085159864" lon="9.24671406044816"><ele>664.6</ele><time>2026-04-18T16:29:23Z</time></trkpt><trkpt lat="44.525190350051766" lon="9.246569521301216"><ele>663.4</ele><time>2026-04-18T16:29:24Z</time></trkpt><trkpt lat="44.525199360691296" lon="9.246428582134568"><ele>662.1999999999999</ele><time>2026-04-18T16:29:25Z</time></trkpt><trkpt lat="44.52525218123062" lon="9.24630021059313"><ele>661.0</ele><time>2026-04-18T16:29:26Z</time></trkpt><trkpt lat="44.52531909204905" lon="9.246032514914978"><ele>660.3333333333334</ele><time>2026-04-18T16:29:27Z</time></trkpt><trkpt lat="44.52531693441467" lon="9.245813902830871"><ele>659.6666666666666</ele><time>2026-04-18T16:29:28Z</time></trkpt><trkpt lat="44.52534042573986" lon="9.245591403281665"><ele>659.0</ele><time>2026-04-18T16:29:29Z</time></trkpt><trkpt lat="44.52536188973299" lon="9.24536282797686"><ele>664.6666666666666</ele><time>2026-04-18T16:29:30Z</time></trkpt><trkpt lat="44.52541729937947" lon="9.245156012645923"><ele>670.3333333333334</ele><time>2026-04-18T16:29:31Z</time></trkpt><trkpt lat="44.52548349057187" lon="9.244900679267726"><ele>676.0</ele><time>2026-04-18T16:29:32Z</time></trkpt><trkpt lat="44.52554856264219" lon="9.244665707597523"><ele>676.0</ele><time>2026-04-18T16:29:33Z</time></trkpt><trkpt lat="44.525633848475984" lon="9.24441651522647"><ele>676.0</ele><time>2026-04-18T16:29:34Z</time></trkpt><trkpt lat="44.525715976412776" lon="9.244135713080167"><ele>676.0</ele><time>2026-04-18T16:29:35Z</time></trkpt><trkpt lat="44.52578153015599" lon="9.243896253852517"><ele>673.6666666666667</ele><time>2026-04-18T16:29:36Z</time></trkpt><trkpt lat="44.525844371830594" lon="9.243670398731945"><ele>671.3333333333334</ele><time>2026-04-18T16:29:37Z</time></trkpt><trkpt lat="44.5259199334812" lon="9.243461284375574"><ele>669.0</ele><time>2026-04-18T16:29:38Z</time></trkpt><trkpt lat="44.526018214855455" lon="9.243320367283465"><ele>669.0</ele><time>2026-04-18T16:29:39Z</time></trkpt><trkpt lat="44.52611519865506" lon="9.243141309952199"><ele>669.0</ele><time>2026-04-18T16:29:40Z</time></trkpt><trkpt lat="44.526168323511456" lon="9.242957207139057"><ele>669.0</ele><time>2026-04-18T16:29:41Z</time></trkpt><trkpt lat="44.526189034697296" lon="9.242722790742622"><ele>667.3333333333334</ele><time>2026-04-18T16:29:42Z</time></trkpt><trkpt lat="44.526223466508405" lon="9.242444687058915"><ele>665.6666666666667</ele><time>2026-04-18T16:29:43Z</time></trkpt><trkpt lat="44.526245142732904" lon="9.242157503303034"><ele>664.0</ele><time>2026-04-18T16:29:44Z</time></trkpt><trkpt lat="44.52627795068317" lon="9.241907668915239"><ele>665.0</ele><time>2026-04-18T16:29:45Z</time></trkpt><trkpt lat="44.52630708591197" lon="9.241703375587027"><ele>666.0</ele><time>2026-04-18T16:29:46Z</time></trkpt><trkpt lat="44.52632665749251" lon="9.241526642436456"><ele>667.0</ele><time>2026-04-18T16:29:47Z</time></trkpt><trkpt lat="44.52631918360507" lon="9.241365371100091"><ele>668.0</ele><time>2026-04-18T16:29:48Z</time></trkpt><trkpt lat="44.526288369424734" lon="9.241186813448543"><ele>668.0</ele><time>2026-04-18T16:29:49Z</time></trkpt><trkpt lat="44.526234182174264" lon="9.24096473938215"><ele>668.0</ele><time>2026-04-18T16:29:50Z</time></trkpt><trkpt lat="44.5261689241361" lon="9.240727382682993"><ele>668.0</ele><time>2026-04-18T16:29:51Z</time></trkpt><trkpt lat="44.52610412971146" lon="9.240481340968742"><ele>667.75</ele><time>2026-04-18T16:29:52Z</time></trkpt><trkpt lat="44.52604992411202" lon="9.240262174704215"><ele>667.5</ele><time>2026-04-18T16:29:53Z</time></trkpt><trkpt lat="44.526009723080776" lon="9.240079592100791"><ele>667.25</ele><time>2026-04-18T16:29:54Z</time></trkpt><trkpt lat="44.52604934885463" lon="9.239897347578047"><ele>667.0</ele><time>2026-04-18T16:29:55Z</time></trkpt><trkpt lat="44.52610085387938" lon="9.239716807364749"><ele>668.3333333333334</ele><time>2026-04-18T16:29:56Z</time></trkpt><trkpt lat="44.52617788117407" lon="9.239503948652171"><ele>669.6666666666666</ele><time>2026-04-18T16:29:57Z</time></trkpt><trkpt lat="44.52626692057175" lon="9.239260121071213"><ele>671.0</ele><time>2026-04-18T16:29:58Z</time></trkpt><trkpt lat="44.52634854791072" lon="9.2390268570543"><ele>676.25</ele><time>2026-04-18T16:29:59Z</time></trkpt><trkpt lat="44.52638992862493" lon="9.238827575905736"><ele>681.5</ele><time>2026-04-18T16:30:00Z</time></trkpt><trkpt lat="44.52641880385046" lon="9.238642088839068"><ele>686.75</ele><time>2026-04-18T16:30:01Z</time></trkpt><trkpt lat="44.526417239466866" lon="9.23844719221022"><ele>692.0</ele><time>2026-04-18T16:30:02Z</time></trkpt><trkpt lat="44.52636296277056" lon="9.238240197178074"><ele>695.0</ele><time>2026-04-18T16:30:03Z</time></trkpt><trkpt lat="44.52629705611353" lon="9.238049082678872"><ele>698.0</ele><time>2026-04-18T16:30:04Z</time></trkpt><trkpt lat="44.52620179717236" lon="9.237872521863965"><ele>701.0</ele><time>2026-04-18T16:30:05Z</time></trkpt><trkpt lat="44.52607691289141" lon="9.23769320195911"><ele>698.6666666666666</ele><time>2026-04-18T16:30:06Z</time></trkpt><trkpt lat="44.525949233034055" lon="9.237506569430792"><ele>696.3333333333334</ele><time>2026-04-18T16:30:07Z</time></trkpt><trkpt lat="44.52581239998121" lon="9.237339818330277"><ele>694.0</ele><time>2026-04-18T16:30:08Z</time></trkpt><trkpt lat="44.52566200390309" lon="9.23720241555868"><ele>694.0</ele><time>2026-04-18T16:30:09Z</time></trkpt><trkpt lat="44.52549814412447" lon="9.237069515341949"><ele>694.0</ele><time>2026-04-18T16:30:09.999Z</time></trkpt><trkpt lat="44.52538753060648" lon="9.236856493323675"><ele>694.0</ele><time>2026-04-18T16:30:10.999Z</time></trkpt><trkpt lat="44.52527073891545" lon="9.236636812475664"><ele>696.3333333333334</ele><time>2026-04-18T16:30:11.999Z</time></trkpt><trkpt lat="44.52516149856731" lon="9.236430498617366"><ele>698.6666666666666</ele><time>2026-04-18T16:30:12.999Z</time></trkpt><trkpt lat="44.52504799492831" lon="9.236279759833518"><ele>701.0</ele><time>2026-04-18T16:30:13.999Z</time></trkpt><trkpt lat="44.52492836893391" lon="9.236155395015555"><ele>701.0</ele><time>2026-04-18T16:30:14.999Z</time></trkpt><trkpt lat="44.52477712790161" lon="9.236049791592684"><ele>701.0</ele><time>2026-04-18T16:30:15.999Z</time></trkpt><trkpt lat="44.52459944626412" lon="9.235985630024055"><ele>701.0</ele><time>2026-04-18T16:30:16.999Z</time></trkpt><trkpt lat="44.52441143896235" lon="9.235940272868632"><ele>697.6666666666666</ele><time>2026-04-18T16:30:17.999Z</time></trkpt><trkpt lat="44.52421602733699" lon="9.235882780200019"><ele>694.3333333333334</ele><time>2026-04-18T16:30:18.999Z</time></trkpt><trkpt lat="44.524014756360025" lon="9.235816014151716"><ele>691.0</ele><time>2026-04-18T16:30:19.999Z</time></trkpt><trkpt lat="44.52380845082033" lon="9.235742204207352"><ele>693.6666666666667</ele><time>2026-04-18T16:30:20.999Z</time></trkpt><trkpt lat="44.52361115330927" lon="9.235669831594016"><ele>696.3333333333334</ele><time>2026-04-18T16:30:21.999Z</time></trkpt><trkpt lat="44.52344172611761" lon="9.235606453438495"><ele>699.0</ele><time>2026-04-18T16:30:22.999Z</time></trkpt><trkpt lat="44.52329177583374" lon="9.2355481436384"><ele>699.0</ele><time>2026-04-18T16:30:23.999Z</time></trkpt><trkpt lat="44.52313900569112" lon="9.23548521564787"><ele>699.0</ele><time>2026-04-18T16:30:24.999Z</time></trkpt><trkpt lat="44.52297308282323" lon="9.235400316200039"><ele>699.0</ele><time>2026-04-18T16:30:25.999Z</time></trkpt><trkpt lat="44.52280756224137" lon="9.235294298614404"><ele>695.6666666666666</ele><time>2026-04-18T16:30:26.999Z</time></trkpt><trkpt lat="44.52264626522747" lon="9.235158221199514"><ele>692.3333333333333</ele><time>2026-04-18T16:30:27.999Z</time></trkpt><trkpt lat="44.52249658667819" lon="9.235004794158014"><ele>689.0</ele><time>2026-04-18T16:30:28.999Z</time></trkpt><trkpt lat="44.52237132772591" lon="9.234858138439257"><ele>689.0</ele><time>2026-04-18T16:30:29.999Z</time></trkpt><trkpt lat="44.52225375858538" lon="9.234705333888535"><ele>689.0</ele><time>2026-04-18T16:30:30.999Z</time></trkpt><trkpt lat="44.522143241331854" lon="9.234558211259397"><ele>689.0</ele><time>2026-04-18T16:30:31.999Z</time></trkpt><trkpt lat="44.52204707591901" lon="9.23443430478347"><ele>689.0</ele><time>2026-04-18T16:30:32.999Z</time></trkpt><trkpt lat="44.52195497448633" lon="9.234310422652594"><ele>689.0</ele><time>2026-04-18T16:30:33.999Z</time></trkpt><trkpt lat="44.52187832654963" lon="9.234158773600969"><ele>689.0</ele><time>2026-04-18T16:30:34.999Z</time></trkpt><trkpt lat="44.521852806443114" lon="9.23396128831261"><ele>689.0</ele><time>2026-04-18T16:30:35.999Z</time></trkpt><trkpt lat="44.521840803081" lon="9.233760776017899"><ele>689.0</ele><time>2026-04-18T16:30:36.999Z</time></trkpt><trkpt lat="44.521813624534076" lon="9.233553170215808"><ele>692.0</ele><time>2026-04-18T16:30:37.999Z</time></trkpt><trkpt lat="44.52180161104159" lon="9.233347569506613"><ele>695.0</ele><time>2026-04-18T16:30:38.999Z</time></trkpt><trkpt lat="44.52177821953691" lon="9.233154617215883"><ele>698.0</ele><time>2026-04-18T16:30:39.999Z</time></trkpt><trkpt lat="44.52175124301162" lon="9.232969743725619"><ele>701.0</ele><time>2026-04-18T16:30:40.999Z</time></trkpt><trkpt lat="44.521724915991335" lon="9.232776420827076"><ele>702.5</ele><time>2026-04-18T16:30:41.999Z</time></trkpt><trkpt lat="44.52170009319302" lon="9.232604649996997"><ele>704.0</ele><time>2026-04-18T16:30:42.999Z</time></trkpt><trkpt lat="44.521647766471446" lon="9.232425628296383"><ele>705.5</ele><time>2026-04-18T16:30:43.999Z</time></trkpt><trkpt lat="44.521557547031136" lon="9.232257155533235"><ele>707.0</ele><time>2026-04-18T16:30:44.999Z</time></trkpt><trkpt lat="44.521445778361006" lon="9.232093973084801"><ele>708.0</ele><time>2026-04-18T16:30:45.999Z</time></trkpt><trkpt lat="44.52133160263214" lon="9.231949364002316"><ele>709.0</ele><time>2026-04-18T16:30:46.999Z</time></trkpt><trkpt lat="44.521210129118145" lon="9.231810566929445"><ele>710.0</ele><time>2026-04-18T16:30:47.999Z</time></trkpt><trkpt lat="44.52106993470073" lon="9.23168920503267"><ele>710.0</ele><time>2026-04-18T16:30:48.999Z</time></trkpt><trkpt lat="44.520920869865726" lon="9.231590358005024"><ele>710.0</ele><time>2026-04-18T16:30:49.999Z</time></trkpt><trkpt lat="44.52076524615083" lon="9.231487251210453"><ele>710.0</ele><time>2026-04-18T16:30:50.999Z</time></trkpt><trkpt lat="44.52063195349333" lon="9.231345222593253"><ele>712.0</ele><time>2026-04-18T16:30:51.999Z</time></trkpt><trkpt lat="44.52050768271349" lon="9.231186770375583"><ele>714.0</ele><time>2026-04-18T16:30:52.999Z</time></trkpt><trkpt lat="44.520383523082685" lon="9.231047621611918"><ele>716.0</ele><time>2026-04-18T16:30:53.999Z</time></trkpt><trkpt lat="44.52027866792277" lon="9.230903870813798"><ele>716.0</ele><time>2026-04-18T16:30:54.999Z</time></trkpt><trkpt lat="44.52017097820494" lon="9.230751903971465"><ele>716.0</ele><time>2026-04-18T16:30:55.999Z</time></trkpt><trkpt lat="44.5200733029956" lon="9.230602976913444"><ele>716.0</ele><time>2026-04-18T16:30:56.999Z</time></trkpt><trkpt lat="44.51998625315488" lon="9.230453375350264"><ele>716.0</ele><time>2026-04-18T16:30:57.999Z</time></trkpt><trkpt lat="44.51987709714918" lon="9.230318540680683"><ele>718.3333333333333</ele><time>2026-04-18T16:30:58.999Z</time></trkpt><trkpt lat="44.51974421964714" lon="9.230215823499094"><ele>720.6666666666666</ele><time>2026-04-18T16:30:59.999Z</time></trkpt><trkpt lat="44.519592099708134" lon="9.230128526696738"><ele>723.0</ele><time>2026-04-18T16:31:00.999Z</time></trkpt><trkpt lat="44.51942829271333" lon="9.230053248371703"><ele>723.0</ele><time>2026-04-18T16:31:01.999Z</time></trkpt><trkpt lat="44.51926252734471" lon="9.229982870109271"><ele>723.0</ele><time>2026-04-18T16:31:02.999Z</time></trkpt><trkpt lat="44.519090490553005" lon="9.229901548826382"><ele>723.0</ele><time>2026-04-18T16:31:03.999Z</time></trkpt><trkpt lat="44.51892400591324" lon="9.229818227627515"><ele>728.3333333333334</ele><time>2026-04-18T16:31:04.999Z</time></trkpt><trkpt lat="44.51877159008336" lon="9.229743759993335"><ele>733.6666666666667</ele><time>2026-04-18T16:31:05.999Z</time></trkpt><trkpt lat="44.51861954308167" lon="9.229669511582467"><ele>739.0</ele><time>2026-04-18T16:31:06.999Z</time></trkpt><trkpt lat="44.518469566098624" lon="9.229593478046192"><ele>739.0</ele><time>2026-04-18T16:31:07.999Z</time></trkpt><trkpt lat="44.51833642722541" lon="9.22952431187296"><ele>739.0</ele><time>2026-04-18T16:31:08.999Z</time></trkpt><trkpt lat="44.51820891437144" lon="9.229475260158749"><ele>739.0</ele><time>2026-04-18T16:31:09.999Z</time></trkpt><trkpt lat="44.51805828995258" lon="9.229452529617387"><ele>739.0</ele><time>2026-04-18T16:31:10.999Z</time></trkpt><trkpt lat="44.51789865386901" lon="9.229461082887777"><ele>744.3333333333334</ele><time>2026-04-18T16:31:11.999Z</time></trkpt><trkpt lat="44.51773989290212" lon="9.229492768672173"><ele>749.6666666666666</ele><time>2026-04-18T16:31:13Z</time></trkpt><trkpt lat="44.51757241113162" lon="9.229526156749431"><ele>755.0</ele><time>2026-04-18T16:31:14Z</time></trkpt><trkpt lat="44.51738852982269" lon="9.229530182748848"><ele>755.0</ele><time>2026-04-18T16:31:15Z</time></trkpt><trkpt lat="44.51721705498936" lon="9.229509653588122"><ele>755.0</ele><time>2026-04-18T16:31:16Z</time></trkpt><trkpt lat="44.51706911188833" lon="9.229500879540232"><ele>755.0</ele><time>2026-04-18T16:31:17Z</time></trkpt><trkpt lat="44.51691941736309" lon="9.22954299121697"><ele>756.5</ele><time>2026-04-18T16:31:18Z</time></trkpt><trkpt lat="44.516773628678585" lon="9.229607158265312"><ele>758.0</ele><time>2026-04-18T16:31:19Z</time></trkpt><trkpt lat="44.51664322405087" lon="9.229677090901848"><ele>759.5</ele><time>2026-04-18T16:31:20Z</time></trkpt><trkpt lat="44.51652177355561" lon="9.229709281342114"><ele>761.0</ele><time>2026-04-18T16:31:21Z</time></trkpt><trkpt lat="44.516406577732624" lon="9.229745308844116"><ele>761.0</ele><time>2026-04-18T16:31:22Z</time></trkpt><trkpt lat="44.51627339765298" lon="9.229709429054152"><ele>761.0</ele><time>2026-04-18T16:31:23Z</time></trkpt><trkpt lat="44.51615686442784" lon="9.229609638776958"><ele>761.0</ele><time>2026-04-18T16:31:24Z</time></trkpt><trkpt lat="44.51606181406727" lon="9.229525020918175"><ele>761.0</ele><time>2026-04-18T16:31:25Z</time></trkpt><trkpt lat="44.51599446761388" lon="9.229394919510248"><ele>754.25</ele><time>2026-04-18T16:31:26Z</time></trkpt><trkpt lat="44.515956138456495" lon="9.229225348416943"><ele>747.5</ele><time>2026-04-18T16:31:27Z</time></trkpt><trkpt lat="44.515892257026124" lon="9.229070934065266"><ele>740.75</ele><time>2026-04-18T16:31:28Z</time></trkpt><trkpt lat="44.51585730279769" lon="9.228930577036834"><ele>734.0</ele><time>2026-04-18T16:31:29Z</time></trkpt><trkpt lat="44.51583394218927" lon="9.228790271823584"><ele>734.0</ele><time>2026-04-18T16:31:30Z</time></trkpt><trkpt lat="44.51585773712026" lon="9.228641581869459"><ele>734.0</ele><time>2026-04-18T16:31:31Z</time></trkpt><trkpt lat="44.51588922547871" lon="9.228484337191079"><ele>734.0</ele><time>2026-04-18T16:31:32Z</time></trkpt><trkpt lat="44.51590857658833" lon="9.228298051189014"><ele>734.0</ele><time>2026-04-18T16:31:33Z</time></trkpt><trkpt lat="44.51595094850776" lon="9.228105656969747"><ele>734.25</ele><time>2026-04-18T16:31:34Z</time></trkpt><trkpt lat="44.51598707506543" lon="9.227921739490352"><ele>734.5</ele><time>2026-04-18T16:31:35Z</time></trkpt><trkpt lat="44.51602856598584" lon="9.227754258847748"><ele>734.75</ele><time>2026-04-18T16:31:36Z</time></trkpt><trkpt lat="44.51606852803666" lon="9.227600005446936"><ele>735.0</ele><time>2026-04-18T16:31:37Z</time></trkpt><trkpt lat="44.51611169834657" lon="9.227441513384484"><ele>733.75</ele><time>2026-04-18T16:31:38Z</time></trkpt><trkpt lat="44.51615964529221" lon="9.22728294402874"><ele>732.5</ele><time>2026-04-18T16:31:39Z</time></trkpt><trkpt lat="44.51620517260012" lon="9.227122090320895"><ele>731.25</ele><time>2026-04-18T16:31:40Z</time></trkpt><trkpt lat="44.51624904336964" lon="9.226959620092535"><ele>730.0</ele><time>2026-04-18T16:31:41Z</time></trkpt><trkpt lat="44.516297552810734" lon="9.226792937740615"><ele>741.25</ele><time>2026-04-18T16:31:42Z</time></trkpt><trkpt lat="44.5163402294066" lon="9.226612923533873"><ele>752.5</ele><time>2026-04-18T16:31:43Z</time></trkpt><trkpt lat="44.516362382792884" lon="9.226404575988772"><ele>763.75</ele><time>2026-04-18T16:31:44Z</time></trkpt><trkpt lat="44.51636823881735" lon="9.226189557114516"><ele>775.0</ele><time>2026-04-18T16:31:45Z</time></trkpt><trkpt lat="44.5163753265086" lon="9.225998595505036"><ele>775.0</ele><time>2026-04-18T16:31:46Z</time></trkpt><trkpt lat="44.516421635167866" lon="9.225834866927219"><ele>775.0</ele><time>2026-04-18T16:31:47Z</time></trkpt><trkpt lat="44.51647885274317" lon="9.225650666870871"><ele>775.0</ele><time>2026-04-18T16:31:48Z</time></trkpt><trkpt lat="44.516538997733356" lon="9.225463155494621"><ele>775.0</ele><time>2026-04-18T16:31:49Z</time></trkpt><trkpt lat="44.51660597107081" lon="9.225308722663918"><ele>775.8</ele><time>2026-04-18T16:31:50Z</time></trkpt><trkpt lat="44.5166554374952" lon="9.225175758336492"><ele>776.6</ele><time>2026-04-18T16:31:51Z</time></trkpt><trkpt lat="44.51669132266661" lon="9.22507374110054"><ele>777.4000000000001</ele><time>2026-04-18T16:31:52Z</time></trkpt><trkpt lat="44.51670841030366" lon="9.224959533557145"><ele>778.2</ele><time>2026-04-18T16:31:53Z</time></trkpt><trkpt lat="44.516654332322304" lon="9.224845706485501"><ele>779.0</ele><time>2026-04-18T16:31:54Z</time></trkpt><trkpt lat="44.51655771710243" lon="9.224754868131171"><ele>773.5</ele><time>2026-04-18T16:31:55Z</time></trkpt><trkpt lat="44.51645615083114" lon="9.224726319327392"><ele>768.0</ele><time>2026-04-18T16:31:56Z</time></trkpt><trkpt lat="44.516338163540084" lon="9.224740988121921"><ele>762.5</ele><time>2026-04-18T16:31:57Z</time></trkpt><trkpt lat="44.516213474505115" lon="9.224767828440136"><ele>757.0</ele><time>2026-04-18T16:31:58Z</time></trkpt><trkpt lat="44.516095495308896" lon="9.224709745905578"><ele>757.0</ele><time>2026-04-18T16:31:59Z</time></trkpt><trkpt lat="44.51599822213186" lon="9.224647885199124"><ele>757.0</ele><time>2026-04-18T16:32:00Z</time></trkpt><trkpt lat="44.51590615880495" lon="9.22459571015039"><ele>757.0</ele><time>2026-04-18T16:32:01Z</time></trkpt><trkpt lat="44.51583921116711" lon="9.224480509460822"><ele>757.0</ele><time>2026-04-18T16:32:02Z</time></trkpt><trkpt lat="44.51580099864539" lon="9.224329628029489"><ele>757.0</ele><time>2026-04-18T16:32:03Z</time></trkpt><trkpt lat="44.515784941089706" lon="9.224155216241616"><ele>757.0</ele><time>2026-04-18T16:32:04Z</time></trkpt><trkpt lat="44.51579314856609" lon="9.22399392544446"><ele>757.0</ele><time>2026-04-18T16:32:05Z</time></trkpt><trkpt lat="44.51580735201045" lon="9.223864967124932"><ele>757.0</ele><time>2026-04-18T16:32:06Z</time></trkpt><trkpt lat="44.51582325448533" lon="9.22374085695187"><ele>757.0</ele><time>2026-04-18T16:32:07Z</time></trkpt><trkpt lat="44.51580891592515" lon="9.223621969654728"><ele>757.0</ele><time>2026-04-18T16:32:08Z</time></trkpt><trkpt lat="44.51575427924024" lon="9.223537585274267"><ele>759.6666666666667</ele><time>2026-04-18T16:32:09Z</time></trkpt><trkpt lat="44.515649342430855" lon="9.22350167832225"><ele>762.3333333333334</ele><time>2026-04-18T16:32:10Z</time></trkpt><trkpt lat="44.515569597486675" lon="9.223457648737915"><ele>765.0</ele><time>2026-04-18T16:32:10.999Z</time></trkpt><trkpt lat="44.51549346481716" lon="9.223404363802208"><ele>767.6666666666667</ele><time>2026-04-18T16:32:11.999Z</time></trkpt><trkpt lat="44.515444126845814" lon="9.223329571706746"><ele>770.3333333333334</ele><time>2026-04-18T16:32:12.999Z</time></trkpt><trkpt lat="44.51541042197327" lon="9.223244106541115"><ele>773.0</ele><time>2026-04-18T16:32:13.999Z</time></trkpt><trkpt lat="44.51541096750653" lon="9.223134207390533"><ele>773.0000000000001</ele><time>2026-04-18T16:32:14.999Z</time></trkpt><trkpt lat="44.5154559639963" lon="9.22304073035243"><ele>773.0</ele><time>2026-04-18T16:32:15.999Z</time></trkpt><trkpt lat="44.5155181394528" lon="9.222958342167729"><ele>773.0</ele><time>2026-04-18T16:32:16.999Z</time></trkpt><trkpt lat="44.51560451803448" lon="9.22288627685813"><ele>773.0</ele><time>2026-04-18T16:32:17.999Z</time></trkpt><trkpt lat="44.51567704923408" lon="9.222814045718001"><ele>773.0000000000001</ele><time>2026-04-18T16:32:18.999Z</time></trkpt><trkpt lat="44.51574807799655" lon="9.222740451558797"><ele>773.0</ele><time>2026-04-18T16:32:19.999Z</time></trkpt><trkpt lat="44.51581724421441" lon="9.222648513551226"><ele>773.0000000000001</ele><time>2026-04-18T16:32:20.999Z</time></trkpt><trkpt lat="44.51587046131314" lon="9.222538802036476"><ele>773.0</ele><time>2026-04-18T16:32:21.999Z</time></trkpt><trkpt lat="44.51590203720461" lon="9.222434309270282"><ele>773.0</ele><time>2026-04-18T16:32:22.999Z</time></trkpt><trkpt lat="44.51590388815419" lon="9.22232220665695"><ele>773.0</ele><time>2026-04-18T16:32:23.999Z</time></trkpt><trkpt lat="44.515871820861854" lon="9.2222184801123"><ele>773.0000000000001</ele><time>2026-04-18T16:32:24.999Z</time></trkpt><trkpt lat="44.515804600729616" lon="9.222139819189724"><ele>773.0</ele><time>2026-04-18T16:32:25.999Z</time></trkpt><trkpt lat="44.515718316840754" lon="9.222106532065975"><ele>778.25</ele><time>2026-04-18T16:32:26.999Z</time></trkpt><trkpt lat="44.515601510086995" lon="9.222112315385719"><ele>783.5</ele><time>2026-04-18T16:32:27.999Z</time></trkpt><trkpt lat="44.515461519369026" lon="9.222142935500875"><ele>788.75</ele><time>2026-04-18T16:32:28.999Z</time></trkpt><trkpt lat="44.51532813713041" lon="9.222154189383225"><ele>794.0</ele><time>2026-04-18T16:32:29.999Z</time></trkpt><trkpt lat="44.515176980157094" lon="9.222145591811024"><ele>794.0</ele><time>2026-04-18T16:32:30.999Z</time></trkpt><trkpt lat="44.51504069173467" lon="9.222119423711934"><ele>794.0</ele><time>2026-04-18T16:32:31.999Z</time></trkpt><trkpt lat="44.514904907027784" lon="9.222117080535297"><ele>794.0</ele><time>2026-04-18T16:32:32.999Z</time></trkpt><trkpt lat="44.514743880732645" lon="9.222164478013843"><ele>794.0</ele><time>2026-04-18T16:32:33.999Z</time></trkpt><trkpt lat="44.514594962122885" lon="9.222216587675703"><ele>794.6666666666667</ele><time>2026-04-18T16:32:34.999Z</time></trkpt><trkpt lat="44.51445922274883" lon="9.222235067964467"><ele>795.3333333333333</ele><time>2026-04-18T16:32:35.999Z</time></trkpt><trkpt lat="44.514307914324576" lon="9.222232728213216"><ele>796.0</ele><time>2026-04-18T16:32:36.999Z</time></trkpt><trkpt lat="44.51413909791257" lon="9.222214842675552"><ele>796.0</ele><time>2026-04-18T16:32:37.999Z</time></trkpt><trkpt lat="44.51396928611708" lon="9.222222831698144"><ele>796.0</ele><time>2026-04-18T16:32:38.999Z</time></trkpt><trkpt lat="44.51383196946948" lon="9.222221599589709"><ele>796.0</ele><time>2026-04-18T16:32:39.999Z</time></trkpt><trkpt lat="44.513728866370904" lon="9.222194002330715"><ele>796.0</ele><time>2026-04-18T16:32:40.999Z</time></trkpt><trkpt lat="44.51364266851396" lon="9.222154577300207"><ele>797.0</ele><time>2026-04-18T16:32:41.999Z</time></trkpt><trkpt lat="44.51329847659364" lon="9.222140069593816"><ele>798.0</ele><time>2026-04-18T16:32:42.999Z</time></trkpt><trkpt lat="44.513166330676434" lon="9.222106322160178"><ele>798.0</ele><time>2026-04-18T16:32:43.999Z</time></trkpt><trkpt lat="44.51305142342396" lon="9.222091000912425"><ele>798.0</ele><time>2026-04-18T16:32:44.999Z</time></trkpt><trkpt lat="44.51290798696354" lon="9.222117745141631"><ele>798.0</ele><time>2026-04-18T16:32:45.999Z</time></trkpt><trkpt lat="44.51278958241623" lon="9.22215238252092"><ele>798.0</ele><time>2026-04-18T16:32:46.999Z</time></trkpt><trkpt lat="44.51268671197823" lon="9.22217980403756"><ele>795.2</ele><time>2026-04-18T16:32:47.999Z</time></trkpt><trkpt lat="44.512591640949" lon="9.222185365520902"><ele>792.4</ele><time>2026-04-18T16:32:48.999Z</time></trkpt><trkpt lat="44.51249681694275" lon="9.222161853600593"><ele>789.6</ele><time>2026-04-18T16:32:49.999Z</time></trkpt><trkpt lat="44.512405331548536" lon="9.222093763630165"><ele>786.8000000000001</ele><time>2026-04-18T16:32:50.999Z</time></trkpt><trkpt lat="44.51232975895245" lon="9.221940748777957"><ele>784.0</ele><time>2026-04-18T16:32:51.999Z</time></trkpt><trkpt lat="44.51223222233942" lon="9.22179931197949"><ele>784.0</ele><time>2026-04-18T16:32:52.999Z</time></trkpt><trkpt lat="44.51214954731141" lon="9.221680189511988"><ele>784.0</ele><time>2026-04-18T16:32:53.999Z</time></trkpt><trkpt lat="44.51204992230867" lon="9.221537695232302"><ele>784.0</ele><time>2026-04-18T16:32:54.999Z</time></trkpt><trkpt lat="44.51195840885104" lon="9.221423656056578"><ele>784.0</ele><time>2026-04-18T16:32:55.999Z</time></trkpt><trkpt lat="44.511883631407485" lon="9.221307170663996"><ele>779.5</ele><time>2026-04-18T16:32:56.999Z</time></trkpt><trkpt lat="44.5118217740522" lon="9.221154868263326"><ele>775.0</ele><time>2026-04-18T16:32:57.999Z</time></trkpt><trkpt lat="44.51175702515038" lon="9.220987542297438"><ele>770.5</ele><time>2026-04-18T16:32:58.999Z</time></trkpt><trkpt lat="44.511681639395626" lon="9.22084478212548"><ele>766.0</ele><time>2026-04-18T16:32:59.999Z</time></trkpt><trkpt lat="44.51161330035708" lon="9.220731040692835"><ele>768.0</ele><time>2026-04-18T16:33:00.999Z</time></trkpt><trkpt lat="44.511528038900735" lon="9.220613756803935"><ele>770.0</ele><time>2026-04-18T16:33:01.999Z</time></trkpt><trkpt lat="44.51142367179921" lon="9.220489825594438"><ele>772.0</ele><time>2026-04-18T16:33:02.999Z</time></trkpt><trkpt lat="44.511337736220156" lon="9.220365134703185"><ele>774.0</ele><time>2026-04-18T16:33:03.999Z</time></trkpt><trkpt lat="44.51126593935868" lon="9.220267657488"><ele>774.0</ele><time>2026-04-18T16:33:04.999Z</time></trkpt><trkpt lat="44.511234821530884" lon="9.220187923448503"><ele>774.0</ele><time>2026-04-18T16:33:05.999Z</time></trkpt><trkpt lat="44.51121473412904" lon="9.22009859641264"><ele>774.0</ele><time>2026-04-18T16:33:06.999Z</time></trkpt><trkpt lat="44.51123554108921" lon="9.220013864256071"><ele>774.0</ele><time>2026-04-18T16:33:07.999Z</time></trkpt><trkpt lat="44.51127903986422" lon="9.21993577510128"><ele>774.0</ele><time>2026-04-18T16:33:08.999Z</time></trkpt><trkpt lat="44.511370142805106" lon="9.21988560862097"><ele>774.0</ele><time>2026-04-18T16:33:09.999Z</time></trkpt><trkpt lat="44.511487810618455" lon="9.219798506281675"><ele>766.0</ele><time>2026-04-18T16:33:10.999Z</time></trkpt><trkpt lat="44.511632551688606" lon="9.219693563267754"><ele>758.0</ele><time>2026-04-18T16:33:11.999Z</time></trkpt><trkpt lat="44.511784322059384" lon="9.219582165391067"><ele>750.0</ele><time>2026-04-18T16:33:12.999Z</time></trkpt><trkpt lat="44.5119128397615" lon="9.219495132267815"><ele>750.0</ele><time>2026-04-18T16:33:13.999Z</time></trkpt><trkpt lat="44.512003206635846" lon="9.219435274997446"><ele>750.0</ele><time>2026-04-18T16:33:14.999Z</time></trkpt><trkpt lat="44.512102151902795" lon="9.219361241283725"><ele>750.0</ele><time>2026-04-18T16:33:15.999Z</time></trkpt><trkpt lat="44.512227593438126" lon="9.219300902389648"><ele>750.0</ele><time>2026-04-18T16:33:16.999Z</time></trkpt><trkpt lat="44.51238664011904" lon="9.219267244007655"><ele>752.3333333333334</ele><time>2026-04-18T16:33:17.999Z</time></trkpt><trkpt lat="44.51253987198721" lon="9.219242716580597"><ele>754.6666666666667</ele><time>2026-04-18T16:33:19Z</time></trkpt><trkpt lat="44.512702519350455" lon="9.219238289806771"><ele>757.0</ele><time>2026-04-18T16:33:20Z</time></trkpt><trkpt lat="44.512853194689356" lon="9.219248714941791"><ele>758.5</ele><time>2026-04-18T16:33:21Z</time></trkpt><trkpt lat="44.51299677724343" lon="9.219271366232878"><ele>760.0</ele><time>2026-04-18T16:33:22Z</time></trkpt><trkpt lat="44.51313291358833" lon="9.219281993542138"><ele>761.5</ele><time>2026-04-18T16:33:23Z</time></trkpt><trkpt lat="44.51326454647758" lon="9.219267800649659"><ele>763.0</ele><time>2026-04-18T16:33:24Z</time></trkpt><trkpt lat="44.513387427984625" lon="9.219248515266143"><ele>763.0</ele><time>2026-04-18T16:33:25Z</time></trkpt><trkpt lat="44.51351065277674" lon="9.21919464196714"><ele>763.0</ele><time>2026-04-18T16:33:26Z</time></trkpt><trkpt lat="44.51364231511921" lon="9.219109925479406"><ele>763.0</ele><time>2026-04-18T16:33:27Z</time></trkpt><trkpt lat="44.513767055995075" lon="9.219030046059128"><ele>763.0</ele><time>2026-04-18T16:33:28Z</time></trkpt><trkpt lat="44.51388716797559" lon="9.21892975368505"><ele>759.25</ele><time>2026-04-18T16:33:29Z</time></trkpt><trkpt lat="44.514000857041125" lon="9.218820364078134"><ele>755.5</ele><time>2026-04-18T16:33:30Z</time></trkpt><trkpt lat="44.514115063090806" lon="9.218715954109534"><ele>751.75</ele><time>2026-04-18T16:33:31Z</time></trkpt><trkpt lat="44.51422597883262" lon="9.218646906412083"><ele>748.0</ele><time>2026-04-18T16:33:32Z</time></trkpt><trkpt lat="44.51429540517002" lon="9.21857623549047"><ele>748.0</ele><time>2026-04-18T16:33:33Z</time></trkpt><trkpt lat="44.51435087830048" lon="9.21850798469139"><ele>748.0</ele><time>2026-04-18T16:33:34Z</time></trkpt><trkpt lat="44.514392114427736" lon="9.218411784889616"><ele>748.0</ele><time>2026-04-18T16:33:35Z</time></trkpt><trkpt lat="44.514423847905654" lon="9.218278195599089"><ele>748.0</ele><time>2026-04-18T16:33:36Z</time></trkpt><trkpt lat="44.51444953650245" lon="9.218139091606211"><ele>748.0</ele><time>2026-04-18T16:33:37Z</time></trkpt><trkpt lat="44.5144997997408" lon="9.218028192231019"><ele>745.25</ele><time>2026-04-18T16:33:38Z</time></trkpt><trkpt lat="44.51453099194915" lon="9.217895403212108"><ele>742.5</ele><time>2026-04-18T16:33:39Z</time></trkpt><trkpt lat="44.51451394962385" lon="9.217730705628757"><ele>739.75</ele><time>2026-04-18T16:33:40Z</time></trkpt><trkpt lat="44.51450183891855" lon="9.217560230677659"><ele>737.0</ele><time>2026-04-18T16:33:41Z</time></trkpt><trkpt lat="44.51450153611916" lon="9.217393826859915"><ele>738.0</ele><time>2026-04-18T16:33:42Z</time></trkpt><trkpt lat="44.514474563449845" lon="9.217256804966123"><ele>739.0</ele><time>2026-04-18T16:33:43Z</time></trkpt><trkpt lat="44.514462336253175" lon="9.217119425530688"><ele>740.0</ele><time>2026-04-18T16:33:44Z</time></trkpt><trkpt lat="44.51447156692973" lon="9.21696524692546"><ele>741.0</ele><time>2026-04-18T16:33:45Z</time></trkpt><trkpt lat="44.51450711700322" lon="9.216814127614683"><ele>742.0</ele><time>2026-04-18T16:33:46Z</time></trkpt><trkpt lat="44.51456967317558" lon="9.216663591684506"><ele>747.75</ele><time>2026-04-18T16:33:47Z</time></trkpt><trkpt lat="44.51462587505108" lon="9.216479507821973"><ele>753.5</ele><time>2026-04-18T16:33:48Z</time></trkpt><trkpt lat="44.51468611361183" lon="9.216310422694677"><ele>759.25</ele><time>2026-04-18T16:33:49Z</time></trkpt><trkpt lat="44.51473949182057" lon="9.216170538116934"><ele>765.0</ele><time>2026-04-18T16:33:50Z</time></trkpt><trkpt lat="44.514792711695826" lon="9.216054174376296"><ele>765.0</ele><time>2026-04-18T16:33:51Z</time></trkpt><trkpt lat="44.51487646236185" lon="9.215978988567896"><ele>765.0</ele><time>2026-04-18T16:33:52Z</time></trkpt><trkpt lat="44.51493687139533" lon="9.215895458536016"><ele>765.0</ele><time>2026-04-18T16:33:53Z</time></trkpt><trkpt lat="44.51499906609389" lon="9.21586208284708"><ele>765.0</ele><time>2026-04-18T16:33:54Z</time></trkpt><trkpt lat="44.515037940896164" lon="9.215787514837496"><ele>765.0</ele><time>2026-04-18T16:33:55Z</time></trkpt><trkpt lat="44.5150450944941" lon="9.215683327864589"><ele>765.0</ele><time>2026-04-18T16:33:56Z</time></trkpt><trkpt lat="44.515014051784775" lon="9.215571824418921"><ele>764.0</ele><time>2026-04-18T16:33:57Z</time></trkpt><trkpt lat="44.51494204867976" lon="9.215496988576302"><ele>763.0</ele><time>2026-04-18T16:33:58Z</time></trkpt><trkpt lat="44.51485455360066" lon="9.215480356532474"><ele>762.0</ele><time>2026-04-18T16:33:59Z</time></trkpt><trkpt lat="44.51475784480248" lon="9.215525911560967"><ele>761.0</ele><time>2026-04-18T16:34:00Z</time></trkpt><trkpt lat="44.5146509049243" lon="9.215592992919314"><ele>760.0</ele><time>2026-04-18T16:34:01Z</time></trkpt><trkpt lat="44.51453383111093" lon="9.215670641799745"><ele>760.0</ele><time>2026-04-18T16:34:02Z</time></trkpt><trkpt lat="44.51440860375102" lon="9.215732912066862"><ele>760.0</ele><time>2026-04-18T16:34:03Z</time></trkpt><trkpt lat="44.514278481729704" lon="9.215748493870343"><ele>760.0</ele><time>2026-04-18T16:34:04Z</time></trkpt><trkpt lat="44.5141559031587" lon="9.215804173448896"><ele>760.0</ele><time>2026-04-18T16:34:05Z</time></trkpt><trkpt lat="44.514050812565955" lon="9.215835724317769"><ele>760.0</ele><time>2026-04-18T16:34:06Z</time></trkpt><trkpt lat="44.51395863362921" lon="9.215874038725616"><ele>760.0</ele><time>2026-04-18T16:34:07Z</time></trkpt><trkpt lat="44.51387627255944" lon="9.215866201523111"><ele>760.0</ele><time>2026-04-18T16:34:08Z</time></trkpt><trkpt lat="44.513800226703836" lon="9.215804389280942"><ele>760.0</ele><time>2026-04-18T16:34:09Z</time></trkpt><trkpt lat="44.51371826454697" lon="9.215731467024902"><ele>760.0</ele><time>2026-04-18T16:34:10Z</time></trkpt><trkpt lat="44.51362651636162" lon="9.21564615628019"><ele>757.8333333333334</ele><time>2026-04-18T16:34:11Z</time></trkpt><trkpt lat="44.51354373684049" lon="9.215545191050612"><ele>755.6666666666667</ele><time>2026-04-18T16:34:12Z</time></trkpt><trkpt lat="44.51346965385818" lon="9.215475792770107"><ele>753.5</ele><time>2026-04-18T16:34:13Z</time></trkpt><trkpt lat="44.51341857874699" lon="9.215397175974658"><ele>751.3333333333334</ele><time>2026-04-18T16:34:14Z</time></trkpt><trkpt lat="44.513398415966456" lon="9.215296454098283"><ele>749.1666666666666</ele><time>2026-04-18T16:34:15Z</time></trkpt><trkpt lat="44.513404626297024" lon="9.215183469590027"><ele>747.0</ele><time>2026-04-18T16:34:16Z</time></trkpt><trkpt lat="44.51345841822799" lon="9.215081229126445"><ele>747.0</ele><time>2026-04-18T16:34:17Z</time></trkpt><trkpt lat="44.51352572013555" lon="9.21499341505026"><ele>747.0</ele><time>2026-04-18T16:34:18Z</time></trkpt><trkpt lat="44.51363377291275" lon="9.21488474759902"><ele>747.0</ele><time>2026-04-18T16:34:19Z</time></trkpt><trkpt lat="44.51376336620339" lon="9.214752259166842"><ele>747.0</ele><time>2026-04-18T16:34:20Z</time></trkpt><trkpt lat="44.513916466451434" lon="9.214597741265882"><ele>748.0</ele><time>2026-04-18T16:34:21Z</time></trkpt><trkpt lat="44.51406051406059" lon="9.214457992139668"><ele>749.0</ele><time>2026-04-18T16:34:21.999Z</time></trkpt><trkpt lat="44.514176271913186" lon="9.214346484010319"><ele>750.0</ele><time>2026-04-18T16:34:22.999Z</time></trkpt><trkpt lat="44.514288700518115" lon="9.214228583632483"><ele>750.0</ele><time>2026-04-18T16:34:23.999Z</time></trkpt><trkpt lat="44.51439269406961" lon="9.214006776209002"><ele>750.0</ele><time>2026-04-18T16:34:24.999Z</time></trkpt><trkpt lat="44.51450085398911" lon="9.213812728212151"><ele>750.0</ele><time>2026-04-18T16:34:25.999Z</time></trkpt><trkpt lat="44.51458332646871" lon="9.213662426546986"><ele>752.2</ele><time>2026-04-18T16:34:26.999Z</time></trkpt><trkpt lat="44.51463845057489" lon="9.213539564531457"><ele>754.4</ele><time>2026-04-18T16:34:27.999Z</time></trkpt><trkpt lat="44.51465589606676" lon="9.213413102100851"><ele>756.5999999999999</ele><time>2026-04-18T16:34:28.999Z</time></trkpt><trkpt lat="44.5146397993821" lon="9.213270786605884"><ele>758.8</ele><time>2026-04-18T16:34:29.999Z</time></trkpt><trkpt lat="44.51458203377827" lon="9.213158119192125"><ele>761.0</ele><time>2026-04-18T16:34:30.999Z</time></trkpt><trkpt lat="44.51448580397509" lon="9.213077356592578"><ele>759.5</ele><time>2026-04-18T16:34:31.999Z</time></trkpt><trkpt lat="44.51437394872148" lon="9.213050907088887"><ele>758.0</ele><time>2026-04-18T16:34:32.999Z</time></trkpt><trkpt lat="44.514253772596234" lon="9.213094080297637"><ele>756.5</ele><time>2026-04-18T16:34:33.999Z</time></trkpt><trkpt lat="44.51412659928384" lon="9.213200164735948"><ele>755.0</ele><time>2026-04-18T16:34:34.999Z</time></trkpt><trkpt lat="44.51396924146465" lon="9.213356388789233"><ele>755.0</ele><time>2026-04-18T16:34:35.999Z</time></trkpt><trkpt lat="44.513808676049564" lon="9.213506659287487"><ele>755.0</ele><time>2026-04-18T16:34:36.999Z</time></trkpt><trkpt lat="44.51362210277493" lon="9.213659224994165"><ele>755.0</ele><time>2026-04-18T16:34:37.999Z</time></trkpt><trkpt lat="44.51340255033966" lon="9.213777269633537"><ele>755.0</ele><time>2026-04-18T16:34:38.999Z</time></trkpt><trkpt lat="44.51319906606588" lon="9.213926400611852"><ele>755.0</ele><time>2026-04-18T16:34:39.999Z</time></trkpt><trkpt lat="44.51303359367741" lon="9.214011621139676"><ele>755.0</ele><time>2026-04-18T16:34:40.999Z</time></trkpt><trkpt lat="44.51289891524457" lon="9.214096287403347"><ele>755.0</ele><time>2026-04-18T16:34:41.999Z</time></trkpt><trkpt lat="44.51276526960659" lon="9.214211296663251"><ele>755.0</ele><time>2026-04-18T16:34:42.999Z</time></trkpt><trkpt lat="44.51265335641742" lon="9.214336926228201"><ele>755.0</ele><time>2026-04-18T16:34:43.999Z</time></trkpt><trkpt lat="44.512554771940266" lon="9.214432820198539"><ele>755.0</ele><time>2026-04-18T16:34:44.999Z</time></trkpt><trkpt lat="44.51246784034786" lon="9.214457395642635"><ele>755.0</ele><time>2026-04-18T16:34:45.999Z</time></trkpt><trkpt lat="44.512387696122794" lon="9.214459268283617"><ele>755.0</ele><time>2026-04-18T16:34:46.999Z</time></trkpt><trkpt lat="44.51231874543089" lon="9.214365895358924"><ele>755.0</ele><time>2026-04-18T16:34:47.999Z</time></trkpt><trkpt lat="44.51226992529891" lon="9.214228292665492"><ele>755.0</ele><time>2026-04-18T16:34:48.999Z</time></trkpt><trkpt lat="44.51228604222975" lon="9.214049586431615"><ele>755.0</ele><time>2026-04-18T16:34:49.999Z</time></trkpt><trkpt lat="44.51229632349657" lon="9.21381867588012"><ele>759.3333333333333</ele><time>2026-04-18T16:34:50.999Z</time></trkpt><trkpt lat="44.51229609802503" lon="9.213569843609305"><ele>763.6666666666666</ele><time>2026-04-18T16:34:51.999Z</time></trkpt><trkpt lat="44.512309830620566" lon="9.213345959000131"><ele>768.0</ele><time>2026-04-18T16:34:52.999Z</time></trkpt><trkpt lat="44.51231448995184" lon="9.213177181625511"><ele>765.75</ele><time>2026-04-18T16:34:53.999Z</time></trkpt><trkpt lat="44.51232769950975" lon="9.213032567104998"><ele>763.5</ele><time>2026-04-18T16:34:54.999Z</time></trkpt><trkpt lat="44.51237474868417" lon="9.212907747617614"><ele>761.25</ele><time>2026-04-18T16:34:55.999Z</time></trkpt><trkpt lat="44.5124841655062" lon="9.21278976750281"><ele>759.0</ele><time>2026-04-18T16:34:56.999Z</time></trkpt><trkpt lat="44.51258984836663" lon="9.212636071026905"><ele>759.0</ele><time>2026-04-18T16:34:57.999Z</time></trkpt><trkpt lat="44.51267675788515" lon="9.21245221159863"><ele>759.0</ele><time>2026-04-18T16:34:58.999Z</time></trkpt><trkpt lat="44.512764086836874" lon="9.21223807351064"><ele>759.0</ele><time>2026-04-18T16:34:59.999Z</time></trkpt><trkpt lat="44.51283007523916" lon="9.21198487272032"><ele>757.0</ele><time>2026-04-18T16:35:00.999Z</time></trkpt><trkpt lat="44.512873803782874" lon="9.21174003895051"><ele>755.0</ele><time>2026-04-18T16:35:01.999Z</time></trkpt><trkpt lat="44.51292721371496" lon="9.211468787710423"><ele>753.0</ele><time>2026-04-18T16:35:02.999Z</time></trkpt><trkpt lat="44.51297043794524" lon="9.211172940104504"><ele>766.0</ele><time>2026-04-18T16:35:03.999Z</time></trkpt><trkpt lat="44.51301143740075" lon="9.210879880953156"><ele>779.0</ele><time>2026-04-18T16:35:04.999Z</time></trkpt><trkpt lat="44.51305636177859" lon="9.210584309718817"><ele>792.0</ele><time>2026-04-18T16:35:05.999Z</time></trkpt><trkpt lat="44.51309477581518" lon="9.210331571976473"><ele>792.25</ele><time>2026-04-18T16:35:06.999Z</time></trkpt><trkpt lat="44.51312916156868" lon="9.210105337486516"><ele>792.5</ele><time>2026-04-18T16:35:07.999Z</time></trkpt><trkpt lat="44.51315831956689" lon="9.209913498039278"><ele>792.75</ele><time>2026-04-18T16:35:08.999Z</time></trkpt><trkpt lat="44.513182581582" lon="9.209753870848349"><ele>793.0</ele><time>2026-04-18T16:35:09.999Z</time></trkpt><trkpt lat="44.51319014605555" lon="9.209622119920045"><ele>793.6666666666666</ele><time>2026-04-18T16:35:10.999Z</time></trkpt><trkpt lat="44.51320866976064" lon="9.209517059061357"><ele>794.3333333333333</ele><time>2026-04-18T16:35:11.999Z</time></trkpt><trkpt lat="44.513158108513956" lon="9.209419948988922"><ele>795.0</ele><time>2026-04-18T16:35:12.999Z</time></trkpt><trkpt lat="44.5130942401781" lon="9.209360985488967"><ele>795.6666666666667</ele><time>2026-04-18T16:35:13.999Z</time></trkpt><trkpt lat="44.5130091678084" lon="9.209350830078398"><ele>796.3333333333334</ele><time>2026-04-18T16:35:14.999Z</time></trkpt><trkpt lat="44.5129244629927" lon="9.2094206224972"><ele>797.0</ele><time>2026-04-18T16:35:15.999Z</time></trkpt><trkpt lat="44.5128581680354" lon="9.209539864430118"><ele>794.8333333333334</ele><time>2026-04-18T16:35:16.999Z</time></trkpt><trkpt lat="44.5127939531482" lon="9.20966822349013"><ele>792.6666666666667</ele><time>2026-04-18T16:35:17.999Z</time></trkpt><trkpt lat="44.51272639869205" lon="9.209738220750882"><ele>790.5</ele><time>2026-04-18T16:35:18.999Z</time></trkpt><trkpt lat="44.51265707338025" lon="9.209763768749403"><ele>788.3333333333333</ele><time>2026-04-18T16:35:19.999Z</time></trkpt><trkpt lat="44.512579294367576" lon="9.209742825317402"><ele>786.1666666666666</ele><time>2026-04-18T16:35:20.999Z</time></trkpt><trkpt lat="44.51250798697012" lon="9.209664979292459"><ele>784.0</ele><time>2026-04-18T16:35:21.999Z</time></trkpt><trkpt lat="44.51244634385106" lon="9.209532361392455"><ele>784.0</ele><time>2026-04-18T16:35:22.999Z</time></trkpt><trkpt lat="44.51238672326021" lon="9.209333908606787"><ele>784.0</ele><time>2026-04-18T16:35:23.999Z</time></trkpt><trkpt lat="44.51233028300734" lon="9.20913588411977"><ele>784.0</ele><time>2026-04-18T16:35:25Z</time></trkpt><trkpt lat="44.51225422972991" lon="9.208941958353481"><ele>785.0</ele><time>2026-04-18T16:35:26Z</time></trkpt><trkpt lat="44.512147486862546" lon="9.20871216567678"><ele>786.0</ele><time>2026-04-18T16:35:27Z</time></trkpt><trkpt lat="44.512046813404545" lon="9.208522986025251"><ele>787.0</ele><time>2026-04-18T16:35:28Z</time></trkpt><trkpt lat="44.511946558673166" lon="9.208369268043805"><ele>787.0</ele><time>2026-04-18T16:35:29Z</time></trkpt><trkpt lat="44.51185998177202" lon="9.208248855364225"><ele>787.0</ele><time>2026-04-18T16:35:30Z</time></trkpt><trkpt lat="44.51177563812744" lon="9.208176210611354"><ele>787.0</ele><time>2026-04-18T16:35:31Z</time></trkpt><trkpt lat="44.51166441475032" lon="9.208100687440558"><ele>787.0</ele><time>2026-04-18T16:35:32Z</time></trkpt><trkpt lat="44.51148978707809" lon="9.208094043137876"><ele>798.0</ele><time>2026-04-18T16:35:33Z</time></trkpt><trkpt lat="44.5112991633054" lon="9.20808120995822"><ele>809.0</ele><time>2026-04-18T16:35:34Z</time></trkpt><trkpt lat="44.51108835060987" lon="9.208077867427026"><ele>820.0</ele><time>2026-04-18T16:35:35Z</time></trkpt><trkpt lat="44.51092196274442" lon="9.20807777295135"><ele>820.0</ele><time>2026-04-18T16:35:36Z</time></trkpt><trkpt lat="44.51076857858067" lon="9.208094035799649"><ele>820.0</ele><time>2026-04-18T16:35:37Z</time></trkpt><trkpt lat="44.510608407963005" lon="9.208136300709697"><ele>820.0</ele><time>2026-04-18T16:35:38Z</time></trkpt><trkpt lat="44.510430367740454" lon="9.208219228809318"><ele>812.6666666666666</ele><time>2026-04-18T16:35:39Z</time></trkpt><trkpt lat="44.510269012462196" lon="9.208325300796682"><ele>805.3333333333333</ele><time>2026-04-18T16:35:40Z</time></trkpt><trkpt lat="44.51013556754093" lon="9.20843561707607"><ele>798.0</ele><time>2026-04-18T16:35:41Z</time></trkpt><trkpt lat="44.51001304150223" lon="9.208565329260086"><ele>798.0</ele><time>2026-04-18T16:35:42Z</time></trkpt><trkpt lat="44.50989704273993" lon="9.208679197838878"><ele>798.0</ele><time>2026-04-18T16:35:43Z</time></trkpt><trkpt lat="44.50980611382973" lon="9.208785498810448"><ele>798.0</ele><time>2026-04-18T16:35:44Z</time></trkpt><trkpt lat="44.50971824429885" lon="9.20888745274148"><ele>798.0</ele><time>2026-04-18T16:35:45Z</time></trkpt><trkpt lat="44.50964731703988" lon="9.20896337773618"><ele>794.4</ele><time>2026-04-18T16:35:46Z</time></trkpt><trkpt lat="44.50951987193418" lon="9.209028516118346"><ele>790.8</ele><time>2026-04-18T16:35:47Z</time></trkpt><trkpt lat="44.5094333255347" lon="9.209003736794287"><ele>787.2</ele><time>2026-04-18T16:35:48Z</time></trkpt><trkpt lat="44.50937359071086" lon="9.208908275738908"><ele>783.6</ele><time>2026-04-18T16:35:49Z</time></trkpt><trkpt lat="44.50931780491124" lon="9.20878467918311"><ele>780.0</ele><time>2026-04-18T16:35:50Z</time></trkpt><trkpt lat="44.509286483089596" lon="9.208661274101763"><ele>780.0</ele><time>2026-04-18T16:35:51Z</time></trkpt><trkpt lat="44.509312987509205" lon="9.208572128424064"><ele>780.0</ele><time>2026-04-18T16:35:52Z</time></trkpt><trkpt lat="44.50935082638473" lon="9.208451810081158"><ele>780.0</ele><time>2026-04-18T16:35:53Z</time></trkpt><trkpt lat="44.50942357703667" lon="9.208332586217889"><ele>780.0</ele><time>2026-04-18T16:35:54Z</time></trkpt><trkpt lat="44.50952739588123" lon="9.208213494223312"><ele>780.0</ele><time>2026-04-18T16:35:55Z</time></trkpt><trkpt lat="44.509614209981706" lon="9.208096230300105"><ele>784.0</ele><time>2026-04-18T16:35:56Z</time></trkpt><trkpt lat="44.50966634216133" lon="9.207970194920462"><ele>788.0</ele><time>2026-04-18T16:35:57Z</time></trkpt><trkpt lat="44.50968522759895" lon="9.207842730997859"><ele>792.0</ele><time>2026-04-18T16:35:58Z</time></trkpt><trkpt lat="44.50963473542824" lon="9.20771132311516"><ele>796.0</ele><time>2026-04-18T16:35:59Z</time></trkpt><trkpt lat="44.50955375527026" lon="9.207643355632484"><ele>800.0</ele><time>2026-04-18T16:36:00Z</time></trkpt><trkpt lat="44.509440683641884" lon="9.2076299830676"><ele>800.0</ele><time>2026-04-18T16:36:01Z</time></trkpt><trkpt lat="44.5092938744051" lon="9.207651275707835"><ele>800.0</ele><time>2026-04-18T16:36:02Z</time></trkpt><trkpt lat="44.50912974836405" lon="9.20764361986414"><ele>800.0</ele><time>2026-04-18T16:36:03Z</time></trkpt><trkpt lat="44.50897459326778" lon="9.20758472223268"><ele>800.0</ele><time>2026-04-18T16:36:04Z</time></trkpt><trkpt lat="44.50884906855263" lon="9.207519957441198"><ele>800.0</ele><time>2026-04-18T16:36:05Z</time></trkpt><trkpt lat="44.50874439938915" lon="9.207455077320716"><ele>800.0</ele><time>2026-04-18T16:36:06Z</time></trkpt><trkpt lat="44.50864528589485" lon="9.207359458530572"><ele>800.0</ele><time>2026-04-18T16:36:07Z</time></trkpt><trkpt lat="44.508590579000774" lon="9.207222393303752"><ele>795.0</ele><time>2026-04-18T16:36:08Z</time></trkpt><trkpt lat="44.50854538670086" lon="9.207066092231265"><ele>790.0</ele><time>2026-04-18T16:36:09Z</time></trkpt><trkpt lat="44.508503657961995" lon="9.206927045645433"><ele>785.0</ele><time>2026-04-18T16:36:10Z</time></trkpt><trkpt lat="44.50849054122593" lon="9.206813073510425"><ele>780.0</ele><time>2026-04-18T16:36:11Z</time></trkpt><trkpt lat="44.50850383215735" lon="9.206692907444905"><ele>775.0</ele><time>2026-04-18T16:36:12Z</time></trkpt><trkpt lat="44.508559835738126" lon="9.206548890723745"><ele>773.3333333333333</ele><time>2026-04-18T16:36:13Z</time></trkpt><trkpt lat="44.50863307877318" lon="9.206359005787856"><ele>771.6666666666667</ele><time>2026-04-18T16:36:14Z</time></trkpt><trkpt lat="44.508718982624046" lon="9.206154655060883"><ele>770.0</ele><time>2026-04-18T16:36:15Z</time></trkpt><trkpt lat="44.50881340317861" lon="9.205939380956325"><ele>775.0</ele><time>2026-04-18T16:36:16Z</time></trkpt><trkpt lat="44.508926781829636" lon="9.205717493473589"><ele>780.0</ele><time>2026-04-18T16:36:17Z</time></trkpt><trkpt lat="44.50904090950322" lon="9.20550292675"><ele>785.0</ele><time>2026-04-18T16:36:18Z</time></trkpt><trkpt lat="44.50914611828536" lon="9.205294507539199"><ele>785.0</ele><time>2026-04-18T16:36:19Z</time></trkpt><trkpt lat="44.50924418448888" lon="9.20510539731297"><ele>785.0</ele><time>2026-04-18T16:36:20Z</time></trkpt><trkpt lat="44.50935107012994" lon="9.204926275917215"><ele>785.0</ele><time>2026-04-18T16:36:21Z</time></trkpt><trkpt lat="44.50944277233024" lon="9.204760377084535"><ele>780.3333333333334</ele><time>2026-04-18T16:36:22Z</time></trkpt><trkpt lat="44.50949743598337" lon="9.204587003214296"><ele>775.6666666666667</ele><time>2026-04-18T16:36:23Z</time></trkpt><trkpt lat="44.50951243979317" lon="9.20436679785744"><ele>771.0</ele><time>2026-04-18T16:36:24Z</time></trkpt><trkpt lat="44.50953769282672" lon="9.204126054684119"><ele>770.5</ele><time>2026-04-18T16:36:25Z</time></trkpt><trkpt lat="44.50955934767066" lon="9.203913472585315"><ele>770.0</ele><time>2026-04-18T16:36:26Z</time></trkpt><trkpt lat="44.50958629050829" lon="9.203729316988234"><ele>769.5</ele><time>2026-04-18T16:36:27Z</time></trkpt><trkpt lat="44.50959214626859" lon="9.203549630053951"><ele>769.0</ele><time>2026-04-18T16:36:28Z</time></trkpt><trkpt lat="44.509565530050715" lon="9.203353963499328"><ele>769.0</ele><time>2026-04-18T16:36:29Z</time></trkpt><trkpt lat="44.50954490195605" lon="9.203165891052624"><ele>769.0</ele><time>2026-04-18T16:36:30Z</time></trkpt><trkpt lat="44.50956499103044" lon="9.202984466026608"><ele>769.0</ele><time>2026-04-18T16:36:31Z</time></trkpt><trkpt lat="44.50961358483629" lon="9.202798510376798"><ele>769.0</ele><time>2026-04-18T16:36:32Z</time></trkpt><trkpt lat="44.50969645827459" lon="9.202643355848334"><ele>769.0</ele><time>2026-04-18T16:36:33Z</time></trkpt><trkpt lat="44.50978033836342" lon="9.202465870112052"><ele>769.0</ele><time>2026-04-18T16:36:34Z</time></trkpt><trkpt lat="44.50986201841243" lon="9.20229011433908"><ele>769.0</ele><time>2026-04-18T16:36:35Z</time></trkpt><trkpt lat="44.50993851958025" lon="9.20212376949488"><ele>769.0</ele><time>2026-04-18T16:36:36Z</time></trkpt><trkpt lat="44.510010689385304" lon="9.201953318634224"><ele>769.0</ele><time>2026-04-18T16:36:36.999Z</time></trkpt><trkpt lat="44.510084996985604" lon="9.201766458636044"><ele>769.0</ele><time>2026-04-18T16:36:37.999Z</time></trkpt><trkpt lat="44.51014684114383" lon="9.20155355932593"><ele>769.0</ele><time>2026-04-18T16:36:38.999Z</time></trkpt><trkpt lat="44.51021896751252" lon="9.201357948864471"><ele>768.0</ele><time>2026-04-18T16:36:39.999Z</time></trkpt><trkpt lat="44.5102926598652" lon="9.201187834489923"><ele>767.0</ele><time>2026-04-18T16:36:40.999Z</time></trkpt><trkpt lat="44.510354637463294" lon="9.201021723662588"><ele>766.0</ele><time>2026-04-18T16:36:41.999Z</time></trkpt><trkpt lat="44.51041565806384" lon="9.200873242566695"><ele>765.0</ele><time>2026-04-18T16:36:42.999Z</time></trkpt><trkpt lat="44.5104716887469" lon="9.200722223772638"><ele>775.0</ele><time>2026-04-18T16:36:43.999Z</time></trkpt><trkpt lat="44.51049931940954" lon="9.200554208357554"><ele>785.0</ele><time>2026-04-18T16:36:44.999Z</time></trkpt><trkpt lat="44.5104868252844" lon="9.200350505904952"><ele>795.0</ele><time>2026-04-18T16:36:45.999Z</time></trkpt><trkpt lat="44.51046730168768" lon="9.200113704996584"><ele>805.0</ele><time>2026-04-18T16:36:46.999Z</time></trkpt><trkpt lat="44.510442031511325" lon="9.199922663123152"><ele>798.0</ele><time>2026-04-18T16:36:47.999Z</time></trkpt><trkpt lat="44.51038311215981" lon="9.199761052150931"><ele>791.0</ele><time>2026-04-18T16:36:48.999Z</time></trkpt><trkpt lat="44.51029027541709" lon="9.199578482851368"><ele>784.0</ele><time>2026-04-18T16:36:49.999Z</time></trkpt><trkpt lat="44.51018060640724" lon="9.19940505931198"><ele>784.0</ele><time>2026-04-18T16:36:50.999Z</time></trkpt><trkpt lat="44.51009750281574" lon="9.199253934436713"><ele>784.0</ele><time>2026-04-18T16:36:51.999Z</time></trkpt><trkpt lat="44.51002677273954" lon="9.199123192157762"><ele>784.0</ele><time>2026-04-18T16:36:52.999Z</time></trkpt><trkpt lat="44.50996632302807" lon="9.19900885285229"><ele>784.0</ele><time>2026-04-18T16:36:53.999Z</time></trkpt><trkpt lat="44.50991214068982" lon="9.19892064128772"><ele>784.0</ele><time>2026-04-18T16:36:54.999Z</time></trkpt><trkpt lat="44.50987374480397" lon="9.198822999975366"><ele>783.3333333333333</ele><time>2026-04-18T16:36:55.999Z</time></trkpt><trkpt lat="44.50983359733679" lon="9.19874940690107"><ele>782.6666666666666</ele><time>2026-04-18T16:36:56.999Z</time></trkpt><trkpt lat="44.50971263765147" lon="9.198792070282625"><ele>782.0</ele><time>2026-04-18T16:36:57.999Z</time></trkpt><trkpt lat="44.50961393505097" lon="9.19876142967846"><ele>781.3333333333333</ele><time>2026-04-18T16:36:59.999Z</time></trkpt><trkpt lat="44.5095486557257" lon="9.198740397440236"><ele>780.6666666666666</ele><time>2026-04-18T16:37:01.999Z</time></trkpt><trkpt lat="44.509469839916314" lon="9.19872452533033"><ele>780.0</ele><time>2026-04-18T16:37:04.999Z</time></trkpt><trkpt lat="44.509404566455885" lon="9.198742267063537"><ele>780.0</ele><time>2026-04-18T16:37:09.999Z</time></trkpt><trkpt lat="44.50934131928389" lon="9.198717908465921"><ele>780.0</ele><time>2026-04-18T16:38:22Z</time></trkpt><trkpt lat="44.50919870396233" lon="9.1987358274355"><ele>780.0</ele><time>2026-04-18T16:38:24Z</time></trkpt><trkpt lat="44.50911457510902" lon="9.198726513034934"><ele>780.0</ele><time>2026-04-18T16:38:25Z</time></trkpt><trkpt lat="44.50904728831416" lon="9.198697529762919"><ele>780.0</ele><time>2026-04-18T16:38:26Z</time></trkpt><trkpt lat="44.50899372725094" lon="9.198644989175726"><ele>780.0</ele><time>2026-04-18T16:38:27Z</time></trkpt><trkpt lat="44.50895904779451" lon="9.19856937792035"><ele>780.0</ele><time>2026-04-18T16:38:28Z</time></trkpt><trkpt lat="44.50892460785997" lon="9.198458661232605"><ele>780.0</ele><time>2026-04-18T16:38:29Z</time></trkpt><trkpt lat="44.50891290243165" lon="9.198345237877882"><ele>780.0</ele><time>2026-04-18T16:38:30Z</time></trkpt><trkpt lat="44.50890511702072" lon="9.198241609339979"><ele>780.0</ele><time>2026-04-18T16:38:31Z</time></trkpt><trkpt lat="44.508887242640455" lon="9.19812444801868"><ele>780.0</ele><time>2026-04-18T16:38:32Z</time></trkpt><trkpt lat="44.50887221719626" lon="9.197988718541982"><ele>780.0</ele><time>2026-04-18T16:38:33Z</time></trkpt><trkpt lat="44.50885632814016" lon="9.197860523313235"><ele>779.3333333333334</ele><time>2026-04-18T16:38:34Z</time></trkpt><trkpt lat="44.50884455672281" lon="9.197739042220546"><ele>778.6666666666667</ele><time>2026-04-18T16:38:35Z</time></trkpt><trkpt lat="44.50884067787031" lon="9.197612813153617"><ele>778.0</ele><time>2026-04-18T16:38:36Z</time></trkpt><trkpt lat="44.50886744564226" lon="9.197517465660244"><ele>777.3333333333334</ele><time>2026-04-18T16:38:37Z</time></trkpt><trkpt lat="44.50892761996257" lon="9.197453643370661"><ele>776.6666666666667</ele><time>2026-04-18T16:38:38Z</time></trkpt><trkpt lat="44.50900851292179" lon="9.197415464822871"><ele>776.0</ele><time>2026-04-18T16:38:39Z</time></trkpt><trkpt lat="44.50910201266305" lon="9.197404523086158"><ele>776.0000000000001</ele><time>2026-04-18T16:38:40Z</time></trkpt><trkpt lat="44.509193748692844" lon="9.197408556365197"><ele>776.0</ele><time>2026-04-18T16:38:40.999Z</time></trkpt><trkpt lat="44.509263679670816" lon="9.197405171435696"><ele>776.0</ele><time>2026-04-18T16:38:41.999Z</time></trkpt><trkpt lat="44.50938649611345" lon="9.197386350956302"><ele>776.0</ele><time>2026-04-18T16:38:43.999Z</time></trkpt><trkpt lat="44.50942900274829" lon="9.1973137103298"><ele>776.0000000000001</ele><time>2026-04-18T16:38:44.999Z</time></trkpt><trkpt lat="44.509487110342334" lon="9.197223954446178"><ele>776.0</ele><time>2026-04-18T16:38:45.999Z</time></trkpt><trkpt lat="44.5094738123037" lon="9.197068406561577"><ele>775.1999999999999</ele><time>2026-04-18T16:38:46.999Z</time></trkpt><trkpt lat="44.509417972281845" lon="9.19694131654523"><ele>774.4</ele><time>2026-04-18T16:38:47.999Z</time></trkpt><trkpt lat="44.50932561303917" lon="9.196855833230648"><ele>773.6</ele><time>2026-04-18T16:38:48.999Z</time></trkpt><trkpt lat="44.509205731960684" lon="9.19685667355837"><ele>772.8</ele><time>2026-04-18T16:38:49.999Z</time></trkpt><trkpt lat="44.509134277961465" lon="9.196818599569955"><ele>772.0</ele><time>2026-04-18T16:38:50.999Z</time></trkpt><trkpt lat="44.509039202475286" lon="9.19677943321305"><ele>772.0</ele><time>2026-04-18T16:38:52.999Z</time></trkpt><trkpt lat="44.5090209591942" lon="9.196560509435983"><ele>772.0</ele><time>2026-04-18T16:38:54.999Z</time></trkpt><trkpt lat="44.509026751369774" lon="9.196418205306928"><ele>772.0</ele><time>2026-04-18T16:38:55.999Z</time></trkpt><trkpt lat="44.509048043603535" lon="9.196286510046562"><ele>772.0</ele><time>2026-04-18T16:38:56.999Z</time></trkpt><trkpt lat="44.509054053006025" lon="9.196155272060807"><ele>772.0</ele><time>2026-04-18T16:38:57.999Z</time></trkpt><trkpt lat="44.509052482885345" lon="9.196025024576908"><ele>771.75</ele><time>2026-04-18T16:38:58.999Z</time></trkpt><trkpt lat="44.509029317808654" lon="9.195872913912142"><ele>771.5</ele><time>2026-04-18T16:38:59.999Z</time></trkpt><trkpt lat="44.50899655716195" lon="9.195704887202247"><ele>771.25</ele><time>2026-04-18T16:39:00.999Z</time></trkpt><trkpt lat="44.50895406850207" lon="9.195514377071317"><ele>771.0</ele><time>2026-04-18T16:39:01.999Z</time></trkpt><trkpt lat="44.508911967825426" lon="9.195343773372421"><ele>770.8</ele><time>2026-04-18T16:39:02.999Z</time></trkpt><trkpt lat="44.50887865990547" lon="9.195191747785852"><ele>770.5999999999999</ele><time>2026-04-18T16:39:03.999Z</time></trkpt><trkpt lat="44.5088762675687" lon="9.195051468634356"><ele>770.4</ele><time>2026-04-18T16:39:04.999Z</time></trkpt><trkpt lat="44.5089160953451" lon="9.194922864137498"><ele>770.2</ele><time>2026-04-18T16:39:05.999Z</time></trkpt><trkpt lat="44.50899999723051" lon="9.194804780609644"><ele>770.0</ele><time>2026-04-18T16:39:06.999Z</time></trkpt><trkpt lat="44.50912117636968" lon="9.194723633485596"><ele>775.6666666666667</ele><time>2026-04-18T16:39:07.999Z</time></trkpt><trkpt lat="44.50925921843383" lon="9.194638238697948"><ele>781.3333333333333</ele><time>2026-04-18T16:39:08.999Z</time></trkpt><trkpt lat="44.50939077770932" lon="9.194494560651655"><ele>787.0</ele><time>2026-04-18T16:39:09.999Z</time></trkpt><trkpt lat="44.5094928799703" lon="9.194310765775985"><ele>783.6666666666666</ele><time>2026-04-18T16:39:10.999Z</time></trkpt><trkpt lat="44.50958233980979" lon="9.194131955014074"><ele>780.3333333333333</ele><time>2026-04-18T16:39:11.999Z</time></trkpt><trkpt lat="44.50963286033772" lon="9.193927365905235"><ele>777.0</ele><time>2026-04-18T16:39:12.999Z</time></trkpt><trkpt lat="44.50966722358225" lon="9.193683054730412"><ele>775.6666666666667</ele><time>2026-04-18T16:39:13.999Z</time></trkpt><trkpt lat="44.50967988825177" lon="9.193420937127614"><ele>774.3333333333334</ele><time>2026-04-18T16:39:14.999Z</time></trkpt><trkpt lat="44.509672824447435" lon="9.193126869200103"><ele>773.0</ele><time>2026-04-18T16:39:15.999Z</time></trkpt><trkpt lat="44.50966317891322" lon="9.192838851475168"><ele>776.3333333333334</ele><time>2026-04-18T16:39:16.999Z</time></trkpt><trkpt lat="44.509661862975165" lon="9.192576078199822"><ele>779.6666666666667</ele><time>2026-04-18T16:39:17.999Z</time></trkpt><trkpt lat="44.50967833207881" lon="9.192297812463785"><ele>783.0</ele><time>2026-04-18T16:39:18.999Z</time></trkpt><trkpt lat="44.50971720554122" lon="9.191994481322393"><ele>785.0</ele><time>2026-04-18T16:39:19.999Z</time></trkpt><trkpt lat="44.509776683843995" lon="9.191652260236513"><ele>787.0</ele><time>2026-04-18T16:39:21.018Z</time></trkpt><trkpt lat="44.50983881101092" lon="9.191338302015508"><ele>783.6666666666666</ele><time>2026-04-18T16:39:22.022Z</time></trkpt><trkpt lat="44.5098899234641" lon="9.191062449383937"><ele>780.3333333333333</ele><time>2026-04-18T16:39:23.018Z</time></trkpt><trkpt lat="44.5099216648665" lon="9.190802969459462"><ele>777.0</ele><time>2026-04-18T16:39:24.018Z</time></trkpt><trkpt lat="44.50992760611381" lon="9.190555997810302"><ele>777.0</ele><time>2026-04-18T16:39:25.999Z</time></trkpt><trkpt lat="44.50990012177783" lon="9.19033325505017"><ele>777.0</ele><time>2026-04-18T16:39:26.999Z</time></trkpt><trkpt lat="44.509847690730986" lon="9.190110811110884"><ele>777.0</ele><time>2026-04-18T16:39:27.999Z</time></trkpt><trkpt lat="44.50978625559346" lon="9.189884054008582"><ele>780.3333333333333</ele><time>2026-04-18T16:39:28.999Z</time></trkpt><trkpt lat="44.50969194666989" lon="9.189695304274188"><ele>783.6666666666666</ele><time>2026-04-18T16:39:29.999Z</time></trkpt><trkpt lat="44.509573643460314" lon="9.189511555120358"><ele>787.0</ele><time>2026-04-18T16:39:30.999Z</time></trkpt><trkpt lat="44.509395647643395" lon="9.189319824465572"><ele>787.6666666666666</ele><time>2026-04-18T16:39:31.999Z</time></trkpt><trkpt lat="44.50923149891921" lon="9.189160265041808"><ele>788.3333333333333</ele><time>2026-04-18T16:39:32.999Z</time></trkpt><trkpt lat="44.509057446243816" lon="9.18896739474784"><ele>789.0</ele><time>2026-04-18T16:39:33.999Z</time></trkpt><trkpt lat="44.508918765509726" lon="9.188766373318815"><ele>789.0</ele><time>2026-04-18T16:39:34.999Z</time></trkpt><trkpt lat="44.508808781317825" lon="9.188599407111582"><ele>789.0</ele><time>2026-04-18T16:39:35.999Z</time></trkpt><trkpt lat="44.50870559164969" lon="9.188411420293479"><ele>789.0</ele><time>2026-04-18T16:39:37Z</time></trkpt><trkpt lat="44.50862785976776" lon="9.188212410229797"><ele>793.0</ele><time>2026-04-18T16:39:38Z</time></trkpt><trkpt lat="44.50856193454655" lon="9.187982047928486"><ele>797.0</ele><time>2026-04-18T16:39:39Z</time></trkpt><trkpt lat="44.50850228282247" lon="9.18771488145592"><ele>801.0</ele><time>2026-04-18T16:39:40Z</time></trkpt><trkpt lat="44.50847603946139" lon="9.187479260105112"><ele>803.0</ele><time>2026-04-18T16:39:41Z</time></trkpt><trkpt lat="44.50849569057979" lon="9.187260874394456"><ele>805.0</ele><time>2026-04-18T16:39:42Z</time></trkpt><trkpt lat="44.50853710191637" lon="9.1870379779655"><ele>807.0</ele><time>2026-04-18T16:39:43Z</time></trkpt><trkpt lat="44.5085918739141" lon="9.186763894836927"><ele>812.5</ele><time>2026-04-18T16:39:44Z</time></trkpt><trkpt lat="44.50864759817946" lon="9.186460486453527"><ele>818.0</ele><time>2026-04-18T16:39:45Z</time></trkpt><trkpt lat="44.50868926696654" lon="9.186147736767218"><ele>818.0</ele><time>2026-04-18T16:39:46Z</time></trkpt><trkpt lat="44.508721415514415" lon="9.185846160125877"><ele>818.0</ele><time>2026-04-18T16:39:47Z</time></trkpt><trkpt lat="44.5087247499725" lon="9.185526950615353"><ele>818.0</ele><time>2026-04-18T16:39:48Z</time></trkpt><trkpt lat="44.50877070855872" lon="9.185207231764124"><ele>805.5</ele><time>2026-04-18T16:39:49Z</time></trkpt><trkpt lat="44.50881912021007" lon="9.184870830864382"><ele>793.0</ele><time>2026-04-18T16:39:50Z</time></trkpt><trkpt lat="44.50886970360476" lon="9.184500992701462"><ele>793.0</ele><time>2026-04-18T16:39:51Z</time></trkpt><trkpt lat="44.508924495477224" lon="9.184102091170368"><ele>793.0</ele><time>2026-04-18T16:39:52Z</time></trkpt><trkpt lat="44.508974116302625" lon="9.183738524418233"><ele>795.5</ele><time>2026-04-18T16:39:53Z</time></trkpt><trkpt lat="44.509012769452816" lon="9.183400546100929"><ele>798.0</ele><time>2026-04-18T16:39:54Z</time></trkpt><trkpt lat="44.50905738318009" lon="9.183100918898777"><ele>800.6666666666667</ele><time>2026-04-18T16:39:55Z</time></trkpt><trkpt lat="44.50909694454896" lon="9.182807920487333"><ele>803.3333333333334</ele><time>2026-04-18T16:39:56Z</time></trkpt><trkpt lat="44.50913709873833" lon="9.18252667385927"><ele>806.0</ele><time>2026-04-18T16:39:57Z</time></trkpt><trkpt lat="44.50917902859186" lon="9.182263383818148"><ele>813.0</ele><time>2026-04-18T16:39:58Z</time></trkpt><trkpt lat="44.509219929388955" lon="9.182005592453633"><ele>820.0</ele><time>2026-04-18T16:39:59Z</time></trkpt><trkpt lat="44.50926100821216" lon="9.181759893358418"><ele>827.0</ele><time>2026-04-18T16:40:00.021Z</time></trkpt><trkpt lat="44.509301055612916" lon="9.181512430320968"><ele>834.6666666666667</ele><time>2026-04-18T16:40:01.02Z</time></trkpt><trkpt lat="44.50934053732694" lon="9.181261102614856"><ele>842.3333333333333</ele><time>2026-04-18T16:40:02.018Z</time></trkpt><trkpt lat="44.50937985226358" lon="9.181014259282781"><ele>850.0</ele><time>2026-04-18T16:40:03.021Z</time></trkpt><trkpt lat="44.5094205293167" lon="9.18076112406158"><ele>827.0</ele><time>2026-04-18T16:40:04.02Z</time></trkpt><trkpt lat="44.509933386387786" lon="9.178025106349072"><ele>859.0</ele><time>2026-04-18T16:40:07.515Z</time></trkpt><trkpt lat="44.51012005256284" lon="9.17718429555538"><ele>887.0</ele><time>2026-04-18T16:40:08.515Z</time></trkpt><trkpt lat="44.51031014485251" lon="9.176345053385733"><ele>888.0</ele><time>2026-04-18T16:40:09.515Z</time></trkpt><trkpt lat="44.510503891945895" lon="9.175510980586942"><ele>873.0</ele><time>2026-04-18T16:40:10.511Z</time></trkpt><trkpt lat="44.51070416531276" lon="9.174672761345128"><ele>872.0</ele><time>2026-04-18T16:40:11.515Z</time></trkpt><trkpt lat="44.51090367952255" lon="9.173837719460748"><ele>872.0</ele><time>2026-04-18T16:40:12.515Z</time></trkpt><trkpt lat="44.5109643" lon="9.173584"><ele>872.0</ele><time>2026-04-18T16:40:13.515Z</time></trkpt><trkpt lat="44.51380556919101" lon="9.16170682758946"><ele>822.3333333333334</ele><time>2026-04-18T16:41:02.999Z</time></trkpt><trkpt lat="44.51386769521209" lon="9.161407420531907"><ele>772.6666666666667</ele><time>2026-04-18T16:41:03.999Z</time></trkpt><trkpt lat="44.51391902518299" lon="9.161116813239527"><ele>723.0</ele><time>2026-04-18T16:41:04.999Z</time></trkpt><trkpt lat="44.513952514891415" lon="9.160817096942"><ele>723.0</ele><time>2026-04-18T16:41:05.999Z</time></trkpt><trkpt lat="44.513979405660024" lon="9.160495857625644"><ele>723.0</ele><time>2026-04-18T16:41:06.999Z</time></trkpt><trkpt lat="44.513997452789276" lon="9.16017225437689"><ele>727.0</ele><time>2026-04-18T16:41:07.999Z</time></trkpt><trkpt lat="44.51399530963485" lon="9.159841852311537"><ele>731.0</ele><time>2026-04-18T16:41:08.999Z</time></trkpt><trkpt lat="44.51398324274239" lon="9.159508603034025"><ele>731.0</ele><time>2026-04-18T16:41:09.999Z</time></trkpt><trkpt lat="44.513957173940604" lon="9.15917403380977"><ele>731.0</ele><time>2026-04-18T16:41:10.999Z</time></trkpt><trkpt lat="44.513918853290356" lon="9.158836641040569"><ele>737.5</ele><time>2026-04-18T16:41:11.999Z</time></trkpt><trkpt lat="44.51386238072428" lon="9.158503912231994"><ele>744.0</ele><time>2026-04-18T16:41:12.999Z</time></trkpt><trkpt lat="44.51379939138411" lon="9.158186598067417"><ele>742.5</ele><time>2026-04-18T16:41:13.999Z</time></trkpt><trkpt lat="44.51372754609833" lon="9.157888546688786"><ele>741.0</ele><time>2026-04-18T16:41:14.999Z</time></trkpt><trkpt lat="44.51364494995746" lon="9.157590367141472"><ele>742.5</ele><time>2026-04-18T16:41:15.999Z</time></trkpt><trkpt lat="44.513556848677794" lon="9.157290034300697"><ele>744.0</ele><time>2026-04-18T16:41:16.999Z</time></trkpt><trkpt lat="44.5134663850742" lon="9.156987193877528"><ele>744.0</ele><time>2026-04-18T16:41:17.999Z</time></trkpt><trkpt lat="44.513375822126186" lon="9.15667774530327"><ele>744.0</ele><time>2026-04-18T16:41:19.021Z</time></trkpt><trkpt lat="44.51324847014281" lon="9.156411885728643"><ele>744.0</ele><time>2026-04-18T16:41:20.02Z</time></trkpt><trkpt lat="44.51311336415958" lon="9.156173437434271"><ele>744.0</ele><time>2026-04-18T16:41:21.02Z</time></trkpt><trkpt lat="44.512972587516046" lon="9.155942294027772"><ele>744.0</ele><time>2026-04-18T16:41:21.999Z</time></trkpt><trkpt lat="44.51276462009234" lon="9.15577724844994"><ele>746.0</ele><time>2026-04-18T16:41:22.999Z</time></trkpt><trkpt lat="44.512603852792985" lon="9.155535821366726"><ele>748.0</ele><time>2026-04-18T16:41:23.999Z</time></trkpt><trkpt lat="44.512415122459956" lon="9.1553442051966"><ele>748.0</ele><time>2026-04-18T16:41:24.999Z</time></trkpt><trkpt lat="44.51223019947647" lon="9.155157946245206"><ele>748.0</ele><time>2026-04-18T16:41:25.999Z</time></trkpt><trkpt lat="44.51204858297809" lon="9.15495702476736"><ele>750.0</ele><time>2026-04-18T16:41:26.999Z</time></trkpt><trkpt lat="44.511848896494634" lon="9.154781043232852"><ele>752.0</ele><time>2026-04-18T16:41:27.999Z</time></trkpt><trkpt lat="44.51163835758028" lon="9.154622414914172"><ele>752.0</ele><time>2026-04-18T16:41:28.999Z</time></trkpt><trkpt lat="44.511420826477384" lon="9.154469768458505"><ele>752.0</ele><time>2026-04-18T16:41:29.999Z</time></trkpt><trkpt lat="44.51119543414358" lon="9.154339224194302"><ele>743.5</ele><time>2026-04-18T16:41:30.999Z</time></trkpt><trkpt lat="44.51096334388002" lon="9.154222074258401"><ele>735.0</ele><time>2026-04-18T16:41:31.999Z</time></trkpt><trkpt lat="44.510724851577855" lon="9.154136261183126"><ele>735.0</ele><time>2026-04-18T16:41:32.999Z</time></trkpt><trkpt lat="44.51047668521701" lon="9.154052964907626"><ele>735.0</ele><time>2026-04-18T16:41:33.999Z</time></trkpt><trkpt lat="44.510242612401804" lon="9.153974132792756"><ele>737.5</ele><time>2026-04-18T16:41:34.999Z</time></trkpt><trkpt lat="44.510006312713" lon="9.153885303805884"><ele>740.0</ele><time>2026-04-18T16:41:35.999Z</time></trkpt><trkpt lat="44.50978944242537" lon="9.153808480467957"><ele>740.0</ele><time>2026-04-18T16:41:36.999Z</time></trkpt><trkpt lat="44.50958464357617" lon="9.153739087109168"><ele>740.0</ele><time>2026-04-18T16:41:37.999Z</time></trkpt><trkpt lat="44.5094026339631" lon="9.15366301507353"><ele>740.0</ele><time>2026-04-18T16:41:38.999Z</time></trkpt><trkpt lat="44.509205649247185" lon="9.153592774663187"><ele>739.0</ele><time>2026-04-18T16:41:39.999Z</time></trkpt><trkpt lat="44.50900883163495" lon="9.153513816338167"><ele>738.0</ele><time>2026-04-18T16:41:40.999Z</time></trkpt><trkpt lat="44.508809407397415" lon="9.153425587689126"><ele>737.0</ele><time>2026-04-18T16:41:41.999Z</time></trkpt><trkpt lat="44.50862427758861" lon="9.153346500022845"><ele>739.3333333333333</ele><time>2026-04-18T16:41:43Z</time></trkpt><trkpt lat="44.50846680699502" lon="9.153267951091427"><ele>741.6666666666666</ele><time>2026-04-18T16:41:44Z</time></trkpt><trkpt lat="44.50832370257358" lon="9.153183601611465"><ele>744.0</ele><time>2026-04-18T16:41:45Z</time></trkpt><trkpt lat="44.508175114257966" lon="9.153087996581599"><ele>745.3333333333334</ele><time>2026-04-18T16:41:46Z</time></trkpt><trkpt lat="44.50801568702022" lon="9.15298826115949"><ele>746.6666666666667</ele><time>2026-04-18T16:41:47.018Z</time></trkpt><trkpt lat="44.50787867230857" lon="9.152856183392238"><ele>748.0</ele><time>2026-04-18T16:41:48.021Z</time></trkpt><trkpt lat="44.50773554608372" lon="9.152729401665702"><ele>743.0</ele><time>2026-04-18T16:41:49.016Z</time></trkpt><trkpt lat="44.507578520189234" lon="9.152578242350398"><ele>738.0</ele><time>2026-04-18T16:41:50.021Z</time></trkpt><trkpt lat="44.5074410792061" lon="9.152444703285436"><ele>733.0</ele><time>2026-04-18T16:41:51Z</time></trkpt><trkpt lat="44.50719427944643" lon="9.152221469226848"><ele>731.0</ele><time>2026-04-18T16:41:52Z</time></trkpt><trkpt lat="44.50703027646342" lon="9.152059223372927"><ele>729.0</ele><time>2026-04-18T16:41:53Z</time></trkpt><trkpt lat="44.50686408706865" lon="9.15189563384713"><ele>727.0</ele><time>2026-04-18T16:41:54Z</time></trkpt><trkpt lat="44.50668682540347" lon="9.151723900313382"><ele>727.0</ele><time>2026-04-18T16:41:55Z</time></trkpt><trkpt lat="44.50651280047681" lon="9.151549133250633"><ele>727.0</ele><time>2026-04-18T16:41:56Z</time></trkpt><trkpt lat="44.50634402128747" lon="9.151383219871912"><ele>727.0</ele><time>2026-04-18T16:41:57Z</time></trkpt><trkpt lat="44.506174364700364" lon="9.15121996002059"><ele>736.6666666666667</ele><time>2026-04-18T16:41:58Z</time></trkpt><trkpt lat="44.50600529129923" lon="9.15106126865147"><ele>746.3333333333334</ele><time>2026-04-18T16:41:59Z</time></trkpt><trkpt lat="44.50583310551433" lon="9.150898516687803"><ele>756.0</ele><time>2026-04-18T16:42:00.022Z</time></trkpt><trkpt lat="44.505662987194334" lon="9.150737151141767"><ele>757.0</ele><time>2026-04-18T16:42:01.022Z</time></trkpt><trkpt lat="44.50549105545461" lon="9.15057175511205"><ele>758.0</ele><time>2026-04-18T16:42:02.021Z</time></trkpt><trkpt lat="44.50531912035458" lon="9.150406085472424"><ele>759.0</ele><time>2026-04-18T16:42:03.021Z</time></trkpt><trkpt lat="44.50517002183485" lon="9.15024230905456"><ele>753.3333333333334</ele><time>2026-04-18T16:42:04.022Z</time></trkpt><trkpt lat="44.50501793438576" lon="9.15009394192818"><ele>747.6666666666667</ele><time>2026-04-18T16:42:05.018Z</time></trkpt><trkpt lat="44.50486327163559" lon="9.149942222099103"><ele>742.0</ele><time>2026-04-18T16:42:06.015Z</time></trkpt><trkpt lat="44.50441674799146" lon="9.14945592173296"><ele>739.0</ele><time>2026-04-18T16:42:08Z</time></trkpt><trkpt lat="44.50424976710708" lon="9.149285081816645"><ele>736.0</ele><time>2026-04-18T16:42:09Z</time></trkpt><trkpt lat="44.50408894363429" lon="9.149124901909596"><ele>733.0</ele><time>2026-04-18T16:42:10Z</time></trkpt><trkpt lat="44.50393602177442" lon="9.148929916722157"><ele>733.0</ele><time>2026-04-18T16:42:11Z</time></trkpt><trkpt lat="44.503786824755494" lon="9.148720158386555"><ele>733.0</ele><time>2026-04-18T16:42:12Z</time></trkpt><trkpt lat="44.50364854810323" lon="9.148493274450548"><ele>733.0</ele><time>2026-04-18T16:42:13Z</time></trkpt><trkpt lat="44.503516435897154" lon="9.148257856905525"><ele>727.0</ele><time>2026-04-18T16:42:14Z</time></trkpt><trkpt lat="44.503390329204876" lon="9.14801624196936"><ele>721.0</ele><time>2026-04-18T16:42:15Z</time></trkpt><trkpt lat="44.50326374239109" lon="9.147778330197898"><ele>715.0</ele><time>2026-04-18T16:42:16Z</time></trkpt><trkpt lat="44.503164076737264" lon="9.147508336959454"><ele>717.5</ele><time>2026-04-18T16:42:17Z</time></trkpt><trkpt lat="44.50305589015625" lon="9.147246618528067"><ele>720.0</ele><time>2026-04-18T16:42:18Z</time></trkpt><trkpt lat="44.50295719820308" lon="9.146936910470673"><ele>713.5</ele><time>2026-04-18T16:42:19Z</time></trkpt><trkpt lat="44.50286740224961" lon="9.14664054920664"><ele>707.0</ele><time>2026-04-18T16:42:20Z</time></trkpt><trkpt lat="44.50278217558304" lon="9.146337594591058"><ele>707.0</ele><time>2026-04-18T16:42:21Z</time></trkpt><trkpt lat="44.502700239562756" lon="9.146026995281415"><ele>707.0</ele><time>2026-04-18T16:42:22Z</time></trkpt><trkpt lat="44.50261781439201" lon="9.145732941787532"><ele>709.3333333333333</ele><time>2026-04-18T16:42:23Z</time></trkpt><trkpt lat="44.50254530175896" lon="9.145446375607143"><ele>711.6666666666666</ele><time>2026-04-18T16:42:24Z</time></trkpt><trkpt lat="44.50246455071388" lon="9.145158197577114"><ele>714.0</ele><time>2026-04-18T16:42:25Z</time></trkpt><trkpt lat="44.50238652695246" lon="9.14488414057779"><ele>717.6666666666666</ele><time>2026-04-18T16:42:26Z</time></trkpt><trkpt lat="44.502309114558294" lon="9.144614944316686"><ele>721.3333333333333</ele><time>2026-04-18T16:42:27Z</time></trkpt><trkpt lat="44.50222802017478" lon="9.144345946836088"><ele>725.0</ele><time>2026-04-18T16:42:28.021Z</time></trkpt><trkpt lat="44.50215136928343" lon="9.144090503241099"><ele>729.0</ele><time>2026-04-18T16:42:29.021Z</time></trkpt><trkpt lat="44.502078828548164" lon="9.143850731254272"><ele>733.0</ele><time>2026-04-18T16:42:30.019Z</time></trkpt><trkpt lat="44.501999394913256" lon="9.143563779468531"><ele>737.0</ele><time>2026-04-18T16:42:31.021Z</time></trkpt><trkpt lat="44.501916645862785" lon="9.143266971336375"><ele>739.5</ele><time>2026-04-18T16:42:32.022Z</time></trkpt><trkpt lat="44.501834719261694" lon="9.14298377580028"><ele>742.0</ele><time>2026-04-18T16:42:33.022Z</time></trkpt><trkpt lat="44.50046501592221" lon="9.139487156652976"><ele>724.0</ele><time>2026-04-18T16:42:49.999Z</time></trkpt><trkpt lat="44.5003701078463" lon="9.139301297625373"><ele>706.0</ele><time>2026-04-18T16:42:50.999Z</time></trkpt><trkpt lat="44.50026881087019" lon="9.139126912024917"><ele>688.0</ele><time>2026-04-18T16:42:51.999Z</time></trkpt><trkpt lat="44.50018115231658" lon="9.13897252988774"><ele>684.0</ele><time>2026-04-18T16:42:52.999Z</time></trkpt><trkpt lat="44.50008456854711" lon="9.138799476772972"><ele>680.0</ele><time>2026-04-18T16:42:53.999Z</time></trkpt><trkpt lat="44.49997677043791" lon="9.13861121367674"><ele>676.0</ele><time>2026-04-18T16:42:54.999Z</time></trkpt><trkpt lat="44.49985725874468" lon="9.138408642543107"><ele>676.0</ele><time>2026-04-18T16:42:55.999Z</time></trkpt><trkpt lat="44.49974337939281" lon="9.1382218027439"><ele>676.0</ele><time>2026-04-18T16:42:56.999Z</time></trkpt><trkpt lat="44.49962680061028" lon="9.138027010544137"><ele>676.0</ele><time>2026-04-18T16:42:57.999Z</time></trkpt><trkpt lat="44.49950226614041" lon="9.13782189485561"><ele>675.3333333333334</ele><time>2026-04-18T16:42:58.999Z</time></trkpt><trkpt lat="44.499381788509" lon="9.137636052690297"><ele>674.6666666666666</ele><time>2026-04-18T16:42:59.999Z</time></trkpt><trkpt lat="44.49926103284029" lon="9.137452741241825"><ele>674.0</ele><time>2026-04-18T16:43:00.999Z</time></trkpt><trkpt lat="44.49912611839138" lon="9.137267818777113"><ele>670.0</ele><time>2026-04-18T16:43:01.999Z</time></trkpt><trkpt lat="44.49900352485438" lon="9.137098032755123"><ele>666.0</ele><time>2026-04-18T16:43:02.999Z</time></trkpt><trkpt lat="44.4988870994713" lon="9.13693180666469"><ele>662.0</ele><time>2026-04-18T16:43:03.999Z</time></trkpt><trkpt lat="44.49876042010219" lon="9.1367655140246"><ele>663.3333333333333</ele><time>2026-04-18T16:43:04.999Z</time></trkpt><trkpt lat="44.49862590146289" lon="9.136571879502215"><ele>664.6666666666666</ele><time>2026-04-18T16:43:05.999Z</time></trkpt><trkpt lat="44.49848079880093" lon="9.136414453399585"><ele>666.0</ele><time>2026-04-18T16:43:06.999Z</time></trkpt><trkpt lat="44.49834920225843" lon="9.136242350645857"><ele>662.6666666666666</ele><time>2026-04-18T16:43:07.999Z</time></trkpt><trkpt lat="44.498200846408636" lon="9.136057585893555"><ele>659.3333333333333</ele><time>2026-04-18T16:43:08.999Z</time></trkpt><trkpt lat="44.49806235820711" lon="9.135847957483524"><ele>656.0</ele><time>2026-04-18T16:43:09.999Z</time></trkpt><trkpt lat="44.497917882063675" lon="9.135662490440803"><ele>653.6666666666666</ele><time>2026-04-18T16:43:10.999Z</time></trkpt><trkpt lat="44.49776820211496" lon="9.13550191787545"><ele>651.3333333333334</ele><time>2026-04-18T16:43:11.999Z</time></trkpt><trkpt lat="44.4976331029943" lon="9.135324861039177"><ele>649.0</ele><time>2026-04-18T16:43:12.999Z</time></trkpt><trkpt lat="44.49749512111629" lon="9.135147093038928"><ele>649.0</ele><time>2026-04-18T16:43:13.999Z</time></trkpt><trkpt lat="44.497363097563756" lon="9.134980678080248"><ele>649.0</ele><time>2026-04-18T16:43:14.999Z</time></trkpt><trkpt lat="44.497238968644076" lon="9.134827698312774"><ele>649.0</ele><time>2026-04-18T16:43:15.999Z</time></trkpt><trkpt lat="44.497123131796194" lon="9.134681149526765"><ele>649.0</ele><time>2026-04-18T16:43:16.999Z</time></trkpt><trkpt lat="44.49701723239363" lon="9.134513572260618"><ele>649.0</ele><time>2026-04-18T16:43:17.999Z</time></trkpt><trkpt lat="44.49689222163603" lon="9.134355248840805"><ele>649.0</ele><time>2026-04-18T16:43:18.999Z</time></trkpt><trkpt lat="44.49676138876444" lon="9.13421518967188"><ele>648.3333333333334</ele><time>2026-04-18T16:43:19.999Z</time></trkpt><trkpt lat="44.49664054320727" lon="9.134044958743598"><ele>647.6666666666666</ele><time>2026-04-18T16:43:20.999Z</time></trkpt><trkpt lat="44.49651691256174" lon="9.133869565949702"><ele>647.0</ele><time>2026-04-18T16:43:21.999Z</time></trkpt><trkpt lat="44.496393004534696" lon="9.133687948402327"><ele>647.0</ele><time>2026-04-18T16:43:23.022Z</time></trkpt><trkpt lat="44.49627687744288" lon="9.133520061421423"><ele>647.0</ele><time>2026-04-18T16:43:24.02Z</time></trkpt><trkpt lat="44.49615281898899" lon="9.133418949370203"><ele>647.0</ele><time>2026-04-18T16:43:25.022Z</time></trkpt><trkpt lat="44.49602902998389" lon="9.133302599728399"><ele>651.0</ele><time>2026-04-18T16:43:26.016Z</time></trkpt><trkpt lat="44.495853956995944" lon="9.133144517782737"><ele>655.0</ele><time>2026-04-18T16:43:27.022Z</time></trkpt><trkpt lat="44.4956997480863" lon="9.133006148218525"><ele>659.0</ele><time>2026-04-18T16:43:28.017Z</time></trkpt><trkpt lat="44.49555595902315" lon="9.132878338153061"><ele>634.0</ele><time>2026-04-18T16:43:29.022Z</time></trkpt><trkpt lat="44.4939221023065" lon="9.131657369443337"><ele>631.75</ele><time>2026-04-18T16:43:38.999Z</time></trkpt><trkpt lat="44.493770356951025" lon="9.131535547438908"><ele>629.5</ele><time>2026-04-18T16:43:39.999Z</time></trkpt><trkpt lat="44.49371400392437" lon="9.131430134689353"><ele>627.25</ele><time>2026-04-18T16:43:41.999Z</time></trkpt><trkpt lat="44.493620240502324" lon="9.131335151301796"><ele>625.0</ele><time>2026-04-18T16:43:42.999Z</time></trkpt><trkpt lat="44.49351804349912" lon="9.131241451090101"><ele>622.75</ele><time>2026-04-18T16:43:43.999Z</time></trkpt><trkpt lat="44.49343529698443" lon="9.131124057729636"><ele>620.5</ele><time>2026-04-18T16:43:44.999Z</time></trkpt><trkpt lat="44.49335853403392" lon="9.131002676526592"><ele>618.25</ele><time>2026-04-18T16:43:45.999Z</time></trkpt><trkpt lat="44.49330355244888" lon="9.130868177425963"><ele>616.0</ele><time>2026-04-18T16:43:46.999Z</time></trkpt><trkpt lat="44.493255904887604" lon="9.130714424873656"><ele>613.0</ele><time>2026-04-18T16:43:47.999Z</time></trkpt><trkpt lat="44.49320941329387" lon="9.130555644359363"><ele>610.0</ele><time>2026-04-18T16:43:49Z</time></trkpt><trkpt lat="44.49316591209619" lon="9.130419184635256"><ele>607.0</ele><time>2026-04-18T16:43:50Z</time></trkpt><trkpt lat="44.49312775632469" lon="9.130291290356023"><ele>604.0</ele><time>2026-04-18T16:43:51Z</time></trkpt><trkpt lat="44.493099917984196" lon="9.130154251802907"><ele>601.0</ele><time>2026-04-18T16:43:52Z</time></trkpt><trkpt lat="44.49304188684978" lon="9.130040223268065"><ele>601.0</ele><time>2026-04-18T16:43:53Z</time></trkpt><trkpt lat="44.49297058358668" lon="9.129950236338646"><ele>601.0</ele><time>2026-04-18T16:43:54Z</time></trkpt><trkpt lat="44.49287620552183" lon="9.129887185140335"><ele>601.0</ele><time>2026-04-18T16:43:55Z</time></trkpt><trkpt lat="44.492769877255114" lon="9.129861753521132"><ele>601.0</ele><time>2026-04-18T16:43:56Z</time></trkpt><trkpt lat="44.49268435102141" lon="9.12988972898352"><ele>601.0</ele><time>2026-04-18T16:43:57Z</time></trkpt><trkpt lat="44.492617356136556" lon="9.12992844452181"><ele>599.0</ele><time>2026-04-18T16:43:58Z</time></trkpt><trkpt lat="44.492561894893036" lon="9.130000798553812"><ele>597.0</ele><time>2026-04-18T16:43:59Z</time></trkpt><trkpt lat="44.49251440873762" lon="9.130094264914728"><ele>595.0</ele><time>2026-04-18T16:44:00Z</time></trkpt><trkpt lat="44.492483300360846" lon="9.130192792913974"><ele>593.0</ele><time>2026-04-18T16:44:01Z</time></trkpt><trkpt lat="44.49245678867659" lon="9.130292748982155"><ele>591.0</ele><time>2026-04-18T16:44:02Z</time></trkpt><trkpt lat="44.49241656225936" lon="9.130412108624467"><ele>589.0</ele><time>2026-04-18T16:44:03Z</time></trkpt><trkpt lat="44.49235208694652" lon="9.130515930570335"><ele>589.0</ele><time>2026-04-18T16:44:04Z</time></trkpt><trkpt lat="44.49226539764726" lon="9.130597065339968"><ele>589.0</ele><time>2026-04-18T16:44:05Z</time></trkpt><trkpt lat="44.4921798409753" lon="9.130637996983646"><ele>589.0</ele><time>2026-04-18T16:44:06Z</time></trkpt><trkpt lat="44.49209843381114" lon="9.130659287072715"><ele>589.0</ele><time>2026-04-18T16:44:07Z</time></trkpt><trkpt lat="44.492027089827715" lon="9.130711666065102"><ele>589.0</ele><time>2026-04-18T16:44:08Z</time></trkpt><trkpt lat="44.49192831782547" lon="9.130687121072935"><ele>588.25</ele><time>2026-04-18T16:44:09Z</time></trkpt><trkpt lat="44.491821919521776" lon="9.130703976890926"><ele>587.5</ele><time>2026-04-18T16:44:10Z</time></trkpt><trkpt lat="44.49169619970809" lon="9.130722376420856"><ele>586.75</ele><time>2026-04-18T16:44:11Z</time></trkpt><trkpt lat="44.49157468756162" lon="9.130738117107294"><ele>586.0</ele><time>2026-04-18T16:44:12Z</time></trkpt><trkpt lat="44.49144765508634" lon="9.130755272647951"><ele>587.5</ele><time>2026-04-18T16:44:13Z</time></trkpt><trkpt lat="44.49131354658893" lon="9.130770387798345"><ele>589.0</ele><time>2026-04-18T16:44:14Z</time></trkpt><trkpt lat="44.49116294369304" lon="9.130788179543833"><ele>590.5</ele><time>2026-04-18T16:44:15Z</time></trkpt><trkpt lat="44.49100920162865" lon="9.130806550278836"><ele>592.0</ele><time>2026-04-18T16:44:16Z</time></trkpt><trkpt lat="44.490877065979745" lon="9.130820196041519"><ele>599.0</ele><time>2026-04-18T16:44:17Z</time></trkpt><trkpt lat="44.49074471983183" lon="9.1308356171931"><ele>606.0</ele><time>2026-04-18T16:44:18Z</time></trkpt><trkpt lat="44.49060463122563" lon="9.130848726338083"><ele>613.0</ele><time>2026-04-18T16:44:19Z</time></trkpt><trkpt lat="44.49046008155916" lon="9.13086987299222"><ele>620.0</ele><time>2026-04-18T16:44:20Z</time></trkpt><trkpt lat="44.490312770775866" lon="9.130882818371491"><ele>622.25</ele><time>2026-04-18T16:44:21Z</time></trkpt><trkpt lat="44.490173360236945" lon="9.130892405275263"><ele>624.5</ele><time>2026-04-18T16:44:22Z</time></trkpt><trkpt lat="44.490026931084294" lon="9.130903340373385"><ele>626.75</ele><time>2026-04-18T16:44:23Z</time></trkpt><trkpt lat="44.48988336210217" lon="9.13091636549232"><ele>629.0</ele><time>2026-04-18T16:44:24Z</time></trkpt><trkpt lat="44.4897277051891" lon="9.130934786707902"><ele>630.6666666666666</ele><time>2026-04-18T16:44:25Z</time></trkpt><trkpt lat="44.489568079239696" lon="9.130958683919204"><ele>632.3333333333334</ele><time>2026-04-18T16:44:26Z</time></trkpt><trkpt lat="44.489425980100954" lon="9.130970326924862"><ele>634.0</ele><time>2026-04-18T16:44:27Z</time></trkpt><trkpt lat="44.488993007009384" lon="9.131004987036958"><ele>634.0</ele><time>2026-04-18T16:44:30Z</time></trkpt><trkpt lat="44.488837578116" lon="9.130999287852802"><ele>634.0</ele><time>2026-04-18T16:44:31Z</time></trkpt><trkpt lat="44.488668364626214" lon="9.13096542467483"><ele>634.0</ele><time>2026-04-18T16:44:32Z</time></trkpt><trkpt lat="44.48848115045445" lon="9.130904983852707"><ele>635.6666666666667</ele><time>2026-04-18T16:44:33Z</time></trkpt><trkpt lat="44.48828282747238" lon="9.130826652332429"><ele>637.3333333333334</ele><time>2026-04-18T16:44:34Z</time></trkpt><trkpt lat="44.488083467227376" lon="9.1307242259309"><ele>639.0</ele><time>2026-04-18T16:44:35Z</time></trkpt><trkpt lat="44.48790244516151" lon="9.130621506568943"><ele>633.0</ele><time>2026-04-18T16:44:36Z</time></trkpt><trkpt lat="44.487764844130844" lon="9.130522160822121"><ele>627.0</ele><time>2026-04-18T16:44:37Z</time></trkpt><trkpt lat="44.48759863481082" lon="9.130414165664858"><ele>621.0</ele><time>2026-04-18T16:44:38Z</time></trkpt><trkpt lat="44.48742166022542" lon="9.130311787839144"><ele>621.0</ele><time>2026-04-18T16:44:39Z</time></trkpt><trkpt lat="44.48724231284593" lon="9.130185246011623"><ele>621.0</ele><time>2026-04-18T16:44:40Z</time></trkpt><trkpt lat="44.48706636673604" lon="9.130071533162138"><ele>621.0</ele><time>2026-04-18T16:44:41Z</time></trkpt><trkpt lat="44.486912121932804" lon="9.129964783208779"><ele>620.6666666666666</ele><time>2026-04-18T16:44:42Z</time></trkpt><trkpt lat="44.486766401086356" lon="9.12987143045189"><ele>620.3333333333333</ele><time>2026-04-18T16:44:43Z</time></trkpt><trkpt lat="44.486630020366285" lon="9.12978470650692"><ele>620.0</ele><time>2026-04-18T16:44:44Z</time></trkpt><trkpt lat="44.48649001784691" lon="9.129681696103152"><ele>620.0</ele><time>2026-04-18T16:44:45Z</time></trkpt><trkpt lat="44.48633668320638" lon="9.129570883726291"><ele>620.0</ele><time>2026-04-18T16:44:46Z</time></trkpt><trkpt lat="44.4861903506771" lon="9.129416771537986"><ele>620.0</ele><time>2026-04-18T16:44:47Z</time></trkpt><trkpt lat="44.48605832503909" lon="9.129253424372084"><ele>623.6666666666666</ele><time>2026-04-18T16:44:48Z</time></trkpt><trkpt lat="44.485949366631885" lon="9.129086659928891"><ele>627.3333333333334</ele><time>2026-04-18T16:44:49Z</time></trkpt><trkpt lat="44.48584708271474" lon="9.128911657195832"><ele>631.0</ele><time>2026-04-18T16:44:50Z</time></trkpt><trkpt lat="44.48573702101337" lon="9.128710257761567"><ele>631.0</ele><time>2026-04-18T16:44:51Z</time></trkpt><trkpt lat="44.48561823267294" lon="9.128484290198434"><ele>631.0</ele><time>2026-04-18T16:44:52Z</time></trkpt><trkpt lat="44.48547946739943" lon="9.128236026421835"><ele>631.0</ele><time>2026-04-18T16:44:52.999Z</time></trkpt><trkpt lat="44.485346650019686" lon="9.128003083683852"><ele>630.6666666666667</ele><time>2026-04-18T16:44:53.999Z</time></trkpt><trkpt lat="44.48520991394008" lon="9.127763418375851"><ele>630.3333333333334</ele><time>2026-04-18T16:44:54.999Z</time></trkpt><trkpt lat="44.485070200259145" lon="9.127521822874192"><ele>630.0</ele><time>2026-04-18T16:44:55.999Z</time></trkpt><trkpt lat="44.484925292538584" lon="9.127281521893384"><ele>630.0</ele><time>2026-04-18T16:44:56.999Z</time></trkpt><trkpt lat="44.48477532273139" lon="9.127045900672423"><ele>630.0</ele><time>2026-04-18T16:44:57.999Z</time></trkpt><trkpt lat="44.48463599753354" lon="9.126787889426133"><ele>631.5</ele><time>2026-04-18T16:44:58.999Z</time></trkpt><trkpt lat="44.48448215110296" lon="9.126544622223559"><ele>633.0</ele><time>2026-04-18T16:44:59.999Z</time></trkpt><trkpt lat="44.484343120551394" lon="9.126309419893385"><ele>633.0</ele><time>2026-04-18T16:45:00.999Z</time></trkpt><trkpt lat="44.48421099824803" lon="9.126092769185249"><ele>633.0</ele><time>2026-04-18T16:45:01.999Z</time></trkpt><trkpt lat="44.48406787995564" lon="9.125842848217566"><ele>633.0</ele><time>2026-04-18T16:45:02.999Z</time></trkpt><trkpt lat="44.48392331916609" lon="9.125589880135564"><ele>630.5</ele><time>2026-04-18T16:45:03.999Z</time></trkpt><trkpt lat="44.48378167598091" lon="9.1253352468534"><ele>628.0</ele><time>2026-04-18T16:45:04.999Z</time></trkpt><trkpt lat="44.48363473954852" lon="9.125078129849888"><ele>632.6666666666667</ele><time>2026-04-18T16:45:05.999Z</time></trkpt><trkpt lat="44.483490126865576" lon="9.124834177792978"><ele>637.3333333333334</ele><time>2026-04-18T16:45:06.999Z</time></trkpt><trkpt lat="44.483358531624575" lon="9.124601281676917"><ele>642.0</ele><time>2026-04-18T16:45:07.999Z</time></trkpt><trkpt lat="44.48324243201003" lon="9.124392886218963"><ele>642.0</ele><time>2026-04-18T16:45:08.999Z</time></trkpt><trkpt lat="44.48313440411294" lon="9.124199669970489"><ele>642.0</ele><time>2026-04-18T16:45:09.999Z</time></trkpt><trkpt lat="44.483024648156764" lon="9.124024344337519"><ele>642.0</ele><time>2026-04-18T16:45:10.999Z</time></trkpt><trkpt lat="44.48291903156698" lon="9.123836397933221"><ele>645.3333333333334</ele><time>2026-04-18T16:45:11.999Z</time></trkpt><trkpt lat="44.48279644240346" lon="9.12368701753669"><ele>648.6666666666667</ele><time>2026-04-18T16:45:12.999Z</time></trkpt><trkpt lat="44.48264862750074" lon="9.12353593859182"><ele>652.0</ele><time>2026-04-18T16:45:13.999Z</time></trkpt><trkpt lat="44.482499044830135" lon="9.12341754145258"><ele>652.0</ele><time>2026-04-18T16:45:14.999Z</time></trkpt><trkpt lat="44.482357639237286" lon="9.123317233177955"><ele>652.0</ele><time>2026-04-18T16:45:15.999Z</time></trkpt><trkpt lat="44.48221621311792" lon="9.12322994259768"><ele>652.0</ele><time>2026-04-18T16:45:16.999Z</time></trkpt><trkpt lat="44.48203619620425" lon="9.123138294331838"><ele>660.6666666666667</ele><time>2026-04-18T16:45:17.999Z</time></trkpt><trkpt lat="44.48186095719664" lon="9.123033359855308"><ele>669.3333333333334</ele><time>2026-04-18T16:45:18.999Z</time></trkpt><trkpt lat="44.48168060358438" lon="9.1229310202818"><ele>678.0</ele><time>2026-04-18T16:45:20.016Z</time></trkpt><trkpt lat="44.481509190938006" lon="9.122828646178204"><ele>678.0</ele><time>2026-04-18T16:45:21.016Z</time></trkpt><trkpt lat="44.48135247237813" lon="9.122731145506895"><ele>678.0</ele><time>2026-04-18T16:45:22.015Z</time></trkpt><trkpt lat="44.4811800304766" lon="9.122628837938493"><ele>678.0</ele><time>2026-04-18T16:45:23.022Z</time></trkpt><trkpt lat="44.479294002887606" lon="9.121606062344673"><ele>741.0</ele><time>2026-04-18T16:45:26.511Z</time></trkpt><trkpt lat="44.478709607373595" lon="9.121276059827634"><ele>741.0</ele><time>2026-04-18T16:45:27.512Z</time></trkpt><trkpt lat="44.47812600688397" lon="9.120944807543463"><ele>743.5</ele><time>2026-04-18T16:45:28.512Z</time></trkpt><trkpt lat="44.4778263" lon="9.1207729"><ele>746.0</ele><time>2026-04-18T16:45:29.512Z</time></trkpt><trkpt lat="44.47067388803183" lon="9.11668511108413"><ele>710.3333333333333</ele><time>2026-04-18T16:46:24.999Z</time></trkpt><trkpt lat="44.470526539560936" lon="9.116608621724845"><ele>674.6666666666666</ele><time>2026-04-18T16:46:25.999Z</time></trkpt><trkpt lat="44.47038299991031" lon="9.116583374992105"><ele>639.0</ele><time>2026-04-18T16:46:26.999Z</time></trkpt><trkpt lat="44.47020887636169" lon="9.116541472257254"><ele>631.6666666666666</ele><time>2026-04-18T16:46:27.999Z</time></trkpt><trkpt lat="44.47004016667908" lon="9.116482418508081"><ele>624.3333333333333</ele><time>2026-04-18T16:46:28.999Z</time></trkpt><trkpt lat="44.46988060914859" lon="9.116450469447907"><ele>617.0</ele><time>2026-04-18T16:46:29.999Z</time></trkpt><trkpt lat="44.469737412518676" lon="9.11640216928791"><ele>616.75</ele><time>2026-04-18T16:46:31Z</time></trkpt><trkpt lat="44.469605098219276" lon="9.116348100900531"><ele>616.5</ele><time>2026-04-18T16:46:32Z</time></trkpt><trkpt lat="44.46947559893854" lon="9.116268196736172"><ele>616.25</ele><time>2026-04-18T16:46:33Z</time></trkpt><trkpt lat="44.46933271238439" lon="9.116169505750644"><ele>616.0</ele><time>2026-04-18T16:46:34Z</time></trkpt><trkpt lat="44.46917820277532" lon="9.116068732239768"><ele>616.0</ele><time>2026-04-18T16:46:35Z</time></trkpt><trkpt lat="44.46900333431905" lon="9.11597118511235"><ele>616.0</ele><time>2026-04-18T16:46:36Z</time></trkpt><trkpt lat="44.468835868200344" lon="9.115895816490571"><ele>616.0</ele><time>2026-04-18T16:46:37Z</time></trkpt><trkpt lat="44.46868229614414" lon="9.115839455249073"><ele>616.0</ele><time>2026-04-18T16:46:38Z</time></trkpt><trkpt lat="44.46854578521307" lon="9.11578331190603"><ele>616.0</ele><time>2026-04-18T16:46:39Z</time></trkpt><trkpt lat="44.468419092046574" lon="9.115731905105166"><ele>616.0</ele><time>2026-04-18T16:46:40Z</time></trkpt><trkpt lat="44.46830087598206" lon="9.115680291441036"><ele>616.0</ele><time>2026-04-18T16:46:41Z</time></trkpt><trkpt lat="44.46819510475455" lon="9.115633781337445"><ele>616.0</ele><time>2026-04-18T16:46:42Z</time></trkpt><trkpt lat="44.46811351928103" lon="9.115599035072409"><ele>616.0</ele><time>2026-04-18T16:46:43Z</time></trkpt><trkpt lat="44.46802981063113" lon="9.115528017119065"><ele>616.0</ele><time>2026-04-18T16:46:45Z</time></trkpt><trkpt lat="44.46809752305256" lon="9.115580600349508"><ele>616.0</ele><time>2026-04-18T16:47:07Z</time></trkpt><trkpt lat="44.46814312009445" lon="9.115663201591373"><ele>616.0</ele><time>2026-04-18T16:47:08Z</time></trkpt><trkpt lat="44.46824259648413" lon="9.115708472100334"><ele>616.0</ele><time>2026-04-18T16:47:09Z</time></trkpt><trkpt lat="44.46837975259993" lon="9.115750001014934"><ele>616.0</ele><time>2026-04-18T16:47:10Z</time></trkpt><trkpt lat="44.46847099172734" lon="9.115782945069677"><ele>616.0</ele><time>2026-04-18T16:47:11Z</time></trkpt><trkpt lat="44.46854547319908" lon="9.115818186376009"><ele>616.0</ele><time>2026-04-18T16:47:12Z</time></trkpt><trkpt lat="44.468610994392" lon="9.115845596193937"><ele>616.0</ele><time>2026-04-18T16:47:13Z</time></trkpt><trkpt lat="44.46870180572906" lon="9.115861735465392"><ele>616.0</ele><time>2026-04-18T16:47:15Z</time></trkpt><trkpt lat="44.46877259003796" lon="9.115864926170534"><ele>616.0</ele><time>2026-04-18T16:47:17Z</time></trkpt><trkpt lat="44.46886197266158" lon="9.11583723373786"><ele>616.0</ele><time>2026-04-18T16:47:19Z</time></trkpt><trkpt lat="44.46878303642606" lon="9.115823426432172"><ele>616.0</ele><time>2026-04-18T16:53:08Z</time></trkpt><trkpt lat="44.468715371767416" lon="9.11577492337843"><ele>616.0</ele><time>2026-04-18T16:53:15Z</time></trkpt><trkpt lat="44.468792294748305" lon="9.115766191081049"><ele>616.0</ele><time>2026-04-18T16:55:29Z</time></trkpt><trkpt lat="44.46885042287304" lon="9.115803204021525"><ele>616.0</ele><time>2026-04-18T16:55:37Z</time></trkpt><trkpt lat="44.46878773156482" lon="9.115784639329798"><ele>616.0</ele><time>2026-04-18T16:56:39.999Z</time></trkpt><trkpt lat="44.46872467032845" lon="9.115788499150666"><ele>616.0</ele><time>2026-04-18T16:56:43.999Z</time></trkpt><trkpt lat="44.46874151946702" lon="9.115694621104733"><ele>616.0</ele><time>2026-04-18T16:59:08Z</time></trkpt><trkpt lat="44.46875010113471" lon="9.115788745991662"><ele>616.0</ele><time>2026-04-18T17:07:15.999Z</time></trkpt><trkpt lat="44.46881598206534" lon="9.11583020856177"><ele>616.0</ele><time>2026-04-18T17:07:24.999Z</time></trkpt><trkpt lat="44.46888291000379" lon="9.115884244161231"><ele>616.0</ele><time>2026-04-18T17:08:11Z</time></trkpt><trkpt lat="44.46881413313068" lon="9.115882949533733"><ele>616.0</ele><time>2026-04-18T17:08:21Z</time></trkpt><trkpt lat="44.468751407360216" lon="9.11581818479488"><ele>616.0</ele><time>2026-04-18T17:08:23Z</time></trkpt><trkpt lat="44.468663989311466" lon="9.115788063001048"><ele>616.0</ele><time>2026-04-18T17:08:37.999Z</time></trkpt><trkpt lat="44.468594563276035" lon="9.115772931080068"><ele>616.0</ele><time>2026-04-18T17:08:38.999Z</time></trkpt><trkpt lat="44.468501700619306" lon="9.11574563763385"><ele>616.0</ele><time>2026-04-18T17:08:39.999Z</time></trkpt><trkpt lat="44.46839029987364" lon="9.115703062965546"><ele>616.0</ele><time>2026-04-18T17:08:40.999Z</time></trkpt><trkpt lat="44.468260580829245" lon="9.115655132964825"><ele>616.0</ele><time>2026-04-18T17:08:41.999Z</time></trkpt><trkpt lat="44.468152646062244" lon="9.115595593350134"><ele>617.5</ele><time>2026-04-18T17:08:42.999Z</time></trkpt><trkpt lat="44.46805942709648" lon="9.115520395036294"><ele>619.0</ele><time>2026-04-18T17:08:43.999Z</time></trkpt><trkpt lat="44.4679798886637" lon="9.115403711773315"><ele>620.5</ele><time>2026-04-18T17:08:44.999Z</time></trkpt><trkpt lat="44.46790906837012" lon="9.115283546576302"><ele>622.0</ele><time>2026-04-18T17:08:45.999Z</time></trkpt><trkpt lat="44.467864517426335" lon="9.115128210009033"><ele>622.0</ele><time>2026-04-18T17:08:46.999Z</time></trkpt><trkpt lat="44.4678466132637" lon="9.114949599250561"><ele>622.0</ele><time>2026-04-18T17:08:47.999Z</time></trkpt><trkpt lat="44.46782493733276" lon="9.114774631451194"><ele>622.0</ele><time>2026-04-18T17:08:48.999Z</time></trkpt><trkpt lat="44.46777486415006" lon="9.11461325860117"><ele>622.0</ele><time>2026-04-18T17:08:49.999Z</time></trkpt><trkpt lat="44.467692917366016" lon="9.11444109593785"><ele>614.0</ele><time>2026-04-18T17:08:50.999Z</time></trkpt><trkpt lat="44.46760610161338" lon="9.11426709082356"><ele>606.0</ele><time>2026-04-18T17:08:51.999Z</time></trkpt><trkpt lat="44.46751066496289" lon="9.114096090695345"><ele>598.0</ele><time>2026-04-18T17:08:52.999Z</time></trkpt><trkpt lat="44.4674210424718" lon="9.113893513304772"><ele>597.6666666666667</ele><time>2026-04-18T17:08:53.999Z</time></trkpt><trkpt lat="44.46732192791847" lon="9.113679278131055"><ele>597.3333333333334</ele><time>2026-04-18T17:08:54.999Z</time></trkpt><trkpt lat="44.46721503410698" lon="9.113446174623313"><ele>597.0</ele><time>2026-04-18T17:08:55.999Z</time></trkpt><trkpt lat="44.467103824845374" lon="9.113221338927096"><ele>597.0</ele><time>2026-04-18T17:08:56.999Z</time></trkpt><trkpt lat="44.46699467164008" lon="9.113001888434834"><ele>597.0</ele><time>2026-04-18T17:08:57.999Z</time></trkpt><trkpt lat="44.466882196803226" lon="9.11277627490587"><ele>597.0</ele><time>2026-04-18T17:08:58.999Z</time></trkpt><trkpt lat="44.46677829479849" lon="9.112557820416837"><ele>593.6666666666666</ele><time>2026-04-18T17:08:59.999Z</time></trkpt><trkpt lat="44.46668053862896" lon="9.112348891935225"><ele>590.3333333333333</ele><time>2026-04-18T17:09:00.999Z</time></trkpt><trkpt lat="44.46658664277525" lon="9.112138354946861"><ele>587.0</ele><time>2026-04-18T17:09:01.999Z</time></trkpt><trkpt lat="44.46650947526124" lon="9.111933232781997"><ele>587.0</ele><time>2026-04-18T17:09:02.999Z</time></trkpt><trkpt lat="44.46644847355756" lon="9.111732548150114"><ele>587.0</ele><time>2026-04-18T17:09:03.999Z</time></trkpt><trkpt lat="44.46639618770514" lon="9.111535366335715"><ele>587.0</ele><time>2026-04-18T17:09:04.999Z</time></trkpt><trkpt lat="44.46635026294444" lon="9.111337059198318"><ele>583.6666666666666</ele><time>2026-04-18T17:09:05.999Z</time></trkpt><trkpt lat="44.466300038381284" lon="9.111130659900889"><ele>580.3333333333334</ele><time>2026-04-18T17:09:06.999Z</time></trkpt><trkpt lat="44.46624866224275" lon="9.110939891659656"><ele>577.0</ele><time>2026-04-18T17:09:07.999Z</time></trkpt><trkpt lat="44.46619684134701" lon="9.110716923063453"><ele>584.0</ele><time>2026-04-18T17:09:08.999Z</time></trkpt><trkpt lat="44.466144844483345" lon="9.110485697864487"><ele>591.0</ele><time>2026-04-18T17:09:09.999Z</time></trkpt><trkpt lat="44.46609485144963" lon="9.110287152478017"><ele>598.0</ele><time>2026-04-18T17:09:10.999Z</time></trkpt><trkpt lat="44.466045259498685" lon="9.110085126029086"><ele>597.75</ele><time>2026-04-18T17:09:11.999Z</time></trkpt><trkpt lat="44.46600744640405" lon="9.109902438974553"><ele>597.5</ele><time>2026-04-18T17:09:12.999Z</time></trkpt><trkpt lat="44.46599351808403" lon="9.109726320552605"><ele>597.25</ele><time>2026-04-18T17:09:13.999Z</time></trkpt><trkpt lat="44.466001446329486" lon="9.10954467716484"><ele>597.0</ele><time>2026-04-18T17:09:14.999Z</time></trkpt><trkpt lat="44.466034377049645" lon="9.109344744391622"><ele>597.0</ele><time>2026-04-18T17:09:15.999Z</time></trkpt><trkpt lat="44.46608455033999" lon="9.10914745789087"><ele>597.0</ele><time>2026-04-18T17:09:16.999Z</time></trkpt><trkpt lat="44.466159681007774" lon="9.108967439258034"><ele>597.0</ele><time>2026-04-18T17:09:17.999Z</time></trkpt><trkpt lat="44.466239018593114" lon="9.10881005415872"><ele>597.0</ele><time>2026-04-18T17:09:18.999Z</time></trkpt><trkpt lat="44.46631839529211" lon="9.108656586374945"><ele>589.5</ele><time>2026-04-18T17:09:19.999Z</time></trkpt><trkpt lat="44.466383072801996" lon="9.10850227996802"><ele>582.0</ele><time>2026-04-18T17:09:20.999Z</time></trkpt><trkpt lat="44.466431615310576" lon="9.108313220671107"><ele>574.5</ele><time>2026-04-18T17:09:21.999Z</time></trkpt><trkpt lat="44.46646306998225" lon="9.108103877538055"><ele>567.0</ele><time>2026-04-18T17:09:22.999Z</time></trkpt><trkpt lat="44.46647728172145" lon="9.107895856528792"><ele>567.0</ele><time>2026-04-18T17:09:23.999Z</time></trkpt><trkpt lat="44.466504707384544" lon="9.107736844051518"><ele>567.0</ele><time>2026-04-18T17:09:24.999Z</time></trkpt><trkpt lat="44.466505978098" lon="9.107570743488104"><ele>567.0</ele><time>2026-04-18T17:09:25.999Z</time></trkpt><trkpt lat="44.466485634635625" lon="9.107426304936293"><ele>567.0</ele><time>2026-04-18T17:09:26.999Z</time></trkpt><trkpt lat="44.46643295456654" lon="9.107287228684028"><ele>567.75</ele><time>2026-04-18T17:09:27.999Z</time></trkpt><trkpt lat="44.46635205761675" lon="9.107160037757016"><ele>568.5</ele><time>2026-04-18T17:09:28.999Z</time></trkpt><trkpt lat="44.46624405704766" lon="9.107067368255256"><ele>569.25</ele><time>2026-04-18T17:09:29.999Z</time></trkpt><trkpt lat="44.46610491656164" lon="9.107000840991187"><ele>570.0</ele><time>2026-04-18T17:09:30.999Z</time></trkpt><trkpt lat="44.46594784555548" lon="9.106935962436735"><ele>570.0</ele><time>2026-04-18T17:09:31.999Z</time></trkpt><trkpt lat="44.46578786508639" lon="9.106870803316808"><ele>570.0</ele><time>2026-04-18T17:09:32.999Z</time></trkpt><trkpt lat="44.46564991211333" lon="9.106810670301876"><ele>570.0</ele><time>2026-04-18T17:09:33.999Z</time></trkpt><trkpt lat="44.46552549683452" lon="9.106740825879063"><ele>570.0</ele><time>2026-04-18T17:09:34.999Z</time></trkpt><trkpt lat="44.46542740031042" lon="9.106634688750834"><ele>577.5</ele><time>2026-04-18T17:09:35.999Z</time></trkpt><trkpt lat="44.4653540530623" lon="9.106475473504947"><ele>585.0</ele><time>2026-04-18T17:09:37Z</time></trkpt><trkpt lat="44.46529686409942" lon="9.106271670838504"><ele>592.5</ele><time>2026-04-18T17:09:38Z</time></trkpt><trkpt lat="44.4652769582541" lon="9.106058643968248"><ele>600.0</ele><time>2026-04-18T17:09:39Z</time></trkpt><trkpt lat="44.46529436590885" lon="9.105869226910876"><ele>603.6666666666666</ele><time>2026-04-18T17:09:40Z</time></trkpt><trkpt lat="44.46535756447898" lon="9.10567996326965"><ele>607.3333333333333</ele><time>2026-04-18T17:09:41Z</time></trkpt><trkpt lat="44.46546096863913" lon="9.105481411928706"><ele>611.0</ele><time>2026-04-18T17:09:42Z</time></trkpt><trkpt lat="44.46557994252661" lon="9.105284433627238"><ele>601.0</ele><time>2026-04-18T17:09:43Z</time></trkpt><trkpt lat="44.46567389816564" lon="9.10509900382884"><ele>591.0</ele><time>2026-04-18T17:09:44Z</time></trkpt><trkpt lat="44.465765032614364" lon="9.104937458256293"><ele>581.0</ele><time>2026-04-18T17:09:45Z</time></trkpt><trkpt lat="44.465845062849986" lon="9.104789340005901"><ele>571.0</ele><time>2026-04-18T17:09:46Z</time></trkpt><trkpt lat="44.465901898405804" lon="9.104635906056586"><ele>571.0</ele><time>2026-04-18T17:09:47Z</time></trkpt><trkpt lat="44.46593972791837" lon="9.104465341096583"><ele>571.0</ele><time>2026-04-18T17:09:48Z</time></trkpt><trkpt lat="44.465962153567126" lon="9.10428334113739"><ele>571.0</ele><time>2026-04-18T17:09:49Z</time></trkpt><trkpt lat="44.46595456955447" lon="9.104088496684376"><ele>571.0</ele><time>2026-04-18T17:09:50Z</time></trkpt><trkpt lat="44.46593102529031" lon="9.1038976042249"><ele>567.5</ele><time>2026-04-18T17:09:51Z</time></trkpt><trkpt lat="44.465878811248196" lon="9.103709778718141"><ele>564.0</ele><time>2026-04-18T17:09:52Z</time></trkpt><trkpt lat="44.46581519366973" lon="9.103548611137873"><ele>560.5</ele><time>2026-04-18T17:09:53Z</time></trkpt><trkpt lat="44.46573138246136" lon="9.103417478311606"><ele>557.0</ele><time>2026-04-18T17:09:54Z</time></trkpt><trkpt lat="44.46562611670349" lon="9.103305263406742"><ele>557.75</ele><time>2026-04-18T17:09:55Z</time></trkpt><trkpt lat="44.46549772174587" lon="9.10321252746338"><ele>558.5</ele><time>2026-04-18T17:09:56Z</time></trkpt><trkpt lat="44.465378841012296" lon="9.10311957012072"><ele>559.25</ele><time>2026-04-18T17:09:57Z</time></trkpt><trkpt lat="44.4652603081917" lon="9.103021363862867"><ele>560.0</ele><time>2026-04-18T17:09:58Z</time></trkpt><trkpt lat="44.46513550475761" lon="9.102916002657635"><ele>560.0</ele><time>2026-04-18T17:09:59Z</time></trkpt><trkpt lat="44.46501128439223" lon="9.102813254163394"><ele>560.0</ele><time>2026-04-18T17:10:00Z</time></trkpt><trkpt lat="44.46489062062464" lon="9.102719433370623"><ele>560.0</ele><time>2026-04-18T17:10:01Z</time></trkpt><trkpt lat="44.46477408111817" lon="9.102628365259761"><ele>560.0</ele><time>2026-04-18T17:10:02Z</time></trkpt><trkpt lat="44.46465595736445" lon="9.102543118437046"><ele>562.75</ele><time>2026-04-18T17:10:03Z</time></trkpt><trkpt lat="44.46453692858727" lon="9.102466438439423"><ele>565.5</ele><time>2026-04-18T17:10:04Z</time></trkpt><trkpt lat="44.464421564875785" lon="9.102383962051837"><ele>568.25</ele><time>2026-04-18T17:10:05Z</time></trkpt><trkpt lat="44.46431514904428" lon="9.102308837327907"><ele>571.0</ele><time>2026-04-18T17:10:06Z</time></trkpt><trkpt lat="44.464213886485375" lon="9.102237876031811"><ele>565.25</ele><time>2026-04-18T17:10:07Z</time></trkpt><trkpt lat="44.4641193168609" lon="9.102144833396101"><ele>559.5</ele><time>2026-04-18T17:10:08Z</time></trkpt><trkpt lat="44.46401533317374" lon="9.102077623377799"><ele>553.75</ele><time>2026-04-18T17:10:09Z</time></trkpt><trkpt lat="44.46391919364409" lon="9.101990320676133"><ele>548.0</ele><time>2026-04-18T17:10:10Z</time></trkpt><trkpt lat="44.46381518298367" lon="9.101918846177641"><ele>550.5</ele><time>2026-04-18T17:10:11Z</time></trkpt><trkpt lat="44.46371215861401" lon="9.10183420892374"><ele>553.0</ele><time>2026-04-18T17:10:12Z</time></trkpt><trkpt lat="44.463607130043464" lon="9.101756290765925"><ele>555.5</ele><time>2026-04-18T17:10:13Z</time></trkpt><trkpt lat="44.46350049357172" lon="9.101673936932677"><ele>558.0</ele><time>2026-04-18T17:10:14Z</time></trkpt><trkpt lat="44.46339402061442" lon="9.101591253988486"><ele>553.0</ele><time>2026-04-18T17:10:15Z</time></trkpt><trkpt lat="44.46328591386214" lon="9.101510218205682"><ele>548.0</ele><time>2026-04-18T17:10:16Z</time></trkpt><trkpt lat="44.46317459199986" lon="9.101432558125632"><ele>543.0</ele><time>2026-04-18T17:10:17Z</time></trkpt><trkpt lat="44.463067548391265" lon="9.10135551384683"><ele>538.0</ele><time>2026-04-18T17:10:18Z</time></trkpt><trkpt lat="44.46295874851215" lon="9.101276425677451"><ele>542.5</ele><time>2026-04-18T17:10:19Z</time></trkpt><trkpt lat="44.46285065409674" lon="9.101195608741763"><ele>547.0</ele><time>2026-04-18T17:10:20Z</time></trkpt><trkpt lat="44.462741922268535" lon="9.101113114190902"><ele>551.5</ele><time>2026-04-18T17:10:21Z</time></trkpt><trkpt lat="44.46263298653203" lon="9.101031382802821"><ele>556.0</ele><time>2026-04-18T17:10:22Z</time></trkpt><trkpt lat="44.462523244672546" lon="9.100949108776028"><ele>556.0</ele><time>2026-04-18T17:10:23Z</time></trkpt><trkpt lat="44.46241580972427" lon="9.100861033404582"><ele>556.0</ele><time>2026-04-18T17:10:24Z</time></trkpt><trkpt lat="44.46230130798418" lon="9.100775739700623"><ele>556.0</ele><time>2026-04-18T17:10:25Z</time></trkpt><trkpt lat="44.46218596060308" lon="9.100696161100041"><ele>556.0</ele><time>2026-04-18T17:10:26Z</time></trkpt><trkpt lat="44.46207805437808" lon="9.1006144133776"><ele>556.75</ele><time>2026-04-18T17:10:27Z</time></trkpt><trkpt lat="44.461979815324284" lon="9.100516972885274"><ele>557.5</ele><time>2026-04-18T17:10:28Z</time></trkpt><trkpt lat="44.46189243733447" lon="9.100390516162"><ele>558.25</ele><time>2026-04-18T17:10:29Z</time></trkpt><trkpt lat="44.4618199194661" lon="9.100235726993295"><ele>559.0</ele><time>2026-04-18T17:10:30Z</time></trkpt><trkpt lat="44.46178739467618" lon="9.100052114214531"><ele>555.0</ele><time>2026-04-18T17:10:31Z</time></trkpt><trkpt lat="44.46177776285238" lon="9.099834995182443"><ele>551.0</ele><time>2026-04-18T17:10:32Z</time></trkpt><trkpt lat="44.461780057626214" lon="9.09963983360352"><ele>547.0</ele><time>2026-04-18T17:10:33Z</time></trkpt><trkpt lat="44.461775503792516" lon="9.099461960423731"><ele>543.0</ele><time>2026-04-18T17:10:34Z</time></trkpt><trkpt lat="44.461746015712265" lon="9.099298610857497"><ele>543.0</ele><time>2026-04-18T17:10:35Z</time></trkpt><trkpt lat="44.461677930426916" lon="9.099163673829166"><ele>543.0</ele><time>2026-04-18T17:10:36Z</time></trkpt><trkpt lat="44.461595318411554" lon="9.099014735544484"><ele>543.0</ele><time>2026-04-18T17:10:37Z</time></trkpt><trkpt lat="44.4614491856822" lon="9.098903208824101"><ele>543.0</ele><time>2026-04-18T17:10:38Z</time></trkpt><trkpt lat="44.46130408423721" lon="9.098821313330427"><ele>544.5</ele><time>2026-04-18T17:10:38.999Z</time></trkpt><trkpt lat="44.46118022079423" lon="9.098735532159237"><ele>546.0</ele><time>2026-04-18T17:10:39.999Z</time></trkpt><trkpt lat="44.46107429671333" lon="9.098623396870273"><ele>547.5</ele><time>2026-04-18T17:10:40.999Z</time></trkpt><trkpt lat="44.46097781654261" lon="9.09846052863983"><ele>549.0</ele><time>2026-04-18T17:10:41.999Z</time></trkpt><trkpt lat="44.46089725045331" lon="9.098262432851987"><ele>545.3333333333334</ele><time>2026-04-18T17:10:42.999Z</time></trkpt><trkpt lat="44.46087309075971" lon="9.09804474950948"><ele>541.6666666666667</ele><time>2026-04-18T17:10:43.999Z</time></trkpt><trkpt lat="44.46088197515783" lon="9.09781761063659"><ele>538.0</ele><time>2026-04-18T17:10:44.999Z</time></trkpt><trkpt lat="44.460920863132095" lon="9.097571332388327"><ele>538.6666666666667</ele><time>2026-04-18T17:10:45.999Z</time></trkpt><trkpt lat="44.46097711613872" lon="9.09732294276145"><ele>539.3333333333334</ele><time>2026-04-18T17:10:46.999Z</time></trkpt><trkpt lat="44.46101891331167" lon="9.097091786358208"><ele>540.0</ele><time>2026-04-18T17:10:47.999Z</time></trkpt><trkpt lat="44.461061624195295" lon="9.096874512567913"><ele>540.0</ele><time>2026-04-18T17:10:48.999Z</time></trkpt><trkpt lat="44.46108748691874" lon="9.0966807643234"><ele>540.0</ele><time>2026-04-18T17:10:49.999Z</time></trkpt><trkpt lat="44.461093800589474" lon="9.09648281452034"><ele>540.0</ele><time>2026-04-18T17:10:50.999Z</time></trkpt><trkpt lat="44.461075476953766" lon="9.096250930505159"><ele>540.0</ele><time>2026-04-18T17:10:51.999Z</time></trkpt><trkpt lat="44.46102716471636" lon="9.096041368840913"><ele>534.3333333333334</ele><time>2026-04-18T17:10:52.999Z</time></trkpt><trkpt lat="44.460948991479604" lon="9.095843105053516"><ele>528.6666666666667</ele><time>2026-04-18T17:10:53.999Z</time></trkpt><trkpt lat="44.46083694229926" lon="9.09563059587879"><ele>523.0</ele><time>2026-04-18T17:10:54.999Z</time></trkpt><trkpt lat="44.46067999420138" lon="9.095405595330256"><ele>522.6666666666667</ele><time>2026-04-18T17:10:55.999Z</time></trkpt><trkpt lat="44.460543306361274" lon="9.095184637567957"><ele>522.3333333333334</ele><time>2026-04-18T17:10:56.999Z</time></trkpt><trkpt lat="44.46041881510712" lon="9.094988892865445"><ele>522.0</ele><time>2026-04-18T17:10:57.999Z</time></trkpt><trkpt lat="44.460305468532525" lon="9.094808715588048"><ele>517.0</ele><time>2026-04-18T17:10:58.999Z</time></trkpt><trkpt lat="44.460206814570064" lon="9.094648494766252"><ele>512.0</ele><time>2026-04-18T17:10:59.999Z</time></trkpt><trkpt lat="44.46011157886433" lon="9.09450694120816"><ele>507.0</ele><time>2026-04-18T17:11:00.999Z</time></trkpt><trkpt lat="44.46000525590078" lon="9.094389426827249"><ele>502.0</ele><time>2026-04-18T17:11:01.999Z</time></trkpt><trkpt lat="44.459877684744406" lon="9.094277030767982"><ele>502.0</ele><time>2026-04-18T17:11:02.999Z</time></trkpt><trkpt lat="44.45973854630971" lon="9.094225814756431"><ele>502.0</ele><time>2026-04-18T17:11:03.999Z</time></trkpt><trkpt lat="44.45958787985233" lon="9.094220114776435"><ele>502.0</ele><time>2026-04-18T17:11:04.999Z</time></trkpt><trkpt lat="44.45945206473064" lon="9.094212853618563"><ele>502.0</ele><time>2026-04-18T17:11:05.999Z</time></trkpt><trkpt lat="44.459322072314045" lon="9.094181436915115"><ele>502.6666666666667</ele><time>2026-04-18T17:11:06.999Z</time></trkpt><trkpt lat="44.45918111120093" lon="9.09411701741556"><ele>503.33333333333337</ele><time>2026-04-18T17:11:07.999Z</time></trkpt><trkpt lat="44.45904672404086" lon="9.093984470519048"><ele>504.0</ele><time>2026-04-18T17:11:08.999Z</time></trkpt><trkpt lat="44.458921328523125" lon="9.093873655347007"><ele>499.0</ele><time>2026-04-18T17:11:09.999Z</time></trkpt><trkpt lat="44.45880794962796" lon="9.093773367613029"><ele>494.0</ele><time>2026-04-18T17:11:10.999Z</time></trkpt><trkpt lat="44.45870066668324" lon="9.093691949238611"><ele>489.0</ele><time>2026-04-18T17:11:11.999Z</time></trkpt><trkpt lat="44.458627272589226" lon="9.093569334551749"><ele>484.0</ele><time>2026-04-18T17:11:12.999Z</time></trkpt><trkpt lat="44.458580759981004" lon="9.093429057365535"><ele>493.5</ele><time>2026-04-18T17:11:13.999Z</time></trkpt><trkpt lat="44.45856189442354" lon="9.093243813356038"><ele>503.0</ele><time>2026-04-18T17:11:14.999Z</time></trkpt><trkpt lat="44.458574568231384" lon="9.093044855765077"><ele>512.5</ele><time>2026-04-18T17:11:15.999Z</time></trkpt><trkpt lat="44.45863547277349" lon="9.092868119659022"><ele>522.0</ele><time>2026-04-18T17:11:16.999Z</time></trkpt><trkpt lat="44.45872501109661" lon="9.09271094350921"><ele>513.0</ele><time>2026-04-18T17:11:17.999Z</time></trkpt><trkpt lat="44.458814663479856" lon="9.092562897605257"><ele>504.0</ele><time>2026-04-18T17:11:18.999Z</time></trkpt><trkpt lat="44.45890576235725" lon="9.092394460358607"><ele>495.0</ele><time>2026-04-18T17:11:19.999Z</time></trkpt><trkpt lat="44.45897215598148" lon="9.092228211541055"><ele>486.0</ele><time>2026-04-18T17:11:20.999Z</time></trkpt><trkpt lat="44.45900373075175" lon="9.09202534868703"><ele>486.0</ele><time>2026-04-18T17:11:21.999Z</time></trkpt><trkpt lat="44.45902443560543" lon="9.09180507031234"><ele>486.0</ele><time>2026-04-18T17:11:22.999Z</time></trkpt><trkpt lat="44.45899975960509" lon="9.091596302472743"><ele>486.0</ele><time>2026-04-18T17:11:23.999Z</time></trkpt><trkpt lat="44.45895671647314" lon="9.091369129930182"><ele>481.33333333333337</ele><time>2026-04-18T17:11:24.999Z</time></trkpt><trkpt lat="44.45890447794494" lon="9.091132982378443"><ele>476.6666666666667</ele><time>2026-04-18T17:11:25.999Z</time></trkpt><trkpt lat="44.45887266001507" lon="9.090905407863557"><ele>472.0</ele><time>2026-04-18T17:11:26.999Z</time></trkpt><trkpt lat="44.458827807235174" lon="9.090686455362107"><ele>469.0</ele><time>2026-04-18T17:11:27.999Z</time></trkpt><trkpt lat="44.458787510808214" lon="9.090489011546591"><ele>466.0</ele><time>2026-04-18T17:11:28.999Z</time></trkpt><trkpt lat="44.45874873027699" lon="9.090304824400548"><ele>463.0</ele><time>2026-04-18T17:11:29.999Z</time></trkpt><trkpt lat="44.45871504684311" lon="9.090136434743172"><ele>460.0</ele><time>2026-04-18T17:11:30.999Z</time></trkpt><trkpt lat="44.458682089007034" lon="9.089976220513929"><ele>457.25</ele><time>2026-04-18T17:11:31.999Z</time></trkpt><trkpt lat="44.45869052463778" lon="9.089806456091482"><ele>454.5</ele><time>2026-04-18T17:11:32.999Z</time></trkpt><trkpt lat="44.45872100169695" lon="9.089615940178401"><ele>451.75</ele><time>2026-04-18T17:11:33.999Z</time></trkpt><trkpt lat="44.45876702909225" lon="9.0894450023391"><ele>449.0</ele><time>2026-04-18T17:11:34.999Z</time></trkpt><trkpt lat="44.45880434918887" lon="9.089288097040294"><ele>449.0</ele><time>2026-04-18T17:11:35.999Z</time></trkpt><trkpt lat="44.45880628353672" lon="9.089123337991554"><ele>449.0</ele><time>2026-04-18T17:11:36.999Z</time></trkpt><trkpt lat="44.45877742836934" lon="9.088945260158194"><ele>449.0</ele><time>2026-04-18T17:11:37.999Z</time></trkpt><trkpt lat="44.4587294031447" lon="9.088782526742964"><ele>449.0</ele><time>2026-04-18T17:11:38.999Z</time></trkpt><trkpt lat="44.4586567869206" lon="9.088639857806058"><ele>454.3333333333333</ele><time>2026-04-18T17:11:39.999Z</time></trkpt><trkpt lat="44.45856047512627" lon="9.088502200929895"><ele>459.66666666666663</ele><time>2026-04-18T17:11:40.999Z</time></trkpt><trkpt lat="44.458415366538496" lon="9.088403640692723"><ele>465.0</ele><time>2026-04-18T17:11:41.999Z</time></trkpt><trkpt lat="44.45824150974335" lon="9.088331404789079"><ele>460.33333333333337</ele><time>2026-04-18T17:11:43Z</time></trkpt><trkpt lat="44.458058738207036" lon="9.088255794176256"><ele>455.6666666666667</ele><time>2026-04-18T17:11:44Z</time></trkpt><trkpt lat="44.45789406902489" lon="9.088187865949813"><ele>451.0</ele><time>2026-04-18T17:11:45Z</time></trkpt><trkpt lat="44.45775091132463" lon="9.088128811495315"><ele>451.0</ele><time>2026-04-18T17:11:46Z</time></trkpt><trkpt lat="44.45760901024899" lon="9.088070275417182"><ele>451.0</ele><time>2026-04-18T17:11:47Z</time></trkpt><trkpt lat="44.45747790448509" lon="9.088015636272003"><ele>451.0</ele><time>2026-04-18T17:11:48Z</time></trkpt><trkpt lat="44.45735357101668" lon="9.087953813532613"><ele>451.0</ele><time>2026-04-18T17:11:49Z</time></trkpt><trkpt lat="44.457234736564" lon="9.087865815796578"><ele>451.0</ele><time>2026-04-18T17:11:50Z</time></trkpt><trkpt lat="44.45712751503444" lon="9.087742620048884"><ele>451.0</ele><time>2026-04-18T17:11:51Z</time></trkpt><trkpt lat="44.4570349645847" lon="9.087586510429036"><ele>451.0</ele><time>2026-04-18T17:11:52Z</time></trkpt><trkpt lat="44.45696601137335" lon="9.087405123340837"><ele>451.0</ele><time>2026-04-18T17:11:53Z</time></trkpt><trkpt lat="44.45688944679972" lon="9.087259471785012"><ele>449.5</ele><time>2026-04-18T17:11:54Z</time></trkpt><trkpt lat="44.456828317394546" lon="9.087096992508137"><ele>448.0</ele><time>2026-04-18T17:11:55Z</time></trkpt><trkpt lat="44.45674519626512" lon="9.086954424611978"><ele>446.5</ele><time>2026-04-18T17:11:56Z</time></trkpt><trkpt lat="44.45664245686109" lon="9.08682814938358"><ele>445.0</ele><time>2026-04-18T17:11:57Z</time></trkpt><trkpt lat="44.456518114404595" lon="9.086727573307757"><ele>445.0</ele><time>2026-04-18T17:11:58Z</time></trkpt><trkpt lat="44.45638453837485" lon="9.086657685478876"><ele>445.0</ele><time>2026-04-18T17:11:59Z</time></trkpt><trkpt lat="44.45622044939786" lon="9.08662246221878"><ele>445.0</ele><time>2026-04-18T17:12:00Z</time></trkpt><trkpt lat="44.456050824455964" lon="9.086630880465968"><ele>448.0</ele><time>2026-04-18T17:12:01Z</time></trkpt><trkpt lat="44.45589565637228" lon="9.086619983723233"><ele>451.0</ele><time>2026-04-18T17:12:02Z</time></trkpt><trkpt lat="44.455733816585024" lon="9.086585929709635"><ele>454.0</ele><time>2026-04-18T17:12:03Z</time></trkpt><trkpt lat="44.4555719730885" lon="9.086574587096365"><ele>441.0</ele><time>2026-04-18T17:12:04Z</time></trkpt><trkpt lat="44.45540523964298" lon="9.086562901779551"><ele>428.0</ele><time>2026-04-18T17:12:05Z</time></trkpt><trkpt lat="44.45523599817446" lon="9.086553279299368"><ele>415.0</ele><time>2026-04-18T17:12:06Z</time></trkpt><trkpt lat="44.45507208609685" lon="9.086541117348112"><ele>415.0</ele><time>2026-04-18T17:12:07Z</time></trkpt><trkpt lat="44.45491697920394" lon="9.08653067378511"><ele>415.0</ele><time>2026-04-18T17:12:08Z</time></trkpt><trkpt lat="44.45476350081832" lon="9.08654090889249"><ele>415.0</ele><time>2026-04-18T17:12:09Z</time></trkpt><trkpt lat="44.45460912179421" lon="9.08652563479322"><ele>414.0</ele><time>2026-04-18T17:12:10Z</time></trkpt><trkpt lat="44.45446164502895" lon="9.086511637680289"><ele>413.0</ele><time>2026-04-18T17:12:11Z</time></trkpt><trkpt lat="44.45431611652331" lon="9.08650378891012"><ele>412.0</ele><time>2026-04-18T17:12:12Z</time></trkpt><trkpt lat="44.45418612493223" lon="9.086527752222782"><ele>411.0</ele><time>2026-04-18T17:12:13Z</time></trkpt><trkpt lat="44.45406653445287" lon="9.086586993072203"><ele>418.33333333333337</ele><time>2026-04-18T17:12:14Z</time></trkpt><trkpt lat="44.453914507329095" lon="9.086779663579389"><ele>425.6666666666667</ele><time>2026-04-18T17:12:16Z</time></trkpt><trkpt lat="44.45382031224088" lon="9.08690329286772"><ele>433.0</ele><time>2026-04-18T17:12:17Z</time></trkpt><trkpt lat="44.45371397699563" lon="9.086977902513485"><ele>433.0</ele><time>2026-04-18T17:12:18Z</time></trkpt><trkpt lat="44.45358437447825" lon="9.086969090864487"><ele>433.0</ele><time>2026-04-18T17:12:19Z</time></trkpt><trkpt lat="44.45346051086294" lon="9.086911090289535"><ele>433.0</ele><time>2026-04-18T17:12:20Z</time></trkpt><trkpt lat="44.45334385905853" lon="9.086836852210933"><ele>433.0</ele><time>2026-04-18T17:12:21Z</time></trkpt><trkpt lat="44.45324165784225" lon="9.086698758684685"><ele>433.0</ele><time>2026-04-18T17:12:22Z</time></trkpt><trkpt lat="44.453131527614616" lon="9.086596676872317"><ele>433.0</ele><time>2026-04-18T17:12:23Z</time></trkpt><trkpt lat="44.45301806026733" lon="9.08652672865096"><ele>433.0</ele><time>2026-04-18T17:12:24Z</time></trkpt><trkpt lat="44.45289877147705" lon="9.08648336592975"><ele>433.0</ele><time>2026-04-18T17:12:25Z</time></trkpt><trkpt lat="44.45277941049182" lon="9.086497570307946"><ele>431.0</ele><time>2026-04-18T17:12:26Z</time></trkpt><trkpt lat="44.45265663134584" lon="9.086553048458425"><ele>429.0</ele><time>2026-04-18T17:12:27Z</time></trkpt><trkpt lat="44.452527105313315" lon="9.086657920464907"><ele>427.0</ele><time>2026-04-18T17:12:28Z</time></trkpt><trkpt lat="44.45242223779513" lon="9.086769938537921"><ele>425.0</ele><time>2026-04-18T17:12:29Z</time></trkpt><trkpt lat="44.45232546976629" lon="9.086852227914433"><ele>425.0</ele><time>2026-04-18T17:12:30Z</time></trkpt><trkpt lat="44.4522165071165" lon="9.086887043727932"><ele>425.0</ele><time>2026-04-18T17:12:31Z</time></trkpt><trkpt lat="44.45210832694739" lon="9.08687267323558"><ele>425.0</ele><time>2026-04-18T17:12:32Z</time></trkpt><trkpt lat="44.451988291150585" lon="9.086797354796243"><ele>425.0</ele><time>2026-04-18T17:12:33Z</time></trkpt><trkpt lat="44.451887260317356" lon="9.086652405084957"><ele>421.8</ele><time>2026-04-18T17:12:34Z</time></trkpt><trkpt lat="44.45178087769188" lon="9.086586190067402"><ele>418.6</ele><time>2026-04-18T17:12:35Z</time></trkpt><trkpt lat="44.451689552563614" lon="9.086512792997993"><ele>415.4</ele><time>2026-04-18T17:12:36Z</time></trkpt><trkpt lat="44.451594171085965" lon="9.086478335374073"><ele>412.2</ele><time>2026-04-18T17:12:37Z</time></trkpt><trkpt lat="44.45147922698689" lon="9.08650364725749"><ele>409.0</ele><time>2026-04-18T17:12:38Z</time></trkpt><trkpt lat="44.451355298096445" lon="9.086584676055391"><ele>409.6</ele><time>2026-04-18T17:12:39Z</time></trkpt><trkpt lat="44.45125344445005" lon="9.086670455335758"><ele>410.2</ele><time>2026-04-18T17:12:40Z</time></trkpt><trkpt lat="44.451157892816326" lon="9.08672473508251"><ele>410.8</ele><time>2026-04-18T17:12:41Z</time></trkpt><trkpt lat="44.45106669204218" lon="9.086752004665144"><ele>411.40000000000003</ele><time>2026-04-18T17:12:42Z</time></trkpt><trkpt lat="44.45099095215932" lon="9.086759324343374"><ele>412.0</ele><time>2026-04-18T17:12:43Z</time></trkpt><trkpt lat="44.45089508192799" lon="9.086757927444763"><ele>412.0</ele><time>2026-04-18T17:12:45Z</time></trkpt><trkpt lat="44.450786706396634" lon="9.086758967495804"><ele>412.0</ele><time>2026-04-18T17:13:18.999Z</time></trkpt><trkpt lat="44.450688818893525" lon="9.086714509714481"><ele>412.0</ele><time>2026-04-18T17:13:19.999Z</time></trkpt><trkpt lat="44.45060184033926" lon="9.086706967486833"><ele>412.0</ele><time>2026-04-18T17:13:20.999Z</time></trkpt><trkpt lat="44.450516667818306" lon="9.086692866660153"><ele>412.0</ele><time>2026-04-18T17:13:21.999Z</time></trkpt><trkpt lat="44.45044231539682" lon="9.086746252523511"><ele>410.0</ele><time>2026-04-18T17:13:22.999Z</time></trkpt><trkpt lat="44.450371424697614" lon="9.086813572944358"><ele>408.0</ele><time>2026-04-18T17:13:23.999Z</time></trkpt><trkpt lat="44.450307454344944" lon="9.086882637941507"><ele>406.0</ele><time>2026-04-18T17:13:24.999Z</time></trkpt><trkpt lat="44.45022547018464" lon="9.086951987117466"><ele>404.0</ele><time>2026-04-18T17:13:25.999Z</time></trkpt><trkpt lat="44.45011308325456" lon="9.086937462033607"><ele>402.0</ele><time>2026-04-18T17:13:26.999Z</time></trkpt><trkpt lat="44.449994883287424" lon="9.08696022059719"><ele>402.0</ele><time>2026-04-18T17:13:27.999Z</time></trkpt><trkpt lat="44.44987179354859" lon="9.08693946831573"><ele>402.0</ele><time>2026-04-18T17:13:28.999Z</time></trkpt><trkpt lat="44.44976446344923" lon="9.08694415546862"><ele>402.0</ele><time>2026-04-18T17:13:29.999Z</time></trkpt><trkpt lat="44.44965022913538" lon="9.086945210085426"><ele>402.0</ele><time>2026-04-18T17:13:30.999Z</time></trkpt><trkpt lat="44.44952587042416" lon="9.086937800522092"><ele>401.40000000000003</ele><time>2026-04-18T17:13:31.999Z</time></trkpt><trkpt lat="44.44941332833997" lon="9.086919328158425"><ele>400.8</ele><time>2026-04-18T17:13:32.999Z</time></trkpt><trkpt lat="44.449311387981844" lon="9.086877796210418"><ele>400.2</ele><time>2026-04-18T17:13:33.999Z</time></trkpt><trkpt lat="44.44921419822122" lon="9.086811100306653"><ele>399.6</ele><time>2026-04-18T17:13:34.999Z</time></trkpt><trkpt lat="44.44911371251149" lon="9.08676303322313"><ele>399.0</ele><time>2026-04-18T17:13:35.999Z</time></trkpt><trkpt lat="44.44898724622126" lon="9.086720479808687"><ele>399.0</ele><time>2026-04-18T17:13:36.999Z</time></trkpt><trkpt lat="44.4488532053315" lon="9.086710533983007"><ele>399.0</ele><time>2026-04-18T17:13:37.999Z</time></trkpt><trkpt lat="44.44873989087432" lon="9.086722776225294"><ele>399.0</ele><time>2026-04-18T17:13:38.999Z</time></trkpt><trkpt lat="44.44862507730981" lon="9.086754068823776"><ele>399.0</ele><time>2026-04-18T17:13:39.999Z</time></trkpt><trkpt lat="44.44850365249196" lon="9.086800398632949"><ele>397.0</ele><time>2026-04-18T17:13:40.999Z</time></trkpt><trkpt lat="44.448384388599486" lon="9.086867673548873"><ele>395.0</ele><time>2026-04-18T17:13:41.999Z</time></trkpt><trkpt lat="44.44826606504522" lon="9.086925247364396"><ele>393.0</ele><time>2026-04-18T17:13:42.999Z</time></trkpt><trkpt lat="44.44814380819976" lon="9.086970134164448"><ele>391.0</ele><time>2026-04-18T17:13:43.999Z</time></trkpt><trkpt lat="44.44802459635591" lon="9.087022486267141"><ele>384.25</ele><time>2026-04-18T17:13:44.999Z</time></trkpt><trkpt lat="44.44789595854141" lon="9.087075683152772"><ele>377.5</ele><time>2026-04-18T17:13:45.999Z</time></trkpt><trkpt lat="44.44776983887037" lon="9.087152937006008"><ele>370.75</ele><time>2026-04-18T17:13:46.999Z</time></trkpt><trkpt lat="44.44764928870499" lon="9.087262422839956"><ele>364.0</ele><time>2026-04-18T17:13:47.999Z</time></trkpt><trkpt lat="44.447527905041625" lon="9.087404136599812"><ele>370.3333333333333</ele><time>2026-04-18T17:13:49Z</time></trkpt><trkpt lat="44.44740587184558" lon="9.087573297830001"><ele>376.6666666666667</ele><time>2026-04-18T17:13:50Z</time></trkpt><trkpt lat="44.4472849591429" lon="9.087704726374428"><ele>383.0</ele><time>2026-04-18T17:13:51Z</time></trkpt><trkpt lat="44.44718209641638" lon="9.08782798489337"><ele>382.25</ele><time>2026-04-18T17:13:52Z</time></trkpt><trkpt lat="44.44709218539551" lon="9.087961095685351"><ele>381.5</ele><time>2026-04-18T17:13:53Z</time></trkpt><trkpt lat="44.44698147686353" lon="9.088082037587206"><ele>380.75</ele><time>2026-04-18T17:13:54Z</time></trkpt><trkpt lat="44.446860101000055" lon="9.088211789205577"><ele>380.0</ele><time>2026-04-18T17:13:55Z</time></trkpt><trkpt lat="44.44674383310337" lon="9.088325919198427"><ele>380.0</ele><time>2026-04-18T17:13:56Z</time></trkpt><trkpt lat="44.44662705306314" lon="9.088422704879259"><ele>380.0</ele><time>2026-04-18T17:13:57Z</time></trkpt><trkpt lat="44.446513136009614" lon="9.088517224348873"><ele>380.0</ele><time>2026-04-18T17:13:58Z</time></trkpt><trkpt lat="44.44640693489996" lon="9.088602382844051"><ele>380.0</ele><time>2026-04-18T17:13:59Z</time></trkpt><trkpt lat="44.446298114856106" lon="9.088693170012247"><ele>375.75</ele><time>2026-04-18T17:14:00Z</time></trkpt><trkpt lat="44.44616909589921" lon="9.088791572691974"><ele>371.5</ele><time>2026-04-18T17:14:01Z</time></trkpt><trkpt lat="44.44605799618452" lon="9.088880787292288"><ele>367.25</ele><time>2026-04-18T17:14:02Z</time></trkpt><trkpt lat="44.445948719280246" lon="9.088973923968663"><ele>363.0</ele><time>2026-04-18T17:14:03Z</time></trkpt><trkpt lat="44.445832224499675" lon="9.08901922699986"><ele>363.0</ele><time>2026-04-18T17:14:04Z</time></trkpt><trkpt lat="44.445713396528" lon="9.089071115080179"><ele>363.0</ele><time>2026-04-18T17:14:05Z</time></trkpt><trkpt lat="44.445587247202006" lon="9.089064721405952"><ele>363.0</ele><time>2026-04-18T17:14:06Z</time></trkpt><trkpt lat="44.44545869568924" lon="9.089024958836788"><ele>363.0</ele><time>2026-04-18T17:14:07Z</time></trkpt><trkpt lat="44.445325584370245" lon="9.088950146087722"><ele>362.75</ele><time>2026-04-18T17:14:08Z</time></trkpt><trkpt lat="44.44520753105006" lon="9.088858845030018"><ele>362.5</ele><time>2026-04-18T17:14:09Z</time></trkpt><trkpt lat="44.44510945812256" lon="9.088764737936309"><ele>362.25</ele><time>2026-04-18T17:14:10Z</time></trkpt><trkpt lat="44.445007845858086" lon="9.08866623723123"><ele>362.0</ele><time>2026-04-18T17:14:11Z</time></trkpt><trkpt lat="44.44490370670509" lon="9.088572201555156"><ele>362.0</ele><time>2026-04-18T17:14:12Z</time></trkpt><trkpt lat="44.44480679997847" lon="9.08850217638025"><ele>362.0</ele><time>2026-04-18T17:14:13Z</time></trkpt><trkpt lat="44.44471294606504" lon="9.088446653875359"><ele>362.0</ele><time>2026-04-18T17:14:14Z</time></trkpt><trkpt lat="44.444603898400544" lon="9.088430356355152"><ele>362.0</ele><time>2026-04-18T17:14:15Z</time></trkpt><trkpt lat="44.44449898804747" lon="9.088486716217524"><ele>362.0</ele><time>2026-04-18T17:14:16Z</time></trkpt><trkpt lat="44.444388104562286" lon="9.088588284891108"><ele>362.0</ele><time>2026-04-18T17:14:17Z</time></trkpt><trkpt lat="44.44426603116847" lon="9.088733253002982"><ele>362.0</ele><time>2026-04-18T17:14:18Z</time></trkpt><trkpt lat="44.44416492575289" lon="9.088901737814094"><ele>362.0</ele><time>2026-04-18T17:14:19Z</time></trkpt><trkpt lat="44.44407465255586" lon="9.089034356307158"><ele>362.0</ele><time>2026-04-18T17:14:20Z</time></trkpt><trkpt lat="44.443997915934816" lon="9.089158110532203"><ele>362.0</ele><time>2026-04-18T17:14:21Z</time></trkpt><trkpt lat="44.44393782183437" lon="9.089314650461848"><ele>362.0</ele><time>2026-04-18T17:14:22Z</time></trkpt><trkpt lat="44.443907843287825" lon="9.089504794692239"><ele>362.0</ele><time>2026-04-18T17:14:23Z</time></trkpt><trkpt lat="44.44389942343928" lon="9.08970290857922"><ele>362.0</ele><time>2026-04-18T17:14:24Z</time></trkpt><trkpt lat="44.4438858220241" lon="9.08988751307186"><ele>367.6666666666667</ele><time>2026-04-18T17:14:25Z</time></trkpt><trkpt lat="44.44381382329556" lon="9.090060274530702"><ele>373.3333333333333</ele><time>2026-04-18T17:14:26Z</time></trkpt><trkpt lat="44.443735596789296" lon="9.090263429898998"><ele>379.0</ele><time>2026-04-18T17:14:27Z</time></trkpt><trkpt lat="44.443652409946104" lon="9.090447861141255"><ele>371.0</ele><time>2026-04-18T17:14:28Z</time></trkpt><trkpt lat="44.443589600452604" lon="9.090620692198032"><ele>363.0</ele><time>2026-04-18T17:14:29Z</time></trkpt><trkpt lat="44.44352498686932" lon="9.090784606658119"><ele>355.0</ele><time>2026-04-18T17:14:30Z</time></trkpt><trkpt lat="44.44346633949141" lon="9.090936674662364"><ele>347.0</ele><time>2026-04-18T17:14:31Z</time></trkpt><trkpt lat="44.4434132967006" lon="9.09108314266339"><ele>347.0</ele><time>2026-04-18T17:14:32Z</time></trkpt><trkpt lat="44.44333715081152" lon="9.091195484092024"><ele>347.0</ele><time>2026-04-18T17:14:33Z</time></trkpt><trkpt lat="44.44325234907461" lon="9.09128370521989"><ele>347.0</ele><time>2026-04-18T17:14:34Z</time></trkpt><trkpt lat="44.44314556095082" lon="9.091363030339132"><ele>347.0</ele><time>2026-04-18T17:14:35Z</time></trkpt><trkpt lat="44.44302898979377" lon="9.091405217429585"><ele>347.20000000000005</ele><time>2026-04-18T17:14:36Z</time></trkpt><trkpt lat="44.4429214288873" lon="9.09143104429251"><ele>347.4</ele><time>2026-04-18T17:14:37Z</time></trkpt><trkpt lat="44.442844567346846" lon="9.091467903301304"><ele>347.6</ele><time>2026-04-18T17:14:38Z</time></trkpt><trkpt lat="44.44276108055783" lon="9.091461880437212"><ele>347.79999999999995</ele><time>2026-04-18T17:14:39Z</time></trkpt><trkpt lat="44.44268188458719" lon="9.091388211842512"><ele>348.0</ele><time>2026-04-18T17:14:40Z</time></trkpt><trkpt lat="44.442600170341166" lon="9.091268874765603"><ele>348.0</ele><time>2026-04-18T17:14:41Z</time></trkpt><trkpt lat="44.44252492289537" lon="9.091131432646756"><ele>348.0</ele><time>2026-04-18T17:14:42Z</time></trkpt><trkpt lat="44.44244325954309" lon="9.090984239319564"><ele>348.0</ele><time>2026-04-18T17:14:43Z</time></trkpt><trkpt lat="44.4423789429121" lon="9.090838174032767"><ele>348.0</ele><time>2026-04-18T17:14:44Z</time></trkpt><trkpt lat="44.442348589297715" lon="9.090687816620617"><ele>347.5</ele><time>2026-04-18T17:14:45Z</time></trkpt><trkpt lat="44.44234864826129" lon="9.090522153859293"><ele>347.0</ele><time>2026-04-18T17:14:46Z</time></trkpt><trkpt lat="44.44238597555228" lon="9.090331579726188"><ele>346.5</ele><time>2026-04-18T17:14:47Z</time></trkpt><trkpt lat="44.4424269250257" lon="9.090147874265961"><ele>346.0</ele><time>2026-04-18T17:14:48Z</time></trkpt><trkpt lat="44.44247194037885" lon="9.089968503719945"><ele>344.5</ele><time>2026-04-18T17:14:49Z</time></trkpt><trkpt lat="44.44250687298329" lon="9.08978639530508"><ele>343.0</ele><time>2026-04-18T17:14:50Z</time></trkpt><trkpt lat="44.442522082785345" lon="9.089622271322753"><ele>341.5</ele><time>2026-04-18T17:14:51Z</time></trkpt><trkpt lat="44.4425045912486" lon="9.089457778726766"><ele>340.0</ele><time>2026-04-18T17:14:52Z</time></trkpt><trkpt lat="44.442448344419574" lon="9.089276726559463"><ele>340.0</ele><time>2026-04-18T17:14:52.999Z</time></trkpt><trkpt lat="44.442366712256735" lon="9.089093155677926"><ele>340.0</ele><time>2026-04-18T17:14:53.999Z</time></trkpt><trkpt lat="44.4422634655009" lon="9.088916583598976"><ele>340.0</ele><time>2026-04-18T17:14:54.999Z</time></trkpt><trkpt lat="44.44216606021792" lon="9.08873375776704"><ele>347.3333333333333</ele><time>2026-04-18T17:14:55.999Z</time></trkpt><trkpt lat="44.442086567340915" lon="9.088542984050866"><ele>354.6666666666667</ele><time>2026-04-18T17:14:56.999Z</time></trkpt><trkpt lat="44.44202762124063" lon="9.088316726043628"><ele>362.0</ele><time>2026-04-18T17:14:57.999Z</time></trkpt><trkpt lat="44.44200132647005" lon="9.088105844128862"><ele>362.0</ele><time>2026-04-18T17:14:58.999Z</time></trkpt><trkpt lat="44.44197097660276" lon="9.087902838763183"><ele>362.0</ele><time>2026-04-18T17:14:59.999Z</time></trkpt><trkpt lat="44.44193010192774" lon="9.08768658525422"><ele>362.0</ele><time>2026-04-18T17:15:00.999Z</time></trkpt><trkpt lat="44.4418923532876" lon="9.087461426688238"><ele>358.5</ele><time>2026-04-18T17:15:01.999Z</time></trkpt><trkpt lat="44.44185899608568" lon="9.087260403864255"><ele>355.0</ele><time>2026-04-18T17:15:02.999Z</time></trkpt><trkpt lat="44.44182556402039" lon="9.087075409181823"><ele>351.5</ele><time>2026-04-18T17:15:03.999Z</time></trkpt><trkpt lat="44.44177768267716" lon="9.086892602133926"><ele>348.0</ele><time>2026-04-18T17:15:04.999Z</time></trkpt><trkpt lat="44.44169877324754" lon="9.086724211881746"><ele>341.6666666666667</ele><time>2026-04-18T17:15:05.999Z</time></trkpt><trkpt lat="44.44160350326476" lon="9.086558150821627"><ele>335.33333333333337</ele><time>2026-04-18T17:15:06.999Z</time></trkpt><trkpt lat="44.44149165082346" lon="9.086404882128532"><ele>329.0</ele><time>2026-04-18T17:15:07.999Z</time></trkpt><trkpt lat="44.44136943202714" lon="9.086251370618477"><ele>329.5</ele><time>2026-04-18T17:15:08.999Z</time></trkpt><trkpt lat="44.44125801955813" lon="9.086100980500431"><ele>330.0</ele><time>2026-04-18T17:15:09.999Z</time></trkpt><trkpt lat="44.441163018346536" lon="9.085957547754898"><ele>330.5</ele><time>2026-04-18T17:15:10.999Z</time></trkpt><trkpt lat="44.44108712732893" lon="9.085804167611895"><ele>331.0</ele><time>2026-04-18T17:15:11.999Z</time></trkpt><trkpt lat="44.44102479499892" lon="9.085644895357682"><ele>331.0</ele><time>2026-04-18T17:15:12.999Z</time></trkpt><trkpt lat="44.440967949782674" lon="9.085458944224003"><ele>331.0</ele><time>2026-04-18T17:15:13.999Z</time></trkpt><trkpt lat="44.44091256112772" lon="9.085251920928913"><ele>331.0</ele><time>2026-04-18T17:15:14.999Z</time></trkpt><trkpt lat="44.440848307105675" lon="9.085023267528221"><ele>328.66666666666663</ele><time>2026-04-18T17:15:15.999Z</time></trkpt><trkpt lat="44.440782192223615" lon="9.08480546105346"><ele>326.3333333333333</ele><time>2026-04-18T17:15:16.999Z</time></trkpt><trkpt lat="44.44072226655406" lon="9.08459682658451"><ele>324.0</ele><time>2026-04-18T17:15:17.999Z</time></trkpt><trkpt lat="44.44066613864986" lon="9.084394591051572"><ele>324.0</ele><time>2026-04-18T17:15:18.999Z</time></trkpt><trkpt lat="44.440609263066044" lon="9.084190839728937"><ele>324.0</ele><time>2026-04-18T17:15:19.999Z</time></trkpt><trkpt lat="44.44053986074686" lon="9.083989369906968"><ele>324.0</ele><time>2026-04-18T17:15:20.999Z</time></trkpt><trkpt lat="44.4404548426296" lon="9.083790719741886"><ele>327.0</ele><time>2026-04-18T17:15:21.999Z</time></trkpt><trkpt lat="44.44034398647501" lon="9.083607193162141"><ele>330.0</ele><time>2026-04-18T17:15:22.999Z</time></trkpt><trkpt lat="44.44022113766461" lon="9.083435474747217"><ele>333.0</ele><time>2026-04-18T17:15:23.999Z</time></trkpt><trkpt lat="44.440090078364655" lon="9.083272815709712"><ele>327.0</ele><time>2026-04-18T17:15:24.999Z</time></trkpt><trkpt lat="44.43996103184885" lon="9.083133441203202"><ele>321.0</ele><time>2026-04-18T17:15:25.999Z</time></trkpt><trkpt lat="44.43983130958875" lon="9.082994356964804"><ele>315.0</ele><time>2026-04-18T17:15:26.999Z</time></trkpt><trkpt lat="44.439702078179714" lon="9.082845701245853"><ele>312.6666666666667</ele><time>2026-04-18T17:15:27.999Z</time></trkpt><trkpt lat="44.4395744230869" lon="9.082697124722383"><ele>310.33333333333337</ele><time>2026-04-18T17:15:28.999Z</time></trkpt><trkpt lat="44.43945053691076" lon="9.082556513199329"><ele>308.0</ele><time>2026-04-18T17:15:29.999Z</time></trkpt><trkpt lat="44.43933039576182" lon="9.082424870317622"><ele>308.0</ele><time>2026-04-18T17:15:30.999Z</time></trkpt><trkpt lat="44.439235807025085" lon="9.082277000898902"><ele>308.0</ele><time>2026-04-18T17:15:31.999Z</time></trkpt><trkpt lat="44.43912713164349" lon="9.082131853762645"><ele>308.0</ele><time>2026-04-18T17:15:32.999Z</time></trkpt><trkpt lat="44.43903161878675" lon="9.08194342769059"><ele>308.0</ele><time>2026-04-18T17:15:33.999Z</time></trkpt><trkpt lat="44.43894601323164" lon="9.081755065507295"><ele>308.0</ele><time>2026-04-18T17:15:34.999Z</time></trkpt><trkpt lat="44.438870720668476" lon="9.08156006794312"><ele>308.0</ele><time>2026-04-18T17:15:35.999Z</time></trkpt><trkpt lat="44.43878957295093" lon="9.08135790609383"><ele>307.33333333333337</ele><time>2026-04-18T17:15:36.999Z</time></trkpt><trkpt lat="44.43870627683153" lon="9.081150945322724"><ele>306.6666666666667</ele><time>2026-04-18T17:15:37.999Z</time></trkpt><trkpt lat="44.43862605432375" lon="9.080947371196025"><ele>306.0</ele><time>2026-04-18T17:15:38.999Z</time></trkpt><trkpt lat="44.43854952255394" lon="9.080751485325539"><ele>306.0</ele><time>2026-04-18T17:15:39.999Z</time></trkpt><trkpt lat="44.43847171567359" lon="9.080555786203819"><ele>306.0</ele><time>2026-04-18T17:15:40.999Z</time></trkpt><trkpt lat="44.43840161422669" lon="9.080374546712834"><ele>306.0</ele><time>2026-04-18T17:15:41.999Z</time></trkpt><trkpt lat="44.438339993028336" lon="9.080187541848215"><ele>306.0</ele><time>2026-04-18T17:15:42.999Z</time></trkpt><trkpt lat="44.43829432964841" lon="9.07999711343059"><ele>306.0</ele><time>2026-04-18T17:15:43.999Z</time></trkpt><trkpt lat="44.438266487861554" lon="9.079797119602928"><ele>306.0</ele><time>2026-04-18T17:15:44.999Z</time></trkpt><trkpt lat="44.438249581844765" lon="9.079575506002017"><ele>306.0</ele><time>2026-04-18T17:15:45.999Z</time></trkpt><trkpt lat="44.438247522283454" lon="9.079351361228978"><ele>306.25</ele><time>2026-04-18T17:15:46.999Z</time></trkpt><trkpt lat="44.43824332970868" lon="9.079140085604527"><ele>306.5</ele><time>2026-04-18T17:15:47.999Z</time></trkpt><trkpt lat="44.438237322998866" lon="9.078945119255017"><ele>306.75</ele><time>2026-04-18T17:15:48.999Z</time></trkpt><trkpt lat="44.43824343251801" lon="9.078749781380983"><ele>307.0</ele><time>2026-04-18T17:15:49.999Z</time></trkpt><trkpt lat="44.43827566159742" lon="9.078550263902349"><ele>310.0</ele><time>2026-04-18T17:15:50.999Z</time></trkpt><trkpt lat="44.43835151430291" lon="9.078347947791041"><ele>313.0</ele><time>2026-04-18T17:15:51.999Z</time></trkpt><trkpt lat="44.4384613904914" lon="9.078167296989307"><ele>316.0</ele><time>2026-04-18T17:15:52.999Z</time></trkpt><trkpt lat="44.438566311950225" lon="9.077958721560128"><ele>319.0</ele><time>2026-04-18T17:15:53.999Z</time></trkpt><trkpt lat="44.43866969675721" lon="9.077750944462458"><ele>322.0</ele><time>2026-04-18T17:15:55Z</time></trkpt><trkpt lat="44.43876575438333" lon="9.07756266894139"><ele>325.0</ele><time>2026-04-18T17:15:56Z</time></trkpt><trkpt lat="44.43885613449871" lon="9.07737604337193"><ele>325.0</ele><time>2026-04-18T17:15:57Z</time></trkpt><trkpt lat="44.438941628323576" lon="9.077199921074005"><ele>325.0</ele><time>2026-04-18T17:15:58Z</time></trkpt><trkpt lat="44.43902277496118" lon="9.07702824886153"><ele>325.0</ele><time>2026-04-18T17:15:59Z</time></trkpt><trkpt lat="44.439102311682504" lon="9.076869072365106"><ele>325.0</ele><time>2026-04-18T17:16:00Z</time></trkpt><trkpt lat="44.43919385652189" lon="9.076757789756435"><ele>325.0</ele><time>2026-04-18T17:16:01Z</time></trkpt><trkpt lat="44.439325979579976" lon="9.076642973447573"><ele>325.0</ele><time>2026-04-18T17:16:02Z</time></trkpt><trkpt lat="44.43947917958267" lon="9.076558833932273"><ele>325.0</ele><time>2026-04-18T17:16:03Z</time></trkpt><trkpt lat="44.43961402142245" lon="9.07648262802433"><ele>317.75</ele><time>2026-04-18T17:16:04Z</time></trkpt><trkpt lat="44.43973696884922" lon="9.07639119182671"><ele>310.5</ele><time>2026-04-18T17:16:05Z</time></trkpt><trkpt lat="44.43984898099115" lon="9.076276105548873"><ele>303.25</ele><time>2026-04-18T17:16:06Z</time></trkpt><trkpt lat="44.43994866247052" lon="9.076119095514256"><ele>296.0</ele><time>2026-04-18T17:16:07Z</time></trkpt><trkpt lat="44.44002063967144" lon="9.075950453129655"><ele>297.0</ele><time>2026-04-18T17:16:08Z</time></trkpt><trkpt lat="44.440066967631765" lon="9.075765895786269"><ele>298.0</ele><time>2026-04-18T17:16:09Z</time></trkpt><trkpt lat="44.440089227304554" lon="9.075565139881224"><ele>299.0</ele><time>2026-04-18T17:16:10Z</time></trkpt><trkpt lat="44.44007768796131" lon="9.075353703030398"><ele>300.0</ele><time>2026-04-18T17:16:11Z</time></trkpt><trkpt lat="44.44003655247961" lon="9.07513687854989"><ele>300.0</ele><time>2026-04-18T17:16:12Z</time></trkpt><trkpt lat="44.43997828968947" lon="9.074940864944583"><ele>300.0</ele><time>2026-04-18T17:16:13Z</time></trkpt><trkpt lat="44.43992976064314" lon="9.07475691642652"><ele>300.0</ele><time>2026-04-18T17:16:14Z</time></trkpt><trkpt lat="44.439909478535085" lon="9.074571097737827"><ele>300.0</ele><time>2026-04-18T17:16:15Z</time></trkpt><trkpt lat="44.43992227049714" lon="9.074369511378228"><ele>300.3333333333333</ele><time>2026-04-18T17:16:16Z</time></trkpt><trkpt lat="44.439969332968175" lon="9.074157913791934"><ele>300.66666666666663</ele><time>2026-04-18T17:16:17Z</time></trkpt><trkpt lat="44.44002559315237" lon="9.073933123401186"><ele>301.0</ele><time>2026-04-18T17:16:18Z</time></trkpt><trkpt lat="44.44008862312088" lon="9.073701277436458"><ele>305.3333333333333</ele><time>2026-04-18T17:16:19Z</time></trkpt><trkpt lat="44.440138290709406" lon="9.073481275754977"><ele>309.6666666666667</ele><time>2026-04-18T17:16:20Z</time></trkpt><trkpt lat="44.44019110519135" lon="9.073276232479573"><ele>314.0</ele><time>2026-04-18T17:16:21Z</time></trkpt><trkpt lat="44.440261121537795" lon="9.073088928764305"><ele>320.0</ele><time>2026-04-18T17:16:22Z</time></trkpt><trkpt lat="44.4403632556656" lon="9.072908357225685"><ele>326.0</ele><time>2026-04-18T17:16:23Z</time></trkpt><trkpt lat="44.4404791599787" lon="9.07275900075784"><ele>332.0</ele><time>2026-04-18T17:16:24Z</time></trkpt><trkpt lat="44.44059378222777" lon="9.072630925239848"><ele>320.25</ele><time>2026-04-18T17:16:25Z</time></trkpt><trkpt lat="44.4406859401161" lon="9.072509068836343"><ele>308.5</ele><time>2026-04-18T17:16:26Z</time></trkpt><trkpt lat="44.440754372552455" lon="9.07237843282635"><ele>296.75</ele><time>2026-04-18T17:16:27Z</time></trkpt><trkpt lat="44.4408148403431" lon="9.072227506407138"><ele>285.0</ele><time>2026-04-18T17:16:28Z</time></trkpt><trkpt lat="44.44082884781429" lon="9.072031230541711"><ele>285.0</ele><time>2026-04-18T17:16:29Z</time></trkpt><trkpt lat="44.44080622865031" lon="9.071830953837482"><ele>285.0</ele><time>2026-04-18T17:16:30Z</time></trkpt><trkpt lat="44.44077045854058" lon="9.071622760857988"><ele>285.0</ele><time>2026-04-18T17:16:31Z</time></trkpt><trkpt lat="44.44073099568939" lon="9.071387075995762"><ele>285.75</ele><time>2026-04-18T17:16:32Z</time></trkpt><trkpt lat="44.44069612787972" lon="9.071181551379322"><ele>286.5</ele><time>2026-04-18T17:16:33Z</time></trkpt><trkpt lat="44.440649836961555" lon="9.070990960102232"><ele>287.25</ele><time>2026-04-18T17:16:34Z</time></trkpt><trkpt lat="44.44062374870107" lon="9.070809868738023"><ele>288.0</ele><time>2026-04-18T17:16:35Z</time></trkpt><trkpt lat="44.440620293728756" lon="9.070634193267477"><ele>288.0</ele><time>2026-04-18T17:16:36Z</time></trkpt><trkpt lat="44.44065622081084" lon="9.070473152580597"><ele>288.0</ele><time>2026-04-18T17:16:37Z</time></trkpt><trkpt lat="44.44073101851044" lon="9.070314239691527"><ele>288.0</ele><time>2026-04-18T17:16:38Z</time></trkpt><trkpt lat="44.44083579744341" lon="9.070182000077322"><ele>288.0</ele><time>2026-04-18T17:16:39Z</time></trkpt><trkpt lat="44.44095871293167" lon="9.070051915127209"><ele>290.0</ele><time>2026-04-18T17:16:40Z</time></trkpt><trkpt lat="44.441042779564995" lon="9.069898295943187"><ele>292.0</ele><time>2026-04-18T17:16:41Z</time></trkpt><trkpt lat="44.44111642590726" lon="9.069735736947251"><ele>294.0</ele><time>2026-04-18T17:16:42Z</time></trkpt><trkpt lat="44.44116679575933" lon="9.069568281993675"><ele>296.0</ele><time>2026-04-18T17:16:43Z</time></trkpt><trkpt lat="44.44118834472435" lon="9.069396358416157"><ele>296.0</ele><time>2026-04-18T17:16:44Z</time></trkpt><trkpt lat="44.44117921242261" lon="9.069213639173995"><ele>296.0</ele><time>2026-04-18T17:16:45Z</time></trkpt><trkpt lat="44.44114237944071" lon="9.06901084329082"><ele>296.0</ele><time>2026-04-18T17:16:46Z</time></trkpt><trkpt lat="44.44109814751109" lon="9.068822544843792"><ele>296.0</ele><time>2026-04-18T17:16:47Z</time></trkpt><trkpt lat="44.44107179054206" lon="9.068653391025615"><ele>295.75</ele><time>2026-04-18T17:16:48Z</time></trkpt><trkpt lat="44.44105249470402" lon="9.068494459997934"><ele>295.5</ele><time>2026-04-18T17:16:49Z</time></trkpt><trkpt lat="44.44110185675455" lon="9.06831556753821"><ele>295.25</ele><time>2026-04-18T17:16:50Z</time></trkpt><trkpt lat="44.44119476614472" lon="9.06812438267882"><ele>295.0</ele><time>2026-04-18T17:16:51Z</time></trkpt><trkpt lat="44.441279995115835" lon="9.067928485479726"><ele>288.66666666666663</ele><time>2026-04-18T17:16:52Z</time></trkpt><trkpt lat="44.44136094881987" lon="9.067748752290692"><ele>282.3333333333333</ele><time>2026-04-18T17:16:53Z</time></trkpt><trkpt lat="44.44147147884172" lon="9.067574517684314"><ele>276.0</ele><time>2026-04-18T17:16:54Z</time></trkpt><trkpt lat="44.441597702506336" lon="9.06741218357415"><ele>276.0</ele><time>2026-04-18T17:16:55Z</time></trkpt><trkpt lat="44.44170817945434" lon="9.067267679519164"><ele>276.0</ele><time>2026-04-18T17:16:56Z</time></trkpt><trkpt lat="44.4418189190722" lon="9.067121624710584"><ele>276.0</ele><time>2026-04-18T17:16:57Z</time></trkpt><trkpt lat="44.44191686796283" lon="9.066986268305357"><ele>276.0</ele><time>2026-04-18T17:16:58Z</time></trkpt><trkpt lat="44.44201214545644" lon="9.066859255785545"><ele>276.0</ele><time>2026-04-18T17:16:58.999Z</time></trkpt><trkpt lat="44.44209212521216" lon="9.06670340302092"><ele>276.0</ele><time>2026-04-18T17:16:59.999Z</time></trkpt><trkpt lat="44.44213645800478" lon="9.06653065671136"><ele>276.0</ele><time>2026-04-18T17:17:00.999Z</time></trkpt><trkpt lat="44.44214906102727" lon="9.066353710074853"><ele>276.0</ele><time>2026-04-18T17:17:01.999Z</time></trkpt><trkpt lat="44.44213505830234" lon="9.066166054216083"><ele>276.0</ele><time>2026-04-18T17:17:02.999Z</time></trkpt><trkpt lat="44.442093849095166" lon="9.065966645206862"><ele>276.0</ele><time>2026-04-18T17:17:03.999Z</time></trkpt><trkpt lat="44.442034406146895" lon="9.065750767648943"><ele>276.0</ele><time>2026-04-18T17:17:04.999Z</time></trkpt><trkpt lat="44.441980359616814" lon="9.065545569936292"><ele>276.25</ele><time>2026-04-18T17:17:05.999Z</time></trkpt><trkpt lat="44.441936057692764" lon="9.065367539648104"><ele>276.5</ele><time>2026-04-18T17:17:06.999Z</time></trkpt><trkpt lat="44.44191082475489" lon="9.065177072113885"><ele>276.75</ele><time>2026-04-18T17:17:07.999Z</time></trkpt><trkpt lat="44.44195002782755" lon="9.064997469707317"><ele>277.0</ele><time>2026-04-18T17:17:08.999Z</time></trkpt><trkpt lat="44.442005511457886" lon="9.064868313181833"><ele>277.0</ele><time>2026-04-18T17:17:09.999Z</time></trkpt><trkpt lat="44.44207911385779" lon="9.064751655596197"><ele>277.0</ele><time>2026-04-18T17:17:10.999Z</time></trkpt><trkpt lat="44.442193250187074" lon="9.06464329822454"><ele>277.0</ele><time>2026-04-18T17:17:11.999Z</time></trkpt><trkpt lat="44.4422986685309" lon="9.064552647729677"><ele>277.0</ele><time>2026-04-18T17:17:12.999Z</time></trkpt><trkpt lat="44.442390380373695" lon="9.064444850904417"><ele>268.5</ele><time>2026-04-18T17:17:13.999Z</time></trkpt><trkpt lat="44.44245330507961" lon="9.064324265130741"><ele>260.0</ele><time>2026-04-18T17:17:14.999Z</time></trkpt><trkpt lat="44.442467083951065" lon="9.064187906891286"><ele>251.5</ele><time>2026-04-18T17:17:15.999Z</time></trkpt><trkpt lat="44.44245643939594" lon="9.064027314401502"><ele>243.0</ele><time>2026-04-18T17:17:16.999Z</time></trkpt><trkpt lat="44.442426231045715" lon="9.063808380805233"><ele>241.33333333333331</ele><time>2026-04-18T17:17:17.999Z</time></trkpt><trkpt lat="44.442390195674186" lon="9.063603435025533"><ele>239.66666666666666</ele><time>2026-04-18T17:17:18.999Z</time></trkpt><trkpt lat="44.44235346965527" lon="9.063365229182143"><ele>238.0</ele><time>2026-04-18T17:17:19.999Z</time></trkpt><trkpt lat="44.44231796429674" lon="9.063137414478808"><ele>235.75</ele><time>2026-04-18T17:17:20.999Z</time></trkpt><trkpt lat="44.44228438255267" lon="9.062929717580959"><ele>233.5</ele><time>2026-04-18T17:17:21.999Z</time></trkpt><trkpt lat="44.44225174289907" lon="9.062726493224472"><ele>231.25</ele><time>2026-04-18T17:17:22.999Z</time></trkpt><trkpt lat="44.442217607578044" lon="9.062530220140951"><ele>229.0</ele><time>2026-04-18T17:17:23.999Z</time></trkpt><trkpt lat="44.44218945072249" lon="9.062347428422205"><ele>228.33333333333331</ele><time>2026-04-18T17:17:24.999Z</time></trkpt><trkpt lat="44.44219704929214" lon="9.0621498869889"><ele>227.66666666666669</ele><time>2026-04-18T17:17:25.999Z</time></trkpt><trkpt lat="44.44222706653294" lon="9.061938232185485"><ele>227.0</ele><time>2026-04-18T17:17:26.999Z</time></trkpt><trkpt lat="44.44227139248034" lon="9.061730075770132"><ele>226.5</ele><time>2026-04-18T17:17:27.999Z</time></trkpt><trkpt lat="44.44231021960741" lon="9.061546060898102"><ele>226.0</ele><time>2026-04-18T17:17:28.999Z</time></trkpt><trkpt lat="44.442340363561186" lon="9.061359346189823"><ele>225.5</ele><time>2026-04-18T17:17:29.999Z</time></trkpt><trkpt lat="44.44234012968117" lon="9.061171313374293"><ele>225.0</ele><time>2026-04-18T17:17:30.999Z</time></trkpt><trkpt lat="44.44234597552863" lon="9.060971235862018"><ele>224.0</ele><time>2026-04-18T17:17:31.999Z</time></trkpt><trkpt lat="44.442315486576334" lon="9.06075443152933"><ele>223.0</ele><time>2026-04-18T17:17:32.999Z</time></trkpt><trkpt lat="44.44228072411685" lon="9.060544735344434"><ele>222.0</ele><time>2026-04-18T17:17:33.999Z</time></trkpt><trkpt lat="44.44225136094068" lon="9.060365565616332"><ele>221.0</ele><time>2026-04-18T17:17:34.999Z</time></trkpt><trkpt lat="44.44222699436465" lon="9.06021458721424"><ele>221.0</ele><time>2026-04-18T17:17:35.999Z</time></trkpt><trkpt lat="44.442205989890134" lon="9.060084440604752"><ele>221.0</ele><time>2026-04-18T17:17:36.999Z</time></trkpt><trkpt lat="44.44219336737819" lon="9.059952858823102"><ele>221.0</ele><time>2026-04-18T17:17:37.999Z</time></trkpt><trkpt lat="44.44221533489989" lon="9.059833576108824"><ele>221.0</ele><time>2026-04-18T17:17:38.999Z</time></trkpt><trkpt lat="44.44223451671102" lon="9.059276095204927"><ele>220.33333333333334</ele><time>2026-04-18T17:17:39.999Z</time></trkpt><trkpt lat="44.44226180814384" lon="9.059064224643784"><ele>219.66666666666669</ele><time>2026-04-18T17:17:40.999Z</time></trkpt><trkpt lat="44.44230388151201" lon="9.058860412252526"><ele>219.0</ele><time>2026-04-18T17:17:41.999Z</time></trkpt><trkpt lat="44.44236205930639" lon="9.058653999917562"><ele>219.0</ele><time>2026-04-18T17:17:42.999Z</time></trkpt><trkpt lat="44.442430429333776" lon="9.058458832914164"><ele>219.0</ele><time>2026-04-18T17:17:43.999Z</time></trkpt><trkpt lat="44.44250353031705" lon="9.058281988938838"><ele>219.0</ele><time>2026-04-18T17:17:44.999Z</time></trkpt><trkpt lat="44.442585551650524" lon="9.05809219557852"><ele>222.5</ele><time>2026-04-18T17:17:45.999Z</time></trkpt><trkpt lat="44.442653022064626" lon="9.057901718134467"><ele>226.0</ele><time>2026-04-18T17:17:46.999Z</time></trkpt><trkpt lat="44.442721183027686" lon="9.057731635840787"><ele>229.5</ele><time>2026-04-18T17:17:47.999Z</time></trkpt><trkpt lat="44.442763899744286" lon="9.057548192084585"><ele>233.0</ele><time>2026-04-18T17:17:48.999Z</time></trkpt><trkpt lat="44.4427734538023" lon="9.05734650013695"><ele>237.66666666666669</ele><time>2026-04-18T17:17:49.999Z</time></trkpt><trkpt lat="44.44275429714486" lon="9.05712195313153"><ele>242.33333333333331</ele><time>2026-04-18T17:17:50.999Z</time></trkpt><trkpt lat="44.442725155781666" lon="9.056870138629966"><ele>247.0</ele><time>2026-04-18T17:17:51.999Z</time></trkpt><trkpt lat="44.4427215283378" lon="9.056624689928878"><ele>247.0</ele><time>2026-04-18T17:17:52.999Z</time></trkpt><trkpt lat="44.442743006499164" lon="9.05640803280531"><ele>247.0</ele><time>2026-04-18T17:17:53.999Z</time></trkpt><trkpt lat="44.44275588357146" lon="9.056212275443892"><ele>247.0</ele><time>2026-04-18T17:17:54.999Z</time></trkpt><trkpt lat="44.44277395161705" lon="9.056015467198314"><ele>247.0</ele><time>2026-04-18T17:17:55.999Z</time></trkpt><trkpt lat="44.442805262839734" lon="9.055828867392052"><ele>245.33333333333331</ele><time>2026-04-18T17:17:56.999Z</time></trkpt><trkpt lat="44.44287418712127" lon="9.055650331974434"><ele>243.66666666666669</ele><time>2026-04-18T17:17:57.999Z</time></trkpt><trkpt lat="44.44294751118547" lon="9.055439977029838"><ele>242.0</ele><time>2026-04-18T17:17:58.999Z</time></trkpt><trkpt lat="44.44299561819888" lon="9.055238315362992"><ele>226.33333333333334</ele><time>2026-04-18T17:17:59.999Z</time></trkpt><trkpt lat="44.443049550826316" lon="9.055022842110201"><ele>210.66666666666669</ele><time>2026-04-18T17:18:01Z</time></trkpt><trkpt lat="44.44311179516165" lon="9.054829639999003"><ele>195.0</ele><time>2026-04-18T17:18:02Z</time></trkpt><trkpt lat="44.44317896702296" lon="9.054655841899443"><ele>193.75</ele><time>2026-04-18T17:18:03Z</time></trkpt><trkpt lat="44.44323878048983" lon="9.054499956965925"><ele>192.5</ele><time>2026-04-18T17:18:04Z</time></trkpt><trkpt lat="44.44329173906812" lon="9.054348743519146"><ele>191.25</ele><time>2026-04-18T17:18:05Z</time></trkpt><trkpt lat="44.44331774187349" lon="9.05418878365838"><ele>190.0</ele><time>2026-04-18T17:18:06Z</time></trkpt><trkpt lat="44.443299115989205" lon="9.054036098806245"><ele>188.5</ele><time>2026-04-18T17:18:07Z</time></trkpt><trkpt lat="44.44324097763883" lon="9.053888065987602"><ele>187.0</ele><time>2026-04-18T17:18:08Z</time></trkpt><trkpt lat="44.443144208340925" lon="9.053769313582068"><ele>185.5</ele><time>2026-04-18T17:18:09Z</time></trkpt><trkpt lat="44.4430128567476" lon="9.053681081722104"><ele>184.0</ele><time>2026-04-18T17:18:10Z</time></trkpt><trkpt lat="44.442844338280906" lon="9.053613803680571"><ele>184.0</ele><time>2026-04-18T17:18:11Z</time></trkpt><trkpt lat="44.442675680323376" lon="9.053550901552248"><ele>184.0</ele><time>2026-04-18T17:18:12Z</time></trkpt><trkpt lat="44.44251978312047" lon="9.053468509871033"><ele>184.0</ele><time>2026-04-18T17:18:13Z</time></trkpt><trkpt lat="44.44237379165502" lon="9.053356151799427"><ele>182.0</ele><time>2026-04-18T17:18:14Z</time></trkpt><trkpt lat="44.44224009021056" lon="9.053209175766431"><ele>180.0</ele><time>2026-04-18T17:18:15Z</time></trkpt><trkpt lat="44.44211682926548" lon="9.053088801325027"><ele>178.0</ele><time>2026-04-18T17:18:16Z</time></trkpt><trkpt lat="44.44200051065459" lon="9.052967156274676"><ele>182.75</ele><time>2026-04-18T17:18:17Z</time></trkpt><trkpt lat="44.441888020918626" lon="9.052852808237082"><ele>187.5</ele><time>2026-04-18T17:18:18Z</time></trkpt><trkpt lat="44.44178051036773" lon="9.052764452542274"><ele>192.25</ele><time>2026-04-18T17:18:19Z</time></trkpt><trkpt lat="44.44170266178048" lon="9.052646938222473"><ele>197.0</ele><time>2026-04-18T17:18:20Z</time></trkpt><trkpt lat="44.441663635163124" lon="9.052473043382744"><ele>192.25</ele><time>2026-04-18T17:18:21Z</time></trkpt><trkpt lat="44.44166001680617" lon="9.052263858729264"><ele>187.5</ele><time>2026-04-18T17:18:22Z</time></trkpt><trkpt lat="44.44168672841936" lon="9.052049569952697"><ele>182.75</ele><time>2026-04-18T17:18:23Z</time></trkpt><trkpt lat="44.441726694194784" lon="9.051871833015488"><ele>178.0</ele><time>2026-04-18T17:18:24Z</time></trkpt><trkpt lat="44.4417401705096" lon="9.051699760724615"><ele>177.25</ele><time>2026-04-18T17:18:25Z</time></trkpt><trkpt lat="44.44172585423182" lon="9.051540477187078"><ele>176.5</ele><time>2026-04-18T17:18:26Z</time></trkpt><trkpt lat="44.44165543812846" lon="9.051391774974038"><ele>175.75</ele><time>2026-04-18T17:18:27Z</time></trkpt><trkpt lat="44.44154894767159" lon="9.051213394902902"><ele>175.0</ele><time>2026-04-18T17:18:28Z</time></trkpt><trkpt lat="44.44143192557658" lon="9.051052102569761"><ele>175.0</ele><time>2026-04-18T17:18:29Z</time></trkpt><trkpt lat="44.44132443436054" lon="9.05088820343543"><ele>175.0</ele><time>2026-04-18T17:18:30Z</time></trkpt><trkpt lat="44.4412306309856" lon="9.050736933329757"><ele>175.0</ele><time>2026-04-18T17:18:31Z</time></trkpt><trkpt lat="44.44114301621849" lon="9.050599818035755"><ele>175.0</ele><time>2026-04-18T17:18:32Z</time></trkpt><trkpt lat="44.44105411474993" lon="9.050457658926462"><ele>173.75</ele><time>2026-04-18T17:18:33Z</time></trkpt><trkpt lat="44.44097520955688" lon="9.050337574668495"><ele>172.5</ele><time>2026-04-18T17:18:34Z</time></trkpt><trkpt lat="44.44090415855357" lon="9.050186167285364"><ele>171.25</ele><time>2026-04-18T17:18:35Z</time></trkpt><trkpt lat="44.440842754653296" lon="9.050022463938008"><ele>170.0</ele><time>2026-04-18T17:18:36Z</time></trkpt><trkpt lat="44.440778880572736" lon="9.049832653728584"><ele>168.66666666666666</ele><time>2026-04-18T17:18:37Z</time></trkpt><trkpt lat="44.440712931308624" lon="9.04962191202502"><ele>167.33333333333334</ele><time>2026-04-18T17:18:38Z</time></trkpt><trkpt lat="44.44064819269186" lon="9.049410832947682"><ele>166.0</ele><time>2026-04-18T17:18:39Z</time></trkpt><trkpt lat="44.4405781542473" lon="9.049238046792171"><ele>167.25</ele><time>2026-04-18T17:18:40Z</time></trkpt><trkpt lat="44.440518622913295" lon="9.049074467091136"><ele>168.5</ele><time>2026-04-18T17:18:41Z</time></trkpt><trkpt lat="44.440475644542296" lon="9.048908827865889"><ele>169.75</ele><time>2026-04-18T17:18:42Z</time></trkpt><trkpt lat="44.44045319576655" lon="9.048735790784512"><ele>171.0</ele><time>2026-04-18T17:18:43Z</time></trkpt><trkpt lat="44.44040204082808" lon="9.048541924849275"><ele>167.33333333333334</ele><time>2026-04-18T17:18:44Z</time></trkpt><trkpt lat="44.440504709934636" lon="9.048344476785381"><ele>163.66666666666669</ele><time>2026-04-18T17:18:45Z</time></trkpt><trkpt lat="44.44057885070873" lon="9.048129768577745"><ele>160.0</ele><time>2026-04-18T17:18:46Z</time></trkpt><trkpt lat="44.44066896518601" lon="9.047905078810595"><ele>159.66666666666669</ele><time>2026-04-18T17:18:47Z</time></trkpt><trkpt lat="44.44072844230321" lon="9.04764892960759"><ele>159.33333333333334</ele><time>2026-04-18T17:18:48Z</time></trkpt><trkpt lat="44.440766968879096" lon="9.047401151381175"><ele>159.0</ele><time>2026-04-18T17:18:49Z</time></trkpt><trkpt lat="44.44079684062791" lon="9.04715915348887"><ele>161.33333333333334</ele><time>2026-04-18T17:18:50Z</time></trkpt><trkpt lat="44.440832821476235" lon="9.04691671322643"><ele>163.66666666666669</ele><time>2026-04-18T17:18:51Z</time></trkpt><trkpt lat="44.440865309302886" lon="9.046665206492811"><ele>166.0</ele><time>2026-04-18T17:18:52Z</time></trkpt><trkpt lat="44.44090311903498" lon="9.046396438541258"><ele>169.66666666666669</ele><time>2026-04-18T17:18:53Z</time></trkpt><trkpt lat="44.44094559633407" lon="9.046121681295583"><ele>173.33333333333334</ele><time>2026-04-18T17:18:54Z</time></trkpt><trkpt lat="44.44098334405349" lon="9.04586505170921"><ele>177.0</ele><time>2026-04-18T17:18:55Z</time></trkpt><trkpt lat="44.44102071050316" lon="9.04562258282905"><ele>180.0</ele><time>2026-04-18T17:18:56Z</time></trkpt><trkpt lat="44.44105321050506" lon="9.045397636253592"><ele>183.0</ele><time>2026-04-18T17:18:57Z</time></trkpt><trkpt lat="44.44108549030991" lon="9.045173429897462"><ele>186.0</ele><time>2026-04-18T17:18:58Z</time></trkpt><trkpt lat="44.44111447055832" lon="9.044954449187435"><ele>187.66666666666666</ele><time>2026-04-18T17:18:59Z</time></trkpt><trkpt lat="44.4411633517617" lon="9.044731596786306"><ele>189.33333333333331</ele><time>2026-04-18T17:19:00Z</time></trkpt><trkpt lat="44.441221724972856" lon="9.044517266633516"><ele>191.0</ele><time>2026-04-18T17:19:01Z</time></trkpt><trkpt lat="44.44130138807359" lon="9.044306776286417"><ele>181.66666666666666</ele><time>2026-04-18T17:19:02Z</time></trkpt><trkpt lat="44.44138912029549" lon="9.044123396552834"><ele>172.33333333333334</ele><time>2026-04-18T17:19:03Z</time></trkpt><trkpt lat="44.441476513863485" lon="9.043932184403726"><ele>163.0</ele><time>2026-04-18T17:19:04Z</time></trkpt><trkpt lat="44.44154508899216" lon="9.043702643751987"><ele>163.0</ele><time>2026-04-18T17:19:04.999Z</time></trkpt><trkpt lat="44.44159385544371" lon="9.0434409537457"><ele>163.0</ele><time>2026-04-18T17:19:05.999Z</time></trkpt><trkpt lat="44.441640432561655" lon="9.043166609281691"><ele>163.0</ele><time>2026-04-18T17:19:06.999Z</time></trkpt><trkpt lat="44.441686730590966" lon="9.0429256535637"><ele>164.25</ele><time>2026-04-18T17:19:07.999Z</time></trkpt><trkpt lat="44.44173042147383" lon="9.042707707420064"><ele>165.5</ele><time>2026-04-18T17:19:08.999Z</time></trkpt><trkpt lat="44.441771369145435" lon="9.042519607941825"><ele>166.75</ele><time>2026-04-18T17:19:09.999Z</time></trkpt><trkpt lat="44.441806044286245" lon="9.042353748455442"><ele>168.0</ele><time>2026-04-18T17:19:10.999Z</time></trkpt><trkpt lat="44.44184925864166" lon="9.042214104323644"><ele>169.25</ele><time>2026-04-18T17:19:11.999Z</time></trkpt><trkpt lat="44.44193226135827" lon="9.042095486992732"><ele>170.5</ele><time>2026-04-18T17:19:12.999Z</time></trkpt><trkpt lat="44.442060467737086" lon="9.042004343190683"><ele>171.75</ele><time>2026-04-18T17:19:13.999Z</time></trkpt><trkpt lat="44.442217652707086" lon="9.041946319764348"><ele>173.0</ele><time>2026-04-18T17:19:14.999Z</time></trkpt><trkpt lat="44.44240352271446" lon="9.041919369219029"><ele>173.0</ele><time>2026-04-18T17:19:15.999Z</time></trkpt><trkpt lat="44.44259966023512" lon="9.04190268815574"><ele>173.0</ele><time>2026-04-18T17:19:16.999Z</time></trkpt><trkpt lat="44.442784926054294" lon="9.041875713888581"><ele>173.0</ele><time>2026-04-18T17:19:17.999Z</time></trkpt><trkpt lat="44.44296403984637" lon="9.041845155901104"><ele>168.0</ele><time>2026-04-18T17:19:18.999Z</time></trkpt><trkpt lat="44.443126593866516" lon="9.041808321254365"><ele>163.0</ele><time>2026-04-18T17:19:19.999Z</time></trkpt><trkpt lat="44.44327215029506" lon="9.041796968685572"><ele>158.0</ele><time>2026-04-18T17:19:20.999Z</time></trkpt><trkpt lat="44.443425074338684" lon="9.041767263702702"><ele>158.0</ele><time>2026-04-18T17:19:21.999Z</time></trkpt><trkpt lat="44.44356987401672" lon="9.041691148939536"><ele>158.0</ele><time>2026-04-18T17:19:22.999Z</time></trkpt><trkpt lat="44.443685990865156" lon="9.041567049052567"><ele>158.0</ele><time>2026-04-18T17:19:23.999Z</time></trkpt><trkpt lat="44.443793867840505" lon="9.041411187950269"><ele>157.0</ele><time>2026-04-18T17:19:24.999Z</time></trkpt><trkpt lat="44.44391255159256" lon="9.041193316328487"><ele>156.0</ele><time>2026-04-18T17:19:25.999Z</time></trkpt><trkpt lat="44.44404724060411" lon="9.040958802554226"><ele>155.0</ele><time>2026-04-18T17:19:26.999Z</time></trkpt><trkpt lat="44.44417836248324" lon="9.040742185484408"><ele>162.66666666666666</ele><time>2026-04-18T17:19:27.999Z</time></trkpt><trkpt lat="44.44431911824365" lon="9.04052239055088"><ele>170.33333333333334</ele><time>2026-04-18T17:19:28.999Z</time></trkpt><trkpt lat="44.44447026853054" lon="9.040300851492301"><ele>178.0</ele><time>2026-04-18T17:19:29.999Z</time></trkpt><trkpt lat="44.44461626260709" lon="9.040103587255441"><ele>177.0</ele><time>2026-04-18T17:19:30.999Z</time></trkpt><trkpt lat="44.44475317599422" lon="9.039923967198803"><ele>176.0</ele><time>2026-04-18T17:19:31.999Z</time></trkpt><trkpt lat="44.444877519322716" lon="9.039757121722218"><ele>175.0</ele><time>2026-04-18T17:19:32.999Z</time></trkpt><trkpt lat="44.44499757068648" lon="9.039593028293462"><ele>175.0</ele><time>2026-04-18T17:19:33.999Z</time></trkpt><trkpt lat="44.445128796882116" lon="9.039426743089873"><ele>175.0</ele><time>2026-04-18T17:19:34.999Z</time></trkpt><trkpt lat="44.4452741561448" lon="9.039261226724635"><ele>175.0</ele><time>2026-04-18T17:19:35.999Z</time></trkpt><trkpt lat="44.445420135930235" lon="9.03908890131811"><ele>174.33333333333334</ele><time>2026-04-18T17:19:36.999Z</time></trkpt><trkpt lat="44.44555509250151" lon="9.038915352448749"><ele>173.66666666666666</ele><time>2026-04-18T17:19:37.999Z</time></trkpt><trkpt lat="44.44568228416877" lon="9.038766918961906"><ele>173.0</ele><time>2026-04-18T17:19:38.999Z</time></trkpt><trkpt lat="44.445808104263975" lon="9.038628281759742"><ele>173.0</ele><time>2026-04-18T17:19:39.999Z</time></trkpt><trkpt lat="44.44592800522283" lon="9.038488467180304"><ele>173.0</ele><time>2026-04-18T17:19:40.999Z</time></trkpt><trkpt lat="44.44605167364609" lon="9.038352592579011"><ele>173.0</ele><time>2026-04-18T17:19:41.999Z</time></trkpt><trkpt lat="44.44617597411662" lon="9.038202726178797"><ele>180.66666666666666</ele><time>2026-04-18T17:19:42.999Z</time></trkpt><trkpt lat="44.44630079925789" lon="9.03806761511785"><ele>188.33333333333331</ele><time>2026-04-18T17:19:43.999Z</time></trkpt><trkpt lat="44.446443506421815" lon="9.037961448875466"><ele>196.0</ele><time>2026-04-18T17:19:44.999Z</time></trkpt><trkpt lat="44.44661563864119" lon="9.037922863525115"><ele>196.0</ele><time>2026-04-18T17:19:45.999Z</time></trkpt><trkpt lat="44.446777953028615" lon="9.037847937534456"><ele>196.0</ele><time>2026-04-18T17:19:46.999Z</time></trkpt><trkpt lat="44.446928488096376" lon="9.037807133906524"><ele>196.0</ele><time>2026-04-18T17:19:47.999Z</time></trkpt><trkpt lat="44.44707925821786" lon="9.037791132031682"><ele>191.5</ele><time>2026-04-18T17:19:48.999Z</time></trkpt><trkpt lat="44.4472353375885" lon="9.037813780638562"><ele>187.0</ele><time>2026-04-18T17:19:49.999Z</time></trkpt><trkpt lat="44.44737962480493" lon="9.037838955835637"><ele>182.5</ele><time>2026-04-18T17:19:50.999Z</time></trkpt><trkpt lat="44.44752413934578" lon="9.037847792410348"><ele>178.0</ele><time>2026-04-18T17:19:51.999Z</time></trkpt><trkpt lat="44.44767750898229" lon="9.0378047170158"><ele>178.0</ele><time>2026-04-18T17:19:52.999Z</time></trkpt><trkpt lat="44.44783567703593" lon="9.03773050817733"><ele>178.0</ele><time>2026-04-18T17:19:53.999Z</time></trkpt><trkpt lat="44.44801142155908" lon="9.037628624995108"><ele>178.0</ele><time>2026-04-18T17:19:54.999Z</time></trkpt><trkpt lat="44.448156670564515" lon="9.03753313620695"><ele>172.0</ele><time>2026-04-18T17:19:55.999Z</time></trkpt><trkpt lat="44.44829962810849" lon="9.037493374641512"><ele>166.0</ele><time>2026-04-18T17:19:56.999Z</time></trkpt><trkpt lat="44.448441834975974" lon="9.037474709685066"><ele>160.0</ele><time>2026-04-18T17:19:57.999Z</time></trkpt><trkpt lat="44.44858999945247" lon="9.037479312409875"><ele>154.0</ele><time>2026-04-18T17:19:58.999Z</time></trkpt><trkpt lat="44.44873657089647" lon="9.037487123917565"><ele>151.5</ele><time>2026-04-18T17:19:59.999Z</time></trkpt><trkpt lat="44.44886124062078" lon="9.037472760669425"><ele>149.0</ele><time>2026-04-18T17:20:00.999Z</time></trkpt><trkpt lat="44.44896819941883" lon="9.037463985166042"><ele>146.5</ele><time>2026-04-18T17:20:01.999Z</time></trkpt><trkpt lat="44.44908188771659" lon="9.037436399562102"><ele>144.0</ele><time>2026-04-18T17:20:02.999Z</time></trkpt><trkpt lat="44.449164581950974" lon="9.03730184915504"><ele>144.0</ele><time>2026-04-18T17:20:03.999Z</time></trkpt><trkpt lat="44.449219890878986" lon="9.037148206317015"><ele>144.0</ele><time>2026-04-18T17:20:04.999Z</time></trkpt><trkpt lat="44.449224527237234" lon="9.03698207103951"><ele>144.0</ele><time>2026-04-18T17:20:05.999Z</time></trkpt><trkpt lat="44.449189227883096" lon="9.036809163882637"><ele>144.0</ele><time>2026-04-18T17:20:07Z</time></trkpt><trkpt lat="44.449095422182374" lon="9.036633457542019"><ele>143.0</ele><time>2026-04-18T17:20:08Z</time></trkpt><trkpt lat="44.44902245998028" lon="9.03644474147409"><ele>142.0</ele><time>2026-04-18T17:20:09Z</time></trkpt><trkpt lat="44.44898790397214" lon="9.036270815949187"><ele>141.0</ele><time>2026-04-18T17:20:10Z</time></trkpt><trkpt lat="44.44899418991183" lon="9.036094437464628"><ele>140.0</ele><time>2026-04-18T17:20:11Z</time></trkpt><trkpt lat="44.44905168097607" lon="9.035882189108538"><ele>141.0</ele><time>2026-04-18T17:20:12Z</time></trkpt><trkpt lat="44.44908626588494" lon="9.035636388018425"><ele>142.0</ele><time>2026-04-18T17:20:13Z</time></trkpt><trkpt lat="44.449109300795364" lon="9.035371989424497"><ele>143.0</ele><time>2026-04-18T17:20:14Z</time></trkpt><trkpt lat="44.44913300797488" lon="9.035138293542289"><ele>150.0</ele><time>2026-04-18T17:20:15Z</time></trkpt><trkpt lat="44.44916755987301" lon="9.03493114539585"><ele>157.0</ele><time>2026-04-18T17:20:16Z</time></trkpt><trkpt lat="44.44921753463933" lon="9.034728970340112"><ele>164.0</ele><time>2026-04-18T17:20:17Z</time></trkpt><trkpt lat="44.449282767062115" lon="9.034520774869845"><ele>164.0</ele><time>2026-04-18T17:20:18Z</time></trkpt><trkpt lat="44.44934799127119" lon="9.034310574889842"><ele>164.0</ele><time>2026-04-18T17:20:19Z</time></trkpt><trkpt lat="44.44941484183547" lon="9.03412709294835"><ele>164.0</ele><time>2026-04-18T17:20:20Z</time></trkpt><trkpt lat="44.449523464990286" lon="9.03400178614854"><ele>154.66666666666666</ele><time>2026-04-18T17:20:21Z</time></trkpt><trkpt lat="44.449643128333136" lon="9.033869207330085"><ele>145.33333333333334</ele><time>2026-04-18T17:20:22Z</time></trkpt><trkpt lat="44.44977530572324" lon="9.03371416868769"><ele>136.0</ele><time>2026-04-18T17:20:23Z</time></trkpt><trkpt lat="44.44992761034605" lon="9.033571007547872"><ele>136.0</ele><time>2026-04-18T17:20:24Z</time></trkpt><trkpt lat="44.45006741837037" lon="9.033450136724126"><ele>136.0</ele><time>2026-04-18T17:20:25Z</time></trkpt><trkpt lat="44.450206089479536" lon="9.033348604710339"><ele>136.0</ele><time>2026-04-18T17:20:26Z</time></trkpt><trkpt lat="44.450337408109746" lon="9.03326686409625"><ele>133.75</ele><time>2026-04-18T17:20:27Z</time></trkpt><trkpt lat="44.4504740059303" lon="9.033194505803428"><ele>131.5</ele><time>2026-04-18T17:20:28Z</time></trkpt><trkpt lat="44.450627262449956" lon="9.033143459051917"><ele>129.25</ele><time>2026-04-18T17:20:29Z</time></trkpt><trkpt lat="44.45076386700786" lon="9.033090330170138"><ele>127.0</ele><time>2026-04-18T17:20:30Z</time></trkpt><trkpt lat="44.450891020324875" lon="9.03304935185436"><ele>127.0</ele><time>2026-04-18T17:20:31Z</time></trkpt><trkpt lat="44.451008399428105" lon="9.033007458373625"><ele>127.0</ele><time>2026-04-18T17:20:32Z</time></trkpt><trkpt lat="44.45111636052451" lon="9.032971649404585"><ele>127.0</ele><time>2026-04-18T17:20:33Z</time></trkpt><trkpt lat="44.451222366172836" lon="9.032907614126048"><ele>127.0</ele><time>2026-04-18T17:20:34Z</time></trkpt><trkpt lat="44.45131306440504" lon="9.032825776700165"><ele>126.19999999999999</ele><time>2026-04-18T17:20:35Z</time></trkpt><trkpt lat="44.451383083601534" lon="9.032711914571628"><ele>125.39999999999999</ele><time>2026-04-18T17:20:36Z</time></trkpt><trkpt lat="44.45142177459709" lon="9.032567961911637"><ele>124.60000000000001</ele><time>2026-04-18T17:20:37Z</time></trkpt><trkpt lat="44.45142155943298" lon="9.032423276522609"><ele>123.80000000000001</ele><time>2026-04-18T17:20:38Z</time></trkpt><trkpt lat="44.45138467081705" lon="9.032257059656919"><ele>123.0</ele><time>2026-04-18T17:20:39Z</time></trkpt><trkpt lat="44.451322661523676" lon="9.032128699232024"><ele>123.0</ele><time>2026-04-18T17:20:40Z</time></trkpt><trkpt lat="44.45123164443414" lon="9.032019054982362"><ele>123.0</ele><time>2026-04-18T17:20:41Z</time></trkpt><trkpt lat="44.45112936566262" lon="9.031925779005451"><ele>123.0</ele><time>2026-04-18T17:20:42Z</time></trkpt><trkpt lat="44.451034128209265" lon="9.031824392211094"><ele>123.0</ele><time>2026-04-18T17:20:43Z</time></trkpt><trkpt lat="44.450911937855565" lon="9.031745687003461"><ele>123.5</ele><time>2026-04-18T17:20:44Z</time></trkpt><trkpt lat="44.450794186385494" lon="9.031638866009338"><ele>124.0</ele><time>2026-04-18T17:20:45Z</time></trkpt><trkpt lat="44.450685508171944" lon="9.031544895578701"><ele>124.5</ele><time>2026-04-18T17:20:46Z</time></trkpt><trkpt lat="44.45058339689381" lon="9.031450544971918"><ele>125.0</ele><time>2026-04-18T17:20:47Z</time></trkpt><trkpt lat="44.45048942104953" lon="9.031354087674213"><ele>129.25</ele><time>2026-04-18T17:20:48Z</time></trkpt><trkpt lat="44.45039510158643" lon="9.03123201427937"><ele>133.5</ele><time>2026-04-18T17:20:49Z</time></trkpt><trkpt lat="44.450310189711836" lon="9.031083671964794"><ele>137.75</ele><time>2026-04-18T17:20:50Z</time></trkpt><trkpt lat="44.45024945189176" lon="9.030953388140151"><ele>142.0</ele><time>2026-04-18T17:20:51Z</time></trkpt><trkpt lat="44.450210422973115" lon="9.030800676902173"><ele>142.0</ele><time>2026-04-18T17:20:52Z</time></trkpt><trkpt lat="44.45017931259847" lon="9.030619770250485"><ele>142.0</ele><time>2026-04-18T17:20:53Z</time></trkpt><trkpt lat="44.450193965154966" lon="9.030403672031888"><ele>142.0</ele><time>2026-04-18T17:20:54Z</time></trkpt><trkpt lat="44.45022320159222" lon="9.030190061632464"><ele>142.0</ele><time>2026-04-18T17:20:55Z</time></trkpt><trkpt lat="44.45025386655869" lon="9.030007795108354"><ele>143.25</ele><time>2026-04-18T17:20:56Z</time></trkpt><trkpt lat="44.450332552555295" lon="9.029843979402328"><ele>144.5</ele><time>2026-04-18T17:20:57Z</time></trkpt><trkpt lat="44.45041785465528" lon="9.029682026315495"><ele>145.75</ele><time>2026-04-18T17:20:58Z</time></trkpt><trkpt lat="44.45051088805659" lon="9.029552348944204"><ele>147.0</ele><time>2026-04-18T17:20:59Z</time></trkpt><trkpt lat="44.45059571670496" lon="9.02944241985057"><ele>140.79999999999998</ele><time>2026-04-18T17:21:00Z</time></trkpt><trkpt lat="44.45067874882476" lon="9.029319196663218"><ele>134.6</ele><time>2026-04-18T17:21:01Z</time></trkpt><trkpt lat="44.45075214927284" lon="9.029200451663968"><ele>128.39999999999998</ele><time>2026-04-18T17:21:02Z</time></trkpt><trkpt lat="44.45081819829206" lon="9.029082336314213"><ele>122.19999999999999</ele><time>2026-04-18T17:21:03Z</time></trkpt><trkpt lat="44.450871631492824" lon="9.028956378945786"><ele>116.0</ele><time>2026-04-18T17:21:04Z</time></trkpt><trkpt lat="44.450908694699066" lon="9.028814571285006"><ele>116.0</ele><time>2026-04-18T17:21:05Z</time></trkpt><trkpt lat="44.45091757319329" lon="9.028665859643207"><ele>116.0</ele><time>2026-04-18T17:21:06Z</time></trkpt><trkpt lat="44.45088516335761" lon="9.028527020732204"><ele>116.0</ele><time>2026-04-18T17:21:07Z</time></trkpt><trkpt lat="44.45082549487272" lon="9.02840219719526"><ele>116.0</ele><time>2026-04-18T17:21:08Z</time></trkpt><trkpt lat="44.45073478864123" lon="9.028287746536673"><ele>116.0</ele><time>2026-04-18T17:21:09Z</time></trkpt><trkpt lat="44.450631401875505" lon="9.028148598301843"><ele>116.19999999999999</ele><time>2026-04-18T17:21:10Z</time></trkpt><trkpt lat="44.45052831038395" lon="9.028044005966755"><ele>116.39999999999999</ele><time>2026-04-18T17:21:11Z</time></trkpt><trkpt lat="44.45044185386794" lon="9.02796309397913"><ele>116.6</ele><time>2026-04-18T17:21:11.999Z</time></trkpt><trkpt lat="44.450361138957156" lon="9.027893587469892"><ele>116.8</ele><time>2026-04-18T17:21:12.999Z</time></trkpt><trkpt lat="44.45026975484859" lon="9.027815843442484"><ele>117.0</ele><time>2026-04-18T17:21:13.999Z</time></trkpt><trkpt lat="44.45016091344814" lon="9.027720981907628"><ele>117.0</ele><time>2026-04-18T17:21:14.999Z</time></trkpt><trkpt lat="44.45002914225662" lon="9.027629090374315"><ele>117.0</ele><time>2026-04-18T17:21:15.999Z</time></trkpt><trkpt lat="44.44992087429232" lon="9.027519671261853"><ele>117.0</ele><time>2026-04-18T17:21:16.999Z</time></trkpt><trkpt lat="44.44982557444061" lon="9.02738967012679"><ele>117.0</ele><time>2026-04-18T17:21:17.999Z</time></trkpt><trkpt lat="44.449702344364056" lon="9.027274296787706"><ele>125.0</ele><time>2026-04-18T17:21:18.999Z</time></trkpt><trkpt lat="44.44959359958404" lon="9.027132727787937"><ele>133.0</ele><time>2026-04-18T17:21:19.999Z</time></trkpt><trkpt lat="44.449480216636594" lon="9.02698220209604"><ele>141.0</ele><time>2026-04-18T17:21:20.999Z</time></trkpt><trkpt lat="44.449365142189905" lon="9.026812996916822"><ele>141.0</ele><time>2026-04-18T17:21:21.999Z</time></trkpt><trkpt lat="44.44926582927667" lon="9.02664693107786"><ele>141.0</ele><time>2026-04-18T17:21:22.999Z</time></trkpt><trkpt lat="44.44916929560537" lon="9.026468182151584"><ele>141.0</ele><time>2026-04-18T17:21:23.999Z</time></trkpt><trkpt lat="44.449066596249644" lon="9.026255110616605"><ele>139.66666666666666</ele><time>2026-04-18T17:21:24.999Z</time></trkpt><trkpt lat="44.44897524977505" lon="9.02603372741402"><ele>138.33333333333331</ele><time>2026-04-18T17:21:26.02Z</time></trkpt><trkpt lat="44.44890186332843" lon="9.025830606611938"><ele>137.0</ele><time>2026-04-18T17:21:27.021Z</time></trkpt><trkpt lat="44.44880768094473" lon="9.02563034021462"><ele>142.66666666666666</ele><time>2026-04-18T17:21:28.02Z</time></trkpt><trkpt lat="44.44873714077678" lon="9.025409747010256"><ele>148.33333333333334</ele><time>2026-04-18T17:21:29.021Z</time></trkpt><trkpt lat="44.448676572912866" lon="9.025196035290712"><ele>154.0</ele><time>2026-04-18T17:21:30.016Z</time></trkpt><trkpt lat="44.44845405772478" lon="9.024205856246573"><ele>144.66666666666669</ele><time>2026-04-18T17:21:34.491Z</time></trkpt><trkpt lat="44.44843285611247" lon="9.023975250890166"><ele>135.33333333333334</ele><time>2026-04-18T17:21:35.488Z</time></trkpt><trkpt lat="44.448433343565" lon="9.023740531634477"><ele>126.0</ele><time>2026-04-18T17:21:36.491Z</time></trkpt><trkpt lat="44.44840705295528" lon="9.0235098061649"><ele>114.0</ele><time>2026-04-18T17:21:37.491Z</time></trkpt><trkpt lat="44.44842145850116" lon="9.023276493330835"><ele>102.0</ele><time>2026-04-18T17:21:38.491Z</time></trkpt><trkpt lat="44.44842127621588" lon="9.022550638773499"><ele>98.66666666666667</ele><time>2026-04-18T17:21:40.999Z</time></trkpt><trkpt lat="44.448422315703134" lon="9.022314089789107"><ele>95.33333333333334</ele><time>2026-04-18T17:21:41.999Z</time></trkpt><trkpt lat="44.44843486155494" lon="9.02207750185475"><ele>92.0</ele><time>2026-04-18T17:21:42.999Z</time></trkpt><trkpt lat="44.44844952029608" lon="9.021850172765706"><ele>93.0</ele><time>2026-04-18T17:21:43.999Z</time></trkpt><trkpt lat="44.44845586549588" lon="9.02161887418484"><ele>94.0</ele><time>2026-04-18T17:21:44.999Z</time></trkpt><trkpt lat="44.44846721372745" lon="9.021371430476854"><ele>95.0</ele><time>2026-04-18T17:21:45.999Z</time></trkpt><trkpt lat="44.448501980355836" lon="9.021101042518564"><ele>95.0</ele><time>2026-04-18T17:21:46.999Z</time></trkpt><trkpt lat="44.448525652737025" lon="9.020860263626105"><ele>95.0</ele><time>2026-04-18T17:21:47.999Z</time></trkpt><trkpt lat="44.44856105748308" lon="9.02061835776119"><ele>95.0</ele><time>2026-04-18T17:21:48.999Z</time></trkpt><trkpt lat="44.44859832607973" lon="9.020385823908192"><ele>96.33333333333334</ele><time>2026-04-18T17:21:49.999Z</time></trkpt><trkpt lat="44.448631916709374" lon="9.020163001053835"><ele>97.66666666666667</ele><time>2026-04-18T17:21:50.999Z</time></trkpt><trkpt lat="44.448664136326585" lon="9.019952573930007"><ele>99.0</ele><time>2026-04-18T17:21:51.999Z</time></trkpt><trkpt lat="44.4486967135898" lon="9.019736625381038"><ele>99.0</ele><time>2026-04-18T17:21:52.999Z</time></trkpt><trkpt lat="44.44872553298824" lon="9.01951472060997"><ele>99.0</ele><time>2026-04-18T17:21:53.999Z</time></trkpt><trkpt lat="44.44875015681369" lon="9.01929355543095"><ele>99.0</ele><time>2026-04-18T17:21:54.999Z</time></trkpt><trkpt lat="44.44877289256192" lon="9.019080868278921"><ele>96.75</ele><time>2026-04-18T17:21:55.999Z</time></trkpt><trkpt lat="44.448790739690345" lon="9.018876195910243"><ele>94.5</ele><time>2026-04-18T17:21:56.999Z</time></trkpt><trkpt lat="44.44880512146136" lon="9.018683465419283"><ele>92.25</ele><time>2026-04-18T17:21:57.999Z</time></trkpt><trkpt lat="44.44881766414662" lon="9.01849628690474"><ele>90.0</ele><time>2026-04-18T17:21:58.999Z</time></trkpt><trkpt lat="44.44882447741704" lon="9.018282384950773"><ele>88.0</ele><time>2026-04-18T17:21:59.999Z</time></trkpt><trkpt lat="44.44883351207562" lon="9.018046480557055"><ele>86.0</ele><time>2026-04-18T17:22:00.999Z</time></trkpt><trkpt lat="44.44883776327417" lon="9.017794717925465"><ele>84.0</ele><time>2026-04-18T17:22:01.999Z</time></trkpt><trkpt lat="44.44883650028225" lon="9.017543884906392"><ele>84.0</ele><time>2026-04-18T17:22:02.999Z</time></trkpt><trkpt lat="44.44883458924457" lon="9.01731438543198"><ele>84.0</ele><time>2026-04-18T17:22:03.999Z</time></trkpt><trkpt lat="44.448833737324485" lon="9.01707910076866"><ele>84.0</ele><time>2026-04-18T17:22:04.999Z</time></trkpt><trkpt lat="44.44883202928002" lon="9.016840922375364"><ele>83.66666666666667</ele><time>2026-04-18T17:22:05.999Z</time></trkpt><trkpt lat="44.44883074721373" lon="9.01661299310141"><ele>83.33333333333334</ele><time>2026-04-18T17:22:06.999Z</time></trkpt><trkpt lat="44.44883030623747" lon="9.016398712516738"><ele>83.0</ele><time>2026-04-18T17:22:07.999Z</time></trkpt><trkpt lat="44.448829729831374" lon="9.016196137203012"><ele>83.0</ele><time>2026-04-18T17:22:08.999Z</time></trkpt><trkpt lat="44.448827659411236" lon="9.015998607136165"><ele>83.0</ele><time>2026-04-18T17:22:09.999Z</time></trkpt><trkpt lat="44.44882673629661" lon="9.015810815845647"><ele>83.0</ele><time>2026-04-18T17:22:10.999Z</time></trkpt><trkpt lat="44.44882503637979" lon="9.015645391521351"><ele>83.0</ele><time>2026-04-18T17:22:11.999Z</time></trkpt><trkpt lat="44.44882319672158" lon="9.015492916708956"><ele>82.60000000000001</ele><time>2026-04-18T17:22:13Z</time></trkpt><trkpt lat="44.44881904538446" lon="9.015361303232037"><ele>82.2</ele><time>2026-04-18T17:22:14Z</time></trkpt><trkpt lat="44.44881665138932" lon="9.015246979671508"><ele>81.8</ele><time>2026-04-18T17:22:15Z</time></trkpt><trkpt lat="44.4488124107858" lon="9.015126982685157"><ele>81.4</ele><time>2026-04-18T17:22:16Z</time></trkpt><trkpt lat="44.44881058664912" lon="9.01499126259981"><ele>81.0</ele><time>2026-04-18T17:22:17Z</time></trkpt><trkpt lat="44.44879292446725" lon="9.014842457374053"><ele>81.5</ele><time>2026-04-18T17:22:18Z</time></trkpt><trkpt lat="44.44877694363087" lon="9.014684660568735"><ele>82.0</ele><time>2026-04-18T17:22:19Z</time></trkpt><trkpt lat="44.44877570657692" lon="9.014501835031801"><ele>82.5</ele><time>2026-04-18T17:22:20Z</time></trkpt><trkpt lat="44.448784793794665" lon="9.014315219331175"><ele>83.0</ele><time>2026-04-18T17:22:21Z</time></trkpt><trkpt lat="44.44878426169182" lon="9.014121227626253"><ele>83.0</ele><time>2026-04-18T17:22:22Z</time></trkpt><trkpt lat="44.44877736313633" lon="9.01392739531774"><ele>83.0</ele><time>2026-04-18T17:22:23Z</time></trkpt><trkpt lat="44.44876933449268" lon="9.013743076376104"><ele>83.0</ele><time>2026-04-18T17:22:24Z</time></trkpt><trkpt lat="44.44875913091364" lon="9.013547135966594"><ele>83.0</ele><time>2026-04-18T17:22:25Z</time></trkpt><trkpt lat="44.44873929377211" lon="9.013341253452783"><ele>82.33333333333334</ele><time>2026-04-18T17:22:26Z</time></trkpt><trkpt lat="44.448719219971935" lon="9.013128555453237"><ele>81.66666666666667</ele><time>2026-04-18T17:22:27Z</time></trkpt><trkpt lat="44.44869858164805" lon="9.012910794455708"><ele>81.0</ele><time>2026-04-18T17:22:28Z</time></trkpt><trkpt lat="44.44867303561362" lon="9.012690869278707"><ele>81.33333333333333</ele><time>2026-04-18T17:22:29Z</time></trkpt><trkpt lat="44.448647643325394" lon="9.012477235854814"><ele>81.66666666666666</ele><time>2026-04-18T17:22:30Z</time></trkpt><trkpt lat="44.44861900538367" lon="9.012249504040772"><ele>82.0</ele><time>2026-04-18T17:22:31Z</time></trkpt><trkpt lat="44.448585824575794" lon="9.01203253589825"><ele>82.0</ele><time>2026-04-18T17:22:32Z</time></trkpt><trkpt lat="44.448554229819756" lon="9.011835576788844"><ele>82.0</ele><time>2026-04-18T17:22:33Z</time></trkpt><trkpt lat="44.448523881717826" lon="9.011668185884774"><ele>82.0</ele><time>2026-04-18T17:22:34Z</time></trkpt><trkpt lat="44.44849936634965" lon="9.011503703952979"><ele>82.0</ele><time>2026-04-18T17:22:35Z</time></trkpt><trkpt lat="44.448471371839624" lon="9.011350772738474"><ele>81.39999999999999</ele><time>2026-04-18T17:22:36Z</time></trkpt><trkpt lat="44.44844298149649" lon="9.011196786622303"><ele>80.8</ele><time>2026-04-18T17:22:37Z</time></trkpt><trkpt lat="44.44841440470991" lon="9.011052844619332"><ele>80.2</ele><time>2026-04-18T17:22:38Z</time></trkpt><trkpt lat="44.44839009340519" lon="9.010924840500318"><ele>79.6</ele><time>2026-04-18T17:22:39Z</time></trkpt><trkpt lat="44.44836540474871" lon="9.010808372377499"><ele>79.0</ele><time>2026-04-18T17:22:40Z</time></trkpt><trkpt lat="44.44834386646687" lon="9.010702152204077"><ele>79.0</ele><time>2026-04-18T17:22:41Z</time></trkpt><trkpt lat="44.4483261127226" lon="9.01060759647123"><ele>79.0</ele><time>2026-04-18T17:22:42Z</time></trkpt><trkpt lat="44.44830293507821" lon="9.010476791294009"><ele>79.0</ele><time>2026-04-18T17:22:44Z</time></trkpt><trkpt lat="44.448280157870734" lon="9.010370698494583"><ele>79.0</ele><time>2026-04-18T17:22:47Z</time></trkpt><trkpt lat="44.44823896226684" lon="9.010220117148908"><ele>79.0</ele><time>2026-04-18T17:23:12Z</time></trkpt><trkpt lat="44.4482109353177" lon="9.010086804770825"><ele>79.0</ele><time>2026-04-18T17:23:13Z</time></trkpt><trkpt lat="44.44817807420382" lon="9.009943227526511"><ele>79.0</ele><time>2026-04-18T17:23:14Z</time></trkpt><trkpt lat="44.44814430110833" lon="9.009781014216431"><ele>79.0</ele><time>2026-04-18T17:23:15Z</time></trkpt><trkpt lat="44.44810561887231" lon="9.009611712725974"><ele>79.0</ele><time>2026-04-18T17:23:16Z</time></trkpt><trkpt lat="44.44806339141733" lon="9.009433206134439"><ele>79.0</ele><time>2026-04-18T17:23:17Z</time></trkpt><trkpt lat="44.44801651998078" lon="9.009247935906034"><ele>79.0</ele><time>2026-04-18T17:23:17.999Z</time></trkpt><trkpt lat="44.44796797929067" lon="9.009060011102472"><ele>79.0</ele><time>2026-04-18T17:23:18.999Z</time></trkpt><trkpt lat="44.44792378572006" lon="9.008885179929683"><ele>79.0</ele><time>2026-04-18T17:23:19.999Z</time></trkpt><trkpt lat="44.447874546306004" lon="9.008704460408298"><ele>78.75</ele><time>2026-04-18T17:23:20.999Z</time></trkpt><trkpt lat="44.447829156098486" lon="9.008531180465491"><ele>78.5</ele><time>2026-04-18T17:23:21.999Z</time></trkpt><trkpt lat="44.44777997419159" lon="9.00835905119599"><ele>78.25</ele><time>2026-04-18T17:23:22.999Z</time></trkpt><trkpt lat="44.44772732488824" lon="9.008186909075357"><ele>78.0</ele><time>2026-04-18T17:23:23.999Z</time></trkpt><trkpt lat="44.44767159406127" lon="9.008019784488287"><ele>78.0</ele><time>2026-04-18T17:23:24.999Z</time></trkpt><trkpt lat="44.44761479289836" lon="9.007863659791452"><ele>78.0</ele><time>2026-04-18T17:23:25.999Z</time></trkpt><trkpt lat="44.447564382497646" lon="9.007721117260882"><ele>78.0</ele><time>2026-04-18T17:23:26.999Z</time></trkpt><trkpt lat="44.44751915821333" lon="9.007589631826571"><ele>78.0</ele><time>2026-04-18T17:23:27.999Z</time></trkpt><trkpt lat="44.4474782476152" lon="9.007472257670239"><ele>78.0</ele><time>2026-04-18T17:23:28.999Z</time></trkpt><trkpt lat="44.447442295976224" lon="9.007369909073415"><ele>77.8</ele><time>2026-04-18T17:23:29.999Z</time></trkpt><trkpt lat="44.447398499201114" lon="9.007238750025275"><ele>77.6</ele><time>2026-04-18T17:23:31.999Z</time></trkpt><trkpt lat="44.44738521761757" lon="9.007132163093809"><ele>77.4</ele><time>2026-04-18T17:24:04.999Z</time></trkpt><trkpt lat="44.44734838371356" lon="9.007024489590771"><ele>77.2</ele><time>2026-04-18T17:24:05.999Z</time></trkpt><trkpt lat="44.44729835020442" lon="9.006876077647176"><ele>77.0</ele><time>2026-04-18T17:24:06.999Z</time></trkpt><trkpt lat="44.44724366513425" lon="9.006712670149431"><ele>76.33333333333334</ele><time>2026-04-18T17:24:07.999Z</time></trkpt><trkpt lat="44.447173271155584" lon="9.006494364533909"><ele>75.66666666666667</ele><time>2026-04-18T17:24:08.999Z</time></trkpt><trkpt lat="44.4470952858649" lon="9.00628302759636"><ele>75.0</ele><time>2026-04-18T17:24:09.999Z</time></trkpt><trkpt lat="44.44704096533998" lon="9.00604014279508"><ele>81.0</ele><time>2026-04-18T17:24:10.999Z</time></trkpt><trkpt lat="44.446987521863875" lon="9.00576581564191"><ele>87.0</ele><time>2026-04-18T17:24:11.999Z</time></trkpt><trkpt lat="44.44694778055955" lon="9.005498939185435"><ele>93.0</ele><time>2026-04-18T17:24:12.999Z</time></trkpt><trkpt lat="44.44691386329413" lon="9.005248222201194"><ele>93.0</ele><time>2026-04-18T17:24:13.999Z</time></trkpt><trkpt lat="44.446882819600134" lon="9.005014771479654"><ele>93.0</ele><time>2026-04-18T17:24:14.999Z</time></trkpt><trkpt lat="44.44685853028731" lon="9.004793438742277"><ele>93.0</ele><time>2026-04-18T17:24:15.999Z</time></trkpt><trkpt lat="44.446839313523604" lon="9.004587379168587"><ele>92.75</ele><time>2026-04-18T17:24:16.999Z</time></trkpt><trkpt lat="44.446827752976134" lon="9.004392018768263"><ele>92.5</ele><time>2026-04-18T17:24:17.999Z</time></trkpt><trkpt lat="44.446821592967325" lon="9.004208282299919"><ele>92.25</ele><time>2026-04-18T17:24:19Z</time></trkpt><trkpt lat="44.44682440349451" lon="9.004025893532704"><ele>92.0</ele><time>2026-04-18T17:24:20Z</time></trkpt><trkpt lat="44.4468284747846" lon="9.003842958410472"><ele>91.0</ele><time>2026-04-18T17:24:21Z</time></trkpt><trkpt lat="44.44684212818749" lon="9.00365789688484"><ele>90.0</ele><time>2026-04-18T17:24:22Z</time></trkpt><trkpt lat="44.446857533630485" lon="9.00347030977631"><ele>89.0</ele><time>2026-04-18T17:24:23Z</time></trkpt><trkpt lat="44.446875439890455" lon="9.003283365027912"><ele>88.0</ele><time>2026-04-18T17:24:24Z</time></trkpt><trkpt lat="44.446893309014925" lon="9.0031028056417"><ele>86.0</ele><time>2026-04-18T17:24:25Z</time></trkpt><trkpt lat="44.44691757751927" lon="9.00291421399447"><ele>84.0</ele><time>2026-04-18T17:24:26Z</time></trkpt><trkpt lat="44.44694426322196" lon="9.00271558041566"><ele>82.0</ele><time>2026-04-18T17:24:27Z</time></trkpt><trkpt lat="44.44697048928716" lon="9.002511553352456"><ele>80.0</ele><time>2026-04-18T17:24:28Z</time></trkpt><trkpt lat="44.446994560284885" lon="9.00232441301204"><ele>79.5</ele><time>2026-04-18T17:24:29Z</time></trkpt><trkpt lat="44.44701561340133" lon="9.002138289831922"><ele>79.0</ele><time>2026-04-18T17:24:30Z</time></trkpt><trkpt lat="44.4470383236983" lon="9.001946347185912"><ele>78.5</ele><time>2026-04-18T17:24:31Z</time></trkpt><trkpt lat="44.447060369054476" lon="9.001751351143506"><ele>78.0</ele><time>2026-04-18T17:24:32Z</time></trkpt><trkpt lat="44.44708335743076" lon="9.001553937686829"><ele>78.0</ele><time>2026-04-18T17:24:33Z</time></trkpt><trkpt lat="44.44710944416348" lon="9.001356658304864"><ele>78.0</ele><time>2026-04-18T17:24:34Z</time></trkpt><trkpt lat="44.44714161116339" lon="9.001158490457382"><ele>78.0</ele><time>2026-04-18T17:24:35Z</time></trkpt><trkpt lat="44.44718606359828" lon="9.000962634677864"><ele>78.0</ele><time>2026-04-18T17:24:36Z</time></trkpt><trkpt lat="44.447237633604395" lon="9.000766704142096"><ele>76.66666666666667</ele><time>2026-04-18T17:24:37Z</time></trkpt><trkpt lat="44.44728997987735" lon="9.000568260575191"><ele>75.33333333333334</ele><time>2026-04-18T17:24:38Z</time></trkpt><trkpt lat="44.44734240050358" lon="9.000365893756676"><ele>74.0</ele><time>2026-04-18T17:24:39Z</time></trkpt><trkpt lat="44.44739679646586" lon="9.000166046229007"><ele>74.0</ele><time>2026-04-18T17:24:40Z</time></trkpt><trkpt lat="44.447449317641265" lon="8.999965511346728"><ele>74.0</ele><time>2026-04-18T17:24:41Z</time></trkpt><trkpt lat="44.44749976013229" lon="8.999764857110309"><ele>74.0</ele><time>2026-04-18T17:24:42Z</time></trkpt><trkpt lat="44.44755470307328" lon="8.999557120446932"><ele>74.0</ele><time>2026-04-18T17:24:43Z</time></trkpt><trkpt lat="44.44761121871656" lon="8.99935018909958"><ele>74.0</ele><time>2026-04-18T17:24:44Z</time></trkpt><trkpt lat="44.44766620782125" lon="8.999142460685798"><ele>74.0</ele><time>2026-04-18T17:24:45Z</time></trkpt><trkpt lat="44.44771877312629" lon="8.998933340395974"><ele>73.66666666666667</ele><time>2026-04-18T17:24:46Z</time></trkpt><trkpt lat="44.44777291647626" lon="8.998723672872574"><ele>73.33333333333333</ele><time>2026-04-18T17:24:47Z</time></trkpt><trkpt lat="44.44782744925932" lon="8.998513717920524"><ele>73.0</ele><time>2026-04-18T17:24:48Z</time></trkpt><trkpt lat="44.44788128991015" lon="8.99830211964382"><ele>73.0</ele><time>2026-04-18T17:24:49Z</time></trkpt><trkpt lat="44.44793607138273" lon="8.998089139306314"><ele>73.0</ele><time>2026-04-18T17:24:50Z</time></trkpt><trkpt lat="44.44799257547739" lon="8.997879743919409"><ele>73.0</ele><time>2026-04-18T17:24:51Z</time></trkpt><trkpt lat="44.448048494349166" lon="8.997665986445162"><ele>71.66666666666666</ele><time>2026-04-18T17:24:52Z</time></trkpt><trkpt lat="44.44810416074666" lon="8.997453525052059"><ele>70.33333333333333</ele><time>2026-04-18T17:24:53Z</time></trkpt><trkpt lat="44.44816113964177" lon="8.997234897111278"><ele>69.0</ele><time>2026-04-18T17:24:54Z</time></trkpt><trkpt lat="44.44821790108834" lon="8.997010012213385"><ele>69.0</ele><time>2026-04-18T17:24:55Z</time></trkpt><trkpt lat="44.44827694850867" lon="8.996779234134435"><ele>69.0</ele><time>2026-04-18T17:24:56Z</time></trkpt><trkpt lat="44.44833999993569" lon="8.99654290226281"><ele>69.0</ele><time>2026-04-18T17:24:57Z</time></trkpt><trkpt lat="44.44840408559396" lon="8.996300234325838"><ele>68.66666666666667</ele><time>2026-04-18T17:24:58Z</time></trkpt><trkpt lat="44.448469435709605" lon="8.996052713853562"><ele>68.33333333333334</ele><time>2026-04-18T17:24:59Z</time></trkpt><trkpt lat="44.44853531517034" lon="8.995801187661264"><ele>68.0</ele><time>2026-04-18T17:25:00Z</time></trkpt><trkpt lat="44.44859926237158" lon="8.995562982223705"><ele>68.0</ele><time>2026-04-18T17:25:01Z</time></trkpt><trkpt lat="44.44865970814324" lon="8.995337206338485"><ele>68.0</ele><time>2026-04-18T17:25:02Z</time></trkpt><trkpt lat="44.44871996605496" lon="8.995107566310951"><ele>68.0</ele><time>2026-04-18T17:25:03Z</time></trkpt><trkpt lat="44.44878182452726" lon="8.99486855569227"><ele>68.0</ele><time>2026-04-18T17:25:04Z</time></trkpt><trkpt lat="44.44884599837363" lon="8.994619981918516"><ele>68.0</ele><time>2026-04-18T17:25:05Z</time></trkpt><trkpt lat="44.448909445761196" lon="8.99438268131382"><ele>68.0</ele><time>2026-04-18T17:25:06Z</time></trkpt><trkpt lat="44.44896932579446" lon="8.994159163185872"><ele>68.0</ele><time>2026-04-18T17:25:07Z</time></trkpt><trkpt lat="44.449027373723844" lon="8.993950052129291"><ele>68.0</ele><time>2026-04-18T17:25:08Z</time></trkpt><trkpt lat="44.44908769353008" lon="8.993746575656983"><ele>68.0</ele><time>2026-04-18T17:25:09Z</time></trkpt><trkpt lat="44.44915700612009" lon="8.993548065085452"><ele>68.0</ele><time>2026-04-18T17:25:10Z</time></trkpt><trkpt lat="44.449230802364426" lon="8.993366232878701"><ele>68.0</ele><time>2026-04-18T17:25:11Z</time></trkpt><trkpt lat="44.44931186801964" lon="8.99318336280529"><ele>68.0</ele><time>2026-04-18T17:25:12Z</time></trkpt><trkpt lat="44.44940606493842" lon="8.992997900932483"><ele>68.25</ele><time>2026-04-18T17:25:13Z</time></trkpt><trkpt lat="44.44949975113449" lon="8.992825030059452"><ele>68.5</ele><time>2026-04-18T17:25:14Z</time></trkpt><trkpt lat="44.449587562289445" lon="8.992665396757424"><ele>68.75</ele><time>2026-04-18T17:25:15Z</time></trkpt><trkpt lat="44.44967242842392" lon="8.992512373538485"><ele>69.0</ele><time>2026-04-18T17:25:16Z</time></trkpt><trkpt lat="44.44976356045997" lon="8.9923501172592"><ele>68.0</ele><time>2026-04-18T17:25:17Z</time></trkpt><trkpt lat="44.449848688726206" lon="8.992197609190365"><ele>67.0</ele><time>2026-04-18T17:25:18Z</time></trkpt><trkpt lat="44.44994670741109" lon="8.992046477132812"><ele>66.0</ele><time>2026-04-18T17:25:19Z</time></trkpt><trkpt lat="44.45005903243257" lon="8.991905279638866"><ele>65.0</ele><time>2026-04-18T17:25:20Z</time></trkpt><trkpt lat="44.45018754540763" lon="8.99177996057639"><ele>67.66666666666667</ele><time>2026-04-18T17:25:21Z</time></trkpt><trkpt lat="44.45032626971567" lon="8.991672261538572"><ele>70.33333333333333</ele><time>2026-04-18T17:25:22Z</time></trkpt><trkpt lat="44.45046564058175" lon="8.991590743775603"><ele>73.0</ele><time>2026-04-18T17:25:23Z</time></trkpt><trkpt lat="44.45060536540076" lon="8.99153848163225"><ele>73.0</ele><time>2026-04-18T17:25:23.999Z</time></trkpt><trkpt lat="44.45075383306607" lon="8.991507300730037"><ele>73.0</ele><time>2026-04-18T17:25:24.999Z</time></trkpt><trkpt lat="44.450895319006115" lon="8.991500504111889"><ele>73.0</ele><time>2026-04-18T17:25:25.999Z</time></trkpt><trkpt lat="44.4510370887439" lon="8.991514450360123"><ele>73.0</ele><time>2026-04-18T17:25:26.999Z</time></trkpt><trkpt lat="44.45118972749472" lon="8.991548647284885"><ele>71.5</ele><time>2026-04-18T17:25:27.999Z</time></trkpt><trkpt lat="44.4513256481238" lon="8.991587816568874"><ele>70.0</ele><time>2026-04-18T17:25:28.999Z</time></trkpt><trkpt lat="44.451454433181325" lon="8.991614351088089"><ele>68.5</ele><time>2026-04-18T17:25:29.999Z</time></trkpt><trkpt lat="44.45158110216329" lon="8.991611989382397"><ele>67.0</ele><time>2026-04-18T17:25:30.999Z</time></trkpt><trkpt lat="44.45171447106578" lon="8.99158193370292"><ele>67.0</ele><time>2026-04-18T17:25:31.999Z</time></trkpt><trkpt lat="44.45183564958778" lon="8.991518768619125"><ele>67.0</ele><time>2026-04-18T17:25:32.999Z</time></trkpt><trkpt lat="44.4519495417274" lon="8.991434142472295"><ele>67.0</ele><time>2026-04-18T17:25:33.999Z</time></trkpt><trkpt lat="44.45206726252863" lon="8.991317036387962"><ele>67.0</ele><time>2026-04-18T17:25:34.999Z</time></trkpt><trkpt lat="44.452175732988636" lon="8.991178716199116"><ele>66.25</ele><time>2026-04-18T17:25:35.999Z</time></trkpt><trkpt lat="44.45228290209183" lon="8.991043156765064"><ele>65.5</ele><time>2026-04-18T17:25:36.999Z</time></trkpt><trkpt lat="44.45238829226772" lon="8.990905593280777"><ele>64.75</ele><time>2026-04-18T17:25:37.999Z</time></trkpt><trkpt lat="44.45248696565914" lon="8.990755990468"><ele>64.0</ele><time>2026-04-18T17:25:38.999Z</time></trkpt><trkpt lat="44.45257832524178" lon="8.990598027525543"><ele>64.0</ele><time>2026-04-18T17:25:39.999Z</time></trkpt><trkpt lat="44.45266563072197" lon="8.99043455384337"><ele>64.0</ele><time>2026-04-18T17:25:40.999Z</time></trkpt><trkpt lat="44.452747456007856" lon="8.990263140697639"><ele>64.0</ele><time>2026-04-18T17:25:41.999Z</time></trkpt><trkpt lat="44.45282607300258" lon="8.990074687955538"><ele>64.0</ele><time>2026-04-18T17:25:42.999Z</time></trkpt><trkpt lat="44.45290108589654" lon="8.989870536728622"><ele>62.0</ele><time>2026-04-18T17:25:43.999Z</time></trkpt><trkpt lat="44.452974511862" lon="8.989650473587583"><ele>60.0</ele><time>2026-04-18T17:25:44.999Z</time></trkpt><trkpt lat="44.45304017916024" lon="8.989442891396003"><ele>58.0</ele><time>2026-04-18T17:25:45.999Z</time></trkpt><trkpt lat="44.45309601156856" lon="8.98925014877431"><ele>58.666666666666664</ele><time>2026-04-18T17:25:46.999Z</time></trkpt><trkpt lat="44.45314824944339" lon="8.989050526004496"><ele>59.33333333333333</ele><time>2026-04-18T17:25:47.999Z</time></trkpt><trkpt lat="44.45320235355969" lon="8.988839519042681"><ele>60.0</ele><time>2026-04-18T17:25:48.999Z</time></trkpt><trkpt lat="44.453253726448295" lon="8.988643853634425"><ele>60.0</ele><time>2026-04-18T17:25:49.999Z</time></trkpt><trkpt lat="44.453307048402436" lon="8.988443338157674"><ele>60.0</ele><time>2026-04-18T17:25:50.999Z</time></trkpt><trkpt lat="44.4533642808385" lon="8.988228432870343"><ele>60.0</ele><time>2026-04-18T17:25:51.999Z</time></trkpt><trkpt lat="44.45342352022268" lon="8.98800524418666"><ele>59.66666666666667</ele><time>2026-04-18T17:25:52.999Z</time></trkpt><trkpt lat="44.453481423839264" lon="8.987787382022935"><ele>59.333333333333336</ele><time>2026-04-18T17:25:53.999Z</time></trkpt><trkpt lat="44.453537006318776" lon="8.98758689790314"><ele>59.0</ele><time>2026-04-18T17:25:54.999Z</time></trkpt><trkpt lat="44.453587823205844" lon="8.98739687803218"><ele>63.66666666666667</ele><time>2026-04-18T17:25:55.999Z</time></trkpt><trkpt lat="44.45364003045329" lon="8.987195084580932"><ele>68.33333333333333</ele><time>2026-04-18T17:25:56.999Z</time></trkpt><trkpt lat="44.45369485813324" lon="8.986984268145441"><ele>73.0</ele><time>2026-04-18T17:25:57.999Z</time></trkpt><trkpt lat="44.45374641671747" lon="8.98677458940421"><ele>69.0</ele><time>2026-04-18T17:25:58.999Z</time></trkpt><trkpt lat="44.45378892533346" lon="8.98657501466695"><ele>65.0</ele><time>2026-04-18T17:25:59.999Z</time></trkpt><trkpt lat="44.45382295450784" lon="8.986383802857073"><ele>61.0</ele><time>2026-04-18T17:26:00.999Z</time></trkpt><trkpt lat="44.4538507750623" lon="8.986189153813532"><ele>57.0</ele><time>2026-04-18T17:26:01.999Z</time></trkpt><trkpt lat="44.453875267292915" lon="8.9859852150436"><ele>56.5</ele><time>2026-04-18T17:26:02.999Z</time></trkpt><trkpt lat="44.45389407715544" lon="8.985780293892603"><ele>56.0</ele><time>2026-04-18T17:26:03.999Z</time></trkpt><trkpt lat="44.45390532673713" lon="8.985585302971339"><ele>55.5</ele><time>2026-04-18T17:26:04.999Z</time></trkpt><trkpt lat="44.453912813137606" lon="8.985386102941664"><ele>55.0</ele><time>2026-04-18T17:26:05.999Z</time></trkpt><trkpt lat="44.453913241710424" lon="8.985173483446687"><ele>55.33333333333333</ele><time>2026-04-18T17:26:06.999Z</time></trkpt><trkpt lat="44.45390689441812" lon="8.98495289921599"><ele>55.66666666666667</ele><time>2026-04-18T17:26:07.999Z</time></trkpt><trkpt lat="44.453893958530344" lon="8.9847247079933"><ele>56.0</ele><time>2026-04-18T17:26:08.999Z</time></trkpt><trkpt lat="44.453872650450506" lon="8.984494367160345"><ele>56.0</ele><time>2026-04-18T17:26:09.999Z</time></trkpt><trkpt lat="44.45384261054811" lon="8.984263172398942"><ele>56.0</ele><time>2026-04-18T17:26:10.999Z</time></trkpt><trkpt lat="44.45380743419959" lon="8.984039019994093"><ele>56.0</ele><time>2026-04-18T17:26:11.999Z</time></trkpt><trkpt lat="44.45376840458273" lon="8.983832244988298"><ele>55.66666666666667</ele><time>2026-04-18T17:26:12.999Z</time></trkpt><trkpt lat="44.453724287186205" lon="8.983635919386971"><ele>55.33333333333333</ele><time>2026-04-18T17:26:13.999Z</time></trkpt><trkpt lat="44.453676529242735" lon="8.9834299097021"><ele>55.0</ele><time>2026-04-18T17:26:14.999Z</time></trkpt><trkpt lat="44.453626366440375" lon="8.98322005056539"><ele>55.0</ele><time>2026-04-18T17:26:15.999Z</time></trkpt><trkpt lat="44.45357666474984" lon="8.983007627214345"><ele>55.0</ele><time>2026-04-18T17:26:16.999Z</time></trkpt><trkpt lat="44.45353111473818" lon="8.982811227205053"><ele>55.0</ele><time>2026-04-18T17:26:17.999Z</time></trkpt><trkpt lat="44.453487024850155" lon="8.98262483807626"><ele>55.0</ele><time>2026-04-18T17:26:18.999Z</time></trkpt><trkpt lat="44.453438831590034" lon="8.982435398715511"><ele>54.75</ele><time>2026-04-18T17:26:19.999Z</time></trkpt><trkpt lat="44.453391596575095" lon="8.98224097587526"><ele>54.5</ele><time>2026-04-18T17:26:20.999Z</time></trkpt><trkpt lat="44.453343350543776" lon="8.982042447911113"><ele>54.25</ele><time>2026-04-18T17:26:21.999Z</time></trkpt><trkpt lat="44.45329817384874" lon="8.981851438931692"><ele>54.0</ele><time>2026-04-18T17:26:22.999Z</time></trkpt><trkpt lat="44.45325413939162" lon="8.981668662101498"><ele>53.75</ele><time>2026-04-18T17:26:23.999Z</time></trkpt><trkpt lat="44.45320759481043" lon="8.981481705026072"><ele>53.5</ele><time>2026-04-18T17:26:25Z</time></trkpt><trkpt lat="44.45315725558258" lon="8.981281479443275"><ele>53.25</ele><time>2026-04-18T17:26:26Z</time></trkpt><trkpt lat="44.4531075650228" lon="8.981073640676389"><ele>53.0</ele><time>2026-04-18T17:26:27Z</time></trkpt><trkpt lat="44.4530616235757" lon="8.980879293200346"><ele>53.0</ele><time>2026-04-18T17:26:28Z</time></trkpt><trkpt lat="44.45301589351308" lon="8.980694091598464"><ele>53.0</ele><time>2026-04-18T17:26:29Z</time></trkpt><trkpt lat="44.45296672604577" lon="8.98049900945184"><ele>53.0</ele><time>2026-04-18T17:26:30Z</time></trkpt><trkpt lat="44.4529170502446" lon="8.980295686753518"><ele>53.0</ele><time>2026-04-18T17:26:31Z</time></trkpt><trkpt lat="44.45286613645484" lon="8.980084512420959"><ele>56.5</ele><time>2026-04-18T17:26:32Z</time></trkpt><trkpt lat="44.45281796744082" lon="8.979871759847066"><ele>60.0</ele><time>2026-04-18T17:26:33Z</time></trkpt><trkpt lat="44.452771685062494" lon="8.97967810397585"><ele>63.5</ele><time>2026-04-18T17:26:34Z</time></trkpt><trkpt lat="44.45272558458278" lon="8.979492304345445"><ele>67.0</ele><time>2026-04-18T17:26:35Z</time></trkpt><trkpt lat="44.452677769495004" lon="8.979309747000238"><ele>66.75</ele><time>2026-04-18T17:26:36Z</time></trkpt><trkpt lat="44.45262482766245" lon="8.979119808949331"><ele>66.5</ele><time>2026-04-18T17:26:37Z</time></trkpt><trkpt lat="44.45256224170083" lon="8.978932325362344"><ele>66.25</ele><time>2026-04-18T17:26:38Z</time></trkpt><trkpt lat="44.45250059883909" lon="8.978751562563318"><ele>66.0</ele><time>2026-04-18T17:26:39Z</time></trkpt><trkpt lat="44.45243530746596" lon="8.97855915283572"><ele>66.0</ele><time>2026-04-18T17:26:40Z</time></trkpt><trkpt lat="44.45236955656453" lon="8.978370636567295"><ele>66.0</ele><time>2026-04-18T17:26:41Z</time></trkpt><trkpt lat="44.45229848364599" lon="8.97818801381248"><ele>66.0</ele><time>2026-04-18T17:26:42Z</time></trkpt><trkpt lat="44.452223316644556" lon="8.978004024845017"><ele>66.0</ele><time>2026-04-18T17:26:43Z</time></trkpt><trkpt lat="44.45214181867382" lon="8.977816350401248"><ele>66.0</ele><time>2026-04-18T17:26:44Z</time></trkpt><trkpt lat="44.45205822068985" lon="8.977629442753445"><ele>66.0</ele><time>2026-04-18T17:26:45Z</time></trkpt><trkpt lat="44.451972020732704" lon="8.977438264563405"><ele>66.0</ele><time>2026-04-18T17:26:46Z</time></trkpt><trkpt lat="44.4518812276047" lon="8.977250644363146"><ele>66.0</ele><time>2026-04-18T17:26:47Z</time></trkpt><trkpt lat="44.45178761643691" lon="8.977067241105564"><ele>66.0</ele><time>2026-04-18T17:26:48Z</time></trkpt><trkpt lat="44.45169334657702" lon="8.976886384568955"><ele>66.0</ele><time>2026-04-18T17:26:49Z</time></trkpt><trkpt lat="44.45159618549101" lon="8.976705240979978"><ele>66.0</ele><time>2026-04-18T17:26:50Z</time></trkpt><trkpt lat="44.45149721569017" lon="8.976530148953024"><ele>66.0</ele><time>2026-04-18T17:26:51Z</time></trkpt><trkpt lat="44.45139667602076" lon="8.976356350836905"><ele>66.66666666666667</ele><time>2026-04-18T17:26:52Z</time></trkpt><trkpt lat="44.45129254312691" lon="8.976185037091565"><ele>67.33333333333334</ele><time>2026-04-18T17:26:53Z</time></trkpt><trkpt lat="44.45119288720482" lon="8.976023166089062"><ele>68.0</ele><time>2026-04-18T17:26:54Z</time></trkpt><trkpt lat="44.451092419124286" lon="8.975873048690787"><ele>61.66666666666667</ele><time>2026-04-18T17:26:55Z</time></trkpt><trkpt lat="44.450988436675715" lon="8.975724063238193"><ele>55.33333333333333</ele><time>2026-04-18T17:26:56Z</time></trkpt><trkpt lat="44.450881599773304" lon="8.975571374431901"><ele>49.0</ele><time>2026-04-18T17:26:57Z</time></trkpt><trkpt lat="44.45077457729269" lon="8.97542595758188"><ele>49.0</ele><time>2026-04-18T17:26:58Z</time></trkpt><trkpt lat="44.450668943825285" lon="8.9752833569784"><ele>49.0</ele><time>2026-04-18T17:26:59Z</time></trkpt><trkpt lat="44.450567658287774" lon="8.97515002110457"><ele>49.0</ele><time>2026-04-18T17:27:00Z</time></trkpt><trkpt lat="44.45047024652063" lon="8.97501956901176"><ele>49.0</ele><time>2026-04-18T17:27:01Z</time></trkpt><trkpt lat="44.45037108929297" lon="8.974888614906567"><ele>51.25</ele><time>2026-04-18T17:27:02Z</time></trkpt><trkpt lat="44.4502693247602" lon="8.974757086763882"><ele>53.5</ele><time>2026-04-18T17:27:03Z</time></trkpt><trkpt lat="44.45016827719299" lon="8.974630003324592"><ele>55.75</ele><time>2026-04-18T17:27:04Z</time></trkpt><trkpt lat="44.45007511469588" lon="8.974508839376645"><ele>58.0</ele><time>2026-04-18T17:27:05Z</time></trkpt><trkpt lat="44.44998113550592" lon="8.974389513214735"><ele>58.0</ele><time>2026-04-18T17:27:06Z</time></trkpt><trkpt lat="44.449884827690525" lon="8.97426705194473"><ele>58.0</ele><time>2026-04-18T17:27:07Z</time></trkpt><trkpt lat="44.44979150573257" lon="8.974151211301631"><ele>58.0</ele><time>2026-04-18T17:27:08Z</time></trkpt><trkpt lat="44.4496939505003" lon="8.97402814264194"><ele>58.0</ele><time>2026-04-18T17:27:09Z</time></trkpt><trkpt lat="44.44959187837879" lon="8.973898484180774"><ele>57.5</ele><time>2026-04-18T17:27:10Z</time></trkpt><trkpt lat="44.44949687121136" lon="8.973774628878179"><ele>57.0</ele><time>2026-04-18T17:27:11Z</time></trkpt><trkpt lat="44.44940422879545" lon="8.973657049730374"><ele>56.5</ele><time>2026-04-18T17:27:12Z</time></trkpt><trkpt lat="44.449308015966025" lon="8.973538389971704"><ele>56.0</ele><time>2026-04-18T17:27:13Z</time></trkpt><trkpt lat="44.44920653722933" lon="8.973415794198976"><ele>55.5</ele><time>2026-04-18T17:27:14Z</time></trkpt><trkpt lat="44.449100170328265" lon="8.973288625405766"><ele>55.0</ele><time>2026-04-18T17:27:15Z</time></trkpt><trkpt lat="44.44898851071194" lon="8.973158404811311"><ele>54.5</ele><time>2026-04-18T17:27:16Z</time></trkpt><trkpt lat="44.44888225288458" lon="8.97302431254732"><ele>54.0</ele><time>2026-04-18T17:27:17Z</time></trkpt><trkpt lat="44.448777953895025" lon="8.97290211914894"><ele>54.0</ele><time>2026-04-18T17:27:18Z</time></trkpt><trkpt lat="44.44867215240851" lon="8.972772156815777"><ele>54.0</ele><time>2026-04-18T17:27:19Z</time></trkpt><trkpt lat="44.4485575511991" lon="8.972639795690439"><ele>54.0</ele><time>2026-04-18T17:27:20Z</time></trkpt><trkpt lat="44.44845061493131" lon="8.972512335062316"><ele>54.0</ele><time>2026-04-18T17:27:21Z</time></trkpt><trkpt lat="44.44834928165535" lon="8.97239169268608"><ele>51.75</ele><time>2026-04-18T17:27:22Z</time></trkpt><trkpt lat="44.4482560380541" lon="8.972274585371546"><ele>49.5</ele><time>2026-04-18T17:27:23Z</time></trkpt><trkpt lat="44.44816508080304" lon="8.972157059943985"><ele>47.25</ele><time>2026-04-18T17:27:24Z</time></trkpt><trkpt lat="44.44806744724467" lon="8.972041276312723"><ele>45.0</ele><time>2026-04-18T17:27:25Z</time></trkpt><trkpt lat="44.447966183406336" lon="8.971922137758362"><ele>45.5</ele><time>2026-04-18T17:27:26Z</time></trkpt><trkpt lat="44.447861834400996" lon="8.971797621098244"><ele>46.0</ele><time>2026-04-18T17:27:27Z</time></trkpt><trkpt lat="44.44775243080731" lon="8.971671992222522"><ele>46.5</ele><time>2026-04-18T17:27:28Z</time></trkpt><trkpt lat="44.44764783925972" lon="8.971552037412083"><ele>47.0</ele><time>2026-04-18T17:27:29Z</time></trkpt><trkpt lat="44.447549262839075" lon="8.971431672597372"><ele>47.0</ele><time>2026-04-18T17:27:30Z</time></trkpt><trkpt lat="44.44744613799759" lon="8.971308050371036"><ele>47.0</ele><time>2026-04-18T17:27:31Z</time></trkpt><trkpt lat="44.44734096781699" lon="8.97118051545614"><ele>47.0</ele><time>2026-04-18T17:27:31.999Z</time></trkpt><trkpt lat="44.447242532385765" lon="8.971061560841697"><ele>47.0</ele><time>2026-04-18T17:27:32.999Z</time></trkpt><trkpt lat="44.44714499198718" lon="8.970947170164324"><ele>46.5</ele><time>2026-04-18T17:27:33.999Z</time></trkpt><trkpt lat="44.44704284824801" lon="8.970828459160348"><ele>46.0</ele><time>2026-04-18T17:27:34.999Z</time></trkpt><trkpt lat="44.446940161549044" lon="8.970703716481578"><ele>45.5</ele><time>2026-04-18T17:27:35.999Z</time></trkpt><trkpt lat="44.446841650742094" lon="8.970570881844507"><ele>45.0</ele><time>2026-04-18T17:27:36.999Z</time></trkpt><trkpt lat="44.44673848324827" lon="8.970442009764891"><ele>45.0</ele><time>2026-04-18T17:27:37.999Z</time></trkpt><trkpt lat="44.446633494873986" lon="8.970307802787145"><ele>45.0</ele><time>2026-04-18T17:27:38.999Z</time></trkpt><trkpt lat="44.44652739263839" lon="8.970171405497794"><ele>45.0</ele><time>2026-04-18T17:27:39.999Z</time></trkpt><trkpt lat="44.4464213832722" lon="8.970030703351139"><ele>45.0</ele><time>2026-04-18T17:27:40.999Z</time></trkpt><trkpt lat="44.446322657633175" lon="8.969895971210732"><ele>45.0</ele><time>2026-04-18T17:27:41.999Z</time></trkpt><trkpt lat="44.44621882248574" lon="8.969762151076813"><ele>45.0</ele><time>2026-04-18T17:27:42.999Z</time></trkpt><trkpt lat="44.446114689825336" lon="8.969627060090904"><ele>45.0</ele><time>2026-04-18T17:27:43.999Z</time></trkpt><trkpt lat="44.4460087578703" lon="8.969489354504622"><ele>45.0</ele><time>2026-04-18T17:27:44.999Z</time></trkpt><trkpt lat="44.44589772242037" lon="8.969341576572944"><ele>45.0</ele><time>2026-04-18T17:27:45.999Z</time></trkpt><trkpt lat="44.445791826532094" lon="8.969195540460833"><ele>45.0</ele><time>2026-04-18T17:27:46.999Z</time></trkpt><trkpt lat="44.445689749472365" lon="8.969058169377872"><ele>45.0</ele><time>2026-04-18T17:27:47.999Z</time></trkpt><trkpt lat="44.445581694375136" lon="8.968916130743652"><ele>45.0</ele><time>2026-04-18T17:27:48.999Z</time></trkpt><trkpt lat="44.44548014135911" lon="8.968782433899047"><ele>44.75</ele><time>2026-04-18T17:27:49.999Z</time></trkpt><trkpt lat="44.445381628211436" lon="8.968649985399818"><ele>44.5</ele><time>2026-04-18T17:27:50.999Z</time></trkpt><trkpt lat="44.44527850868253" lon="8.968513356863346"><ele>44.25</ele><time>2026-04-18T17:27:51.999Z</time></trkpt><trkpt lat="44.445171361010196" lon="8.968370244134569"><ele>44.0</ele><time>2026-04-18T17:27:52.999Z</time></trkpt><trkpt lat="44.44507056794702" lon="8.968236644029636"><ele>43.75</ele><time>2026-04-18T17:27:53.999Z</time></trkpt><trkpt lat="44.44497578078287" lon="8.96810850497485"><ele>43.5</ele><time>2026-04-18T17:27:54.999Z</time></trkpt><trkpt lat="44.444876043102546" lon="8.96797685921336"><ele>43.25</ele><time>2026-04-18T17:27:55.999Z</time></trkpt><trkpt lat="44.44477513285032" lon="8.967841571488323"><ele>43.0</ele><time>2026-04-18T17:27:56.999Z</time></trkpt><trkpt lat="44.4446715775164" lon="8.967701021733113"><ele>42.66666666666667</ele><time>2026-04-18T17:27:57.999Z</time></trkpt><trkpt lat="44.444565484683494" lon="8.96755748571921"><ele>42.333333333333336</ele><time>2026-04-18T17:27:58.999Z</time></trkpt><trkpt lat="44.44445664159754" lon="8.967410529801672"><ele>42.0</ele><time>2026-04-18T17:27:59.999Z</time></trkpt><trkpt lat="44.444347864733054" lon="8.967262574833045"><ele>42.0</ele><time>2026-04-18T17:28:00.999Z</time></trkpt><trkpt lat="44.44423964262703" lon="8.967125242918348"><ele>42.0</ele><time>2026-04-18T17:28:01.999Z</time></trkpt><trkpt lat="44.44413847756808" lon="8.967002138906109"><ele>42.0</ele><time>2026-04-18T17:28:02.999Z</time></trkpt><trkpt lat="44.44403747171536" lon="8.966889657980369"><ele>42.0</ele><time>2026-04-18T17:28:03.999Z</time></trkpt><trkpt lat="44.443931054989086" lon="8.96677811324589"><ele>42.0</ele><time>2026-04-18T17:28:04.999Z</time></trkpt><trkpt lat="44.443818979976484" lon="8.966664003214614"><ele>42.0</ele><time>2026-04-18T17:28:05.999Z</time></trkpt><trkpt lat="44.44369989195429" lon="8.966546204263357"><ele>42.0</ele><time>2026-04-18T17:28:06.999Z</time></trkpt><trkpt lat="44.4435819754275" lon="8.966427109849416"><ele>42.0</ele><time>2026-04-18T17:28:07.999Z</time></trkpt><trkpt lat="44.44346729898059" lon="8.9663209120326"><ele>42.0</ele><time>2026-04-18T17:28:08.999Z</time></trkpt><trkpt lat="44.443353100170704" lon="8.966220346191873"><ele>42.0</ele><time>2026-04-18T17:28:09.999Z</time></trkpt><trkpt lat="44.44323566352486" lon="8.966125539792047"><ele>42.0</ele><time>2026-04-18T17:28:10.999Z</time></trkpt><trkpt lat="44.44312603878134" lon="8.966032924249912"><ele>42.0</ele><time>2026-04-18T17:28:11.999Z</time></trkpt><trkpt lat="44.443015487700485" lon="8.965940184826284"><ele>41.75</ele><time>2026-04-18T17:28:12.999Z</time></trkpt><trkpt lat="44.44290411263522" lon="8.965849180569926"><ele>41.5</ele><time>2026-04-18T17:28:13.999Z</time></trkpt><trkpt lat="44.442797550683046" lon="8.965759180193157"><ele>41.25</ele><time>2026-04-18T17:28:14.999Z</time></trkpt><trkpt lat="44.44269882178245" lon="8.965675452583136"><ele>41.0</ele><time>2026-04-18T17:28:15.999Z</time></trkpt><trkpt lat="44.442605080923535" lon="8.965597929110102"><ele>41.0</ele><time>2026-04-18T17:28:16.999Z</time></trkpt><trkpt lat="44.442515757898946" lon="8.96552573673251"><ele>41.0</ele><time>2026-04-18T17:28:17.999Z</time></trkpt><trkpt lat="44.44243138700115" lon="8.96546058644348"><ele>41.0</ele><time>2026-04-18T17:28:18.999Z</time></trkpt><trkpt lat="44.44235073131023" lon="8.96539730333852"><ele>41.0</ele><time>2026-04-18T17:28:19.999Z</time></trkpt><trkpt lat="44.442270633266325" lon="8.965337262055145"><ele>41.0</ele><time>2026-04-18T17:28:20.999Z</time></trkpt><trkpt lat="44.442195183855105" lon="8.965281056220993"><ele>41.0</ele><time>2026-04-18T17:28:21.999Z</time></trkpt><trkpt lat="44.44213262146226" lon="8.965241066748092"><ele>41.0</ele><time>2026-04-18T17:28:22.999Z</time></trkpt><trkpt lat="44.442021948840924" lon="8.965169759606349"><ele>41.0</ele><time>2026-04-18T17:28:24.999Z</time></trkpt><trkpt lat="44.44195580713266" lon="8.965110206297675"><ele>41.0</ele><time>2026-04-18T17:28:25.999Z</time></trkpt><trkpt lat="44.44186557255244" lon="8.965044790124592"><ele>41.0</ele><time>2026-04-18T17:28:26.999Z</time></trkpt><trkpt lat="44.441747754009526" lon="8.964971347888266"><ele>41.0</ele><time>2026-04-18T17:28:27.999Z</time></trkpt><trkpt lat="44.441613704687285" lon="8.964889894178327"><ele>41.0</ele><time>2026-04-18T17:28:28.999Z</time></trkpt><trkpt lat="44.4414889519459" lon="8.964813951979224"><ele>41.0</ele><time>2026-04-18T17:28:29.999Z</time></trkpt><trkpt lat="44.441363027325714" lon="8.964736751454637"><ele>41.0</ele><time>2026-04-18T17:28:31Z</time></trkpt><trkpt lat="44.441232674995945" lon="8.964659818064536"><ele>41.0</ele><time>2026-04-18T17:28:32Z</time></trkpt><trkpt lat="44.441103198327404" lon="8.964587360568046"><ele>41.0</ele><time>2026-04-18T17:28:33Z</time></trkpt><trkpt lat="44.440951863200674" lon="8.96450711911388"><ele>41.0</ele><time>2026-04-18T17:28:34Z</time></trkpt><trkpt lat="44.44081078954485" lon="8.964436121981041"><ele>41.0</ele><time>2026-04-18T17:28:35Z</time></trkpt><trkpt lat="44.44065161189631" lon="8.964362718682965"><ele>41.0</ele><time>2026-04-18T17:28:36Z</time></trkpt><trkpt lat="44.44051847433757" lon="8.964300352115334"><ele>41.0</ele><time>2026-04-18T17:28:37Z</time></trkpt><trkpt lat="44.44040093922985" lon="8.964240530825116"><ele>41.0</ele><time>2026-04-18T17:28:38Z</time></trkpt><trkpt lat="44.440289446972784" lon="8.964185533426258"><ele>40.25</ele><time>2026-04-18T17:28:39Z</time></trkpt><trkpt lat="44.44017864244227" lon="8.96413064472971"><ele>39.5</ele><time>2026-04-18T17:28:40Z</time></trkpt><trkpt lat="44.44006384904502" lon="8.964075391454873"><ele>38.75</ele><time>2026-04-18T17:28:41Z</time></trkpt><trkpt lat="44.43994261885896" lon="8.964025163187834"><ele>38.0</ele><time>2026-04-18T17:28:42Z</time></trkpt><trkpt lat="44.43981242708931" lon="8.963978206011607"><ele>38.0</ele><time>2026-04-18T17:28:43Z</time></trkpt><trkpt lat="44.4396741763703" lon="8.963928495287954"><ele>38.0</ele><time>2026-04-18T17:28:44Z</time></trkpt><trkpt lat="44.439530366307395" lon="8.96387668337566"><ele>38.0</ele><time>2026-04-18T17:28:45Z</time></trkpt><trkpt lat="44.439394897470955" lon="8.963831935351678"><ele>38.0</ele><time>2026-04-18T17:28:46Z</time></trkpt><trkpt lat="44.4392626448151" lon="8.963789848425497"><ele>38.0</ele><time>2026-04-18T17:28:47Z</time></trkpt><trkpt lat="44.43913235677548" lon="8.96374675047621"><ele>38.0</ele><time>2026-04-18T17:28:48Z</time></trkpt><trkpt lat="44.439007751211875" lon="8.963709604669955"><ele>38.0</ele><time>2026-04-18T17:28:49Z</time></trkpt><trkpt lat="44.438884190056704" lon="8.963673389610104"><ele>38.0</ele><time>2026-04-18T17:28:50Z</time></trkpt><trkpt lat="44.438755767716216" lon="8.963637108292733"><ele>38.0</ele><time>2026-04-18T17:28:51Z</time></trkpt><trkpt lat="44.43862796503198" lon="8.96360053166081"><ele>38.0</ele><time>2026-04-18T17:28:52Z</time></trkpt><trkpt lat="44.43849703291359" lon="8.96356616815148"><ele>38.0</ele><time>2026-04-18T17:28:53Z</time></trkpt><trkpt lat="44.438364886689556" lon="8.963533851571132"><ele>38.0</ele><time>2026-04-18T17:28:54Z</time></trkpt><trkpt lat="44.438229125423206" lon="8.963504126528285"><ele>38.0</ele><time>2026-04-18T17:28:55Z</time></trkpt><trkpt lat="44.43808574093354" lon="8.963471045037076"><ele>38.0</ele><time>2026-04-18T17:28:56Z</time></trkpt><trkpt lat="44.43793238837138" lon="8.963441064625831"><ele>38.0</ele><time>2026-04-18T17:28:57Z</time></trkpt><trkpt lat="44.43777430455036" lon="8.963408164998688"><ele>38.0</ele><time>2026-04-18T17:28:58Z</time></trkpt><trkpt lat="44.437618305530854" lon="8.963377733903199"><ele>38.0</ele><time>2026-04-18T17:28:59Z</time></trkpt><trkpt lat="44.437472703630256" lon="8.963347282057263"><ele>38.0</ele><time>2026-04-18T17:29:00Z</time></trkpt><trkpt lat="44.43733073700605" lon="8.963317648043887"><ele>38.0</ele><time>2026-04-18T17:29:01Z</time></trkpt><trkpt lat="44.43719188028026" lon="8.963290929436013"><ele>37.25</ele><time>2026-04-18T17:29:02Z</time></trkpt><trkpt lat="44.437059167406076" lon="8.963263814771675"><ele>36.5</ele><time>2026-04-18T17:29:03Z</time></trkpt><trkpt lat="44.43693636937483" lon="8.963243608022625"><ele>35.75</ele><time>2026-04-18T17:29:04Z</time></trkpt><trkpt lat="44.4368192761463" lon="8.963219400091997"><ele>35.0</ele><time>2026-04-18T17:29:05Z</time></trkpt><trkpt lat="44.436708035495045" lon="8.963199198137847"><ele>35.0</ele><time>2026-04-18T17:29:06Z</time></trkpt><trkpt lat="44.43659861161533" lon="8.96317798608756"><ele>35.0</ele><time>2026-04-18T17:29:07Z</time></trkpt><trkpt lat="44.4364940467818" lon="8.963162275912419"><ele>35.0</ele><time>2026-04-18T17:29:08Z</time></trkpt><trkpt lat="44.43639426395614" lon="8.96314705355703"><ele>35.0</ele><time>2026-04-18T17:29:09Z</time></trkpt><trkpt lat="44.43630052976205" lon="8.9631341420542"><ele>35.0</ele><time>2026-04-18T17:29:10Z</time></trkpt><trkpt lat="44.4362106506845" lon="8.963121563839806"><ele>34.6</ele><time>2026-04-18T17:29:11Z</time></trkpt><trkpt lat="44.43611880974756" lon="8.963108525432284"><ele>34.2</ele><time>2026-04-18T17:29:12Z</time></trkpt><trkpt lat="44.43603142228742" lon="8.963098865758804"><ele>33.8</ele><time>2026-04-18T17:29:13Z</time></trkpt><trkpt lat="44.43594174642422" lon="8.96308119813575"><ele>33.4</ele><time>2026-04-18T17:29:14Z</time></trkpt><trkpt lat="44.43584237714436" lon="8.96303231743252"><ele>33.0</ele><time>2026-04-18T17:29:15Z</time></trkpt><trkpt lat="44.43573280116136" lon="8.962988907437829"><ele>33.0</ele><time>2026-04-18T17:29:16Z</time></trkpt><trkpt lat="44.43563246991286" lon="8.962945520089976"><ele>33.0</ele><time>2026-04-18T17:29:17Z</time></trkpt><trkpt lat="44.435542976677006" lon="8.962910232169904"><ele>33.0</ele><time>2026-04-18T17:29:18Z</time></trkpt><trkpt lat="44.43547490330462" lon="8.96288028319668"><ele>33.0</ele><time>2026-04-18T17:29:19Z</time></trkpt><trkpt lat="44.43539361084195" lon="8.962844956591885"><ele>33.0</ele><time>2026-04-18T17:29:21Z</time></trkpt><trkpt lat="44.4352997360708" lon="8.9628058435102"><ele>34.0</ele><time>2026-04-18T17:29:48.999Z</time></trkpt><trkpt lat="44.435227243761204" lon="8.9627716713935"><ele>35.0</ele><time>2026-04-18T17:29:49.999Z</time></trkpt><trkpt lat="44.43513646911857" lon="8.962732728056508"><ele>36.0</ele><time>2026-04-18T17:29:50.999Z</time></trkpt><trkpt lat="44.435049581875354" lon="8.962689345057923"><ele>37.0</ele><time>2026-04-18T17:29:51.999Z</time></trkpt><trkpt lat="44.434944136359505" lon="8.962640349530458"><ele>38.0</ele><time>2026-04-18T17:29:52.999Z</time></trkpt><trkpt lat="44.434830867895144" lon="8.962578878349401"><ele>36.25</ele><time>2026-04-18T17:29:53.999Z</time></trkpt><trkpt lat="44.43472734726925" lon="8.96252114130504"><ele>34.5</ele><time>2026-04-18T17:29:54.999Z</time></trkpt><trkpt lat="44.434611882236766" lon="8.962449032688552"><ele>32.75</ele><time>2026-04-18T17:29:55.999Z</time></trkpt><trkpt lat="44.43448614758081" lon="8.962369604602522"><ele>31.0</ele><time>2026-04-18T17:29:56.999Z</time></trkpt><trkpt lat="44.43438232587318" lon="8.962301420791654"><ele>31.000000000000004</ele><time>2026-04-18T17:29:57.999Z</time></trkpt><trkpt lat="44.43429214706177" lon="8.962246108736403"><ele>31.0</ele><time>2026-04-18T17:29:58.999Z</time></trkpt><trkpt lat="44.43420890212922" lon="8.962189432968819"><ele>31.0</ele><time>2026-04-18T17:29:59.999Z</time></trkpt><trkpt lat="44.43413231577268" lon="8.962135569314892"><ele>31.0</ele><time>2026-04-18T17:30:00.999Z</time></trkpt><trkpt lat="44.434057180115865" lon="8.962081097948587"><ele>31.000000000000004</ele><time>2026-04-18T17:30:01.999Z</time></trkpt><trkpt lat="44.433988681726696" lon="8.962027982644484"><ele>31.0</ele><time>2026-04-18T17:30:02.999Z</time></trkpt><trkpt lat="44.4339254388141" lon="8.961978989424376"><ele>31.000000000000004</ele><time>2026-04-18T17:30:03.999Z</time></trkpt><trkpt lat="44.43387128908981" lon="8.96193395546811"><ele>31.0</ele><time>2026-04-18T17:30:04.999Z</time></trkpt><trkpt lat="44.43379330450385" lon="8.961863221671193"><ele>31.0</ele><time>2026-04-18T17:30:06.999Z</time></trkpt><trkpt lat="44.43373258276349" lon="8.96182060989303"><ele>31.0</ele><time>2026-04-18T17:30:09.999Z</time></trkpt><trkpt lat="44.43364253910342" lon="8.961762402979653"><ele>31.000000000000004</ele><time>2026-04-18T17:30:18.999Z</time></trkpt><trkpt lat="44.43356092036438" lon="8.961691384249315"><ele>31.0</ele><time>2026-04-18T17:30:19.999Z</time></trkpt><trkpt lat="44.43347566466805" lon="8.961609078822901"><ele>31.0</ele><time>2026-04-18T17:30:20.999Z</time></trkpt><trkpt lat="44.433381197670954" lon="8.961516019121373"><ele>31.0</ele><time>2026-04-18T17:30:21.999Z</time></trkpt><trkpt lat="44.433273970918435" lon="8.9614136268137"><ele>31.0</ele><time>2026-04-18T17:30:22.999Z</time></trkpt><trkpt lat="44.43316693027002" lon="8.961308423174206"><ele>31.0</ele><time>2026-04-18T17:30:23.999Z</time></trkpt><trkpt lat="44.43306213312262" lon="8.961202860763004"><ele>31.5</ele><time>2026-04-18T17:30:24.999Z</time></trkpt><trkpt lat="44.43295271029548" lon="8.961086491720362"><ele>32.0</ele><time>2026-04-18T17:30:25.999Z</time></trkpt><trkpt lat="44.43284192026126" lon="8.960963652501519"><ele>32.5</ele><time>2026-04-18T17:30:26.999Z</time></trkpt><trkpt lat="44.43272681693691" lon="8.960829763480127"><ele>33.0</ele><time>2026-04-18T17:30:27.999Z</time></trkpt><trkpt lat="44.43261298463391" lon="8.960704611823429"><ele>33.0</ele><time>2026-04-18T17:30:28.999Z</time></trkpt><trkpt lat="44.43250327233127" lon="8.960581292833233"><ele>33.0</ele><time>2026-04-18T17:30:29.999Z</time></trkpt><trkpt lat="44.432405073123974" lon="8.960460646846002"><ele>33.0</ele><time>2026-04-18T17:30:30.999Z</time></trkpt><trkpt lat="44.43229289773467" lon="8.96033060122735"><ele>33.0</ele><time>2026-04-18T17:30:31.999Z</time></trkpt><trkpt lat="44.43216026937416" lon="8.960178357848442"><ele>32.5</ele><time>2026-04-18T17:30:32.999Z</time></trkpt><trkpt lat="44.43203983071105" lon="8.960039534942997"><ele>32.0</ele><time>2026-04-18T17:30:33.999Z</time></trkpt><trkpt lat="44.4319260867" lon="8.959907103006133"><ele>31.5</ele><time>2026-04-18T17:30:34.999Z</time></trkpt><trkpt lat="44.43181455990243" lon="8.959777171341951"><ele>31.0</ele><time>2026-04-18T17:30:35.999Z</time></trkpt><trkpt lat="44.43169024020702" lon="8.959628454097647"><ele>31.0</ele><time>2026-04-18T17:30:37Z</time></trkpt><trkpt lat="44.4315798025016" lon="8.959501160880565"><ele>31.0</ele><time>2026-04-18T17:30:38Z</time></trkpt><trkpt lat="44.43147413486702" lon="8.959387187815082"><ele>31.0</ele><time>2026-04-18T17:30:39Z</time></trkpt><trkpt lat="44.431378299758116" lon="8.959277663358305"><ele>31.0</ele><time>2026-04-18T17:30:40Z</time></trkpt><trkpt lat="44.43127355987315" lon="8.959166946468418"><ele>31.333333333333336</ele><time>2026-04-18T17:30:41Z</time></trkpt><trkpt lat="44.43116122764861" lon="8.959041701499597"><ele>31.666666666666664</ele><time>2026-04-18T17:30:42Z</time></trkpt><trkpt lat="44.431043479644316" lon="8.958908574398992"><ele>32.0</ele><time>2026-04-18T17:30:43Z</time></trkpt><trkpt lat="44.43091820875821" lon="8.958770675507502"><ele>32.0</ele><time>2026-04-18T17:30:44Z</time></trkpt><trkpt lat="44.430797801405305" lon="8.958633018545525"><ele>32.0</ele><time>2026-04-18T17:30:45Z</time></trkpt><trkpt lat="44.430684594047456" lon="8.95850166922223"><ele>32.0</ele><time>2026-04-18T17:30:46Z</time></trkpt><trkpt lat="44.43055835422231" lon="8.958353985353435"><ele>30.666666666666664</ele><time>2026-04-18T17:30:47Z</time></trkpt><trkpt lat="44.4304152195256" lon="8.958195344095003"><ele>29.333333333333336</ele><time>2026-04-18T17:30:48Z</time></trkpt><trkpt lat="44.4302740311232" lon="8.958032599199946"><ele>28.0</ele><time>2026-04-18T17:30:49Z</time></trkpt><trkpt lat="44.43015323165187" lon="8.957884362891894"><ele>28.0</ele><time>2026-04-18T17:30:50Z</time></trkpt><trkpt lat="44.43003134553712" lon="8.957740444500752"><ele>28.0</ele><time>2026-04-18T17:30:51Z</time></trkpt><trkpt lat="44.429928958517074" lon="8.957615923729497"><ele>28.0</ele><time>2026-04-18T17:30:52Z</time></trkpt><trkpt lat="44.42977177827938" lon="8.957440094349424"><ele>27.5</ele><time>2026-04-18T17:30:54Z</time></trkpt><trkpt lat="44.429662789576334" lon="8.957306763850337"><ele>27.0</ele><time>2026-04-18T17:30:55Z</time></trkpt><trkpt lat="44.42955957758679" lon="8.957177793288135"><ele>26.5</ele><time>2026-04-18T17:30:56Z</time></trkpt><trkpt lat="44.429458005774514" lon="8.957046856729358"><ele>26.0</ele><time>2026-04-18T17:30:57Z</time></trkpt><trkpt lat="44.429371440497064" lon="8.956925942676591"><ele>26.25</ele><time>2026-04-18T17:30:58Z</time></trkpt><trkpt lat="44.42929051550066" lon="8.956814613101718"><ele>26.5</ele><time>2026-04-18T17:30:59Z</time></trkpt><trkpt lat="44.429212858257216" lon="8.956691010588342"><ele>26.75</ele><time>2026-04-18T17:31:00Z</time></trkpt><trkpt lat="44.429129400802374" lon="8.956554932289654"><ele>27.0</ele><time>2026-04-18T17:31:01Z</time></trkpt><trkpt lat="44.42903809165565" lon="8.956411162883109"><ele>27.0</ele><time>2026-04-18T17:31:02Z</time></trkpt><trkpt lat="44.42894537496728" lon="8.956255372470688"><ele>27.0</ele><time>2026-04-18T17:31:03Z</time></trkpt><trkpt lat="44.42886061679413" lon="8.956104926429376"><ele>27.0</ele><time>2026-04-18T17:31:04Z</time></trkpt><trkpt lat="44.42877620088009" lon="8.955947892039857"><ele>27.0</ele><time>2026-04-18T17:31:05Z</time></trkpt><trkpt lat="44.42868831956485" lon="8.955778048901255"><ele>30.333333333333336</ele><time>2026-04-18T17:31:06Z</time></trkpt><trkpt lat="44.42860065917727" lon="8.955596035992164"><ele>33.66666666666667</ele><time>2026-04-18T17:31:07Z</time></trkpt><trkpt lat="44.428516599513884" lon="8.95541465896651"><ele>37.0</ele><time>2026-04-18T17:31:08Z</time></trkpt><trkpt lat="44.42844218967795" lon="8.955245343039543"><ele>37.0</ele><time>2026-04-18T17:31:09Z</time></trkpt><trkpt lat="44.428368815431064" lon="8.955072250100056"><ele>37.0</ele><time>2026-04-18T17:31:10Z</time></trkpt><trkpt lat="44.428296121238276" lon="8.954894159169978"><ele>37.0</ele><time>2026-04-18T17:31:11Z</time></trkpt><trkpt lat="44.42824427436494" lon="8.954705629969263"><ele>37.0</ele><time>2026-04-18T17:31:12Z</time></trkpt><trkpt lat="44.42816819020052" lon="8.95454498580668"><ele>35.0</ele><time>2026-04-18T17:31:13Z</time></trkpt><trkpt lat="44.42810814518042" lon="8.954366663892566"><ele>33.0</ele><time>2026-04-18T17:31:14Z</time></trkpt><trkpt lat="44.428046540175465" lon="8.954170743127747"><ele>31.0</ele><time>2026-04-18T17:31:15Z</time></trkpt><trkpt lat="44.42798878539712" lon="8.953965722752665"><ele>36.75</ele><time>2026-04-18T17:31:16Z</time></trkpt><trkpt lat="44.42796193742311" lon="8.953764832326266"><ele>42.5</ele><time>2026-04-18T17:31:17Z</time></trkpt><trkpt lat="44.427917209527116" lon="8.953574461034979"><ele>48.25</ele><time>2026-04-18T17:31:18Z</time></trkpt><trkpt lat="44.427872915152534" lon="8.953373308084261"><ele>54.0</ele><time>2026-04-18T17:31:19Z</time></trkpt><trkpt lat="44.427827616176984" lon="8.953167592007429"><ele>54.0</ele><time>2026-04-18T17:31:20Z</time></trkpt><trkpt lat="44.427787362265676" lon="8.952976373068182"><ele>54.0</ele><time>2026-04-18T17:31:21Z</time></trkpt><trkpt lat="44.42775107010389" lon="8.952805568829843"><ele>54.0</ele><time>2026-04-18T17:31:22Z</time></trkpt><trkpt lat="44.427718859232165" lon="8.952653172847166"><ele>54.0</ele><time>2026-04-18T17:31:23Z</time></trkpt><trkpt lat="44.427675388683795" lon="8.952524629752128"><ele>51.833333333333336</ele><time>2026-04-18T17:31:24Z</time></trkpt><trkpt lat="44.42765509814083" lon="8.952399044755463"><ele>49.666666666666664</ele><time>2026-04-18T17:31:25Z</time></trkpt><trkpt lat="44.427626732387104" lon="8.952271078567886"><ele>47.5</ele><time>2026-04-18T17:31:26Z</time></trkpt><trkpt lat="44.42760936680369" lon="8.95215253581226"><ele>45.33333333333333</ele><time>2026-04-18T17:31:27Z</time></trkpt><trkpt lat="44.42758146662893" lon="8.95205346748573"><ele>43.166666666666664</ele><time>2026-04-18T17:31:28Z</time></trkpt><trkpt lat="44.42756735125482" lon="8.95196235012348"><ele>41.0</ele><time>2026-04-18T17:31:29Z</time></trkpt><trkpt lat="44.42753029469598" lon="8.951790753245874"><ele>38.83333333333333</ele><time>2026-04-18T17:31:31Z</time></trkpt><trkpt lat="44.42751350065701" lon="8.951696228071203"><ele>36.666666666666664</ele><time>2026-04-18T17:31:32Z</time></trkpt><trkpt lat="44.42749186896599" lon="8.95159468366291"><ele>34.5</ele><time>2026-04-18T17:31:33Z</time></trkpt><trkpt lat="44.427468501079275" lon="8.951477658128255"><ele>32.333333333333336</ele><time>2026-04-18T17:31:34Z</time></trkpt><trkpt lat="44.42744317941919" lon="8.951344379160892"><ele>30.166666666666668</ele><time>2026-04-18T17:31:35Z</time></trkpt><trkpt lat="44.42741576355493" lon="8.951218565520708"><ele>28.0</ele><time>2026-04-18T17:31:36Z</time></trkpt><trkpt lat="44.42738719659427" lon="8.951087158513396"><ele>28.0</ele><time>2026-04-18T17:31:37Z</time></trkpt><trkpt lat="44.427351250156875" lon="8.950947875536043"><ele>27.999999999999996</ele><time>2026-04-18T17:31:38Z</time></trkpt><trkpt lat="44.42731774801235" lon="8.950814241808839"><ele>27.999999999999996</ele><time>2026-04-18T17:31:39Z</time></trkpt><trkpt lat="44.42728018655475" lon="8.950673443154301"><ele>28.0</ele><time>2026-04-18T17:31:40Z</time></trkpt><trkpt lat="44.42723211279064" lon="8.95053063146093"><ele>28.0</ele><time>2026-04-18T17:31:41Z</time></trkpt><trkpt lat="44.4271793062422" lon="8.950381246432881"><ele>29.0</ele><time>2026-04-18T17:31:42Z</time></trkpt><trkpt lat="44.427118203861596" lon="8.95021998700316"><ele>30.0</ele><time>2026-04-18T17:31:43Z</time></trkpt><trkpt lat="44.427047960778" lon="8.950057572422692"><ele>31.0</ele><time>2026-04-18T17:31:44Z</time></trkpt><trkpt lat="44.42697500850778" lon="8.949917070838817"><ele>32.0</ele><time>2026-04-18T17:31:44.999Z</time></trkpt><trkpt lat="44.42691354538997" lon="8.949763831923482"><ele>32.0</ele><time>2026-04-18T17:31:45.999Z</time></trkpt><trkpt lat="44.426819885422994" lon="8.949652721799467"><ele>32.0</ele><time>2026-04-18T17:31:46.999Z</time></trkpt><trkpt lat="44.42673761699348" lon="8.949534987906967"><ele>32.0</ele><time>2026-04-18T17:31:47.999Z</time></trkpt><trkpt lat="44.426659482691335" lon="8.949431002433547"><ele>32.0</ele><time>2026-04-18T17:31:48.999Z</time></trkpt><trkpt lat="44.42658196257267" lon="8.949328309256403"><ele>32.0</ele><time>2026-04-18T17:31:49.999Z</time></trkpt><trkpt lat="44.42650121513556" lon="8.949228070092811"><ele>32.0</ele><time>2026-04-18T17:31:50.999Z</time></trkpt><trkpt lat="44.42640992198732" lon="8.949124968710917"><ele>32.0</ele><time>2026-04-18T17:31:51.999Z</time></trkpt><trkpt lat="44.426302125344435" lon="8.949015106006463"><ele>32.0</ele><time>2026-04-18T17:31:52.999Z</time></trkpt><trkpt lat="44.42618327350139" lon="8.94890734207597"><ele>30.333333333333332</ele><time>2026-04-18T17:31:53.999Z</time></trkpt><trkpt lat="44.42605474123999" lon="8.948808229530766"><ele>28.666666666666664</ele><time>2026-04-18T17:31:54.999Z</time></trkpt><trkpt lat="44.425915648924324" lon="8.948715168051537"><ele>27.0</ele><time>2026-04-18T17:31:55.999Z</time></trkpt><trkpt lat="44.425765699804145" lon="8.948628052965665"><ele>27.0</ele><time>2026-04-18T17:31:56.999Z</time></trkpt><trkpt lat="44.425616358995065" lon="8.94855218729159"><ele>27.0</ele><time>2026-04-18T17:31:57.999Z</time></trkpt><trkpt lat="44.425454619003716" lon="8.948476568110177"><ele>27.0</ele><time>2026-04-18T17:31:59.013Z</time></trkpt><trkpt lat="44.42529005423948" lon="8.948407614059695"><ele>27.666666666666664</ele><time>2026-04-18T17:32:00.013Z</time></trkpt><trkpt lat="44.42511658258374" lon="8.94839348734916"><ele>28.333333333333332</ele><time>2026-04-18T17:32:01.015Z</time></trkpt><trkpt lat="44.424943809930824" lon="8.948371280613594"><ele>29.0</ele><time>2026-04-18T17:32:02.014Z</time></trkpt><trkpt lat="44.42476992726011" lon="8.948347459851734"><ele>27.5</ele><time>2026-04-18T17:32:02.999Z</time></trkpt><trkpt lat="44.42462096366737" lon="8.94835030252093"><ele>26.0</ele><time>2026-04-18T17:32:04.999Z</time></trkpt><trkpt lat="44.424481650507026" lon="8.94833090524991"><ele>24.5</ele><time>2026-04-18T17:32:05.999Z</time></trkpt><trkpt lat="44.42436352917348" lon="8.948312971900156"><ele>23.0</ele><time>2026-04-18T17:32:06.999Z</time></trkpt><trkpt lat="44.42427519243837" lon="8.948308849368457"><ele>23.0</ele><time>2026-04-18T17:32:07.999Z</time></trkpt><trkpt lat="44.42419363338588" lon="8.94829932070258"><ele>23.0</ele><time>2026-04-18T17:32:08.999Z</time></trkpt><trkpt lat="44.424116820126" lon="8.948278823467106"><ele>23.0</ele><time>2026-04-18T17:32:09.999Z</time></trkpt><trkpt lat="44.42399566073348" lon="8.948272420653266"><ele>23.0</ele><time>2026-04-18T17:32:11.999Z</time></trkpt><trkpt lat="44.42390494873543" lon="8.948255928586606"><ele>23.0</ele><time>2026-04-18T17:32:13.999Z</time></trkpt><trkpt lat="44.4238260391016" lon="8.948258936260702"><ele>23.0</ele><time>2026-04-18T17:32:18.999Z</time></trkpt><trkpt lat="44.42368728549225" lon="8.948232389799486"><ele>23.0</ele><time>2026-04-18T17:32:20.999Z</time></trkpt><trkpt lat="44.42359970018532" lon="8.948220082045085"><ele>23.0</ele><time>2026-04-18T17:32:21.999Z</time></trkpt><trkpt lat="44.42352501306578" lon="8.948212805123845"><ele>23.0</ele><time>2026-04-18T17:32:22.999Z</time></trkpt><trkpt lat="44.423461028330266" lon="8.948183269479621"><ele>23.0</ele><time>2026-04-18T17:32:23.999Z</time></trkpt><trkpt lat="44.423335613063955" lon="8.948165056544665"><ele>23.0</ele><time>2026-04-18T17:32:25.999Z</time></trkpt><trkpt lat="44.42322610735564" lon="8.948149154010151"><ele>23.0</ele><time>2026-04-18T17:32:27.999Z</time></trkpt><trkpt lat="44.42313890050057" lon="8.948136489719962"><ele>23.0</ele><time>2026-04-18T17:32:29.999Z</time></trkpt><trkpt lat="44.423070670008606" lon="8.948126581217902"><ele>23.0</ele><time>2026-04-18T17:32:32.999Z</time></trkpt><trkpt lat="44.4229745892815" lon="8.948112628252407"><ele>23.0</ele><time>2026-04-18T17:32:45Z</time></trkpt><trkpt lat="44.42285944074103" lon="8.948104164931298"><ele>23.5</ele><time>2026-04-18T17:32:47Z</time></trkpt><trkpt lat="44.42279237359526" lon="8.948090251246546"><ele>24.0</ele><time>2026-04-18T17:32:48Z</time></trkpt><trkpt lat="44.42272319980301" lon="8.948075434946416"><ele>24.5</ele><time>2026-04-18T17:32:49Z</time></trkpt><trkpt lat="44.42264803224395" lon="8.948079337300948"><ele>25.0</ele><time>2026-04-18T17:32:50Z</time></trkpt><trkpt lat="44.4225650918524" lon="8.948075988560097"><ele>25.499999999999996</ele><time>2026-04-18T17:32:51Z</time></trkpt><trkpt lat="44.422479319643315" lon="8.948048231628842"><ele>26.0</ele><time>2026-04-18T17:32:52Z</time></trkpt><trkpt lat="44.422385481752116" lon="8.9480516268134"><ele>26.0</ele><time>2026-04-18T17:32:53Z</time></trkpt><trkpt lat="44.422300232584014" lon="8.948096416645281"><ele>26.0</ele><time>2026-04-18T17:32:54Z</time></trkpt><trkpt lat="44.42220990772418" lon="8.948109284365753"><ele>26.0</ele><time>2026-04-18T17:32:55Z</time></trkpt><trkpt lat="44.42213540070031" lon="8.948197447617915"><ele>26.0</ele><time>2026-04-18T17:32:56Z</time></trkpt><trkpt lat="44.42204798517624" lon="8.948262310064218"><ele>26.0</ele><time>2026-04-18T17:32:57Z</time></trkpt><trkpt lat="44.42196977390175" lon="8.948326599511057"><ele>29.25</ele><time>2026-04-18T17:32:58Z</time></trkpt><trkpt lat="44.421875501616235" lon="8.94841477685384"><ele>32.5</ele><time>2026-04-18T17:32:59Z</time></trkpt><trkpt lat="44.42175667048869" lon="8.94851683616501"><ele>35.75</ele><time>2026-04-18T17:33:00Z</time></trkpt><trkpt lat="44.421640174409596" lon="8.948611829620138"><ele>39.0</ele><time>2026-04-18T17:33:01Z</time></trkpt><trkpt lat="44.42152206135147" lon="8.948706762299572"><ele>39.0</ele><time>2026-04-18T17:33:02Z</time></trkpt><trkpt lat="44.421397056922416" lon="8.948816633831571"><ele>39.0</ele><time>2026-04-18T17:33:03Z</time></trkpt><trkpt lat="44.42128465043432" lon="8.948920308999769"><ele>39.0</ele><time>2026-04-18T17:33:04Z</time></trkpt><trkpt lat="44.421189981503616" lon="8.949018168781985"><ele>39.0</ele><time>2026-04-18T17:33:05Z</time></trkpt><trkpt lat="44.42109237158806" lon="8.949105558773745"><ele>39.6</ele><time>2026-04-18T17:33:06Z</time></trkpt><trkpt lat="44.42099256504688" lon="8.949187059594683"><ele>40.2</ele><time>2026-04-18T17:33:07Z</time></trkpt><trkpt lat="44.420893625260874" lon="8.949265649662884"><ele>40.800000000000004</ele><time>2026-04-18T17:33:08Z</time></trkpt><trkpt lat="44.42079783202892" lon="8.949343549428042"><ele>41.4</ele><time>2026-04-18T17:33:09Z</time></trkpt><trkpt lat="44.42071649055641" lon="8.949418431707775"><ele>42.0</ele><time>2026-04-18T17:33:10Z</time></trkpt><trkpt lat="44.42063645200747" lon="8.949487299662701"><ele>42.0</ele><time>2026-04-18T17:33:11Z</time></trkpt><trkpt lat="44.42056180110315" lon="8.949558951489823"><ele>42.0</ele><time>2026-04-18T17:33:12Z</time></trkpt><trkpt lat="44.42049077365316" lon="8.949607388171447"><ele>42.0</ele><time>2026-04-18T17:33:13Z</time></trkpt><trkpt lat="44.420391572795076" lon="8.949695927612037"><ele>42.0</ele><time>2026-04-18T17:33:15Z</time></trkpt><trkpt lat="44.42032656784539" lon="8.949745801320525"><ele>42.0</ele><time>2026-04-18T17:33:17Z</time></trkpt><trkpt lat="44.420253904187106" lon="8.949814707648093"><ele>42.0</ele><time>2026-04-18T17:33:20Z</time></trkpt><trkpt lat="44.420184222562796" lon="8.949885717672108"><ele>39.833333333333336</ele><time>2026-04-18T17:33:22Z</time></trkpt><trkpt lat="44.42009620109191" lon="8.950010173613197"><ele>37.666666666666664</ele><time>2026-04-18T17:33:24Z</time></trkpt><trkpt lat="44.42004733573637" lon="8.950084707925395"><ele>35.5</ele><time>2026-04-18T17:33:25Z</time></trkpt><trkpt lat="44.42000132314891" lon="8.950157602439685"><ele>33.33333333333333</ele><time>2026-04-18T17:33:26Z</time></trkpt><trkpt lat="44.41994569639262" lon="8.950219919942842"><ele>31.166666666666664</ele><time>2026-04-18T17:33:27Z</time></trkpt><trkpt lat="44.419879109250125" lon="8.9502950341406"><ele>29.0</ele><time>2026-04-18T17:33:28Z</time></trkpt><trkpt lat="44.41981380227697" lon="8.950380043090586"><ele>29.0</ele><time>2026-04-18T17:33:29Z</time></trkpt><trkpt lat="44.4197390460551" lon="8.95047717026342"><ele>29.0</ele><time>2026-04-18T17:33:30Z</time></trkpt><trkpt lat="44.41965498024038" lon="8.95058637645028"><ele>29.0</ele><time>2026-04-18T17:33:31Z</time></trkpt><trkpt lat="44.419571939815874" lon="8.95069448123546"><ele>29.0</ele><time>2026-04-18T17:33:32Z</time></trkpt><trkpt lat="44.41948561504427" lon="8.950806515890763"><ele>29.0</ele><time>2026-04-18T17:33:33Z</time></trkpt><trkpt lat="44.4193981358405" lon="8.950920033777807"><ele>28.799999999999997</ele><time>2026-04-18T17:33:34Z</time></trkpt><trkpt lat="44.41931698582555" lon="8.951024664584867"><ele>28.599999999999998</ele><time>2026-04-18T17:33:35Z</time></trkpt><trkpt lat="44.41924344634334" lon="8.95111915677306"><ele>28.4</ele><time>2026-04-18T17:33:36Z</time></trkpt><trkpt lat="44.41917400221755" lon="8.951204580931652"><ele>28.2</ele><time>2026-04-18T17:33:37Z</time></trkpt><trkpt lat="44.41911383305903" lon="8.951286515291093"><ele>28.0</ele><time>2026-04-18T17:33:38Z</time></trkpt><trkpt lat="44.41906084021418" lon="8.951357424070867"><ele>28.000000000000004</ele><time>2026-04-18T17:33:39Z</time></trkpt><trkpt lat="44.41901280965475" lon="8.951422126707048"><ele>28.0</ele><time>2026-04-18T17:33:40Z</time></trkpt><trkpt lat="44.41896003675384" lon="8.951478587633119"><ele>28.0</ele><time>2026-04-18T17:33:41Z</time></trkpt><trkpt lat="44.418903891009585" lon="8.951539881796764"><ele>28.0</ele><time>2026-04-18T17:33:42Z</time></trkpt><trkpt lat="44.418841407373534" lon="8.951619576915837"><ele>28.000000000000004</ele><time>2026-04-18T17:33:43Z</time></trkpt><trkpt lat="44.41877016277845" lon="8.951709363370039"><ele>28.0</ele><time>2026-04-18T17:33:44Z</time></trkpt><trkpt lat="44.41869432005627" lon="8.951808039533807"><ele>27.5</ele><time>2026-04-18T17:33:45Z</time></trkpt><trkpt lat="44.41861025890716" lon="8.951914138124637"><ele>27.0</ele><time>2026-04-18T17:33:46Z</time></trkpt><trkpt lat="44.418520274178405" lon="8.952029003038701"><ele>26.5</ele><time>2026-04-18T17:33:47Z</time></trkpt><trkpt lat="44.41843074277037" lon="8.952142338824252"><ele>26.0</ele><time>2026-04-18T17:33:48Z</time></trkpt><trkpt lat="44.41835379299094" lon="8.952237711330115"><ele>26.0</ele><time>2026-04-18T17:33:49Z</time></trkpt><trkpt lat="44.41828045070102" lon="8.952338240341735"><ele>26.0</ele><time>2026-04-18T17:33:50Z</time></trkpt><trkpt lat="44.41819851734562" lon="8.952441667362832"><ele>26.0</ele><time>2026-04-18T17:33:51Z</time></trkpt><trkpt lat="44.41811599637851" lon="8.952547906487329"><ele>26.0</ele><time>2026-04-18T17:33:52Z</time></trkpt><trkpt lat="44.41804232352647" lon="8.952648949104537"><ele>26.0</ele><time>2026-04-18T17:33:53Z</time></trkpt><trkpt lat="44.417965289136966" lon="8.952748230963527"><ele>25.200000000000003</ele><time>2026-04-18T17:33:53.999Z</time></trkpt><trkpt lat="44.41789084207682" lon="8.952845655239429"><ele>24.400000000000002</ele><time>2026-04-18T17:33:54.999Z</time></trkpt><trkpt lat="44.41782077152823" lon="8.95293547510766"><ele>23.6</ele><time>2026-04-18T17:33:55.999Z</time></trkpt><trkpt lat="44.41774727168503" lon="8.953020187010898"><ele>22.8</ele><time>2026-04-18T17:33:56.999Z</time></trkpt><trkpt lat="44.41768376612379" lon="8.95310806824968"><ele>22.0</ele><time>2026-04-18T17:33:57.999Z</time></trkpt><trkpt lat="44.41762803108113" lon="8.953188531467045"><ele>22.0</ele><time>2026-04-18T17:33:58.999Z</time></trkpt><trkpt lat="44.417573244027324" lon="8.953260151258474"><ele>22.0</ele><time>2026-04-18T17:33:59.999Z</time></trkpt><trkpt lat="44.41751595276649" lon="8.953342345099864"><ele>22.0</ele><time>2026-04-18T17:34:00.999Z</time></trkpt><trkpt lat="44.41746402444524" lon="8.953411642652407"><ele>22.0</ele><time>2026-04-18T17:34:01.999Z</time></trkpt><trkpt lat="44.41740423919711" lon="8.95345247353759"><ele>22.0</ele><time>2026-04-18T17:34:02.999Z</time></trkpt><trkpt lat="44.41735551039753" lon="8.953508874739889"><ele>22.0</ele><time>2026-04-18T17:34:03.999Z</time></trkpt><trkpt lat="44.417272650149" lon="8.953612467896662"><ele>22.166666666666664</ele><time>2026-04-18T17:34:05.999Z</time></trkpt><trkpt lat="44.41721560750464" lon="8.953684898660123"><ele>22.333333333333332</ele><time>2026-04-18T17:34:07.999Z</time></trkpt><trkpt lat="44.417154288302804" lon="8.953763731981358"><ele>22.5</ele><time>2026-04-18T17:34:30.999Z</time></trkpt><trkpt lat="44.41709716820524" lon="8.953837166654457"><ele>22.666666666666668</ele><time>2026-04-18T17:34:32.999Z</time></trkpt><trkpt lat="44.4170349904514" lon="8.953922064330117"><ele>22.833333333333336</ele><time>2026-04-18T17:34:34.999Z</time></trkpt><trkpt lat="44.41696189969756" lon="8.954020991288893"><ele>23.0</ele><time>2026-04-18T17:34:36.999Z</time></trkpt><trkpt lat="44.416877657832686" lon="8.954132572405955"><ele>23.4</ele><time>2026-04-18T17:34:38.999Z</time></trkpt><trkpt lat="44.41678900405745" lon="8.954243833973619"><ele>23.799999999999997</ele><time>2026-04-18T17:34:40.999Z</time></trkpt><trkpt lat="44.416710123985894" lon="8.954342829589228"><ele>24.2</ele><time>2026-04-18T17:34:42.999Z</time></trkpt><trkpt lat="44.416619144272474" lon="8.954457113632445"><ele>24.6</ele><time>2026-04-18T17:34:44.999Z</time></trkpt><trkpt lat="44.416558598827365" lon="8.954533187791315"><ele>25.0</ele><time>2026-04-18T17:34:45.999Z</time></trkpt><trkpt lat="44.41649619352255" lon="8.954611599052804"><ele>25.000000000000004</ele><time>2026-04-18T17:34:46.999Z</time></trkpt><trkpt lat="44.41644679847772" lon="8.954673663008853"><ele>25.0</ele><time>2026-04-18T17:34:48Z</time></trkpt><trkpt lat="44.41639700741236" lon="8.954736224050121"><ele>25.0</ele><time>2026-04-18T17:34:50Z</time></trkpt><trkpt lat="44.4163286765226" lon="8.954822918652926"><ele>25.0</ele><time>2026-04-18T17:34:53Z</time></trkpt><trkpt lat="44.41627153350713" lon="8.954895387027703"><ele>25.000000000000004</ele><time>2026-04-18T17:34:54Z</time></trkpt><trkpt lat="44.41620377733752" lon="8.954981314579479"><ele>25.0</ele><time>2026-04-18T17:34:55Z</time></trkpt><trkpt lat="44.41613803955599" lon="8.955064682483224"><ele>24.333333333333336</ele><time>2026-04-18T17:34:56Z</time></trkpt><trkpt lat="44.41607679132756" lon="8.955142354319149"><ele>23.666666666666668</ele><time>2026-04-18T17:34:57Z</time></trkpt><trkpt lat="44.41601530567043" lon="8.955220141373596"><ele>23.0</ele><time>2026-04-18T17:34:58Z</time></trkpt><trkpt lat="44.415949543642995" lon="8.955303415483225"><ele>22.333333333333336</ele><time>2026-04-18T17:34:59Z</time></trkpt><trkpt lat="44.415880909847935" lon="8.95539032568355"><ele>21.666666666666668</ele><time>2026-04-18T17:35:00Z</time></trkpt><trkpt lat="44.41581721472961" lon="8.955470982243305"><ele>21.0</ele><time>2026-04-18T17:35:01Z</time></trkpt><trkpt lat="44.415764704137196" lon="8.95553747238176"><ele>21.0</ele><time>2026-04-18T17:35:02Z</time></trkpt><trkpt lat="44.41571396536448" lon="8.95560124825912"><ele>21.0</ele><time>2026-04-18T17:35:03Z</time></trkpt><trkpt lat="44.415665238119196" lon="8.955662720504542"><ele>21.0</ele><time>2026-04-18T17:35:04Z</time></trkpt><trkpt lat="44.41558971429504" lon="8.955757998400049"><ele>21.0</ele><time>2026-04-18T17:35:06Z</time></trkpt><trkpt lat="44.415510060199125" lon="8.955858486498396"><ele>21.0</ele><time>2026-04-18T17:35:08Z</time></trkpt><trkpt lat="44.415456676198254" lon="8.955929979106784"><ele>21.0</ele><time>2026-04-18T17:35:12Z</time></trkpt><trkpt lat="44.4153989142613" lon="8.955995649602443"><ele>21.571428571428573</ele><time>2026-04-18T17:35:38Z</time></trkpt><trkpt lat="44.415340472361244" lon="8.956063783918488"><ele>22.142857142857142</ele><time>2026-04-18T17:35:40Z</time></trkpt><trkpt lat="44.415296333915656" lon="8.956127862617114"><ele>22.714285714285715</ele><time>2026-04-18T17:35:41Z</time></trkpt><trkpt lat="44.41523791112819" lon="8.956170482858516"><ele>23.285714285714285</ele><time>2026-04-18T17:35:42Z</time></trkpt><trkpt lat="44.41518288385072" lon="8.956222448972133"><ele>23.857142857142858</ele><time>2026-04-18T17:35:43Z</time></trkpt><trkpt lat="44.41511480986347" lon="8.956283952423837"><ele>24.42857142857143</ele><time>2026-04-18T17:35:44Z</time></trkpt><trkpt lat="44.41504989477296" lon="8.956342603743964"><ele>25.0</ele><time>2026-04-18T17:35:45Z</time></trkpt><trkpt lat="44.41499331822796" lon="8.956391803197638"><ele>25.000000000000004</ele><time>2026-04-18T17:35:46Z</time></trkpt><trkpt lat="44.41493717269469" lon="8.956438659964483"><ele>25.0</ele><time>2026-04-18T17:35:47Z</time></trkpt><trkpt lat="44.41488623792624" lon="8.956511327406021"><ele>25.0</ele><time>2026-04-18T17:35:48Z</time></trkpt><trkpt lat="44.4148183861974" lon="8.956536515693886"><ele>25.0</ele><time>2026-04-18T17:35:49Z</time></trkpt><trkpt lat="44.414743642614845" lon="8.95653201964995"><ele>25.000000000000004</ele><time>2026-04-18T17:35:50Z</time></trkpt><trkpt lat="44.41465666454466" lon="8.956502893204911"><ele>25.0</ele><time>2026-04-18T17:35:51Z</time></trkpt><trkpt lat="44.414557194747935" lon="8.956451323521648"><ele>26.0</ele><time>2026-04-18T17:35:52Z</time></trkpt><trkpt lat="44.41445028716181" lon="8.956409101972826"><ele>27.0</ele><time>2026-04-18T17:35:53Z</time></trkpt><trkpt lat="44.414336519348346" lon="8.956362287757994"><ele>28.0</ele><time>2026-04-18T17:35:54Z</time></trkpt><trkpt lat="44.41423203093742" lon="8.956322623225178"><ele>29.0</ele><time>2026-04-18T17:35:55Z</time></trkpt><trkpt lat="44.41412324656541" lon="8.956282241917872"><ele>29.0</ele><time>2026-04-18T17:35:56Z</time></trkpt><trkpt lat="44.41401488302635" lon="8.9562314055304"><ele>29.0</ele><time>2026-04-18T17:35:56.999Z</time></trkpt><trkpt lat="44.41389794318385" lon="8.956180284902489"><ele>29.0</ele><time>2026-04-18T17:35:57.999Z</time></trkpt><trkpt lat="44.41378723577068" lon="8.956104837991406"><ele>29.0</ele><time>2026-04-18T17:35:58.999Z</time></trkpt><trkpt lat="44.413677103924115" lon="8.956066859232594"><ele>29.799999999999997</ele><time>2026-04-18T17:35:59.999Z</time></trkpt><trkpt lat="44.41358049143981" lon="8.956008955652244"><ele>30.599999999999998</ele><time>2026-04-18T17:36:00.999Z</time></trkpt><trkpt lat="44.41348444600153" lon="8.955966786334228"><ele>31.4</ele><time>2026-04-18T17:36:01.999Z</time></trkpt><trkpt lat="44.41338012887232" lon="8.955922126021655"><ele>32.199999999999996</ele><time>2026-04-18T17:36:02.999Z</time></trkpt><trkpt lat="44.413275168202304" lon="8.955869658956113"><ele>33.0</ele><time>2026-04-18T17:36:03.999Z</time></trkpt><trkpt lat="44.41317244583363" lon="8.955825213852057"><ele>31.799999999999997</ele><time>2026-04-18T17:36:04.999Z</time></trkpt><trkpt lat="44.41307958087678" lon="8.95577956871725"><ele>30.599999999999998</ele><time>2026-04-18T17:36:05.999Z</time></trkpt><trkpt lat="44.41298725969976" lon="8.955735867521465"><ele>29.400000000000002</ele><time>2026-04-18T17:36:06.999Z</time></trkpt><trkpt lat="44.412886457974004" lon="8.955687149687567"><ele>28.200000000000003</ele><time>2026-04-18T17:36:07.999Z</time></trkpt><trkpt lat="44.41278365223227" lon="8.955644200789157"><ele>27.0</ele><time>2026-04-18T17:36:08.999Z</time></trkpt><trkpt lat="44.41268692420847" lon="8.955590523109343"><ele>27.0</ele><time>2026-04-18T17:36:09.999Z</time></trkpt><trkpt lat="44.4126058873975" lon="8.955556543217373"><ele>27.000000000000004</ele><time>2026-04-18T17:36:10.999Z</time></trkpt><trkpt lat="44.41250477385736" lon="8.955520116142285"><ele>27.000000000000004</ele><time>2026-04-18T17:36:11.999Z</time></trkpt><trkpt lat="44.41240741087729" lon="8.95547996120168"><ele>27.0</ele><time>2026-04-18T17:36:12.999Z</time></trkpt><trkpt lat="44.412295620045" lon="8.95540672788006"><ele>27.0</ele><time>2026-04-18T17:36:13.999Z</time></trkpt><trkpt lat="44.412191568677784" lon="8.955365880731474"><ele>27.5</ele><time>2026-04-18T17:36:14.999Z</time></trkpt><trkpt lat="44.41211202479611" lon="8.955323543710517"><ele>28.0</ele><time>2026-04-18T17:36:15.999Z</time></trkpt><trkpt lat="44.41201801208284" lon="8.955278184092284"><ele>28.5</ele><time>2026-04-18T17:36:16.999Z</time></trkpt><trkpt lat="44.41193073757073" lon="8.955243445201047"><ele>29.0</ele><time>2026-04-18T17:36:17.999Z</time></trkpt><trkpt lat="44.411855814103" lon="8.955201201147458"><ele>29.5</ele><time>2026-04-18T17:36:18.999Z</time></trkpt><trkpt lat="44.41177008026917" lon="8.955154800415785"><ele>30.0</ele><time>2026-04-18T17:36:19.999Z</time></trkpt><trkpt lat="44.41169513942378" lon="8.955130476560527"><ele>30.0</ele><time>2026-04-18T17:36:20.999Z</time></trkpt><trkpt lat="44.41162584047358" lon="8.955100611451652"><ele>30.0</ele><time>2026-04-18T17:36:21.999Z</time></trkpt><trkpt lat="44.411568236872114" lon="8.95506346721851"><ele>30.0</ele><time>2026-04-18T17:36:22.999Z</time></trkpt><trkpt lat="44.4114625014358" lon="8.955015311270008"><ele>30.0</ele><time>2026-04-18T17:36:24.999Z</time></trkpt><trkpt lat="44.411399784791755" lon="8.95498047971435"><ele>30.0</ele><time>2026-04-18T17:36:25.999Z</time></trkpt><trkpt lat="44.41132427043212" lon="8.954950499306234"><ele>30.0</ele><time>2026-04-18T17:36:26.999Z</time></trkpt><trkpt lat="44.41124210028187" lon="8.954927875174555"><ele>28.4</ele><time>2026-04-18T17:36:27.999Z</time></trkpt><trkpt lat="44.411142699258264" lon="8.954893113691861"><ele>26.8</ele><time>2026-04-18T17:36:28.999Z</time></trkpt><trkpt lat="44.41102235405575" lon="8.954841281918466"><ele>25.200000000000003</ele><time>2026-04-18T17:36:29.999Z</time></trkpt><trkpt lat="44.41091202792203" lon="8.954785919507096"><ele>23.6</ele><time>2026-04-18T17:36:30.999Z</time></trkpt><trkpt lat="44.410815373181016" lon="8.954736563171329"><ele>22.0</ele><time>2026-04-18T17:36:31.999Z</time></trkpt><trkpt lat="44.410710525484276" lon="8.954696844782905"><ele>22.0</ele><time>2026-04-18T17:36:32.999Z</time></trkpt><trkpt lat="44.41060513641552" lon="8.954645984393203"><ele>22.0</ele><time>2026-04-18T17:36:33.999Z</time></trkpt><trkpt lat="44.41048342621865" lon="8.954589785034074"><ele>22.0</ele><time>2026-04-18T17:36:34.999Z</time></trkpt><trkpt lat="44.41037114451609" lon="8.954518845800427"><ele>22.0</ele><time>2026-04-18T17:36:35.999Z</time></trkpt><trkpt lat="44.41026323485213" lon="8.954470215496556"><ele>20.75</ele><time>2026-04-18T17:36:36.999Z</time></trkpt><trkpt lat="44.41015785239542" lon="8.954427970898031"><ele>19.5</ele><time>2026-04-18T17:36:37.999Z</time></trkpt><trkpt lat="44.41005039655553" lon="8.954382118377563"><ele>18.25</ele><time>2026-04-18T17:36:38.999Z</time></trkpt><trkpt lat="44.40993814807727" lon="8.954331271905362"><ele>17.0</ele><time>2026-04-18T17:36:39.999Z</time></trkpt><trkpt lat="44.40983047984892" lon="8.954277554894142"><ele>17.0</ele><time>2026-04-18T17:36:40.999Z</time></trkpt><trkpt lat="44.4097335469116" lon="8.954230591113213"><ele>17.0</ele><time>2026-04-18T17:36:41.999Z</time></trkpt><trkpt lat="44.40964404965942" lon="8.954188770672758"><ele>17.0</ele><time>2026-04-18T17:36:42.999Z</time></trkpt><trkpt lat="44.409565101215165" lon="8.954154372777491"><ele>17.0</ele><time>2026-04-18T17:36:43.999Z</time></trkpt><trkpt lat="44.409493491128906" lon="8.954120477716131"><ele>17.0</ele><time>2026-04-18T17:36:44.999Z</time></trkpt><trkpt lat="44.40942598001672" lon="8.954092538060753"><ele>17.0</ele><time>2026-04-18T17:36:45.999Z</time></trkpt><trkpt lat="44.4093576116169" lon="8.954057693621815"><ele>16.833333333333336</ele><time>2026-04-18T17:36:46.999Z</time></trkpt><trkpt lat="44.409296422963" lon="8.954029178702346"><ele>16.666666666666668</ele><time>2026-04-18T17:36:47.999Z</time></trkpt><trkpt lat="44.409230588428656" lon="8.953998784457957"><ele>16.5</ele><time>2026-04-18T17:36:48.999Z</time></trkpt><trkpt lat="44.40916678017976" lon="8.953967230467107"><ele>16.333333333333332</ele><time>2026-04-18T17:36:49.999Z</time></trkpt><trkpt lat="44.40905862381766" lon="8.953916811147163"><ele>16.166666666666664</ele><time>2026-04-18T17:36:51.999Z</time></trkpt><trkpt lat="44.40894024630486" lon="8.953858302012973"><ele>16.0</ele><time>2026-04-18T17:36:54Z</time></trkpt><trkpt lat="44.40887722715091" lon="8.953826348805471"><ele>15.666666666666666</ele><time>2026-04-18T17:36:55Z</time></trkpt><trkpt lat="44.408812409724874" lon="8.953793512345296"><ele>15.333333333333332</ele><time>2026-04-18T17:36:56Z</time></trkpt><trkpt lat="44.40874241949131" lon="8.953758578986543"><ele>15.0</ele><time>2026-04-18T17:36:57Z</time></trkpt><trkpt lat="44.408674231245854" lon="8.953725793282675"><ele>14.666666666666668</ele><time>2026-04-18T17:36:58Z</time></trkpt><trkpt lat="44.408602966224656" lon="8.95368858429551"><ele>14.333333333333334</ele><time>2026-04-18T17:36:59Z</time></trkpt><trkpt lat="44.40853349706941" lon="8.953638732505913"><ele>14.0</ele><time>2026-04-18T17:37:00Z</time></trkpt><trkpt lat="44.40845147821765" lon="8.95362004765587"><ele>14.000000000000002</ele><time>2026-04-18T17:37:01Z</time></trkpt><trkpt lat="44.4083685351789" lon="8.953581419595437"><ele>14.0</ele><time>2026-04-18T17:37:02Z</time></trkpt><trkpt lat="44.408295250810575" lon="8.953551469608236"><ele>14.0</ele><time>2026-04-18T17:37:03Z</time></trkpt><trkpt lat="44.40822239606686" lon="8.953509038567493"><ele>14.0</ele><time>2026-04-18T17:37:04Z</time></trkpt><trkpt lat="44.408131659104846" lon="8.953471272540844"><ele>14.000000000000002</ele><time>2026-04-18T17:37:05Z</time></trkpt><trkpt lat="44.408048805933085" lon="8.953441611312531"><ele>14.0</ele><time>2026-04-18T17:37:06Z</time></trkpt><trkpt lat="44.40797564985713" lon="8.953415590438025"><ele>14.333333333333334</ele><time>2026-04-18T17:37:07Z</time></trkpt><trkpt lat="44.407910552592796" lon="8.953387014834561"><ele>14.666666666666668</ele><time>2026-04-18T17:37:08Z</time></trkpt><trkpt lat="44.40786289476889" lon="8.953316189371238"><ele>15.0</ele><time>2026-04-18T17:37:09Z</time></trkpt><trkpt lat="44.40775523561793" lon="8.953289478771762"><ele>15.333333333333332</ele><time>2026-04-18T17:37:11Z</time></trkpt><trkpt lat="44.407651897910064" lon="8.953236251241796"><ele>15.666666666666666</ele><time>2026-04-18T17:37:13Z</time></trkpt><trkpt lat="44.40757673144854" lon="8.953193882261324"><ele>16.0</ele><time>2026-04-18T17:37:16Z</time></trkpt><trkpt lat="44.40751016292921" lon="8.953153957693965"><ele>15.999999999999998</ele><time>2026-04-18T17:38:12.999Z</time></trkpt><trkpt lat="44.40742131548208" lon="8.953135038380141"><ele>16.0</ele><time>2026-04-18T17:38:14.999Z</time></trkpt><trkpt lat="44.407324367788625" lon="8.953086081683217"><ele>16.0</ele><time>2026-04-18T17:38:16.999Z</time></trkpt><trkpt lat="44.40725287723051" lon="8.953060274284015"><ele>16.0</ele><time>2026-04-18T17:38:17.999Z</time></trkpt><trkpt lat="44.407176941768874" lon="8.953025716000688"><ele>15.999999999999998</ele><time>2026-04-18T17:38:18.999Z</time></trkpt><trkpt lat="44.40709659099718" lon="8.952988857496656"><ele>16.0</ele><time>2026-04-18T17:38:19.999Z</time></trkpt><trkpt lat="44.407016263199374" lon="8.95295213567622"><ele>15.600000000000001</ele><time>2026-04-18T17:38:20.999Z</time></trkpt><trkpt lat="44.40694683617243" lon="8.952918583044278"><ele>15.200000000000001</ele><time>2026-04-18T17:38:21.999Z</time></trkpt><trkpt lat="44.406876437569004" lon="8.952883241279977"><ele>14.799999999999999</ele><time>2026-04-18T17:38:22.999Z</time></trkpt><trkpt lat="44.40678342118091" lon="8.952841632050243"><ele>14.399999999999999</ele><time>2026-04-18T17:38:23.999Z</time></trkpt><trkpt lat="44.406676714256236" lon="8.952793974092728"><ele>14.0</ele><time>2026-04-18T17:38:24.999Z</time></trkpt><trkpt lat="44.40658040962695" lon="8.952744374988994"><ele>14.0</ele><time>2026-04-18T17:38:25.999Z</time></trkpt><trkpt lat="44.406497998526035" lon="8.952704866371425"><ele>13.999999999999998</ele><time>2026-04-18T17:38:26.999Z</time></trkpt><trkpt lat="44.40640569557899" lon="8.952664554520139"><ele>13.999999999999998</ele><time>2026-04-18T17:38:27.999Z</time></trkpt><trkpt lat="44.406294278961774" lon="8.95260408851208"><ele>14.0</ele><time>2026-04-18T17:38:28.999Z</time></trkpt><trkpt lat="44.40619175922819" lon="8.952555252822485"><ele>14.0</ele><time>2026-04-18T17:38:29.999Z</time></trkpt><trkpt lat="44.40609822912949" lon="8.95251094247555"><ele>13.5</ele><time>2026-04-18T17:38:30.999Z</time></trkpt><trkpt lat="44.406002405621734" lon="8.95247461334451"><ele>13.0</ele><time>2026-04-18T17:38:31.999Z</time></trkpt><trkpt lat="44.405900991718035" lon="8.95242904434985"><ele>12.5</ele><time>2026-04-18T17:38:32.999Z</time></trkpt><trkpt lat="44.40576776294586" lon="8.952363312785161"><ele>12.0</ele><time>2026-04-18T17:38:33.999Z</time></trkpt><trkpt lat="44.405628656503" lon="8.952299736896094"><ele>12.0</ele><time>2026-04-18T17:38:34.999Z</time></trkpt><trkpt lat="44.405497556620105" lon="8.952288020463126"><ele>12.0</ele><time>2026-04-18T17:38:35.999Z</time></trkpt><trkpt lat="44.40539382317904" lon="8.95223837243303"><ele>12.0</ele><time>2026-04-18T17:38:36.999Z</time></trkpt><trkpt lat="44.40530754947997" lon="8.952196091959543"><ele>12.0</ele><time>2026-04-18T17:38:38.022Z</time></trkpt><trkpt lat="44.40523045570059" lon="8.952155556324296"><ele>12.0</ele><time>2026-04-18T17:38:39.019Z</time></trkpt><trkpt lat="44.40514953062311" lon="8.952113908994976"><ele>11.8</ele><time>2026-04-18T17:38:40.015Z</time></trkpt><trkpt lat="44.4050688482903" lon="8.952073698551246"><ele>11.6</ele><time>2026-04-18T17:38:41.02Z</time></trkpt><trkpt lat="44.404988607288615" lon="8.95203462153022"><ele>11.4</ele><time>2026-04-18T17:38:42.02Z</time></trkpt><trkpt lat="44.40484789955115" lon="8.95204878595405"><ele>11.200000000000001</ele><time>2026-04-18T17:38:46.999Z</time></trkpt><trkpt lat="44.404807474325075" lon="8.952141843892656"><ele>11.0</ele><time>2026-04-18T17:38:48.999Z</time></trkpt><trkpt lat="44.404678830334525" lon="8.95216389105037"><ele>11.5</ele><time>2026-04-18T17:39:15Z</time></trkpt><trkpt lat="44.40460907731619" lon="8.95215818199907"><ele>12.0</ele><time>2026-04-18T17:39:16Z</time></trkpt><trkpt lat="44.40451314305084" lon="8.952110968761543"><ele>12.5</ele><time>2026-04-18T17:39:21Z</time></trkpt><trkpt lat="44.40453118627779" lon="8.95183897780617"><ele>13.0</ele><time>2026-04-18T17:39:22Z</time></trkpt><trkpt lat="44.404393121310925" lon="8.95176860579044"><ele>13.0</ele><time>2026-04-18T17:39:50Z</time></trkpt><trkpt lat="44.404289462623524" lon="8.952104047627293"><ele>13.0</ele><time>2026-04-18T17:39:52Z</time></trkpt><trkpt lat="44.4042432254274" lon="8.952255667031798"><ele>13.0</ele><time>2026-04-18T17:39:54Z</time></trkpt><trkpt lat="44.4042192666213" lon="8.95234289250443"><ele>13.0</ele><time>2026-04-18T17:39:55Z</time></trkpt><trkpt lat="44.40418298159555" lon="8.952495113804774"><ele>13.333333333333332</ele><time>2026-04-18T17:39:57Z</time></trkpt><trkpt lat="44.40417200968759" lon="8.952590584916042"><ele>13.666666666666666</ele><time>2026-04-18T17:39:58Z</time></trkpt><trkpt lat="44.404153142973556" lon="8.952705342610042"><ele>14.0</ele><time>2026-04-18T17:40:00Z</time></trkpt><trkpt lat="44.40412212903932" lon="8.952814274762169"><ele>14.333333333333332</ele><time>2026-04-18T17:40:03Z</time></trkpt><trkpt lat="44.40409915237443" lon="8.952961828193562"><ele>14.666666666666666</ele><time>2026-04-18T17:40:04.999Z</time></trkpt><trkpt lat="44.40408187831746" lon="8.953054478223676"><ele>15.0</ele><time>2026-04-18T17:40:05.999Z</time></trkpt><trkpt lat="44.40406241796774" lon="8.95314387129504"><ele>15.0</ele><time>2026-04-18T17:40:06.999Z</time></trkpt><trkpt lat="44.40403759966701" lon="8.95324343970149"><ele>15.0</ele><time>2026-04-18T17:40:07.999Z</time></trkpt><trkpt lat="44.4040134830098" lon="8.953355974453627"><ele>15.0</ele><time>2026-04-18T17:40:08.999Z</time></trkpt><trkpt lat="44.40398616071165" lon="8.953461316133387"><ele>15.0</ele><time>2026-04-18T17:40:09.999Z</time></trkpt><trkpt lat="44.403957708807" lon="8.953580161063705"><ele>15.0</ele><time>2026-04-18T17:40:10.999Z</time></trkpt><trkpt lat="44.40393202665474" lon="8.95370784507371"><ele>15.0</ele><time>2026-04-18T17:40:11.999Z</time></trkpt><trkpt lat="44.40389813886849" lon="8.953820085270946"><ele>15.0</ele><time>2026-04-18T17:40:12.999Z</time></trkpt><trkpt lat="44.40387497136083" lon="8.953923700505507"><ele>15.0</ele><time>2026-04-18T17:40:13.999Z</time></trkpt><trkpt lat="44.403857566606035" lon="8.954040073270857"><ele>15.0</ele><time>2026-04-18T17:40:14.999Z</time></trkpt><trkpt lat="44.403853558837206" lon="8.954157253317518"><ele>15.0</ele><time>2026-04-18T17:40:15.999Z</time></trkpt><trkpt lat="44.40386938356461" lon="8.95428123305359"><ele>15.0</ele><time>2026-04-18T17:40:16.999Z</time></trkpt><trkpt lat="44.403885749797894" lon="8.95439192577489"><ele>15.0</ele><time>2026-04-18T17:40:17.999Z</time></trkpt><trkpt lat="44.40391991910698" lon="8.954522553084004"><ele>15.0</ele><time>2026-04-18T17:40:18.999Z</time></trkpt><trkpt lat="44.4039273014893" lon="8.954652495759099"><ele>15.0</ele><time>2026-04-18T17:40:19.999Z</time></trkpt><trkpt lat="44.403914269049025" lon="8.954797011346203"><ele>15.0</ele><time>2026-04-18T17:40:20.999Z</time></trkpt><trkpt lat="44.403890593759684" lon="8.95493377153965"><ele>15.0</ele><time>2026-04-18T17:40:21.999Z</time></trkpt><trkpt lat="44.40385900456203" lon="8.955083459016675"><ele>15.0</ele><time>2026-04-18T17:40:22.999Z</time></trkpt><trkpt lat="44.40382473733251" lon="8.955242120103488"><ele>16.2</ele><time>2026-04-18T17:40:23.999Z</time></trkpt><trkpt lat="44.40378595791139" lon="8.955393336410955"><ele>17.4</ele><time>2026-04-18T17:40:24.999Z</time></trkpt><trkpt lat="44.40375435022752" lon="8.955533243550223"><ele>18.6</ele><time>2026-04-18T17:40:25.999Z</time></trkpt><trkpt lat="44.403739187667775" lon="8.955642900289892"><ele>19.8</ele><time>2026-04-18T17:40:26.999Z</time></trkpt><trkpt lat="44.40371959371602" lon="8.955761589684863"><ele>21.0</ele><time>2026-04-18T17:40:27.999Z</time></trkpt><trkpt lat="44.403687732423734" lon="8.955872426500072"><ele>23.200000000000003</ele><time>2026-04-18T17:40:28.999Z</time></trkpt><trkpt lat="44.4036233682773" lon="8.955981302852095"><ele>25.400000000000002</ele><time>2026-04-18T17:40:30.999Z</time></trkpt><trkpt lat="44.40365221591085" lon="8.956133116214671"><ele>27.6</ele><time>2026-04-18T17:40:32.999Z</time></trkpt><trkpt lat="44.403697785292735" lon="8.956208478480443"><ele>29.8</ele><time>2026-04-18T17:40:33.999Z</time></trkpt><trkpt lat="44.40375028414933" lon="8.956286703929912"><ele>32.0</ele><time>2026-04-18T17:40:34.999Z</time></trkpt><trkpt lat="44.40382175678233" lon="8.956371996903403"><ele>32.0</ele><time>2026-04-18T17:40:35.999Z</time></trkpt><trkpt lat="44.403886512572726" lon="8.9564741398698"><ele>32.0</ele><time>2026-04-18T17:40:36.999Z</time></trkpt><trkpt lat="44.403937750056805" lon="8.956575532073375"><ele>32.0</ele><time>2026-04-18T17:40:37.999Z</time></trkpt><trkpt lat="44.40398915248698" lon="8.956666435241056"><ele>32.0</ele><time>2026-04-18T17:40:38.999Z</time></trkpt><trkpt lat="44.40406051407414" lon="8.956762225226335"><ele>32.0</ele><time>2026-04-18T17:40:39.999Z</time></trkpt><trkpt lat="44.40413734996982" lon="8.956871628232092"><ele>32.0</ele><time>2026-04-18T17:40:40.999Z</time></trkpt><trkpt lat="44.4042013219632" lon="8.956984418261403"><ele>32.0</ele><time>2026-04-18T17:40:41.999Z</time></trkpt><trkpt lat="44.40425660094998" lon="8.957092133778158"><ele>32.0</ele><time>2026-04-18T17:40:42.999Z</time></trkpt><trkpt lat="44.40432224603572" lon="8.957194442242699"><ele>32.0</ele><time>2026-04-18T17:40:43.999Z</time></trkpt><trkpt lat="44.40439005802906" lon="8.95730287276117"><ele>32.0</ele><time>2026-04-18T17:40:44.999Z</time></trkpt><trkpt lat="44.4044562793422" lon="8.957418136304032"><ele>31.999999999999996</ele><time>2026-04-18T17:40:45.999Z</time></trkpt><trkpt lat="44.404516547609965" lon="8.957512206491929"><ele>32.0</ele><time>2026-04-18T17:40:46.999Z</time></trkpt><trkpt lat="44.40456771368195" lon="8.957612430740943"><ele>32.0</ele><time>2026-04-18T17:40:47.999Z</time></trkpt><trkpt lat="44.40460894427151" lon="8.95772109533356"><ele>32.0</ele><time>2026-04-18T17:40:48.999Z</time></trkpt><trkpt lat="44.40464520654947" lon="8.957821399630026"><ele>31.999999999999996</ele><time>2026-04-18T17:40:49.999Z</time></trkpt><trkpt lat="44.404662357572526" lon="8.957937389450638"><ele>32.0</ele><time>2026-04-18T17:40:50.999Z</time></trkpt><trkpt lat="44.404662159529416" lon="8.95805792682859"><ele>32.6</ele><time>2026-04-18T17:40:51.999Z</time></trkpt><trkpt lat="44.40465817758969" lon="8.958180579191307"><ele>33.2</ele><time>2026-04-18T17:40:52.999Z</time></trkpt><trkpt lat="44.404655060370175" lon="8.958314405571073"><ele>33.8</ele><time>2026-04-18T17:40:53.999Z</time></trkpt><trkpt lat="44.40465090176463" lon="8.958454446866728"><ele>34.4</ele><time>2026-04-18T17:40:54.999Z</time></trkpt><trkpt lat="44.404643645738204" lon="8.958593398364608"><ele>35.0</ele><time>2026-04-18T17:40:55.999Z</time></trkpt><trkpt lat="44.40464215167011" lon="8.958738515587871"><ele>35.2</ele><time>2026-04-18T17:40:56.999Z</time></trkpt><trkpt lat="44.404638880675456" lon="8.958868809734625"><ele>35.4</ele><time>2026-04-18T17:40:57.999Z</time></trkpt><trkpt lat="44.404636852871164" lon="8.959001183680495"><ele>35.6</ele><time>2026-04-18T17:40:58.999Z</time></trkpt><trkpt lat="44.40463569296687" lon="8.959137923461322"><ele>35.8</ele><time>2026-04-18T17:40:59.999Z</time></trkpt><trkpt lat="44.404636784106486" lon="8.959275113234384"><ele>36.0</ele><time>2026-04-18T17:41:00.999Z</time></trkpt><trkpt lat="44.40463645295776" lon="8.959417899579023"><ele>36.2</ele><time>2026-04-18T17:41:01.999Z</time></trkpt><trkpt lat="44.404634655854885" lon="8.959561133684423"><ele>36.400000000000006</ele><time>2026-04-18T17:41:02.999Z</time></trkpt><trkpt lat="44.40463392052064" lon="8.959709763781875"><ele>36.6</ele><time>2026-04-18T17:41:03.999Z</time></trkpt><trkpt lat="44.4046311288856" lon="8.959860396561973"><ele>36.800000000000004</ele><time>2026-04-18T17:41:04.999Z</time></trkpt><trkpt lat="44.40462909284137" lon="8.960009535425472"><ele>37.0</ele><time>2026-04-18T17:41:06Z</time></trkpt><trkpt lat="44.40462538583175" lon="8.960155863060786"><ele>39.5</ele><time>2026-04-18T17:41:07Z</time></trkpt><trkpt lat="44.40462363260083" lon="8.960319216091593"><ele>42.0</ele><time>2026-04-18T17:41:08Z</time></trkpt><trkpt lat="44.404623234707145" lon="8.960493291978445"><ele>44.5</ele><time>2026-04-18T17:41:09Z</time></trkpt><trkpt lat="44.404623157052136" lon="8.960653591017726"><ele>47.0</ele><time>2026-04-18T17:41:10Z</time></trkpt><trkpt lat="44.404621950888895" lon="8.960807780588015"><ele>47.5</ele><time>2026-04-18T17:41:11Z</time></trkpt><trkpt lat="44.40461787248568" lon="8.9609625031449"><ele>48.0</ele><time>2026-04-18T17:41:12Z</time></trkpt><trkpt lat="44.40461490777024" lon="8.961125596891893"><ele>48.5</ele><time>2026-04-18T17:41:13Z</time></trkpt><trkpt lat="44.404613222475014" lon="8.961292163507938"><ele>49.0</ele><time>2026-04-18T17:41:14Z</time></trkpt><trkpt lat="44.404615700972535" lon="8.961448068584696"><ele>49.0</ele><time>2026-04-18T17:41:15Z</time></trkpt><trkpt lat="44.40461148489569" lon="8.961594316405332"><ele>49.0</ele><time>2026-04-18T17:41:16Z</time></trkpt><trkpt lat="44.40460663474663" lon="8.961743625845724"><ele>49.0</ele><time>2026-04-18T17:41:17Z</time></trkpt><trkpt lat="44.40460150170208" lon="8.961896200400503"><ele>49.0</ele><time>2026-04-18T17:41:18Z</time></trkpt><trkpt lat="44.40460030929743" lon="8.962057543882919"><ele>49.0</ele><time>2026-04-18T17:41:19Z</time></trkpt><trkpt lat="44.40459740066686" lon="8.962226098126084"><ele>48.75</ele><time>2026-04-18T17:41:20Z</time></trkpt><trkpt lat="44.404594781029566" lon="8.96240333491354"><ele>48.5</ele><time>2026-04-18T17:41:21Z</time></trkpt><trkpt lat="44.40459157869159" lon="8.96258175989682"><ele>48.25</ele><time>2026-04-18T17:41:22Z</time></trkpt><trkpt lat="44.40459305809636" lon="8.962737548457465"><ele>48.0</ele><time>2026-04-18T17:41:23Z</time></trkpt><trkpt lat="44.404595353821996" lon="8.962889875801055"><ele>48.4</ele><time>2026-04-18T17:41:24Z</time></trkpt><trkpt lat="44.40459248144285" lon="8.96304614870838"><ele>48.8</ele><time>2026-04-18T17:41:25Z</time></trkpt><trkpt lat="44.40458653126581" lon="8.963207916131868"><ele>49.2</ele><time>2026-04-18T17:41:26Z</time></trkpt><trkpt lat="44.404583004792435" lon="8.963357047657587"><ele>49.6</ele><time>2026-04-18T17:41:27Z</time></trkpt><trkpt lat="44.40457944268669" lon="8.963488365863082"><ele>50.0</ele><time>2026-04-18T17:41:28Z</time></trkpt><trkpt lat="44.40457616710948" lon="8.963603150499083"><ele>50.00000000000001</ele><time>2026-04-18T17:41:29Z</time></trkpt><trkpt lat="44.40457219578544" lon="8.963711701068547"><ele>50.0</ele><time>2026-04-18T17:41:30Z</time></trkpt><trkpt lat="44.40457175256893" lon="8.963803913305727"><ele>50.0</ele><time>2026-04-18T17:41:31Z</time></trkpt><trkpt lat="44.404568543225864" lon="8.963950752814377"><ele>50.0</ele><time>2026-04-18T17:41:33Z</time></trkpt><trkpt lat="44.40455769053612" lon="8.964068091240097"><ele>50.00000000000001</ele><time>2026-04-18T17:41:35Z</time></trkpt><trkpt lat="44.40454895977082" lon="8.964159968937"><ele>50.0</ele><time>2026-04-18T17:41:37Z</time></trkpt><trkpt lat="44.40453914048606" lon="8.964256346881445"><ele>51.0</ele><time>2026-04-18T17:41:40Z</time></trkpt><trkpt lat="44.40453907347662" lon="8.964399401254074"><ele>52.0</ele><time>2026-04-18T17:42:29.999Z</time></trkpt><trkpt lat="44.40453688226616" lon="8.964529260862795"><ele>53.0</ele><time>2026-04-18T17:42:31.999Z</time></trkpt><trkpt lat="44.4045274867913" lon="8.964721827824924"><ele>54.0</ele><time>2026-04-18T17:42:33.999Z</time></trkpt><trkpt lat="44.40452651155749" lon="8.96482965053365"><ele>55.0</ele><time>2026-04-18T17:42:34.999Z</time></trkpt><trkpt lat="44.40452519834196" lon="8.964943806716583"><ele>54.6</ele><time>2026-04-18T17:42:35.999Z</time></trkpt><trkpt lat="44.40452416939143" lon="8.965065342162553"><ele>54.2</ele><time>2026-04-18T17:42:36.999Z</time></trkpt><trkpt lat="44.40452513167738" lon="8.965199500631158"><ele>53.8</ele><time>2026-04-18T17:42:37.999Z</time></trkpt><trkpt lat="44.404530402344584" lon="8.965340090338895"><ele>53.4</ele><time>2026-04-18T17:42:38.999Z</time></trkpt><trkpt lat="44.40454409053692" lon="8.965492200475358"><ele>53.0</ele><time>2026-04-18T17:42:39.999Z</time></trkpt><trkpt lat="44.404566434689855" lon="8.965648774060593"><ele>53.0</ele><time>2026-04-18T17:42:40.999Z</time></trkpt><trkpt lat="44.40458932033394" lon="8.965787955808647"><ele>53.0</ele><time>2026-04-18T17:42:41.999Z</time></trkpt><trkpt lat="44.40461741525447" lon="8.965936879419415"><ele>53.0</ele><time>2026-04-18T17:42:42.999Z</time></trkpt><trkpt lat="44.40464750017323" lon="8.96608689098682"><ele>53.0</ele><time>2026-04-18T17:42:43.999Z</time></trkpt><trkpt lat="44.404674472978186" lon="8.966206708638891"><ele>53.0</ele><time>2026-04-18T17:42:44.999Z</time></trkpt><trkpt lat="44.40469289348503" lon="8.966299367665227"><ele>53.16666666666667</ele><time>2026-04-18T17:42:45.999Z</time></trkpt><trkpt lat="44.404710551573686" lon="8.966388489106281"><ele>53.333333333333336</ele><time>2026-04-18T17:42:46.999Z</time></trkpt><trkpt lat="44.404726971184346" lon="8.966479838725329"><ele>53.5</ele><time>2026-04-18T17:42:47.999Z</time></trkpt><trkpt lat="44.40475939420919" lon="8.966644040900679"><ele>53.66666666666667</ele><time>2026-04-18T17:42:49.999Z</time></trkpt><trkpt lat="44.40477910295957" lon="8.966734907183133"><ele>53.833333333333336</ele><time>2026-04-18T17:42:50.999Z</time></trkpt><trkpt lat="44.40480159161173" lon="8.966838214809636"><ele>54.0</ele><time>2026-04-18T17:42:51.999Z</time></trkpt><trkpt lat="44.40482377925874" lon="8.966947366571127"><ele>54.0</ele><time>2026-04-18T17:42:52.999Z</time></trkpt><trkpt lat="44.404842450810506" lon="8.967048512728963"><ele>54.0</ele><time>2026-04-18T17:42:53.999Z</time></trkpt><trkpt lat="44.404862631070266" lon="8.967160872765941"><ele>54.0</ele><time>2026-04-18T17:42:54.999Z</time></trkpt><trkpt lat="44.40487634253511" lon="8.967280403905347"><ele>54.0</ele><time>2026-04-18T17:42:55.999Z</time></trkpt><trkpt lat="44.404883819959885" lon="8.967403266048104"><ele>54.0</ele><time>2026-04-18T17:42:56.999Z</time></trkpt><trkpt lat="44.40487848617676" lon="8.967530443172663"><ele>54.0</ele><time>2026-04-18T17:42:57.999Z</time></trkpt><trkpt lat="44.40487279185386" lon="8.967660175303857"><ele>54.400000000000006</ele><time>2026-04-18T17:42:58.999Z</time></trkpt><trkpt lat="44.404868969394364" lon="8.967796654996913"><ele>54.800000000000004</ele><time>2026-04-18T17:42:59.999Z</time></trkpt><trkpt lat="44.40486513442502" lon="8.967941891158702"><ele>55.199999999999996</ele><time>2026-04-18T17:43:00.999Z</time></trkpt><trkpt lat="44.40485846122648" lon="8.968095763940108"><ele>55.599999999999994</ele><time>2026-04-18T17:43:01.999Z</time></trkpt><trkpt lat="44.40486272809574" lon="8.9682312691286"><ele>56.0</ele><time>2026-04-18T17:43:02.999Z</time></trkpt><trkpt lat="44.40488093623345" lon="8.968375083055777"><ele>59.0</ele><time>2026-04-18T17:43:03.999Z</time></trkpt><trkpt lat="44.40491320098835" lon="8.968535691642073"><ele>62.0</ele><time>2026-04-18T17:43:04.999Z</time></trkpt><trkpt lat="44.4049464744591" lon="8.968688021371639"><ele>65.0</ele><time>2026-04-18T17:43:05.999Z</time></trkpt><trkpt lat="44.40497757051925" lon="8.96882426448032"><ele>68.0</ele><time>2026-04-18T17:43:06.999Z</time></trkpt><trkpt lat="44.40501750597133" lon="8.96897515678046"><ele>68.0</ele><time>2026-04-18T17:43:07.999Z</time></trkpt><trkpt lat="44.405062494014295" lon="8.969139662078144"><ele>68.0</ele><time>2026-04-18T17:43:08.999Z</time></trkpt><trkpt lat="44.40510817421772" lon="8.96929155353693"><ele>68.0</ele><time>2026-04-18T17:43:09.999Z</time></trkpt><trkpt lat="44.4051410074673" lon="8.969423335658416"><ele>68.0</ele><time>2026-04-18T17:43:10.999Z</time></trkpt><trkpt lat="44.405179008127014" lon="8.96954755870583"><ele>68.0</ele><time>2026-04-18T17:43:12Z</time></trkpt><trkpt lat="44.40521943373872" lon="8.969670221702902"><ele>68.8</ele><time>2026-04-18T17:43:13Z</time></trkpt><trkpt lat="44.405249536255454" lon="8.969790246183276"><ele>69.6</ele><time>2026-04-18T17:43:14Z</time></trkpt><trkpt lat="44.405282986194806" lon="8.969913750842705"><ele>70.4</ele><time>2026-04-18T17:43:15Z</time></trkpt><trkpt lat="44.40532725463407" lon="8.970038310520811"><ele>71.2</ele><time>2026-04-18T17:43:16Z</time></trkpt><trkpt lat="44.40536749588113" lon="8.970161607951605"><ele>72.0</ele><time>2026-04-18T17:43:17Z</time></trkpt><trkpt lat="44.40539297892336" lon="8.970272506670476"><ele>72.0</ele><time>2026-04-18T17:43:18Z</time></trkpt><trkpt lat="44.40543234153767" lon="8.9703783993403"><ele>72.0</ele><time>2026-04-18T17:43:19Z</time></trkpt><trkpt lat="44.40548452586504" lon="8.970487663435227"><ele>72.0</ele><time>2026-04-18T17:43:20Z</time></trkpt><trkpt lat="44.40554281499464" lon="8.970609393072653"><ele>72.0</ele><time>2026-04-18T17:43:21Z</time></trkpt><trkpt lat="44.40562267108162" lon="8.970732888118707"><ele>72.0</ele><time>2026-04-18T17:43:22Z</time></trkpt><trkpt lat="44.4057037485514" lon="8.97081189345582"><ele>72.2</ele><time>2026-04-18T17:43:23Z</time></trkpt><trkpt lat="44.405762180439034" lon="8.970905750886525"><ele>72.4</ele><time>2026-04-18T17:43:24Z</time></trkpt><trkpt lat="44.405834429448646" lon="8.97099289708059"><ele>72.6</ele><time>2026-04-18T17:43:25Z</time></trkpt><trkpt lat="44.40592299324748" lon="8.97106869760192"><ele>72.8</ele><time>2026-04-18T17:43:26Z</time></trkpt><trkpt lat="44.405994076359605" lon="8.971139350123003"><ele>73.0</ele><time>2026-04-18T17:43:27Z</time></trkpt><trkpt lat="44.40605703282726" lon="8.971204492961181"><ele>73.0</ele><time>2026-04-18T17:43:28Z</time></trkpt><trkpt lat="44.40612553444988" lon="8.971280982295996"><ele>73.0</ele><time>2026-04-18T17:43:29Z</time></trkpt><trkpt lat="44.40619957843461" lon="8.971370548032352"><ele>73.0</ele><time>2026-04-18T17:43:30Z</time></trkpt><trkpt lat="44.406258011589664" lon="8.971482903979302"><ele>73.0</ele><time>2026-04-18T17:43:31Z</time></trkpt><trkpt lat="44.40628464793285" lon="8.971597759065018"><ele>73.0</ele><time>2026-04-18T17:43:32Z</time></trkpt><trkpt lat="44.40629611000794" lon="8.97172275909126"><ele>75.2</ele><time>2026-04-18T17:43:33Z</time></trkpt><trkpt lat="44.40629716395789" lon="8.97186848349706"><ele>77.4</ele><time>2026-04-18T17:43:34Z</time></trkpt><trkpt lat="44.40629257331011" lon="8.9719995807204"><ele>79.60000000000001</ele><time>2026-04-18T17:43:35Z</time></trkpt><trkpt lat="44.40628737724601" lon="8.972115246437712"><ele>81.8</ele><time>2026-04-18T17:43:36Z</time></trkpt><trkpt lat="44.40629922212652" lon="8.97224665480934"><ele>84.0</ele><time>2026-04-18T17:43:37Z</time></trkpt><trkpt lat="44.40628509061439" lon="8.972383564540523"><ele>84.0</ele><time>2026-04-18T17:43:38Z</time></trkpt><trkpt lat="44.4062800398939" lon="8.972538451537206"><ele>84.0</ele><time>2026-04-18T17:43:39Z</time></trkpt><trkpt lat="44.406273717802705" lon="8.97269225915321"><ele>84.0</ele><time>2026-04-18T17:43:40Z</time></trkpt><trkpt lat="44.40627068435303" lon="8.972847033051957"><ele>84.0</ele><time>2026-04-18T17:43:41Z</time></trkpt><trkpt lat="44.40626018602573" lon="8.972979235147724"><ele>84.0</ele><time>2026-04-18T17:43:42Z</time></trkpt><trkpt lat="44.40625896986899" lon="8.973106208511805"><ele>84.0</ele><time>2026-04-18T17:43:43Z</time></trkpt><trkpt lat="44.406252714548295" lon="8.973245743867334"><ele>84.0</ele><time>2026-04-18T17:43:44Z</time></trkpt><trkpt lat="44.40624325356081" lon="8.973387924009673"><ele>84.0</ele><time>2026-04-18T17:43:45Z</time></trkpt><trkpt lat="44.406236060266444" lon="8.973496836324685"><ele>84.0</ele><time>2026-04-18T17:43:46Z</time></trkpt><trkpt lat="44.406234977303185" lon="8.973619610888749"><ele>84.0</ele><time>2026-04-18T17:43:47Z</time></trkpt><trkpt lat="44.40621989894688" lon="8.973750794753258"><ele>83.80000000000001</ele><time>2026-04-18T17:43:48Z</time></trkpt><trkpt lat="44.40620755531428" lon="8.973864884247046"><ele>83.60000000000001</ele><time>2026-04-18T17:43:49Z</time></trkpt><trkpt lat="44.406183879499956" lon="8.973978561056343"><ele>83.4</ele><time>2026-04-18T17:43:50Z</time></trkpt><trkpt lat="44.406154467714494" lon="8.974100386790955"><ele>83.2</ele><time>2026-04-18T17:43:51Z</time></trkpt><trkpt lat="44.4061003605457" lon="8.974218144791298"><ele>83.0</ele><time>2026-04-18T17:43:52Z</time></trkpt><trkpt lat="44.40604030326819" lon="8.974332007790037"><ele>82.80000000000001</ele><time>2026-04-18T17:43:53Z</time></trkpt><trkpt lat="44.40599070043882" lon="8.974432805347215"><ele>82.6</ele><time>2026-04-18T17:43:54Z</time></trkpt><trkpt lat="44.40593429736607" lon="8.974524724520792"><ele>82.4</ele><time>2026-04-18T17:43:55Z</time></trkpt><trkpt lat="44.40587096626611" lon="8.974626046904492"><ele>82.19999999999999</ele><time>2026-04-18T17:43:56Z</time></trkpt><trkpt lat="44.40581089202181" lon="8.974743092916539"><ele>82.0</ele><time>2026-04-18T17:43:57Z</time></trkpt><trkpt lat="44.40575657676451" lon="8.97484276717892"><ele>82.0</ele><time>2026-04-18T17:43:58Z</time></trkpt><trkpt lat="44.40570161094931" lon="8.974944974707931"><ele>82.0</ele><time>2026-04-18T17:43:59Z</time></trkpt><trkpt lat="44.405633949940025" lon="8.975048704435672"><ele>82.0</ele><time>2026-04-18T17:44:00Z</time></trkpt><trkpt lat="44.405574443951586" lon="8.9751470350536"><ele>82.0</ele><time>2026-04-18T17:44:01Z</time></trkpt><trkpt lat="44.40552646271803" lon="8.9752312737311"><ele>82.0</ele><time>2026-04-18T17:44:02Z</time></trkpt><trkpt lat="44.40548063145916" lon="8.975318008156252"><ele>82.0</ele><time>2026-04-18T17:44:03Z</time></trkpt><trkpt lat="44.40544074199975" lon="8.975388244914107"><ele>82.16666666666666</ele><time>2026-04-18T17:44:04Z</time></trkpt><trkpt lat="44.40540261452405" lon="8.975460283739238"><ele>82.33333333333333</ele><time>2026-04-18T17:44:05Z</time></trkpt><trkpt lat="44.405366997293676" lon="8.975536608400008"><ele>82.5</ele><time>2026-04-18T17:44:06Z</time></trkpt><trkpt lat="44.40532601480085" lon="8.975624950685257"><ele>82.66666666666667</ele><time>2026-04-18T17:44:07Z</time></trkpt><trkpt lat="44.4052813751604" lon="8.975715805649596"><ele>82.83333333333334</ele><time>2026-04-18T17:44:08Z</time></trkpt><trkpt lat="44.405218348511426" lon="8.975801921751597"><ele>83.0</ele><time>2026-04-18T17:44:09Z</time></trkpt><trkpt lat="44.40516405614095" lon="8.975890976063807"><ele>83.0</ele><time>2026-04-18T17:44:10Z</time></trkpt><trkpt lat="44.40511388793807" lon="8.975971565049981"><ele>83.0</ele><time>2026-04-18T17:44:10.999Z</time></trkpt><trkpt lat="44.40506955706228" lon="8.976062501112303"><ele>83.0</ele><time>2026-04-18T17:44:11.999Z</time></trkpt><trkpt lat="44.40500008295293" lon="8.976129422552992"><ele>83.0</ele><time>2026-04-18T17:44:12.999Z</time></trkpt><trkpt lat="44.404924570870065" lon="8.976199652113072"><ele>83.0</ele><time>2026-04-18T17:44:13.999Z</time></trkpt><trkpt lat="44.40484325984431" lon="8.976237452347434"><ele>83.0</ele><time>2026-04-18T17:44:14.999Z</time></trkpt><trkpt lat="44.404773652236344" lon="8.976307568714779"><ele>83.0</ele><time>2026-04-18T17:44:15.999Z</time></trkpt><trkpt lat="44.40468778901646" lon="8.976355129631287"><ele>83.0</ele><time>2026-04-18T17:44:16.999Z</time></trkpt><trkpt lat="44.40460366110766" lon="8.976417075986506"><ele>83.0</ele><time>2026-04-18T17:44:17.999Z</time></trkpt><trkpt lat="44.40452422523777" lon="8.976474841978007"><ele>83.0</ele><time>2026-04-18T17:44:18.999Z</time></trkpt><trkpt lat="44.404452729163715" lon="8.976527649990173"><ele>83.0</ele><time>2026-04-18T17:44:19.999Z</time></trkpt><trkpt lat="44.40438014367185" lon="8.976584118463107"><ele>83.0</ele><time>2026-04-18T17:44:20.999Z</time></trkpt><trkpt lat="44.40429371239192" lon="8.976634423416003"><ele>81.16666666666667</ele><time>2026-04-18T17:44:21.999Z</time></trkpt><trkpt lat="44.404226512332585" lon="8.976725529657822"><ele>79.33333333333334</ele><time>2026-04-18T17:44:22.999Z</time></trkpt><trkpt lat="44.40417495241093" lon="8.976808935670554"><ele>77.5</ele><time>2026-04-18T17:44:23.999Z</time></trkpt><trkpt lat="44.40414335437824" lon="8.976899664881536"><ele>75.66666666666667</ele><time>2026-04-18T17:44:24.999Z</time></trkpt><trkpt lat="44.40408300069253" lon="8.976971652876102"><ele>73.83333333333333</ele><time>2026-04-18T17:44:25.999Z</time></trkpt><trkpt lat="44.40400331164139" lon="8.977015304361483"><ele>72.0</ele><time>2026-04-18T17:44:26.999Z</time></trkpt><trkpt lat="44.40393197044861" lon="8.977050625098915"><ele>72.0</ele><time>2026-04-18T17:44:27.999Z</time></trkpt><trkpt lat="44.40385561274433" lon="8.97706992801925"><ele>72.0</ele><time>2026-04-18T17:44:28.999Z</time></trkpt><trkpt lat="44.403783863390174" lon="8.977084886425413"><ele>72.0</ele><time>2026-04-18T17:44:29.999Z</time></trkpt><trkpt lat="44.403711605711734" lon="8.977104002214132"><ele>72.0</ele><time>2026-04-18T17:44:30.999Z</time></trkpt><trkpt lat="44.40363877941253" lon="8.977130513566522"><ele>72.0</ele><time>2026-04-18T17:44:31.999Z</time></trkpt><trkpt lat="44.40355925863596" lon="8.977134432782025"><ele>72.0</ele><time>2026-04-18T17:44:32.999Z</time></trkpt><trkpt lat="44.403490456213866" lon="8.977174042241073"><ele>72.33333333333333</ele><time>2026-04-18T17:44:33.999Z</time></trkpt><trkpt lat="44.40342747106253" lon="8.977230299236945"><ele>72.66666666666667</ele><time>2026-04-18T17:44:34.999Z</time></trkpt><trkpt lat="44.403354868464824" lon="8.977321190694472"><ele>73.0</ele><time>2026-04-18T17:44:35.999Z</time></trkpt><trkpt lat="44.40329968195574" lon="8.977419037617917"><ele>73.33333333333334</ele><time>2026-04-18T17:44:36.999Z</time></trkpt><trkpt lat="44.40325427929148" lon="8.977507370022867"><ele>73.66666666666667</ele><time>2026-04-18T17:44:37.999Z</time></trkpt><trkpt lat="44.403209566915535" lon="8.977599525074181"><ele>74.0</ele><time>2026-04-18T17:44:38.999Z</time></trkpt><trkpt lat="44.40316154371021" lon="8.977698503803236"><ele>72.5</ele><time>2026-04-18T17:44:39.999Z</time></trkpt><trkpt lat="44.40311653460848" lon="8.97779127112728"><ele>71.0</ele><time>2026-04-18T17:44:40.999Z</time></trkpt><trkpt lat="44.40306901439653" lon="8.977887301884532"><ele>69.5</ele><time>2026-04-18T17:44:41.999Z</time></trkpt><trkpt lat="44.403018714475955" lon="8.977988525389868"><ele>68.0</ele><time>2026-04-18T17:44:42.999Z</time></trkpt><trkpt lat="44.40297203004029" lon="8.978076610513273"><ele>66.5</ele><time>2026-04-18T17:44:43.999Z</time></trkpt><trkpt lat="44.40292452360927" lon="8.978156383781315"><ele>65.0</ele><time>2026-04-18T17:44:44.999Z</time></trkpt><trkpt lat="44.402876637764166" lon="8.978221072164212"><ele>64.85714285714286</ele><time>2026-04-18T17:44:45.999Z</time></trkpt><trkpt lat="44.4028232472723" lon="8.978277366065019"><ele>64.71428571428572</ele><time>2026-04-18T17:44:46.999Z</time></trkpt><trkpt lat="44.40275904242938" lon="8.97832656248347"><ele>64.57142857142857</ele><time>2026-04-18T17:44:47.999Z</time></trkpt><trkpt lat="44.40268752244822" lon="8.978345764199807"><ele>64.42857142857143</ele><time>2026-04-18T17:44:48.999Z</time></trkpt><trkpt lat="44.402624223258215" lon="8.978348895553586"><ele>64.28571428571428</ele><time>2026-04-18T17:44:49.999Z</time></trkpt><trkpt lat="44.40254847769241" lon="8.978338245097861"><ele>64.14285714285714</ele><time>2026-04-18T17:44:50.999Z</time></trkpt><trkpt lat="44.402470111334765" lon="8.978320423965604"><ele>64.0</ele><time>2026-04-18T17:44:51.999Z</time></trkpt><trkpt lat="44.40236903126585" lon="8.978295273406141"><ele>64.0</ele><time>2026-04-18T17:44:53.999Z</time></trkpt><trkpt lat="44.40228865235042" lon="8.97827811076243"><ele>64.0</ele><time>2026-04-18T17:44:58.999Z</time></trkpt><trkpt lat="44.40216431645477" lon="8.978251377170407"><ele>64.0</ele><time>2026-04-18T17:45:00.999Z</time></trkpt><trkpt lat="44.40207604659051" lon="8.978231924607398"><ele>64.0</ele><time>2026-04-18T17:45:01.999Z</time></trkpt><trkpt lat="44.40198404658525" lon="8.978211520984246"><ele>64.0</ele><time>2026-04-18T17:45:02.999Z</time></trkpt><trkpt lat="44.40188446854042" lon="8.978197324452992"><ele>62.33333333333333</ele><time>2026-04-18T17:45:03.999Z</time></trkpt><trkpt lat="44.40178434942525" lon="8.978209736722533"><ele>60.666666666666664</ele><time>2026-04-18T17:45:04.999Z</time></trkpt><trkpt lat="44.40170274575797" lon="8.978236657088523"><ele>59.0</ele><time>2026-04-18T17:45:05.999Z</time></trkpt><trkpt lat="44.40163180099173" lon="8.978283561831422"><ele>57.33333333333333</ele><time>2026-04-18T17:45:06.999Z</time></trkpt><trkpt lat="44.40158785991397" lon="8.978416325681433"><ele>55.666666666666664</ele><time>2026-04-18T17:45:08.999Z</time></trkpt><trkpt lat="44.40162626138658" lon="8.978513780752733"><ele>54.0</ele><time>2026-04-18T17:45:10.999Z</time></trkpt><trkpt lat="44.40175303111613" lon="8.978515369534973"><ele>52.857142857142854</ele><time>2026-04-18T17:45:12.999Z</time></trkpt><trkpt lat="44.40182687057117" lon="8.97846719269453"><ele>51.71428571428571</ele><time>2026-04-18T17:45:13.999Z</time></trkpt><trkpt lat="44.40189338431566" lon="8.978453749597628"><ele>50.57142857142857</ele><time>2026-04-18T17:45:14.999Z</time></trkpt><trkpt lat="44.40196525005742" lon="8.978485578182797"><ele>49.42857142857143</ele><time>2026-04-18T17:45:15.999Z</time></trkpt><trkpt lat="44.40201422425789" lon="8.978556666884307"><ele>48.285714285714285</ele><time>2026-04-18T17:45:16.999Z</time></trkpt><trkpt lat="44.40203224096816" lon="8.978643332986431"><ele>47.142857142857146</ele><time>2026-04-18T17:45:18Z</time></trkpt><trkpt lat="44.402045835711995" lon="8.978756339517027"><ele>46.0</ele><time>2026-04-18T17:45:19Z</time></trkpt><trkpt lat="44.40205724952698" lon="8.978901157266307"><ele>46.0</ele><time>2026-04-18T17:45:20Z</time></trkpt><trkpt lat="44.402082915822724" lon="8.97905070854112"><ele>46.0</ele><time>2026-04-18T17:45:21Z</time></trkpt><trkpt lat="44.40210344654291" lon="8.979192919788458"><ele>46.0</ele><time>2026-04-18T17:45:22Z</time></trkpt><trkpt lat="44.40214035551247" lon="8.979330565317555"><ele>46.0</ele><time>2026-04-18T17:45:23Z</time></trkpt><trkpt lat="44.402165260947534" lon="8.9794782060597"><ele>46.0</ele><time>2026-04-18T17:45:24Z</time></trkpt><trkpt lat="44.40217061723804" lon="8.979577291975291"><ele>54.0</ele><time>2026-04-18T17:45:25Z</time></trkpt><trkpt lat="44.4022155819712" lon="8.979714538761606"><ele>54.0</ele><time>2026-04-18T17:45:27Z</time></trkpt><trkpt lat="44.402227803905696" lon="8.979851414644344"><ele>54.0</ele><time>2026-04-18T17:45:29Z</time></trkpt><trkpt lat="44.40226222522843" lon="8.979960001254593"><ele>54.0</ele><time>2026-04-18T17:45:33Z</time></trkpt></trkseg></trk></gpx>